<?xml version="1.0" encoding="UTF-8" standalone="no" ?>
<gpx xmlns="http://www.topografix.com/GPX/1/1" xmlns:xsi="http://www.w3.org/2001/XMLSchema-instance" xsi:schemaLocation="http://www.topografix.com/GPX/1/1 http://www.topografix.com/GPX/1/1/gpx.xsd" version="1.1" creator="VisuGPX - https://www.visugpx.com">
  <metadata>
    <name>Paris-Sète étape 9 partie 2</name>
  </metadata>
  <trk>
    <name><![CDATA[Paris-Sète étape 9 partie 2_1]]></name>
    <trkseg>
      <trkpt lat="44.52169" lon="2.76247">
        <ele>344.4</ele>
        <time>2022-07-12T06:33:52Z</time>
      </trkpt>
      <trkpt lat="44.5216" lon="2.76271">
        <ele>345</ele>
        <time>2022-07-12T06:33:57Z</time>
      </trkpt>
      <trkpt lat="44.52149" lon="2.76301">
        <ele>345</ele>
        <time>2022-07-12T06:34:04Z</time>
      </trkpt>
      <trkpt lat="44.52144" lon="2.76313">
        <ele>345</ele>
        <time>2022-07-12T06:34:08Z</time>
      </trkpt>
      <trkpt lat="44.52136" lon="2.76328">
        <ele>345</ele>
        <time>2022-07-12T06:34:13Z</time>
      </trkpt>
      <trkpt lat="44.52131" lon="2.76338">
        <ele>345</ele>
        <time>2022-07-12T06:34:16Z</time>
      </trkpt>
      <trkpt lat="44.52127" lon="2.76345">
        <ele>345</ele>
        <time>2022-07-12T06:34:19Z</time>
      </trkpt>
      <trkpt lat="44.52126" lon="2.76349">
        <ele>345</ele>
        <time>2022-07-12T06:34:21Z</time>
      </trkpt>
      <trkpt lat="44.52127" lon="2.76353">
        <ele>345</ele>
        <time>2022-07-12T06:34:23Z</time>
      </trkpt>
      <trkpt lat="44.5214" lon="2.76367">
        <ele>344.8</ele>
        <time>2022-07-12T06:34:29Z</time>
      </trkpt>
      <trkpt lat="44.52142" lon="2.7637">
        <ele>344.8</ele>
        <time>2022-07-12T06:34:30Z</time>
      </trkpt>
      <trkpt lat="44.52144" lon="2.76374">
        <ele>344.8</ele>
        <time>2022-07-12T06:34:33Z</time>
      </trkpt>
      <trkpt lat="44.52146" lon="2.76374">
        <ele>344.4</ele>
        <time>2022-07-12T06:34:38Z</time>
      </trkpt>
      <trkpt lat="44.52151" lon="2.76372">
        <ele>344.2</ele>
        <time>2022-07-12T06:34:42Z</time>
      </trkpt>
      <trkpt lat="44.52155" lon="2.76372">
        <ele>344.2</ele>
        <time>2022-07-12T06:34:44Z</time>
      </trkpt>
      <trkpt lat="44.52155" lon="2.76372">
        <ele>344.2</ele>
        <time>2022-07-12T06:34:45Z</time>
      </trkpt>
      <trkpt lat="44.52155" lon="2.76372">
        <ele>344.2</ele>
        <time>2022-07-12T06:34:46Z</time>
      </trkpt>
      <trkpt lat="44.52153" lon="2.76372">
        <ele>344.2</ele>
        <time>2022-07-12T06:34:48Z</time>
      </trkpt>
      <trkpt lat="44.52153" lon="2.76372">
        <ele>344.2</ele>
        <time>2022-07-12T06:34:49Z</time>
      </trkpt>
      <trkpt lat="44.52155" lon="2.76376">
        <ele>344</ele>
        <time>2022-07-12T06:34:51Z</time>
      </trkpt>
      <trkpt lat="44.52156" lon="2.76383">
        <ele>344</ele>
        <time>2022-07-12T06:34:53Z</time>
      </trkpt>
      <trkpt lat="44.52157" lon="2.76389">
        <ele>344</ele>
        <time>2022-07-12T06:34:55Z</time>
      </trkpt>
      <trkpt lat="44.52158" lon="2.76392">
        <ele>342.8</ele>
        <time>2022-07-12T06:34:59Z</time>
      </trkpt>
      <trkpt lat="44.52158" lon="2.76392">
        <ele>342.6</ele>
        <time>2022-07-12T06:35:00Z</time>
      </trkpt>
      <trkpt lat="44.5216" lon="2.76393">
        <ele>341.4</ele>
        <time>2022-07-12T06:35:16Z</time>
      </trkpt>
      <trkpt lat="44.52159" lon="2.76394">
        <ele>341.4</ele>
        <time>2022-07-12T06:35:24Z</time>
      </trkpt>
      <trkpt lat="44.52159" lon="2.76395">
        <ele>341.4</ele>
        <time>2022-07-12T06:35:29Z</time>
      </trkpt>
      <trkpt lat="44.52158" lon="2.76395">
        <ele>341.4</ele>
        <time>2022-07-12T06:35:30Z</time>
      </trkpt>
      <trkpt lat="44.52158" lon="2.76392">
        <ele>341.4</ele>
        <time>2022-07-12T06:35:34Z</time>
      </trkpt>
      <trkpt lat="44.52157" lon="2.7639">
        <ele>341.6</ele>
        <time>2022-07-12T06:35:38Z</time>
      </trkpt>
      <trkpt lat="44.52156" lon="2.76389">
        <ele>342.2</ele>
        <time>2022-07-12T06:35:43Z</time>
      </trkpt>
      <trkpt lat="44.52156" lon="2.76389">
        <ele>342.4</ele>
        <time>2022-07-12T06:35:44Z</time>
      </trkpt>
      <trkpt lat="44.52156" lon="2.76389">
        <ele>342.8</ele>
        <time>2022-07-12T06:35:45Z</time>
      </trkpt>
      <trkpt lat="44.52157" lon="2.76388">
        <ele>343.4</ele>
        <time>2022-07-12T06:35:50Z</time>
      </trkpt>
      <trkpt lat="44.52157" lon="2.76388">
        <ele>343.8</ele>
        <time>2022-07-12T06:35:52Z</time>
      </trkpt>
      <trkpt lat="44.52157" lon="2.76387">
        <ele>343.8</ele>
        <time>2022-07-12T06:35:53Z</time>
      </trkpt>
      <trkpt lat="44.52156" lon="2.76387">
        <ele>344</ele>
        <time>2022-07-12T06:35:55Z</time>
      </trkpt>
      <trkpt lat="44.52156" lon="2.76387">
        <ele>344</ele>
        <time>2022-07-12T06:35:58Z</time>
      </trkpt>
      <trkpt lat="44.52149" lon="2.76387">
        <ele>344.2</ele>
        <time>2022-07-12T06:36:03Z</time>
      </trkpt>
      <trkpt lat="44.52145" lon="2.7639">
        <ele>344.2</ele>
        <time>2022-07-12T06:36:07Z</time>
      </trkpt>
      <trkpt lat="44.52142" lon="2.76394">
        <ele>344</ele>
        <time>2022-07-12T06:36:09Z</time>
      </trkpt>
      <trkpt lat="44.52138" lon="2.76397">
        <ele>344</ele>
        <time>2022-07-12T06:36:11Z</time>
      </trkpt>
      <trkpt lat="44.52136" lon="2.76399">
        <ele>343.8</ele>
        <time>2022-07-12T06:36:13Z</time>
      </trkpt>
      <trkpt lat="44.52129" lon="2.76404">
        <ele>343.4</ele>
        <time>2022-07-12T06:36:18Z</time>
      </trkpt>
      <trkpt lat="44.52124" lon="2.76419">
        <ele>343</ele>
        <time>2022-07-12T06:36:22Z</time>
      </trkpt>
      <trkpt lat="44.52122" lon="2.76422">
        <ele>343</ele>
        <time>2022-07-12T06:36:23Z</time>
      </trkpt>
      <trkpt lat="44.52118" lon="2.76429">
        <ele>342.6</ele>
        <time>2022-07-12T06:36:25Z</time>
      </trkpt>
      <trkpt lat="44.52118" lon="2.76441">
        <ele>342.4</ele>
        <time>2022-07-12T06:36:27Z</time>
      </trkpt>
      <trkpt lat="44.52119" lon="2.76455">
        <ele>342.2</ele>
        <time>2022-07-12T06:36:29Z</time>
      </trkpt>
      <trkpt lat="44.52121" lon="2.7647">
        <ele>341.6</ele>
        <time>2022-07-12T06:36:32Z</time>
      </trkpt>
      <trkpt lat="44.52122" lon="2.76472">
        <ele>341.2</ele>
        <time>2022-07-12T06:36:33Z</time>
      </trkpt>
      <trkpt lat="44.52123" lon="2.76474">
        <ele>340.8</ele>
        <time>2022-07-12T06:36:37Z</time>
      </trkpt>
      <trkpt lat="44.52124" lon="2.76476">
        <ele>340.6</ele>
        <time>2022-07-12T06:36:39Z</time>
      </trkpt>
      <trkpt lat="44.52124" lon="2.76478">
        <ele>340.6</ele>
        <time>2022-07-12T06:36:43Z</time>
      </trkpt>
      <trkpt lat="44.52123" lon="2.76482">
        <ele>340.4</ele>
        <time>2022-07-12T06:37:26Z</time>
      </trkpt>
      <trkpt lat="44.52122" lon="2.76484">
        <ele>340.4</ele>
        <time>2022-07-12T06:37:27Z</time>
      </trkpt>
      <trkpt lat="44.52121" lon="2.76494">
        <ele>340.4</ele>
        <time>2022-07-12T06:37:30Z</time>
      </trkpt>
      <trkpt lat="44.52122" lon="2.76518">
        <ele>340</ele>
        <time>2022-07-12T06:37:36Z</time>
      </trkpt>
      <trkpt lat="44.52123" lon="2.76534">
        <ele>340</ele>
        <time>2022-07-12T06:37:41Z</time>
      </trkpt>
      <trkpt lat="44.52126" lon="2.76554">
        <ele>340</ele>
        <time>2022-07-12T06:37:47Z</time>
      </trkpt>
      <trkpt lat="44.52127" lon="2.76559">
        <ele>340</ele>
        <time>2022-07-12T06:37:48Z</time>
      </trkpt>
      <trkpt lat="44.52129" lon="2.76566">
        <ele>340</ele>
        <time>2022-07-12T06:37:50Z</time>
      </trkpt>
      <trkpt lat="44.52132" lon="2.76571">
        <ele>340</ele>
        <time>2022-07-12T06:37:51Z</time>
      </trkpt>
      <trkpt lat="44.52134" lon="2.76593">
        <ele>339.8</ele>
        <time>2022-07-12T06:37:57Z</time>
      </trkpt>
      <trkpt lat="44.52135" lon="2.76603">
        <ele>339.8</ele>
        <time>2022-07-12T06:38:00Z</time>
      </trkpt>
      <trkpt lat="44.52136" lon="2.76615">
        <ele>339.8</ele>
        <time>2022-07-12T06:38:03Z</time>
      </trkpt>
      <trkpt lat="44.52141" lon="2.76641">
        <ele>340</ele>
        <time>2022-07-12T06:38:11Z</time>
      </trkpt>
      <trkpt lat="44.52144" lon="2.76648">
        <ele>340</ele>
        <time>2022-07-12T06:38:13Z</time>
      </trkpt>
      <trkpt lat="44.52145" lon="2.76654">
        <ele>340</ele>
        <time>2022-07-12T06:38:15Z</time>
      </trkpt>
      <trkpt lat="44.52145" lon="2.76655">
        <ele>340</ele>
        <time>2022-07-12T06:38:16Z</time>
      </trkpt>
      <trkpt lat="44.52143" lon="2.76655">
        <ele>340</ele>
        <time>2022-07-12T06:38:18Z</time>
      </trkpt>
      <trkpt lat="44.52146" lon="2.76654">
        <ele>340</ele>
        <time>2022-07-12T06:38:21Z</time>
      </trkpt>
      <trkpt lat="44.52147" lon="2.76655">
        <ele>340</ele>
        <time>2022-07-12T06:38:23Z</time>
      </trkpt>
      <trkpt lat="44.52151" lon="2.76663">
        <ele>340</ele>
        <time>2022-07-12T06:38:26Z</time>
      </trkpt>
      <trkpt lat="44.52152" lon="2.76666">
        <ele>340.2</ele>
        <time>2022-07-12T06:38:27Z</time>
      </trkpt>
      <trkpt lat="44.52156" lon="2.76684">
        <ele>340.2</ele>
        <time>2022-07-12T06:38:31Z</time>
      </trkpt>
      <trkpt lat="44.52159" lon="2.76698">
        <ele>340.2</ele>
        <time>2022-07-12T06:38:34Z</time>
      </trkpt>
      <trkpt lat="44.5216" lon="2.76709">
        <ele>340.2</ele>
        <time>2022-07-12T06:38:36Z</time>
      </trkpt>
      <trkpt lat="44.52166" lon="2.76736">
        <ele>340.4</ele>
        <time>2022-07-12T06:38:42Z</time>
      </trkpt>
      <trkpt lat="44.52188" lon="2.76763">
        <ele>340.6</ele>
        <time>2022-07-12T06:38:47Z</time>
      </trkpt>
      <trkpt lat="44.5219" lon="2.76764">
        <ele>340.6</ele>
        <time>2022-07-12T06:38:49Z</time>
      </trkpt>
      <trkpt lat="44.52191" lon="2.76762">
        <ele>340.6</ele>
        <time>2022-07-12T06:38:50Z</time>
      </trkpt>
      <trkpt lat="44.5219" lon="2.76758">
        <ele>340.2</ele>
        <time>2022-07-12T06:38:53Z</time>
      </trkpt>
      <trkpt lat="44.52189" lon="2.76758">
        <ele>340.2</ele>
        <time>2022-07-12T06:38:54Z</time>
      </trkpt>
      <trkpt lat="44.52189" lon="2.76758">
        <ele>340.2</ele>
        <time>2022-07-12T06:38:56Z</time>
      </trkpt>
      <trkpt lat="44.52187" lon="2.76763">
        <ele>339.6</ele>
        <time>2022-07-12T06:39:12Z</time>
      </trkpt>
      <trkpt lat="44.52187" lon="2.76765">
        <ele>339.6</ele>
        <time>2022-07-12T06:39:13Z</time>
      </trkpt>
      <trkpt lat="44.5219" lon="2.76774">
        <ele>339.8</ele>
        <time>2022-07-12T06:39:16Z</time>
      </trkpt>
      <trkpt lat="44.52192" lon="2.76777">
        <ele>339.8</ele>
        <time>2022-07-12T06:39:17Z</time>
      </trkpt>
      <trkpt lat="44.52203" lon="2.76794">
        <ele>340</ele>
        <time>2022-07-12T06:39:21Z</time>
      </trkpt>
      <trkpt lat="44.52222" lon="2.76828">
        <ele>340</ele>
        <time>2022-07-12T06:39:27Z</time>
      </trkpt>
      <trkpt lat="44.52224" lon="2.76834">
        <ele>340</ele>
        <time>2022-07-12T06:39:28Z</time>
      </trkpt>
      <trkpt lat="44.52227" lon="2.76846">
        <ele>340</ele>
        <time>2022-07-12T06:39:30Z</time>
      </trkpt>
      <trkpt lat="44.52232" lon="2.76866">
        <ele>340.2</ele>
        <time>2022-07-12T06:39:33Z</time>
      </trkpt>
      <trkpt lat="44.52245" lon="2.76909">
        <ele>340.4</ele>
        <time>2022-07-12T06:39:40Z</time>
      </trkpt>
      <trkpt lat="44.52259" lon="2.76956">
        <ele>340.2</ele>
        <time>2022-07-12T06:39:47Z</time>
      </trkpt>
      <trkpt lat="44.52265" lon="2.76984">
        <ele>340.4</ele>
        <time>2022-07-12T06:39:52Z</time>
      </trkpt>
      <trkpt lat="44.52269" lon="2.77028">
        <ele>340.6</ele>
        <time>2022-07-12T06:39:59Z</time>
      </trkpt>
      <trkpt lat="44.52276" lon="2.77065">
        <ele>340.8</ele>
        <time>2022-07-12T06:40:06Z</time>
      </trkpt>
      <trkpt lat="44.52285" lon="2.77094">
        <ele>340.8</ele>
        <time>2022-07-12T06:40:12Z</time>
      </trkpt>
      <trkpt lat="44.52283" lon="2.77117">
        <ele>340.8</ele>
        <time>2022-07-12T06:40:16Z</time>
      </trkpt>
      <trkpt lat="44.52275" lon="2.77146">
        <ele>340.8</ele>
        <time>2022-07-12T06:40:22Z</time>
      </trkpt>
      <trkpt lat="44.52269" lon="2.77178">
        <ele>340.8</ele>
        <time>2022-07-12T06:40:28Z</time>
      </trkpt>
      <trkpt lat="44.5226" lon="2.77198">
        <ele>340.6</ele>
        <time>2022-07-12T06:40:33Z</time>
      </trkpt>
      <trkpt lat="44.52253" lon="2.77209">
        <ele>340.6</ele>
        <time>2022-07-12T06:40:37Z</time>
      </trkpt>
      <trkpt lat="44.52247" lon="2.77217">
        <ele>340.6</ele>
        <time>2022-07-12T06:40:40Z</time>
      </trkpt>
      <trkpt lat="44.52245" lon="2.77221">
        <ele>340.8</ele>
        <time>2022-07-12T06:40:41Z</time>
      </trkpt>
      <trkpt lat="44.52232" lon="2.77239">
        <ele>340.8</ele>
        <time>2022-07-12T06:40:46Z</time>
      </trkpt>
      <trkpt lat="44.52216" lon="2.77264">
        <ele>341.2</ele>
        <time>2022-07-12T06:40:54Z</time>
      </trkpt>
      <trkpt lat="44.52204" lon="2.77284">
        <ele>341.2</ele>
        <time>2022-07-12T06:40:59Z</time>
      </trkpt>
      <trkpt lat="44.52195" lon="2.77296">
        <ele>341.2</ele>
        <time>2022-07-12T06:41:02Z</time>
      </trkpt>
      <trkpt lat="44.52187" lon="2.77304">
        <ele>341.2</ele>
        <time>2022-07-12T06:41:05Z</time>
      </trkpt>
      <trkpt lat="44.52166" lon="2.77313">
        <ele>341.4</ele>
        <time>2022-07-12T06:41:12Z</time>
      </trkpt>
      <trkpt lat="44.52161" lon="2.77314">
        <ele>341.4</ele>
        <time>2022-07-12T06:41:14Z</time>
      </trkpt>
      <trkpt lat="44.52156" lon="2.77316">
        <ele>341.6</ele>
        <time>2022-07-12T06:41:16Z</time>
      </trkpt>
      <trkpt lat="44.52142" lon="2.77314">
        <ele>342</ele>
        <time>2022-07-12T06:41:21Z</time>
      </trkpt>
      <trkpt lat="44.52133" lon="2.77309">
        <ele>342.2</ele>
        <time>2022-07-12T06:41:25Z</time>
      </trkpt>
      <trkpt lat="44.52131" lon="2.77311">
        <ele>342.2</ele>
        <time>2022-07-12T06:41:26Z</time>
      </trkpt>
      <trkpt lat="44.52127" lon="2.77316">
        <ele>342.4</ele>
        <time>2022-07-12T06:41:28Z</time>
      </trkpt>
      <trkpt lat="44.52125" lon="2.77323">
        <ele>342.4</ele>
        <time>2022-07-12T06:41:30Z</time>
      </trkpt>
      <trkpt lat="44.52115" lon="2.77353">
        <ele>342.6</ele>
        <time>2022-07-12T06:41:36Z</time>
      </trkpt>
      <trkpt lat="44.52103" lon="2.77392">
        <ele>342.4</ele>
        <time>2022-07-12T06:41:43Z</time>
      </trkpt>
      <trkpt lat="44.52095" lon="2.77417">
        <ele>342.2</ele>
        <time>2022-07-12T06:41:47Z</time>
      </trkpt>
      <trkpt lat="44.52091" lon="2.77426">
        <ele>342.2</ele>
        <time>2022-07-12T06:41:49Z</time>
      </trkpt>
      <trkpt lat="44.52088" lon="2.77431">
        <ele>342.2</ele>
        <time>2022-07-12T06:41:50Z</time>
      </trkpt>
      <trkpt lat="44.52074" lon="2.77458">
        <ele>342</ele>
        <time>2022-07-12T06:41:56Z</time>
      </trkpt>
      <trkpt lat="44.52059" lon="2.77484">
        <ele>342</ele>
        <time>2022-07-12T06:42:02Z</time>
      </trkpt>
      <trkpt lat="44.5205" lon="2.77502">
        <ele>342.2</ele>
        <time>2022-07-12T06:42:06Z</time>
      </trkpt>
      <trkpt lat="44.52025" lon="2.7755">
        <ele>342.4</ele>
        <time>2022-07-12T06:42:17Z</time>
      </trkpt>
      <trkpt lat="44.52005" lon="2.77584">
        <ele>342.8</ele>
        <time>2022-07-12T06:42:25Z</time>
      </trkpt>
      <trkpt lat="44.51986" lon="2.7762">
        <ele>342.8</ele>
        <time>2022-07-12T06:42:33Z</time>
      </trkpt>
      <trkpt lat="44.51974" lon="2.77651">
        <ele>342.8</ele>
        <time>2022-07-12T06:42:39Z</time>
      </trkpt>
      <trkpt lat="44.51973" lon="2.77656">
        <ele>342.8</ele>
        <time>2022-07-12T06:42:40Z</time>
      </trkpt>
      <trkpt lat="44.51957" lon="2.77697">
        <ele>342.8</ele>
        <time>2022-07-12T06:42:48Z</time>
      </trkpt>
      <trkpt lat="44.51945" lon="2.7773">
        <ele>342.8</ele>
        <time>2022-07-12T06:42:55Z</time>
      </trkpt>
      <trkpt lat="44.51929" lon="2.77774">
        <ele>342.8</ele>
        <time>2022-07-12T06:43:03Z</time>
      </trkpt>
      <trkpt lat="44.51916" lon="2.77812">
        <ele>342.4</ele>
        <time>2022-07-12T06:43:10Z</time>
      </trkpt>
      <trkpt lat="44.51914" lon="2.77816">
        <ele>342.4</ele>
        <time>2022-07-12T06:43:11Z</time>
      </trkpt>
      <trkpt lat="44.51912" lon="2.77821">
        <ele>342.4</ele>
        <time>2022-07-12T06:43:12Z</time>
      </trkpt>
      <trkpt lat="44.51904" lon="2.7785">
        <ele>342</ele>
        <time>2022-07-12T06:43:17Z</time>
      </trkpt>
      <trkpt lat="44.51892" lon="2.77885">
        <ele>342</ele>
        <time>2022-07-12T06:43:24Z</time>
      </trkpt>
      <trkpt lat="44.51878" lon="2.77925">
        <ele>342.2</ele>
        <time>2022-07-12T06:43:32Z</time>
      </trkpt>
      <trkpt lat="44.51862" lon="2.77973">
        <ele>342.4</ele>
        <time>2022-07-12T06:43:41Z</time>
      </trkpt>
      <trkpt lat="44.5185" lon="2.78003">
        <ele>342.8</ele>
        <time>2022-07-12T06:43:47Z</time>
      </trkpt>
      <trkpt lat="44.51833" lon="2.78049">
        <ele>343</ele>
        <time>2022-07-12T06:43:56Z</time>
      </trkpt>
      <trkpt lat="44.51819" lon="2.7809">
        <ele>343.8</ele>
        <time>2022-07-12T06:44:04Z</time>
      </trkpt>
      <trkpt lat="44.51808" lon="2.7812">
        <ele>344.2</ele>
        <time>2022-07-12T06:44:11Z</time>
      </trkpt>
      <trkpt lat="44.51795" lon="2.78157">
        <ele>344.2</ele>
        <time>2022-07-12T06:44:19Z</time>
      </trkpt>
      <trkpt lat="44.51793" lon="2.78163">
        <ele>344.2</ele>
        <time>2022-07-12T06:44:20Z</time>
      </trkpt>
      <trkpt lat="44.51787" lon="2.78187">
        <ele>344.2</ele>
        <time>2022-07-12T06:44:24Z</time>
      </trkpt>
      <trkpt lat="44.51775" lon="2.78221">
        <ele>344</ele>
        <time>2022-07-12T06:44:30Z</time>
      </trkpt>
      <trkpt lat="44.5176" lon="2.78257">
        <ele>344</ele>
        <time>2022-07-12T06:44:37Z</time>
      </trkpt>
      <trkpt lat="44.5175" lon="2.7829">
        <ele>344</ele>
        <time>2022-07-12T06:44:43Z</time>
      </trkpt>
      <trkpt lat="44.51743" lon="2.78312">
        <ele>344.2</ele>
        <time>2022-07-12T06:44:48Z</time>
      </trkpt>
      <trkpt lat="44.51731" lon="2.78353">
        <ele>343.8</ele>
        <time>2022-07-12T06:44:54Z</time>
      </trkpt>
      <trkpt lat="44.51729" lon="2.78358">
        <ele>343.8</ele>
        <time>2022-07-12T06:44:55Z</time>
      </trkpt>
      <trkpt lat="44.51718" lon="2.78381">
        <ele>343.8</ele>
        <time>2022-07-12T06:45:00Z</time>
      </trkpt>
      <trkpt lat="44.51719" lon="2.78392">
        <ele>343.6</ele>
        <time>2022-07-12T06:45:02Z</time>
      </trkpt>
      <trkpt lat="44.51718" lon="2.78407">
        <ele>343.6</ele>
        <time>2022-07-12T06:45:04Z</time>
      </trkpt>
      <trkpt lat="44.51708" lon="2.78447">
        <ele>343.8</ele>
        <time>2022-07-12T06:45:11Z</time>
      </trkpt>
      <trkpt lat="44.517" lon="2.78482">
        <ele>344</ele>
        <time>2022-07-12T06:45:17Z</time>
      </trkpt>
      <trkpt lat="44.51698" lon="2.78492">
        <ele>344</ele>
        <time>2022-07-12T06:45:19Z</time>
      </trkpt>
      <trkpt lat="44.51692" lon="2.78521">
        <ele>344.4</ele>
        <time>2022-07-12T06:45:25Z</time>
      </trkpt>
      <trkpt lat="44.5169" lon="2.78535">
        <ele>344.6</ele>
        <time>2022-07-12T06:45:28Z</time>
      </trkpt>
      <trkpt lat="44.51687" lon="2.78546">
        <ele>344.6</ele>
        <time>2022-07-12T06:45:30Z</time>
      </trkpt>
      <trkpt lat="44.51682" lon="2.7857">
        <ele>344.6</ele>
        <time>2022-07-12T06:45:34Z</time>
      </trkpt>
      <trkpt lat="44.51679" lon="2.78583">
        <ele>344.8</ele>
        <time>2022-07-12T06:45:36Z</time>
      </trkpt>
      <trkpt lat="44.51662" lon="2.78637">
        <ele>345</ele>
        <time>2022-07-12T06:45:46Z</time>
      </trkpt>
      <trkpt lat="44.51641" lon="2.78658">
        <ele>345.2</ele>
        <time>2022-07-12T06:45:52Z</time>
      </trkpt>
      <trkpt lat="44.51616" lon="2.7868">
        <ele>345.2</ele>
        <time>2022-07-12T06:45:59Z</time>
      </trkpt>
      <trkpt lat="44.51586" lon="2.78702">
        <ele>345.2</ele>
        <time>2022-07-12T06:46:07Z</time>
      </trkpt>
      <trkpt lat="44.51548" lon="2.78725">
        <ele>345.6</ele>
        <time>2022-07-12T06:46:17Z</time>
      </trkpt>
      <trkpt lat="44.51529" lon="2.78735">
        <ele>345.8</ele>
        <time>2022-07-12T06:46:22Z</time>
      </trkpt>
      <trkpt lat="44.51497" lon="2.78749">
        <ele>345.8</ele>
        <time>2022-07-12T06:46:30Z</time>
      </trkpt>
      <trkpt lat="44.51457" lon="2.78762">
        <ele>346.2</ele>
        <time>2022-07-12T06:46:40Z</time>
      </trkpt>
      <trkpt lat="44.51449" lon="2.78765">
        <ele>346.2</ele>
        <time>2022-07-12T06:46:42Z</time>
      </trkpt>
      <trkpt lat="44.51416" lon="2.78771">
        <ele>346.2</ele>
        <time>2022-07-12T06:46:50Z</time>
      </trkpt>
      <trkpt lat="44.51385" lon="2.78774">
        <ele>346.2</ele>
        <time>2022-07-12T06:46:58Z</time>
      </trkpt>
      <trkpt lat="44.5137" lon="2.78779">
        <ele>346.4</ele>
        <time>2022-07-12T06:47:03Z</time>
      </trkpt>
      <trkpt lat="44.51352" lon="2.78788">
        <ele>346.8</ele>
        <time>2022-07-12T06:47:08Z</time>
      </trkpt>
      <trkpt lat="44.51348" lon="2.78791">
        <ele>347</ele>
        <time>2022-07-12T06:47:09Z</time>
      </trkpt>
      <trkpt lat="44.51324" lon="2.78813">
        <ele>347.4</ele>
        <time>2022-07-12T06:47:16Z</time>
      </trkpt>
      <trkpt lat="44.51308" lon="2.78832">
        <ele>347.4</ele>
        <time>2022-07-12T06:47:21Z</time>
      </trkpt>
      <trkpt lat="44.51299" lon="2.78845">
        <ele>347.6</ele>
        <time>2022-07-12T06:47:24Z</time>
      </trkpt>
      <trkpt lat="44.51286" lon="2.78865">
        <ele>347.6</ele>
        <time>2022-07-12T06:47:29Z</time>
      </trkpt>
      <trkpt lat="44.51255" lon="2.78899">
        <ele>347.8</ele>
        <time>2022-07-12T06:47:39Z</time>
      </trkpt>
      <trkpt lat="44.51242" lon="2.78911">
        <ele>348</ele>
        <time>2022-07-12T06:47:43Z</time>
      </trkpt>
      <trkpt lat="44.51224" lon="2.78924">
        <ele>348.6</ele>
        <time>2022-07-12T06:47:48Z</time>
      </trkpt>
      <trkpt lat="44.51213" lon="2.78929">
        <ele>348.6</ele>
        <time>2022-07-12T06:47:51Z</time>
      </trkpt>
      <trkpt lat="44.51194" lon="2.78933">
        <ele>348.8</ele>
        <time>2022-07-12T06:47:56Z</time>
      </trkpt>
      <trkpt lat="44.51175" lon="2.78933">
        <ele>349.2</ele>
        <time>2022-07-12T06:48:01Z</time>
      </trkpt>
      <trkpt lat="44.51163" lon="2.78932">
        <ele>349.4</ele>
        <time>2022-07-12T06:48:04Z</time>
      </trkpt>
      <trkpt lat="44.51148" lon="2.78937">
        <ele>349.6</ele>
        <time>2022-07-12T06:48:09Z</time>
      </trkpt>
      <trkpt lat="44.51137" lon="2.7895">
        <ele>350.4</ele>
        <time>2022-07-12T06:48:15Z</time>
      </trkpt>
      <trkpt lat="44.51127" lon="2.78963">
        <ele>351.6</ele>
        <time>2022-07-12T06:48:20Z</time>
      </trkpt>
      <trkpt lat="44.51124" lon="2.78969">
        <ele>352</ele>
        <time>2022-07-12T06:48:22Z</time>
      </trkpt>
      <trkpt lat="44.51119" lon="2.78988">
        <ele>352.8</ele>
        <time>2022-07-12T06:48:27Z</time>
      </trkpt>
      <trkpt lat="44.51115" lon="2.79002">
        <ele>353.4</ele>
        <time>2022-07-12T06:48:31Z</time>
      </trkpt>
      <trkpt lat="44.51112" lon="2.79013">
        <ele>354</ele>
        <time>2022-07-12T06:48:34Z</time>
      </trkpt>
      <trkpt lat="44.5111" lon="2.79019">
        <ele>354.4</ele>
        <time>2022-07-12T06:48:36Z</time>
      </trkpt>
      <trkpt lat="44.51106" lon="2.7903">
        <ele>355</ele>
        <time>2022-07-12T06:48:40Z</time>
      </trkpt>
      <trkpt lat="44.511" lon="2.79043">
        <ele>356</ele>
        <time>2022-07-12T06:48:46Z</time>
      </trkpt>
      <trkpt lat="44.51093" lon="2.79057">
        <ele>357.2</ele>
        <time>2022-07-12T06:48:52Z</time>
      </trkpt>
      <trkpt lat="44.51091" lon="2.7906">
        <ele>357.2</ele>
        <time>2022-07-12T06:48:53Z</time>
      </trkpt>
      <trkpt lat="44.51084" lon="2.79076">
        <ele>358</ele>
        <time>2022-07-12T06:49:00Z</time>
      </trkpt>
      <trkpt lat="44.51083" lon="2.79078">
        <ele>358.2</ele>
        <time>2022-07-12T06:49:01Z</time>
      </trkpt>
      <trkpt lat="44.51075" lon="2.79093">
        <ele>359.4</ele>
        <time>2022-07-12T06:49:08Z</time>
      </trkpt>
      <trkpt lat="44.51066" lon="2.79109">
        <ele>359.6</ele>
        <time>2022-07-12T06:49:15Z</time>
      </trkpt>
      <trkpt lat="44.51058" lon="2.79122">
        <ele>360.2</ele>
        <time>2022-07-12T06:49:21Z</time>
      </trkpt>
      <trkpt lat="44.51054" lon="2.79127">
        <ele>360.4</ele>
        <time>2022-07-12T06:49:23Z</time>
      </trkpt>
      <trkpt lat="44.51036" lon="2.79145">
        <ele>360.8</ele>
        <time>2022-07-12T06:49:31Z</time>
      </trkpt>
      <trkpt lat="44.51027" lon="2.79156">
        <ele>360.8</ele>
        <time>2022-07-12T06:49:34Z</time>
      </trkpt>
      <trkpt lat="44.5102" lon="2.79162">
        <ele>361</ele>
        <time>2022-07-12T06:49:36Z</time>
      </trkpt>
      <trkpt lat="44.50998" lon="2.79183">
        <ele>361</ele>
        <time>2022-07-12T06:49:43Z</time>
      </trkpt>
      <trkpt lat="44.50989" lon="2.79187">
        <ele>361.2</ele>
        <time>2022-07-12T06:49:47Z</time>
      </trkpt>
      <trkpt lat="44.50983" lon="2.7919">
        <ele>361.2</ele>
        <time>2022-07-12T06:49:50Z</time>
      </trkpt>
      <trkpt lat="44.50974" lon="2.79197">
        <ele>362</ele>
        <time>2022-07-12T06:49:55Z</time>
      </trkpt>
      <trkpt lat="44.50971" lon="2.792">
        <ele>362.2</ele>
        <time>2022-07-12T06:49:57Z</time>
      </trkpt>
      <trkpt lat="44.5097" lon="2.79203">
        <ele>362.2</ele>
        <time>2022-07-12T06:49:58Z</time>
      </trkpt>
      <trkpt lat="44.50965" lon="2.79212">
        <ele>362.2</ele>
        <time>2022-07-12T06:50:01Z</time>
      </trkpt>
      <trkpt lat="44.50953" lon="2.79222">
        <ele>363</ele>
        <time>2022-07-12T06:50:07Z</time>
      </trkpt>
      <trkpt lat="44.50951" lon="2.79225">
        <ele>363.2</ele>
        <time>2022-07-12T06:50:08Z</time>
      </trkpt>
      <trkpt lat="44.50936" lon="2.79244">
        <ele>364.2</ele>
        <time>2022-07-12T06:50:14Z</time>
      </trkpt>
      <trkpt lat="44.50933" lon="2.79247">
        <ele>364.2</ele>
        <time>2022-07-12T06:50:15Z</time>
      </trkpt>
      <trkpt lat="44.50923" lon="2.79258">
        <ele>364.4</ele>
        <time>2022-07-12T06:50:19Z</time>
      </trkpt>
      <trkpt lat="44.50914" lon="2.79265">
        <ele>364.6</ele>
        <time>2022-07-12T06:50:22Z</time>
      </trkpt>
      <trkpt lat="44.50901" lon="2.79277">
        <ele>365.2</ele>
        <time>2022-07-12T06:50:28Z</time>
      </trkpt>
      <trkpt lat="44.50899" lon="2.79279">
        <ele>365.4</ele>
        <time>2022-07-12T06:50:29Z</time>
      </trkpt>
      <trkpt lat="44.50882" lon="2.79304">
        <ele>365.8</ele>
        <time>2022-07-12T06:50:36Z</time>
      </trkpt>
      <trkpt lat="44.50872" lon="2.79324">
        <ele>366.4</ele>
        <time>2022-07-12T06:50:42Z</time>
      </trkpt>
      <trkpt lat="44.50869" lon="2.79331">
        <ele>366.6</ele>
        <time>2022-07-12T06:50:44Z</time>
      </trkpt>
      <trkpt lat="44.50861" lon="2.79357">
        <ele>367.4</ele>
        <time>2022-07-12T06:50:51Z</time>
      </trkpt>
      <trkpt lat="44.5086" lon="2.79361">
        <ele>367.4</ele>
        <time>2022-07-12T06:50:52Z</time>
      </trkpt>
      <trkpt lat="44.50856" lon="2.79394">
        <ele>367</ele>
        <time>2022-07-12T06:50:58Z</time>
      </trkpt>
      <trkpt lat="44.50856" lon="2.794">
        <ele>367</ele>
        <time>2022-07-12T06:50:59Z</time>
      </trkpt>
      <trkpt lat="44.50856" lon="2.79407">
        <ele>366.8</ele>
        <time>2022-07-12T06:51:00Z</time>
      </trkpt>
      <trkpt lat="44.50853" lon="2.7943">
        <ele>366.2</ele>
        <time>2022-07-12T06:51:03Z</time>
      </trkpt>
      <trkpt lat="44.50852" lon="2.79437">
        <ele>366</ele>
        <time>2022-07-12T06:51:04Z</time>
      </trkpt>
      <trkpt lat="44.5085" lon="2.79446">
        <ele>365.8</ele>
        <time>2022-07-12T06:51:05Z</time>
      </trkpt>
      <trkpt lat="44.50843" lon="2.79475">
        <ele>365</ele>
        <time>2022-07-12T06:51:08Z</time>
      </trkpt>
      <trkpt lat="44.50837" lon="2.79495">
        <ele>363.6</ele>
        <time>2022-07-12T06:51:10Z</time>
      </trkpt>
      <trkpt lat="44.50835" lon="2.79506">
        <ele>363.4</ele>
        <time>2022-07-12T06:51:11Z</time>
      </trkpt>
      <trkpt lat="44.50833" lon="2.79516">
        <ele>362.8</ele>
        <time>2022-07-12T06:51:12Z</time>
      </trkpt>
      <trkpt lat="44.50831" lon="2.79527">
        <ele>362.4</ele>
        <time>2022-07-12T06:51:13Z</time>
      </trkpt>
      <trkpt lat="44.50821" lon="2.79559">
        <ele>361.2</ele>
        <time>2022-07-12T06:51:16Z</time>
      </trkpt>
      <trkpt lat="44.50817" lon="2.79569">
        <ele>361</ele>
        <time>2022-07-12T06:51:17Z</time>
      </trkpt>
      <trkpt lat="44.50806" lon="2.79595">
        <ele>360.4</ele>
        <time>2022-07-12T06:51:20Z</time>
      </trkpt>
      <trkpt lat="44.508" lon="2.79607">
        <ele>360.4</ele>
        <time>2022-07-12T06:51:22Z</time>
      </trkpt>
      <trkpt lat="44.50788" lon="2.79627">
        <ele>361</ele>
        <time>2022-07-12T06:51:26Z</time>
      </trkpt>
      <trkpt lat="44.50775" lon="2.79645">
        <ele>361.8</ele>
        <time>2022-07-12T06:51:32Z</time>
      </trkpt>
      <trkpt lat="44.50769" lon="2.79652">
        <ele>362</ele>
        <time>2022-07-12T06:51:34Z</time>
      </trkpt>
      <trkpt lat="44.5076" lon="2.79677">
        <ele>362.2</ele>
        <time>2022-07-12T06:51:39Z</time>
      </trkpt>
      <trkpt lat="44.50757" lon="2.79681">
        <ele>362.4</ele>
        <time>2022-07-12T06:51:40Z</time>
      </trkpt>
      <trkpt lat="44.50745" lon="2.79706">
        <ele>362.8</ele>
        <time>2022-07-12T06:51:46Z</time>
      </trkpt>
      <trkpt lat="44.50744" lon="2.79715">
        <ele>363.2</ele>
        <time>2022-07-12T06:51:48Z</time>
      </trkpt>
      <trkpt lat="44.50741" lon="2.79739">
        <ele>364</ele>
        <time>2022-07-12T06:51:53Z</time>
      </trkpt>
      <trkpt lat="44.50739" lon="2.79749">
        <ele>364.2</ele>
        <time>2022-07-12T06:51:55Z</time>
      </trkpt>
      <trkpt lat="44.50734" lon="2.79776">
        <ele>364.4</ele>
        <time>2022-07-12T06:52:00Z</time>
      </trkpt>
      <trkpt lat="44.50732" lon="2.79791">
        <ele>364.4</ele>
        <time>2022-07-12T06:52:02Z</time>
      </trkpt>
      <trkpt lat="44.50727" lon="2.7981">
        <ele>364.2</ele>
        <time>2022-07-12T06:52:05Z</time>
      </trkpt>
      <trkpt lat="44.50725" lon="2.79816">
        <ele>364.2</ele>
        <time>2022-07-12T06:52:06Z</time>
      </trkpt>
      <trkpt lat="44.50718" lon="2.79858">
        <ele>363.6</ele>
        <time>2022-07-12T06:52:12Z</time>
      </trkpt>
      <trkpt lat="44.5072" lon="2.79894">
        <ele>363.2</ele>
        <time>2022-07-12T06:52:17Z</time>
      </trkpt>
      <trkpt lat="44.50721" lon="2.79901">
        <ele>363</ele>
        <time>2022-07-12T06:52:18Z</time>
      </trkpt>
      <trkpt lat="44.50726" lon="2.79977">
        <ele>362.2</ele>
        <time>2022-07-12T06:52:28Z</time>
      </trkpt>
      <trkpt lat="44.50726" lon="2.79986">
        <ele>362</ele>
        <time>2022-07-12T06:52:29Z</time>
      </trkpt>
      <trkpt lat="44.50729" lon="2.8003">
        <ele>361</ele>
        <time>2022-07-12T06:52:34Z</time>
      </trkpt>
      <trkpt lat="44.50729" lon="2.80039">
        <ele>360.8</ele>
        <time>2022-07-12T06:52:35Z</time>
      </trkpt>
      <trkpt lat="44.50726" lon="2.80088">
        <ele>359.8</ele>
        <time>2022-07-12T06:52:41Z</time>
      </trkpt>
      <trkpt lat="44.50724" lon="2.80095">
        <ele>359.6</ele>
        <time>2022-07-12T06:52:42Z</time>
      </trkpt>
      <trkpt lat="44.5072" lon="2.80109">
        <ele>359.6</ele>
        <time>2022-07-12T06:52:44Z</time>
      </trkpt>
      <trkpt lat="44.50716" lon="2.8013">
        <ele>359.4</ele>
        <time>2022-07-12T06:52:47Z</time>
      </trkpt>
      <trkpt lat="44.50703" lon="2.80172">
        <ele>359.4</ele>
        <time>2022-07-12T06:52:54Z</time>
      </trkpt>
      <trkpt lat="44.50697" lon="2.80183">
        <ele>359.4</ele>
        <time>2022-07-12T06:52:56Z</time>
      </trkpt>
      <trkpt lat="44.50683" lon="2.80201">
        <ele>359.2</ele>
        <time>2022-07-12T06:53:00Z</time>
      </trkpt>
      <trkpt lat="44.50672" lon="2.80216">
        <ele>359</ele>
        <time>2022-07-12T06:53:03Z</time>
      </trkpt>
      <trkpt lat="44.50667" lon="2.80228">
        <ele>359</ele>
        <time>2022-07-12T06:53:05Z</time>
      </trkpt>
      <trkpt lat="44.50665" lon="2.80236">
        <ele>358.8</ele>
        <time>2022-07-12T06:53:06Z</time>
      </trkpt>
      <trkpt lat="44.50664" lon="2.80244">
        <ele>358.8</ele>
        <time>2022-07-12T06:53:07Z</time>
      </trkpt>
      <trkpt lat="44.50668" lon="2.8026">
        <ele>358.2</ele>
        <time>2022-07-12T06:53:09Z</time>
      </trkpt>
      <trkpt lat="44.50681" lon="2.80285">
        <ele>357.6</ele>
        <time>2022-07-12T06:53:13Z</time>
      </trkpt>
      <trkpt lat="44.50688" lon="2.80296">
        <ele>357.6</ele>
        <time>2022-07-12T06:53:15Z</time>
      </trkpt>
      <trkpt lat="44.50716" lon="2.80349">
        <ele>356.4</ele>
        <time>2022-07-12T06:53:23Z</time>
      </trkpt>
      <trkpt lat="44.50721" lon="2.80366">
        <ele>356.2</ele>
        <time>2022-07-12T06:53:25Z</time>
      </trkpt>
      <trkpt lat="44.50723" lon="2.8039">
        <ele>355.8</ele>
        <time>2022-07-12T06:53:28Z</time>
      </trkpt>
      <trkpt lat="44.50723" lon="2.80397">
        <ele>355.6</ele>
        <time>2022-07-12T06:53:29Z</time>
      </trkpt>
      <trkpt lat="44.50721" lon="2.8041">
        <ele>355.4</ele>
        <time>2022-07-12T06:53:31Z</time>
      </trkpt>
      <trkpt lat="44.50719" lon="2.80416">
        <ele>355.4</ele>
        <time>2022-07-12T06:53:32Z</time>
      </trkpt>
      <trkpt lat="44.50717" lon="2.80428">
        <ele>355.4</ele>
        <time>2022-07-12T06:53:34Z</time>
      </trkpt>
      <trkpt lat="44.50715" lon="2.80444">
        <ele>355.4</ele>
        <time>2022-07-12T06:53:37Z</time>
      </trkpt>
      <trkpt lat="44.50711" lon="2.80473">
        <ele>356</ele>
        <time>2022-07-12T06:53:43Z</time>
      </trkpt>
      <trkpt lat="44.50711" lon="2.805">
        <ele>356.4</ele>
        <time>2022-07-12T06:53:48Z</time>
      </trkpt>
      <trkpt lat="44.50713" lon="2.8051">
        <ele>356.6</ele>
        <time>2022-07-12T06:53:50Z</time>
      </trkpt>
      <trkpt lat="44.50721" lon="2.80537">
        <ele>356.6</ele>
        <time>2022-07-12T06:53:54Z</time>
      </trkpt>
      <trkpt lat="44.50732" lon="2.80561">
        <ele>356.2</ele>
        <time>2022-07-12T06:53:58Z</time>
      </trkpt>
      <trkpt lat="44.50738" lon="2.80571">
        <ele>356</ele>
        <time>2022-07-12T06:53:59Z</time>
      </trkpt>
      <trkpt lat="44.5075" lon="2.80598">
        <ele>355.6</ele>
        <time>2022-07-12T06:54:02Z</time>
      </trkpt>
      <trkpt lat="44.50752" lon="2.80607">
        <ele>355.4</ele>
        <time>2022-07-12T06:54:03Z</time>
      </trkpt>
      <trkpt lat="44.50755" lon="2.80615">
        <ele>355.2</ele>
        <time>2022-07-12T06:54:04Z</time>
      </trkpt>
      <trkpt lat="44.50766" lon="2.80648">
        <ele>354.4</ele>
        <time>2022-07-12T06:54:08Z</time>
      </trkpt>
      <trkpt lat="44.50768" lon="2.80654">
        <ele>354</ele>
        <time>2022-07-12T06:54:09Z</time>
      </trkpt>
      <trkpt lat="44.50771" lon="2.8066">
        <ele>353.6</ele>
        <time>2022-07-12T06:54:10Z</time>
      </trkpt>
      <trkpt lat="44.50777" lon="2.80669">
        <ele>353.2</ele>
        <time>2022-07-12T06:54:12Z</time>
      </trkpt>
      <trkpt lat="44.50779" lon="2.80673">
        <ele>353</ele>
        <time>2022-07-12T06:54:13Z</time>
      </trkpt>
      <trkpt lat="44.50781" lon="2.80675">
        <ele>352.8</ele>
        <time>2022-07-12T06:54:14Z</time>
      </trkpt>
      <trkpt lat="44.50788" lon="2.80696">
        <ele>352.4</ele>
        <time>2022-07-12T06:54:19Z</time>
      </trkpt>
      <trkpt lat="44.508" lon="2.80715">
        <ele>352.4</ele>
        <time>2022-07-12T06:54:23Z</time>
      </trkpt>
      <trkpt lat="44.50801" lon="2.80719">
        <ele>352.4</ele>
        <time>2022-07-12T06:54:24Z</time>
      </trkpt>
      <trkpt lat="44.50815" lon="2.80751">
        <ele>353</ele>
        <time>2022-07-12T06:54:31Z</time>
      </trkpt>
      <trkpt lat="44.5083" lon="2.80781">
        <ele>353.4</ele>
        <time>2022-07-12T06:54:37Z</time>
      </trkpt>
      <trkpt lat="44.50833" lon="2.80786">
        <ele>353.4</ele>
        <time>2022-07-12T06:54:38Z</time>
      </trkpt>
      <trkpt lat="44.50846" lon="2.80805">
        <ele>353.4</ele>
        <time>2022-07-12T06:54:42Z</time>
      </trkpt>
      <trkpt lat="44.50857" lon="2.80819">
        <ele>353.2</ele>
        <time>2022-07-12T06:54:45Z</time>
      </trkpt>
      <trkpt lat="44.50889" lon="2.80851">
        <ele>352.8</ele>
        <time>2022-07-12T06:54:53Z</time>
      </trkpt>
      <trkpt lat="44.50917" lon="2.80874">
        <ele>352.2</ele>
        <time>2022-07-12T06:54:59Z</time>
      </trkpt>
      <trkpt lat="44.5093" lon="2.80885">
        <ele>352</ele>
        <time>2022-07-12T06:55:02Z</time>
      </trkpt>
      <trkpt lat="44.50958" lon="2.8091">
        <ele>351.2</ele>
        <time>2022-07-12T06:55:08Z</time>
      </trkpt>
      <trkpt lat="44.50966" lon="2.80918">
        <ele>351.2</ele>
        <time>2022-07-12T06:55:10Z</time>
      </trkpt>
      <trkpt lat="44.50998" lon="2.80951">
        <ele>351</ele>
        <time>2022-07-12T06:55:18Z</time>
      </trkpt>
      <trkpt lat="44.51014" lon="2.80967">
        <ele>350.8</ele>
        <time>2022-07-12T06:55:22Z</time>
      </trkpt>
      <trkpt lat="44.51023" lon="2.80982">
        <ele>350.8</ele>
        <time>2022-07-12T06:55:25Z</time>
      </trkpt>
      <trkpt lat="44.51026" lon="2.80987">
        <ele>350.8</ele>
        <time>2022-07-12T06:55:26Z</time>
      </trkpt>
      <trkpt lat="44.51036" lon="2.81009">
        <ele>351</ele>
        <time>2022-07-12T06:55:30Z</time>
      </trkpt>
      <trkpt lat="44.51046" lon="2.81041">
        <ele>351.6</ele>
        <time>2022-07-12T06:55:37Z</time>
      </trkpt>
      <trkpt lat="44.51055" lon="2.81076">
        <ele>352.2</ele>
        <time>2022-07-12T06:55:44Z</time>
      </trkpt>
      <trkpt lat="44.51058" lon="2.81083">
        <ele>352.4</ele>
        <time>2022-07-12T06:55:46Z</time>
      </trkpt>
      <trkpt lat="44.51065" lon="2.81104">
        <ele>352.6</ele>
        <time>2022-07-12T06:55:50Z</time>
      </trkpt>
      <trkpt lat="44.51072" lon="2.81126">
        <ele>352.8</ele>
        <time>2022-07-12T06:55:54Z</time>
      </trkpt>
      <trkpt lat="44.51088" lon="2.81173">
        <ele>352.6</ele>
        <time>2022-07-12T06:56:02Z</time>
      </trkpt>
      <trkpt lat="44.51107" lon="2.81223">
        <ele>352.8</ele>
        <time>2022-07-12T06:56:11Z</time>
      </trkpt>
      <trkpt lat="44.51121" lon="2.81269">
        <ele>353</ele>
        <time>2022-07-12T06:56:19Z</time>
      </trkpt>
      <trkpt lat="44.51138" lon="2.81322">
        <ele>353.2</ele>
        <time>2022-07-12T06:56:28Z</time>
      </trkpt>
      <trkpt lat="44.51143" lon="2.81338">
        <ele>353.4</ele>
        <time>2022-07-12T06:56:31Z</time>
      </trkpt>
      <trkpt lat="44.51145" lon="2.81343">
        <ele>353.4</ele>
        <time>2022-07-12T06:56:32Z</time>
      </trkpt>
      <trkpt lat="44.5115" lon="2.81359">
        <ele>353.6</ele>
        <time>2022-07-12T06:56:35Z</time>
      </trkpt>
      <trkpt lat="44.51171" lon="2.81421">
        <ele>354</ele>
        <time>2022-07-12T06:56:46Z</time>
      </trkpt>
      <trkpt lat="44.51189" lon="2.81481">
        <ele>354.4</ele>
        <time>2022-07-12T06:56:56Z</time>
      </trkpt>
      <trkpt lat="44.51204" lon="2.8154">
        <ele>354.2</ele>
        <time>2022-07-12T06:57:06Z</time>
      </trkpt>
      <trkpt lat="44.51212" lon="2.81569">
        <ele>354.8</ele>
        <time>2022-07-12T06:57:11Z</time>
      </trkpt>
      <trkpt lat="44.5122" lon="2.81597">
        <ele>354.8</ele>
        <time>2022-07-12T06:57:16Z</time>
      </trkpt>
      <trkpt lat="44.51222" lon="2.81601">
        <ele>354.8</ele>
        <time>2022-07-12T06:57:17Z</time>
      </trkpt>
      <trkpt lat="44.51225" lon="2.81616">
        <ele>355</ele>
        <time>2022-07-12T06:57:21Z</time>
      </trkpt>
      <trkpt lat="44.51235" lon="2.81624">
        <ele>355.4</ele>
        <time>2022-07-12T06:57:25Z</time>
      </trkpt>
      <trkpt lat="44.51246" lon="2.81628">
        <ele>355.8</ele>
        <time>2022-07-12T06:57:29Z</time>
      </trkpt>
      <trkpt lat="44.5126" lon="2.81631">
        <ele>356.4</ele>
        <time>2022-07-12T06:57:34Z</time>
      </trkpt>
      <trkpt lat="44.51268" lon="2.81635">
        <ele>357</ele>
        <time>2022-07-12T06:57:37Z</time>
      </trkpt>
      <trkpt lat="44.51282" lon="2.81638">
        <ele>357.8</ele>
        <time>2022-07-12T06:57:42Z</time>
      </trkpt>
      <trkpt lat="44.51288" lon="2.81639">
        <ele>358.2</ele>
        <time>2022-07-12T06:57:44Z</time>
      </trkpt>
      <trkpt lat="44.51297" lon="2.81639">
        <ele>358.4</ele>
        <time>2022-07-12T06:57:48Z</time>
      </trkpt>
      <trkpt lat="44.51299" lon="2.81636">
        <ele>359</ele>
        <time>2022-07-12T06:57:53Z</time>
      </trkpt>
      <trkpt lat="44.51299" lon="2.81636">
        <ele>359.2</ele>
        <time>2022-07-12T06:57:54Z</time>
      </trkpt>
      <trkpt lat="44.513" lon="2.81638">
        <ele>359.4</ele>
        <time>2022-07-12T06:58:13Z</time>
      </trkpt>
      <trkpt lat="44.51302" lon="2.81642">
        <ele>359.4</ele>
        <time>2022-07-12T06:58:15Z</time>
      </trkpt>
      <trkpt lat="44.51303" lon="2.81643">
        <ele>359.4</ele>
        <time>2022-07-12T06:58:16Z</time>
      </trkpt>
      <trkpt lat="44.51318" lon="2.8165">
        <ele>359.4</ele>
        <time>2022-07-12T06:58:21Z</time>
      </trkpt>
      <trkpt lat="44.51336" lon="2.81656">
        <ele>359.4</ele>
        <time>2022-07-12T06:58:27Z</time>
      </trkpt>
      <trkpt lat="44.51365" lon="2.81665">
        <ele>359.8</ele>
        <time>2022-07-12T06:58:37Z</time>
      </trkpt>
      <trkpt lat="44.51381" lon="2.81662">
        <ele>360.4</ele>
        <time>2022-07-12T06:58:43Z</time>
      </trkpt>
      <trkpt lat="44.51386" lon="2.8166">
        <ele>360.6</ele>
        <time>2022-07-12T06:58:45Z</time>
      </trkpt>
      <trkpt lat="44.51393" lon="2.81657">
        <ele>361</ele>
        <time>2022-07-12T06:58:50Z</time>
      </trkpt>
      <trkpt lat="44.51398" lon="2.81657">
        <ele>361.6</ele>
        <time>2022-07-12T06:58:54Z</time>
      </trkpt>
      <trkpt lat="44.51401" lon="2.81657">
        <ele>362.4</ele>
        <time>2022-07-12T06:58:58Z</time>
      </trkpt>
      <trkpt lat="44.51402" lon="2.81657">
        <ele>362.8</ele>
        <time>2022-07-12T06:58:59Z</time>
      </trkpt>
      <trkpt lat="44.51402" lon="2.81662">
        <ele>363.4</ele>
        <time>2022-07-12T06:59:01Z</time>
      </trkpt>
      <trkpt lat="44.51402" lon="2.81665">
        <ele>363.6</ele>
        <time>2022-07-12T06:59:02Z</time>
      </trkpt>
      <trkpt lat="44.51401" lon="2.81667">
        <ele>363.8</ele>
        <time>2022-07-12T06:59:03Z</time>
      </trkpt>
      <trkpt lat="44.51401" lon="2.81674">
        <ele>364</ele>
        <time>2022-07-12T06:59:06Z</time>
      </trkpt>
      <trkpt lat="44.51401" lon="2.81675">
        <ele>364</ele>
        <time>2022-07-12T06:59:07Z</time>
      </trkpt>
      <trkpt lat="44.51401" lon="2.81676">
        <ele>364</ele>
        <time>2022-07-12T06:59:08Z</time>
      </trkpt>
      <trkpt lat="44.51401" lon="2.81678">
        <ele>364</ele>
        <time>2022-07-12T06:59:11Z</time>
      </trkpt>
      <trkpt lat="44.51402" lon="2.81675">
        <ele>363.8</ele>
        <time>2022-07-12T06:59:15Z</time>
      </trkpt>
      <trkpt lat="44.514" lon="2.81687">
        <ele>363.6</ele>
        <time>2022-07-12T06:59:19Z</time>
      </trkpt>
      <trkpt lat="44.51398" lon="2.81702">
        <ele>363.2</ele>
        <time>2022-07-12T06:59:25Z</time>
      </trkpt>
      <trkpt lat="44.51398" lon="2.81703">
        <ele>363</ele>
        <time>2022-07-12T06:59:28Z</time>
      </trkpt>
      <trkpt lat="44.51398" lon="2.81702">
        <ele>362.4</ele>
        <time>2022-07-12T06:59:34Z</time>
      </trkpt>
      <trkpt lat="44.51399" lon="2.817">
        <ele>362.4</ele>
        <time>2022-07-12T06:59:36Z</time>
      </trkpt>
      <trkpt lat="44.514" lon="2.81697">
        <ele>362.4</ele>
        <time>2022-07-12T06:59:38Z</time>
      </trkpt>
      <trkpt lat="44.51402" lon="2.81688">
        <ele>362.6</ele>
        <time>2022-07-12T06:59:42Z</time>
      </trkpt>
      <trkpt lat="44.51404" lon="2.81684">
        <ele>362.8</ele>
        <time>2022-07-12T06:59:44Z</time>
      </trkpt>
      <trkpt lat="44.51406" lon="2.81676">
        <ele>363.2</ele>
        <time>2022-07-12T06:59:47Z</time>
      </trkpt>
      <trkpt lat="44.51407" lon="2.8167">
        <ele>363.6</ele>
        <time>2022-07-12T06:59:50Z</time>
      </trkpt>
      <trkpt lat="44.51407" lon="2.81667">
        <ele>363.8</ele>
        <time>2022-07-12T06:59:52Z</time>
      </trkpt>
      <trkpt lat="44.51407" lon="2.81662">
        <ele>364.2</ele>
        <time>2022-07-12T06:59:55Z</time>
      </trkpt>
      <trkpt lat="44.51408" lon="2.81659">
        <ele>364.4</ele>
        <time>2022-07-12T06:59:57Z</time>
      </trkpt>
      <trkpt lat="44.51411" lon="2.81651">
        <ele>364.6</ele>
        <time>2022-07-12T07:00:01Z</time>
      </trkpt>
      <trkpt lat="44.5141" lon="2.8165">
        <ele>364.8</ele>
        <time>2022-07-12T07:00:04Z</time>
      </trkpt>
      <trkpt lat="44.51409" lon="2.81651">
        <ele>365</ele>
        <time>2022-07-12T07:00:07Z</time>
      </trkpt>
      <trkpt lat="44.51408" lon="2.81653">
        <ele>365</ele>
        <time>2022-07-12T07:00:08Z</time>
      </trkpt>
      <trkpt lat="44.51407" lon="2.81661">
        <ele>365</ele>
        <time>2022-07-12T07:00:11Z</time>
      </trkpt>
      <trkpt lat="44.51407" lon="2.81661">
        <ele>364.6</ele>
        <time>2022-07-12T07:00:13Z</time>
      </trkpt>
      <trkpt lat="44.51406" lon="2.81664">
        <ele>364.2</ele>
        <time>2022-07-12T07:00:23Z</time>
      </trkpt>
      <trkpt lat="44.51404" lon="2.81672">
        <ele>364.2</ele>
        <time>2022-07-12T07:00:26Z</time>
      </trkpt>
      <trkpt lat="44.51401" lon="2.81697">
        <ele>364</ele>
        <time>2022-07-12T07:00:31Z</time>
      </trkpt>
      <trkpt lat="44.514" lon="2.81702">
        <ele>363.8</ele>
        <time>2022-07-12T07:00:32Z</time>
      </trkpt>
      <trkpt lat="44.51398" lon="2.81731">
        <ele>362.8</ele>
        <time>2022-07-12T07:00:37Z</time>
      </trkpt>
      <trkpt lat="44.51399" lon="2.81751">
        <ele>362</ele>
        <time>2022-07-12T07:00:40Z</time>
      </trkpt>
      <trkpt lat="44.514" lon="2.81758">
        <ele>361.6</ele>
        <time>2022-07-12T07:00:41Z</time>
      </trkpt>
      <trkpt lat="44.51405" lon="2.81782">
        <ele>360.4</ele>
        <time>2022-07-12T07:00:44Z</time>
      </trkpt>
      <trkpt lat="44.51408" lon="2.81805">
        <ele>359.6</ele>
        <time>2022-07-12T07:00:47Z</time>
      </trkpt>
      <trkpt lat="44.51407" lon="2.81819">
        <ele>359</ele>
        <time>2022-07-12T07:00:49Z</time>
      </trkpt>
      <trkpt lat="44.51401" lon="2.81833">
        <ele>358.6</ele>
        <time>2022-07-12T07:00:51Z</time>
      </trkpt>
      <trkpt lat="44.51393" lon="2.81846">
        <ele>357.8</ele>
        <time>2022-07-12T07:00:53Z</time>
      </trkpt>
      <trkpt lat="44.51385" lon="2.81859">
        <ele>357.2</ele>
        <time>2022-07-12T07:00:55Z</time>
      </trkpt>
      <trkpt lat="44.51379" lon="2.81874">
        <ele>356.8</ele>
        <time>2022-07-12T07:00:57Z</time>
      </trkpt>
      <trkpt lat="44.51377" lon="2.81882">
        <ele>356.8</ele>
        <time>2022-07-12T07:00:58Z</time>
      </trkpt>
      <trkpt lat="44.51376" lon="2.81904">
        <ele>356.4</ele>
        <time>2022-07-12T07:01:01Z</time>
      </trkpt>
      <trkpt lat="44.51384" lon="2.81942">
        <ele>356</ele>
        <time>2022-07-12T07:01:07Z</time>
      </trkpt>
      <trkpt lat="44.51385" lon="2.81949">
        <ele>356</ele>
        <time>2022-07-12T07:01:08Z</time>
      </trkpt>
      <trkpt lat="44.51387" lon="2.81978">
        <ele>356.2</ele>
        <time>2022-07-12T07:01:13Z</time>
      </trkpt>
      <trkpt lat="44.51384" lon="2.81999">
        <ele>356.4</ele>
        <time>2022-07-12T07:01:17Z</time>
      </trkpt>
      <trkpt lat="44.51383" lon="2.82005">
        <ele>356.4</ele>
        <time>2022-07-12T07:01:18Z</time>
      </trkpt>
      <trkpt lat="44.5138" lon="2.82015">
        <ele>356.4</ele>
        <time>2022-07-12T07:01:20Z</time>
      </trkpt>
      <trkpt lat="44.51373" lon="2.82043">
        <ele>356.4</ele>
        <time>2022-07-12T07:01:25Z</time>
      </trkpt>
      <trkpt lat="44.51371" lon="2.82054">
        <ele>356.4</ele>
        <time>2022-07-12T07:01:27Z</time>
      </trkpt>
      <trkpt lat="44.51371" lon="2.82065">
        <ele>356.4</ele>
        <time>2022-07-12T07:01:29Z</time>
      </trkpt>
      <trkpt lat="44.51372" lon="2.8207">
        <ele>356.4</ele>
        <time>2022-07-12T07:01:30Z</time>
      </trkpt>
      <trkpt lat="44.51373" lon="2.82076">
        <ele>356.4</ele>
        <time>2022-07-12T07:01:31Z</time>
      </trkpt>
      <trkpt lat="44.51376" lon="2.82103">
        <ele>356.6</ele>
        <time>2022-07-12T07:01:36Z</time>
      </trkpt>
      <trkpt lat="44.51369" lon="2.82129">
        <ele>356.8</ele>
        <time>2022-07-12T07:01:41Z</time>
      </trkpt>
      <trkpt lat="44.51353" lon="2.8215">
        <ele>357</ele>
        <time>2022-07-12T07:01:46Z</time>
      </trkpt>
      <trkpt lat="44.51348" lon="2.8216">
        <ele>357</ele>
        <time>2022-07-12T07:01:48Z</time>
      </trkpt>
      <trkpt lat="44.51344" lon="2.82172">
        <ele>357</ele>
        <time>2022-07-12T07:01:50Z</time>
      </trkpt>
      <trkpt lat="44.51339" lon="2.82197">
        <ele>357</ele>
        <time>2022-07-12T07:01:54Z</time>
      </trkpt>
      <trkpt lat="44.51334" lon="2.82214">
        <ele>357</ele>
        <time>2022-07-12T07:01:57Z</time>
      </trkpt>
      <trkpt lat="44.51329" lon="2.8223">
        <ele>357</ele>
        <time>2022-07-12T07:02:00Z</time>
      </trkpt>
      <trkpt lat="44.51327" lon="2.82236">
        <ele>357.2</ele>
        <time>2022-07-12T07:02:01Z</time>
      </trkpt>
      <trkpt lat="44.51313" lon="2.82266">
        <ele>357.4</ele>
        <time>2022-07-12T07:02:07Z</time>
      </trkpt>
      <trkpt lat="44.51311" lon="2.82271">
        <ele>357.4</ele>
        <time>2022-07-12T07:02:08Z</time>
      </trkpt>
      <trkpt lat="44.51306" lon="2.82286">
        <ele>357.4</ele>
        <time>2022-07-12T07:02:11Z</time>
      </trkpt>
      <trkpt lat="44.51305" lon="2.82296">
        <ele>357.4</ele>
        <time>2022-07-12T07:02:13Z</time>
      </trkpt>
      <trkpt lat="44.51303" lon="2.82307">
        <ele>357.4</ele>
        <time>2022-07-12T07:02:15Z</time>
      </trkpt>
      <trkpt lat="44.51299" lon="2.82335">
        <ele>357.6</ele>
        <time>2022-07-12T07:02:20Z</time>
      </trkpt>
      <trkpt lat="44.51298" lon="2.82341">
        <ele>357.8</ele>
        <time>2022-07-12T07:02:21Z</time>
      </trkpt>
      <trkpt lat="44.51291" lon="2.82381">
        <ele>358</ele>
        <time>2022-07-12T07:02:28Z</time>
      </trkpt>
      <trkpt lat="44.51289" lon="2.82393">
        <ele>358.2</ele>
        <time>2022-07-12T07:02:30Z</time>
      </trkpt>
      <trkpt lat="44.51287" lon="2.82429">
        <ele>358.4</ele>
        <time>2022-07-12T07:02:36Z</time>
      </trkpt>
      <trkpt lat="44.51287" lon="2.82493">
        <ele>358.8</ele>
        <time>2022-07-12T07:02:47Z</time>
      </trkpt>
      <trkpt lat="44.51289" lon="2.82534">
        <ele>359.2</ele>
        <time>2022-07-12T07:02:55Z</time>
      </trkpt>
      <trkpt lat="44.51299" lon="2.82559">
        <ele>359.6</ele>
        <time>2022-07-12T07:03:01Z</time>
      </trkpt>
      <trkpt lat="44.51304" lon="2.82572">
        <ele>359.8</ele>
        <time>2022-07-12T07:03:04Z</time>
      </trkpt>
      <trkpt lat="44.5131" lon="2.82595">
        <ele>360.2</ele>
        <time>2022-07-12T07:03:09Z</time>
      </trkpt>
      <trkpt lat="44.5132" lon="2.82621">
        <ele>360.8</ele>
        <time>2022-07-12T07:03:15Z</time>
      </trkpt>
      <trkpt lat="44.51323" lon="2.82629">
        <ele>361</ele>
        <time>2022-07-12T07:03:17Z</time>
      </trkpt>
      <trkpt lat="44.51334" lon="2.82664">
        <ele>362</ele>
        <time>2022-07-12T07:03:25Z</time>
      </trkpt>
      <trkpt lat="44.51335" lon="2.82669">
        <ele>362</ele>
        <time>2022-07-12T07:03:26Z</time>
      </trkpt>
      <trkpt lat="44.51344" lon="2.82717">
        <ele>363</ele>
        <time>2022-07-12T07:03:36Z</time>
      </trkpt>
      <trkpt lat="44.51349" lon="2.82746">
        <ele>363.8</ele>
        <time>2022-07-12T07:03:43Z</time>
      </trkpt>
      <trkpt lat="44.51349" lon="2.82754">
        <ele>364</ele>
        <time>2022-07-12T07:03:45Z</time>
      </trkpt>
      <trkpt lat="44.51347" lon="2.82768">
        <ele>364.2</ele>
        <time>2022-07-12T07:03:48Z</time>
      </trkpt>
      <trkpt lat="44.5135" lon="2.82813">
        <ele>364</ele>
        <time>2022-07-12T07:03:56Z</time>
      </trkpt>
      <trkpt lat="44.51352" lon="2.82859">
        <ele>365</ele>
        <time>2022-07-12T07:04:05Z</time>
      </trkpt>
      <trkpt lat="44.51352" lon="2.82873">
        <ele>365.2</ele>
        <time>2022-07-12T07:04:08Z</time>
      </trkpt>
      <trkpt lat="44.51353" lon="2.8288">
        <ele>365.4</ele>
        <time>2022-07-12T07:04:10Z</time>
      </trkpt>
      <trkpt lat="44.51355" lon="2.82896">
        <ele>366.4</ele>
        <time>2022-07-12T07:04:15Z</time>
      </trkpt>
      <trkpt lat="44.51355" lon="2.82899">
        <ele>366.6</ele>
        <time>2022-07-12T07:04:16Z</time>
      </trkpt>
      <trkpt lat="44.51355" lon="2.82916">
        <ele>367.8</ele>
        <time>2022-07-12T07:04:22Z</time>
      </trkpt>
      <trkpt lat="44.51355" lon="2.82926">
        <ele>368.6</ele>
        <time>2022-07-12T07:04:26Z</time>
      </trkpt>
      <trkpt lat="44.51356" lon="2.82928">
        <ele>369</ele>
        <time>2022-07-12T07:04:27Z</time>
      </trkpt>
      <trkpt lat="44.51353" lon="2.82943">
        <ele>370.2</ele>
        <time>2022-07-12T07:04:32Z</time>
      </trkpt>
      <trkpt lat="44.51352" lon="2.82946">
        <ele>370.2</ele>
        <time>2022-07-12T07:04:33Z</time>
      </trkpt>
      <trkpt lat="44.51349" lon="2.82966">
        <ele>370.4</ele>
        <time>2022-07-12T07:04:37Z</time>
      </trkpt>
      <trkpt lat="44.51345" lon="2.83003">
        <ele>370</ele>
        <time>2022-07-12T07:04:43Z</time>
      </trkpt>
      <trkpt lat="44.51345" lon="2.83045">
        <ele>370</ele>
        <time>2022-07-12T07:04:51Z</time>
      </trkpt>
      <trkpt lat="44.51345" lon="2.83077">
        <ele>371.2</ele>
        <time>2022-07-12T07:04:59Z</time>
      </trkpt>
      <trkpt lat="44.51345" lon="2.83081">
        <ele>371.4</ele>
        <time>2022-07-12T07:05:00Z</time>
      </trkpt>
      <trkpt lat="44.51345" lon="2.83098">
        <ele>372.2</ele>
        <time>2022-07-12T07:05:05Z</time>
      </trkpt>
      <trkpt lat="44.51344" lon="2.83101">
        <ele>372.4</ele>
        <time>2022-07-12T07:05:06Z</time>
      </trkpt>
      <trkpt lat="44.5134" lon="2.8312">
        <ele>373.6</ele>
        <time>2022-07-12T07:05:12Z</time>
      </trkpt>
      <trkpt lat="44.51338" lon="2.83123">
        <ele>373.6</ele>
        <time>2022-07-12T07:05:13Z</time>
      </trkpt>
      <trkpt lat="44.51333" lon="2.83141">
        <ele>374.6</ele>
        <time>2022-07-12T07:05:19Z</time>
      </trkpt>
      <trkpt lat="44.51331" lon="2.83146">
        <ele>375.2</ele>
        <time>2022-07-12T07:05:21Z</time>
      </trkpt>
      <trkpt lat="44.51328" lon="2.83156">
        <ele>376</ele>
        <time>2022-07-12T07:05:25Z</time>
      </trkpt>
      <trkpt lat="44.51326" lon="2.83164">
        <ele>376.4</ele>
        <time>2022-07-12T07:05:28Z</time>
      </trkpt>
      <trkpt lat="44.51324" lon="2.83175">
        <ele>377</ele>
        <time>2022-07-12T07:05:32Z</time>
      </trkpt>
      <trkpt lat="44.5132" lon="2.83189">
        <ele>377.6</ele>
        <time>2022-07-12T07:05:37Z</time>
      </trkpt>
      <trkpt lat="44.51318" lon="2.83198">
        <ele>378</ele>
        <time>2022-07-12T07:05:40Z</time>
      </trkpt>
      <trkpt lat="44.51317" lon="2.83216">
        <ele>378.6</ele>
        <time>2022-07-12T07:05:46Z</time>
      </trkpt>
      <trkpt lat="44.51319" lon="2.83228">
        <ele>379</ele>
        <time>2022-07-12T07:05:50Z</time>
      </trkpt>
      <trkpt lat="44.51322" lon="2.83242">
        <ele>379.4</ele>
        <time>2022-07-12T07:05:55Z</time>
      </trkpt>
      <trkpt lat="44.51325" lon="2.83251">
        <ele>379.8</ele>
        <time>2022-07-12T07:05:58Z</time>
      </trkpt>
      <trkpt lat="44.51328" lon="2.83256">
        <ele>380.2</ele>
        <time>2022-07-12T07:06:00Z</time>
      </trkpt>
      <trkpt lat="44.51331" lon="2.83263">
        <ele>380.6</ele>
        <time>2022-07-12T07:06:03Z</time>
      </trkpt>
      <trkpt lat="44.51337" lon="2.83271">
        <ele>381.2</ele>
        <time>2022-07-12T07:06:07Z</time>
      </trkpt>
      <trkpt lat="44.51343" lon="2.83279">
        <ele>381.6</ele>
        <time>2022-07-12T07:06:11Z</time>
      </trkpt>
      <trkpt lat="44.51354" lon="2.83291">
        <ele>382.6</ele>
        <time>2022-07-12T07:06:17Z</time>
      </trkpt>
      <trkpt lat="44.5136" lon="2.83297">
        <ele>383</ele>
        <time>2022-07-12T07:06:20Z</time>
      </trkpt>
      <trkpt lat="44.51368" lon="2.83303">
        <ele>383.6</ele>
        <time>2022-07-12T07:06:24Z</time>
      </trkpt>
      <trkpt lat="44.51377" lon="2.8331">
        <ele>384.4</ele>
        <time>2022-07-12T07:06:29Z</time>
      </trkpt>
      <trkpt lat="44.5138" lon="2.83314">
        <ele>385</ele>
        <time>2022-07-12T07:06:31Z</time>
      </trkpt>
      <trkpt lat="44.51393" lon="2.83324">
        <ele>386</ele>
        <time>2022-07-12T07:06:38Z</time>
      </trkpt>
      <trkpt lat="44.51395" lon="2.83326">
        <ele>386</ele>
        <time>2022-07-12T07:06:39Z</time>
      </trkpt>
      <trkpt lat="44.51407" lon="2.83339">
        <ele>387</ele>
        <time>2022-07-12T07:06:46Z</time>
      </trkpt>
      <trkpt lat="44.51409" lon="2.83341">
        <ele>387.2</ele>
        <time>2022-07-12T07:06:47Z</time>
      </trkpt>
      <trkpt lat="44.51421" lon="2.83355">
        <ele>388.2</ele>
        <time>2022-07-12T07:06:54Z</time>
      </trkpt>
      <trkpt lat="44.51424" lon="2.8336">
        <ele>388.4</ele>
        <time>2022-07-12T07:06:56Z</time>
      </trkpt>
      <trkpt lat="44.51427" lon="2.83365">
        <ele>388.6</ele>
        <time>2022-07-12T07:06:58Z</time>
      </trkpt>
      <trkpt lat="44.51432" lon="2.83375">
        <ele>389.2</ele>
        <time>2022-07-12T07:07:02Z</time>
      </trkpt>
      <trkpt lat="44.51437" lon="2.83389">
        <ele>389.8</ele>
        <time>2022-07-12T07:07:07Z</time>
      </trkpt>
      <trkpt lat="44.5144" lon="2.83398">
        <ele>390.2</ele>
        <time>2022-07-12T07:07:10Z</time>
      </trkpt>
      <trkpt lat="44.51442" lon="2.83415">
        <ele>390.6</ele>
        <time>2022-07-12T07:07:15Z</time>
      </trkpt>
      <trkpt lat="44.51443" lon="2.83428">
        <ele>391.4</ele>
        <time>2022-07-12T07:07:19Z</time>
      </trkpt>
      <trkpt lat="44.51443" lon="2.83447">
        <ele>391.8</ele>
        <time>2022-07-12T07:07:25Z</time>
      </trkpt>
      <trkpt lat="44.51442" lon="2.83458">
        <ele>392.4</ele>
        <time>2022-07-12T07:07:28Z</time>
      </trkpt>
      <trkpt lat="44.51439" lon="2.83474">
        <ele>393.2</ele>
        <time>2022-07-12T07:07:33Z</time>
      </trkpt>
      <trkpt lat="44.51438" lon="2.8348">
        <ele>393.4</ele>
        <time>2022-07-12T07:07:35Z</time>
      </trkpt>
      <trkpt lat="44.51434" lon="2.83492">
        <ele>394</ele>
        <time>2022-07-12T07:07:39Z</time>
      </trkpt>
      <trkpt lat="44.51432" lon="2.83497">
        <ele>394.6</ele>
        <time>2022-07-12T07:07:41Z</time>
      </trkpt>
      <trkpt lat="44.51423" lon="2.83517">
        <ele>395.6</ele>
        <time>2022-07-12T07:07:47Z</time>
      </trkpt>
      <trkpt lat="44.51421" lon="2.8352">
        <ele>395.6</ele>
        <time>2022-07-12T07:07:48Z</time>
      </trkpt>
      <trkpt lat="44.51415" lon="2.83535">
        <ele>396.8</ele>
        <time>2022-07-12T07:07:53Z</time>
      </trkpt>
      <trkpt lat="44.51408" lon="2.8355">
        <ele>397.4</ele>
        <time>2022-07-12T07:07:58Z</time>
      </trkpt>
      <trkpt lat="44.51405" lon="2.83561">
        <ele>397.8</ele>
        <time>2022-07-12T07:08:01Z</time>
      </trkpt>
      <trkpt lat="44.514" lon="2.83584">
        <ele>398.4</ele>
        <time>2022-07-12T07:08:07Z</time>
      </trkpt>
      <trkpt lat="44.51398" lon="2.83611">
        <ele>398.8</ele>
        <time>2022-07-12T07:08:14Z</time>
      </trkpt>
      <trkpt lat="44.51397" lon="2.83615">
        <ele>398.8</ele>
        <time>2022-07-12T07:08:15Z</time>
      </trkpt>
      <trkpt lat="44.51397" lon="2.83628">
        <ele>399.2</ele>
        <time>2022-07-12T07:08:18Z</time>
      </trkpt>
      <trkpt lat="44.51399" lon="2.83652">
        <ele>399.6</ele>
        <time>2022-07-12T07:08:24Z</time>
      </trkpt>
      <trkpt lat="44.51403" lon="2.83685">
        <ele>400.2</ele>
        <time>2022-07-12T07:08:32Z</time>
      </trkpt>
      <trkpt lat="44.51403" lon="2.83717">
        <ele>400.6</ele>
        <time>2022-07-12T07:08:40Z</time>
      </trkpt>
      <trkpt lat="44.51407" lon="2.83767">
        <ele>400.8</ele>
        <time>2022-07-12T07:08:50Z</time>
      </trkpt>
      <trkpt lat="44.51409" lon="2.83809">
        <ele>400.6</ele>
        <time>2022-07-12T07:08:57Z</time>
      </trkpt>
      <trkpt lat="44.51411" lon="2.83838">
        <ele>399.8</ele>
        <time>2022-07-12T07:09:01Z</time>
      </trkpt>
      <trkpt lat="44.51413" lon="2.83846">
        <ele>399.6</ele>
        <time>2022-07-12T07:09:02Z</time>
      </trkpt>
      <trkpt lat="44.51414" lon="2.83854">
        <ele>399.6</ele>
        <time>2022-07-12T07:09:03Z</time>
      </trkpt>
      <trkpt lat="44.51417" lon="2.83873">
        <ele>399.2</ele>
        <time>2022-07-12T07:09:05Z</time>
      </trkpt>
      <trkpt lat="44.5142" lon="2.83893">
        <ele>398.8</ele>
        <time>2022-07-12T07:09:07Z</time>
      </trkpt>
      <trkpt lat="44.5142" lon="2.83904">
        <ele>398.4</ele>
        <time>2022-07-12T07:09:08Z</time>
      </trkpt>
      <trkpt lat="44.5142" lon="2.83914">
        <ele>397.8</ele>
        <time>2022-07-12T07:09:09Z</time>
      </trkpt>
      <trkpt lat="44.51421" lon="2.8395">
        <ele>397.2</ele>
        <time>2022-07-12T07:09:12Z</time>
      </trkpt>
      <trkpt lat="44.51421" lon="2.83962">
        <ele>396.4</ele>
        <time>2022-07-12T07:09:13Z</time>
      </trkpt>
      <trkpt lat="44.51421" lon="2.83988">
        <ele>395.4</ele>
        <time>2022-07-12T07:09:15Z</time>
      </trkpt>
      <trkpt lat="44.51419" lon="2.84015">
        <ele>394.8</ele>
        <time>2022-07-12T07:09:17Z</time>
      </trkpt>
      <trkpt lat="44.51418" lon="2.84028">
        <ele>394.2</ele>
        <time>2022-07-12T07:09:18Z</time>
      </trkpt>
      <trkpt lat="44.51416" lon="2.84056">
        <ele>393.2</ele>
        <time>2022-07-12T07:09:20Z</time>
      </trkpt>
      <trkpt lat="44.51416" lon="2.84086">
        <ele>391.8</ele>
        <time>2022-07-12T07:09:22Z</time>
      </trkpt>
      <trkpt lat="44.51417" lon="2.84101">
        <ele>390.8</ele>
        <time>2022-07-12T07:09:23Z</time>
      </trkpt>
      <trkpt lat="44.51417" lon="2.84116">
        <ele>390.6</ele>
        <time>2022-07-12T07:09:24Z</time>
      </trkpt>
      <trkpt lat="44.51417" lon="2.84147">
        <ele>389.2</ele>
        <time>2022-07-12T07:09:26Z</time>
      </trkpt>
      <trkpt lat="44.51416" lon="2.84178">
        <ele>387.8</ele>
        <time>2022-07-12T07:09:28Z</time>
      </trkpt>
      <trkpt lat="44.51416" lon="2.84194">
        <ele>387</ele>
        <time>2022-07-12T07:09:29Z</time>
      </trkpt>
      <trkpt lat="44.51416" lon="2.8421">
        <ele>386.2</ele>
        <time>2022-07-12T07:09:30Z</time>
      </trkpt>
      <trkpt lat="44.51416" lon="2.84241">
        <ele>384.8</ele>
        <time>2022-07-12T07:09:32Z</time>
      </trkpt>
      <trkpt lat="44.51418" lon="2.84256">
        <ele>384.2</ele>
        <time>2022-07-12T07:09:33Z</time>
      </trkpt>
      <trkpt lat="44.51421" lon="2.8427">
        <ele>383</ele>
        <time>2022-07-12T07:09:34Z</time>
      </trkpt>
      <trkpt lat="44.51427" lon="2.84283">
        <ele>382.4</ele>
        <time>2022-07-12T07:09:35Z</time>
      </trkpt>
      <trkpt lat="44.51434" lon="2.84293">
        <ele>381.4</ele>
        <time>2022-07-12T07:09:36Z</time>
      </trkpt>
      <trkpt lat="44.51443" lon="2.843">
        <ele>380.2</ele>
        <time>2022-07-12T07:09:37Z</time>
      </trkpt>
      <trkpt lat="44.51454" lon="2.84303">
        <ele>379.6</ele>
        <time>2022-07-12T07:09:38Z</time>
      </trkpt>
      <trkpt lat="44.51464" lon="2.84304">
        <ele>378.4</ele>
        <time>2022-07-12T07:09:39Z</time>
      </trkpt>
      <trkpt lat="44.51485" lon="2.84309">
        <ele>376.8</ele>
        <time>2022-07-12T07:09:41Z</time>
      </trkpt>
      <trkpt lat="44.51503" lon="2.84327">
        <ele>375.2</ele>
        <time>2022-07-12T07:09:43Z</time>
      </trkpt>
      <trkpt lat="44.51508" lon="2.84341">
        <ele>374.2</ele>
        <time>2022-07-12T07:09:44Z</time>
      </trkpt>
      <trkpt lat="44.51517" lon="2.8437">
        <ele>372.2</ele>
        <time>2022-07-12T07:09:46Z</time>
      </trkpt>
      <trkpt lat="44.51518" lon="2.84396">
        <ele>370.8</ele>
        <time>2022-07-12T07:09:48Z</time>
      </trkpt>
      <trkpt lat="44.51515" lon="2.84405">
        <ele>370.4</ele>
        <time>2022-07-12T07:09:49Z</time>
      </trkpt>
      <trkpt lat="44.51511" lon="2.84412">
        <ele>370.2</ele>
        <time>2022-07-12T07:09:50Z</time>
      </trkpt>
      <trkpt lat="44.51504" lon="2.84419">
        <ele>370</ele>
        <time>2022-07-12T07:09:52Z</time>
      </trkpt>
      <trkpt lat="44.51481" lon="2.84428">
        <ele>371</ele>
        <time>2022-07-12T07:09:58Z</time>
      </trkpt>
      <trkpt lat="44.51467" lon="2.84439">
        <ele>371.8</ele>
        <time>2022-07-12T07:10:02Z</time>
      </trkpt>
      <trkpt lat="44.51462" lon="2.84447">
        <ele>372</ele>
        <time>2022-07-12T07:10:04Z</time>
      </trkpt>
      <trkpt lat="44.51452" lon="2.84468">
        <ele>372.4</ele>
        <time>2022-07-12T07:10:09Z</time>
      </trkpt>
      <trkpt lat="44.5145" lon="2.84478">
        <ele>372.8</ele>
        <time>2022-07-12T07:10:11Z</time>
      </trkpt>
      <trkpt lat="44.51448" lon="2.84495">
        <ele>373.2</ele>
        <time>2022-07-12T07:10:15Z</time>
      </trkpt>
      <trkpt lat="44.51455" lon="2.84524">
        <ele>373.8</ele>
        <time>2022-07-12T07:10:21Z</time>
      </trkpt>
      <trkpt lat="44.51456" lon="2.84528">
        <ele>373.8</ele>
        <time>2022-07-12T07:10:22Z</time>
      </trkpt>
      <trkpt lat="44.51462" lon="2.84549">
        <ele>374</ele>
        <time>2022-07-12T07:10:27Z</time>
      </trkpt>
      <trkpt lat="44.51472" lon="2.84568">
        <ele>374.6</ele>
        <time>2022-07-12T07:10:33Z</time>
      </trkpt>
      <trkpt lat="44.51475" lon="2.84575">
        <ele>375.2</ele>
        <time>2022-07-12T07:10:35Z</time>
      </trkpt>
      <trkpt lat="44.51483" lon="2.84587">
        <ele>376</ele>
        <time>2022-07-12T07:10:40Z</time>
      </trkpt>
      <trkpt lat="44.51486" lon="2.84593">
        <ele>376.4</ele>
        <time>2022-07-12T07:10:42Z</time>
      </trkpt>
      <trkpt lat="44.51492" lon="2.84607">
        <ele>377</ele>
        <time>2022-07-12T07:10:47Z</time>
      </trkpt>
      <trkpt lat="44.51495" lon="2.84613">
        <ele>377.4</ele>
        <time>2022-07-12T07:10:49Z</time>
      </trkpt>
      <trkpt lat="44.51507" lon="2.8464">
        <ele>378.6</ele>
        <time>2022-07-12T07:10:58Z</time>
      </trkpt>
      <trkpt lat="44.51517" lon="2.84659">
        <ele>379.4</ele>
        <time>2022-07-12T07:11:05Z</time>
      </trkpt>
      <trkpt lat="44.51521" lon="2.84672">
        <ele>379.6</ele>
        <time>2022-07-12T07:11:09Z</time>
      </trkpt>
      <trkpt lat="44.51525" lon="2.84685">
        <ele>380.2</ele>
        <time>2022-07-12T07:11:14Z</time>
      </trkpt>
      <trkpt lat="44.51525" lon="2.84685">
        <ele>380.4</ele>
        <time>2022-07-12T07:11:16Z</time>
      </trkpt>
      <trkpt lat="44.51527" lon="2.84688">
        <ele>381</ele>
        <time>2022-07-12T07:11:47Z</time>
      </trkpt>
      <trkpt lat="44.51527" lon="2.8469">
        <ele>381</ele>
        <time>2022-07-12T07:11:48Z</time>
      </trkpt>
      <trkpt lat="44.51531" lon="2.84704">
        <ele>381.2</ele>
        <time>2022-07-12T07:11:54Z</time>
      </trkpt>
      <trkpt lat="44.51534" lon="2.84725">
        <ele>381.6</ele>
        <time>2022-07-12T07:12:00Z</time>
      </trkpt>
      <trkpt lat="44.51535" lon="2.84736">
        <ele>382</ele>
        <time>2022-07-12T07:12:03Z</time>
      </trkpt>
      <trkpt lat="44.51537" lon="2.84752">
        <ele>382.8</ele>
        <time>2022-07-12T07:12:07Z</time>
      </trkpt>
      <trkpt lat="44.51537" lon="2.8476">
        <ele>383.2</ele>
        <time>2022-07-12T07:12:09Z</time>
      </trkpt>
      <trkpt lat="44.51538" lon="2.84775">
        <ele>384.4</ele>
        <time>2022-07-12T07:12:14Z</time>
      </trkpt>
      <trkpt lat="44.51544" lon="2.84796">
        <ele>385.2</ele>
        <time>2022-07-12T07:12:21Z</time>
      </trkpt>
      <trkpt lat="44.51545" lon="2.84798">
        <ele>385.4</ele>
        <time>2022-07-12T07:12:22Z</time>
      </trkpt>
      <trkpt lat="44.51556" lon="2.84815">
        <ele>386.4</ele>
        <time>2022-07-12T07:12:29Z</time>
      </trkpt>
      <trkpt lat="44.51571" lon="2.84831">
        <ele>387.4</ele>
        <time>2022-07-12T07:12:36Z</time>
      </trkpt>
      <trkpt lat="44.51575" lon="2.84836">
        <ele>387.8</ele>
        <time>2022-07-12T07:12:38Z</time>
      </trkpt>
      <trkpt lat="44.51586" lon="2.84858">
        <ele>388.4</ele>
        <time>2022-07-12T07:12:44Z</time>
      </trkpt>
      <trkpt lat="44.51592" lon="2.84872">
        <ele>388.4</ele>
        <time>2022-07-12T07:12:47Z</time>
      </trkpt>
      <trkpt lat="44.51595" lon="2.8489">
        <ele>389.2</ele>
        <time>2022-07-12T07:12:51Z</time>
      </trkpt>
      <trkpt lat="44.51599" lon="2.84921">
        <ele>389.6</ele>
        <time>2022-07-12T07:12:57Z</time>
      </trkpt>
      <trkpt lat="44.51599" lon="2.8493">
        <ele>389.6</ele>
        <time>2022-07-12T07:12:59Z</time>
      </trkpt>
      <trkpt lat="44.51599" lon="2.8495">
        <ele>390.4</ele>
        <time>2022-07-12T07:13:04Z</time>
      </trkpt>
      <trkpt lat="44.51599" lon="2.84962">
        <ele>390.8</ele>
        <time>2022-07-12T07:13:07Z</time>
      </trkpt>
      <trkpt lat="44.51599" lon="2.84979">
        <ele>391.6</ele>
        <time>2022-07-12T07:13:12Z</time>
      </trkpt>
      <trkpt lat="44.51599" lon="2.84982">
        <ele>391.8</ele>
        <time>2022-07-12T07:13:13Z</time>
      </trkpt>
      <trkpt lat="44.51602" lon="2.84999">
        <ele>392.8</ele>
        <time>2022-07-12T07:13:18Z</time>
      </trkpt>
      <trkpt lat="44.51603" lon="2.8501">
        <ele>393.8</ele>
        <time>2022-07-12T07:13:21Z</time>
      </trkpt>
      <trkpt lat="44.51603" lon="2.8502">
        <ele>394.2</ele>
        <time>2022-07-12T07:13:24Z</time>
      </trkpt>
      <trkpt lat="44.51603" lon="2.85048">
        <ele>395</ele>
        <time>2022-07-12T07:13:31Z</time>
      </trkpt>
      <trkpt lat="44.51603" lon="2.85052">
        <ele>395</ele>
        <time>2022-07-12T07:13:32Z</time>
      </trkpt>
      <trkpt lat="44.51602" lon="2.85085">
        <ele>396</ele>
        <time>2022-07-12T07:13:40Z</time>
      </trkpt>
      <trkpt lat="44.51602" lon="2.8509">
        <ele>396</ele>
        <time>2022-07-12T07:13:41Z</time>
      </trkpt>
      <trkpt lat="44.51604" lon="2.85121">
        <ele>396.6</ele>
        <time>2022-07-12T07:13:47Z</time>
      </trkpt>
      <trkpt lat="44.51603" lon="2.85167">
        <ele>396.8</ele>
        <time>2022-07-12T07:13:55Z</time>
      </trkpt>
      <trkpt lat="44.51598" lon="2.85207">
        <ele>396.8</ele>
        <time>2022-07-12T07:14:02Z</time>
      </trkpt>
      <trkpt lat="44.51594" lon="2.8524">
        <ele>397</ele>
        <time>2022-07-12T07:14:08Z</time>
      </trkpt>
      <trkpt lat="44.51588" lon="2.85269">
        <ele>397.2</ele>
        <time>2022-07-12T07:14:14Z</time>
      </trkpt>
      <trkpt lat="44.51587" lon="2.85274">
        <ele>397.4</ele>
        <time>2022-07-12T07:14:15Z</time>
      </trkpt>
      <trkpt lat="44.51582" lon="2.85312">
        <ele>398</ele>
        <time>2022-07-12T07:14:22Z</time>
      </trkpt>
      <trkpt lat="44.51581" lon="2.8534">
        <ele>398.4</ele>
        <time>2022-07-12T07:14:27Z</time>
      </trkpt>
      <trkpt lat="44.5158" lon="2.85345">
        <ele>398.4</ele>
        <time>2022-07-12T07:14:28Z</time>
      </trkpt>
      <trkpt lat="44.51578" lon="2.85383">
        <ele>399</ele>
        <time>2022-07-12T07:14:35Z</time>
      </trkpt>
      <trkpt lat="44.5158" lon="2.85412">
        <ele>399.6</ele>
        <time>2022-07-12T07:14:40Z</time>
      </trkpt>
      <trkpt lat="44.51583" lon="2.85453">
        <ele>400.2</ele>
        <time>2022-07-12T07:14:47Z</time>
      </trkpt>
      <trkpt lat="44.51582" lon="2.85485">
        <ele>400.6</ele>
        <time>2022-07-12T07:14:53Z</time>
      </trkpt>
      <trkpt lat="44.51577" lon="2.85511">
        <ele>401</ele>
        <time>2022-07-12T07:14:59Z</time>
      </trkpt>
      <trkpt lat="44.5157" lon="2.85525">
        <ele>401.6</ele>
        <time>2022-07-12T07:15:03Z</time>
      </trkpt>
      <trkpt lat="44.51564" lon="2.85533">
        <ele>402.2</ele>
        <time>2022-07-12T07:15:06Z</time>
      </trkpt>
      <trkpt lat="44.51555" lon="2.8554">
        <ele>402.8</ele>
        <time>2022-07-12T07:15:10Z</time>
      </trkpt>
      <trkpt lat="44.51551" lon="2.85543">
        <ele>403.2</ele>
        <time>2022-07-12T07:15:12Z</time>
      </trkpt>
      <trkpt lat="44.51545" lon="2.85546">
        <ele>404</ele>
        <time>2022-07-12T07:15:15Z</time>
      </trkpt>
      <trkpt lat="44.51538" lon="2.85548">
        <ele>404.6</ele>
        <time>2022-07-12T07:15:19Z</time>
      </trkpt>
      <trkpt lat="44.51536" lon="2.85549">
        <ele>404.8</ele>
        <time>2022-07-12T07:15:20Z</time>
      </trkpt>
      <trkpt lat="44.51525" lon="2.85552">
        <ele>405.8</ele>
        <time>2022-07-12T07:15:26Z</time>
      </trkpt>
      <trkpt lat="44.51524" lon="2.85552">
        <ele>406</ele>
        <time>2022-07-12T07:15:27Z</time>
      </trkpt>
      <trkpt lat="44.51514" lon="2.85553">
        <ele>406.8</ele>
        <time>2022-07-12T07:15:33Z</time>
      </trkpt>
      <trkpt lat="44.5151" lon="2.85553">
        <ele>407</ele>
        <time>2022-07-12T07:15:35Z</time>
      </trkpt>
      <trkpt lat="44.51499" lon="2.8555">
        <ele>408</ele>
        <time>2022-07-12T07:15:41Z</time>
      </trkpt>
      <trkpt lat="44.51497" lon="2.85549">
        <ele>408.2</ele>
        <time>2022-07-12T07:15:42Z</time>
      </trkpt>
      <trkpt lat="44.51487" lon="2.85546">
        <ele>409.2</ele>
        <time>2022-07-12T07:15:48Z</time>
      </trkpt>
      <trkpt lat="44.51486" lon="2.85546">
        <ele>409.4</ele>
        <time>2022-07-12T07:15:49Z</time>
      </trkpt>
      <trkpt lat="44.51481" lon="2.85543">
        <ele>410</ele>
        <time>2022-07-12T07:15:53Z</time>
      </trkpt>
      <trkpt lat="44.5148" lon="2.85542">
        <ele>410.2</ele>
        <time>2022-07-12T07:15:54Z</time>
      </trkpt>
      <trkpt lat="44.51479" lon="2.85541">
        <ele>410.4</ele>
        <time>2022-07-12T07:15:55Z</time>
      </trkpt>
      <trkpt lat="44.51472" lon="2.85533">
        <ele>411</ele>
        <time>2022-07-12T07:16:01Z</time>
      </trkpt>
      <trkpt lat="44.51467" lon="2.85528">
        <ele>411.4</ele>
        <time>2022-07-12T07:16:05Z</time>
      </trkpt>
      <trkpt lat="44.51461" lon="2.85521">
        <ele>412</ele>
        <time>2022-07-12T07:16:10Z</time>
      </trkpt>
      <trkpt lat="44.51458" lon="2.85517">
        <ele>412.6</ele>
        <time>2022-07-12T07:16:13Z</time>
      </trkpt>
      <trkpt lat="44.5145" lon="2.85512">
        <ele>413.4</ele>
        <time>2022-07-12T07:16:19Z</time>
      </trkpt>
      <trkpt lat="44.51448" lon="2.85511">
        <ele>413.6</ele>
        <time>2022-07-12T07:16:21Z</time>
      </trkpt>
      <trkpt lat="44.5144" lon="2.85507">
        <ele>414.6</ele>
        <time>2022-07-12T07:16:27Z</time>
      </trkpt>
      <trkpt lat="44.51438" lon="2.85506">
        <ele>414.8</ele>
        <time>2022-07-12T07:16:28Z</time>
      </trkpt>
      <trkpt lat="44.51429" lon="2.85504">
        <ele>415.8</ele>
        <time>2022-07-12T07:16:34Z</time>
      </trkpt>
      <trkpt lat="44.51426" lon="2.85503">
        <ele>416</ele>
        <time>2022-07-12T07:16:36Z</time>
      </trkpt>
      <trkpt lat="44.51419" lon="2.85502">
        <ele>417</ele>
        <time>2022-07-12T07:16:41Z</time>
      </trkpt>
      <trkpt lat="44.51416" lon="2.85503">
        <ele>417</ele>
        <time>2022-07-12T07:16:43Z</time>
      </trkpt>
      <trkpt lat="44.51408" lon="2.85504">
        <ele>418</ele>
        <time>2022-07-12T07:16:48Z</time>
      </trkpt>
      <trkpt lat="44.51403" lon="2.85508">
        <ele>418.6</ele>
        <time>2022-07-12T07:16:52Z</time>
      </trkpt>
      <trkpt lat="44.51398" lon="2.85511">
        <ele>419.2</ele>
        <time>2022-07-12T07:16:55Z</time>
      </trkpt>
      <trkpt lat="44.51393" lon="2.85514">
        <ele>419.6</ele>
        <time>2022-07-12T07:16:59Z</time>
      </trkpt>
      <trkpt lat="44.5139" lon="2.85516">
        <ele>420</ele>
        <time>2022-07-12T07:17:01Z</time>
      </trkpt>
      <trkpt lat="44.51389" lon="2.85517">
        <ele>420.2</ele>
        <time>2022-07-12T07:17:02Z</time>
      </trkpt>
      <trkpt lat="44.51386" lon="2.85521">
        <ele>420.6</ele>
        <time>2022-07-12T07:17:05Z</time>
      </trkpt>
      <trkpt lat="44.5138" lon="2.8553">
        <ele>421.4</ele>
        <time>2022-07-12T07:17:11Z</time>
      </trkpt>
      <trkpt lat="44.51376" lon="2.85535">
        <ele>422</ele>
        <time>2022-07-12T07:17:15Z</time>
      </trkpt>
      <trkpt lat="44.51373" lon="2.8554">
        <ele>422.6</ele>
        <time>2022-07-12T07:17:18Z</time>
      </trkpt>
      <trkpt lat="44.51368" lon="2.85545">
        <ele>423.2</ele>
        <time>2022-07-12T07:17:22Z</time>
      </trkpt>
      <trkpt lat="44.51365" lon="2.85548">
        <ele>423.8</ele>
        <time>2022-07-12T07:17:25Z</time>
      </trkpt>
      <trkpt lat="44.5136" lon="2.85555">
        <ele>424.2</ele>
        <time>2022-07-12T07:17:30Z</time>
      </trkpt>
      <trkpt lat="44.51353" lon="2.85561">
        <ele>424.8</ele>
        <time>2022-07-12T07:17:36Z</time>
      </trkpt>
      <trkpt lat="44.5135" lon="2.85562">
        <ele>425.2</ele>
        <time>2022-07-12T07:17:38Z</time>
      </trkpt>
      <trkpt lat="44.51343" lon="2.85565">
        <ele>425.8</ele>
        <time>2022-07-12T07:17:43Z</time>
      </trkpt>
      <trkpt lat="44.51338" lon="2.85568">
        <ele>426.4</ele>
        <time>2022-07-12T07:17:47Z</time>
      </trkpt>
      <trkpt lat="44.51331" lon="2.85569">
        <ele>427</ele>
        <time>2022-07-12T07:17:51Z</time>
      </trkpt>
      <trkpt lat="44.51323" lon="2.8557">
        <ele>428</ele>
        <time>2022-07-12T07:17:57Z</time>
      </trkpt>
      <trkpt lat="44.51316" lon="2.85569">
        <ele>429</ele>
        <time>2022-07-12T07:18:02Z</time>
      </trkpt>
      <trkpt lat="44.51306" lon="2.85568">
        <ele>429.6</ele>
        <time>2022-07-12T07:18:09Z</time>
      </trkpt>
      <trkpt lat="44.51301" lon="2.85566">
        <ele>430</ele>
        <time>2022-07-12T07:18:13Z</time>
      </trkpt>
      <trkpt lat="44.51296" lon="2.85565">
        <ele>430.8</ele>
        <time>2022-07-12T07:18:16Z</time>
      </trkpt>
      <trkpt lat="44.51292" lon="2.85563">
        <ele>431</ele>
        <time>2022-07-12T07:18:19Z</time>
      </trkpt>
      <trkpt lat="44.51288" lon="2.8556">
        <ele>431.4</ele>
        <time>2022-07-12T07:18:22Z</time>
      </trkpt>
      <trkpt lat="44.51287" lon="2.8556">
        <ele>431.6</ele>
        <time>2022-07-12T07:18:23Z</time>
      </trkpt>
      <trkpt lat="44.51282" lon="2.85558">
        <ele>432</ele>
        <time>2022-07-12T07:18:27Z</time>
      </trkpt>
      <trkpt lat="44.51276" lon="2.85555">
        <ele>432.4</ele>
        <time>2022-07-12T07:18:31Z</time>
      </trkpt>
      <trkpt lat="44.51273" lon="2.85553">
        <ele>433</ele>
        <time>2022-07-12T07:18:34Z</time>
      </trkpt>
      <trkpt lat="44.5127" lon="2.85552">
        <ele>433.2</ele>
        <time>2022-07-12T07:18:36Z</time>
      </trkpt>
      <trkpt lat="44.51268" lon="2.85552">
        <ele>433.6</ele>
        <time>2022-07-12T07:18:38Z</time>
      </trkpt>
      <trkpt lat="44.51263" lon="2.8555">
        <ele>434.2</ele>
        <time>2022-07-12T07:18:41Z</time>
      </trkpt>
      <trkpt lat="44.51254" lon="2.85546">
        <ele>435.4</ele>
        <time>2022-07-12T07:18:48Z</time>
      </trkpt>
      <trkpt lat="44.51244" lon="2.85544">
        <ele>436.4</ele>
        <time>2022-07-12T07:18:55Z</time>
      </trkpt>
      <trkpt lat="44.51237" lon="2.85543">
        <ele>437.2</ele>
        <time>2022-07-12T07:19:00Z</time>
      </trkpt>
      <trkpt lat="44.51233" lon="2.85543">
        <ele>437.4</ele>
        <time>2022-07-12T07:19:02Z</time>
      </trkpt>
      <trkpt lat="44.51228" lon="2.85543">
        <ele>438.2</ele>
        <time>2022-07-12T07:19:06Z</time>
      </trkpt>
      <trkpt lat="44.51225" lon="2.85543">
        <ele>438.2</ele>
        <time>2022-07-12T07:19:08Z</time>
      </trkpt>
      <trkpt lat="44.51221" lon="2.85544">
        <ele>438.4</ele>
        <time>2022-07-12T07:19:11Z</time>
      </trkpt>
      <trkpt lat="44.51219" lon="2.85544">
        <ele>438.8</ele>
        <time>2022-07-12T07:19:13Z</time>
      </trkpt>
      <trkpt lat="44.51214" lon="2.85545">
        <ele>439.2</ele>
        <time>2022-07-12T07:19:16Z</time>
      </trkpt>
      <trkpt lat="44.51211" lon="2.85545">
        <ele>439.6</ele>
        <time>2022-07-12T07:19:18Z</time>
      </trkpt>
      <trkpt lat="44.51204" lon="2.85548">
        <ele>440.6</ele>
        <time>2022-07-12T07:19:23Z</time>
      </trkpt>
      <trkpt lat="44.51201" lon="2.8555">
        <ele>441</ele>
        <time>2022-07-12T07:19:25Z</time>
      </trkpt>
      <trkpt lat="44.51195" lon="2.85553">
        <ele>441.8</ele>
        <time>2022-07-12T07:19:30Z</time>
      </trkpt>
      <trkpt lat="44.5119" lon="2.85555">
        <ele>442</ele>
        <time>2022-07-12T07:19:33Z</time>
      </trkpt>
      <trkpt lat="44.51185" lon="2.85559">
        <ele>442.8</ele>
        <time>2022-07-12T07:19:37Z</time>
      </trkpt>
      <trkpt lat="44.51179" lon="2.85566">
        <ele>443.4</ele>
        <time>2022-07-12T07:19:42Z</time>
      </trkpt>
      <trkpt lat="44.51177" lon="2.85569">
        <ele>444</ele>
        <time>2022-07-12T07:19:44Z</time>
      </trkpt>
      <trkpt lat="44.51172" lon="2.85582">
        <ele>445</ele>
        <time>2022-07-12T07:19:51Z</time>
      </trkpt>
      <trkpt lat="44.51165" lon="2.85595">
        <ele>445.8</ele>
        <time>2022-07-12T07:19:58Z</time>
      </trkpt>
      <trkpt lat="44.51163" lon="2.85598">
        <ele>446</ele>
        <time>2022-07-12T07:20:00Z</time>
      </trkpt>
      <trkpt lat="44.51159" lon="2.85609">
        <ele>447.4</ele>
        <time>2022-07-12T07:20:05Z</time>
      </trkpt>
      <trkpt lat="44.51158" lon="2.85612">
        <ele>447.6</ele>
        <time>2022-07-12T07:20:06Z</time>
      </trkpt>
      <trkpt lat="44.51151" lon="2.85638">
        <ele>448.4</ele>
        <time>2022-07-12T07:20:15Z</time>
      </trkpt>
      <trkpt lat="44.5115" lon="2.85641">
        <ele>448.6</ele>
        <time>2022-07-12T07:20:16Z</time>
      </trkpt>
      <trkpt lat="44.5114" lon="2.85668">
        <ele>449.2</ele>
        <time>2022-07-12T07:20:24Z</time>
      </trkpt>
      <trkpt lat="44.51136" lon="2.85688">
        <ele>449.4</ele>
        <time>2022-07-12T07:20:29Z</time>
      </trkpt>
      <trkpt lat="44.5113" lon="2.85703">
        <ele>449.4</ele>
        <time>2022-07-12T07:20:34Z</time>
      </trkpt>
      <trkpt lat="44.51128" lon="2.85706">
        <ele>449.8</ele>
        <time>2022-07-12T07:20:35Z</time>
      </trkpt>
      <trkpt lat="44.51123" lon="2.85718">
        <ele>450.4</ele>
        <time>2022-07-12T07:20:39Z</time>
      </trkpt>
      <trkpt lat="44.51115" lon="2.85743">
        <ele>450.6</ele>
        <time>2022-07-12T07:20:45Z</time>
      </trkpt>
      <trkpt lat="44.51112" lon="2.85748">
        <ele>450.6</ele>
        <time>2022-07-12T07:20:46Z</time>
      </trkpt>
      <trkpt lat="44.51107" lon="2.85767">
        <ele>450.2</ele>
        <time>2022-07-12T07:20:49Z</time>
      </trkpt>
      <trkpt lat="44.51095" lon="2.85808">
        <ele>449.8</ele>
        <time>2022-07-12T07:20:54Z</time>
      </trkpt>
      <trkpt lat="44.51089" lon="2.85838">
        <ele>448.6</ele>
        <time>2022-07-12T07:20:57Z</time>
      </trkpt>
      <trkpt lat="44.51085" lon="2.8586">
        <ele>448</ele>
        <time>2022-07-12T07:20:59Z</time>
      </trkpt>
      <trkpt lat="44.51083" lon="2.8587">
        <ele>447.4</ele>
        <time>2022-07-12T07:21:00Z</time>
      </trkpt>
      <trkpt lat="44.51078" lon="2.85904">
        <ele>446.4</ele>
        <time>2022-07-12T07:21:03Z</time>
      </trkpt>
      <trkpt lat="44.51074" lon="2.85929">
        <ele>444.8</ele>
        <time>2022-07-12T07:21:05Z</time>
      </trkpt>
      <trkpt lat="44.51074" lon="2.85952">
        <ele>444</ele>
        <time>2022-07-12T07:21:07Z</time>
      </trkpt>
      <trkpt lat="44.51074" lon="2.85963">
        <ele>443.6</ele>
        <time>2022-07-12T07:21:08Z</time>
      </trkpt>
      <trkpt lat="44.51079" lon="2.85995">
        <ele>442.8</ele>
        <time>2022-07-12T07:21:11Z</time>
      </trkpt>
      <trkpt lat="44.51083" lon="2.86015">
        <ele>442.2</ele>
        <time>2022-07-12T07:21:13Z</time>
      </trkpt>
      <trkpt lat="44.51089" lon="2.86052">
        <ele>441.6</ele>
        <time>2022-07-12T07:21:17Z</time>
      </trkpt>
      <trkpt lat="44.51091" lon="2.86061">
        <ele>441.6</ele>
        <time>2022-07-12T07:21:18Z</time>
      </trkpt>
      <trkpt lat="44.51093" lon="2.86069">
        <ele>441.4</ele>
        <time>2022-07-12T07:21:19Z</time>
      </trkpt>
      <trkpt lat="44.51106" lon="2.86113">
        <ele>440.8</ele>
        <time>2022-07-12T07:21:25Z</time>
      </trkpt>
      <trkpt lat="44.51108" lon="2.8612">
        <ele>440.6</ele>
        <time>2022-07-12T07:21:26Z</time>
      </trkpt>
      <trkpt lat="44.5112" lon="2.86144">
        <ele>440.2</ele>
        <time>2022-07-12T07:21:30Z</time>
      </trkpt>
      <trkpt lat="44.51137" lon="2.86167">
        <ele>440</ele>
        <time>2022-07-12T07:21:35Z</time>
      </trkpt>
      <trkpt lat="44.51144" lon="2.86174">
        <ele>440</ele>
        <time>2022-07-12T07:21:37Z</time>
      </trkpt>
      <trkpt lat="44.51153" lon="2.86181">
        <ele>440</ele>
        <time>2022-07-12T07:21:39Z</time>
      </trkpt>
      <trkpt lat="44.51158" lon="2.86184">
        <ele>440</ele>
        <time>2022-07-12T07:21:40Z</time>
      </trkpt>
      <trkpt lat="44.51186" lon="2.862">
        <ele>439.6</ele>
        <time>2022-07-12T07:21:47Z</time>
      </trkpt>
      <trkpt lat="44.51191" lon="2.86204">
        <ele>439.6</ele>
        <time>2022-07-12T07:21:48Z</time>
      </trkpt>
      <trkpt lat="44.51209" lon="2.86224">
        <ele>439.4</ele>
        <time>2022-07-12T07:21:52Z</time>
      </trkpt>
      <trkpt lat="44.51216" lon="2.86233">
        <ele>439.2</ele>
        <time>2022-07-12T07:21:54Z</time>
      </trkpt>
      <trkpt lat="44.51223" lon="2.86244">
        <ele>439.2</ele>
        <time>2022-07-12T07:21:56Z</time>
      </trkpt>
      <trkpt lat="44.5123" lon="2.86257">
        <ele>439</ele>
        <time>2022-07-12T07:21:58Z</time>
      </trkpt>
      <trkpt lat="44.5124" lon="2.86285">
        <ele>438.8</ele>
        <time>2022-07-12T07:22:02Z</time>
      </trkpt>
      <trkpt lat="44.5124" lon="2.86294">
        <ele>438.6</ele>
        <time>2022-07-12T07:22:03Z</time>
      </trkpt>
      <trkpt lat="44.51237" lon="2.86299">
        <ele>438.6</ele>
        <time>2022-07-12T07:22:04Z</time>
      </trkpt>
      <trkpt lat="44.51232" lon="2.86306">
        <ele>438.4</ele>
        <time>2022-07-12T07:22:05Z</time>
      </trkpt>
      <trkpt lat="44.51228" lon="2.86313">
        <ele>438.2</ele>
        <time>2022-07-12T07:22:06Z</time>
      </trkpt>
      <trkpt lat="44.51216" lon="2.86342">
        <ele>437.2</ele>
        <time>2022-07-12T07:22:09Z</time>
      </trkpt>
      <trkpt lat="44.51213" lon="2.86353">
        <ele>437</ele>
        <time>2022-07-12T07:22:10Z</time>
      </trkpt>
      <trkpt lat="44.5121" lon="2.86377">
        <ele>436.2</ele>
        <time>2022-07-12T07:22:12Z</time>
      </trkpt>
      <trkpt lat="44.51208" lon="2.86403">
        <ele>435.4</ele>
        <time>2022-07-12T07:22:14Z</time>
      </trkpt>
      <trkpt lat="44.51207" lon="2.86417">
        <ele>434.8</ele>
        <time>2022-07-12T07:22:15Z</time>
      </trkpt>
      <trkpt lat="44.51204" lon="2.8643">
        <ele>434.2</ele>
        <time>2022-07-12T07:22:16Z</time>
      </trkpt>
      <trkpt lat="44.51197" lon="2.86455">
        <ele>433</ele>
        <time>2022-07-12T07:22:18Z</time>
      </trkpt>
      <trkpt lat="44.51184" lon="2.86493">
        <ele>431.4</ele>
        <time>2022-07-12T07:22:21Z</time>
      </trkpt>
      <trkpt lat="44.51181" lon="2.86508">
        <ele>431</ele>
        <time>2022-07-12T07:22:22Z</time>
      </trkpt>
      <trkpt lat="44.5118" lon="2.86522">
        <ele>430.2</ele>
        <time>2022-07-12T07:22:23Z</time>
      </trkpt>
      <trkpt lat="44.51178" lon="2.86551">
        <ele>429.2</ele>
        <time>2022-07-12T07:22:25Z</time>
      </trkpt>
      <trkpt lat="44.5118" lon="2.86582">
        <ele>427.6</ele>
        <time>2022-07-12T07:22:27Z</time>
      </trkpt>
      <trkpt lat="44.51182" lon="2.86598">
        <ele>427</ele>
        <time>2022-07-12T07:22:28Z</time>
      </trkpt>
      <trkpt lat="44.51182" lon="2.86613">
        <ele>426.6</ele>
        <time>2022-07-12T07:22:29Z</time>
      </trkpt>
      <trkpt lat="44.5118" lon="2.86642">
        <ele>425.4</ele>
        <time>2022-07-12T07:22:31Z</time>
      </trkpt>
      <trkpt lat="44.5118" lon="2.86656">
        <ele>424.8</ele>
        <time>2022-07-12T07:22:32Z</time>
      </trkpt>
      <trkpt lat="44.5118" lon="2.8667">
        <ele>424</ele>
        <time>2022-07-12T07:22:33Z</time>
      </trkpt>
      <trkpt lat="44.51188" lon="2.86697">
        <ele>423</ele>
        <time>2022-07-12T07:22:35Z</time>
      </trkpt>
      <trkpt lat="44.51193" lon="2.86709">
        <ele>422.6</ele>
        <time>2022-07-12T07:22:36Z</time>
      </trkpt>
      <trkpt lat="44.51198" lon="2.86719">
        <ele>422</ele>
        <time>2022-07-12T07:22:37Z</time>
      </trkpt>
      <trkpt lat="44.51216" lon="2.86752">
        <ele>420.6</ele>
        <time>2022-07-12T07:22:40Z</time>
      </trkpt>
      <trkpt lat="44.51224" lon="2.86761">
        <ele>420.4</ele>
        <time>2022-07-12T07:22:41Z</time>
      </trkpt>
      <trkpt lat="44.5124" lon="2.86777">
        <ele>419.6</ele>
        <time>2022-07-12T07:22:43Z</time>
      </trkpt>
      <trkpt lat="44.51265" lon="2.86793">
        <ele>417.8</ele>
        <time>2022-07-12T07:22:46Z</time>
      </trkpt>
      <trkpt lat="44.51282" lon="2.86804">
        <ele>416.8</ele>
        <time>2022-07-12T07:22:48Z</time>
      </trkpt>
      <trkpt lat="44.51299" lon="2.86816">
        <ele>415.6</ele>
        <time>2022-07-12T07:22:50Z</time>
      </trkpt>
      <trkpt lat="44.51315" lon="2.8683">
        <ele>414.6</ele>
        <time>2022-07-12T07:22:52Z</time>
      </trkpt>
      <trkpt lat="44.51323" lon="2.86838">
        <ele>414</ele>
        <time>2022-07-12T07:22:53Z</time>
      </trkpt>
      <trkpt lat="44.51337" lon="2.86856">
        <ele>413.2</ele>
        <time>2022-07-12T07:22:55Z</time>
      </trkpt>
      <trkpt lat="44.51351" lon="2.86877">
        <ele>412</ele>
        <time>2022-07-12T07:22:57Z</time>
      </trkpt>
      <trkpt lat="44.51357" lon="2.86888">
        <ele>411.2</ele>
        <time>2022-07-12T07:22:58Z</time>
      </trkpt>
      <trkpt lat="44.51362" lon="2.86901">
        <ele>410.6</ele>
        <time>2022-07-12T07:22:59Z</time>
      </trkpt>
      <trkpt lat="44.51366" lon="2.86913">
        <ele>409.6</ele>
        <time>2022-07-12T07:23:00Z</time>
      </trkpt>
      <trkpt lat="44.5137" lon="2.86926">
        <ele>409.4</ele>
        <time>2022-07-12T07:23:01Z</time>
      </trkpt>
      <trkpt lat="44.51376" lon="2.86954">
        <ele>407.6</ele>
        <time>2022-07-12T07:23:03Z</time>
      </trkpt>
      <trkpt lat="44.51378" lon="2.86982">
        <ele>406.8</ele>
        <time>2022-07-12T07:23:05Z</time>
      </trkpt>
      <trkpt lat="44.51377" lon="2.86997">
        <ele>406.4</ele>
        <time>2022-07-12T07:23:06Z</time>
      </trkpt>
      <trkpt lat="44.51374" lon="2.87011">
        <ele>405.8</ele>
        <time>2022-07-12T07:23:07Z</time>
      </trkpt>
      <trkpt lat="44.51369" lon="2.87024">
        <ele>405.6</ele>
        <time>2022-07-12T07:23:08Z</time>
      </trkpt>
      <trkpt lat="44.51363" lon="2.87037">
        <ele>404.8</ele>
        <time>2022-07-12T07:23:09Z</time>
      </trkpt>
      <trkpt lat="44.51348" lon="2.87075">
        <ele>403.2</ele>
        <time>2022-07-12T07:23:12Z</time>
      </trkpt>
      <trkpt lat="44.51342" lon="2.87088">
        <ele>402.8</ele>
        <time>2022-07-12T07:23:13Z</time>
      </trkpt>
      <trkpt lat="44.51335" lon="2.87099">
        <ele>402.2</ele>
        <time>2022-07-12T07:23:14Z</time>
      </trkpt>
      <trkpt lat="44.51329" lon="2.87109">
        <ele>401.8</ele>
        <time>2022-07-12T07:23:15Z</time>
      </trkpt>
      <trkpt lat="44.51322" lon="2.87119">
        <ele>401.4</ele>
        <time>2022-07-12T07:23:16Z</time>
      </trkpt>
      <trkpt lat="44.51316" lon="2.87128">
        <ele>400.8</ele>
        <time>2022-07-12T07:23:17Z</time>
      </trkpt>
      <trkpt lat="44.51303" lon="2.87146">
        <ele>400</ele>
        <time>2022-07-12T07:23:19Z</time>
      </trkpt>
      <trkpt lat="44.51299" lon="2.87156">
        <ele>399.6</ele>
        <time>2022-07-12T07:23:20Z</time>
      </trkpt>
      <trkpt lat="44.51295" lon="2.87168">
        <ele>399</ele>
        <time>2022-07-12T07:23:21Z</time>
      </trkpt>
      <trkpt lat="44.51292" lon="2.87191">
        <ele>398.6</ele>
        <time>2022-07-12T07:23:23Z</time>
      </trkpt>
      <trkpt lat="44.51292" lon="2.87203">
        <ele>398.2</ele>
        <time>2022-07-12T07:23:24Z</time>
      </trkpt>
      <trkpt lat="44.51291" lon="2.87233">
        <ele>397.4</ele>
        <time>2022-07-12T07:23:27Z</time>
      </trkpt>
      <trkpt lat="44.51291" lon="2.87241">
        <ele>397</ele>
        <time>2022-07-12T07:23:28Z</time>
      </trkpt>
      <trkpt lat="44.51295" lon="2.8725">
        <ele>396.6</ele>
        <time>2022-07-12T07:23:30Z</time>
      </trkpt>
      <trkpt lat="44.51307" lon="2.87249">
        <ele>396.6</ele>
        <time>2022-07-12T07:23:33Z</time>
      </trkpt>
      <trkpt lat="44.5131" lon="2.87247">
        <ele>396.6</ele>
        <time>2022-07-12T07:23:34Z</time>
      </trkpt>
      <trkpt lat="44.5132" lon="2.87241">
        <ele>396.6</ele>
        <time>2022-07-12T07:23:37Z</time>
      </trkpt>
      <trkpt lat="44.51328" lon="2.87236">
        <ele>397.2</ele>
        <time>2022-07-12T07:23:41Z</time>
      </trkpt>
      <trkpt lat="44.51331" lon="2.87235">
        <ele>397.8</ele>
        <time>2022-07-12T07:23:44Z</time>
      </trkpt>
      <trkpt lat="44.51334" lon="2.87234">
        <ele>398.2</ele>
        <time>2022-07-12T07:23:47Z</time>
      </trkpt>
      <trkpt lat="44.51336" lon="2.87233">
        <ele>398.4</ele>
        <time>2022-07-12T07:23:48Z</time>
      </trkpt>
      <trkpt lat="44.51341" lon="2.87231">
        <ele>399.4</ele>
        <time>2022-07-12T07:23:53Z</time>
      </trkpt>
      <trkpt lat="44.51352" lon="2.87232">
        <ele>400.2</ele>
        <time>2022-07-12T07:24:00Z</time>
      </trkpt>
      <trkpt lat="44.51358" lon="2.87232">
        <ele>400.6</ele>
        <time>2022-07-12T07:24:03Z</time>
      </trkpt>
      <trkpt lat="44.51366" lon="2.87229">
        <ele>401.2</ele>
        <time>2022-07-12T07:24:08Z</time>
      </trkpt>
      <trkpt lat="44.51369" lon="2.87229">
        <ele>401.4</ele>
        <time>2022-07-12T07:24:09Z</time>
      </trkpt>
      <trkpt lat="44.51387" lon="2.87232">
        <ele>402</ele>
        <time>2022-07-12T07:24:16Z</time>
      </trkpt>
      <trkpt lat="44.51389" lon="2.87232">
        <ele>402.4</ele>
        <time>2022-07-12T07:24:17Z</time>
      </trkpt>
      <trkpt lat="44.51396" lon="2.87231">
        <ele>402.8</ele>
        <time>2022-07-12T07:24:21Z</time>
      </trkpt>
      <trkpt lat="44.51398" lon="2.87231">
        <ele>403</ele>
        <time>2022-07-12T07:24:22Z</time>
      </trkpt>
      <trkpt lat="44.51399" lon="2.8723">
        <ele>403.2</ele>
        <time>2022-07-12T07:24:23Z</time>
      </trkpt>
      <trkpt lat="44.51402" lon="2.87229">
        <ele>403.4</ele>
        <time>2022-07-12T07:24:25Z</time>
      </trkpt>
      <trkpt lat="44.51406" lon="2.87228">
        <ele>403.6</ele>
        <time>2022-07-12T07:24:27Z</time>
      </trkpt>
      <trkpt lat="44.51407" lon="2.87228">
        <ele>403.8</ele>
        <time>2022-07-12T07:24:28Z</time>
      </trkpt>
      <trkpt lat="44.51418" lon="2.8723">
        <ele>404.6</ele>
        <time>2022-07-12T07:24:33Z</time>
      </trkpt>
      <trkpt lat="44.51421" lon="2.8723">
        <ele>404.6</ele>
        <time>2022-07-12T07:24:34Z</time>
      </trkpt>
      <trkpt lat="44.51425" lon="2.8723">
        <ele>404.8</ele>
        <time>2022-07-12T07:24:35Z</time>
      </trkpt>
      <trkpt lat="44.51444" lon="2.87237">
        <ele>405.4</ele>
        <time>2022-07-12T07:24:40Z</time>
      </trkpt>
      <trkpt lat="44.51447" lon="2.87238">
        <ele>405.6</ele>
        <time>2022-07-12T07:24:41Z</time>
      </trkpt>
      <trkpt lat="44.51458" lon="2.87244">
        <ele>406.4</ele>
        <time>2022-07-12T07:24:45Z</time>
      </trkpt>
      <trkpt lat="44.51461" lon="2.87244">
        <ele>406.4</ele>
        <time>2022-07-12T07:24:46Z</time>
      </trkpt>
      <trkpt lat="44.51463" lon="2.87246">
        <ele>406.6</ele>
        <time>2022-07-12T07:24:48Z</time>
      </trkpt>
      <trkpt lat="44.51464" lon="2.87253">
        <ele>407</ele>
        <time>2022-07-12T07:24:51Z</time>
      </trkpt>
      <trkpt lat="44.51467" lon="2.8726">
        <ele>407.4</ele>
        <time>2022-07-12T07:24:54Z</time>
      </trkpt>
      <trkpt lat="44.51469" lon="2.87263">
        <ele>407.6</ele>
        <time>2022-07-12T07:24:55Z</time>
      </trkpt>
      <trkpt lat="44.5147" lon="2.87265">
        <ele>407.8</ele>
        <time>2022-07-12T07:24:56Z</time>
      </trkpt>
      <trkpt lat="44.51476" lon="2.87276">
        <ele>408.4</ele>
        <time>2022-07-12T07:25:01Z</time>
      </trkpt>
      <trkpt lat="44.51477" lon="2.87279">
        <ele>408.6</ele>
        <time>2022-07-12T07:25:02Z</time>
      </trkpt>
      <trkpt lat="44.51484" lon="2.87289">
        <ele>409.2</ele>
        <time>2022-07-12T07:25:07Z</time>
      </trkpt>
      <trkpt lat="44.51485" lon="2.87291">
        <ele>409.4</ele>
        <time>2022-07-12T07:25:08Z</time>
      </trkpt>
      <trkpt lat="44.51486" lon="2.87294">
        <ele>409.6</ele>
        <time>2022-07-12T07:25:09Z</time>
      </trkpt>
      <trkpt lat="44.51493" lon="2.87308">
        <ele>410.4</ele>
        <time>2022-07-12T07:25:15Z</time>
      </trkpt>
      <trkpt lat="44.51494" lon="2.8731">
        <ele>410.6</ele>
        <time>2022-07-12T07:25:16Z</time>
      </trkpt>
      <trkpt lat="44.51496" lon="2.87314">
        <ele>410.8</ele>
        <time>2022-07-12T07:25:18Z</time>
      </trkpt>
      <trkpt lat="44.51501" lon="2.8732">
        <ele>411.4</ele>
        <time>2022-07-12T07:25:21Z</time>
      </trkpt>
      <trkpt lat="44.51501" lon="2.87324">
        <ele>411.6</ele>
        <time>2022-07-12T07:25:22Z</time>
      </trkpt>
      <trkpt lat="44.51505" lon="2.87334">
        <ele>412.2</ele>
        <time>2022-07-12T07:25:26Z</time>
      </trkpt>
      <trkpt lat="44.51506" lon="2.87342">
        <ele>412.6</ele>
        <time>2022-07-12T07:25:29Z</time>
      </trkpt>
      <trkpt lat="44.51504" lon="2.87345">
        <ele>413</ele>
        <time>2022-07-12T07:25:31Z</time>
      </trkpt>
      <trkpt lat="44.51504" lon="2.87347">
        <ele>413.2</ele>
        <time>2022-07-12T07:25:32Z</time>
      </trkpt>
      <trkpt lat="44.51506" lon="2.87358">
        <ele>413.8</ele>
        <time>2022-07-12T07:25:37Z</time>
      </trkpt>
      <trkpt lat="44.51506" lon="2.8736">
        <ele>414</ele>
        <time>2022-07-12T07:25:38Z</time>
      </trkpt>
      <trkpt lat="44.51507" lon="2.87362">
        <ele>414</ele>
        <time>2022-07-12T07:25:39Z</time>
      </trkpt>
      <trkpt lat="44.51509" lon="2.87371">
        <ele>414.6</ele>
        <time>2022-07-12T07:25:43Z</time>
      </trkpt>
      <trkpt lat="44.51509" lon="2.87373">
        <ele>414.6</ele>
        <time>2022-07-12T07:25:44Z</time>
      </trkpt>
      <trkpt lat="44.51509" lon="2.87375">
        <ele>414.8</ele>
        <time>2022-07-12T07:25:45Z</time>
      </trkpt>
      <trkpt lat="44.5151" lon="2.87377">
        <ele>415</ele>
        <time>2022-07-12T07:25:46Z</time>
      </trkpt>
      <trkpt lat="44.51512" lon="2.87381">
        <ele>415.4</ele>
        <time>2022-07-12T07:25:48Z</time>
      </trkpt>
      <trkpt lat="44.51512" lon="2.87386">
        <ele>415.8</ele>
        <time>2022-07-12T07:25:50Z</time>
      </trkpt>
      <trkpt lat="44.51515" lon="2.87399">
        <ele>416.4</ele>
        <time>2022-07-12T07:25:55Z</time>
      </trkpt>
      <trkpt lat="44.51515" lon="2.874">
        <ele>416.6</ele>
        <time>2022-07-12T07:25:56Z</time>
      </trkpt>
      <trkpt lat="44.51516" lon="2.87402">
        <ele>416.8</ele>
        <time>2022-07-12T07:25:57Z</time>
      </trkpt>
      <trkpt lat="44.51517" lon="2.87415">
        <ele>417.4</ele>
        <time>2022-07-12T07:26:01Z</time>
      </trkpt>
      <trkpt lat="44.51514" lon="2.87419">
        <ele>417.8</ele>
        <time>2022-07-12T07:26:04Z</time>
      </trkpt>
      <trkpt lat="44.51511" lon="2.87421">
        <ele>418</ele>
        <time>2022-07-12T07:26:06Z</time>
      </trkpt>
      <trkpt lat="44.51503" lon="2.87421">
        <ele>419</ele>
        <time>2022-07-12T07:26:11Z</time>
      </trkpt>
      <trkpt lat="44.515" lon="2.87419">
        <ele>419.4</ele>
        <time>2022-07-12T07:26:13Z</time>
      </trkpt>
      <trkpt lat="44.51499" lon="2.87416">
        <ele>419.6</ele>
        <time>2022-07-12T07:26:15Z</time>
      </trkpt>
      <trkpt lat="44.51498" lon="2.87412">
        <ele>420</ele>
        <time>2022-07-12T07:26:17Z</time>
      </trkpt>
      <trkpt lat="44.51497" lon="2.8741">
        <ele>420.2</ele>
        <time>2022-07-12T07:26:18Z</time>
      </trkpt>
      <trkpt lat="44.51495" lon="2.87399">
        <ele>421.2</ele>
        <time>2022-07-12T07:26:23Z</time>
      </trkpt>
      <trkpt lat="44.51494" lon="2.87394">
        <ele>421.6</ele>
        <time>2022-07-12T07:26:25Z</time>
      </trkpt>
      <trkpt lat="44.51492" lon="2.87384">
        <ele>422.2</ele>
        <time>2022-07-12T07:26:29Z</time>
      </trkpt>
      <trkpt lat="44.51487" lon="2.87374">
        <ele>422.6</ele>
        <time>2022-07-12T07:26:33Z</time>
      </trkpt>
      <trkpt lat="44.51483" lon="2.87365">
        <ele>423.2</ele>
        <time>2022-07-12T07:26:37Z</time>
      </trkpt>
      <trkpt lat="44.51482" lon="2.87363">
        <ele>423.4</ele>
        <time>2022-07-12T07:26:38Z</time>
      </trkpt>
      <trkpt lat="44.51477" lon="2.87356">
        <ele>424.2</ele>
        <time>2022-07-12T07:26:44Z</time>
      </trkpt>
      <trkpt lat="44.51477" lon="2.87352">
        <ele>424.6</ele>
        <time>2022-07-12T07:26:46Z</time>
      </trkpt>
      <trkpt lat="44.51478" lon="2.87344">
        <ele>424.6</ele>
        <time>2022-07-12T07:26:49Z</time>
      </trkpt>
      <trkpt lat="44.51477" lon="2.87341">
        <ele>424.8</ele>
        <time>2022-07-12T07:26:50Z</time>
      </trkpt>
      <trkpt lat="44.51477" lon="2.87336">
        <ele>424.8</ele>
        <time>2022-07-12T07:26:52Z</time>
      </trkpt>
      <trkpt lat="44.51478" lon="2.87331">
        <ele>425</ele>
        <time>2022-07-12T07:26:54Z</time>
      </trkpt>
      <trkpt lat="44.51478" lon="2.87327">
        <ele>425</ele>
        <time>2022-07-12T07:26:57Z</time>
      </trkpt>
      <trkpt lat="44.51478" lon="2.87327">
        <ele>425</ele>
        <time>2022-07-12T07:26:59Z</time>
      </trkpt>
      <trkpt lat="44.51477" lon="2.87324">
        <ele>424.6</ele>
        <time>2022-07-12T07:27:16Z</time>
      </trkpt>
      <trkpt lat="44.51477" lon="2.8732">
        <ele>424.6</ele>
        <time>2022-07-12T07:27:18Z</time>
      </trkpt>
      <trkpt lat="44.51476" lon="2.87313">
        <ele>424.6</ele>
        <time>2022-07-12T07:27:20Z</time>
      </trkpt>
      <trkpt lat="44.51465" lon="2.87296">
        <ele>424.2</ele>
        <time>2022-07-12T07:27:24Z</time>
      </trkpt>
      <trkpt lat="44.51456" lon="2.87285">
        <ele>423.8</ele>
        <time>2022-07-12T07:27:27Z</time>
      </trkpt>
      <trkpt lat="44.5145" lon="2.87281">
        <ele>423.4</ele>
        <time>2022-07-12T07:27:28Z</time>
      </trkpt>
      <trkpt lat="44.51435" lon="2.87276">
        <ele>422.6</ele>
        <time>2022-07-12T07:27:31Z</time>
      </trkpt>
      <trkpt lat="44.5143" lon="2.87275">
        <ele>422</ele>
        <time>2022-07-12T07:27:32Z</time>
      </trkpt>
      <trkpt lat="44.51408" lon="2.87269">
        <ele>421.2</ele>
        <time>2022-07-12T07:27:35Z</time>
      </trkpt>
      <trkpt lat="44.514" lon="2.87267">
        <ele>421</ele>
        <time>2022-07-12T07:27:36Z</time>
      </trkpt>
      <trkpt lat="44.51386" lon="2.87265">
        <ele>420</ele>
        <time>2022-07-12T07:27:38Z</time>
      </trkpt>
      <trkpt lat="44.51378" lon="2.87268">
        <ele>418.8</ele>
        <time>2022-07-12T07:27:40Z</time>
      </trkpt>
      <trkpt lat="44.51367" lon="2.8727">
        <ele>418</ele>
        <time>2022-07-12T07:27:42Z</time>
      </trkpt>
      <trkpt lat="44.51362" lon="2.87272">
        <ele>417.6</ele>
        <time>2022-07-12T07:27:43Z</time>
      </trkpt>
      <trkpt lat="44.5135" lon="2.87278">
        <ele>416.8</ele>
        <time>2022-07-12T07:27:45Z</time>
      </trkpt>
      <trkpt lat="44.51342" lon="2.87282">
        <ele>416.2</ele>
        <time>2022-07-12T07:27:46Z</time>
      </trkpt>
      <trkpt lat="44.51319" lon="2.87293">
        <ele>415.2</ele>
        <time>2022-07-12T07:27:49Z</time>
      </trkpt>
      <trkpt lat="44.51315" lon="2.87296">
        <ele>414.8</ele>
        <time>2022-07-12T07:27:50Z</time>
      </trkpt>
      <trkpt lat="44.51306" lon="2.873">
        <ele>414.6</ele>
        <time>2022-07-12T07:27:52Z</time>
      </trkpt>
      <trkpt lat="44.51297" lon="2.87302">
        <ele>414.6</ele>
        <time>2022-07-12T07:27:55Z</time>
      </trkpt>
      <trkpt lat="44.51295" lon="2.87302">
        <ele>414.6</ele>
        <time>2022-07-12T07:27:56Z</time>
      </trkpt>
      <trkpt lat="44.51292" lon="2.87305">
        <ele>415</ele>
        <time>2022-07-12T07:27:59Z</time>
      </trkpt>
      <trkpt lat="44.51289" lon="2.87309">
        <ele>415.6</ele>
        <time>2022-07-12T07:28:02Z</time>
      </trkpt>
      <trkpt lat="44.51284" lon="2.8731">
        <ele>416</ele>
        <time>2022-07-12T07:28:04Z</time>
      </trkpt>
      <trkpt lat="44.51281" lon="2.87311">
        <ele>416.4</ele>
        <time>2022-07-12T07:28:07Z</time>
      </trkpt>
      <trkpt lat="44.51278" lon="2.87311">
        <ele>416.6</ele>
        <time>2022-07-12T07:28:08Z</time>
      </trkpt>
      <trkpt lat="44.51269" lon="2.87311">
        <ele>417</ele>
        <time>2022-07-12T07:28:11Z</time>
      </trkpt>
      <trkpt lat="44.51261" lon="2.87312">
        <ele>417.8</ele>
        <time>2022-07-12T07:28:14Z</time>
      </trkpt>
      <trkpt lat="44.51258" lon="2.87312">
        <ele>418</ele>
        <time>2022-07-12T07:28:15Z</time>
      </trkpt>
      <trkpt lat="44.51256" lon="2.87312">
        <ele>418.2</ele>
        <time>2022-07-12T07:28:16Z</time>
      </trkpt>
      <trkpt lat="44.5125" lon="2.8731">
        <ele>418.6</ele>
        <time>2022-07-12T07:28:18Z</time>
      </trkpt>
      <trkpt lat="44.5124" lon="2.87308">
        <ele>419.2</ele>
        <time>2022-07-12T07:28:21Z</time>
      </trkpt>
      <trkpt lat="44.51232" lon="2.87308">
        <ele>419.8</ele>
        <time>2022-07-12T07:28:25Z</time>
      </trkpt>
      <trkpt lat="44.51221" lon="2.87303">
        <ele>420.4</ele>
        <time>2022-07-12T07:28:28Z</time>
      </trkpt>
      <trkpt lat="44.51212" lon="2.87293">
        <ele>420.6</ele>
        <time>2022-07-12T07:28:32Z</time>
      </trkpt>
      <trkpt lat="44.51207" lon="2.8727">
        <ele>420.8</ele>
        <time>2022-07-12T07:28:39Z</time>
      </trkpt>
      <trkpt lat="44.51203" lon="2.87246">
        <ele>421</ele>
        <time>2022-07-12T07:28:46Z</time>
      </trkpt>
      <trkpt lat="44.51195" lon="2.87216">
        <ele>421.2</ele>
        <time>2022-07-12T07:28:54Z</time>
      </trkpt>
      <trkpt lat="44.51186" lon="2.87181">
        <ele>421.2</ele>
        <time>2022-07-12T07:29:03Z</time>
      </trkpt>
      <trkpt lat="44.51186" lon="2.87149">
        <ele>421</ele>
        <time>2022-07-12T07:29:10Z</time>
      </trkpt>
      <trkpt lat="44.51188" lon="2.87122">
        <ele>421.2</ele>
        <time>2022-07-12T07:29:17Z</time>
      </trkpt>
      <trkpt lat="44.51189" lon="2.87109">
        <ele>421.4</ele>
        <time>2022-07-12T07:29:21Z</time>
      </trkpt>
      <trkpt lat="44.51189" lon="2.87103">
        <ele>421.6</ele>
        <time>2022-07-12T07:29:23Z</time>
      </trkpt>
      <trkpt lat="44.5119" lon="2.87099">
        <ele>422</ele>
        <time>2022-07-12T07:29:25Z</time>
      </trkpt>
      <trkpt lat="44.5119" lon="2.87094">
        <ele>422.4</ele>
        <time>2022-07-12T07:29:27Z</time>
      </trkpt>
      <trkpt lat="44.51191" lon="2.87089">
        <ele>422.6</ele>
        <time>2022-07-12T07:29:29Z</time>
      </trkpt>
      <trkpt lat="44.51194" lon="2.87078">
        <ele>423.6</ele>
        <time>2022-07-12T07:29:34Z</time>
      </trkpt>
      <trkpt lat="44.51195" lon="2.87077">
        <ele>423.8</ele>
        <time>2022-07-12T07:29:35Z</time>
      </trkpt>
      <trkpt lat="44.512" lon="2.87069">
        <ele>425</ele>
        <time>2022-07-12T07:29:40Z</time>
      </trkpt>
      <trkpt lat="44.51201" lon="2.87067">
        <ele>425.2</ele>
        <time>2022-07-12T07:29:41Z</time>
      </trkpt>
      <trkpt lat="44.51206" lon="2.87057">
        <ele>426.2</ele>
        <time>2022-07-12T07:29:46Z</time>
      </trkpt>
      <trkpt lat="44.5121" lon="2.87052">
        <ele>426.8</ele>
        <time>2022-07-12T07:29:49Z</time>
      </trkpt>
      <trkpt lat="44.51212" lon="2.87049">
        <ele>427.2</ele>
        <time>2022-07-12T07:29:51Z</time>
      </trkpt>
      <trkpt lat="44.51215" lon="2.87039">
        <ele>428.2</ele>
        <time>2022-07-12T07:29:56Z</time>
      </trkpt>
      <trkpt lat="44.51216" lon="2.87037">
        <ele>428.4</ele>
        <time>2022-07-12T07:29:57Z</time>
      </trkpt>
      <trkpt lat="44.51214" lon="2.87024">
        <ele>429.8</ele>
        <time>2022-07-12T07:30:03Z</time>
      </trkpt>
      <trkpt lat="44.51212" lon="2.87023">
        <ele>430</ele>
        <time>2022-07-12T07:30:04Z</time>
      </trkpt>
      <trkpt lat="44.5121" lon="2.8702">
        <ele>430.4</ele>
        <time>2022-07-12T07:30:06Z</time>
      </trkpt>
      <trkpt lat="44.51208" lon="2.87016">
        <ele>430.8</ele>
        <time>2022-07-12T07:30:08Z</time>
      </trkpt>
      <trkpt lat="44.51207" lon="2.87015">
        <ele>431</ele>
        <time>2022-07-12T07:30:09Z</time>
      </trkpt>
      <trkpt lat="44.51207" lon="2.87013">
        <ele>431</ele>
        <time>2022-07-12T07:30:10Z</time>
      </trkpt>
      <trkpt lat="44.51199" lon="2.87009">
        <ele>431.8</ele>
        <time>2022-07-12T07:30:14Z</time>
      </trkpt>
      <trkpt lat="44.51197" lon="2.87008">
        <ele>432</ele>
        <time>2022-07-12T07:30:15Z</time>
      </trkpt>
      <trkpt lat="44.51187" lon="2.87004">
        <ele>433</ele>
        <time>2022-07-12T07:30:21Z</time>
      </trkpt>
      <trkpt lat="44.51184" lon="2.87003">
        <ele>433.2</ele>
        <time>2022-07-12T07:30:22Z</time>
      </trkpt>
      <trkpt lat="44.51166" lon="2.86996">
        <ele>433.8</ele>
        <time>2022-07-12T07:30:30Z</time>
      </trkpt>
      <trkpt lat="44.51148" lon="2.86989">
        <ele>434</ele>
        <time>2022-07-12T07:30:36Z</time>
      </trkpt>
      <trkpt lat="44.5113" lon="2.86983">
        <ele>434</ele>
        <time>2022-07-12T07:30:43Z</time>
      </trkpt>
      <trkpt lat="44.51119" lon="2.86974">
        <ele>434.4</ele>
        <time>2022-07-12T07:30:48Z</time>
      </trkpt>
      <trkpt lat="44.51118" lon="2.86972">
        <ele>434.4</ele>
        <time>2022-07-12T07:30:49Z</time>
      </trkpt>
      <trkpt lat="44.51106" lon="2.86958">
        <ele>435.2</ele>
        <time>2022-07-12T07:30:56Z</time>
      </trkpt>
      <trkpt lat="44.51086" lon="2.86944">
        <ele>435.4</ele>
        <time>2022-07-12T07:31:04Z</time>
      </trkpt>
      <trkpt lat="44.51064" lon="2.86932">
        <ele>435.4</ele>
        <time>2022-07-12T07:31:12Z</time>
      </trkpt>
      <trkpt lat="44.51043" lon="2.86919">
        <ele>434.8</ele>
        <time>2022-07-12T07:31:19Z</time>
      </trkpt>
      <trkpt lat="44.51018" lon="2.86912">
        <ele>434</ele>
        <time>2022-07-12T07:31:26Z</time>
      </trkpt>
      <trkpt lat="44.50995" lon="2.86906">
        <ele>433.6</ele>
        <time>2022-07-12T07:31:31Z</time>
      </trkpt>
      <trkpt lat="44.50992" lon="2.86905">
        <ele>433.6</ele>
        <time>2022-07-12T07:31:32Z</time>
      </trkpt>
      <trkpt lat="44.50977" lon="2.869">
        <ele>433.4</ele>
        <time>2022-07-12T07:31:36Z</time>
      </trkpt>
      <trkpt lat="44.50973" lon="2.869">
        <ele>433.2</ele>
        <time>2022-07-12T07:31:37Z</time>
      </trkpt>
      <trkpt lat="44.50956" lon="2.86895">
        <ele>433</ele>
        <time>2022-07-12T07:31:40Z</time>
      </trkpt>
      <trkpt lat="44.50944" lon="2.86901">
        <ele>432.8</ele>
        <time>2022-07-12T07:31:42Z</time>
      </trkpt>
      <trkpt lat="44.5094" lon="2.86903">
        <ele>432.6</ele>
        <time>2022-07-12T07:31:43Z</time>
      </trkpt>
      <trkpt lat="44.50935" lon="2.86907">
        <ele>432.4</ele>
        <time>2022-07-12T07:31:44Z</time>
      </trkpt>
      <trkpt lat="44.50922" lon="2.86919">
        <ele>431.8</ele>
        <time>2022-07-12T07:31:47Z</time>
      </trkpt>
      <trkpt lat="44.50918" lon="2.86923">
        <ele>431.8</ele>
        <time>2022-07-12T07:31:48Z</time>
      </trkpt>
      <trkpt lat="44.509" lon="2.86933">
        <ele>431.2</ele>
        <time>2022-07-12T07:31:51Z</time>
      </trkpt>
      <trkpt lat="44.50883" lon="2.86945">
        <ele>431</ele>
        <time>2022-07-12T07:31:54Z</time>
      </trkpt>
      <trkpt lat="44.50878" lon="2.86948">
        <ele>431</ele>
        <time>2022-07-12T07:31:55Z</time>
      </trkpt>
      <trkpt lat="44.50854" lon="2.86969">
        <ele>430.4</ele>
        <time>2022-07-12T07:32:00Z</time>
      </trkpt>
      <trkpt lat="44.50846" lon="2.86978">
        <ele>430.2</ele>
        <time>2022-07-12T07:32:02Z</time>
      </trkpt>
      <trkpt lat="44.50843" lon="2.86981">
        <ele>430</ele>
        <time>2022-07-12T07:32:03Z</time>
      </trkpt>
      <trkpt lat="44.50836" lon="2.86989">
        <ele>429.8</ele>
        <time>2022-07-12T07:32:05Z</time>
      </trkpt>
      <trkpt lat="44.50819" lon="2.86998">
        <ele>429.4</ele>
        <time>2022-07-12T07:32:09Z</time>
      </trkpt>
      <trkpt lat="44.50799" lon="2.87006">
        <ele>429.2</ele>
        <time>2022-07-12T07:32:12Z</time>
      </trkpt>
      <trkpt lat="44.50789" lon="2.87012">
        <ele>429</ele>
        <time>2022-07-12T07:32:14Z</time>
      </trkpt>
      <trkpt lat="44.50785" lon="2.87017">
        <ele>428.8</ele>
        <time>2022-07-12T07:32:15Z</time>
      </trkpt>
      <trkpt lat="44.50746" lon="2.87044">
        <ele>428.4</ele>
        <time>2022-07-12T07:32:22Z</time>
      </trkpt>
      <trkpt lat="44.50716" lon="2.87068">
        <ele>428</ele>
        <time>2022-07-12T07:32:29Z</time>
      </trkpt>
      <trkpt lat="44.50704" lon="2.87075">
        <ele>427.8</ele>
        <time>2022-07-12T07:32:32Z</time>
      </trkpt>
      <trkpt lat="44.50701" lon="2.87077">
        <ele>427.8</ele>
        <time>2022-07-12T07:32:33Z</time>
      </trkpt>
      <trkpt lat="44.50695" lon="2.87078">
        <ele>427.4</ele>
        <time>2022-07-12T07:32:35Z</time>
      </trkpt>
      <trkpt lat="44.50688" lon="2.87079">
        <ele>427.2</ele>
        <time>2022-07-12T07:32:37Z</time>
      </trkpt>
      <trkpt lat="44.50681" lon="2.87083">
        <ele>427</ele>
        <time>2022-07-12T07:32:38Z</time>
      </trkpt>
      <trkpt lat="44.50669" lon="2.87092">
        <ele>426.8</ele>
        <time>2022-07-12T07:32:40Z</time>
      </trkpt>
      <trkpt lat="44.50653" lon="2.87111">
        <ele>425.8</ele>
        <time>2022-07-12T07:32:45Z</time>
      </trkpt>
      <trkpt lat="44.50652" lon="2.87116">
        <ele>425.6</ele>
        <time>2022-07-12T07:32:46Z</time>
      </trkpt>
      <trkpt lat="44.5064" lon="2.87155">
        <ele>425.4</ele>
        <time>2022-07-12T07:32:51Z</time>
      </trkpt>
      <trkpt lat="44.50633" lon="2.87183">
        <ele>425</ele>
        <time>2022-07-12T07:32:55Z</time>
      </trkpt>
      <trkpt lat="44.50615" lon="2.87221">
        <ele>424.6</ele>
        <time>2022-07-12T07:33:00Z</time>
      </trkpt>
      <trkpt lat="44.50614" lon="2.87227">
        <ele>424.6</ele>
        <time>2022-07-12T07:33:01Z</time>
      </trkpt>
      <trkpt lat="44.50612" lon="2.87234">
        <ele>424.4</ele>
        <time>2022-07-12T07:33:02Z</time>
      </trkpt>
      <trkpt lat="44.50608" lon="2.87242">
        <ele>424</ele>
        <time>2022-07-12T07:33:03Z</time>
      </trkpt>
      <trkpt lat="44.50603" lon="2.87251">
        <ele>423.8</ele>
        <time>2022-07-12T07:33:05Z</time>
      </trkpt>
      <trkpt lat="44.50587" lon="2.87276">
        <ele>423.2</ele>
        <time>2022-07-12T07:33:09Z</time>
      </trkpt>
      <trkpt lat="44.50581" lon="2.87292">
        <ele>423.2</ele>
        <time>2022-07-12T07:33:11Z</time>
      </trkpt>
      <trkpt lat="44.50573" lon="2.87307">
        <ele>423</ele>
        <time>2022-07-12T07:33:13Z</time>
      </trkpt>
      <trkpt lat="44.50573" lon="2.87351">
        <ele>422.2</ele>
        <time>2022-07-12T07:33:19Z</time>
      </trkpt>
      <trkpt lat="44.50573" lon="2.87358">
        <ele>422.4</ele>
        <time>2022-07-12T07:33:20Z</time>
      </trkpt>
      <trkpt lat="44.50574" lon="2.87397">
        <ele>421.8</ele>
        <time>2022-07-12T07:33:27Z</time>
      </trkpt>
      <trkpt lat="44.50574" lon="2.87424">
        <ele>421.6</ele>
        <time>2022-07-12T07:33:33Z</time>
      </trkpt>
      <trkpt lat="44.50575" lon="2.87467">
        <ele>421.6</ele>
        <time>2022-07-12T07:33:43Z</time>
      </trkpt>
      <trkpt lat="44.50574" lon="2.87497">
        <ele>421.6</ele>
        <time>2022-07-12T07:33:50Z</time>
      </trkpt>
      <trkpt lat="44.50576" lon="2.87528">
        <ele>421.8</ele>
        <time>2022-07-12T07:33:58Z</time>
      </trkpt>
      <trkpt lat="44.50578" lon="2.87531">
        <ele>421.8</ele>
        <time>2022-07-12T07:33:59Z</time>
      </trkpt>
      <trkpt lat="44.50582" lon="2.87532">
        <ele>421.8</ele>
        <time>2022-07-12T07:34:01Z</time>
      </trkpt>
      <trkpt lat="44.50584" lon="2.87532">
        <ele>421.8</ele>
        <time>2022-07-12T07:34:02Z</time>
      </trkpt>
      <trkpt lat="44.50586" lon="2.87531">
        <ele>422</ele>
        <time>2022-07-12T07:34:05Z</time>
      </trkpt>
      <trkpt lat="44.50588" lon="2.8753">
        <ele>422.2</ele>
        <time>2022-07-12T07:34:07Z</time>
      </trkpt>
      <trkpt lat="44.50589" lon="2.8753">
        <ele>422.2</ele>
        <time>2022-07-12T07:34:08Z</time>
      </trkpt>
      <trkpt lat="44.50589" lon="2.8753">
        <ele>422.2</ele>
        <time>2022-07-12T07:34:10Z</time>
      </trkpt>
      <trkpt lat="44.50595" lon="2.87531">
        <ele>422.4</ele>
        <time>2022-07-12T07:34:15Z</time>
      </trkpt>
      <trkpt lat="44.50597" lon="2.87531">
        <ele>422.4</ele>
        <time>2022-07-12T07:34:19Z</time>
      </trkpt>
      <trkpt lat="44.50597" lon="2.87531">
        <ele>422.4</ele>
        <time>2022-07-12T07:34:20Z</time>
      </trkpt>
      <trkpt lat="44.50606" lon="2.8753">
        <ele>422.6</ele>
        <time>2022-07-12T07:34:25Z</time>
      </trkpt>
      <trkpt lat="44.50612" lon="2.8753">
        <ele>422.8</ele>
        <time>2022-07-12T07:34:27Z</time>
      </trkpt>
      <trkpt lat="44.50616" lon="2.87531">
        <ele>422.8</ele>
        <time>2022-07-12T07:34:30Z</time>
      </trkpt>
      <trkpt lat="44.50616" lon="2.87531">
        <ele>423</ele>
        <time>2022-07-12T07:34:32Z</time>
      </trkpt>
      <trkpt lat="44.50616" lon="2.87531">
        <ele>422.8</ele>
        <time>2022-07-12T07:35:17Z</time>
      </trkpt>
      <trkpt lat="44.50616" lon="2.87531">
        <ele>422.8</ele>
        <time>2022-07-12T07:35:19Z</time>
      </trkpt>
      <trkpt lat="44.50618" lon="2.87531">
        <ele>422.8</ele>
        <time>2022-07-12T07:35:36Z</time>
      </trkpt>
      <trkpt lat="44.50622" lon="2.8753">
        <ele>423</ele>
        <time>2022-07-12T07:35:39Z</time>
      </trkpt>
      <trkpt lat="44.50624" lon="2.8753">
        <ele>423</ele>
        <time>2022-07-12T07:35:40Z</time>
      </trkpt>
      <trkpt lat="44.50642" lon="2.87524">
        <ele>422.8</ele>
        <time>2022-07-12T07:35:45Z</time>
      </trkpt>
      <trkpt lat="44.50656" lon="2.87515">
        <ele>423</ele>
        <time>2022-07-12T07:35:49Z</time>
      </trkpt>
      <trkpt lat="44.50664" lon="2.87512">
        <ele>423</ele>
        <time>2022-07-12T07:35:50Z</time>
      </trkpt>
      <trkpt lat="44.5068" lon="2.87496">
        <ele>423</ele>
        <time>2022-07-12T07:35:55Z</time>
      </trkpt>
      <trkpt lat="44.50709" lon="2.87477">
        <ele>423</ele>
        <time>2022-07-12T07:36:00Z</time>
      </trkpt>
      <trkpt lat="44.50716" lon="2.87474">
        <ele>422.8</ele>
        <time>2022-07-12T07:36:01Z</time>
      </trkpt>
      <trkpt lat="44.50726" lon="2.87468">
        <ele>422.6</ele>
        <time>2022-07-12T07:36:03Z</time>
      </trkpt>
      <trkpt lat="44.50747" lon="2.87451">
        <ele>422.6</ele>
        <time>2022-07-12T07:36:09Z</time>
      </trkpt>
      <trkpt lat="44.50749" lon="2.87448">
        <ele>422.6</ele>
        <time>2022-07-12T07:36:10Z</time>
      </trkpt>
      <trkpt lat="44.50757" lon="2.87438">
        <ele>422.6</ele>
        <time>2022-07-12T07:36:13Z</time>
      </trkpt>
      <trkpt lat="44.50774" lon="2.87421">
        <ele>422.8</ele>
        <time>2022-07-12T07:36:19Z</time>
      </trkpt>
      <trkpt lat="44.50784" lon="2.87413">
        <ele>422.8</ele>
        <time>2022-07-12T07:36:23Z</time>
      </trkpt>
      <trkpt lat="44.50788" lon="2.87411">
        <ele>422.8</ele>
        <time>2022-07-12T07:36:24Z</time>
      </trkpt>
      <trkpt lat="44.50817" lon="2.87405">
        <ele>423</ele>
        <time>2022-07-12T07:36:29Z</time>
      </trkpt>
      <trkpt lat="44.50829" lon="2.87401">
        <ele>423</ele>
        <time>2022-07-12T07:36:33Z</time>
      </trkpt>
      <trkpt lat="44.50851" lon="2.87396">
        <ele>423</ele>
        <time>2022-07-12T07:36:39Z</time>
      </trkpt>
      <trkpt lat="44.50874" lon="2.87392">
        <ele>422.8</ele>
        <time>2022-07-12T07:36:46Z</time>
      </trkpt>
      <trkpt lat="44.50889" lon="2.87391">
        <ele>423</ele>
        <time>2022-07-12T07:36:53Z</time>
      </trkpt>
      <trkpt lat="44.50894" lon="2.87392">
        <ele>423</ele>
        <time>2022-07-12T07:36:56Z</time>
      </trkpt>
      <trkpt lat="44.50895" lon="2.87393">
        <ele>423</ele>
        <time>2022-07-12T07:36:58Z</time>
      </trkpt>
      <trkpt lat="44.50896" lon="2.87394">
        <ele>423</ele>
        <time>2022-07-12T07:36:59Z</time>
      </trkpt>
      <trkpt lat="44.50899" lon="2.87396">
        <ele>423</ele>
        <time>2022-07-12T07:37:00Z</time>
      </trkpt>
      <trkpt lat="44.50908" lon="2.874">
        <ele>423.4</ele>
        <time>2022-07-12T07:37:03Z</time>
      </trkpt>
      <trkpt lat="44.50924" lon="2.87409">
        <ele>423.6</ele>
        <time>2022-07-12T07:37:08Z</time>
      </trkpt>
      <trkpt lat="44.50939" lon="2.87421">
        <ele>424.2</ele>
        <time>2022-07-12T07:37:13Z</time>
      </trkpt>
      <trkpt lat="44.50942" lon="2.87423">
        <ele>424.4</ele>
        <time>2022-07-12T07:37:14Z</time>
      </trkpt>
      <trkpt lat="44.50953" lon="2.87437">
        <ele>425</ele>
        <time>2022-07-12T07:37:20Z</time>
      </trkpt>
      <trkpt lat="44.50956" lon="2.8744">
        <ele>425.2</ele>
        <time>2022-07-12T07:37:21Z</time>
      </trkpt>
      <trkpt lat="44.50957" lon="2.87442">
        <ele>425.4</ele>
        <time>2022-07-12T07:37:22Z</time>
      </trkpt>
      <trkpt lat="44.5096" lon="2.87446">
        <ele>425.6</ele>
        <time>2022-07-12T07:37:24Z</time>
      </trkpt>
      <trkpt lat="44.50962" lon="2.87458">
        <ele>426.6</ele>
        <time>2022-07-12T07:37:30Z</time>
      </trkpt>
      <trkpt lat="44.50962" lon="2.87462">
        <ele>427</ele>
        <time>2022-07-12T07:37:33Z</time>
      </trkpt>
      <trkpt lat="44.50962" lon="2.87473">
        <ele>427.6</ele>
        <time>2022-07-12T07:37:39Z</time>
      </trkpt>
      <trkpt lat="44.50962" lon="2.87474">
        <ele>427.6</ele>
        <time>2022-07-12T07:37:40Z</time>
      </trkpt>
      <trkpt lat="44.5096" lon="2.87482">
        <ele>428.2</ele>
        <time>2022-07-12T07:37:44Z</time>
      </trkpt>
      <trkpt lat="44.50961" lon="2.87484">
        <ele>428.4</ele>
        <time>2022-07-12T07:37:45Z</time>
      </trkpt>
      <trkpt lat="44.50958" lon="2.87492">
        <ele>428.8</ele>
        <time>2022-07-12T07:37:50Z</time>
      </trkpt>
      <trkpt lat="44.50957" lon="2.87494">
        <ele>429</ele>
        <time>2022-07-12T07:37:51Z</time>
      </trkpt>
      <trkpt lat="44.50956" lon="2.87496">
        <ele>429.2</ele>
        <time>2022-07-12T07:37:52Z</time>
      </trkpt>
      <trkpt lat="44.50953" lon="2.87502">
        <ele>429.8</ele>
        <time>2022-07-12T07:37:56Z</time>
      </trkpt>
      <trkpt lat="44.50952" lon="2.87505">
        <ele>430</ele>
        <time>2022-07-12T07:37:57Z</time>
      </trkpt>
      <trkpt lat="44.50952" lon="2.87508">
        <ele>430.4</ele>
        <time>2022-07-12T07:37:59Z</time>
      </trkpt>
      <trkpt lat="44.50952" lon="2.87511">
        <ele>430.6</ele>
        <time>2022-07-12T07:38:01Z</time>
      </trkpt>
      <trkpt lat="44.50951" lon="2.87513">
        <ele>430.8</ele>
        <time>2022-07-12T07:38:02Z</time>
      </trkpt>
      <trkpt lat="44.5095" lon="2.87514">
        <ele>431</ele>
        <time>2022-07-12T07:38:03Z</time>
      </trkpt>
      <trkpt lat="44.50947" lon="2.87519">
        <ele>432</ele>
        <time>2022-07-12T07:38:07Z</time>
      </trkpt>
      <trkpt lat="44.50947" lon="2.8752">
        <ele>432.2</ele>
        <time>2022-07-12T07:38:08Z</time>
      </trkpt>
      <trkpt lat="44.50945" lon="2.87526">
        <ele>432.8</ele>
        <time>2022-07-12T07:38:14Z</time>
      </trkpt>
      <trkpt lat="44.50945" lon="2.87527">
        <ele>433</ele>
        <time>2022-07-12T07:38:15Z</time>
      </trkpt>
      <trkpt lat="44.50944" lon="2.87527">
        <ele>433.2</ele>
        <time>2022-07-12T07:38:16Z</time>
      </trkpt>
      <trkpt lat="44.50945" lon="2.87531">
        <ele>433.6</ele>
        <time>2022-07-12T07:38:18Z</time>
      </trkpt>
      <trkpt lat="44.50944" lon="2.87536">
        <ele>434</ele>
        <time>2022-07-12T07:38:20Z</time>
      </trkpt>
      <trkpt lat="44.50941" lon="2.87541">
        <ele>434.4</ele>
        <time>2022-07-12T07:38:23Z</time>
      </trkpt>
      <trkpt lat="44.50938" lon="2.87547">
        <ele>434.6</ele>
        <time>2022-07-12T07:38:26Z</time>
      </trkpt>
      <trkpt lat="44.50934" lon="2.87556">
        <ele>435.4</ele>
        <time>2022-07-12T07:38:32Z</time>
      </trkpt>
      <trkpt lat="44.50933" lon="2.87557">
        <ele>435.6</ele>
        <time>2022-07-12T07:38:33Z</time>
      </trkpt>
      <trkpt lat="44.50931" lon="2.87564">
        <ele>436.4</ele>
        <time>2022-07-12T07:38:37Z</time>
      </trkpt>
      <trkpt lat="44.5093" lon="2.87566">
        <ele>436.4</ele>
        <time>2022-07-12T07:38:38Z</time>
      </trkpt>
      <trkpt lat="44.50929" lon="2.87567">
        <ele>436.6</ele>
        <time>2022-07-12T07:38:39Z</time>
      </trkpt>
      <trkpt lat="44.50929" lon="2.87569">
        <ele>436.6</ele>
        <time>2022-07-12T07:38:41Z</time>
      </trkpt>
      <trkpt lat="44.50927" lon="2.87574">
        <ele>437.2</ele>
        <time>2022-07-12T07:38:44Z</time>
      </trkpt>
      <trkpt lat="44.50926" lon="2.87575">
        <ele>437.4</ele>
        <time>2022-07-12T07:38:46Z</time>
      </trkpt>
      <trkpt lat="44.50925" lon="2.87578">
        <ele>437.6</ele>
        <time>2022-07-12T07:38:47Z</time>
      </trkpt>
      <trkpt lat="44.50925" lon="2.8758">
        <ele>437.6</ele>
        <time>2022-07-12T07:38:48Z</time>
      </trkpt>
      <trkpt lat="44.50922" lon="2.87582">
        <ele>438</ele>
        <time>2022-07-12T07:38:50Z</time>
      </trkpt>
      <trkpt lat="44.50916" lon="2.87594">
        <ele>438.6</ele>
        <time>2022-07-12T07:38:55Z</time>
      </trkpt>
      <trkpt lat="44.50914" lon="2.87596">
        <ele>438.8</ele>
        <time>2022-07-12T07:38:56Z</time>
      </trkpt>
      <trkpt lat="44.50907" lon="2.87606">
        <ele>439.8</ele>
        <time>2022-07-12T07:39:02Z</time>
      </trkpt>
      <trkpt lat="44.50906" lon="2.87606">
        <ele>439.8</ele>
        <time>2022-07-12T07:39:03Z</time>
      </trkpt>
      <trkpt lat="44.50903" lon="2.87613">
        <ele>440.8</ele>
        <time>2022-07-12T07:39:08Z</time>
      </trkpt>
      <trkpt lat="44.50902" lon="2.87614">
        <ele>441</ele>
        <time>2022-07-12T07:39:09Z</time>
      </trkpt>
      <trkpt lat="44.50899" lon="2.87616">
        <ele>441.2</ele>
        <time>2022-07-12T07:39:11Z</time>
      </trkpt>
      <trkpt lat="44.50897" lon="2.87618">
        <ele>441.4</ele>
        <time>2022-07-12T07:39:13Z</time>
      </trkpt>
      <trkpt lat="44.50894" lon="2.8762">
        <ele>441.8</ele>
        <time>2022-07-12T07:39:15Z</time>
      </trkpt>
      <trkpt lat="44.5089" lon="2.87624">
        <ele>442</ele>
        <time>2022-07-12T07:39:17Z</time>
      </trkpt>
      <trkpt lat="44.50882" lon="2.87634">
        <ele>442.8</ele>
        <time>2022-07-12T07:39:23Z</time>
      </trkpt>
      <trkpt lat="44.50879" lon="2.87637">
        <ele>443</ele>
        <time>2022-07-12T07:39:25Z</time>
      </trkpt>
      <trkpt lat="44.50869" lon="2.87648">
        <ele>443.6</ele>
        <time>2022-07-12T07:39:31Z</time>
      </trkpt>
      <trkpt lat="44.50865" lon="2.87651">
        <ele>443.8</ele>
        <time>2022-07-12T07:39:34Z</time>
      </trkpt>
      <trkpt lat="44.50862" lon="2.87654">
        <ele>444.2</ele>
        <time>2022-07-12T07:39:36Z</time>
      </trkpt>
      <trkpt lat="44.5086" lon="2.87656">
        <ele>444.4</ele>
        <time>2022-07-12T07:39:38Z</time>
      </trkpt>
      <trkpt lat="44.50858" lon="2.87657">
        <ele>444.4</ele>
        <time>2022-07-12T07:39:39Z</time>
      </trkpt>
      <trkpt lat="44.50856" lon="2.8766">
        <ele>445</ele>
        <time>2022-07-12T07:39:41Z</time>
      </trkpt>
      <trkpt lat="44.50851" lon="2.87665">
        <ele>445.6</ele>
        <time>2022-07-12T07:39:45Z</time>
      </trkpt>
      <trkpt lat="44.50846" lon="2.87667">
        <ele>446</ele>
        <time>2022-07-12T07:39:48Z</time>
      </trkpt>
      <trkpt lat="44.50845" lon="2.87667">
        <ele>446</ele>
        <time>2022-07-12T07:39:49Z</time>
      </trkpt>
      <trkpt lat="44.50841" lon="2.8767">
        <ele>446.2</ele>
        <time>2022-07-12T07:39:52Z</time>
      </trkpt>
      <trkpt lat="44.50837" lon="2.87674">
        <ele>447</ele>
        <time>2022-07-12T07:39:58Z</time>
      </trkpt>
      <trkpt lat="44.50834" lon="2.87675">
        <ele>447.2</ele>
        <time>2022-07-12T07:39:59Z</time>
      </trkpt>
      <trkpt lat="44.50825" lon="2.87677">
        <ele>447.6</ele>
        <time>2022-07-12T07:40:04Z</time>
      </trkpt>
      <trkpt lat="44.50821" lon="2.87679">
        <ele>447.8</ele>
        <time>2022-07-12T07:40:06Z</time>
      </trkpt>
      <trkpt lat="44.50817" lon="2.87681">
        <ele>448.2</ele>
        <time>2022-07-12T07:40:08Z</time>
      </trkpt>
      <trkpt lat="44.50816" lon="2.87681">
        <ele>448.6</ele>
        <time>2022-07-12T07:40:10Z</time>
      </trkpt>
      <trkpt lat="44.5081" lon="2.87683">
        <ele>448.6</ele>
        <time>2022-07-12T07:40:12Z</time>
      </trkpt>
      <trkpt lat="44.50793" lon="2.87689">
        <ele>449.2</ele>
        <time>2022-07-12T07:40:20Z</time>
      </trkpt>
      <trkpt lat="44.50775" lon="2.87698">
        <ele>449.6</ele>
        <time>2022-07-12T07:40:28Z</time>
      </trkpt>
      <trkpt lat="44.50766" lon="2.87702">
        <ele>450</ele>
        <time>2022-07-12T07:40:32Z</time>
      </trkpt>
      <trkpt lat="44.50765" lon="2.87703">
        <ele>450.2</ele>
        <time>2022-07-12T07:40:34Z</time>
      </trkpt>
      <trkpt lat="44.50765" lon="2.87703">
        <ele>450.2</ele>
        <time>2022-07-12T07:40:35Z</time>
      </trkpt>
      <trkpt lat="44.50762" lon="2.87706">
        <ele>450.4</ele>
        <time>2022-07-12T07:40:37Z</time>
      </trkpt>
      <trkpt lat="44.50754" lon="2.87709">
        <ele>450.8</ele>
        <time>2022-07-12T07:40:40Z</time>
      </trkpt>
      <trkpt lat="44.50747" lon="2.87713">
        <ele>451.2</ele>
        <time>2022-07-12T07:40:43Z</time>
      </trkpt>
      <trkpt lat="44.50745" lon="2.87713">
        <ele>451.2</ele>
        <time>2022-07-12T07:40:44Z</time>
      </trkpt>
      <trkpt lat="44.50742" lon="2.87714">
        <ele>451.4</ele>
        <time>2022-07-12T07:40:45Z</time>
      </trkpt>
      <trkpt lat="44.50739" lon="2.87716">
        <ele>451.6</ele>
        <time>2022-07-12T07:40:46Z</time>
      </trkpt>
      <trkpt lat="44.50733" lon="2.87719">
        <ele>451.8</ele>
        <time>2022-07-12T07:40:48Z</time>
      </trkpt>
      <trkpt lat="44.5072" lon="2.87724">
        <ele>452</ele>
        <time>2022-07-12T07:40:52Z</time>
      </trkpt>
      <trkpt lat="44.50709" lon="2.87728">
        <ele>452.6</ele>
        <time>2022-07-12T07:40:56Z</time>
      </trkpt>
      <trkpt lat="44.507" lon="2.8773">
        <ele>452.6</ele>
        <time>2022-07-12T07:40:58Z</time>
      </trkpt>
      <trkpt lat="44.50676" lon="2.87726">
        <ele>452.8</ele>
        <time>2022-07-12T07:41:04Z</time>
      </trkpt>
      <trkpt lat="44.50652" lon="2.87714">
        <ele>452.6</ele>
        <time>2022-07-12T07:41:11Z</time>
      </trkpt>
      <trkpt lat="44.50638" lon="2.87692">
        <ele>452.6</ele>
        <time>2022-07-12T07:41:17Z</time>
      </trkpt>
      <trkpt lat="44.50633" lon="2.87669">
        <ele>452.4</ele>
        <time>2022-07-12T07:41:22Z</time>
      </trkpt>
      <trkpt lat="44.50631" lon="2.87635">
        <ele>452.2</ele>
        <time>2022-07-12T07:41:29Z</time>
      </trkpt>
      <trkpt lat="44.50622" lon="2.87599">
        <ele>451.8</ele>
        <time>2022-07-12T07:41:36Z</time>
      </trkpt>
      <trkpt lat="44.50602" lon="2.87579">
        <ele>451.8</ele>
        <time>2022-07-12T07:41:42Z</time>
      </trkpt>
      <trkpt lat="44.50577" lon="2.87573">
        <ele>451.4</ele>
        <time>2022-07-12T07:41:47Z</time>
      </trkpt>
      <trkpt lat="44.50572" lon="2.87573">
        <ele>451.4</ele>
        <time>2022-07-12T07:41:48Z</time>
      </trkpt>
      <trkpt lat="44.50555" lon="2.87575">
        <ele>450.8</ele>
        <time>2022-07-12T07:41:51Z</time>
      </trkpt>
      <trkpt lat="44.50545" lon="2.87575">
        <ele>450.6</ele>
        <time>2022-07-12T07:41:53Z</time>
      </trkpt>
      <trkpt lat="44.5054" lon="2.87575">
        <ele>450.4</ele>
        <time>2022-07-12T07:41:54Z</time>
      </trkpt>
      <trkpt lat="44.50531" lon="2.87577">
        <ele>450.2</ele>
        <time>2022-07-12T07:41:56Z</time>
      </trkpt>
      <trkpt lat="44.50526" lon="2.87578">
        <ele>450.2</ele>
        <time>2022-07-12T07:41:57Z</time>
      </trkpt>
      <trkpt lat="44.50507" lon="2.87587">
        <ele>450.2</ele>
        <time>2022-07-12T07:42:02Z</time>
      </trkpt>
      <trkpt lat="44.50489" lon="2.87594">
        <ele>450.4</ele>
        <time>2022-07-12T07:42:07Z</time>
      </trkpt>
      <trkpt lat="44.50462" lon="2.87601">
        <ele>450.8</ele>
        <time>2022-07-12T07:42:15Z</time>
      </trkpt>
      <trkpt lat="44.50449" lon="2.87608">
        <ele>451.4</ele>
        <time>2022-07-12T07:42:20Z</time>
      </trkpt>
      <trkpt lat="44.50444" lon="2.87613">
        <ele>451.8</ele>
        <time>2022-07-12T07:42:22Z</time>
      </trkpt>
      <trkpt lat="44.50432" lon="2.87623">
        <ele>452.6</ele>
        <time>2022-07-12T07:42:26Z</time>
      </trkpt>
      <trkpt lat="44.50423" lon="2.87629">
        <ele>453</ele>
        <time>2022-07-12T07:42:29Z</time>
      </trkpt>
      <trkpt lat="44.5041" lon="2.87637">
        <ele>453.2</ele>
        <time>2022-07-12T07:42:33Z</time>
      </trkpt>
      <trkpt lat="44.50394" lon="2.8765">
        <ele>453.4</ele>
        <time>2022-07-12T07:42:39Z</time>
      </trkpt>
      <trkpt lat="44.50378" lon="2.87671">
        <ele>454</ele>
        <time>2022-07-12T07:42:45Z</time>
      </trkpt>
      <trkpt lat="44.50363" lon="2.8769">
        <ele>454.4</ele>
        <time>2022-07-12T07:42:51Z</time>
      </trkpt>
      <trkpt lat="44.50343" lon="2.87704">
        <ele>454.6</ele>
        <time>2022-07-12T07:42:56Z</time>
      </trkpt>
      <trkpt lat="44.50332" lon="2.87718">
        <ele>454.6</ele>
        <time>2022-07-12T07:43:01Z</time>
      </trkpt>
      <trkpt lat="44.50327" lon="2.87721">
        <ele>454.8</ele>
        <time>2022-07-12T07:43:04Z</time>
      </trkpt>
      <trkpt lat="44.50324" lon="2.87722">
        <ele>454.8</ele>
        <time>2022-07-12T07:43:05Z</time>
      </trkpt>
      <trkpt lat="44.50318" lon="2.87723">
        <ele>454.8</ele>
        <time>2022-07-12T07:43:07Z</time>
      </trkpt>
      <trkpt lat="44.50314" lon="2.87724">
        <ele>454.8</ele>
        <time>2022-07-12T07:43:09Z</time>
      </trkpt>
      <trkpt lat="44.50311" lon="2.87722">
        <ele>454.8</ele>
        <time>2022-07-12T07:43:11Z</time>
      </trkpt>
      <trkpt lat="44.50305" lon="2.8772">
        <ele>454.8</ele>
        <time>2022-07-12T07:43:13Z</time>
      </trkpt>
      <trkpt lat="44.50299" lon="2.87721">
        <ele>454.6</ele>
        <time>2022-07-12T07:43:14Z</time>
      </trkpt>
      <trkpt lat="44.50289" lon="2.87724">
        <ele>454.6</ele>
        <time>2022-07-12T07:43:16Z</time>
      </trkpt>
      <trkpt lat="44.50261" lon="2.87738">
        <ele>453.6</ele>
        <time>2022-07-12T07:43:21Z</time>
      </trkpt>
      <trkpt lat="44.50255" lon="2.87741">
        <ele>453.4</ele>
        <time>2022-07-12T07:43:22Z</time>
      </trkpt>
      <trkpt lat="44.50242" lon="2.87752">
        <ele>453</ele>
        <time>2022-07-12T07:43:24Z</time>
      </trkpt>
      <trkpt lat="44.5023" lon="2.8776">
        <ele>452.6</ele>
        <time>2022-07-12T07:43:26Z</time>
      </trkpt>
      <trkpt lat="44.50223" lon="2.87763">
        <ele>452.2</ele>
        <time>2022-07-12T07:43:28Z</time>
      </trkpt>
      <trkpt lat="44.50218" lon="2.87766">
        <ele>451.8</ele>
        <time>2022-07-12T07:43:29Z</time>
      </trkpt>
      <trkpt lat="44.50204" lon="2.87769">
        <ele>451.4</ele>
        <time>2022-07-12T07:43:31Z</time>
      </trkpt>
      <trkpt lat="44.50197" lon="2.87768">
        <ele>451</ele>
        <time>2022-07-12T07:43:32Z</time>
      </trkpt>
      <trkpt lat="44.50186" lon="2.87767">
        <ele>450.8</ele>
        <time>2022-07-12T07:43:33Z</time>
      </trkpt>
      <trkpt lat="44.50156" lon="2.87778">
        <ele>449.8</ele>
        <time>2022-07-12T07:43:37Z</time>
      </trkpt>
      <trkpt lat="44.50149" lon="2.87779">
        <ele>449</ele>
        <time>2022-07-12T07:43:38Z</time>
      </trkpt>
      <trkpt lat="44.50141" lon="2.87778">
        <ele>448</ele>
        <time>2022-07-12T07:43:39Z</time>
      </trkpt>
      <trkpt lat="44.50133" lon="2.87776">
        <ele>447.8</ele>
        <time>2022-07-12T07:43:40Z</time>
      </trkpt>
      <trkpt lat="44.50126" lon="2.87773">
        <ele>447.4</ele>
        <time>2022-07-12T07:43:41Z</time>
      </trkpt>
      <trkpt lat="44.50114" lon="2.8777">
        <ele>447</ele>
        <time>2022-07-12T07:43:43Z</time>
      </trkpt>
      <trkpt lat="44.50108" lon="2.87766">
        <ele>446.8</ele>
        <time>2022-07-12T07:43:44Z</time>
      </trkpt>
      <trkpt lat="44.50102" lon="2.87761">
        <ele>446.6</ele>
        <time>2022-07-12T07:43:45Z</time>
      </trkpt>
      <trkpt lat="44.50098" lon="2.87758">
        <ele>446.4</ele>
        <time>2022-07-12T07:43:47Z</time>
      </trkpt>
      <trkpt lat="44.50096" lon="2.87757">
        <ele>446</ele>
        <time>2022-07-12T07:43:48Z</time>
      </trkpt>
      <trkpt lat="44.50093" lon="2.87756">
        <ele>445.2</ele>
        <time>2022-07-12T07:43:50Z</time>
      </trkpt>
      <trkpt lat="44.50093" lon="2.87757">
        <ele>445</ele>
        <time>2022-07-12T07:43:51Z</time>
      </trkpt>
      <trkpt lat="44.50091" lon="2.8776">
        <ele>444</ele>
        <time>2022-07-12T07:43:53Z</time>
      </trkpt>
      <trkpt lat="44.50087" lon="2.87765">
        <ele>444</ele>
        <time>2022-07-12T07:43:54Z</time>
      </trkpt>
      <trkpt lat="44.50066" lon="2.87781">
        <ele>442.8</ele>
        <time>2022-07-12T07:43:56Z</time>
      </trkpt>
      <trkpt lat="44.50057" lon="2.87789">
        <ele>441.6</ele>
        <time>2022-07-12T07:43:57Z</time>
      </trkpt>
      <trkpt lat="44.50054" lon="2.87804">
        <ele>440.2</ele>
        <time>2022-07-12T07:44:00Z</time>
      </trkpt>
      <trkpt lat="44.50054" lon="2.87805">
        <ele>439.8</ele>
        <time>2022-07-12T07:44:02Z</time>
      </trkpt>
      <trkpt lat="44.50056" lon="2.87805">
        <ele>439.6</ele>
        <time>2022-07-12T07:44:03Z</time>
      </trkpt>
      <trkpt lat="44.50057" lon="2.87805">
        <ele>439.6</ele>
        <time>2022-07-12T07:44:04Z</time>
      </trkpt>
      <trkpt lat="44.50061" lon="2.87804">
        <ele>439.4</ele>
        <time>2022-07-12T07:44:08Z</time>
      </trkpt>
      <trkpt lat="44.50067" lon="2.87813">
        <ele>440.6</ele>
        <time>2022-07-12T07:44:14Z</time>
      </trkpt>
      <trkpt lat="44.50069" lon="2.87816">
        <ele>441.2</ele>
        <time>2022-07-12T07:44:16Z</time>
      </trkpt>
      <trkpt lat="44.50077" lon="2.87826">
        <ele>442</ele>
        <time>2022-07-12T07:44:21Z</time>
      </trkpt>
      <trkpt lat="44.50078" lon="2.87827">
        <ele>442.4</ele>
        <time>2022-07-12T07:44:22Z</time>
      </trkpt>
      <trkpt lat="44.50081" lon="2.8783">
        <ele>442.6</ele>
        <time>2022-07-12T07:44:23Z</time>
      </trkpt>
      <trkpt lat="44.50095" lon="2.87844">
        <ele>442.8</ele>
        <time>2022-07-12T07:44:27Z</time>
      </trkpt>
      <trkpt lat="44.50113" lon="2.87869">
        <ele>442.6</ele>
        <time>2022-07-12T07:44:33Z</time>
      </trkpt>
      <trkpt lat="44.5012" lon="2.87876">
        <ele>442.6</ele>
        <time>2022-07-12T07:44:35Z</time>
      </trkpt>
      <trkpt lat="44.50126" lon="2.87884">
        <ele>442.4</ele>
        <time>2022-07-12T07:44:37Z</time>
      </trkpt>
      <trkpt lat="44.50134" lon="2.87889">
        <ele>442</ele>
        <time>2022-07-12T07:44:39Z</time>
      </trkpt>
      <trkpt lat="44.50149" lon="2.87895">
        <ele>441.4</ele>
        <time>2022-07-12T07:44:41Z</time>
      </trkpt>
      <trkpt lat="44.50166" lon="2.87903">
        <ele>441</ele>
        <time>2022-07-12T07:44:43Z</time>
      </trkpt>
      <trkpt lat="44.50179" lon="2.87912">
        <ele>440.2</ele>
        <time>2022-07-12T07:44:45Z</time>
      </trkpt>
      <trkpt lat="44.50188" lon="2.87917">
        <ele>439.2</ele>
        <time>2022-07-12T07:44:46Z</time>
      </trkpt>
      <trkpt lat="44.50203" lon="2.8793">
        <ele>437.8</ele>
        <time>2022-07-12T07:44:48Z</time>
      </trkpt>
      <trkpt lat="44.50219" lon="2.87944">
        <ele>436.6</ele>
        <time>2022-07-12T07:44:50Z</time>
      </trkpt>
      <trkpt lat="44.50231" lon="2.87955">
        <ele>436.2</ele>
        <time>2022-07-12T07:44:52Z</time>
      </trkpt>
      <trkpt lat="44.50245" lon="2.87964">
        <ele>435.8</ele>
        <time>2022-07-12T07:44:54Z</time>
      </trkpt>
      <trkpt lat="44.50256" lon="2.87971">
        <ele>435.6</ele>
        <time>2022-07-12T07:44:56Z</time>
      </trkpt>
      <trkpt lat="44.50266" lon="2.87981">
        <ele>435.2</ele>
        <time>2022-07-12T07:44:58Z</time>
      </trkpt>
      <trkpt lat="44.5027" lon="2.87987">
        <ele>435</ele>
        <time>2022-07-12T07:44:59Z</time>
      </trkpt>
      <trkpt lat="44.5027" lon="2.88002">
        <ele>434.6</ele>
        <time>2022-07-12T07:45:01Z</time>
      </trkpt>
      <trkpt lat="44.5027" lon="2.88013">
        <ele>434.4</ele>
        <time>2022-07-12T07:45:02Z</time>
      </trkpt>
      <trkpt lat="44.50268" lon="2.88024">
        <ele>434.2</ele>
        <time>2022-07-12T07:45:03Z</time>
      </trkpt>
      <trkpt lat="44.50265" lon="2.88036">
        <ele>433.6</ele>
        <time>2022-07-12T07:45:04Z</time>
      </trkpt>
      <trkpt lat="44.50265" lon="2.88049">
        <ele>433.2</ele>
        <time>2022-07-12T07:45:05Z</time>
      </trkpt>
      <trkpt lat="44.50264" lon="2.88075">
        <ele>432.2</ele>
        <time>2022-07-12T07:45:07Z</time>
      </trkpt>
      <trkpt lat="44.50261" lon="2.8809">
        <ele>431.6</ele>
        <time>2022-07-12T07:45:08Z</time>
      </trkpt>
      <trkpt lat="44.50262" lon="2.88116">
        <ele>430.4</ele>
        <time>2022-07-12T07:45:10Z</time>
      </trkpt>
      <trkpt lat="44.50263" lon="2.88129">
        <ele>429.4</ele>
        <time>2022-07-12T07:45:11Z</time>
      </trkpt>
      <trkpt lat="44.50262" lon="2.88139">
        <ele>428.8</ele>
        <time>2022-07-12T07:45:12Z</time>
      </trkpt>
      <trkpt lat="44.50262" lon="2.88149">
        <ele>428.4</ele>
        <time>2022-07-12T07:45:13Z</time>
      </trkpt>
      <trkpt lat="44.50264" lon="2.88159">
        <ele>428</ele>
        <time>2022-07-12T07:45:14Z</time>
      </trkpt>
      <trkpt lat="44.50265" lon="2.8818">
        <ele>426.8</ele>
        <time>2022-07-12T07:45:16Z</time>
      </trkpt>
      <trkpt lat="44.50263" lon="2.8819">
        <ele>426.6</ele>
        <time>2022-07-12T07:45:17Z</time>
      </trkpt>
      <trkpt lat="44.50262" lon="2.882">
        <ele>426.2</ele>
        <time>2022-07-12T07:45:18Z</time>
      </trkpt>
      <trkpt lat="44.50259" lon="2.8821">
        <ele>426</ele>
        <time>2022-07-12T07:45:19Z</time>
      </trkpt>
      <trkpt lat="44.50257" lon="2.88231">
        <ele>425.6</ele>
        <time>2022-07-12T07:45:21Z</time>
      </trkpt>
      <trkpt lat="44.50258" lon="2.8824">
        <ele>425.6</ele>
        <time>2022-07-12T07:45:22Z</time>
      </trkpt>
      <trkpt lat="44.50255" lon="2.88265">
        <ele>425.6</ele>
        <time>2022-07-12T07:45:25Z</time>
      </trkpt>
      <trkpt lat="44.50254" lon="2.88272">
        <ele>425.6</ele>
        <time>2022-07-12T07:45:26Z</time>
      </trkpt>
      <trkpt lat="44.50255" lon="2.88277">
        <ele>425.6</ele>
        <time>2022-07-12T07:45:27Z</time>
      </trkpt>
      <trkpt lat="44.50259" lon="2.88282">
        <ele>425.6</ele>
        <time>2022-07-12T07:45:28Z</time>
      </trkpt>
      <trkpt lat="44.50287" lon="2.88298">
        <ele>425.8</ele>
        <time>2022-07-12T07:45:32Z</time>
      </trkpt>
      <trkpt lat="44.50294" lon="2.88308">
        <ele>426</ele>
        <time>2022-07-12T07:45:34Z</time>
      </trkpt>
      <trkpt lat="44.50305" lon="2.88319">
        <ele>426.2</ele>
        <time>2022-07-12T07:45:37Z</time>
      </trkpt>
      <trkpt lat="44.50319" lon="2.88335">
        <ele>426.2</ele>
        <time>2022-07-12T07:45:40Z</time>
      </trkpt>
      <trkpt lat="44.50319" lon="2.88341">
        <ele>426.2</ele>
        <time>2022-07-12T07:45:41Z</time>
      </trkpt>
      <trkpt lat="44.50322" lon="2.88346">
        <ele>426.2</ele>
        <time>2022-07-12T07:45:42Z</time>
      </trkpt>
      <trkpt lat="44.50328" lon="2.88355">
        <ele>426.4</ele>
        <time>2022-07-12T07:45:44Z</time>
      </trkpt>
      <trkpt lat="44.50337" lon="2.88363">
        <ele>426.6</ele>
        <time>2022-07-12T07:45:46Z</time>
      </trkpt>
      <trkpt lat="44.50334" lon="2.88374">
        <ele>426.8</ele>
        <time>2022-07-12T07:45:48Z</time>
      </trkpt>
      <trkpt lat="44.50328" lon="2.88388">
        <ele>427</ele>
        <time>2022-07-12T07:45:51Z</time>
      </trkpt>
      <trkpt lat="44.50325" lon="2.88393">
        <ele>427</ele>
        <time>2022-07-12T07:45:52Z</time>
      </trkpt>
      <trkpt lat="44.50319" lon="2.88403">
        <ele>427.2</ele>
        <time>2022-07-12T07:45:54Z</time>
      </trkpt>
      <trkpt lat="44.50314" lon="2.88408">
        <ele>427.4</ele>
        <time>2022-07-12T07:45:56Z</time>
      </trkpt>
      <trkpt lat="44.50305" lon="2.88413">
        <ele>427.4</ele>
        <time>2022-07-12T07:45:59Z</time>
      </trkpt>
      <trkpt lat="44.50299" lon="2.88411">
        <ele>427.2</ele>
        <time>2022-07-12T07:46:01Z</time>
      </trkpt>
      <trkpt lat="44.5028" lon="2.88413">
        <ele>426.6</ele>
        <time>2022-07-12T07:46:06Z</time>
      </trkpt>
      <trkpt lat="44.50262" lon="2.8843">
        <ele>425.2</ele>
        <time>2022-07-12T07:46:09Z</time>
      </trkpt>
      <trkpt lat="44.50257" lon="2.88436">
        <ele>424.8</ele>
        <time>2022-07-12T07:46:10Z</time>
      </trkpt>
      <trkpt lat="44.50239" lon="2.88453">
        <ele>424</ele>
        <time>2022-07-12T07:46:12Z</time>
      </trkpt>
      <trkpt lat="44.50231" lon="2.88467">
        <ele>423.6</ele>
        <time>2022-07-12T07:46:14Z</time>
      </trkpt>
      <trkpt lat="44.50227" lon="2.88474">
        <ele>423.6</ele>
        <time>2022-07-12T07:46:15Z</time>
      </trkpt>
      <trkpt lat="44.50211" lon="2.88486">
        <ele>423.2</ele>
        <time>2022-07-12T07:46:18Z</time>
      </trkpt>
      <trkpt lat="44.50205" lon="2.88488">
        <ele>423</ele>
        <time>2022-07-12T07:46:19Z</time>
      </trkpt>
      <trkpt lat="44.50189" lon="2.88491">
        <ele>422.6</ele>
        <time>2022-07-12T07:46:22Z</time>
      </trkpt>
      <trkpt lat="44.50155" lon="2.88502">
        <ele>422</ele>
        <time>2022-07-12T07:46:28Z</time>
      </trkpt>
      <trkpt lat="44.50151" lon="2.88503">
        <ele>422</ele>
        <time>2022-07-12T07:46:29Z</time>
      </trkpt>
      <trkpt lat="44.50138" lon="2.88508">
        <ele>422</ele>
        <time>2022-07-12T07:46:34Z</time>
      </trkpt>
      <trkpt lat="44.50127" lon="2.88517">
        <ele>422.6</ele>
        <time>2022-07-12T07:46:39Z</time>
      </trkpt>
      <trkpt lat="44.50123" lon="2.88526">
        <ele>423.2</ele>
        <time>2022-07-12T07:46:42Z</time>
      </trkpt>
      <trkpt lat="44.50121" lon="2.88535">
        <ele>423.4</ele>
        <time>2022-07-12T07:46:44Z</time>
      </trkpt>
      <trkpt lat="44.50114" lon="2.88551">
        <ele>424.2</ele>
        <time>2022-07-12T07:46:47Z</time>
      </trkpt>
      <trkpt lat="44.50109" lon="2.88559">
        <ele>424.4</ele>
        <time>2022-07-12T07:46:49Z</time>
      </trkpt>
      <trkpt lat="44.50088" lon="2.8858">
        <ele>424.8</ele>
        <time>2022-07-12T07:46:55Z</time>
      </trkpt>
      <trkpt lat="44.50064" lon="2.88595">
        <ele>424</ele>
        <time>2022-07-12T07:47:00Z</time>
      </trkpt>
      <trkpt lat="44.5005" lon="2.88607">
        <ele>422.8</ele>
        <time>2022-07-12T07:47:03Z</time>
      </trkpt>
      <trkpt lat="44.50038" lon="2.88617">
        <ele>422.2</ele>
        <time>2022-07-12T07:47:06Z</time>
      </trkpt>
      <trkpt lat="44.5003" lon="2.88624">
        <ele>421.8</ele>
        <time>2022-07-12T07:47:08Z</time>
      </trkpt>
      <trkpt lat="44.50021" lon="2.8863">
        <ele>421.8</ele>
        <time>2022-07-12T07:47:11Z</time>
      </trkpt>
      <trkpt lat="44.49998" lon="2.88638">
        <ele>421.6</ele>
        <time>2022-07-12T07:47:16Z</time>
      </trkpt>
      <trkpt lat="44.49982" lon="2.88639">
        <ele>421.4</ele>
        <time>2022-07-12T07:47:19Z</time>
      </trkpt>
      <trkpt lat="44.49972" lon="2.88638">
        <ele>421.2</ele>
        <time>2022-07-12T07:47:21Z</time>
      </trkpt>
      <trkpt lat="44.49962" lon="2.88636">
        <ele>421</ele>
        <time>2022-07-12T07:47:23Z</time>
      </trkpt>
      <trkpt lat="44.49956" lon="2.88636">
        <ele>420.8</ele>
        <time>2022-07-12T07:47:24Z</time>
      </trkpt>
      <trkpt lat="44.49947" lon="2.88634">
        <ele>420.6</ele>
        <time>2022-07-12T07:47:26Z</time>
      </trkpt>
      <trkpt lat="44.49935" lon="2.8863">
        <ele>420.4</ele>
        <time>2022-07-12T07:47:31Z</time>
      </trkpt>
      <trkpt lat="44.4993" lon="2.88632">
        <ele>420.4</ele>
        <time>2022-07-12T07:47:33Z</time>
      </trkpt>
      <trkpt lat="44.49926" lon="2.88637">
        <ele>420.4</ele>
        <time>2022-07-12T07:47:35Z</time>
      </trkpt>
      <trkpt lat="44.4991" lon="2.8865">
        <ele>422</ele>
        <time>2022-07-12T07:47:42Z</time>
      </trkpt>
      <trkpt lat="44.49903" lon="2.88657">
        <ele>422.6</ele>
        <time>2022-07-12T07:47:47Z</time>
      </trkpt>
      <trkpt lat="44.49901" lon="2.88657">
        <ele>422.8</ele>
        <time>2022-07-12T07:47:48Z</time>
      </trkpt>
      <trkpt lat="44.49894" lon="2.88659">
        <ele>423</ele>
        <time>2022-07-12T07:47:50Z</time>
      </trkpt>
      <trkpt lat="44.49892" lon="2.8866">
        <ele>423.2</ele>
        <time>2022-07-12T07:47:51Z</time>
      </trkpt>
      <trkpt lat="44.49885" lon="2.88659">
        <ele>423.6</ele>
        <time>2022-07-12T07:47:54Z</time>
      </trkpt>
      <trkpt lat="44.49877" lon="2.88659">
        <ele>424.4</ele>
        <time>2022-07-12T07:47:58Z</time>
      </trkpt>
      <trkpt lat="44.49873" lon="2.88659">
        <ele>424.8</ele>
        <time>2022-07-12T07:48:02Z</time>
      </trkpt>
      <trkpt lat="44.49867" lon="2.88661">
        <ele>425.4</ele>
        <time>2022-07-12T07:48:05Z</time>
      </trkpt>
      <trkpt lat="44.49865" lon="2.88661">
        <ele>425.6</ele>
        <time>2022-07-12T07:48:07Z</time>
      </trkpt>
      <trkpt lat="44.49856" lon="2.88662">
        <ele>426.2</ele>
        <time>2022-07-12T07:48:11Z</time>
      </trkpt>
      <trkpt lat="44.49854" lon="2.88662">
        <ele>426.4</ele>
        <time>2022-07-12T07:48:13Z</time>
      </trkpt>
      <trkpt lat="44.49844" lon="2.88661">
        <ele>426.8</ele>
        <time>2022-07-12T07:48:17Z</time>
      </trkpt>
      <trkpt lat="44.49842" lon="2.88659">
        <ele>426.8</ele>
        <time>2022-07-12T07:48:18Z</time>
      </trkpt>
      <trkpt lat="44.49831" lon="2.88659">
        <ele>427.4</ele>
        <time>2022-07-12T07:48:22Z</time>
      </trkpt>
      <trkpt lat="44.49829" lon="2.88659">
        <ele>427.6</ele>
        <time>2022-07-12T07:48:23Z</time>
      </trkpt>
      <trkpt lat="44.49827" lon="2.88661">
        <ele>427.6</ele>
        <time>2022-07-12T07:48:24Z</time>
      </trkpt>
      <trkpt lat="44.49821" lon="2.88661">
        <ele>428</ele>
        <time>2022-07-12T07:48:28Z</time>
      </trkpt>
      <trkpt lat="44.49811" lon="2.88664">
        <ele>428.6</ele>
        <time>2022-07-12T07:48:33Z</time>
      </trkpt>
      <trkpt lat="44.49807" lon="2.88665">
        <ele>428.8</ele>
        <time>2022-07-12T07:48:35Z</time>
      </trkpt>
      <trkpt lat="44.49795" lon="2.88667">
        <ele>429.6</ele>
        <time>2022-07-12T07:48:40Z</time>
      </trkpt>
      <trkpt lat="44.49794" lon="2.88666">
        <ele>429.6</ele>
        <time>2022-07-12T07:48:41Z</time>
      </trkpt>
      <trkpt lat="44.49791" lon="2.88665">
        <ele>429.8</ele>
        <time>2022-07-12T07:48:42Z</time>
      </trkpt>
      <trkpt lat="44.4978" lon="2.88665">
        <ele>430.2</ele>
        <time>2022-07-12T07:48:46Z</time>
      </trkpt>
      <trkpt lat="44.49769" lon="2.88664">
        <ele>430.8</ele>
        <time>2022-07-12T07:48:49Z</time>
      </trkpt>
      <trkpt lat="44.49766" lon="2.88665">
        <ele>431</ele>
        <time>2022-07-12T07:48:50Z</time>
      </trkpt>
      <trkpt lat="44.49759" lon="2.88663">
        <ele>431.4</ele>
        <time>2022-07-12T07:48:53Z</time>
      </trkpt>
      <trkpt lat="44.49754" lon="2.88659">
        <ele>431.8</ele>
        <time>2022-07-12T07:48:56Z</time>
      </trkpt>
      <trkpt lat="44.49753" lon="2.88659">
        <ele>432</ele>
        <time>2022-07-12T07:48:58Z</time>
      </trkpt>
      <trkpt lat="44.49745" lon="2.8866">
        <ele>432.4</ele>
        <time>2022-07-12T07:49:02Z</time>
      </trkpt>
      <trkpt lat="44.49743" lon="2.8866">
        <ele>432.6</ele>
        <time>2022-07-12T07:49:05Z</time>
      </trkpt>
      <trkpt lat="44.49741" lon="2.88659">
        <ele>432.8</ele>
        <time>2022-07-12T07:49:06Z</time>
      </trkpt>
      <trkpt lat="44.49739" lon="2.88659">
        <ele>433.2</ele>
        <time>2022-07-12T07:49:08Z</time>
      </trkpt>
      <trkpt lat="44.49734" lon="2.88658">
        <ele>433.8</ele>
        <time>2022-07-12T07:49:11Z</time>
      </trkpt>
      <trkpt lat="44.49731" lon="2.88658">
        <ele>433.8</ele>
        <time>2022-07-12T07:49:12Z</time>
      </trkpt>
      <trkpt lat="44.49728" lon="2.88659">
        <ele>434</ele>
        <time>2022-07-12T07:49:13Z</time>
      </trkpt>
      <trkpt lat="44.49718" lon="2.8866">
        <ele>434.8</ele>
        <time>2022-07-12T07:49:19Z</time>
      </trkpt>
      <trkpt lat="44.49716" lon="2.88659">
        <ele>435.4</ele>
        <time>2022-07-12T07:49:21Z</time>
      </trkpt>
      <trkpt lat="44.49708" lon="2.88661">
        <ele>436</ele>
        <time>2022-07-12T07:49:25Z</time>
      </trkpt>
      <trkpt lat="44.49694" lon="2.88664">
        <ele>437</ele>
        <time>2022-07-12T07:49:31Z</time>
      </trkpt>
      <trkpt lat="44.49687" lon="2.88664">
        <ele>437.4</ele>
        <time>2022-07-12T07:49:33Z</time>
      </trkpt>
      <trkpt lat="44.4968" lon="2.88663">
        <ele>438</ele>
        <time>2022-07-12T07:49:37Z</time>
      </trkpt>
      <trkpt lat="44.49675" lon="2.88661">
        <ele>438.4</ele>
        <time>2022-07-12T07:49:40Z</time>
      </trkpt>
      <trkpt lat="44.4967" lon="2.88658">
        <ele>438.6</ele>
        <time>2022-07-12T07:49:42Z</time>
      </trkpt>
      <trkpt lat="44.49666" lon="2.88657">
        <ele>439.2</ele>
        <time>2022-07-12T07:49:43Z</time>
      </trkpt>
      <trkpt lat="44.49662" lon="2.88654">
        <ele>439.4</ele>
        <time>2022-07-12T07:49:45Z</time>
      </trkpt>
      <trkpt lat="44.49662" lon="2.88654">
        <ele>439.6</ele>
        <time>2022-07-12T07:49:50Z</time>
      </trkpt>
      <trkpt lat="44.49656" lon="2.88653">
        <ele>439.8</ele>
        <time>2022-07-12T07:49:53Z</time>
      </trkpt>
      <trkpt lat="44.49647" lon="2.88656">
        <ele>440.4</ele>
        <time>2022-07-12T07:49:55Z</time>
      </trkpt>
      <trkpt lat="44.49644" lon="2.88656">
        <ele>440.4</ele>
        <time>2022-07-12T07:49:56Z</time>
      </trkpt>
      <trkpt lat="44.49643" lon="2.88656">
        <ele>440.8</ele>
        <time>2022-07-12T07:49:58Z</time>
      </trkpt>
      <trkpt lat="44.49641" lon="2.88656">
        <ele>441.4</ele>
        <time>2022-07-12T07:50:01Z</time>
      </trkpt>
      <trkpt lat="44.49641" lon="2.88656">
        <ele>441.6</ele>
        <time>2022-07-12T07:50:02Z</time>
      </trkpt>
      <trkpt lat="44.49636" lon="2.88657">
        <ele>441.8</ele>
        <time>2022-07-12T07:50:04Z</time>
      </trkpt>
      <trkpt lat="44.49631" lon="2.88655">
        <ele>442</ele>
        <time>2022-07-12T07:50:06Z</time>
      </trkpt>
      <trkpt lat="44.49627" lon="2.88656">
        <ele>442</ele>
        <time>2022-07-12T07:50:07Z</time>
      </trkpt>
      <trkpt lat="44.49606" lon="2.88661">
        <ele>442.4</ele>
        <time>2022-07-12T07:50:13Z</time>
      </trkpt>
      <trkpt lat="44.49602" lon="2.88662">
        <ele>442.4</ele>
        <time>2022-07-12T07:50:14Z</time>
      </trkpt>
      <trkpt lat="44.49589" lon="2.88664">
        <ele>443.4</ele>
        <time>2022-07-12T07:50:21Z</time>
      </trkpt>
      <trkpt lat="44.49584" lon="2.88665">
        <ele>444.6</ele>
        <time>2022-07-12T07:50:27Z</time>
      </trkpt>
      <trkpt lat="44.49575" lon="2.88667">
        <ele>445</ele>
        <time>2022-07-12T07:50:29Z</time>
      </trkpt>
      <trkpt lat="44.49563" lon="2.8867">
        <ele>445.2</ele>
        <time>2022-07-12T07:50:31Z</time>
      </trkpt>
      <trkpt lat="44.49559" lon="2.88668">
        <ele>445.4</ele>
        <time>2022-07-12T07:50:33Z</time>
      </trkpt>
      <trkpt lat="44.49546" lon="2.88668">
        <ele>445.6</ele>
        <time>2022-07-12T07:50:35Z</time>
      </trkpt>
      <trkpt lat="44.49541" lon="2.88669">
        <ele>445.6</ele>
        <time>2022-07-12T07:50:36Z</time>
      </trkpt>
      <trkpt lat="44.49528" lon="2.88668">
        <ele>445.8</ele>
        <time>2022-07-12T07:50:39Z</time>
      </trkpt>
      <trkpt lat="44.49519" lon="2.88666">
        <ele>445.8</ele>
        <time>2022-07-12T07:50:41Z</time>
      </trkpt>
      <trkpt lat="44.49491" lon="2.8866">
        <ele>447.2</ele>
        <time>2022-07-12T07:50:48Z</time>
      </trkpt>
      <trkpt lat="44.49486" lon="2.8866">
        <ele>447.2</ele>
        <time>2022-07-12T07:50:49Z</time>
      </trkpt>
      <trkpt lat="44.49477" lon="2.8865">
        <ele>447.6</ele>
        <time>2022-07-12T07:50:54Z</time>
      </trkpt>
      <trkpt lat="44.49469" lon="2.88648">
        <ele>448</ele>
        <time>2022-07-12T07:50:57Z</time>
      </trkpt>
      <trkpt lat="44.49466" lon="2.88643">
        <ele>448.4</ele>
        <time>2022-07-12T07:50:59Z</time>
      </trkpt>
      <trkpt lat="44.49462" lon="2.88643">
        <ele>448.4</ele>
        <time>2022-07-12T07:51:00Z</time>
      </trkpt>
      <trkpt lat="44.49453" lon="2.8863">
        <ele>449</ele>
        <time>2022-07-12T07:51:06Z</time>
      </trkpt>
      <trkpt lat="44.49451" lon="2.88632">
        <ele>449.2</ele>
        <time>2022-07-12T07:51:07Z</time>
      </trkpt>
      <trkpt lat="44.49451" lon="2.88632">
        <ele>449.4</ele>
        <time>2022-07-12T07:51:08Z</time>
      </trkpt>
      <trkpt lat="44.49446" lon="2.88626">
        <ele>449.8</ele>
        <time>2022-07-12T07:51:11Z</time>
      </trkpt>
      <trkpt lat="44.49445" lon="2.88625">
        <ele>450</ele>
        <time>2022-07-12T07:51:12Z</time>
      </trkpt>
      <trkpt lat="44.4944" lon="2.88622">
        <ele>450.4</ele>
        <time>2022-07-12T07:51:14Z</time>
      </trkpt>
      <trkpt lat="44.49435" lon="2.88615">
        <ele>450.8</ele>
        <time>2022-07-12T07:51:17Z</time>
      </trkpt>
      <trkpt lat="44.4943" lon="2.88614">
        <ele>451.2</ele>
        <time>2022-07-12T07:51:20Z</time>
      </trkpt>
      <trkpt lat="44.49429" lon="2.88608">
        <ele>451.4</ele>
        <time>2022-07-12T07:51:22Z</time>
      </trkpt>
      <trkpt lat="44.49427" lon="2.88608">
        <ele>451.8</ele>
        <time>2022-07-12T07:51:23Z</time>
      </trkpt>
      <trkpt lat="44.49422" lon="2.88604">
        <ele>452.6</ele>
        <time>2022-07-12T07:51:27Z</time>
      </trkpt>
      <trkpt lat="44.49419" lon="2.88602">
        <ele>453</ele>
        <time>2022-07-12T07:51:29Z</time>
      </trkpt>
      <trkpt lat="44.49418" lon="2.886">
        <ele>453.2</ele>
        <time>2022-07-12T07:51:30Z</time>
      </trkpt>
      <trkpt lat="44.49416" lon="2.886">
        <ele>453.2</ele>
        <time>2022-07-12T07:51:31Z</time>
      </trkpt>
      <trkpt lat="44.49413" lon="2.88599">
        <ele>453.6</ele>
        <time>2022-07-12T07:51:33Z</time>
      </trkpt>
      <trkpt lat="44.49412" lon="2.88596">
        <ele>454</ele>
        <time>2022-07-12T07:51:35Z</time>
      </trkpt>
      <trkpt lat="44.49408" lon="2.88594">
        <ele>454.6</ele>
        <time>2022-07-12T07:51:38Z</time>
      </trkpt>
      <trkpt lat="44.49407" lon="2.88593">
        <ele>454.8</ele>
        <time>2022-07-12T07:51:39Z</time>
      </trkpt>
      <trkpt lat="44.49404" lon="2.88588">
        <ele>455</ele>
        <time>2022-07-12T07:51:41Z</time>
      </trkpt>
      <trkpt lat="44.49399" lon="2.8858">
        <ele>456</ele>
        <time>2022-07-12T07:51:46Z</time>
      </trkpt>
      <trkpt lat="44.49398" lon="2.88579">
        <ele>456.2</ele>
        <time>2022-07-12T07:51:48Z</time>
      </trkpt>
      <trkpt lat="44.49394" lon="2.88575">
        <ele>457</ele>
        <time>2022-07-12T07:51:52Z</time>
      </trkpt>
      <trkpt lat="44.49393" lon="2.88574">
        <ele>457.2</ele>
        <time>2022-07-12T07:51:53Z</time>
      </trkpt>
      <trkpt lat="44.49382" lon="2.88572">
        <ele>458.2</ele>
        <time>2022-07-12T07:51:58Z</time>
      </trkpt>
      <trkpt lat="44.49381" lon="2.88571">
        <ele>458.4</ele>
        <time>2022-07-12T07:51:59Z</time>
      </trkpt>
      <trkpt lat="44.49377" lon="2.88568">
        <ele>459.2</ele>
        <time>2022-07-12T07:52:04Z</time>
      </trkpt>
      <trkpt lat="44.49375" lon="2.88567">
        <ele>459.2</ele>
        <time>2022-07-12T07:52:05Z</time>
      </trkpt>
      <trkpt lat="44.49373" lon="2.88567">
        <ele>459.4</ele>
        <time>2022-07-12T07:52:06Z</time>
      </trkpt>
      <trkpt lat="44.49372" lon="2.88567">
        <ele>459.8</ele>
        <time>2022-07-12T07:52:08Z</time>
      </trkpt>
      <trkpt lat="44.49369" lon="2.88566">
        <ele>460</ele>
        <time>2022-07-12T07:52:10Z</time>
      </trkpt>
      <trkpt lat="44.49368" lon="2.88566">
        <ele>460</ele>
        <time>2022-07-12T07:52:12Z</time>
      </trkpt>
      <trkpt lat="44.49368" lon="2.88566">
        <ele>460.2</ele>
        <time>2022-07-12T07:52:13Z</time>
      </trkpt>
      <trkpt lat="44.49363" lon="2.88565">
        <ele>461</ele>
        <time>2022-07-12T07:52:18Z</time>
      </trkpt>
      <trkpt lat="44.49359" lon="2.88564">
        <ele>461.4</ele>
        <time>2022-07-12T07:52:20Z</time>
      </trkpt>
      <trkpt lat="44.4935" lon="2.88562">
        <ele>462</ele>
        <time>2022-07-12T07:52:24Z</time>
      </trkpt>
      <trkpt lat="44.4934" lon="2.88561">
        <ele>462.4</ele>
        <time>2022-07-12T07:52:28Z</time>
      </trkpt>
      <trkpt lat="44.49338" lon="2.88561">
        <ele>463</ele>
        <time>2022-07-12T07:52:31Z</time>
      </trkpt>
      <trkpt lat="44.49334" lon="2.8856">
        <ele>463.4</ele>
        <time>2022-07-12T07:52:35Z</time>
      </trkpt>
      <trkpt lat="44.49332" lon="2.8856">
        <ele>463.6</ele>
        <time>2022-07-12T07:52:37Z</time>
      </trkpt>
      <trkpt lat="44.49332" lon="2.88559">
        <ele>464</ele>
        <time>2022-07-12T07:52:40Z</time>
      </trkpt>
      <trkpt lat="44.49332" lon="2.88559">
        <ele>464.6</ele>
        <time>2022-07-12T07:52:42Z</time>
      </trkpt>
      <trkpt lat="44.49332" lon="2.88559">
        <ele>464.6</ele>
        <time>2022-07-12T07:52:43Z</time>
      </trkpt>
      <trkpt lat="44.49328" lon="2.88557">
        <ele>465</ele>
        <time>2022-07-12T07:52:46Z</time>
      </trkpt>
      <trkpt lat="44.49324" lon="2.88555">
        <ele>465.4</ele>
        <time>2022-07-12T07:52:49Z</time>
      </trkpt>
      <trkpt lat="44.49324" lon="2.88555">
        <ele>465.4</ele>
        <time>2022-07-12T07:52:51Z</time>
      </trkpt>
      <trkpt lat="44.49316" lon="2.88555">
        <ele>466</ele>
        <time>2022-07-12T07:52:55Z</time>
      </trkpt>
      <trkpt lat="44.49311" lon="2.88556">
        <ele>466.2</ele>
        <time>2022-07-12T07:52:57Z</time>
      </trkpt>
      <trkpt lat="44.4931" lon="2.88556">
        <ele>466.4</ele>
        <time>2022-07-12T07:52:58Z</time>
      </trkpt>
      <trkpt lat="44.49307" lon="2.88556">
        <ele>466.6</ele>
        <time>2022-07-12T07:52:59Z</time>
      </trkpt>
      <trkpt lat="44.49302" lon="2.88556">
        <ele>466.8</ele>
        <time>2022-07-12T07:53:01Z</time>
      </trkpt>
      <trkpt lat="44.49298" lon="2.88556">
        <ele>466.8</ele>
        <time>2022-07-12T07:53:02Z</time>
      </trkpt>
      <trkpt lat="44.49289" lon="2.88557">
        <ele>467.6</ele>
        <time>2022-07-12T07:53:05Z</time>
      </trkpt>
      <trkpt lat="44.49282" lon="2.88558">
        <ele>468</ele>
        <time>2022-07-12T07:53:07Z</time>
      </trkpt>
      <trkpt lat="44.49277" lon="2.88562">
        <ele>468.4</ele>
        <time>2022-07-12T07:53:09Z</time>
      </trkpt>
      <trkpt lat="44.4927" lon="2.88564">
        <ele>468.6</ele>
        <time>2022-07-12T07:53:11Z</time>
      </trkpt>
      <trkpt lat="44.49257" lon="2.88567">
        <ele>469.2</ele>
        <time>2022-07-12T07:53:15Z</time>
      </trkpt>
      <trkpt lat="44.49251" lon="2.88568">
        <ele>469.2</ele>
        <time>2022-07-12T07:53:17Z</time>
      </trkpt>
      <trkpt lat="44.4925" lon="2.88568">
        <ele>469.8</ele>
        <time>2022-07-12T07:53:19Z</time>
      </trkpt>
      <trkpt lat="44.49247" lon="2.88572">
        <ele>470</ele>
        <time>2022-07-12T07:53:21Z</time>
      </trkpt>
      <trkpt lat="44.49247" lon="2.88592">
        <ele>470</ele>
        <time>2022-07-12T07:53:25Z</time>
      </trkpt>
      <trkpt lat="44.49249" lon="2.88602">
        <ele>470</ele>
        <time>2022-07-12T07:53:27Z</time>
      </trkpt>
      <trkpt lat="44.49254" lon="2.88609">
        <ele>469.8</ele>
        <time>2022-07-12T07:53:29Z</time>
      </trkpt>
      <trkpt lat="44.49265" lon="2.88621">
        <ele>469.4</ele>
        <time>2022-07-12T07:53:33Z</time>
      </trkpt>
      <trkpt lat="44.49268" lon="2.88623">
        <ele>469.2</ele>
        <time>2022-07-12T07:53:34Z</time>
      </trkpt>
      <trkpt lat="44.4927" lon="2.88627">
        <ele>469.2</ele>
        <time>2022-07-12T07:53:35Z</time>
      </trkpt>
      <trkpt lat="44.49276" lon="2.88635">
        <ele>469</ele>
        <time>2022-07-12T07:53:37Z</time>
      </trkpt>
      <trkpt lat="44.4928" lon="2.88643">
        <ele>469</ele>
        <time>2022-07-12T07:53:39Z</time>
      </trkpt>
      <trkpt lat="44.49287" lon="2.88651">
        <ele>469</ele>
        <time>2022-07-12T07:53:41Z</time>
      </trkpt>
      <trkpt lat="44.49289" lon="2.88654">
        <ele>469</ele>
        <time>2022-07-12T07:53:42Z</time>
      </trkpt>
      <trkpt lat="44.49293" lon="2.88662">
        <ele>469</ele>
        <time>2022-07-12T07:53:44Z</time>
      </trkpt>
      <trkpt lat="44.49295" lon="2.88667">
        <ele>469</ele>
        <time>2022-07-12T07:53:46Z</time>
      </trkpt>
      <trkpt lat="44.49295" lon="2.88677">
        <ele>469</ele>
        <time>2022-07-12T07:53:51Z</time>
      </trkpt>
      <trkpt lat="44.49295" lon="2.88679">
        <ele>469</ele>
        <time>2022-07-12T07:53:52Z</time>
      </trkpt>
      <trkpt lat="44.49306" lon="2.8869">
        <ele>469.4</ele>
        <time>2022-07-12T07:53:56Z</time>
      </trkpt>
      <trkpt lat="44.4932" lon="2.88708">
        <ele>470</ele>
        <time>2022-07-12T07:54:00Z</time>
      </trkpt>
      <trkpt lat="44.49325" lon="2.88717">
        <ele>470.2</ele>
        <time>2022-07-12T07:54:03Z</time>
      </trkpt>
      <trkpt lat="44.4933" lon="2.88722">
        <ele>470.6</ele>
        <time>2022-07-12T07:54:05Z</time>
      </trkpt>
      <trkpt lat="44.49334" lon="2.88724">
        <ele>470.6</ele>
        <time>2022-07-12T07:54:06Z</time>
      </trkpt>
      <trkpt lat="44.49336" lon="2.88728">
        <ele>471</ele>
        <time>2022-07-12T07:54:07Z</time>
      </trkpt>
      <trkpt lat="44.49338" lon="2.88732">
        <ele>471.2</ele>
        <time>2022-07-12T07:54:08Z</time>
      </trkpt>
      <trkpt lat="44.49342" lon="2.88742">
        <ele>471.8</ele>
        <time>2022-07-12T07:54:10Z</time>
      </trkpt>
      <trkpt lat="44.49345" lon="2.88752">
        <ele>472.2</ele>
        <time>2022-07-12T07:54:12Z</time>
      </trkpt>
      <trkpt lat="44.49345" lon="2.88762">
        <ele>472.4</ele>
        <time>2022-07-12T07:54:14Z</time>
      </trkpt>
      <trkpt lat="44.49341" lon="2.88766">
        <ele>472.6</ele>
        <time>2022-07-12T07:54:16Z</time>
      </trkpt>
      <trkpt lat="44.4934" lon="2.88769">
        <ele>472.8</ele>
        <time>2022-07-12T07:54:17Z</time>
      </trkpt>
      <trkpt lat="44.49338" lon="2.88776">
        <ele>472.8</ele>
        <time>2022-07-12T07:54:19Z</time>
      </trkpt>
      <trkpt lat="44.49337" lon="2.88778">
        <ele>472.8</ele>
        <time>2022-07-12T07:54:20Z</time>
      </trkpt>
      <trkpt lat="44.49328" lon="2.88793">
        <ele>473</ele>
        <time>2022-07-12T07:54:25Z</time>
      </trkpt>
      <trkpt lat="44.49327" lon="2.88798">
        <ele>473.2</ele>
        <time>2022-07-12T07:54:29Z</time>
      </trkpt>
      <trkpt lat="44.49318" lon="2.88814">
        <ele>473.8</ele>
        <time>2022-07-12T07:54:37Z</time>
      </trkpt>
      <trkpt lat="44.49316" lon="2.88821">
        <ele>474.2</ele>
        <time>2022-07-12T07:54:39Z</time>
      </trkpt>
      <trkpt lat="44.49314" lon="2.8883">
        <ele>474.6</ele>
        <time>2022-07-12T07:54:42Z</time>
      </trkpt>
      <trkpt lat="44.49311" lon="2.88838">
        <ele>475</ele>
        <time>2022-07-12T07:54:45Z</time>
      </trkpt>
      <trkpt lat="44.49301" lon="2.88856">
        <ele>475.8</ele>
        <time>2022-07-12T07:54:51Z</time>
      </trkpt>
      <trkpt lat="44.49301" lon="2.88858">
        <ele>476.2</ele>
        <time>2022-07-12T07:54:52Z</time>
      </trkpt>
      <trkpt lat="44.49293" lon="2.88873">
        <ele>477.4</ele>
        <time>2022-07-12T07:54:58Z</time>
      </trkpt>
      <trkpt lat="44.49291" lon="2.88877">
        <ele>477.6</ele>
        <time>2022-07-12T07:55:00Z</time>
      </trkpt>
      <trkpt lat="44.49283" lon="2.88891">
        <ele>478.2</ele>
        <time>2022-07-12T07:55:06Z</time>
      </trkpt>
      <trkpt lat="44.49282" lon="2.88893">
        <ele>478.4</ele>
        <time>2022-07-12T07:55:07Z</time>
      </trkpt>
      <trkpt lat="44.49267" lon="2.88916">
        <ele>479.2</ele>
        <time>2022-07-12T07:55:14Z</time>
      </trkpt>
      <trkpt lat="44.49262" lon="2.88923">
        <ele>479.4</ele>
        <time>2022-07-12T07:55:17Z</time>
      </trkpt>
      <trkpt lat="44.4926" lon="2.88929">
        <ele>479.8</ele>
        <time>2022-07-12T07:55:19Z</time>
      </trkpt>
      <trkpt lat="44.49254" lon="2.88943">
        <ele>480.4</ele>
        <time>2022-07-12T07:55:24Z</time>
      </trkpt>
      <trkpt lat="44.49254" lon="2.88945">
        <ele>480.4</ele>
        <time>2022-07-12T07:55:25Z</time>
      </trkpt>
      <trkpt lat="44.49252" lon="2.88962">
        <ele>480.8</ele>
        <time>2022-07-12T07:55:30Z</time>
      </trkpt>
      <trkpt lat="44.49251" lon="2.88965">
        <ele>481</ele>
        <time>2022-07-12T07:55:31Z</time>
      </trkpt>
      <trkpt lat="44.49249" lon="2.88974">
        <ele>481.2</ele>
        <time>2022-07-12T07:55:34Z</time>
      </trkpt>
      <trkpt lat="44.49247" lon="2.88988">
        <ele>481.4</ele>
        <time>2022-07-12T07:55:38Z</time>
      </trkpt>
      <trkpt lat="44.49246" lon="2.88991">
        <ele>481.6</ele>
        <time>2022-07-12T07:55:39Z</time>
      </trkpt>
      <trkpt lat="44.49247" lon="2.88993">
        <ele>481.6</ele>
        <time>2022-07-12T07:55:40Z</time>
      </trkpt>
      <trkpt lat="44.49245" lon="2.88996">
        <ele>481.6</ele>
        <time>2022-07-12T07:55:42Z</time>
      </trkpt>
      <trkpt lat="44.49244" lon="2.89">
        <ele>481.8</ele>
        <time>2022-07-12T07:55:43Z</time>
      </trkpt>
      <trkpt lat="44.49242" lon="2.89009">
        <ele>481.6</ele>
        <time>2022-07-12T07:55:45Z</time>
      </trkpt>
      <trkpt lat="44.49243" lon="2.89016">
        <ele>481.4</ele>
        <time>2022-07-12T07:55:47Z</time>
      </trkpt>
      <trkpt lat="44.49242" lon="2.89032">
        <ele>481</ele>
        <time>2022-07-12T07:55:50Z</time>
      </trkpt>
      <trkpt lat="44.49241" lon="2.89042">
        <ele>480.6</ele>
        <time>2022-07-12T07:55:52Z</time>
      </trkpt>
      <trkpt lat="44.49241" lon="2.89061">
        <ele>480.2</ele>
        <time>2022-07-12T07:55:56Z</time>
      </trkpt>
      <trkpt lat="44.49242" lon="2.89071">
        <ele>480</ele>
        <time>2022-07-12T07:55:58Z</time>
      </trkpt>
      <trkpt lat="44.49238" lon="2.89103">
        <ele>479.4</ele>
        <time>2022-07-12T07:56:02Z</time>
      </trkpt>
      <trkpt lat="44.4924" lon="2.89126">
        <ele>479.2</ele>
        <time>2022-07-12T07:56:04Z</time>
      </trkpt>
      <trkpt lat="44.49241" lon="2.89136">
        <ele>479</ele>
        <time>2022-07-12T07:56:05Z</time>
      </trkpt>
      <trkpt lat="44.49239" lon="2.89147">
        <ele>478.6</ele>
        <time>2022-07-12T07:56:06Z</time>
      </trkpt>
      <trkpt lat="44.49233" lon="2.89176">
        <ele>477.8</ele>
        <time>2022-07-12T07:56:08Z</time>
      </trkpt>
      <trkpt lat="44.49233" lon="2.8919">
        <ele>477.6</ele>
        <time>2022-07-12T07:56:09Z</time>
      </trkpt>
      <trkpt lat="44.49234" lon="2.89204">
        <ele>477.2</ele>
        <time>2022-07-12T07:56:10Z</time>
      </trkpt>
      <trkpt lat="44.49241" lon="2.89217">
        <ele>476.4</ele>
        <time>2022-07-12T07:56:11Z</time>
      </trkpt>
      <trkpt lat="44.49239" lon="2.8923">
        <ele>476.4</ele>
        <time>2022-07-12T07:56:12Z</time>
      </trkpt>
      <trkpt lat="44.49246" lon="2.89252">
        <ele>475</ele>
        <time>2022-07-12T07:56:14Z</time>
      </trkpt>
      <trkpt lat="44.49246" lon="2.89263">
        <ele>474</ele>
        <time>2022-07-12T07:56:15Z</time>
      </trkpt>
      <trkpt lat="44.49242" lon="2.89272">
        <ele>473.8</ele>
        <time>2022-07-12T07:56:16Z</time>
      </trkpt>
      <trkpt lat="44.49244" lon="2.89289">
        <ele>472.4</ele>
        <time>2022-07-12T07:56:18Z</time>
      </trkpt>
      <trkpt lat="44.49243" lon="2.89296">
        <ele>472</ele>
        <time>2022-07-12T07:56:19Z</time>
      </trkpt>
      <trkpt lat="44.49243" lon="2.89301">
        <ele>471</ele>
        <time>2022-07-12T07:56:20Z</time>
      </trkpt>
      <trkpt lat="44.49242" lon="2.89304">
        <ele>470.8</ele>
        <time>2022-07-12T07:56:21Z</time>
      </trkpt>
      <trkpt lat="44.49241" lon="2.89309">
        <ele>470</ele>
        <time>2022-07-12T07:56:22Z</time>
      </trkpt>
      <trkpt lat="44.49241" lon="2.89315">
        <ele>469.6</ele>
        <time>2022-07-12T07:56:23Z</time>
      </trkpt>
      <trkpt lat="44.49243" lon="2.89321">
        <ele>468.6</ele>
        <time>2022-07-12T07:56:24Z</time>
      </trkpt>
      <trkpt lat="44.49243" lon="2.89328">
        <ele>467.8</ele>
        <time>2022-07-12T07:56:25Z</time>
      </trkpt>
      <trkpt lat="44.49245" lon="2.89332">
        <ele>467.4</ele>
        <time>2022-07-12T07:56:26Z</time>
      </trkpt>
      <trkpt lat="44.49247" lon="2.89334">
        <ele>467</ele>
        <time>2022-07-12T07:56:27Z</time>
      </trkpt>
      <trkpt lat="44.49251" lon="2.89335">
        <ele>466.8</ele>
        <time>2022-07-12T07:56:28Z</time>
      </trkpt>
      <trkpt lat="44.49257" lon="2.89335">
        <ele>466.2</ele>
        <time>2022-07-12T07:56:29Z</time>
      </trkpt>
      <trkpt lat="44.49269" lon="2.89336">
        <ele>465.4</ele>
        <time>2022-07-12T07:56:31Z</time>
      </trkpt>
      <trkpt lat="44.49275" lon="2.89338">
        <ele>465</ele>
        <time>2022-07-12T07:56:32Z</time>
      </trkpt>
      <trkpt lat="44.49312" lon="2.89349">
        <ele>463.4</ele>
        <time>2022-07-12T07:56:36Z</time>
      </trkpt>
      <trkpt lat="44.49319" lon="2.89352">
        <ele>463.2</ele>
        <time>2022-07-12T07:56:37Z</time>
      </trkpt>
      <trkpt lat="44.49326" lon="2.89358">
        <ele>462.2</ele>
        <time>2022-07-12T07:56:38Z</time>
      </trkpt>
      <trkpt lat="44.49346" lon="2.89373">
        <ele>460.6</ele>
        <time>2022-07-12T07:56:41Z</time>
      </trkpt>
      <trkpt lat="44.49363" lon="2.89381">
        <ele>459.4</ele>
        <time>2022-07-12T07:56:43Z</time>
      </trkpt>
      <trkpt lat="44.4937" lon="2.89385">
        <ele>459.2</ele>
        <time>2022-07-12T07:56:44Z</time>
      </trkpt>
      <trkpt lat="44.49382" lon="2.89395">
        <ele>457.8</ele>
        <time>2022-07-12T07:56:46Z</time>
      </trkpt>
      <trkpt lat="44.49386" lon="2.89402">
        <ele>457.4</ele>
        <time>2022-07-12T07:56:47Z</time>
      </trkpt>
      <trkpt lat="44.4939" lon="2.89409">
        <ele>456.8</ele>
        <time>2022-07-12T07:56:48Z</time>
      </trkpt>
      <trkpt lat="44.49396" lon="2.8942">
        <ele>455.6</ele>
        <time>2022-07-12T07:56:50Z</time>
      </trkpt>
      <trkpt lat="44.49401" lon="2.89429">
        <ele>454.8</ele>
        <time>2022-07-12T07:56:52Z</time>
      </trkpt>
      <trkpt lat="44.49404" lon="2.89433">
        <ele>454</ele>
        <time>2022-07-12T07:56:53Z</time>
      </trkpt>
      <trkpt lat="44.4941" lon="2.89441">
        <ele>452.8</ele>
        <time>2022-07-12T07:56:55Z</time>
      </trkpt>
      <trkpt lat="44.49415" lon="2.89449">
        <ele>452</ele>
        <time>2022-07-12T07:56:57Z</time>
      </trkpt>
      <trkpt lat="44.49421" lon="2.89465">
        <ele>451.8</ele>
        <time>2022-07-12T07:57:00Z</time>
      </trkpt>
      <trkpt lat="44.49423" lon="2.8947">
        <ele>451.8</ele>
        <time>2022-07-12T07:57:01Z</time>
      </trkpt>
      <trkpt lat="44.49429" lon="2.8948">
        <ele>451.6</ele>
        <time>2022-07-12T07:57:03Z</time>
      </trkpt>
      <trkpt lat="44.49433" lon="2.89484">
        <ele>451.4</ele>
        <time>2022-07-12T07:57:04Z</time>
      </trkpt>
      <trkpt lat="44.49438" lon="2.89486">
        <ele>451.2</ele>
        <time>2022-07-12T07:57:05Z</time>
      </trkpt>
      <trkpt lat="44.49448" lon="2.8949">
        <ele>451.2</ele>
        <time>2022-07-12T07:57:08Z</time>
      </trkpt>
      <trkpt lat="44.49459" lon="2.89494">
        <ele>451.2</ele>
        <time>2022-07-12T07:57:10Z</time>
      </trkpt>
      <trkpt lat="44.4947" lon="2.895">
        <ele>451</ele>
        <time>2022-07-12T07:57:12Z</time>
      </trkpt>
      <trkpt lat="44.49474" lon="2.89503">
        <ele>450.8</ele>
        <time>2022-07-12T07:57:13Z</time>
      </trkpt>
      <trkpt lat="44.49478" lon="2.89512">
        <ele>450.6</ele>
        <time>2022-07-12T07:57:15Z</time>
      </trkpt>
      <trkpt lat="44.49486" lon="2.89526">
        <ele>450.4</ele>
        <time>2022-07-12T07:57:17Z</time>
      </trkpt>
      <trkpt lat="44.49495" lon="2.89537">
        <ele>450.2</ele>
        <time>2022-07-12T07:57:19Z</time>
      </trkpt>
      <trkpt lat="44.49505" lon="2.89551">
        <ele>450.2</ele>
        <time>2022-07-12T07:57:22Z</time>
      </trkpt>
      <trkpt lat="44.49512" lon="2.89558">
        <ele>450.2</ele>
        <time>2022-07-12T07:57:24Z</time>
      </trkpt>
      <trkpt lat="44.49516" lon="2.89561">
        <ele>450.2</ele>
        <time>2022-07-12T07:57:25Z</time>
      </trkpt>
      <trkpt lat="44.49541" lon="2.89579">
        <ele>450.6</ele>
        <time>2022-07-12T07:57:31Z</time>
      </trkpt>
      <trkpt lat="44.49545" lon="2.89582">
        <ele>450.8</ele>
        <time>2022-07-12T07:57:32Z</time>
      </trkpt>
      <trkpt lat="44.49552" lon="2.89588">
        <ele>450.8</ele>
        <time>2022-07-12T07:57:34Z</time>
      </trkpt>
      <trkpt lat="44.49558" lon="2.89596">
        <ele>451</ele>
        <time>2022-07-12T07:57:36Z</time>
      </trkpt>
      <trkpt lat="44.49563" lon="2.89607">
        <ele>451.2</ele>
        <time>2022-07-12T07:57:38Z</time>
      </trkpt>
      <trkpt lat="44.4957" lon="2.89624">
        <ele>451.2</ele>
        <time>2022-07-12T07:57:41Z</time>
      </trkpt>
      <trkpt lat="44.49573" lon="2.89629">
        <ele>451</ele>
        <time>2022-07-12T07:57:42Z</time>
      </trkpt>
      <trkpt lat="44.49577" lon="2.89632">
        <ele>451.4</ele>
        <time>2022-07-12T07:57:43Z</time>
      </trkpt>
      <trkpt lat="44.49581" lon="2.89635">
        <ele>451.2</ele>
        <time>2022-07-12T07:57:44Z</time>
      </trkpt>
      <trkpt lat="44.49594" lon="2.89647">
        <ele>451</ele>
        <time>2022-07-12T07:57:48Z</time>
      </trkpt>
      <trkpt lat="44.49617" lon="2.89667">
        <ele>451.4</ele>
        <time>2022-07-12T07:57:55Z</time>
      </trkpt>
      <trkpt lat="44.49622" lon="2.89675">
        <ele>451.6</ele>
        <time>2022-07-12T07:57:57Z</time>
      </trkpt>
      <trkpt lat="44.49628" lon="2.8969">
        <ele>451.6</ele>
        <time>2022-07-12T07:58:00Z</time>
      </trkpt>
      <trkpt lat="44.49636" lon="2.89707">
        <ele>451.8</ele>
        <time>2022-07-12T07:58:04Z</time>
      </trkpt>
      <trkpt lat="44.49639" lon="2.89708">
        <ele>451.8</ele>
        <time>2022-07-12T07:58:05Z</time>
      </trkpt>
      <trkpt lat="44.49655" lon="2.89714">
        <ele>451.8</ele>
        <time>2022-07-12T07:58:10Z</time>
      </trkpt>
      <trkpt lat="44.49675" lon="2.89719">
        <ele>452.2</ele>
        <time>2022-07-12T07:58:16Z</time>
      </trkpt>
      <trkpt lat="44.49682" lon="2.8972">
        <ele>452.6</ele>
        <time>2022-07-12T07:58:19Z</time>
      </trkpt>
      <trkpt lat="44.49684" lon="2.8972">
        <ele>452.8</ele>
        <time>2022-07-12T07:58:21Z</time>
      </trkpt>
      <trkpt lat="44.49699" lon="2.89719">
        <ele>453.4</ele>
        <time>2022-07-12T07:58:25Z</time>
      </trkpt>
      <trkpt lat="44.49702" lon="2.89719">
        <ele>453.6</ele>
        <time>2022-07-12T07:58:26Z</time>
      </trkpt>
      <trkpt lat="44.49714" lon="2.89715">
        <ele>454.2</ele>
        <time>2022-07-12T07:58:31Z</time>
      </trkpt>
      <trkpt lat="44.49716" lon="2.89715">
        <ele>454.4</ele>
        <time>2022-07-12T07:58:32Z</time>
      </trkpt>
      <trkpt lat="44.4972" lon="2.89716">
        <ele>454.6</ele>
        <time>2022-07-12T07:58:34Z</time>
      </trkpt>
      <trkpt lat="44.49721" lon="2.89716">
        <ele>454.6</ele>
        <time>2022-07-12T07:58:35Z</time>
      </trkpt>
      <trkpt lat="44.49729" lon="2.89718">
        <ele>455.6</ele>
        <time>2022-07-12T07:58:42Z</time>
      </trkpt>
      <trkpt lat="44.4973" lon="2.89719">
        <ele>455.8</ele>
        <time>2022-07-12T07:58:43Z</time>
      </trkpt>
      <trkpt lat="44.49745" lon="2.89724">
        <ele>456.8</ele>
        <time>2022-07-12T07:58:51Z</time>
      </trkpt>
      <trkpt lat="44.49748" lon="2.89727">
        <ele>456.8</ele>
        <time>2022-07-12T07:58:53Z</time>
      </trkpt>
      <trkpt lat="44.49752" lon="2.89729">
        <ele>457</ele>
        <time>2022-07-12T07:58:55Z</time>
      </trkpt>
      <trkpt lat="44.49757" lon="2.89732">
        <ele>457.2</ele>
        <time>2022-07-12T07:58:57Z</time>
      </trkpt>
      <trkpt lat="44.49768" lon="2.89739">
        <ele>457.2</ele>
        <time>2022-07-12T07:59:01Z</time>
      </trkpt>
      <trkpt lat="44.49785" lon="2.89756">
        <ele>457</ele>
        <time>2022-07-12T07:59:08Z</time>
      </trkpt>
      <trkpt lat="44.49789" lon="2.89758">
        <ele>456.8</ele>
        <time>2022-07-12T07:59:09Z</time>
      </trkpt>
      <trkpt lat="44.49799" lon="2.89762">
        <ele>456.6</ele>
        <time>2022-07-12T07:59:11Z</time>
      </trkpt>
      <trkpt lat="44.49804" lon="2.89762">
        <ele>456.4</ele>
        <time>2022-07-12T07:59:12Z</time>
      </trkpt>
      <trkpt lat="44.49809" lon="2.89762">
        <ele>456.4</ele>
        <time>2022-07-12T07:59:13Z</time>
      </trkpt>
      <trkpt lat="44.49826" lon="2.89766">
        <ele>455.8</ele>
        <time>2022-07-12T07:59:16Z</time>
      </trkpt>
      <trkpt lat="44.49832" lon="2.89768">
        <ele>455.4</ele>
        <time>2022-07-12T07:59:17Z</time>
      </trkpt>
      <trkpt lat="44.4986" lon="2.89777">
        <ele>454.6</ele>
        <time>2022-07-12T07:59:22Z</time>
      </trkpt>
      <trkpt lat="44.49866" lon="2.89779">
        <ele>454.4</ele>
        <time>2022-07-12T07:59:23Z</time>
      </trkpt>
      <trkpt lat="44.49871" lon="2.89783">
        <ele>454.2</ele>
        <time>2022-07-12T07:59:24Z</time>
      </trkpt>
      <trkpt lat="44.49886" lon="2.89794">
        <ele>453.4</ele>
        <time>2022-07-12T07:59:27Z</time>
      </trkpt>
      <trkpt lat="44.49892" lon="2.89797">
        <ele>453</ele>
        <time>2022-07-12T07:59:28Z</time>
      </trkpt>
      <trkpt lat="44.49903" lon="2.89808">
        <ele>452.4</ele>
        <time>2022-07-12T07:59:32Z</time>
      </trkpt>
      <trkpt lat="44.49905" lon="2.89812">
        <ele>451.8</ele>
        <time>2022-07-12T07:59:34Z</time>
      </trkpt>
      <trkpt lat="44.49905" lon="2.89813">
        <ele>451.4</ele>
        <time>2022-07-12T07:59:36Z</time>
      </trkpt>
      <trkpt lat="44.49905" lon="2.89813">
        <ele>450.8</ele>
        <time>2022-07-12T07:59:39Z</time>
      </trkpt>
      <trkpt lat="44.49905" lon="2.89813">
        <ele>450.6</ele>
        <time>2022-07-12T07:59:40Z</time>
      </trkpt>
      <trkpt lat="44.49906" lon="2.89817">
        <ele>450</ele>
        <time>2022-07-12T07:59:52Z</time>
      </trkpt>
      <trkpt lat="44.49908" lon="2.89823">
        <ele>450</ele>
        <time>2022-07-12T07:59:54Z</time>
      </trkpt>
      <trkpt lat="44.49918" lon="2.89833">
        <ele>450</ele>
        <time>2022-07-12T07:59:58Z</time>
      </trkpt>
      <trkpt lat="44.49921" lon="2.89836">
        <ele>449.8</ele>
        <time>2022-07-12T07:59:59Z</time>
      </trkpt>
      <trkpt lat="44.49933" lon="2.89854">
        <ele>449.6</ele>
        <time>2022-07-12T08:00:04Z</time>
      </trkpt>
      <trkpt lat="44.49942" lon="2.89867">
        <ele>449.2</ele>
        <time>2022-07-12T08:00:07Z</time>
      </trkpt>
      <trkpt lat="44.49945" lon="2.89872">
        <ele>449</ele>
        <time>2022-07-12T08:00:08Z</time>
      </trkpt>
      <trkpt lat="44.4995" lon="2.8988">
        <ele>448.6</ele>
        <time>2022-07-12T08:00:10Z</time>
      </trkpt>
      <trkpt lat="44.49958" lon="2.89892">
        <ele>448</ele>
        <time>2022-07-12T08:00:13Z</time>
      </trkpt>
      <trkpt lat="44.4996" lon="2.89898">
        <ele>447.8</ele>
        <time>2022-07-12T08:00:14Z</time>
      </trkpt>
      <trkpt lat="44.49965" lon="2.89908">
        <ele>446.8</ele>
        <time>2022-07-12T08:00:16Z</time>
      </trkpt>
      <trkpt lat="44.49968" lon="2.89912">
        <ele>446.4</ele>
        <time>2022-07-12T08:00:17Z</time>
      </trkpt>
      <trkpt lat="44.49971" lon="2.89917">
        <ele>446.2</ele>
        <time>2022-07-12T08:00:18Z</time>
      </trkpt>
      <trkpt lat="44.4998" lon="2.89929">
        <ele>446</ele>
        <time>2022-07-12T08:00:22Z</time>
      </trkpt>
      <trkpt lat="44.49989" lon="2.89945">
        <ele>446</ele>
        <time>2022-07-12T08:00:27Z</time>
      </trkpt>
      <trkpt lat="44.50002" lon="2.89952">
        <ele>446.4</ele>
        <time>2022-07-12T08:00:32Z</time>
      </trkpt>
      <trkpt lat="44.50024" lon="2.8996">
        <ele>446.6</ele>
        <time>2022-07-12T08:00:38Z</time>
      </trkpt>
      <trkpt lat="44.50039" lon="2.89963">
        <ele>446.8</ele>
        <time>2022-07-12T08:00:43Z</time>
      </trkpt>
      <trkpt lat="44.50052" lon="2.89967">
        <ele>447</ele>
        <time>2022-07-12T08:00:48Z</time>
      </trkpt>
      <trkpt lat="44.50063" lon="2.89971">
        <ele>447.4</ele>
        <time>2022-07-12T08:00:52Z</time>
      </trkpt>
      <trkpt lat="44.50067" lon="2.89972">
        <ele>447.6</ele>
        <time>2022-07-12T08:00:53Z</time>
      </trkpt>
      <trkpt lat="44.50081" lon="2.89972">
        <ele>448.2</ele>
        <time>2022-07-12T08:00:58Z</time>
      </trkpt>
      <trkpt lat="44.50088" lon="2.89973">
        <ele>448.4</ele>
        <time>2022-07-12T08:01:01Z</time>
      </trkpt>
      <trkpt lat="44.50096" lon="2.89973">
        <ele>449</ele>
        <time>2022-07-12T08:01:04Z</time>
      </trkpt>
      <trkpt lat="44.50099" lon="2.89972">
        <ele>449.4</ele>
        <time>2022-07-12T08:01:06Z</time>
      </trkpt>
      <trkpt lat="44.50111" lon="2.89971">
        <ele>449.6</ele>
        <time>2022-07-12T08:01:11Z</time>
      </trkpt>
      <trkpt lat="44.50113" lon="2.89972">
        <ele>449.8</ele>
        <time>2022-07-12T08:01:12Z</time>
      </trkpt>
      <trkpt lat="44.50119" lon="2.89973">
        <ele>450.4</ele>
        <time>2022-07-12T08:01:14Z</time>
      </trkpt>
      <trkpt lat="44.50132" lon="2.89973">
        <ele>451.2</ele>
        <time>2022-07-12T08:01:19Z</time>
      </trkpt>
      <trkpt lat="44.5014" lon="2.89973">
        <ele>451.4</ele>
        <time>2022-07-12T08:01:22Z</time>
      </trkpt>
      <trkpt lat="44.5015" lon="2.89973">
        <ele>451.6</ele>
        <time>2022-07-12T08:01:25Z</time>
      </trkpt>
      <trkpt lat="44.50168" lon="2.89966">
        <ele>451.8</ele>
        <time>2022-07-12T08:01:31Z</time>
      </trkpt>
      <trkpt lat="44.50189" lon="2.89958">
        <ele>452</ele>
        <time>2022-07-12T08:01:38Z</time>
      </trkpt>
      <trkpt lat="44.50206" lon="2.89954">
        <ele>452</ele>
        <time>2022-07-12T08:01:44Z</time>
      </trkpt>
      <trkpt lat="44.50228" lon="2.89953">
        <ele>452.4</ele>
        <time>2022-07-12T08:01:52Z</time>
      </trkpt>
      <trkpt lat="44.50246" lon="2.8995">
        <ele>453.2</ele>
        <time>2022-07-12T08:01:58Z</time>
      </trkpt>
      <trkpt lat="44.50255" lon="2.89948">
        <ele>453.4</ele>
        <time>2022-07-12T08:02:01Z</time>
      </trkpt>
      <trkpt lat="44.50267" lon="2.89948">
        <ele>453.6</ele>
        <time>2022-07-12T08:02:05Z</time>
      </trkpt>
      <trkpt lat="44.50274" lon="2.8996">
        <ele>453.8</ele>
        <time>2022-07-12T08:02:09Z</time>
      </trkpt>
      <trkpt lat="44.50278" lon="2.89978">
        <ele>454</ele>
        <time>2022-07-12T08:02:14Z</time>
      </trkpt>
      <trkpt lat="44.50273" lon="2.90008">
        <ele>453.8</ele>
        <time>2022-07-12T08:02:19Z</time>
      </trkpt>
      <trkpt lat="44.5027" lon="2.90024">
        <ele>453.4</ele>
        <time>2022-07-12T08:02:21Z</time>
      </trkpt>
      <trkpt lat="44.50269" lon="2.90044">
        <ele>453.2</ele>
        <time>2022-07-12T08:02:23Z</time>
      </trkpt>
      <trkpt lat="44.50269" lon="2.90064">
        <ele>452.4</ele>
        <time>2022-07-12T08:02:25Z</time>
      </trkpt>
      <trkpt lat="44.5027" lon="2.90083">
        <ele>451.4</ele>
        <time>2022-07-12T08:02:27Z</time>
      </trkpt>
      <trkpt lat="44.50276" lon="2.90098">
        <ele>450.2</ele>
        <time>2022-07-12T08:02:29Z</time>
      </trkpt>
      <trkpt lat="44.50286" lon="2.90108">
        <ele>449.2</ele>
        <time>2022-07-12T08:02:31Z</time>
      </trkpt>
      <trkpt lat="44.50293" lon="2.90112">
        <ele>448.2</ele>
        <time>2022-07-12T08:02:32Z</time>
      </trkpt>
      <trkpt lat="44.50305" lon="2.90121">
        <ele>446.8</ele>
        <time>2022-07-12T08:02:34Z</time>
      </trkpt>
      <trkpt lat="44.50312" lon="2.90127">
        <ele>446.2</ele>
        <time>2022-07-12T08:02:35Z</time>
      </trkpt>
      <trkpt lat="44.50326" lon="2.90138">
        <ele>445.2</ele>
        <time>2022-07-12T08:02:37Z</time>
      </trkpt>
      <trkpt lat="44.50346" lon="2.90159">
        <ele>443.4</ele>
        <time>2022-07-12T08:02:40Z</time>
      </trkpt>
      <trkpt lat="44.5036" lon="2.90174">
        <ele>442.2</ele>
        <time>2022-07-12T08:02:42Z</time>
      </trkpt>
      <trkpt lat="44.50375" lon="2.90186">
        <ele>441.2</ele>
        <time>2022-07-12T08:02:44Z</time>
      </trkpt>
      <trkpt lat="44.5039" lon="2.90198">
        <ele>439.8</ele>
        <time>2022-07-12T08:02:46Z</time>
      </trkpt>
      <trkpt lat="44.50403" lon="2.90212">
        <ele>437.8</ele>
        <time>2022-07-12T08:02:48Z</time>
      </trkpt>
      <trkpt lat="44.50409" lon="2.9022">
        <ele>437</ele>
        <time>2022-07-12T08:02:49Z</time>
      </trkpt>
      <trkpt lat="44.50413" lon="2.90228">
        <ele>436.6</ele>
        <time>2022-07-12T08:02:50Z</time>
      </trkpt>
      <trkpt lat="44.50421" lon="2.90243">
        <ele>435.8</ele>
        <time>2022-07-12T08:02:52Z</time>
      </trkpt>
      <trkpt lat="44.50423" lon="2.90251">
        <ele>435.4</ele>
        <time>2022-07-12T08:02:53Z</time>
      </trkpt>
      <trkpt lat="44.50427" lon="2.90268">
        <ele>435</ele>
        <time>2022-07-12T08:02:55Z</time>
      </trkpt>
      <trkpt lat="44.50428" lon="2.90277">
        <ele>434.8</ele>
        <time>2022-07-12T08:02:56Z</time>
      </trkpt>
      <trkpt lat="44.50425" lon="2.90305">
        <ele>434.2</ele>
        <time>2022-07-12T08:02:59Z</time>
      </trkpt>
      <trkpt lat="44.50424" lon="2.90314">
        <ele>433.8</ele>
        <time>2022-07-12T08:03:00Z</time>
      </trkpt>
      <trkpt lat="44.50423" lon="2.90322">
        <ele>433.6</ele>
        <time>2022-07-12T08:03:01Z</time>
      </trkpt>
      <trkpt lat="44.5042" lon="2.90328">
        <ele>433.4</ele>
        <time>2022-07-12T08:03:02Z</time>
      </trkpt>
      <trkpt lat="44.50418" lon="2.90333">
        <ele>433.2</ele>
        <time>2022-07-12T08:03:03Z</time>
      </trkpt>
      <trkpt lat="44.50417" lon="2.90338">
        <ele>433</ele>
        <time>2022-07-12T08:03:04Z</time>
      </trkpt>
      <trkpt lat="44.50408" lon="2.90364">
        <ele>432.6</ele>
        <time>2022-07-12T08:03:08Z</time>
      </trkpt>
      <trkpt lat="44.50406" lon="2.9037">
        <ele>432.6</ele>
        <time>2022-07-12T08:03:09Z</time>
      </trkpt>
      <trkpt lat="44.50403" lon="2.90384">
        <ele>432.6</ele>
        <time>2022-07-12T08:03:12Z</time>
      </trkpt>
      <trkpt lat="44.50398" lon="2.90396">
        <ele>432.8</ele>
        <time>2022-07-12T08:03:15Z</time>
      </trkpt>
      <trkpt lat="44.50394" lon="2.90408">
        <ele>433</ele>
        <time>2022-07-12T08:03:18Z</time>
      </trkpt>
      <trkpt lat="44.50389" lon="2.90431">
        <ele>433.4</ele>
        <time>2022-07-12T08:03:23Z</time>
      </trkpt>
      <trkpt lat="44.50375" lon="2.90457">
        <ele>434.2</ele>
        <time>2022-07-12T08:03:29Z</time>
      </trkpt>
      <trkpt lat="44.50374" lon="2.90461">
        <ele>434.4</ele>
        <time>2022-07-12T08:03:30Z</time>
      </trkpt>
      <trkpt lat="44.50368" lon="2.90471">
        <ele>434.6</ele>
        <time>2022-07-12T08:03:33Z</time>
      </trkpt>
      <trkpt lat="44.50363" lon="2.90475">
        <ele>434.8</ele>
        <time>2022-07-12T08:03:35Z</time>
      </trkpt>
      <trkpt lat="44.50358" lon="2.9048">
        <ele>435</ele>
        <time>2022-07-12T08:03:37Z</time>
      </trkpt>
      <trkpt lat="44.50349" lon="2.90497">
        <ele>435.4</ele>
        <time>2022-07-12T08:03:42Z</time>
      </trkpt>
      <trkpt lat="44.50349" lon="2.90501">
        <ele>435.4</ele>
        <time>2022-07-12T08:03:43Z</time>
      </trkpt>
      <trkpt lat="44.50338" lon="2.90532">
        <ele>435.8</ele>
        <time>2022-07-12T08:03:50Z</time>
      </trkpt>
      <trkpt lat="44.50337" lon="2.90538">
        <ele>435.8</ele>
        <time>2022-07-12T08:03:51Z</time>
      </trkpt>
      <trkpt lat="44.50332" lon="2.90547">
        <ele>436.2</ele>
        <time>2022-07-12T08:03:53Z</time>
      </trkpt>
      <trkpt lat="44.5033" lon="2.90551">
        <ele>436.4</ele>
        <time>2022-07-12T08:03:55Z</time>
      </trkpt>
      <trkpt lat="44.50329" lon="2.90553">
        <ele>436.6</ele>
        <time>2022-07-12T08:03:56Z</time>
      </trkpt>
      <trkpt lat="44.50328" lon="2.90562">
        <ele>436.6</ele>
        <time>2022-07-12T08:03:58Z</time>
      </trkpt>
      <trkpt lat="44.50328" lon="2.90568">
        <ele>436.6</ele>
        <time>2022-07-12T08:03:59Z</time>
      </trkpt>
      <trkpt lat="44.50324" lon="2.90579">
        <ele>436.6</ele>
        <time>2022-07-12T08:04:01Z</time>
      </trkpt>
      <trkpt lat="44.50319" lon="2.90584">
        <ele>436.6</ele>
        <time>2022-07-12T08:04:03Z</time>
      </trkpt>
      <trkpt lat="44.50318" lon="2.90589">
        <ele>436.6</ele>
        <time>2022-07-12T08:04:04Z</time>
      </trkpt>
      <trkpt lat="44.50314" lon="2.90608">
        <ele>437</ele>
        <time>2022-07-12T08:04:08Z</time>
      </trkpt>
      <trkpt lat="44.5031" lon="2.90616">
        <ele>437</ele>
        <time>2022-07-12T08:04:10Z</time>
      </trkpt>
      <trkpt lat="44.50308" lon="2.90623">
        <ele>437.2</ele>
        <time>2022-07-12T08:04:11Z</time>
      </trkpt>
      <trkpt lat="44.50296" lon="2.90637">
        <ele>437.4</ele>
        <time>2022-07-12T08:04:15Z</time>
      </trkpt>
      <trkpt lat="44.50292" lon="2.90639">
        <ele>437.4</ele>
        <time>2022-07-12T08:04:16Z</time>
      </trkpt>
      <trkpt lat="44.50278" lon="2.90651">
        <ele>437.6</ele>
        <time>2022-07-12T08:04:21Z</time>
      </trkpt>
      <trkpt lat="44.50258" lon="2.90659">
        <ele>437.6</ele>
        <time>2022-07-12T08:04:28Z</time>
      </trkpt>
      <trkpt lat="44.50244" lon="2.90661">
        <ele>438</ele>
        <time>2022-07-12T08:04:33Z</time>
      </trkpt>
      <trkpt lat="44.50231" lon="2.90656">
        <ele>438.2</ele>
        <time>2022-07-12T08:04:38Z</time>
      </trkpt>
      <trkpt lat="44.50229" lon="2.90655">
        <ele>438.2</ele>
        <time>2022-07-12T08:04:39Z</time>
      </trkpt>
      <trkpt lat="44.50223" lon="2.90651">
        <ele>438.4</ele>
        <time>2022-07-12T08:04:42Z</time>
      </trkpt>
      <trkpt lat="44.50205" lon="2.90639">
        <ele>439</ele>
        <time>2022-07-12T08:04:48Z</time>
      </trkpt>
      <trkpt lat="44.50203" lon="2.90638">
        <ele>439.2</ele>
        <time>2022-07-12T08:04:49Z</time>
      </trkpt>
      <trkpt lat="44.5019" lon="2.90627">
        <ele>439.6</ele>
        <time>2022-07-12T08:04:54Z</time>
      </trkpt>
      <trkpt lat="44.50177" lon="2.90614">
        <ele>439.8</ele>
        <time>2022-07-12T08:04:58Z</time>
      </trkpt>
      <trkpt lat="44.50164" lon="2.90599">
        <ele>439.8</ele>
        <time>2022-07-12T08:05:03Z</time>
      </trkpt>
      <trkpt lat="44.50147" lon="2.90582">
        <ele>440</ele>
        <time>2022-07-12T08:05:08Z</time>
      </trkpt>
      <trkpt lat="44.50136" lon="2.9057">
        <ele>440.2</ele>
        <time>2022-07-12T08:05:11Z</time>
      </trkpt>
      <trkpt lat="44.50122" lon="2.90558">
        <ele>440.4</ele>
        <time>2022-07-12T08:05:14Z</time>
      </trkpt>
      <trkpt lat="44.50101" lon="2.9055">
        <ele>440.8</ele>
        <time>2022-07-12T08:05:22Z</time>
      </trkpt>
      <trkpt lat="44.50087" lon="2.90538">
        <ele>440.8</ele>
        <time>2022-07-12T08:05:27Z</time>
      </trkpt>
      <trkpt lat="44.5007" lon="2.90513">
        <ele>440.6</ele>
        <time>2022-07-12T08:05:33Z</time>
      </trkpt>
      <trkpt lat="44.5006" lon="2.90503">
        <ele>440.2</ele>
        <time>2022-07-12T08:05:36Z</time>
      </trkpt>
      <trkpt lat="44.50052" lon="2.90496">
        <ele>440</ele>
        <time>2022-07-12T08:05:38Z</time>
      </trkpt>
      <trkpt lat="44.50032" lon="2.90469">
        <ele>439.6</ele>
        <time>2022-07-12T08:05:45Z</time>
      </trkpt>
      <trkpt lat="44.50023" lon="2.90459">
        <ele>439.2</ele>
        <time>2022-07-12T08:05:48Z</time>
      </trkpt>
      <trkpt lat="44.50012" lon="2.90449">
        <ele>438.6</ele>
        <time>2022-07-12T08:05:51Z</time>
      </trkpt>
      <trkpt lat="44.49995" lon="2.9044">
        <ele>438</ele>
        <time>2022-07-12T08:05:55Z</time>
      </trkpt>
      <trkpt lat="44.49988" lon="2.90438">
        <ele>437.8</ele>
        <time>2022-07-12T08:05:57Z</time>
      </trkpt>
      <trkpt lat="44.49984" lon="2.90437">
        <ele>437.4</ele>
        <time>2022-07-12T08:06:00Z</time>
      </trkpt>
      <trkpt lat="44.49981" lon="2.90436">
        <ele>437.2</ele>
        <time>2022-07-12T08:06:01Z</time>
      </trkpt>
      <trkpt lat="44.49976" lon="2.90436">
        <ele>437</ele>
        <time>2022-07-12T08:06:03Z</time>
      </trkpt>
      <trkpt lat="44.49958" lon="2.90431">
        <ele>436.6</ele>
        <time>2022-07-12T08:06:07Z</time>
      </trkpt>
      <trkpt lat="44.49936" lon="2.90432">
        <ele>436.6</ele>
        <time>2022-07-12T08:06:11Z</time>
      </trkpt>
      <trkpt lat="44.49916" lon="2.90434">
        <ele>436.4</ele>
        <time>2022-07-12T08:06:15Z</time>
      </trkpt>
      <trkpt lat="44.49895" lon="2.90441">
        <ele>436.2</ele>
        <time>2022-07-12T08:06:20Z</time>
      </trkpt>
      <trkpt lat="44.49877" lon="2.90448">
        <ele>436</ele>
        <time>2022-07-12T08:06:24Z</time>
      </trkpt>
      <trkpt lat="44.4985" lon="2.90454">
        <ele>436.2</ele>
        <time>2022-07-12T08:06:29Z</time>
      </trkpt>
      <trkpt lat="44.4983" lon="2.90461">
        <ele>436</ele>
        <time>2022-07-12T08:06:33Z</time>
      </trkpt>
      <trkpt lat="44.49825" lon="2.90463">
        <ele>436</ele>
        <time>2022-07-12T08:06:34Z</time>
      </trkpt>
      <trkpt lat="44.498" lon="2.90468">
        <ele>435.6</ele>
        <time>2022-07-12T08:06:40Z</time>
      </trkpt>
      <trkpt lat="44.49774" lon="2.90477">
        <ele>435.4</ele>
        <time>2022-07-12T08:06:45Z</time>
      </trkpt>
      <trkpt lat="44.49758" lon="2.90479">
        <ele>434.8</ele>
        <time>2022-07-12T08:06:48Z</time>
      </trkpt>
      <trkpt lat="44.49744" lon="2.9048">
        <ele>433.8</ele>
        <time>2022-07-12T08:06:50Z</time>
      </trkpt>
      <trkpt lat="44.4974" lon="2.9048">
        <ele>433.4</ele>
        <time>2022-07-12T08:06:51Z</time>
      </trkpt>
      <trkpt lat="44.49723" lon="2.90486">
        <ele>433</ele>
        <time>2022-07-12T08:06:54Z</time>
      </trkpt>
      <trkpt lat="44.4971" lon="2.905">
        <ele>432.6</ele>
        <time>2022-07-12T08:06:56Z</time>
      </trkpt>
      <trkpt lat="44.49704" lon="2.90506">
        <ele>432.2</ele>
        <time>2022-07-12T08:06:57Z</time>
      </trkpt>
      <trkpt lat="44.49697" lon="2.90509">
        <ele>431.8</ele>
        <time>2022-07-12T08:06:58Z</time>
      </trkpt>
      <trkpt lat="44.49685" lon="2.90515">
        <ele>431.6</ele>
        <time>2022-07-12T08:07:00Z</time>
      </trkpt>
      <trkpt lat="44.49672" lon="2.90521">
        <ele>431.4</ele>
        <time>2022-07-12T08:07:02Z</time>
      </trkpt>
      <trkpt lat="44.49665" lon="2.90527">
        <ele>431</ele>
        <time>2022-07-12T08:07:03Z</time>
      </trkpt>
      <trkpt lat="44.49647" lon="2.90544">
        <ele>429.8</ele>
        <time>2022-07-12T08:07:06Z</time>
      </trkpt>
      <trkpt lat="44.49641" lon="2.90552">
        <ele>429</ele>
        <time>2022-07-12T08:07:07Z</time>
      </trkpt>
      <trkpt lat="44.49635" lon="2.90561">
        <ele>428.4</ele>
        <time>2022-07-12T08:07:08Z</time>
      </trkpt>
      <trkpt lat="44.49624" lon="2.90577">
        <ele>427.4</ele>
        <time>2022-07-12T08:07:10Z</time>
      </trkpt>
      <trkpt lat="44.49614" lon="2.90588">
        <ele>426.4</ele>
        <time>2022-07-12T08:07:12Z</time>
      </trkpt>
      <trkpt lat="44.49609" lon="2.90594">
        <ele>426.2</ele>
        <time>2022-07-12T08:07:13Z</time>
      </trkpt>
      <trkpt lat="44.49605" lon="2.90599">
        <ele>425.8</ele>
        <time>2022-07-12T08:07:14Z</time>
      </trkpt>
      <trkpt lat="44.49596" lon="2.90608">
        <ele>425.4</ele>
        <time>2022-07-12T08:07:16Z</time>
      </trkpt>
      <trkpt lat="44.49589" lon="2.90618">
        <ele>425</ele>
        <time>2022-07-12T08:07:18Z</time>
      </trkpt>
      <trkpt lat="44.49578" lon="2.90633">
        <ele>424.6</ele>
        <time>2022-07-12T08:07:21Z</time>
      </trkpt>
      <trkpt lat="44.49569" lon="2.90643">
        <ele>424.6</ele>
        <time>2022-07-12T08:07:23Z</time>
      </trkpt>
      <trkpt lat="44.49565" lon="2.90649">
        <ele>424.6</ele>
        <time>2022-07-12T08:07:24Z</time>
      </trkpt>
      <trkpt lat="44.4955" lon="2.90668">
        <ele>424.2</ele>
        <time>2022-07-12T08:07:28Z</time>
      </trkpt>
      <trkpt lat="44.49538" lon="2.90688">
        <ele>424</ele>
        <time>2022-07-12T08:07:32Z</time>
      </trkpt>
      <trkpt lat="44.49534" lon="2.90696">
        <ele>423.6</ele>
        <time>2022-07-12T08:07:34Z</time>
      </trkpt>
      <trkpt lat="44.4953" lon="2.90704">
        <ele>423.6</ele>
        <time>2022-07-12T08:07:35Z</time>
      </trkpt>
      <trkpt lat="44.49518" lon="2.90725">
        <ele>423.4</ele>
        <time>2022-07-12T08:07:38Z</time>
      </trkpt>
      <trkpt lat="44.49516" lon="2.90742">
        <ele>423.2</ele>
        <time>2022-07-12T08:07:40Z</time>
      </trkpt>
      <trkpt lat="44.49515" lon="2.90747">
        <ele>423.2</ele>
        <time>2022-07-12T08:07:41Z</time>
      </trkpt>
      <trkpt lat="44.49508" lon="2.90753">
        <ele>423</ele>
        <time>2022-07-12T08:07:43Z</time>
      </trkpt>
      <trkpt lat="44.49495" lon="2.90758">
        <ele>423</ele>
        <time>2022-07-12T08:07:47Z</time>
      </trkpt>
      <trkpt lat="44.49483" lon="2.90762">
        <ele>423</ele>
        <time>2022-07-12T08:07:52Z</time>
      </trkpt>
      <trkpt lat="44.4947" lon="2.90763">
        <ele>423.2</ele>
        <time>2022-07-12T08:07:57Z</time>
      </trkpt>
      <trkpt lat="44.49456" lon="2.90774">
        <ele>424.2</ele>
        <time>2022-07-12T08:08:02Z</time>
      </trkpt>
      <trkpt lat="44.49453" lon="2.90777">
        <ele>424.4</ele>
        <time>2022-07-12T08:08:03Z</time>
      </trkpt>
      <trkpt lat="44.49445" lon="2.90781">
        <ele>425.4</ele>
        <time>2022-07-12T08:08:06Z</time>
      </trkpt>
      <trkpt lat="44.49442" lon="2.90781">
        <ele>425.8</ele>
        <time>2022-07-12T08:08:07Z</time>
      </trkpt>
      <trkpt lat="44.49436" lon="2.9078">
        <ele>426</ele>
        <time>2022-07-12T08:08:09Z</time>
      </trkpt>
      <trkpt lat="44.49429" lon="2.9078">
        <ele>426.4</ele>
        <time>2022-07-12T08:08:12Z</time>
      </trkpt>
      <trkpt lat="44.49427" lon="2.9078">
        <ele>426.6</ele>
        <time>2022-07-12T08:08:13Z</time>
      </trkpt>
      <trkpt lat="44.49415" lon="2.90781">
        <ele>427.6</ele>
        <time>2022-07-12T08:08:17Z</time>
      </trkpt>
      <trkpt lat="44.49413" lon="2.90782">
        <ele>427.6</ele>
        <time>2022-07-12T08:08:18Z</time>
      </trkpt>
      <trkpt lat="44.49395" lon="2.90789">
        <ele>428.6</ele>
        <time>2022-07-12T08:08:25Z</time>
      </trkpt>
      <trkpt lat="44.49382" lon="2.90791">
        <ele>429.6</ele>
        <time>2022-07-12T08:08:31Z</time>
      </trkpt>
      <trkpt lat="44.49367" lon="2.9079">
        <ele>430.4</ele>
        <time>2022-07-12T08:08:37Z</time>
      </trkpt>
      <trkpt lat="44.49356" lon="2.90791">
        <ele>430.8</ele>
        <time>2022-07-12T08:08:41Z</time>
      </trkpt>
      <trkpt lat="44.49353" lon="2.90792">
        <ele>431</ele>
        <time>2022-07-12T08:08:42Z</time>
      </trkpt>
      <trkpt lat="44.49342" lon="2.9079">
        <ele>431.6</ele>
        <time>2022-07-12T08:08:47Z</time>
      </trkpt>
      <trkpt lat="44.49337" lon="2.90787">
        <ele>431.8</ele>
        <time>2022-07-12T08:08:49Z</time>
      </trkpt>
      <trkpt lat="44.49331" lon="2.90781">
        <ele>431.8</ele>
        <time>2022-07-12T08:08:51Z</time>
      </trkpt>
      <trkpt lat="44.4932" lon="2.9077">
        <ele>432</ele>
        <time>2022-07-12T08:08:54Z</time>
      </trkpt>
      <trkpt lat="44.49304" lon="2.90759">
        <ele>432</ele>
        <time>2022-07-12T08:08:59Z</time>
      </trkpt>
      <trkpt lat="44.49299" lon="2.90751">
        <ele>432</ele>
        <time>2022-07-12T08:09:01Z</time>
      </trkpt>
      <trkpt lat="44.49291" lon="2.90748">
        <ele>432.2</ele>
        <time>2022-07-12T08:09:04Z</time>
      </trkpt>
      <trkpt lat="44.49289" lon="2.90748">
        <ele>432.2</ele>
        <time>2022-07-12T08:09:05Z</time>
      </trkpt>
      <trkpt lat="44.49274" lon="2.90744">
        <ele>432.2</ele>
        <time>2022-07-12T08:09:11Z</time>
      </trkpt>
      <trkpt lat="44.49257" lon="2.90736">
        <ele>432.4</ele>
        <time>2022-07-12T08:09:16Z</time>
      </trkpt>
      <trkpt lat="44.49239" lon="2.90725">
        <ele>432.8</ele>
        <time>2022-07-12T08:09:23Z</time>
      </trkpt>
      <trkpt lat="44.49231" lon="2.90721">
        <ele>432.8</ele>
        <time>2022-07-12T08:09:26Z</time>
      </trkpt>
      <trkpt lat="44.49228" lon="2.90718">
        <ele>432.8</ele>
        <time>2022-07-12T08:09:27Z</time>
      </trkpt>
      <trkpt lat="44.49208" lon="2.90698">
        <ele>433</ele>
        <time>2022-07-12T08:09:32Z</time>
      </trkpt>
      <trkpt lat="44.49182" lon="2.90681">
        <ele>433</ele>
        <time>2022-07-12T08:09:38Z</time>
      </trkpt>
      <trkpt lat="44.49168" lon="2.9067">
        <ele>433.2</ele>
        <time>2022-07-12T08:09:42Z</time>
      </trkpt>
      <trkpt lat="44.49152" lon="2.90659">
        <ele>433.2</ele>
        <time>2022-07-12T08:09:47Z</time>
      </trkpt>
      <trkpt lat="44.49129" lon="2.90644">
        <ele>433.4</ele>
        <time>2022-07-12T08:09:53Z</time>
      </trkpt>
      <trkpt lat="44.49124" lon="2.9065">
        <ele>433.4</ele>
        <time>2022-07-12T08:09:55Z</time>
      </trkpt>
      <trkpt lat="44.49123" lon="2.90657">
        <ele>433.4</ele>
        <time>2022-07-12T08:09:56Z</time>
      </trkpt>
      <trkpt lat="44.49121" lon="2.9068">
        <ele>433</ele>
        <time>2022-07-12T08:10:00Z</time>
      </trkpt>
      <trkpt lat="44.4913" lon="2.90692">
        <ele>433.2</ele>
        <time>2022-07-12T08:10:04Z</time>
      </trkpt>
      <trkpt lat="44.49139" lon="2.90713">
        <ele>433.4</ele>
        <time>2022-07-12T08:10:09Z</time>
      </trkpt>
      <trkpt lat="44.49137" lon="2.90718">
        <ele>433.6</ele>
        <time>2022-07-12T08:10:10Z</time>
      </trkpt>
      <trkpt lat="44.49136" lon="2.90723">
        <ele>433.8</ele>
        <time>2022-07-12T08:10:11Z</time>
      </trkpt>
      <trkpt lat="44.49133" lon="2.90726">
        <ele>433.8</ele>
        <time>2022-07-12T08:10:12Z</time>
      </trkpt>
      <trkpt lat="44.49121" lon="2.90746">
        <ele>433.8</ele>
        <time>2022-07-12T08:10:16Z</time>
      </trkpt>
      <trkpt lat="44.4911" lon="2.9076">
        <ele>433.8</ele>
        <time>2022-07-12T08:10:20Z</time>
      </trkpt>
      <trkpt lat="44.49095" lon="2.90773">
        <ele>433.8</ele>
        <time>2022-07-12T08:10:25Z</time>
      </trkpt>
      <trkpt lat="44.49082" lon="2.90784">
        <ele>433.8</ele>
        <time>2022-07-12T08:10:30Z</time>
      </trkpt>
      <trkpt lat="44.4907" lon="2.90795">
        <ele>434.2</ele>
        <time>2022-07-12T08:10:35Z</time>
      </trkpt>
      <trkpt lat="44.4906" lon="2.90804">
        <ele>434.6</ele>
        <time>2022-07-12T08:10:39Z</time>
      </trkpt>
      <trkpt lat="44.49044" lon="2.90815">
        <ele>435</ele>
        <time>2022-07-12T08:10:44Z</time>
      </trkpt>
      <trkpt lat="44.4904" lon="2.90819">
        <ele>435</ele>
        <time>2022-07-12T08:10:46Z</time>
      </trkpt>
      <trkpt lat="44.49033" lon="2.90827">
        <ele>435.2</ele>
        <time>2022-07-12T08:10:49Z</time>
      </trkpt>
      <trkpt lat="44.49016" lon="2.9084">
        <ele>435.4</ele>
        <time>2022-07-12T08:10:53Z</time>
      </trkpt>
      <trkpt lat="44.49013" lon="2.90843">
        <ele>435.6</ele>
        <time>2022-07-12T08:10:54Z</time>
      </trkpt>
      <trkpt lat="44.48998" lon="2.90849">
        <ele>436</ele>
        <time>2022-07-12T08:10:59Z</time>
      </trkpt>
      <trkpt lat="44.48985" lon="2.90857">
        <ele>436.4</ele>
        <time>2022-07-12T08:11:04Z</time>
      </trkpt>
      <trkpt lat="44.48983" lon="2.90859">
        <ele>436.4</ele>
        <time>2022-07-12T08:11:05Z</time>
      </trkpt>
      <trkpt lat="44.48966" lon="2.90864">
        <ele>437.4</ele>
        <time>2022-07-12T08:11:11Z</time>
      </trkpt>
      <trkpt lat="44.48963" lon="2.90865">
        <ele>437.6</ele>
        <time>2022-07-12T08:11:12Z</time>
      </trkpt>
      <trkpt lat="44.48949" lon="2.90868">
        <ele>438.2</ele>
        <time>2022-07-12T08:11:17Z</time>
      </trkpt>
      <trkpt lat="44.48942" lon="2.90872">
        <ele>438.6</ele>
        <time>2022-07-12T08:11:19Z</time>
      </trkpt>
      <trkpt lat="44.48935" lon="2.90883">
        <ele>439</ele>
        <time>2022-07-12T08:11:22Z</time>
      </trkpt>
      <trkpt lat="44.48931" lon="2.90907">
        <ele>439.4</ele>
        <time>2022-07-12T08:11:27Z</time>
      </trkpt>
      <trkpt lat="44.48928" lon="2.90915">
        <ele>439.6</ele>
        <time>2022-07-12T08:11:29Z</time>
      </trkpt>
      <trkpt lat="44.4892" lon="2.90928">
        <ele>439.6</ele>
        <time>2022-07-12T08:11:32Z</time>
      </trkpt>
      <trkpt lat="44.48915" lon="2.90937">
        <ele>439.8</ele>
        <time>2022-07-12T08:11:36Z</time>
      </trkpt>
      <trkpt lat="44.48915" lon="2.9094">
        <ele>439.8</ele>
        <time>2022-07-12T08:11:37Z</time>
      </trkpt>
      <trkpt lat="44.48907" lon="2.90955">
        <ele>440.4</ele>
        <time>2022-07-12T08:11:41Z</time>
      </trkpt>
      <trkpt lat="44.48903" lon="2.90962">
        <ele>440.6</ele>
        <time>2022-07-12T08:11:43Z</time>
      </trkpt>
      <trkpt lat="44.489" lon="2.90967">
        <ele>440.6</ele>
        <time>2022-07-12T08:11:45Z</time>
      </trkpt>
      <trkpt lat="44.48897" lon="2.90971">
        <ele>440.6</ele>
        <time>2022-07-12T08:11:46Z</time>
      </trkpt>
      <trkpt lat="44.48891" lon="2.90981">
        <ele>440.6</ele>
        <time>2022-07-12T08:11:49Z</time>
      </trkpt>
      <trkpt lat="44.48888" lon="2.90989">
        <ele>440.6</ele>
        <time>2022-07-12T08:11:51Z</time>
      </trkpt>
      <trkpt lat="44.48888" lon="2.90998">
        <ele>440.4</ele>
        <time>2022-07-12T08:11:53Z</time>
      </trkpt>
      <trkpt lat="44.48882" lon="2.9101">
        <ele>440.4</ele>
        <time>2022-07-12T08:11:55Z</time>
      </trkpt>
      <trkpt lat="44.48879" lon="2.91018">
        <ele>440.4</ele>
        <time>2022-07-12T08:11:56Z</time>
      </trkpt>
      <trkpt lat="44.48872" lon="2.91037">
        <ele>440.2</ele>
        <time>2022-07-12T08:11:58Z</time>
      </trkpt>
      <trkpt lat="44.48867" lon="2.91055">
        <ele>440</ele>
        <time>2022-07-12T08:12:00Z</time>
      </trkpt>
      <trkpt lat="44.48862" lon="2.91067">
        <ele>439.8</ele>
        <time>2022-07-12T08:12:01Z</time>
      </trkpt>
      <trkpt lat="44.48856" lon="2.91084">
        <ele>439</ele>
        <time>2022-07-12T08:12:03Z</time>
      </trkpt>
      <trkpt lat="44.48855" lon="2.91089">
        <ele>438.8</ele>
        <time>2022-07-12T08:12:04Z</time>
      </trkpt>
      <trkpt lat="44.48849" lon="2.91122">
        <ele>438.4</ele>
        <time>2022-07-12T08:12:07Z</time>
      </trkpt>
      <trkpt lat="44.48845" lon="2.91129">
        <ele>438</ele>
        <time>2022-07-12T08:12:08Z</time>
      </trkpt>
      <trkpt lat="44.48842" lon="2.91137">
        <ele>437.4</ele>
        <time>2022-07-12T08:12:09Z</time>
      </trkpt>
      <trkpt lat="44.48843" lon="2.91158">
        <ele>436.8</ele>
        <time>2022-07-12T08:12:11Z</time>
      </trkpt>
      <trkpt lat="44.48834" lon="2.91172">
        <ele>436.4</ele>
        <time>2022-07-12T08:12:13Z</time>
      </trkpt>
      <trkpt lat="44.48823" lon="2.91196">
        <ele>435.8</ele>
        <time>2022-07-12T08:12:16Z</time>
      </trkpt>
      <trkpt lat="44.48809" lon="2.91228">
        <ele>435.4</ele>
        <time>2022-07-12T08:12:21Z</time>
      </trkpt>
      <trkpt lat="44.48805" lon="2.91237">
        <ele>435.2</ele>
        <time>2022-07-12T08:12:22Z</time>
      </trkpt>
      <trkpt lat="44.48799" lon="2.91262">
        <ele>434.6</ele>
        <time>2022-07-12T08:12:25Z</time>
      </trkpt>
      <trkpt lat="44.48796" lon="2.91267">
        <ele>434.6</ele>
        <time>2022-07-12T08:12:26Z</time>
      </trkpt>
      <trkpt lat="44.48786" lon="2.91278">
        <ele>434.4</ele>
        <time>2022-07-12T08:12:28Z</time>
      </trkpt>
      <trkpt lat="44.48786" lon="2.9129">
        <ele>434</ele>
        <time>2022-07-12T08:12:30Z</time>
      </trkpt>
      <trkpt lat="44.48783" lon="2.91312">
        <ele>433.6</ele>
        <time>2022-07-12T08:12:33Z</time>
      </trkpt>
      <trkpt lat="44.48783" lon="2.9132">
        <ele>433.4</ele>
        <time>2022-07-12T08:12:34Z</time>
      </trkpt>
      <trkpt lat="44.48782" lon="2.91326">
        <ele>433.4</ele>
        <time>2022-07-12T08:12:35Z</time>
      </trkpt>
      <trkpt lat="44.48781" lon="2.91338">
        <ele>433.2</ele>
        <time>2022-07-12T08:12:37Z</time>
      </trkpt>
      <trkpt lat="44.48778" lon="2.91346">
        <ele>433.2</ele>
        <time>2022-07-12T08:12:38Z</time>
      </trkpt>
      <trkpt lat="44.48771" lon="2.91368">
        <ele>433</ele>
        <time>2022-07-12T08:12:41Z</time>
      </trkpt>
      <trkpt lat="44.48768" lon="2.91376">
        <ele>433</ele>
        <time>2022-07-12T08:12:42Z</time>
      </trkpt>
      <trkpt lat="44.48763" lon="2.91397">
        <ele>432.6</ele>
        <time>2022-07-12T08:12:45Z</time>
      </trkpt>
      <trkpt lat="44.48762" lon="2.91402">
        <ele>432.6</ele>
        <time>2022-07-12T08:12:46Z</time>
      </trkpt>
      <trkpt lat="44.48762" lon="2.91409">
        <ele>432.6</ele>
        <time>2022-07-12T08:12:47Z</time>
      </trkpt>
      <trkpt lat="44.48757" lon="2.91415">
        <ele>432.4</ele>
        <time>2022-07-12T08:12:48Z</time>
      </trkpt>
      <trkpt lat="44.48753" lon="2.91424">
        <ele>432.4</ele>
        <time>2022-07-12T08:12:49Z</time>
      </trkpt>
      <trkpt lat="44.48746" lon="2.91437">
        <ele>432</ele>
        <time>2022-07-12T08:12:51Z</time>
      </trkpt>
      <trkpt lat="44.48743" lon="2.91444">
        <ele>432</ele>
        <time>2022-07-12T08:12:52Z</time>
      </trkpt>
      <trkpt lat="44.48739" lon="2.91451">
        <ele>432</ele>
        <time>2022-07-12T08:12:53Z</time>
      </trkpt>
      <trkpt lat="44.48732" lon="2.91468">
        <ele>431.8</ele>
        <time>2022-07-12T08:12:55Z</time>
      </trkpt>
      <trkpt lat="44.4873" lon="2.91474">
        <ele>431.6</ele>
        <time>2022-07-12T08:12:56Z</time>
      </trkpt>
      <trkpt lat="44.48726" lon="2.91482">
        <ele>431.6</ele>
        <time>2022-07-12T08:12:57Z</time>
      </trkpt>
      <trkpt lat="44.48721" lon="2.91489">
        <ele>431.4</ele>
        <time>2022-07-12T08:12:58Z</time>
      </trkpt>
      <trkpt lat="44.48719" lon="2.91505">
        <ele>431.4</ele>
        <time>2022-07-12T08:13:00Z</time>
      </trkpt>
      <trkpt lat="44.48715" lon="2.91519">
        <ele>431.2</ele>
        <time>2022-07-12T08:13:02Z</time>
      </trkpt>
      <trkpt lat="44.48707" lon="2.91522">
        <ele>431</ele>
        <time>2022-07-12T08:13:04Z</time>
      </trkpt>
      <trkpt lat="44.48703" lon="2.91523">
        <ele>431</ele>
        <time>2022-07-12T08:13:05Z</time>
      </trkpt>
      <trkpt lat="44.48687" lon="2.91516">
        <ele>431</ele>
        <time>2022-07-12T08:13:08Z</time>
      </trkpt>
      <trkpt lat="44.48679" lon="2.91515">
        <ele>431</ele>
        <time>2022-07-12T08:13:10Z</time>
      </trkpt>
      <trkpt lat="44.4867" lon="2.91516">
        <ele>430.8</ele>
        <time>2022-07-12T08:13:12Z</time>
      </trkpt>
      <trkpt lat="44.48662" lon="2.91517">
        <ele>430.6</ele>
        <time>2022-07-12T08:13:14Z</time>
      </trkpt>
      <trkpt lat="44.48657" lon="2.91524">
        <ele>430.8</ele>
        <time>2022-07-12T08:13:16Z</time>
      </trkpt>
      <trkpt lat="44.48656" lon="2.91529">
        <ele>430.6</ele>
        <time>2022-07-12T08:13:17Z</time>
      </trkpt>
      <trkpt lat="44.48657" lon="2.91535">
        <ele>430.2</ele>
        <time>2022-07-12T08:13:18Z</time>
      </trkpt>
      <trkpt lat="44.4866" lon="2.91539">
        <ele>430.2</ele>
        <time>2022-07-12T08:13:19Z</time>
      </trkpt>
      <trkpt lat="44.48671" lon="2.91545">
        <ele>430.2</ele>
        <time>2022-07-12T08:13:22Z</time>
      </trkpt>
      <trkpt lat="44.48688" lon="2.9155">
        <ele>430.4</ele>
        <time>2022-07-12T08:13:26Z</time>
      </trkpt>
      <trkpt lat="44.48691" lon="2.91553">
        <ele>430.6</ele>
        <time>2022-07-12T08:13:27Z</time>
      </trkpt>
      <trkpt lat="44.48694" lon="2.91557">
        <ele>430.8</ele>
        <time>2022-07-12T08:13:28Z</time>
      </trkpt>
      <trkpt lat="44.48701" lon="2.91566">
        <ele>431</ele>
        <time>2022-07-12T08:13:30Z</time>
      </trkpt>
      <trkpt lat="44.48705" lon="2.9157">
        <ele>431</ele>
        <time>2022-07-12T08:13:31Z</time>
      </trkpt>
      <trkpt lat="44.48716" lon="2.91585">
        <ele>431</ele>
        <time>2022-07-12T08:13:34Z</time>
      </trkpt>
      <trkpt lat="44.48724" lon="2.91597">
        <ele>430.8</ele>
        <time>2022-07-12T08:13:36Z</time>
      </trkpt>
      <trkpt lat="44.48731" lon="2.91608">
        <ele>430.4</ele>
        <time>2022-07-12T08:13:38Z</time>
      </trkpt>
      <trkpt lat="44.48735" lon="2.91622">
        <ele>430</ele>
        <time>2022-07-12T08:13:40Z</time>
      </trkpt>
      <trkpt lat="44.48735" lon="2.91636">
        <ele>429</ele>
        <time>2022-07-12T08:13:42Z</time>
      </trkpt>
      <trkpt lat="44.48731" lon="2.91646">
        <ele>428.6</ele>
        <time>2022-07-12T08:13:43Z</time>
      </trkpt>
      <trkpt lat="44.48725" lon="2.91674">
        <ele>428</ele>
        <time>2022-07-12T08:13:46Z</time>
      </trkpt>
      <trkpt lat="44.48724" lon="2.91684">
        <ele>427.8</ele>
        <time>2022-07-12T08:13:47Z</time>
      </trkpt>
      <trkpt lat="44.48723" lon="2.91693">
        <ele>427.6</ele>
        <time>2022-07-12T08:13:48Z</time>
      </trkpt>
      <trkpt lat="44.4871" lon="2.91763">
        <ele>426.6</ele>
        <time>2022-07-12T08:13:55Z</time>
      </trkpt>
      <trkpt lat="44.48708" lon="2.9179">
        <ele>425.6</ele>
        <time>2022-07-12T08:13:58Z</time>
      </trkpt>
      <trkpt lat="44.4871" lon="2.91799">
        <ele>425.6</ele>
        <time>2022-07-12T08:13:59Z</time>
      </trkpt>
      <trkpt lat="44.48712" lon="2.91807">
        <ele>425.4</ele>
        <time>2022-07-12T08:14:00Z</time>
      </trkpt>
      <trkpt lat="44.48714" lon="2.91815">
        <ele>425.4</ele>
        <time>2022-07-12T08:14:01Z</time>
      </trkpt>
      <trkpt lat="44.48717" lon="2.91833">
        <ele>425</ele>
        <time>2022-07-12T08:14:03Z</time>
      </trkpt>
      <trkpt lat="44.48723" lon="2.91849">
        <ele>424.2</ele>
        <time>2022-07-12T08:14:05Z</time>
      </trkpt>
      <trkpt lat="44.48734" lon="2.91871">
        <ele>423.4</ele>
        <time>2022-07-12T08:14:08Z</time>
      </trkpt>
      <trkpt lat="44.48737" lon="2.91879">
        <ele>423.4</ele>
        <time>2022-07-12T08:14:09Z</time>
      </trkpt>
      <trkpt lat="44.48743" lon="2.91892">
        <ele>423.2</ele>
        <time>2022-07-12T08:14:11Z</time>
      </trkpt>
      <trkpt lat="44.48746" lon="2.91899">
        <ele>423.2</ele>
        <time>2022-07-12T08:14:12Z</time>
      </trkpt>
      <trkpt lat="44.48762" lon="2.91933">
        <ele>423</ele>
        <time>2022-07-12T08:14:17Z</time>
      </trkpt>
      <trkpt lat="44.48773" lon="2.91952">
        <ele>422.8</ele>
        <time>2022-07-12T08:14:20Z</time>
      </trkpt>
      <trkpt lat="44.48783" lon="2.9197">
        <ele>422.8</ele>
        <time>2022-07-12T08:14:23Z</time>
      </trkpt>
      <trkpt lat="44.48794" lon="2.91987">
        <ele>422.4</ele>
        <time>2022-07-12T08:14:26Z</time>
      </trkpt>
      <trkpt lat="44.48801" lon="2.91997">
        <ele>422.4</ele>
        <time>2022-07-12T08:14:28Z</time>
      </trkpt>
      <trkpt lat="44.4883" lon="2.92037">
        <ele>423</ele>
        <time>2022-07-12T08:14:36Z</time>
      </trkpt>
      <trkpt lat="44.48835" lon="2.92049">
        <ele>423</ele>
        <time>2022-07-12T08:14:38Z</time>
      </trkpt>
      <trkpt lat="44.4884" lon="2.92061">
        <ele>423.2</ele>
        <time>2022-07-12T08:14:40Z</time>
      </trkpt>
      <trkpt lat="44.48842" lon="2.92067">
        <ele>423.2</ele>
        <time>2022-07-12T08:14:41Z</time>
      </trkpt>
      <trkpt lat="44.48853" lon="2.92089">
        <ele>423.4</ele>
        <time>2022-07-12T08:14:45Z</time>
      </trkpt>
      <trkpt lat="44.48856" lon="2.92099">
        <ele>423.2</ele>
        <time>2022-07-12T08:14:47Z</time>
      </trkpt>
      <trkpt lat="44.48864" lon="2.92114">
        <ele>423</ele>
        <time>2022-07-12T08:14:50Z</time>
      </trkpt>
      <trkpt lat="44.4888" lon="2.92134">
        <ele>422.8</ele>
        <time>2022-07-12T08:14:54Z</time>
      </trkpt>
      <trkpt lat="44.48891" lon="2.92152">
        <ele>422.8</ele>
        <time>2022-07-12T08:14:57Z</time>
      </trkpt>
      <trkpt lat="44.48896" lon="2.92165">
        <ele>422.6</ele>
        <time>2022-07-12T08:14:59Z</time>
      </trkpt>
      <trkpt lat="44.48898" lon="2.9218">
        <ele>422.6</ele>
        <time>2022-07-12T08:15:01Z</time>
      </trkpt>
      <trkpt lat="44.48907" lon="2.92221">
        <ele>422.4</ele>
        <time>2022-07-12T08:15:07Z</time>
      </trkpt>
      <trkpt lat="44.4891" lon="2.92241">
        <ele>422.2</ele>
        <time>2022-07-12T08:15:10Z</time>
      </trkpt>
      <trkpt lat="44.48911" lon="2.92262">
        <ele>422.2</ele>
        <time>2022-07-12T08:15:13Z</time>
      </trkpt>
      <trkpt lat="44.4891" lon="2.92268">
        <ele>422.2</ele>
        <time>2022-07-12T08:15:14Z</time>
      </trkpt>
      <trkpt lat="44.48909" lon="2.9228">
        <ele>422</ele>
        <time>2022-07-12T08:15:16Z</time>
      </trkpt>
      <trkpt lat="44.48912" lon="2.92294">
        <ele>422</ele>
        <time>2022-07-12T08:15:18Z</time>
      </trkpt>
      <trkpt lat="44.48915" lon="2.92326">
        <ele>421.8</ele>
        <time>2022-07-12T08:15:23Z</time>
      </trkpt>
      <trkpt lat="44.48918" lon="2.92332">
        <ele>421.8</ele>
        <time>2022-07-12T08:15:24Z</time>
      </trkpt>
      <trkpt lat="44.48919" lon="2.92338">
        <ele>421.8</ele>
        <time>2022-07-12T08:15:25Z</time>
      </trkpt>
      <trkpt lat="44.48918" lon="2.92355">
        <ele>421.8</ele>
        <time>2022-07-12T08:15:28Z</time>
      </trkpt>
      <trkpt lat="44.48917" lon="2.9238">
        <ele>422.2</ele>
        <time>2022-07-12T08:15:32Z</time>
      </trkpt>
      <trkpt lat="44.48908" lon="2.92398">
        <ele>422.2</ele>
        <time>2022-07-12T08:15:36Z</time>
      </trkpt>
      <trkpt lat="44.48902" lon="2.92429">
        <ele>422.6</ele>
        <time>2022-07-12T08:15:41Z</time>
      </trkpt>
      <trkpt lat="44.48896" lon="2.92443">
        <ele>422.8</ele>
        <time>2022-07-12T08:15:44Z</time>
      </trkpt>
      <trkpt lat="44.48896" lon="2.9245">
        <ele>422.6</ele>
        <time>2022-07-12T08:15:45Z</time>
      </trkpt>
      <trkpt lat="44.48888" lon="2.92485">
        <ele>422.4</ele>
        <time>2022-07-12T08:15:50Z</time>
      </trkpt>
      <trkpt lat="44.48883" lon="2.92505">
        <ele>422.2</ele>
        <time>2022-07-12T08:15:53Z</time>
      </trkpt>
      <trkpt lat="44.48879" lon="2.92507">
        <ele>422.2</ele>
        <time>2022-07-12T08:15:54Z</time>
      </trkpt>
      <trkpt lat="44.48876" lon="2.92511">
        <ele>422.2</ele>
        <time>2022-07-12T08:15:55Z</time>
      </trkpt>
      <trkpt lat="44.48868" lon="2.92525">
        <ele>422.2</ele>
        <time>2022-07-12T08:15:58Z</time>
      </trkpt>
      <trkpt lat="44.48862" lon="2.9254">
        <ele>422.2</ele>
        <time>2022-07-12T08:16:01Z</time>
      </trkpt>
      <trkpt lat="44.4886" lon="2.92544">
        <ele>422.2</ele>
        <time>2022-07-12T08:16:02Z</time>
      </trkpt>
      <trkpt lat="44.48854" lon="2.92564">
        <ele>422.2</ele>
        <time>2022-07-12T08:16:06Z</time>
      </trkpt>
      <trkpt lat="44.48852" lon="2.92568">
        <ele>422.2</ele>
        <time>2022-07-12T08:16:07Z</time>
      </trkpt>
      <trkpt lat="44.48847" lon="2.92575">
        <ele>422.2</ele>
        <time>2022-07-12T08:16:09Z</time>
      </trkpt>
      <trkpt lat="44.48842" lon="2.9259">
        <ele>422</ele>
        <time>2022-07-12T08:16:12Z</time>
      </trkpt>
      <trkpt lat="44.48839" lon="2.92595">
        <ele>422</ele>
        <time>2022-07-12T08:16:13Z</time>
      </trkpt>
      <trkpt lat="44.4883" lon="2.92613">
        <ele>422</ele>
        <time>2022-07-12T08:16:16Z</time>
      </trkpt>
      <trkpt lat="44.48829" lon="2.9262">
        <ele>422</ele>
        <time>2022-07-12T08:16:17Z</time>
      </trkpt>
      <trkpt lat="44.48828" lon="2.9265">
        <ele>421.6</ele>
        <time>2022-07-12T08:16:21Z</time>
      </trkpt>
      <trkpt lat="44.48825" lon="2.92659">
        <ele>421.6</ele>
        <time>2022-07-12T08:16:22Z</time>
      </trkpt>
      <trkpt lat="44.48811" lon="2.92685">
        <ele>421.4</ele>
        <time>2022-07-12T08:16:27Z</time>
      </trkpt>
      <trkpt lat="44.48798" lon="2.92694">
        <ele>421.4</ele>
        <time>2022-07-12T08:16:30Z</time>
      </trkpt>
      <trkpt lat="44.4879" lon="2.92702">
        <ele>421.4</ele>
        <time>2022-07-12T08:16:32Z</time>
      </trkpt>
      <trkpt lat="44.48776" lon="2.9272">
        <ele>421.4</ele>
        <time>2022-07-12T08:16:37Z</time>
      </trkpt>
      <trkpt lat="44.48749" lon="2.9274">
        <ele>421.4</ele>
        <time>2022-07-12T08:16:43Z</time>
      </trkpt>
      <trkpt lat="44.48738" lon="2.92756">
        <ele>421.6</ele>
        <time>2022-07-12T08:16:47Z</time>
      </trkpt>
      <trkpt lat="44.48735" lon="2.92756">
        <ele>421.6</ele>
        <time>2022-07-12T08:16:48Z</time>
      </trkpt>
      <trkpt lat="44.48726" lon="2.92754">
        <ele>421.6</ele>
        <time>2022-07-12T08:16:51Z</time>
      </trkpt>
      <trkpt lat="44.48708" lon="2.9276">
        <ele>421.6</ele>
        <time>2022-07-12T08:16:56Z</time>
      </trkpt>
      <trkpt lat="44.48696" lon="2.92761">
        <ele>421.8</ele>
        <time>2022-07-12T08:17:00Z</time>
      </trkpt>
      <trkpt lat="44.4868" lon="2.92761">
        <ele>421.8</ele>
        <time>2022-07-12T08:17:05Z</time>
      </trkpt>
      <trkpt lat="44.48668" lon="2.92762">
        <ele>421.8</ele>
        <time>2022-07-12T08:17:09Z</time>
      </trkpt>
      <trkpt lat="44.48665" lon="2.92761">
        <ele>421.8</ele>
        <time>2022-07-12T08:17:10Z</time>
      </trkpt>
      <trkpt lat="44.48663" lon="2.9276">
        <ele>421.8</ele>
        <time>2022-07-12T08:17:12Z</time>
      </trkpt>
      <trkpt lat="44.48659" lon="2.92759">
        <ele>421.8</ele>
        <time>2022-07-12T08:17:13Z</time>
      </trkpt>
      <trkpt lat="44.48634" lon="2.92759">
        <ele>421.8</ele>
        <time>2022-07-12T08:17:17Z</time>
      </trkpt>
      <trkpt lat="44.48608" lon="2.92763">
        <ele>421.6</ele>
        <time>2022-07-12T08:17:23Z</time>
      </trkpt>
      <trkpt lat="44.48579" lon="2.92759">
        <ele>421.6</ele>
        <time>2022-07-12T08:17:29Z</time>
      </trkpt>
      <trkpt lat="44.48551" lon="2.92752">
        <ele>421.8</ele>
        <time>2022-07-12T08:17:35Z</time>
      </trkpt>
      <trkpt lat="44.48517" lon="2.92743">
        <ele>422.2</ele>
        <time>2022-07-12T08:17:41Z</time>
      </trkpt>
      <trkpt lat="44.48506" lon="2.92739">
        <ele>422.4</ele>
        <time>2022-07-12T08:17:44Z</time>
      </trkpt>
      <trkpt lat="44.48483" lon="2.92736">
        <ele>422.6</ele>
        <time>2022-07-12T08:17:48Z</time>
      </trkpt>
      <trkpt lat="44.48462" lon="2.92731">
        <ele>422.8</ele>
        <time>2022-07-12T08:17:53Z</time>
      </trkpt>
      <trkpt lat="44.48457" lon="2.92731">
        <ele>422.4</ele>
        <time>2022-07-12T08:17:54Z</time>
      </trkpt>
      <trkpt lat="44.48444" lon="2.92721">
        <ele>422.2</ele>
        <time>2022-07-12T08:17:57Z</time>
      </trkpt>
      <trkpt lat="44.48431" lon="2.92723">
        <ele>422</ele>
        <time>2022-07-12T08:17:59Z</time>
      </trkpt>
      <trkpt lat="44.48424" lon="2.92721">
        <ele>421.6</ele>
        <time>2022-07-12T08:18:01Z</time>
      </trkpt>
      <trkpt lat="44.48416" lon="2.92719">
        <ele>421.6</ele>
        <time>2022-07-12T08:18:03Z</time>
      </trkpt>
      <trkpt lat="44.48412" lon="2.92719">
        <ele>421.6</ele>
        <time>2022-07-12T08:18:04Z</time>
      </trkpt>
      <trkpt lat="44.48409" lon="2.92718">
        <ele>421.6</ele>
        <time>2022-07-12T08:18:05Z</time>
      </trkpt>
      <trkpt lat="44.48399" lon="2.92711">
        <ele>421.4</ele>
        <time>2022-07-12T08:18:08Z</time>
      </trkpt>
      <trkpt lat="44.48382" lon="2.92699">
        <ele>421.4</ele>
        <time>2022-07-12T08:18:13Z</time>
      </trkpt>
      <trkpt lat="44.48366" lon="2.92689">
        <ele>421.6</ele>
        <time>2022-07-12T08:18:17Z</time>
      </trkpt>
      <trkpt lat="44.48347" lon="2.92674">
        <ele>421.8</ele>
        <time>2022-07-12T08:18:22Z</time>
      </trkpt>
      <trkpt lat="44.4832" lon="2.92659">
        <ele>422</ele>
        <time>2022-07-12T08:18:27Z</time>
      </trkpt>
      <trkpt lat="44.483" lon="2.92637">
        <ele>422</ele>
        <time>2022-07-12T08:18:32Z</time>
      </trkpt>
      <trkpt lat="44.48294" lon="2.92636">
        <ele>421.8</ele>
        <time>2022-07-12T08:18:33Z</time>
      </trkpt>
      <trkpt lat="44.48275" lon="2.9263">
        <ele>421.6</ele>
        <time>2022-07-12T08:18:36Z</time>
      </trkpt>
      <trkpt lat="44.48271" lon="2.9263">
        <ele>421.6</ele>
        <time>2022-07-12T08:18:37Z</time>
      </trkpt>
      <trkpt lat="44.48266" lon="2.92626">
        <ele>421.6</ele>
        <time>2022-07-12T08:18:38Z</time>
      </trkpt>
      <trkpt lat="44.48245" lon="2.92615">
        <ele>421.4</ele>
        <time>2022-07-12T08:18:42Z</time>
      </trkpt>
      <trkpt lat="44.48239" lon="2.92613">
        <ele>421.2</ele>
        <time>2022-07-12T08:18:43Z</time>
      </trkpt>
      <trkpt lat="44.48229" lon="2.92607">
        <ele>421.2</ele>
        <time>2022-07-12T08:18:45Z</time>
      </trkpt>
      <trkpt lat="44.48223" lon="2.92603">
        <ele>421.2</ele>
        <time>2022-07-12T08:18:46Z</time>
      </trkpt>
      <trkpt lat="44.48216" lon="2.926">
        <ele>421</ele>
        <time>2022-07-12T08:18:47Z</time>
      </trkpt>
      <trkpt lat="44.48199" lon="2.926">
        <ele>420.8</ele>
        <time>2022-07-12T08:18:50Z</time>
      </trkpt>
      <trkpt lat="44.48195" lon="2.92599">
        <ele>420.8</ele>
        <time>2022-07-12T08:18:51Z</time>
      </trkpt>
      <trkpt lat="44.4818" lon="2.92592">
        <ele>420.8</ele>
        <time>2022-07-12T08:18:55Z</time>
      </trkpt>
      <trkpt lat="44.48164" lon="2.92578">
        <ele>421.2</ele>
        <time>2022-07-12T08:19:00Z</time>
      </trkpt>
      <trkpt lat="44.48137" lon="2.92551">
        <ele>421.4</ele>
        <time>2022-07-12T08:19:08Z</time>
      </trkpt>
      <trkpt lat="44.48104" lon="2.92535">
        <ele>421.8</ele>
        <time>2022-07-12T08:19:15Z</time>
      </trkpt>
      <trkpt lat="44.48087" lon="2.92528">
        <ele>422</ele>
        <time>2022-07-12T08:19:18Z</time>
      </trkpt>
      <trkpt lat="44.48075" lon="2.92521">
        <ele>422</ele>
        <time>2022-07-12T08:19:21Z</time>
      </trkpt>
      <trkpt lat="44.4805" lon="2.92512">
        <ele>422</ele>
        <time>2022-07-12T08:19:28Z</time>
      </trkpt>
      <trkpt lat="44.48031" lon="2.92496">
        <ele>421.8</ele>
        <time>2022-07-12T08:19:33Z</time>
      </trkpt>
      <trkpt lat="44.48001" lon="2.92466">
        <ele>421.6</ele>
        <time>2022-07-12T08:19:39Z</time>
      </trkpt>
      <trkpt lat="44.47993" lon="2.92458">
        <ele>421.4</ele>
        <time>2022-07-12T08:19:41Z</time>
      </trkpt>
      <trkpt lat="44.47986" lon="2.92449">
        <ele>421.2</ele>
        <time>2022-07-12T08:19:43Z</time>
      </trkpt>
      <trkpt lat="44.47984" lon="2.92445">
        <ele>421.2</ele>
        <time>2022-07-12T08:19:44Z</time>
      </trkpt>
      <trkpt lat="44.47981" lon="2.92439">
        <ele>420.8</ele>
        <time>2022-07-12T08:19:45Z</time>
      </trkpt>
      <trkpt lat="44.47963" lon="2.92406">
        <ele>420.4</ele>
        <time>2022-07-12T08:19:51Z</time>
      </trkpt>
      <trkpt lat="44.4796" lon="2.92401">
        <ele>420.4</ele>
        <time>2022-07-12T08:19:52Z</time>
      </trkpt>
      <trkpt lat="44.47952" lon="2.9239">
        <ele>420.4</ele>
        <time>2022-07-12T08:19:55Z</time>
      </trkpt>
      <trkpt lat="44.47936" lon="2.92379">
        <ele>420.4</ele>
        <time>2022-07-12T08:19:58Z</time>
      </trkpt>
      <trkpt lat="44.47926" lon="2.92374">
        <ele>420.4</ele>
        <time>2022-07-12T08:20:00Z</time>
      </trkpt>
      <trkpt lat="44.47916" lon="2.92371">
        <ele>420.4</ele>
        <time>2022-07-12T08:20:02Z</time>
      </trkpt>
      <trkpt lat="44.47895" lon="2.92366">
        <ele>420.6</ele>
        <time>2022-07-12T08:20:06Z</time>
      </trkpt>
      <trkpt lat="44.47884" lon="2.92365">
        <ele>420.4</ele>
        <time>2022-07-12T08:20:08Z</time>
      </trkpt>
      <trkpt lat="44.47879" lon="2.92366">
        <ele>420.4</ele>
        <time>2022-07-12T08:20:09Z</time>
      </trkpt>
      <trkpt lat="44.47874" lon="2.92366">
        <ele>420.4</ele>
        <time>2022-07-12T08:20:10Z</time>
      </trkpt>
      <trkpt lat="44.47844" lon="2.92377">
        <ele>420</ele>
        <time>2022-07-12T08:20:17Z</time>
      </trkpt>
      <trkpt lat="44.4783" lon="2.92384">
        <ele>419.8</ele>
        <time>2022-07-12T08:20:21Z</time>
      </trkpt>
      <trkpt lat="44.47824" lon="2.92391">
        <ele>419.8</ele>
        <time>2022-07-12T08:20:23Z</time>
      </trkpt>
      <trkpt lat="44.4781" lon="2.92395">
        <ele>419.8</ele>
        <time>2022-07-12T08:20:28Z</time>
      </trkpt>
      <trkpt lat="44.47806" lon="2.92395">
        <ele>419.8</ele>
        <time>2022-07-12T08:20:30Z</time>
      </trkpt>
      <trkpt lat="44.47806" lon="2.92395">
        <ele>419.6</ele>
        <time>2022-07-12T08:20:32Z</time>
      </trkpt>
      <trkpt lat="44.47806" lon="2.92395">
        <ele>419.6</ele>
        <time>2022-07-12T08:20:33Z</time>
      </trkpt>
      <trkpt lat="44.47805" lon="2.92396">
        <ele>419.6</ele>
        <time>2022-07-12T08:20:36Z</time>
      </trkpt>
      <trkpt lat="44.47803" lon="2.92396">
        <ele>419.4</ele>
        <time>2022-07-12T08:20:40Z</time>
      </trkpt>
      <trkpt lat="44.47803" lon="2.92396">
        <ele>419.4</ele>
        <time>2022-07-12T08:20:42Z</time>
      </trkpt>
      <trkpt lat="44.47804" lon="2.92395">
        <ele>419.8</ele>
        <time>2022-07-12T08:26:22Z</time>
      </trkpt>
      <trkpt lat="44.47806" lon="2.92394">
        <ele>419.6</ele>
        <time>2022-07-12T08:26:25Z</time>
      </trkpt>
      <trkpt lat="44.47805" lon="2.9239">
        <ele>419.6</ele>
        <time>2022-07-12T08:26:30Z</time>
      </trkpt>
      <trkpt lat="44.47803" lon="2.92386">
        <ele>419.4</ele>
        <time>2022-07-12T08:26:32Z</time>
      </trkpt>
      <trkpt lat="44.47793" lon="2.92379">
        <ele>419.4</ele>
        <time>2022-07-12T08:26:36Z</time>
      </trkpt>
      <trkpt lat="44.4777" lon="2.92365">
        <ele>419.8</ele>
        <time>2022-07-12T08:26:42Z</time>
      </trkpt>
      <trkpt lat="44.47752" lon="2.92344">
        <ele>420</ele>
        <time>2022-07-12T08:26:47Z</time>
      </trkpt>
      <trkpt lat="44.47728" lon="2.92321">
        <ele>420.6</ele>
        <time>2022-07-12T08:26:52Z</time>
      </trkpt>
      <trkpt lat="44.47724" lon="2.92317">
        <ele>420.6</ele>
        <time>2022-07-12T08:26:53Z</time>
      </trkpt>
      <trkpt lat="44.47719" lon="2.92314">
        <ele>420.6</ele>
        <time>2022-07-12T08:26:54Z</time>
      </trkpt>
      <trkpt lat="44.47704" lon="2.92307">
        <ele>420.8</ele>
        <time>2022-07-12T08:26:57Z</time>
      </trkpt>
      <trkpt lat="44.47699" lon="2.92306">
        <ele>420.8</ele>
        <time>2022-07-12T08:26:58Z</time>
      </trkpt>
      <trkpt lat="44.47677" lon="2.92302">
        <ele>421</ele>
        <time>2022-07-12T08:27:03Z</time>
      </trkpt>
      <trkpt lat="44.47657" lon="2.92304">
        <ele>421.2</ele>
        <time>2022-07-12T08:27:08Z</time>
      </trkpt>
      <trkpt lat="44.47639" lon="2.92305">
        <ele>421.8</ele>
        <time>2022-07-12T08:27:14Z</time>
      </trkpt>
      <trkpt lat="44.47635" lon="2.92306">
        <ele>422.2</ele>
        <time>2022-07-12T08:27:15Z</time>
      </trkpt>
      <trkpt lat="44.47616" lon="2.92309">
        <ele>423</ele>
        <time>2022-07-12T08:27:21Z</time>
      </trkpt>
      <trkpt lat="44.47613" lon="2.9231">
        <ele>423.4</ele>
        <time>2022-07-12T08:27:22Z</time>
      </trkpt>
      <trkpt lat="44.47594" lon="2.92309">
        <ele>424.2</ele>
        <time>2022-07-12T08:27:29Z</time>
      </trkpt>
      <trkpt lat="44.47581" lon="2.923">
        <ele>424.6</ele>
        <time>2022-07-12T08:27:35Z</time>
      </trkpt>
      <trkpt lat="44.47576" lon="2.92298">
        <ele>424.8</ele>
        <time>2022-07-12T08:27:37Z</time>
      </trkpt>
      <trkpt lat="44.47557" lon="2.92296">
        <ele>425.4</ele>
        <time>2022-07-12T08:27:44Z</time>
      </trkpt>
      <trkpt lat="44.47547" lon="2.92296">
        <ele>425.6</ele>
        <time>2022-07-12T08:27:48Z</time>
      </trkpt>
      <trkpt lat="44.47532" lon="2.92294">
        <ele>426</ele>
        <time>2022-07-12T08:27:54Z</time>
      </trkpt>
      <trkpt lat="44.47513" lon="2.92289">
        <ele>426.8</ele>
        <time>2022-07-12T08:28:02Z</time>
      </trkpt>
      <trkpt lat="44.47511" lon="2.92288">
        <ele>426.8</ele>
        <time>2022-07-12T08:28:03Z</time>
      </trkpt>
      <trkpt lat="44.47496" lon="2.92281">
        <ele>427.8</ele>
        <time>2022-07-12T08:28:11Z</time>
      </trkpt>
      <trkpt lat="44.47489" lon="2.92279">
        <ele>428.2</ele>
        <time>2022-07-12T08:28:14Z</time>
      </trkpt>
      <trkpt lat="44.47483" lon="2.92276">
        <ele>429</ele>
        <time>2022-07-12T08:28:18Z</time>
      </trkpt>
      <trkpt lat="44.47479" lon="2.92275">
        <ele>429.2</ele>
        <time>2022-07-12T08:28:20Z</time>
      </trkpt>
      <trkpt lat="44.47472" lon="2.92271">
        <ele>430</ele>
        <time>2022-07-12T08:28:24Z</time>
      </trkpt>
      <trkpt lat="44.47461" lon="2.92266">
        <ele>431</ele>
        <time>2022-07-12T08:28:30Z</time>
      </trkpt>
      <trkpt lat="44.47459" lon="2.92265">
        <ele>431.2</ele>
        <time>2022-07-12T08:28:31Z</time>
      </trkpt>
      <trkpt lat="44.47442" lon="2.92253">
        <ele>432.2</ele>
        <time>2022-07-12T08:28:40Z</time>
      </trkpt>
      <trkpt lat="44.47429" lon="2.92239">
        <ele>433.2</ele>
        <time>2022-07-12T08:28:47Z</time>
      </trkpt>
      <trkpt lat="44.47427" lon="2.92239">
        <ele>433.2</ele>
        <time>2022-07-12T08:28:48Z</time>
      </trkpt>
      <trkpt lat="44.47422" lon="2.92237">
        <ele>433.4</ele>
        <time>2022-07-12T08:28:50Z</time>
      </trkpt>
      <trkpt lat="44.47413" lon="2.92241">
        <ele>434</ele>
        <time>2022-07-12T08:28:54Z</time>
      </trkpt>
      <trkpt lat="44.47407" lon="2.92245">
        <ele>434.4</ele>
        <time>2022-07-12T08:28:57Z</time>
      </trkpt>
      <trkpt lat="44.47396" lon="2.92246">
        <ele>434.8</ele>
        <time>2022-07-12T08:29:01Z</time>
      </trkpt>
      <trkpt lat="44.47372" lon="2.92246">
        <ele>434.8</ele>
        <time>2022-07-12T08:29:08Z</time>
      </trkpt>
      <trkpt lat="44.47368" lon="2.92247">
        <ele>434.8</ele>
        <time>2022-07-12T08:29:09Z</time>
      </trkpt>
      <trkpt lat="44.47351" lon="2.92256">
        <ele>434.8</ele>
        <time>2022-07-12T08:29:14Z</time>
      </trkpt>
      <trkpt lat="44.47331" lon="2.9226">
        <ele>434.8</ele>
        <time>2022-07-12T08:29:19Z</time>
      </trkpt>
      <trkpt lat="44.47317" lon="2.92264">
        <ele>434.6</ele>
        <time>2022-07-12T08:29:22Z</time>
      </trkpt>
      <trkpt lat="44.47313" lon="2.92268">
        <ele>434.6</ele>
        <time>2022-07-12T08:29:23Z</time>
      </trkpt>
      <trkpt lat="44.47311" lon="2.92274">
        <ele>434.4</ele>
        <time>2022-07-12T08:29:24Z</time>
      </trkpt>
      <trkpt lat="44.47309" lon="2.9229">
        <ele>434.2</ele>
        <time>2022-07-12T08:29:27Z</time>
      </trkpt>
      <trkpt lat="44.47306" lon="2.92301">
        <ele>434.2</ele>
        <time>2022-07-12T08:29:29Z</time>
      </trkpt>
      <trkpt lat="44.47297" lon="2.92317">
        <ele>434</ele>
        <time>2022-07-12T08:29:32Z</time>
      </trkpt>
      <trkpt lat="44.47272" lon="2.92336">
        <ele>433.8</ele>
        <time>2022-07-12T08:29:37Z</time>
      </trkpt>
      <trkpt lat="44.47253" lon="2.92351">
        <ele>433.2</ele>
        <time>2022-07-12T08:29:40Z</time>
      </trkpt>
      <trkpt lat="44.47239" lon="2.9236">
        <ele>432.6</ele>
        <time>2022-07-12T08:29:42Z</time>
      </trkpt>
      <trkpt lat="44.47224" lon="2.92368">
        <ele>431.8</ele>
        <time>2022-07-12T08:29:44Z</time>
      </trkpt>
      <trkpt lat="44.47208" lon="2.92369">
        <ele>431</ele>
        <time>2022-07-12T08:29:46Z</time>
      </trkpt>
      <trkpt lat="44.47201" lon="2.92366">
        <ele>430.8</ele>
        <time>2022-07-12T08:29:47Z</time>
      </trkpt>
      <trkpt lat="44.4719" lon="2.92359">
        <ele>430</ele>
        <time>2022-07-12T08:29:49Z</time>
      </trkpt>
      <trkpt lat="44.47186" lon="2.92359">
        <ele>429.8</ele>
        <time>2022-07-12T08:29:50Z</time>
      </trkpt>
      <trkpt lat="44.47182" lon="2.92361">
        <ele>429.6</ele>
        <time>2022-07-12T08:29:51Z</time>
      </trkpt>
      <trkpt lat="44.47177" lon="2.92368">
        <ele>429.4</ele>
        <time>2022-07-12T08:29:53Z</time>
      </trkpt>
      <trkpt lat="44.47173" lon="2.9239">
        <ele>430</ele>
        <time>2022-07-12T08:29:58Z</time>
      </trkpt>
      <trkpt lat="44.47168" lon="2.9241">
        <ele>431</ele>
        <time>2022-07-12T08:30:03Z</time>
      </trkpt>
      <trkpt lat="44.47164" lon="2.92416">
        <ele>431.4</ele>
        <time>2022-07-12T08:30:05Z</time>
      </trkpt>
      <trkpt lat="44.47153" lon="2.92422">
        <ele>432</ele>
        <time>2022-07-12T08:30:09Z</time>
      </trkpt>
      <trkpt lat="44.47151" lon="2.92424">
        <ele>432</ele>
        <time>2022-07-12T08:30:10Z</time>
      </trkpt>
      <trkpt lat="44.47144" lon="2.92432">
        <ele>432.2</ele>
        <time>2022-07-12T08:30:14Z</time>
      </trkpt>
      <trkpt lat="44.47131" lon="2.92444">
        <ele>432.6</ele>
        <time>2022-07-12T08:30:20Z</time>
      </trkpt>
      <trkpt lat="44.47119" lon="2.92458">
        <ele>433.2</ele>
        <time>2022-07-12T08:30:25Z</time>
      </trkpt>
      <trkpt lat="44.47117" lon="2.9246">
        <ele>433.2</ele>
        <time>2022-07-12T08:30:26Z</time>
      </trkpt>
      <trkpt lat="44.47108" lon="2.92476">
        <ele>433.8</ele>
        <time>2022-07-12T08:30:32Z</time>
      </trkpt>
      <trkpt lat="44.47095" lon="2.92496">
        <ele>434.2</ele>
        <time>2022-07-12T08:30:38Z</time>
      </trkpt>
      <trkpt lat="44.47093" lon="2.92498">
        <ele>434.2</ele>
        <time>2022-07-12T08:30:39Z</time>
      </trkpt>
      <trkpt lat="44.47078" lon="2.9251">
        <ele>434.4</ele>
        <time>2022-07-12T08:30:45Z</time>
      </trkpt>
      <trkpt lat="44.47072" lon="2.92532">
        <ele>434.2</ele>
        <time>2022-07-12T08:30:49Z</time>
      </trkpt>
      <trkpt lat="44.47064" lon="2.9256">
        <ele>434.2</ele>
        <time>2022-07-12T08:30:53Z</time>
      </trkpt>
      <trkpt lat="44.4706" lon="2.92583">
        <ele>434.2</ele>
        <time>2022-07-12T08:30:57Z</time>
      </trkpt>
      <trkpt lat="44.47062" lon="2.9261">
        <ele>434.2</ele>
        <time>2022-07-12T08:31:00Z</time>
      </trkpt>
      <trkpt lat="44.47063" lon="2.92624">
        <ele>434.2</ele>
        <time>2022-07-12T08:31:02Z</time>
      </trkpt>
      <trkpt lat="44.47068" lon="2.92635">
        <ele>434.4</ele>
        <time>2022-07-12T08:31:04Z</time>
      </trkpt>
      <trkpt lat="44.47069" lon="2.92644">
        <ele>434.6</ele>
        <time>2022-07-12T08:31:06Z</time>
      </trkpt>
      <trkpt lat="44.47065" lon="2.9266">
        <ele>435</ele>
        <time>2022-07-12T08:31:10Z</time>
      </trkpt>
      <trkpt lat="44.47064" lon="2.92662">
        <ele>435.2</ele>
        <time>2022-07-12T08:31:12Z</time>
      </trkpt>
      <trkpt lat="44.47062" lon="2.92665">
        <ele>435.2</ele>
        <time>2022-07-12T08:31:13Z</time>
      </trkpt>
      <trkpt lat="44.47058" lon="2.92673">
        <ele>435.4</ele>
        <time>2022-07-12T08:31:15Z</time>
      </trkpt>
      <trkpt lat="44.47054" lon="2.92688">
        <ele>436</ele>
        <time>2022-07-12T08:31:19Z</time>
      </trkpt>
      <trkpt lat="44.47054" lon="2.9269">
        <ele>436.2</ele>
        <time>2022-07-12T08:31:20Z</time>
      </trkpt>
      <trkpt lat="44.47054" lon="2.9269">
        <ele>436.4</ele>
        <time>2022-07-12T08:31:21Z</time>
      </trkpt>
      <trkpt lat="44.47052" lon="2.92697">
        <ele>436.8</ele>
        <time>2022-07-12T08:31:23Z</time>
      </trkpt>
      <trkpt lat="44.4705" lon="2.927">
        <ele>436.8</ele>
        <time>2022-07-12T08:31:24Z</time>
      </trkpt>
      <trkpt lat="44.47045" lon="2.92709">
        <ele>437.2</ele>
        <time>2022-07-12T08:31:27Z</time>
      </trkpt>
      <trkpt lat="44.47044" lon="2.92716">
        <ele>437.8</ele>
        <time>2022-07-12T08:31:29Z</time>
      </trkpt>
      <trkpt lat="44.47043" lon="2.92719">
        <ele>438.2</ele>
        <time>2022-07-12T08:31:30Z</time>
      </trkpt>
      <trkpt lat="44.47042" lon="2.92725">
        <ele>438.4</ele>
        <time>2022-07-12T08:31:32Z</time>
      </trkpt>
      <trkpt lat="44.4704" lon="2.92728">
        <ele>438.6</ele>
        <time>2022-07-12T08:31:33Z</time>
      </trkpt>
      <trkpt lat="44.47038" lon="2.92733">
        <ele>439</ele>
        <time>2022-07-12T08:31:35Z</time>
      </trkpt>
      <trkpt lat="44.47036" lon="2.92739">
        <ele>439.4</ele>
        <time>2022-07-12T08:31:37Z</time>
      </trkpt>
      <trkpt lat="44.47036" lon="2.92741">
        <ele>439.6</ele>
        <time>2022-07-12T08:31:38Z</time>
      </trkpt>
      <trkpt lat="44.47034" lon="2.92767">
        <ele>440.4</ele>
        <time>2022-07-12T08:31:44Z</time>
      </trkpt>
      <trkpt lat="44.47032" lon="2.92773">
        <ele>440.6</ele>
        <time>2022-07-12T08:31:45Z</time>
      </trkpt>
      <trkpt lat="44.47022" lon="2.9279">
        <ele>441.6</ele>
        <time>2022-07-12T08:31:51Z</time>
      </trkpt>
      <trkpt lat="44.47022" lon="2.92793">
        <ele>441.6</ele>
        <time>2022-07-12T08:31:52Z</time>
      </trkpt>
      <trkpt lat="44.47025" lon="2.928">
        <ele>441.8</ele>
        <time>2022-07-12T08:31:54Z</time>
      </trkpt>
      <trkpt lat="44.47025" lon="2.9281">
        <ele>441.8</ele>
        <time>2022-07-12T08:31:56Z</time>
      </trkpt>
      <trkpt lat="44.47026" lon="2.92813">
        <ele>442</ele>
        <time>2022-07-12T08:31:57Z</time>
      </trkpt>
      <trkpt lat="44.47031" lon="2.92829">
        <ele>442.4</ele>
        <time>2022-07-12T08:32:00Z</time>
      </trkpt>
      <trkpt lat="44.47021" lon="2.92848">
        <ele>443</ele>
        <time>2022-07-12T08:32:05Z</time>
      </trkpt>
      <trkpt lat="44.47009" lon="2.92864">
        <ele>443.2</ele>
        <time>2022-07-12T08:32:10Z</time>
      </trkpt>
      <trkpt lat="44.47007" lon="2.92873">
        <ele>443.2</ele>
        <time>2022-07-12T08:32:13Z</time>
      </trkpt>
      <trkpt lat="44.47008" lon="2.92877">
        <ele>443</ele>
        <time>2022-07-12T08:32:14Z</time>
      </trkpt>
      <trkpt lat="44.47014" lon="2.92912">
        <ele>442.8</ele>
        <time>2022-07-12T08:32:19Z</time>
      </trkpt>
      <trkpt lat="44.47022" lon="2.92937">
        <ele>442.4</ele>
        <time>2022-07-12T08:32:23Z</time>
      </trkpt>
      <trkpt lat="44.47026" lon="2.92956">
        <ele>442</ele>
        <time>2022-07-12T08:32:25Z</time>
      </trkpt>
      <trkpt lat="44.47027" lon="2.92976">
        <ele>441.4</ele>
        <time>2022-07-12T08:32:27Z</time>
      </trkpt>
      <trkpt lat="44.47027" lon="2.92986">
        <ele>441.2</ele>
        <time>2022-07-12T08:32:28Z</time>
      </trkpt>
      <trkpt lat="44.47028" lon="2.92996">
        <ele>441</ele>
        <time>2022-07-12T08:32:29Z</time>
      </trkpt>
      <trkpt lat="44.47031" lon="2.93014">
        <ele>440.8</ele>
        <time>2022-07-12T08:32:31Z</time>
      </trkpt>
      <trkpt lat="44.47033" lon="2.93035">
        <ele>440.4</ele>
        <time>2022-07-12T08:32:33Z</time>
      </trkpt>
      <trkpt lat="44.47036" lon="2.93046">
        <ele>440.2</ele>
        <time>2022-07-12T08:32:34Z</time>
      </trkpt>
      <trkpt lat="44.47039" lon="2.93053">
        <ele>440.2</ele>
        <time>2022-07-12T08:32:35Z</time>
      </trkpt>
      <trkpt lat="44.47055" lon="2.93078">
        <ele>439.2</ele>
        <time>2022-07-12T08:32:39Z</time>
      </trkpt>
      <trkpt lat="44.47057" lon="2.93084">
        <ele>439</ele>
        <time>2022-07-12T08:32:40Z</time>
      </trkpt>
      <trkpt lat="44.47058" lon="2.9309">
        <ele>438.8</ele>
        <time>2022-07-12T08:32:41Z</time>
      </trkpt>
      <trkpt lat="44.47054" lon="2.93104">
        <ele>438.4</ele>
        <time>2022-07-12T08:32:43Z</time>
      </trkpt>
      <trkpt lat="44.47053" lon="2.93124">
        <ele>438</ele>
        <time>2022-07-12T08:32:45Z</time>
      </trkpt>
      <trkpt lat="44.47054" lon="2.93136">
        <ele>437.8</ele>
        <time>2022-07-12T08:32:46Z</time>
      </trkpt>
      <trkpt lat="44.47055" lon="2.93147">
        <ele>437.4</ele>
        <time>2022-07-12T08:32:47Z</time>
      </trkpt>
      <trkpt lat="44.47059" lon="2.93168">
        <ele>437</ele>
        <time>2022-07-12T08:32:49Z</time>
      </trkpt>
      <trkpt lat="44.47062" lon="2.93178">
        <ele>436.6</ele>
        <time>2022-07-12T08:32:50Z</time>
      </trkpt>
      <trkpt lat="44.47067" lon="2.93199">
        <ele>435.4</ele>
        <time>2022-07-12T08:32:52Z</time>
      </trkpt>
      <trkpt lat="44.47074" lon="2.93223">
        <ele>434.4</ele>
        <time>2022-07-12T08:32:54Z</time>
      </trkpt>
      <trkpt lat="44.47082" lon="2.93252">
        <ele>433.4</ele>
        <time>2022-07-12T08:32:56Z</time>
      </trkpt>
      <trkpt lat="44.47091" lon="2.93279">
        <ele>431.8</ele>
        <time>2022-07-12T08:32:58Z</time>
      </trkpt>
      <trkpt lat="44.47096" lon="2.9329">
        <ele>430.8</ele>
        <time>2022-07-12T08:32:59Z</time>
      </trkpt>
      <trkpt lat="44.47101" lon="2.93303">
        <ele>430</ele>
        <time>2022-07-12T08:33:00Z</time>
      </trkpt>
      <trkpt lat="44.47106" lon="2.93315">
        <ele>429</ele>
        <time>2022-07-12T08:33:01Z</time>
      </trkpt>
      <trkpt lat="44.47115" lon="2.93337">
        <ele>427.6</ele>
        <time>2022-07-12T08:33:03Z</time>
      </trkpt>
      <trkpt lat="44.47119" lon="2.93348">
        <ele>426.4</ele>
        <time>2022-07-12T08:33:04Z</time>
      </trkpt>
      <trkpt lat="44.47129" lon="2.93368">
        <ele>425</ele>
        <time>2022-07-12T08:33:06Z</time>
      </trkpt>
      <trkpt lat="44.47145" lon="2.93394">
        <ele>424.2</ele>
        <time>2022-07-12T08:33:09Z</time>
      </trkpt>
      <trkpt lat="44.47151" lon="2.93403">
        <ele>423.8</ele>
        <time>2022-07-12T08:33:10Z</time>
      </trkpt>
      <trkpt lat="44.47164" lon="2.93414">
        <ele>423</ele>
        <time>2022-07-12T08:33:12Z</time>
      </trkpt>
      <trkpt lat="44.4717" lon="2.93419">
        <ele>422.6</ele>
        <time>2022-07-12T08:33:13Z</time>
      </trkpt>
      <trkpt lat="44.47181" lon="2.93426">
        <ele>422.4</ele>
        <time>2022-07-12T08:33:15Z</time>
      </trkpt>
      <trkpt lat="44.47198" lon="2.93435">
        <ele>422.2</ele>
        <time>2022-07-12T08:33:18Z</time>
      </trkpt>
      <trkpt lat="44.47209" lon="2.93441">
        <ele>421.8</ele>
        <time>2022-07-12T08:33:20Z</time>
      </trkpt>
      <trkpt lat="44.47214" lon="2.93442">
        <ele>421.6</ele>
        <time>2022-07-12T08:33:21Z</time>
      </trkpt>
      <trkpt lat="44.47231" lon="2.93448">
        <ele>421.4</ele>
        <time>2022-07-12T08:33:24Z</time>
      </trkpt>
      <trkpt lat="44.47274" lon="2.93464">
        <ele>421.2</ele>
        <time>2022-07-12T08:33:32Z</time>
      </trkpt>
      <trkpt lat="44.47312" lon="2.93472">
        <ele>421</ele>
        <time>2022-07-12T08:33:39Z</time>
      </trkpt>
      <trkpt lat="44.4734" lon="2.93476">
        <ele>420.8</ele>
        <time>2022-07-12T08:33:44Z</time>
      </trkpt>
      <trkpt lat="44.47345" lon="2.93478">
        <ele>420.8</ele>
        <time>2022-07-12T08:33:45Z</time>
      </trkpt>
      <trkpt lat="44.47381" lon="2.93483">
        <ele>420.8</ele>
        <time>2022-07-12T08:33:52Z</time>
      </trkpt>
      <trkpt lat="44.47415" lon="2.93484">
        <ele>421</ele>
        <time>2022-07-12T08:33:59Z</time>
      </trkpt>
      <trkpt lat="44.4742" lon="2.93484">
        <ele>421</ele>
        <time>2022-07-12T08:34:00Z</time>
      </trkpt>
      <trkpt lat="44.47443" lon="2.93484">
        <ele>421</ele>
        <time>2022-07-12T08:34:05Z</time>
      </trkpt>
      <trkpt lat="44.47481" lon="2.9348">
        <ele>420.8</ele>
        <time>2022-07-12T08:34:13Z</time>
      </trkpt>
      <trkpt lat="44.47505" lon="2.93474">
        <ele>420.6</ele>
        <time>2022-07-12T08:34:18Z</time>
      </trkpt>
      <trkpt lat="44.47513" lon="2.93472">
        <ele>420.4</ele>
        <time>2022-07-12T08:34:20Z</time>
      </trkpt>
      <trkpt lat="44.47548" lon="2.93464">
        <ele>420.4</ele>
        <time>2022-07-12T08:34:28Z</time>
      </trkpt>
      <trkpt lat="44.47578" lon="2.93459">
        <ele>420.6</ele>
        <time>2022-07-12T08:34:35Z</time>
      </trkpt>
      <trkpt lat="44.47582" lon="2.93459">
        <ele>420.6</ele>
        <time>2022-07-12T08:34:36Z</time>
      </trkpt>
      <trkpt lat="44.47598" lon="2.93458">
        <ele>421</ele>
        <time>2022-07-12T08:34:41Z</time>
      </trkpt>
      <trkpt lat="44.4761" lon="2.93462">
        <ele>421.6</ele>
        <time>2022-07-12T08:34:45Z</time>
      </trkpt>
      <trkpt lat="44.47617" lon="2.93463">
        <ele>421.8</ele>
        <time>2022-07-12T08:34:47Z</time>
      </trkpt>
      <trkpt lat="44.47633" lon="2.93464">
        <ele>422.2</ele>
        <time>2022-07-12T08:34:51Z</time>
      </trkpt>
      <trkpt lat="44.47652" lon="2.93469">
        <ele>422.6</ele>
        <time>2022-07-12T08:34:56Z</time>
      </trkpt>
      <trkpt lat="44.4766" lon="2.93471">
        <ele>422.8</ele>
        <time>2022-07-12T08:34:58Z</time>
      </trkpt>
      <trkpt lat="44.47681" lon="2.93471">
        <ele>423.4</ele>
        <time>2022-07-12T08:35:03Z</time>
      </trkpt>
      <trkpt lat="44.47686" lon="2.93472">
        <ele>423.4</ele>
        <time>2022-07-12T08:35:04Z</time>
      </trkpt>
      <trkpt lat="44.47704" lon="2.93469">
        <ele>423.4</ele>
        <time>2022-07-12T08:35:08Z</time>
      </trkpt>
      <trkpt lat="44.47713" lon="2.93466">
        <ele>423.4</ele>
        <time>2022-07-12T08:35:10Z</time>
      </trkpt>
      <trkpt lat="44.47728" lon="2.93461">
        <ele>423.2</ele>
        <time>2022-07-12T08:35:13Z</time>
      </trkpt>
      <trkpt lat="44.47755" lon="2.93454">
        <ele>423</ele>
        <time>2022-07-12T08:35:19Z</time>
      </trkpt>
      <trkpt lat="44.47785" lon="2.93458">
        <ele>422.4</ele>
        <time>2022-07-12T08:35:26Z</time>
      </trkpt>
      <trkpt lat="44.47815" lon="2.9346">
        <ele>422.2</ele>
        <time>2022-07-12T08:35:32Z</time>
      </trkpt>
      <trkpt lat="44.47833" lon="2.93461">
        <ele>421.8</ele>
        <time>2022-07-12T08:35:36Z</time>
      </trkpt>
      <trkpt lat="44.47848" lon="2.93462">
        <ele>421.4</ele>
        <time>2022-07-12T08:35:39Z</time>
      </trkpt>
      <trkpt lat="44.4789" lon="2.93468">
        <ele>421</ele>
        <time>2022-07-12T08:35:48Z</time>
      </trkpt>
      <trkpt lat="44.47914" lon="2.93476">
        <ele>421.4</ele>
        <time>2022-07-12T08:35:54Z</time>
      </trkpt>
      <trkpt lat="44.47929" lon="2.93482">
        <ele>421.8</ele>
        <time>2022-07-12T08:35:59Z</time>
      </trkpt>
      <trkpt lat="44.47946" lon="2.93495">
        <ele>423</ele>
        <time>2022-07-12T08:36:05Z</time>
      </trkpt>
      <trkpt lat="44.47948" lon="2.93497">
        <ele>423.2</ele>
        <time>2022-07-12T08:36:06Z</time>
      </trkpt>
      <trkpt lat="44.4795" lon="2.93499">
        <ele>423.6</ele>
        <time>2022-07-12T08:36:08Z</time>
      </trkpt>
      <trkpt lat="44.47952" lon="2.93502">
        <ele>423.8</ele>
        <time>2022-07-12T08:36:10Z</time>
      </trkpt>
      <trkpt lat="44.47955" lon="2.93502">
        <ele>424.2</ele>
        <time>2022-07-12T08:36:12Z</time>
      </trkpt>
      <trkpt lat="44.47955" lon="2.93503">
        <ele>424.2</ele>
        <time>2022-07-12T08:36:13Z</time>
      </trkpt>
      <trkpt lat="44.47956" lon="2.93506">
        <ele>424.6</ele>
        <time>2022-07-12T08:36:16Z</time>
      </trkpt>
      <trkpt lat="44.47956" lon="2.93507">
        <ele>425</ele>
        <time>2022-07-12T08:36:18Z</time>
      </trkpt>
      <trkpt lat="44.47956" lon="2.93508">
        <ele>425.2</ele>
        <time>2022-07-12T08:36:19Z</time>
      </trkpt>
      <trkpt lat="44.47958" lon="2.93512">
        <ele>425.6</ele>
        <time>2022-07-12T08:36:22Z</time>
      </trkpt>
      <trkpt lat="44.47959" lon="2.93517">
        <ele>426.2</ele>
        <time>2022-07-12T08:36:27Z</time>
      </trkpt>
      <trkpt lat="44.4796" lon="2.93519">
        <ele>426.4</ele>
        <time>2022-07-12T08:36:28Z</time>
      </trkpt>
      <trkpt lat="44.47963" lon="2.93525">
        <ele>427</ele>
        <time>2022-07-12T08:36:31Z</time>
      </trkpt>
      <trkpt lat="44.47963" lon="2.93528">
        <ele>427.2</ele>
        <time>2022-07-12T08:36:32Z</time>
      </trkpt>
      <trkpt lat="44.47963" lon="2.93528">
        <ele>427.6</ele>
        <time>2022-07-12T08:36:33Z</time>
      </trkpt>
      <trkpt lat="44.47964" lon="2.93529">
        <ele>427.8</ele>
        <time>2022-07-12T08:36:34Z</time>
      </trkpt>
      <trkpt lat="44.47965" lon="2.93534">
        <ele>428.2</ele>
        <time>2022-07-12T08:36:38Z</time>
      </trkpt>
      <trkpt lat="44.47966" lon="2.93536">
        <ele>428.4</ele>
        <time>2022-07-12T08:36:39Z</time>
      </trkpt>
      <trkpt lat="44.47968" lon="2.93541">
        <ele>428.6</ele>
        <time>2022-07-12T08:36:41Z</time>
      </trkpt>
      <trkpt lat="44.47968" lon="2.93549">
        <ele>429.2</ele>
        <time>2022-07-12T08:36:44Z</time>
      </trkpt>
      <trkpt lat="44.47968" lon="2.93552">
        <ele>429.4</ele>
        <time>2022-07-12T08:36:45Z</time>
      </trkpt>
      <trkpt lat="44.47971" lon="2.93575">
        <ele>430.2</ele>
        <time>2022-07-12T08:36:50Z</time>
      </trkpt>
      <trkpt lat="44.47972" lon="2.93584">
        <ele>430.4</ele>
        <time>2022-07-12T08:36:52Z</time>
      </trkpt>
      <trkpt lat="44.47973" lon="2.93587">
        <ele>430.6</ele>
        <time>2022-07-12T08:36:54Z</time>
      </trkpt>
      <trkpt lat="44.47974" lon="2.93593">
        <ele>430.8</ele>
        <time>2022-07-12T08:36:56Z</time>
      </trkpt>
      <trkpt lat="44.47976" lon="2.93599">
        <ele>430.8</ele>
        <time>2022-07-12T08:36:57Z</time>
      </trkpt>
      <trkpt lat="44.47982" lon="2.9362">
        <ele>431.2</ele>
        <time>2022-07-12T08:37:01Z</time>
      </trkpt>
      <trkpt lat="44.47985" lon="2.93642">
        <ele>431.2</ele>
        <time>2022-07-12T08:37:05Z</time>
      </trkpt>
      <trkpt lat="44.47992" lon="2.93676">
        <ele>431</ele>
        <time>2022-07-12T08:37:11Z</time>
      </trkpt>
      <trkpt lat="44.47995" lon="2.93688">
        <ele>430.4</ele>
        <time>2022-07-12T08:37:13Z</time>
      </trkpt>
      <trkpt lat="44.48" lon="2.93704">
        <ele>430.2</ele>
        <time>2022-07-12T08:37:15Z</time>
      </trkpt>
      <trkpt lat="44.48001" lon="2.93724">
        <ele>429.4</ele>
        <time>2022-07-12T08:37:17Z</time>
      </trkpt>
      <trkpt lat="44.48002" lon="2.93738">
        <ele>429.2</ele>
        <time>2022-07-12T08:37:18Z</time>
      </trkpt>
      <trkpt lat="44.48002" lon="2.9375">
        <ele>428.6</ele>
        <time>2022-07-12T08:37:19Z</time>
      </trkpt>
      <trkpt lat="44.48" lon="2.93761">
        <ele>428.2</ele>
        <time>2022-07-12T08:37:20Z</time>
      </trkpt>
      <trkpt lat="44.48" lon="2.93774">
        <ele>427.4</ele>
        <time>2022-07-12T08:37:21Z</time>
      </trkpt>
      <trkpt lat="44.47998" lon="2.93788">
        <ele>426.6</ele>
        <time>2022-07-12T08:37:22Z</time>
      </trkpt>
      <trkpt lat="44.47997" lon="2.93815">
        <ele>425.8</ele>
        <time>2022-07-12T08:37:24Z</time>
      </trkpt>
      <trkpt lat="44.47992" lon="2.93837">
        <ele>425</ele>
        <time>2022-07-12T08:37:26Z</time>
      </trkpt>
      <trkpt lat="44.4799" lon="2.93848">
        <ele>425</ele>
        <time>2022-07-12T08:37:27Z</time>
      </trkpt>
      <trkpt lat="44.47984" lon="2.93869">
        <ele>424</ele>
        <time>2022-07-12T08:37:29Z</time>
      </trkpt>
      <trkpt lat="44.47979" lon="2.93889">
        <ele>422.8</ele>
        <time>2022-07-12T08:37:31Z</time>
      </trkpt>
      <trkpt lat="44.47973" lon="2.93906">
        <ele>422.2</ele>
        <time>2022-07-12T08:37:33Z</time>
      </trkpt>
      <trkpt lat="44.47966" lon="2.93923">
        <ele>422</ele>
        <time>2022-07-12T08:37:35Z</time>
      </trkpt>
      <trkpt lat="44.47962" lon="2.93929">
        <ele>422</ele>
        <time>2022-07-12T08:37:36Z</time>
      </trkpt>
      <trkpt lat="44.47958" lon="2.93937">
        <ele>421.6</ele>
        <time>2022-07-12T08:37:37Z</time>
      </trkpt>
      <trkpt lat="44.47954" lon="2.93944">
        <ele>421.6</ele>
        <time>2022-07-12T08:37:38Z</time>
      </trkpt>
      <trkpt lat="44.4795" lon="2.93957">
        <ele>421.6</ele>
        <time>2022-07-12T08:37:40Z</time>
      </trkpt>
      <trkpt lat="44.47947" lon="2.93965">
        <ele>421.6</ele>
        <time>2022-07-12T08:37:41Z</time>
      </trkpt>
      <trkpt lat="44.47943" lon="2.93974">
        <ele>421.4</ele>
        <time>2022-07-12T08:37:43Z</time>
      </trkpt>
      <trkpt lat="44.47939" lon="2.93978">
        <ele>421.4</ele>
        <time>2022-07-12T08:37:44Z</time>
      </trkpt>
      <trkpt lat="44.47921" lon="2.94">
        <ele>421.2</ele>
        <time>2022-07-12T08:37:48Z</time>
      </trkpt>
      <trkpt lat="44.47912" lon="2.94012">
        <ele>421</ele>
        <time>2022-07-12T08:37:50Z</time>
      </trkpt>
      <trkpt lat="44.47906" lon="2.94023">
        <ele>421</ele>
        <time>2022-07-12T08:37:52Z</time>
      </trkpt>
      <trkpt lat="44.47887" lon="2.94044">
        <ele>421.2</ele>
        <time>2022-07-12T08:37:57Z</time>
      </trkpt>
      <trkpt lat="44.47864" lon="2.94065">
        <ele>421</ele>
        <time>2022-07-12T08:38:03Z</time>
      </trkpt>
      <trkpt lat="44.47857" lon="2.94073">
        <ele>421</ele>
        <time>2022-07-12T08:38:05Z</time>
      </trkpt>
      <trkpt lat="44.47841" lon="2.94082">
        <ele>421</ele>
        <time>2022-07-12T08:38:09Z</time>
      </trkpt>
      <trkpt lat="44.47824" lon="2.9409">
        <ele>421.2</ele>
        <time>2022-07-12T08:38:14Z</time>
      </trkpt>
      <trkpt lat="44.47814" lon="2.94096">
        <ele>421.2</ele>
        <time>2022-07-12T08:38:16Z</time>
      </trkpt>
      <trkpt lat="44.47806" lon="2.94103">
        <ele>421.6</ele>
        <time>2022-07-12T08:38:18Z</time>
      </trkpt>
      <trkpt lat="44.47778" lon="2.94127">
        <ele>421.6</ele>
        <time>2022-07-12T08:38:25Z</time>
      </trkpt>
      <trkpt lat="44.47756" lon="2.94147">
        <ele>421.4</ele>
        <time>2022-07-12T08:38:30Z</time>
      </trkpt>
      <trkpt lat="44.47726" lon="2.94168">
        <ele>421.2</ele>
        <time>2022-07-12T08:38:36Z</time>
      </trkpt>
      <trkpt lat="44.47722" lon="2.9417">
        <ele>421</ele>
        <time>2022-07-12T08:38:37Z</time>
      </trkpt>
      <trkpt lat="44.47708" lon="2.94176">
        <ele>420.6</ele>
        <time>2022-07-12T08:38:40Z</time>
      </trkpt>
      <trkpt lat="44.47701" lon="2.94178">
        <ele>420.6</ele>
        <time>2022-07-12T08:38:42Z</time>
      </trkpt>
      <trkpt lat="44.47689" lon="2.94181">
        <ele>420.8</ele>
        <time>2022-07-12T08:38:45Z</time>
      </trkpt>
      <trkpt lat="44.47683" lon="2.94183">
        <ele>421</ele>
        <time>2022-07-12T08:38:47Z</time>
      </trkpt>
      <trkpt lat="44.47662" lon="2.94182">
        <ele>421.6</ele>
        <time>2022-07-12T08:38:54Z</time>
      </trkpt>
      <trkpt lat="44.47647" lon="2.94183">
        <ele>421.8</ele>
        <time>2022-07-12T08:38:58Z</time>
      </trkpt>
      <trkpt lat="44.47631" lon="2.94186">
        <ele>422.2</ele>
        <time>2022-07-12T08:39:03Z</time>
      </trkpt>
      <trkpt lat="44.47628" lon="2.94187">
        <ele>422.2</ele>
        <time>2022-07-12T08:39:04Z</time>
      </trkpt>
      <trkpt lat="44.47614" lon="2.9419">
        <ele>422.8</ele>
        <time>2022-07-12T08:39:08Z</time>
      </trkpt>
      <trkpt lat="44.47593" lon="2.94194">
        <ele>423.4</ele>
        <time>2022-07-12T08:39:12Z</time>
      </trkpt>
      <trkpt lat="44.47587" lon="2.94197">
        <ele>423.6</ele>
        <time>2022-07-12T08:39:13Z</time>
      </trkpt>
      <trkpt lat="44.47565" lon="2.94197">
        <ele>424</ele>
        <time>2022-07-12T08:39:18Z</time>
      </trkpt>
      <trkpt lat="44.47556" lon="2.94196">
        <ele>424</ele>
        <time>2022-07-12T08:39:20Z</time>
      </trkpt>
      <trkpt lat="44.47544" lon="2.94191">
        <ele>423.4</ele>
        <time>2022-07-12T08:39:22Z</time>
      </trkpt>
      <trkpt lat="44.47537" lon="2.9419">
        <ele>423.4</ele>
        <time>2022-07-12T08:39:23Z</time>
      </trkpt>
      <trkpt lat="44.47509" lon="2.94186">
        <ele>422.2</ele>
        <time>2022-07-12T08:39:27Z</time>
      </trkpt>
      <trkpt lat="44.475" lon="2.94186">
        <ele>422</ele>
        <time>2022-07-12T08:39:29Z</time>
      </trkpt>
      <trkpt lat="44.47489" lon="2.94185">
        <ele>421.6</ele>
        <time>2022-07-12T08:39:31Z</time>
      </trkpt>
      <trkpt lat="44.47466" lon="2.9419">
        <ele>421.6</ele>
        <time>2022-07-12T08:39:36Z</time>
      </trkpt>
      <trkpt lat="44.47454" lon="2.94192">
        <ele>421.2</ele>
        <time>2022-07-12T08:39:39Z</time>
      </trkpt>
      <trkpt lat="44.47445" lon="2.94192">
        <ele>421.2</ele>
        <time>2022-07-12T08:39:41Z</time>
      </trkpt>
      <trkpt lat="44.47436" lon="2.94192">
        <ele>421.2</ele>
        <time>2022-07-12T08:39:43Z</time>
      </trkpt>
      <trkpt lat="44.47391" lon="2.9419">
        <ele>421.2</ele>
        <time>2022-07-12T08:39:53Z</time>
      </trkpt>
      <trkpt lat="44.47336" lon="2.94188">
        <ele>421.4</ele>
        <time>2022-07-12T08:40:04Z</time>
      </trkpt>
      <trkpt lat="44.47331" lon="2.94187">
        <ele>421.4</ele>
        <time>2022-07-12T08:40:05Z</time>
      </trkpt>
      <trkpt lat="44.47312" lon="2.94184">
        <ele>421.2</ele>
        <time>2022-07-12T08:40:09Z</time>
      </trkpt>
      <trkpt lat="44.47304" lon="2.9418">
        <ele>421.2</ele>
        <time>2022-07-12T08:40:11Z</time>
      </trkpt>
      <trkpt lat="44.47286" lon="2.94168">
        <ele>421.2</ele>
        <time>2022-07-12T08:40:17Z</time>
      </trkpt>
      <trkpt lat="44.47267" lon="2.94162">
        <ele>421.6</ele>
        <time>2022-07-12T08:40:22Z</time>
      </trkpt>
      <trkpt lat="44.47244" lon="2.94153">
        <ele>422</ele>
        <time>2022-07-12T08:40:27Z</time>
      </trkpt>
      <trkpt lat="44.47225" lon="2.94147">
        <ele>422.2</ele>
        <time>2022-07-12T08:40:32Z</time>
      </trkpt>
      <trkpt lat="44.47218" lon="2.94147">
        <ele>422.2</ele>
        <time>2022-07-12T08:40:36Z</time>
      </trkpt>
      <trkpt lat="44.47207" lon="2.94144">
        <ele>422.4</ele>
        <time>2022-07-12T08:40:40Z</time>
      </trkpt>
      <trkpt lat="44.47204" lon="2.94144">
        <ele>422.4</ele>
        <time>2022-07-12T08:40:41Z</time>
      </trkpt>
      <trkpt lat="44.47182" lon="2.94135">
        <ele>423</ele>
        <time>2022-07-12T08:40:48Z</time>
      </trkpt>
      <trkpt lat="44.47156" lon="2.9413">
        <ele>423.2</ele>
        <time>2022-07-12T08:40:54Z</time>
      </trkpt>
      <trkpt lat="44.47134" lon="2.94131">
        <ele>423.2</ele>
        <time>2022-07-12T08:40:59Z</time>
      </trkpt>
      <trkpt lat="44.47118" lon="2.94134">
        <ele>423</ele>
        <time>2022-07-12T08:41:03Z</time>
      </trkpt>
      <trkpt lat="44.47087" lon="2.94142">
        <ele>423.2</ele>
        <time>2022-07-12T08:41:11Z</time>
      </trkpt>
      <trkpt lat="44.47069" lon="2.94148">
        <ele>423.4</ele>
        <time>2022-07-12T08:41:16Z</time>
      </trkpt>
      <trkpt lat="44.47052" lon="2.94157">
        <ele>423.6</ele>
        <time>2022-07-12T08:41:21Z</time>
      </trkpt>
      <trkpt lat="44.47044" lon="2.94161">
        <ele>423.8</ele>
        <time>2022-07-12T08:41:23Z</time>
      </trkpt>
      <trkpt lat="44.4702" lon="2.94171">
        <ele>423.8</ele>
        <time>2022-07-12T08:41:29Z</time>
      </trkpt>
      <trkpt lat="44.46992" lon="2.94183">
        <ele>423.6</ele>
        <time>2022-07-12T08:41:35Z</time>
      </trkpt>
      <trkpt lat="44.46983" lon="2.94187">
        <ele>423.4</ele>
        <time>2022-07-12T08:41:37Z</time>
      </trkpt>
      <trkpt lat="44.46973" lon="2.94189">
        <ele>423.4</ele>
        <time>2022-07-12T08:41:39Z</time>
      </trkpt>
      <trkpt lat="44.46955" lon="2.94195">
        <ele>423.2</ele>
        <time>2022-07-12T08:41:43Z</time>
      </trkpt>
      <trkpt lat="44.46925" lon="2.94205">
        <ele>423.2</ele>
        <time>2022-07-12T08:41:50Z</time>
      </trkpt>
      <trkpt lat="44.46921" lon="2.94207">
        <ele>423.2</ele>
        <time>2022-07-12T08:41:51Z</time>
      </trkpt>
      <trkpt lat="44.46896" lon="2.94212">
        <ele>424</ele>
        <time>2022-07-12T08:41:57Z</time>
      </trkpt>
      <trkpt lat="44.46892" lon="2.94214">
        <ele>424</ele>
        <time>2022-07-12T08:41:58Z</time>
      </trkpt>
      <trkpt lat="44.46888" lon="2.94216">
        <ele>424</ele>
        <time>2022-07-12T08:41:59Z</time>
      </trkpt>
      <trkpt lat="44.4688" lon="2.94218">
        <ele>424.2</ele>
        <time>2022-07-12T08:42:01Z</time>
      </trkpt>
      <trkpt lat="44.46873" lon="2.9422">
        <ele>424.6</ele>
        <time>2022-07-12T08:42:03Z</time>
      </trkpt>
      <trkpt lat="44.46849" lon="2.94226">
        <ele>425.2</ele>
        <time>2022-07-12T08:42:09Z</time>
      </trkpt>
      <trkpt lat="44.46821" lon="2.94228">
        <ele>425.8</ele>
        <time>2022-07-12T08:42:16Z</time>
      </trkpt>
      <trkpt lat="44.46804" lon="2.9423">
        <ele>426.2</ele>
        <time>2022-07-12T08:42:20Z</time>
      </trkpt>
      <trkpt lat="44.468" lon="2.94231">
        <ele>426.4</ele>
        <time>2022-07-12T08:42:21Z</time>
      </trkpt>
      <trkpt lat="44.46793" lon="2.94231">
        <ele>426.4</ele>
        <time>2022-07-12T08:42:23Z</time>
      </trkpt>
      <trkpt lat="44.46788" lon="2.94231">
        <ele>426.6</ele>
        <time>2022-07-12T08:42:24Z</time>
      </trkpt>
      <trkpt lat="44.46775" lon="2.94231">
        <ele>426.6</ele>
        <time>2022-07-12T08:42:27Z</time>
      </trkpt>
      <trkpt lat="44.46762" lon="2.94232">
        <ele>426.8</ele>
        <time>2022-07-12T08:42:30Z</time>
      </trkpt>
      <trkpt lat="44.46754" lon="2.94233">
        <ele>427</ele>
        <time>2022-07-12T08:42:32Z</time>
      </trkpt>
      <trkpt lat="44.46742" lon="2.94233">
        <ele>427.2</ele>
        <time>2022-07-12T08:42:35Z</time>
      </trkpt>
      <trkpt lat="44.46738" lon="2.94234">
        <ele>427.2</ele>
        <time>2022-07-12T08:42:36Z</time>
      </trkpt>
      <trkpt lat="44.46708" lon="2.94242">
        <ele>427.2</ele>
        <time>2022-07-12T08:42:43Z</time>
      </trkpt>
      <trkpt lat="44.46703" lon="2.94244">
        <ele>427.2</ele>
        <time>2022-07-12T08:42:44Z</time>
      </trkpt>
      <trkpt lat="44.46684" lon="2.94245">
        <ele>426.8</ele>
        <time>2022-07-12T08:42:47Z</time>
      </trkpt>
      <trkpt lat="44.46667" lon="2.94246">
        <ele>426</ele>
        <time>2022-07-12T08:42:50Z</time>
      </trkpt>
      <trkpt lat="44.46656" lon="2.94252">
        <ele>425.4</ele>
        <time>2022-07-12T08:42:52Z</time>
      </trkpt>
      <trkpt lat="44.4665" lon="2.94255">
        <ele>425.2</ele>
        <time>2022-07-12T08:42:53Z</time>
      </trkpt>
      <trkpt lat="44.46635" lon="2.94267">
        <ele>424</ele>
        <time>2022-07-12T08:42:56Z</time>
      </trkpt>
      <trkpt lat="44.46626" lon="2.94273">
        <ele>423.8</ele>
        <time>2022-07-12T08:42:58Z</time>
      </trkpt>
      <trkpt lat="44.46608" lon="2.94284">
        <ele>423.8</ele>
        <time>2022-07-12T08:43:03Z</time>
      </trkpt>
      <trkpt lat="44.46591" lon="2.94301">
        <ele>424.8</ele>
        <time>2022-07-12T08:43:09Z</time>
      </trkpt>
      <trkpt lat="44.46573" lon="2.94325">
        <ele>425.4</ele>
        <time>2022-07-12T08:43:15Z</time>
      </trkpt>
      <trkpt lat="44.4657" lon="2.94329">
        <ele>425.4</ele>
        <time>2022-07-12T08:43:16Z</time>
      </trkpt>
      <trkpt lat="44.4655" lon="2.94344">
        <ele>426</ele>
        <time>2022-07-12T08:43:22Z</time>
      </trkpt>
      <trkpt lat="44.46543" lon="2.94348">
        <ele>426.2</ele>
        <time>2022-07-12T08:43:24Z</time>
      </trkpt>
      <trkpt lat="44.46537" lon="2.94355">
        <ele>426.2</ele>
        <time>2022-07-12T08:43:26Z</time>
      </trkpt>
      <trkpt lat="44.4652" lon="2.94369">
        <ele>426.4</ele>
        <time>2022-07-12T08:43:31Z</time>
      </trkpt>
      <trkpt lat="44.46517" lon="2.94372">
        <ele>426.2</ele>
        <time>2022-07-12T08:43:32Z</time>
      </trkpt>
      <trkpt lat="44.46515" lon="2.94376">
        <ele>426.2</ele>
        <time>2022-07-12T08:43:33Z</time>
      </trkpt>
      <trkpt lat="44.46512" lon="2.94392">
        <ele>426.2</ele>
        <time>2022-07-12T08:43:35Z</time>
      </trkpt>
      <trkpt lat="44.46509" lon="2.944">
        <ele>426.2</ele>
        <time>2022-07-12T08:43:36Z</time>
      </trkpt>
      <trkpt lat="44.46508" lon="2.94408">
        <ele>426</ele>
        <time>2022-07-12T08:43:37Z</time>
      </trkpt>
      <trkpt lat="44.46503" lon="2.94424">
        <ele>425.8</ele>
        <time>2022-07-12T08:43:39Z</time>
      </trkpt>
      <trkpt lat="44.46501" lon="2.9443">
        <ele>425.6</ele>
        <time>2022-07-12T08:43:40Z</time>
      </trkpt>
      <trkpt lat="44.46499" lon="2.94435">
        <ele>425.6</ele>
        <time>2022-07-12T08:43:41Z</time>
      </trkpt>
      <trkpt lat="44.46486" lon="2.94451">
        <ele>424.8</ele>
        <time>2022-07-12T08:43:44Z</time>
      </trkpt>
      <trkpt lat="44.46483" lon="2.94464">
        <ele>424.2</ele>
        <time>2022-07-12T08:43:46Z</time>
      </trkpt>
      <trkpt lat="44.46478" lon="2.94486">
        <ele>423.2</ele>
        <time>2022-07-12T08:43:49Z</time>
      </trkpt>
      <trkpt lat="44.46477" lon="2.94494">
        <ele>423</ele>
        <time>2022-07-12T08:43:50Z</time>
      </trkpt>
      <trkpt lat="44.46477" lon="2.94502">
        <ele>422.8</ele>
        <time>2022-07-12T08:43:51Z</time>
      </trkpt>
      <trkpt lat="44.4648" lon="2.9452">
        <ele>422.4</ele>
        <time>2022-07-12T08:43:54Z</time>
      </trkpt>
      <trkpt lat="44.46477" lon="2.94537">
        <ele>422.2</ele>
        <time>2022-07-12T08:43:58Z</time>
      </trkpt>
      <trkpt lat="44.46473" lon="2.94548">
        <ele>422.4</ele>
        <time>2022-07-12T08:44:01Z</time>
      </trkpt>
      <trkpt lat="44.46469" lon="2.9455">
        <ele>422.4</ele>
        <time>2022-07-12T08:44:03Z</time>
      </trkpt>
      <trkpt lat="44.46463" lon="2.94548">
        <ele>422.6</ele>
        <time>2022-07-12T08:44:06Z</time>
      </trkpt>
      <trkpt lat="44.46459" lon="2.94547">
        <ele>422.8</ele>
        <time>2022-07-12T08:44:08Z</time>
      </trkpt>
      <trkpt lat="44.46458" lon="2.94547">
        <ele>422.8</ele>
        <time>2022-07-12T08:44:11Z</time>
      </trkpt>
      <trkpt lat="44.46458" lon="2.94547">
        <ele>422.8</ele>
        <time>2022-07-12T08:44:14Z</time>
      </trkpt>
      <trkpt lat="44.46458" lon="2.94547">
        <ele>423</ele>
        <time>2022-07-12T08:44:16Z</time>
      </trkpt>
      <trkpt lat="44.46455" lon="2.94548">
        <ele>422.8</ele>
        <time>2022-07-12T08:44:38Z</time>
      </trkpt>
      <trkpt lat="44.46451" lon="2.94549">
        <ele>422.8</ele>
        <time>2022-07-12T08:44:40Z</time>
      </trkpt>
      <trkpt lat="44.46444" lon="2.94558">
        <ele>423</ele>
        <time>2022-07-12T08:44:44Z</time>
      </trkpt>
      <trkpt lat="44.46442" lon="2.9456">
        <ele>423</ele>
        <time>2022-07-12T08:44:45Z</time>
      </trkpt>
      <trkpt lat="44.46432" lon="2.94579">
        <ele>423.4</ele>
        <time>2022-07-12T08:44:52Z</time>
      </trkpt>
      <trkpt lat="44.46431" lon="2.94592">
        <ele>423.6</ele>
        <time>2022-07-12T08:44:58Z</time>
      </trkpt>
      <trkpt lat="44.4643" lon="2.9461">
        <ele>424.2</ele>
        <time>2022-07-12T08:45:05Z</time>
      </trkpt>
      <trkpt lat="44.4643" lon="2.94615">
        <ele>424.4</ele>
        <time>2022-07-12T08:45:08Z</time>
      </trkpt>
      <trkpt lat="44.46432" lon="2.94618">
        <ele>424.4</ele>
        <time>2022-07-12T08:45:10Z</time>
      </trkpt>
      <trkpt lat="44.46431" lon="2.94621">
        <ele>424.6</ele>
        <time>2022-07-12T08:45:12Z</time>
      </trkpt>
      <trkpt lat="44.46429" lon="2.94626">
        <ele>424.6</ele>
        <time>2022-07-12T08:45:14Z</time>
      </trkpt>
      <trkpt lat="44.46428" lon="2.94629">
        <ele>424.6</ele>
        <time>2022-07-12T08:45:15Z</time>
      </trkpt>
      <trkpt lat="44.46425" lon="2.9463">
        <ele>424.4</ele>
        <time>2022-07-12T08:45:18Z</time>
      </trkpt>
      <trkpt lat="44.46425" lon="2.9463">
        <ele>424.4</ele>
        <time>2022-07-12T08:45:20Z</time>
      </trkpt>
      <trkpt lat="44.46425" lon="2.94629">
        <ele>424.8</ele>
        <time>2022-07-12T08:46:02Z</time>
      </trkpt>
      <trkpt lat="44.46425" lon="2.94627">
        <ele>424.8</ele>
        <time>2022-07-12T08:46:03Z</time>
      </trkpt>
      <trkpt lat="44.46426" lon="2.94626">
        <ele>424.8</ele>
        <time>2022-07-12T08:46:04Z</time>
      </trkpt>
      <trkpt lat="44.46429" lon="2.94624">
        <ele>424.8</ele>
        <time>2022-07-12T08:46:06Z</time>
      </trkpt>
      <trkpt lat="44.46432" lon="2.94623">
        <ele>424.8</ele>
        <time>2022-07-12T08:46:07Z</time>
      </trkpt>
      <trkpt lat="44.46435" lon="2.94623">
        <ele>424.8</ele>
        <time>2022-07-12T08:46:08Z</time>
      </trkpt>
      <trkpt lat="44.46446" lon="2.94624">
        <ele>424.8</ele>
        <time>2022-07-12T08:46:13Z</time>
      </trkpt>
      <trkpt lat="44.46453" lon="2.94626">
        <ele>425.2</ele>
        <time>2022-07-12T08:46:19Z</time>
      </trkpt>
      <trkpt lat="44.46455" lon="2.94624">
        <ele>425.4</ele>
        <time>2022-07-12T08:46:21Z</time>
      </trkpt>
      <trkpt lat="44.46458" lon="2.94616">
        <ele>425.4</ele>
        <time>2022-07-12T08:46:24Z</time>
      </trkpt>
      <trkpt lat="44.46466" lon="2.94605">
        <ele>425.4</ele>
        <time>2022-07-12T08:46:28Z</time>
      </trkpt>
      <trkpt lat="44.46469" lon="2.94605">
        <ele>425.4</ele>
        <time>2022-07-12T08:46:29Z</time>
      </trkpt>
      <trkpt lat="44.46473" lon="2.94609">
        <ele>425.6</ele>
        <time>2022-07-12T08:46:31Z</time>
      </trkpt>
      <trkpt lat="44.46481" lon="2.94619">
        <ele>425.6</ele>
        <time>2022-07-12T08:46:35Z</time>
      </trkpt>
      <trkpt lat="44.46489" lon="2.94634">
        <ele>425.6</ele>
        <time>2022-07-12T08:46:41Z</time>
      </trkpt>
      <trkpt lat="44.46491" lon="2.94635">
        <ele>425.4</ele>
        <time>2022-07-12T08:46:42Z</time>
      </trkpt>
      <trkpt lat="44.46494" lon="2.94637">
        <ele>425.2</ele>
        <time>2022-07-12T08:46:44Z</time>
      </trkpt>
      <trkpt lat="44.46496" lon="2.94636">
        <ele>425.2</ele>
        <time>2022-07-12T08:46:45Z</time>
      </trkpt>
      <trkpt lat="44.46501" lon="2.94638">
        <ele>425</ele>
        <time>2022-07-12T08:46:48Z</time>
      </trkpt>
      <trkpt lat="44.46501" lon="2.9464">
        <ele>424.8</ele>
        <time>2022-07-12T08:46:49Z</time>
      </trkpt>
      <trkpt lat="44.465" lon="2.94642">
        <ele>424.8</ele>
        <time>2022-07-12T08:46:54Z</time>
      </trkpt>
      <trkpt lat="44.46499" lon="2.94643">
        <ele>424.6</ele>
        <time>2022-07-12T08:46:55Z</time>
      </trkpt>
      <trkpt lat="44.46487" lon="2.94654">
        <ele>424.6</ele>
        <time>2022-07-12T08:46:59Z</time>
      </trkpt>
      <trkpt lat="44.46481" lon="2.94677">
        <ele>424</ele>
        <time>2022-07-12T08:47:03Z</time>
      </trkpt>
      <trkpt lat="44.46478" lon="2.94684">
        <ele>423.6</ele>
        <time>2022-07-12T08:47:05Z</time>
      </trkpt>
      <trkpt lat="44.46476" lon="2.94685">
        <ele>423.6</ele>
        <time>2022-07-12T08:47:06Z</time>
      </trkpt>
      <trkpt lat="44.46469" lon="2.94683">
        <ele>423.2</ele>
        <time>2022-07-12T08:47:12Z</time>
      </trkpt>
      <trkpt lat="44.46469" lon="2.94683">
        <ele>423.2</ele>
        <time>2022-07-12T08:47:13Z</time>
      </trkpt>
      <trkpt lat="44.46468" lon="2.9468">
        <ele>423.2</ele>
        <time>2022-07-12T08:47:16Z</time>
      </trkpt>
      <trkpt lat="44.46467" lon="2.94681">
        <ele>423.2</ele>
        <time>2022-07-12T08:47:17Z</time>
      </trkpt>
      <trkpt lat="44.46467" lon="2.94682">
        <ele>423.2</ele>
        <time>2022-07-12T08:47:20Z</time>
      </trkpt>
      <trkpt lat="44.46472" lon="2.94687">
        <ele>423.2</ele>
        <time>2022-07-12T08:47:25Z</time>
      </trkpt>
      <trkpt lat="44.46472" lon="2.9469">
        <ele>423.2</ele>
        <time>2022-07-12T08:47:26Z</time>
      </trkpt>
      <trkpt lat="44.46472" lon="2.94694">
        <ele>422.8</ele>
        <time>2022-07-12T08:47:30Z</time>
      </trkpt>
      <trkpt lat="44.46472" lon="2.94694">
        <ele>422.8</ele>
        <time>2022-07-12T08:47:32Z</time>
      </trkpt>
      <trkpt lat="44.4647" lon="2.94697">
        <ele>422.8</ele>
        <time>2022-07-12T08:47:38Z</time>
      </trkpt>
      <trkpt lat="44.4647" lon="2.94699">
        <ele>422.6</ele>
        <time>2022-07-12T08:47:39Z</time>
      </trkpt>
      <trkpt lat="44.46466" lon="2.94715">
        <ele>422.6</ele>
        <time>2022-07-12T08:47:44Z</time>
      </trkpt>
      <trkpt lat="44.46463" lon="2.9473">
        <ele>422.8</ele>
        <time>2022-07-12T08:47:48Z</time>
      </trkpt>
      <trkpt lat="44.46464" lon="2.94733">
        <ele>423</ele>
        <time>2022-07-12T08:47:49Z</time>
      </trkpt>
      <trkpt lat="44.46474" lon="2.94751">
        <ele>423.4</ele>
        <time>2022-07-12T08:47:54Z</time>
      </trkpt>
      <trkpt lat="44.46477" lon="2.94757">
        <ele>423.4</ele>
        <time>2022-07-12T08:47:55Z</time>
      </trkpt>
      <trkpt lat="44.46485" lon="2.94771">
        <ele>423</ele>
        <time>2022-07-12T08:47:58Z</time>
      </trkpt>
      <trkpt lat="44.46485" lon="2.94781">
        <ele>422.4</ele>
        <time>2022-07-12T08:48:00Z</time>
      </trkpt>
      <trkpt lat="44.46485" lon="2.94789">
        <ele>422</ele>
        <time>2022-07-12T08:48:02Z</time>
      </trkpt>
      <trkpt lat="44.46492" lon="2.94822">
        <ele>421.6</ele>
        <time>2022-07-12T08:48:08Z</time>
      </trkpt>
      <trkpt lat="44.46492" lon="2.94837">
        <ele>421.4</ele>
        <time>2022-07-12T08:48:11Z</time>
      </trkpt>
      <trkpt lat="44.46495" lon="2.94854">
        <ele>421.2</ele>
        <time>2022-07-12T08:48:14Z</time>
      </trkpt>
      <trkpt lat="44.46495" lon="2.9486">
        <ele>421.2</ele>
        <time>2022-07-12T08:48:15Z</time>
      </trkpt>
      <trkpt lat="44.46496" lon="2.94872">
        <ele>421.2</ele>
        <time>2022-07-12T08:48:17Z</time>
      </trkpt>
      <trkpt lat="44.465" lon="2.94889">
        <ele>420.8</ele>
        <time>2022-07-12T08:48:22Z</time>
      </trkpt>
      <trkpt lat="44.46499" lon="2.94893">
        <ele>420.8</ele>
        <time>2022-07-12T08:48:23Z</time>
      </trkpt>
      <trkpt lat="44.46497" lon="2.94895">
        <ele>421</ele>
        <time>2022-07-12T08:48:25Z</time>
      </trkpt>
      <trkpt lat="44.46495" lon="2.94891">
        <ele>421.4</ele>
        <time>2022-07-12T08:48:27Z</time>
      </trkpt>
      <trkpt lat="44.46494" lon="2.94885">
        <ele>421.8</ele>
        <time>2022-07-12T08:48:29Z</time>
      </trkpt>
      <trkpt lat="44.46491" lon="2.94878">
        <ele>422.2</ele>
        <time>2022-07-12T08:48:32Z</time>
      </trkpt>
      <trkpt lat="44.4649" lon="2.94874">
        <ele>422.6</ele>
        <time>2022-07-12T08:48:34Z</time>
      </trkpt>
      <trkpt lat="44.46489" lon="2.94871">
        <ele>422.6</ele>
        <time>2022-07-12T08:48:35Z</time>
      </trkpt>
      <trkpt lat="44.46488" lon="2.94869">
        <ele>423</ele>
        <time>2022-07-12T08:48:36Z</time>
      </trkpt>
      <trkpt lat="44.4649" lon="2.94864">
        <ele>423.2</ele>
        <time>2022-07-12T08:48:38Z</time>
      </trkpt>
      <trkpt lat="44.46492" lon="2.94864">
        <ele>423.4</ele>
        <time>2022-07-12T08:48:39Z</time>
      </trkpt>
      <trkpt lat="44.46497" lon="2.94862">
        <ele>423.6</ele>
        <time>2022-07-12T08:48:41Z</time>
      </trkpt>
      <trkpt lat="44.46509" lon="2.94859">
        <ele>424.2</ele>
        <time>2022-07-12T08:48:46Z</time>
      </trkpt>
      <trkpt lat="44.46527" lon="2.94853">
        <ele>424.8</ele>
        <time>2022-07-12T08:48:55Z</time>
      </trkpt>
      <trkpt lat="44.46528" lon="2.94853">
        <ele>424.8</ele>
        <time>2022-07-12T08:48:56Z</time>
      </trkpt>
      <trkpt lat="44.46528" lon="2.94853">
        <ele>425</ele>
        <time>2022-07-12T08:48:58Z</time>
      </trkpt>
      <trkpt lat="44.4653" lon="2.94854">
        <ele>425</ele>
        <time>2022-07-12T08:49:17Z</time>
      </trkpt>
      <trkpt lat="44.46532" lon="2.94854">
        <ele>425</ele>
        <time>2022-07-12T08:49:18Z</time>
      </trkpt>
      <trkpt lat="44.46544" lon="2.94851">
        <ele>425.2</ele>
        <time>2022-07-12T08:49:24Z</time>
      </trkpt>
      <trkpt lat="44.46546" lon="2.94851">
        <ele>425.4</ele>
        <time>2022-07-12T08:49:25Z</time>
      </trkpt>
      <trkpt lat="44.46554" lon="2.94846">
        <ele>426</ele>
        <time>2022-07-12T08:49:29Z</time>
      </trkpt>
      <trkpt lat="44.46558" lon="2.94844">
        <ele>426.4</ele>
        <time>2022-07-12T08:49:31Z</time>
      </trkpt>
      <trkpt lat="44.46567" lon="2.94832">
        <ele>427</ele>
        <time>2022-07-12T08:49:37Z</time>
      </trkpt>
      <trkpt lat="44.46569" lon="2.94831">
        <ele>427.4</ele>
        <time>2022-07-12T08:49:38Z</time>
      </trkpt>
      <trkpt lat="44.46577" lon="2.94824">
        <ele>428.6</ele>
        <time>2022-07-12T08:49:43Z</time>
      </trkpt>
      <trkpt lat="44.46584" lon="2.94818">
        <ele>429.8</ele>
        <time>2022-07-12T08:49:48Z</time>
      </trkpt>
      <trkpt lat="44.46586" lon="2.94817">
        <ele>430.2</ele>
        <time>2022-07-12T08:49:50Z</time>
      </trkpt>
      <trkpt lat="44.46592" lon="2.94811">
        <ele>430.8</ele>
        <time>2022-07-12T08:49:54Z</time>
      </trkpt>
      <trkpt lat="44.46597" lon="2.94808">
        <ele>431.4</ele>
        <time>2022-07-12T08:49:58Z</time>
      </trkpt>
      <trkpt lat="44.46603" lon="2.94803">
        <ele>431.8</ele>
        <time>2022-07-12T08:50:02Z</time>
      </trkpt>
      <trkpt lat="44.46607" lon="2.948">
        <ele>432.4</ele>
        <time>2022-07-12T08:50:05Z</time>
      </trkpt>
      <trkpt lat="44.46612" lon="2.94795">
        <ele>432.8</ele>
        <time>2022-07-12T08:50:09Z</time>
      </trkpt>
      <trkpt lat="44.46617" lon="2.94794">
        <ele>433.4</ele>
        <time>2022-07-12T08:50:12Z</time>
      </trkpt>
      <trkpt lat="44.4662" lon="2.94792">
        <ele>433.8</ele>
        <time>2022-07-12T08:50:14Z</time>
      </trkpt>
      <trkpt lat="44.46627" lon="2.94787">
        <ele>435</ele>
        <time>2022-07-12T08:50:19Z</time>
      </trkpt>
      <trkpt lat="44.46631" lon="2.94785">
        <ele>435.4</ele>
        <time>2022-07-12T08:50:21Z</time>
      </trkpt>
      <trkpt lat="44.46636" lon="2.94781">
        <ele>436</ele>
        <time>2022-07-12T08:50:25Z</time>
      </trkpt>
      <trkpt lat="44.46643" lon="2.94778">
        <ele>436.8</ele>
        <time>2022-07-12T08:50:29Z</time>
      </trkpt>
      <trkpt lat="44.46649" lon="2.94776">
        <ele>437.2</ele>
        <time>2022-07-12T08:50:32Z</time>
      </trkpt>
      <trkpt lat="44.46658" lon="2.94775">
        <ele>437.8</ele>
        <time>2022-07-12T08:50:37Z</time>
      </trkpt>
      <trkpt lat="44.4666" lon="2.94779">
        <ele>438.2</ele>
        <time>2022-07-12T08:50:40Z</time>
      </trkpt>
      <trkpt lat="44.4666" lon="2.94783">
        <ele>438.4</ele>
        <time>2022-07-12T08:50:42Z</time>
      </trkpt>
      <trkpt lat="44.46659" lon="2.94784">
        <ele>438.4</ele>
        <time>2022-07-12T08:50:43Z</time>
      </trkpt>
      <trkpt lat="44.46654" lon="2.94786">
        <ele>438.8</ele>
        <time>2022-07-12T08:50:46Z</time>
      </trkpt>
      <trkpt lat="44.46653" lon="2.94788">
        <ele>439.2</ele>
        <time>2022-07-12T08:50:47Z</time>
      </trkpt>
      <trkpt lat="44.46651" lon="2.94789">
        <ele>439.4</ele>
        <time>2022-07-12T08:50:48Z</time>
      </trkpt>
      <trkpt lat="44.46645" lon="2.94794">
        <ele>440</ele>
        <time>2022-07-12T08:50:52Z</time>
      </trkpt>
      <trkpt lat="44.46641" lon="2.94794">
        <ele>440.4</ele>
        <time>2022-07-12T08:50:54Z</time>
      </trkpt>
      <trkpt lat="44.46637" lon="2.94796">
        <ele>440.8</ele>
        <time>2022-07-12T08:50:57Z</time>
      </trkpt>
      <trkpt lat="44.46634" lon="2.94801">
        <ele>441.4</ele>
        <time>2022-07-12T08:51:01Z</time>
      </trkpt>
      <trkpt lat="44.46631" lon="2.94807">
        <ele>441.8</ele>
        <time>2022-07-12T08:51:04Z</time>
      </trkpt>
      <trkpt lat="44.4663" lon="2.94808">
        <ele>442</ele>
        <time>2022-07-12T08:51:05Z</time>
      </trkpt>
      <trkpt lat="44.46626" lon="2.94815">
        <ele>442.6</ele>
        <time>2022-07-12T08:51:10Z</time>
      </trkpt>
      <trkpt lat="44.46625" lon="2.94816">
        <ele>442.8</ele>
        <time>2022-07-12T08:51:11Z</time>
      </trkpt>
      <trkpt lat="44.46621" lon="2.94823">
        <ele>443.6</ele>
        <time>2022-07-12T08:51:17Z</time>
      </trkpt>
      <trkpt lat="44.4662" lon="2.94824">
        <ele>443.6</ele>
        <time>2022-07-12T08:51:18Z</time>
      </trkpt>
      <trkpt lat="44.46614" lon="2.94832">
        <ele>444.8</ele>
        <time>2022-07-12T08:51:24Z</time>
      </trkpt>
      <trkpt lat="44.46613" lon="2.94834">
        <ele>445</ele>
        <time>2022-07-12T08:51:25Z</time>
      </trkpt>
      <trkpt lat="44.46607" lon="2.94844">
        <ele>445.8</ele>
        <time>2022-07-12T08:51:31Z</time>
      </trkpt>
      <trkpt lat="44.46606" lon="2.94847">
        <ele>446.2</ele>
        <time>2022-07-12T08:51:33Z</time>
      </trkpt>
      <trkpt lat="44.46604" lon="2.9485">
        <ele>446.4</ele>
        <time>2022-07-12T08:51:34Z</time>
      </trkpt>
      <trkpt lat="44.46601" lon="2.94856">
        <ele>447</ele>
        <time>2022-07-12T08:51:38Z</time>
      </trkpt>
      <trkpt lat="44.466" lon="2.94857">
        <ele>447</ele>
        <time>2022-07-12T08:51:39Z</time>
      </trkpt>
      <trkpt lat="44.46592" lon="2.94869">
        <ele>448.2</ele>
        <time>2022-07-12T08:51:47Z</time>
      </trkpt>
      <trkpt lat="44.46591" lon="2.94873">
        <ele>448.4</ele>
        <time>2022-07-12T08:51:49Z</time>
      </trkpt>
      <trkpt lat="44.46591" lon="2.94888">
        <ele>449.2</ele>
        <time>2022-07-12T08:51:56Z</time>
      </trkpt>
      <trkpt lat="44.46591" lon="2.9489">
        <ele>449.2</ele>
        <time>2022-07-12T08:51:57Z</time>
      </trkpt>
      <trkpt lat="44.46598" lon="2.94898">
        <ele>450.4</ele>
        <time>2022-07-12T08:52:02Z</time>
      </trkpt>
      <trkpt lat="44.46602" lon="2.949">
        <ele>450.6</ele>
        <time>2022-07-12T08:52:04Z</time>
      </trkpt>
      <trkpt lat="44.46613" lon="2.94911">
        <ele>451</ele>
        <time>2022-07-12T08:52:10Z</time>
      </trkpt>
      <trkpt lat="44.46614" lon="2.94931">
        <ele>451.4</ele>
        <time>2022-07-12T08:52:15Z</time>
      </trkpt>
      <trkpt lat="44.46614" lon="2.94936">
        <ele>451.4</ele>
        <time>2022-07-12T08:52:16Z</time>
      </trkpt>
      <trkpt lat="44.46613" lon="2.94964">
        <ele>451.4</ele>
        <time>2022-07-12T08:52:22Z</time>
      </trkpt>
      <trkpt lat="44.46615" lon="2.95002">
        <ele>451</ele>
        <time>2022-07-12T08:52:29Z</time>
      </trkpt>
      <trkpt lat="44.46615" lon="2.95046">
        <ele>450.4</ele>
        <time>2022-07-12T08:52:35Z</time>
      </trkpt>
      <trkpt lat="44.46614" lon="2.95062">
        <ele>450.4</ele>
        <time>2022-07-12T08:52:37Z</time>
      </trkpt>
      <trkpt lat="44.46612" lon="2.95071">
        <ele>450.2</ele>
        <time>2022-07-12T08:52:38Z</time>
      </trkpt>
      <trkpt lat="44.46608" lon="2.95088">
        <ele>450</ele>
        <time>2022-07-12T08:52:40Z</time>
      </trkpt>
      <trkpt lat="44.46601" lon="2.95124">
        <ele>449.4</ele>
        <time>2022-07-12T08:52:44Z</time>
      </trkpt>
      <trkpt lat="44.46593" lon="2.9516">
        <ele>448.8</ele>
        <time>2022-07-12T08:52:48Z</time>
      </trkpt>
      <trkpt lat="44.4659" lon="2.95168">
        <ele>448.2</ele>
        <time>2022-07-12T08:52:49Z</time>
      </trkpt>
      <trkpt lat="44.46581" lon="2.95205">
        <ele>447.4</ele>
        <time>2022-07-12T08:52:53Z</time>
      </trkpt>
      <trkpt lat="44.46576" lon="2.95221">
        <ele>447.2</ele>
        <time>2022-07-12T08:52:55Z</time>
      </trkpt>
      <trkpt lat="44.46573" lon="2.95229">
        <ele>447</ele>
        <time>2022-07-12T08:52:56Z</time>
      </trkpt>
      <trkpt lat="44.46557" lon="2.95264">
        <ele>446.4</ele>
        <time>2022-07-12T08:53:01Z</time>
      </trkpt>
      <trkpt lat="44.46554" lon="2.95271">
        <ele>446.2</ele>
        <time>2022-07-12T08:53:02Z</time>
      </trkpt>
      <trkpt lat="44.46545" lon="2.95289">
        <ele>445.6</ele>
        <time>2022-07-12T08:53:05Z</time>
      </trkpt>
      <trkpt lat="44.46539" lon="2.95301">
        <ele>445.4</ele>
        <time>2022-07-12T08:53:07Z</time>
      </trkpt>
      <trkpt lat="44.4652" lon="2.95333">
        <ele>445.4</ele>
        <time>2022-07-12T08:53:13Z</time>
      </trkpt>
      <trkpt lat="44.46514" lon="2.95343">
        <ele>445.6</ele>
        <time>2022-07-12T08:53:15Z</time>
      </trkpt>
      <trkpt lat="44.46502" lon="2.95362">
        <ele>445.6</ele>
        <time>2022-07-12T08:53:19Z</time>
      </trkpt>
      <trkpt lat="44.46497" lon="2.95372">
        <ele>446</ele>
        <time>2022-07-12T08:53:21Z</time>
      </trkpt>
      <trkpt lat="44.46483" lon="2.95402">
        <ele>446.4</ele>
        <time>2022-07-12T08:53:27Z</time>
      </trkpt>
      <trkpt lat="44.4648" lon="2.95412">
        <ele>446.4</ele>
        <time>2022-07-12T08:53:29Z</time>
      </trkpt>
      <trkpt lat="44.46469" lon="2.95446">
        <ele>447.2</ele>
        <time>2022-07-12T08:53:36Z</time>
      </trkpt>
      <trkpt lat="44.46468" lon="2.95452">
        <ele>447.4</ele>
        <time>2022-07-12T08:53:37Z</time>
      </trkpt>
      <trkpt lat="44.46465" lon="2.95476">
        <ele>448.2</ele>
        <time>2022-07-12T08:53:43Z</time>
      </trkpt>
      <trkpt lat="44.46464" lon="2.95485">
        <ele>448.4</ele>
        <time>2022-07-12T08:53:45Z</time>
      </trkpt>
      <trkpt lat="44.46461" lon="2.95509">
        <ele>449.4</ele>
        <time>2022-07-12T08:53:51Z</time>
      </trkpt>
      <trkpt lat="44.46459" lon="2.95531">
        <ele>450</ele>
        <time>2022-07-12T08:53:57Z</time>
      </trkpt>
      <trkpt lat="44.46459" lon="2.95538">
        <ele>450.4</ele>
        <time>2022-07-12T08:53:59Z</time>
      </trkpt>
      <trkpt lat="44.46459" lon="2.95557">
        <ele>451.4</ele>
        <time>2022-07-12T08:54:04Z</time>
      </trkpt>
      <trkpt lat="44.46459" lon="2.95561">
        <ele>451.6</ele>
        <time>2022-07-12T08:54:05Z</time>
      </trkpt>
      <trkpt lat="44.46459" lon="2.95565">
        <ele>451.8</ele>
        <time>2022-07-12T08:54:06Z</time>
      </trkpt>
      <trkpt lat="44.46459" lon="2.95594">
        <ele>452.8</ele>
        <time>2022-07-12T08:54:13Z</time>
      </trkpt>
      <trkpt lat="44.46458" lon="2.95617">
        <ele>453.2</ele>
        <time>2022-07-12T08:54:18Z</time>
      </trkpt>
      <trkpt lat="44.46457" lon="2.95644">
        <ele>453.8</ele>
        <time>2022-07-12T08:54:23Z</time>
      </trkpt>
      <trkpt lat="44.46457" lon="2.9566">
        <ele>453.8</ele>
        <time>2022-07-12T08:54:26Z</time>
      </trkpt>
      <trkpt lat="44.46457" lon="2.95708">
        <ele>453.6</ele>
        <time>2022-07-12T08:54:34Z</time>
      </trkpt>
      <trkpt lat="44.46456" lon="2.95755">
        <ele>453.4</ele>
        <time>2022-07-12T08:54:40Z</time>
      </trkpt>
      <trkpt lat="44.46452" lon="2.95799">
        <ele>452.6</ele>
        <time>2022-07-12T08:54:45Z</time>
      </trkpt>
      <trkpt lat="44.46451" lon="2.95808">
        <ele>452.4</ele>
        <time>2022-07-12T08:54:46Z</time>
      </trkpt>
      <trkpt lat="44.46449" lon="2.95826">
        <ele>451.6</ele>
        <time>2022-07-12T08:54:48Z</time>
      </trkpt>
      <trkpt lat="44.46449" lon="2.95837">
        <ele>451.4</ele>
        <time>2022-07-12T08:54:49Z</time>
      </trkpt>
      <trkpt lat="44.4645" lon="2.95847">
        <ele>451.2</ele>
        <time>2022-07-12T08:54:50Z</time>
      </trkpt>
      <trkpt lat="44.46452" lon="2.95881">
        <ele>450.2</ele>
        <time>2022-07-12T08:54:53Z</time>
      </trkpt>
      <trkpt lat="44.46453" lon="2.95892">
        <ele>450</ele>
        <time>2022-07-12T08:54:54Z</time>
      </trkpt>
      <trkpt lat="44.46454" lon="2.95903">
        <ele>449.6</ele>
        <time>2022-07-12T08:54:55Z</time>
      </trkpt>
      <trkpt lat="44.46458" lon="2.95938">
        <ele>449</ele>
        <time>2022-07-12T08:54:58Z</time>
      </trkpt>
      <trkpt lat="44.4646" lon="2.95949">
        <ele>448.2</ele>
        <time>2022-07-12T08:54:59Z</time>
      </trkpt>
      <trkpt lat="44.46461" lon="2.95961">
        <ele>447.8</ele>
        <time>2022-07-12T08:55:00Z</time>
      </trkpt>
      <trkpt lat="44.46463" lon="2.95972">
        <ele>447.4</ele>
        <time>2022-07-12T08:55:01Z</time>
      </trkpt>
      <trkpt lat="44.46465" lon="2.95984">
        <ele>446.8</ele>
        <time>2022-07-12T08:55:02Z</time>
      </trkpt>
      <trkpt lat="44.46472" lon="2.96016">
        <ele>445.8</ele>
        <time>2022-07-12T08:55:05Z</time>
      </trkpt>
      <trkpt lat="44.46475" lon="2.96055">
        <ele>445</ele>
        <time>2022-07-12T08:55:09Z</time>
      </trkpt>
      <trkpt lat="44.46476" lon="2.96073">
        <ele>445</ele>
        <time>2022-07-12T08:55:11Z</time>
      </trkpt>
      <trkpt lat="44.46476" lon="2.96113">
        <ele>444</ele>
        <time>2022-07-12T08:55:16Z</time>
      </trkpt>
      <trkpt lat="44.46477" lon="2.96136">
        <ele>444</ele>
        <time>2022-07-12T08:55:19Z</time>
      </trkpt>
      <trkpt lat="44.46478" lon="2.96167">
        <ele>443.8</ele>
        <time>2022-07-12T08:55:23Z</time>
      </trkpt>
      <trkpt lat="44.4648" lon="2.96228">
        <ele>443.4</ele>
        <time>2022-07-12T08:55:31Z</time>
      </trkpt>
      <trkpt lat="44.46481" lon="2.96257">
        <ele>443.4</ele>
        <time>2022-07-12T08:55:35Z</time>
      </trkpt>
      <trkpt lat="44.4648" lon="2.96286">
        <ele>443.4</ele>
        <time>2022-07-12T08:55:39Z</time>
      </trkpt>
      <trkpt lat="44.46479" lon="2.96308">
        <ele>443.4</ele>
        <time>2022-07-12T08:55:42Z</time>
      </trkpt>
      <trkpt lat="44.4648" lon="2.96341">
        <ele>443.4</ele>
        <time>2022-07-12T08:55:46Z</time>
      </trkpt>
      <trkpt lat="44.46483" lon="2.96394">
        <ele>442.8</ele>
        <time>2022-07-12T08:55:52Z</time>
      </trkpt>
      <trkpt lat="44.46484" lon="2.96412">
        <ele>442.6</ele>
        <time>2022-07-12T08:55:54Z</time>
      </trkpt>
      <trkpt lat="44.46485" lon="2.96474">
        <ele>441.8</ele>
        <time>2022-07-12T08:56:01Z</time>
      </trkpt>
      <trkpt lat="44.46486" lon="2.965">
        <ele>441.4</ele>
        <time>2022-07-12T08:56:04Z</time>
      </trkpt>
      <trkpt lat="44.46481" lon="2.96545">
        <ele>441</ele>
        <time>2022-07-12T08:56:09Z</time>
      </trkpt>
      <trkpt lat="44.46478" lon="2.96553">
        <ele>440.8</ele>
        <time>2022-07-12T08:56:10Z</time>
      </trkpt>
      <trkpt lat="44.46473" lon="2.96568">
        <ele>440.6</ele>
        <time>2022-07-12T08:56:12Z</time>
      </trkpt>
      <trkpt lat="44.46471" lon="2.96576">
        <ele>440.4</ele>
        <time>2022-07-12T08:56:13Z</time>
      </trkpt>
      <trkpt lat="44.4647" lon="2.96584">
        <ele>440.4</ele>
        <time>2022-07-12T08:56:14Z</time>
      </trkpt>
      <trkpt lat="44.46468" lon="2.96597">
        <ele>440.2</ele>
        <time>2022-07-12T08:56:16Z</time>
      </trkpt>
      <trkpt lat="44.46469" lon="2.96617">
        <ele>440.2</ele>
        <time>2022-07-12T08:56:20Z</time>
      </trkpt>
      <trkpt lat="44.46471" lon="2.96635">
        <ele>440.6</ele>
        <time>2022-07-12T08:56:25Z</time>
      </trkpt>
      <trkpt lat="44.46472" lon="2.96663">
        <ele>442</ele>
        <time>2022-07-12T08:56:31Z</time>
      </trkpt>
      <trkpt lat="44.46472" lon="2.96667">
        <ele>442</ele>
        <time>2022-07-12T08:56:32Z</time>
      </trkpt>
      <trkpt lat="44.46474" lon="2.96686">
        <ele>442.6</ele>
        <time>2022-07-12T08:56:36Z</time>
      </trkpt>
      <trkpt lat="44.46475" lon="2.96699">
        <ele>443</ele>
        <time>2022-07-12T08:56:39Z</time>
      </trkpt>
      <trkpt lat="44.46479" lon="2.96729">
        <ele>443.2</ele>
        <time>2022-07-12T08:56:45Z</time>
      </trkpt>
      <trkpt lat="44.46481" lon="2.9675">
        <ele>443.8</ele>
        <time>2022-07-12T08:56:50Z</time>
      </trkpt>
      <trkpt lat="44.46481" lon="2.96754">
        <ele>444</ele>
        <time>2022-07-12T08:56:51Z</time>
      </trkpt>
      <trkpt lat="44.46483" lon="2.96766">
        <ele>444.8</ele>
        <time>2022-07-12T08:56:55Z</time>
      </trkpt>
      <trkpt lat="44.46485" lon="2.96797">
        <ele>444.2</ele>
        <time>2022-07-12T08:57:02Z</time>
      </trkpt>
      <trkpt lat="44.46487" lon="2.96809">
        <ele>443.6</ele>
        <time>2022-07-12T08:57:04Z</time>
      </trkpt>
      <trkpt lat="44.46491" lon="2.96821">
        <ele>443</ele>
        <time>2022-07-12T08:57:06Z</time>
      </trkpt>
      <trkpt lat="44.46496" lon="2.96832">
        <ele>442.2</ele>
        <time>2022-07-12T08:57:08Z</time>
      </trkpt>
      <trkpt lat="44.465" lon="2.96838">
        <ele>441.2</ele>
        <time>2022-07-12T08:57:09Z</time>
      </trkpt>
      <trkpt lat="44.46504" lon="2.96844">
        <ele>440.6</ele>
        <time>2022-07-12T08:57:10Z</time>
      </trkpt>
      <trkpt lat="44.46511" lon="2.96857">
        <ele>439.6</ele>
        <time>2022-07-12T08:57:12Z</time>
      </trkpt>
      <trkpt lat="44.46516" lon="2.9687">
        <ele>438.2</ele>
        <time>2022-07-12T08:57:14Z</time>
      </trkpt>
      <trkpt lat="44.4652" lon="2.9689">
        <ele>436.8</ele>
        <time>2022-07-12T08:57:17Z</time>
      </trkpt>
      <trkpt lat="44.46523" lon="2.96903">
        <ele>435.8</ele>
        <time>2022-07-12T08:57:19Z</time>
      </trkpt>
      <trkpt lat="44.46523" lon="2.96909">
        <ele>435.4</ele>
        <time>2022-07-12T08:57:20Z</time>
      </trkpt>
      <trkpt lat="44.46524" lon="2.96916">
        <ele>434.2</ele>
        <time>2022-07-12T08:57:21Z</time>
      </trkpt>
      <trkpt lat="44.46524" lon="2.96927">
        <ele>433.2</ele>
        <time>2022-07-12T08:57:23Z</time>
      </trkpt>
      <trkpt lat="44.46524" lon="2.96932">
        <ele>432.8</ele>
        <time>2022-07-12T08:57:24Z</time>
      </trkpt>
      <trkpt lat="44.46526" lon="2.96939">
        <ele>432.4</ele>
        <time>2022-07-12T08:57:25Z</time>
      </trkpt>
      <trkpt lat="44.46528" lon="2.96945">
        <ele>431.4</ele>
        <time>2022-07-12T08:57:26Z</time>
      </trkpt>
      <trkpt lat="44.4653" lon="2.96951">
        <ele>431.2</ele>
        <time>2022-07-12T08:57:27Z</time>
      </trkpt>
      <trkpt lat="44.46532" lon="2.96959">
        <ele>430.4</ele>
        <time>2022-07-12T08:57:28Z</time>
      </trkpt>
      <trkpt lat="44.46537" lon="2.96971">
        <ele>429.4</ele>
        <time>2022-07-12T08:57:30Z</time>
      </trkpt>
      <trkpt lat="44.4654" lon="2.96975">
        <ele>429.2</ele>
        <time>2022-07-12T08:57:31Z</time>
      </trkpt>
      <trkpt lat="44.46546" lon="2.96985">
        <ele>428.2</ele>
        <time>2022-07-12T08:57:33Z</time>
      </trkpt>
      <trkpt lat="44.4655" lon="2.96991">
        <ele>428</ele>
        <time>2022-07-12T08:57:34Z</time>
      </trkpt>
      <trkpt lat="44.46557" lon="2.97001">
        <ele>427.6</ele>
        <time>2022-07-12T08:57:36Z</time>
      </trkpt>
      <trkpt lat="44.46564" lon="2.97008">
        <ele>427</ele>
        <time>2022-07-12T08:57:38Z</time>
      </trkpt>
      <trkpt lat="44.46566" lon="2.97011">
        <ele>427</ele>
        <time>2022-07-12T08:57:39Z</time>
      </trkpt>
      <trkpt lat="44.46578" lon="2.97024">
        <ele>426.8</ele>
        <time>2022-07-12T08:57:44Z</time>
      </trkpt>
      <trkpt lat="44.46593" lon="2.9704">
        <ele>427</ele>
        <time>2022-07-12T08:57:50Z</time>
      </trkpt>
      <trkpt lat="44.46609" lon="2.9706">
        <ele>427.2</ele>
        <time>2022-07-12T08:57:56Z</time>
      </trkpt>
      <trkpt lat="44.46622" lon="2.97072">
        <ele>427.2</ele>
        <time>2022-07-12T08:58:01Z</time>
      </trkpt>
      <trkpt lat="44.46631" lon="2.97083">
        <ele>427.4</ele>
        <time>2022-07-12T08:58:06Z</time>
      </trkpt>
      <trkpt lat="44.4664" lon="2.97086">
        <ele>427.8</ele>
        <time>2022-07-12T08:58:10Z</time>
      </trkpt>
      <trkpt lat="44.46642" lon="2.97088">
        <ele>428</ele>
        <time>2022-07-12T08:58:11Z</time>
      </trkpt>
      <trkpt lat="44.46642" lon="2.97086">
        <ele>428</ele>
        <time>2022-07-12T08:58:12Z</time>
      </trkpt>
      <trkpt lat="44.46646" lon="2.97087">
        <ele>428.2</ele>
        <time>2022-07-12T08:58:14Z</time>
      </trkpt>
      <trkpt lat="44.4665" lon="2.97091">
        <ele>428.2</ele>
        <time>2022-07-12T08:58:15Z</time>
      </trkpt>
      <trkpt lat="44.46655" lon="2.97096">
        <ele>428.2</ele>
        <time>2022-07-12T08:58:16Z</time>
      </trkpt>
      <trkpt lat="44.46669" lon="2.97109">
        <ele>428.8</ele>
        <time>2022-07-12T08:58:20Z</time>
      </trkpt>
      <trkpt lat="44.46674" lon="2.97115">
        <ele>429</ele>
        <time>2022-07-12T08:58:22Z</time>
      </trkpt>
      <trkpt lat="44.46677" lon="2.9712">
        <ele>429</ele>
        <time>2022-07-12T08:58:24Z</time>
      </trkpt>
      <trkpt lat="44.46678" lon="2.97122">
        <ele>429.2</ele>
        <time>2022-07-12T08:58:25Z</time>
      </trkpt>
      <trkpt lat="44.46679" lon="2.97124">
        <ele>429.4</ele>
        <time>2022-07-12T08:58:27Z</time>
      </trkpt>
      <trkpt lat="44.46679" lon="2.97125">
        <ele>429.8</ele>
        <time>2022-07-12T08:58:31Z</time>
      </trkpt>
      <trkpt lat="44.46681" lon="2.97124">
        <ele>429.6</ele>
        <time>2022-07-12T09:00:16Z</time>
      </trkpt>
      <trkpt lat="44.46681" lon="2.97124">
        <ele>429.6</ele>
        <time>2022-07-12T09:00:18Z</time>
      </trkpt>
      <trkpt lat="44.46681" lon="2.97124">
        <ele>429.6</ele>
        <time>2022-07-12T09:00:19Z</time>
      </trkpt>
      <trkpt lat="44.46681" lon="2.97122">
        <ele>429.2</ele>
        <time>2022-07-12T09:03:14Z</time>
      </trkpt>
      <trkpt lat="44.46681" lon="2.97122">
        <ele>429.2</ele>
        <time>2022-07-12T09:03:19Z</time>
      </trkpt>
      <trkpt lat="44.46677" lon="2.97117">
        <ele>429</ele>
        <time>2022-07-12T09:05:04Z</time>
      </trkpt>
      <trkpt lat="44.46677" lon="2.97117">
        <ele>429</ele>
        <time>2022-07-12T09:05:07Z</time>
      </trkpt>
      <trkpt lat="44.46677" lon="2.97117">
        <ele>429</ele>
        <time>2022-07-12T09:05:12Z</time>
      </trkpt>
      <trkpt lat="44.46676" lon="2.97112">
        <ele>428.6</ele>
        <time>2022-07-12T09:15:07Z</time>
      </trkpt>
      <trkpt lat="44.46676" lon="2.97112">
        <ele>428.6</ele>
        <time>2022-07-12T09:15:08Z</time>
      </trkpt>
      <trkpt lat="44.46679" lon="2.97118">
        <ele>428.4</ele>
        <time>2022-07-12T09:15:13Z</time>
      </trkpt>
      <trkpt lat="44.46687" lon="2.97129">
        <ele>428.4</ele>
        <time>2022-07-12T09:15:19Z</time>
      </trkpt>
      <trkpt lat="44.46695" lon="2.97148">
        <ele>428.6</ele>
        <time>2022-07-12T09:15:25Z</time>
      </trkpt>
      <trkpt lat="44.46694" lon="2.97153">
        <ele>428.8</ele>
        <time>2022-07-12T09:15:27Z</time>
      </trkpt>
      <trkpt lat="44.46691" lon="2.97158">
        <ele>428.8</ele>
        <time>2022-07-12T09:15:29Z</time>
      </trkpt>
      <trkpt lat="44.46682" lon="2.97168">
        <ele>429</ele>
        <time>2022-07-12T09:15:35Z</time>
      </trkpt>
      <trkpt lat="44.46673" lon="2.97177">
        <ele>429.6</ele>
        <time>2022-07-12T09:15:40Z</time>
      </trkpt>
      <trkpt lat="44.46667" lon="2.97184">
        <ele>430</ele>
        <time>2022-07-12T09:15:44Z</time>
      </trkpt>
      <trkpt lat="44.46662" lon="2.97189">
        <ele>430.2</ele>
        <time>2022-07-12T09:15:47Z</time>
      </trkpt>
      <trkpt lat="44.46651" lon="2.97199">
        <ele>430.4</ele>
        <time>2022-07-12T09:15:52Z</time>
      </trkpt>
      <trkpt lat="44.46635" lon="2.97224">
        <ele>429.8</ele>
        <time>2022-07-12T09:15:59Z</time>
      </trkpt>
      <trkpt lat="44.46634" lon="2.97231">
        <ele>429.8</ele>
        <time>2022-07-12T09:16:00Z</time>
      </trkpt>
      <trkpt lat="44.46635" lon="2.97245">
        <ele>429.6</ele>
        <time>2022-07-12T09:16:02Z</time>
      </trkpt>
      <trkpt lat="44.46635" lon="2.97258">
        <ele>429.2</ele>
        <time>2022-07-12T09:16:04Z</time>
      </trkpt>
      <trkpt lat="44.46633" lon="2.97264">
        <ele>429</ele>
        <time>2022-07-12T09:16:05Z</time>
      </trkpt>
      <trkpt lat="44.46632" lon="2.97267">
        <ele>428.8</ele>
        <time>2022-07-12T09:16:06Z</time>
      </trkpt>
      <trkpt lat="44.46627" lon="2.97275">
        <ele>428.8</ele>
        <time>2022-07-12T09:16:09Z</time>
      </trkpt>
      <trkpt lat="44.46625" lon="2.97276">
        <ele>428.8</ele>
        <time>2022-07-12T09:16:10Z</time>
      </trkpt>
      <trkpt lat="44.46615" lon="2.97283">
        <ele>429</ele>
        <time>2022-07-12T09:16:15Z</time>
      </trkpt>
      <trkpt lat="44.46604" lon="2.97294">
        <ele>429.8</ele>
        <time>2022-07-12T09:16:21Z</time>
      </trkpt>
      <trkpt lat="44.46603" lon="2.97295">
        <ele>429.8</ele>
        <time>2022-07-12T09:16:22Z</time>
      </trkpt>
      <trkpt lat="44.46601" lon="2.97297">
        <ele>430</ele>
        <time>2022-07-12T09:16:24Z</time>
      </trkpt>
      <trkpt lat="44.466" lon="2.97298">
        <ele>430.2</ele>
        <time>2022-07-12T09:16:27Z</time>
      </trkpt>
      <trkpt lat="44.466" lon="2.97298">
        <ele>430.4</ele>
        <time>2022-07-12T09:16:30Z</time>
      </trkpt>
      <trkpt lat="44.46598" lon="2.973">
        <ele>430.4</ele>
        <time>2022-07-12T09:16:33Z</time>
      </trkpt>
      <trkpt lat="44.46597" lon="2.97301">
        <ele>430.4</ele>
        <time>2022-07-12T09:16:34Z</time>
      </trkpt>
      <trkpt lat="44.46596" lon="2.97302">
        <ele>430.4</ele>
        <time>2022-07-12T09:16:35Z</time>
      </trkpt>
      <trkpt lat="44.46591" lon="2.97309">
        <ele>430.4</ele>
        <time>2022-07-12T09:16:39Z</time>
      </trkpt>
      <trkpt lat="44.4659" lon="2.97312">
        <ele>430.4</ele>
        <time>2022-07-12T09:16:40Z</time>
      </trkpt>
      <trkpt lat="44.46586" lon="2.9732">
        <ele>430.6</ele>
        <time>2022-07-12T09:16:43Z</time>
      </trkpt>
      <trkpt lat="44.46581" lon="2.97327">
        <ele>430.6</ele>
        <time>2022-07-12T09:16:46Z</time>
      </trkpt>
      <trkpt lat="44.46578" lon="2.97329">
        <ele>430.8</ele>
        <time>2022-07-12T09:16:47Z</time>
      </trkpt>
      <trkpt lat="44.46569" lon="2.97341">
        <ele>431.2</ele>
        <time>2022-07-12T09:16:52Z</time>
      </trkpt>
      <trkpt lat="44.46561" lon="2.97351">
        <ele>431.6</ele>
        <time>2022-07-12T09:16:57Z</time>
      </trkpt>
      <trkpt lat="44.46554" lon="2.97355">
        <ele>431.8</ele>
        <time>2022-07-12T09:17:03Z</time>
      </trkpt>
      <trkpt lat="44.46543" lon="2.97352">
        <ele>432</ele>
        <time>2022-07-12T09:17:09Z</time>
      </trkpt>
      <trkpt lat="44.46542" lon="2.97351">
        <ele>432.2</ele>
        <time>2022-07-12T09:17:11Z</time>
      </trkpt>
      <trkpt lat="44.4654" lon="2.97348">
        <ele>432.2</ele>
        <time>2022-07-12T09:17:13Z</time>
      </trkpt>
      <trkpt lat="44.46538" lon="2.97347">
        <ele>432.2</ele>
        <time>2022-07-12T09:17:15Z</time>
      </trkpt>
      <trkpt lat="44.46537" lon="2.97344">
        <ele>432.2</ele>
        <time>2022-07-12T09:17:17Z</time>
      </trkpt>
      <trkpt lat="44.46536" lon="2.97341">
        <ele>432.2</ele>
        <time>2022-07-12T09:17:19Z</time>
      </trkpt>
      <trkpt lat="44.46535" lon="2.9734">
        <ele>432</ele>
        <time>2022-07-12T09:17:22Z</time>
      </trkpt>
      <trkpt lat="44.46532" lon="2.97339">
        <ele>431.6</ele>
        <time>2022-07-12T09:17:33Z</time>
      </trkpt>
      <trkpt lat="44.46526" lon="2.97342">
        <ele>431.6</ele>
        <time>2022-07-12T09:17:38Z</time>
      </trkpt>
      <trkpt lat="44.46524" lon="2.97342">
        <ele>431.6</ele>
        <time>2022-07-12T09:17:39Z</time>
      </trkpt>
      <trkpt lat="44.46522" lon="2.97341">
        <ele>431.8</ele>
        <time>2022-07-12T09:17:44Z</time>
      </trkpt>
      <trkpt lat="44.46523" lon="2.97341">
        <ele>432</ele>
        <time>2022-07-12T09:17:45Z</time>
      </trkpt>
      <trkpt lat="44.46525" lon="2.97341">
        <ele>432</ele>
        <time>2022-07-12T09:17:47Z</time>
      </trkpt>
      <trkpt lat="44.46527" lon="2.97342">
        <ele>432.2</ele>
        <time>2022-07-12T09:17:49Z</time>
      </trkpt>
      <trkpt lat="44.46528" lon="2.97343">
        <ele>432.2</ele>
        <time>2022-07-12T09:17:50Z</time>
      </trkpt>
      <trkpt lat="44.46532" lon="2.97347">
        <ele>432.2</ele>
        <time>2022-07-12T09:17:53Z</time>
      </trkpt>
      <trkpt lat="44.46534" lon="2.97351">
        <ele>432.2</ele>
        <time>2022-07-12T09:17:55Z</time>
      </trkpt>
      <trkpt lat="44.46535" lon="2.97353">
        <ele>432.2</ele>
        <time>2022-07-12T09:17:56Z</time>
      </trkpt>
      <trkpt lat="44.46537" lon="2.97357">
        <ele>432.2</ele>
        <time>2022-07-12T09:17:59Z</time>
      </trkpt>
      <trkpt lat="44.46537" lon="2.97358">
        <ele>432.2</ele>
        <time>2022-07-12T09:18:01Z</time>
      </trkpt>
      <trkpt lat="44.46537" lon="2.97358">
        <ele>432.2</ele>
        <time>2022-07-12T09:18:06Z</time>
      </trkpt>
      <trkpt lat="44.46537" lon="2.97358">
        <ele>432</ele>
        <time>2022-07-12T09:18:15Z</time>
      </trkpt>
      <trkpt lat="44.46537" lon="2.97359">
        <ele>432</ele>
        <time>2022-07-12T09:18:19Z</time>
      </trkpt>
      <trkpt lat="44.46538" lon="2.97359">
        <ele>432</ele>
        <time>2022-07-12T09:18:28Z</time>
      </trkpt>
      <trkpt lat="44.46537" lon="2.97354">
        <ele>431.8</ele>
        <time>2022-07-12T09:18:31Z</time>
      </trkpt>
      <trkpt lat="44.46537" lon="2.97354">
        <ele>432</ele>
        <time>2022-07-12T09:18:32Z</time>
      </trkpt>
      <trkpt lat="44.46533" lon="2.97345">
        <ele>431.8</ele>
        <time>2022-07-12T09:18:36Z</time>
      </trkpt>
      <trkpt lat="44.46528" lon="2.97343">
        <ele>432</ele>
        <time>2022-07-12T09:18:38Z</time>
      </trkpt>
      <trkpt lat="44.46512" lon="2.97344">
        <ele>432</ele>
        <time>2022-07-12T09:18:43Z</time>
      </trkpt>
      <trkpt lat="44.46503" lon="2.97343">
        <ele>432.2</ele>
        <time>2022-07-12T09:18:46Z</time>
      </trkpt>
      <trkpt lat="44.46484" lon="2.97344">
        <ele>432.4</ele>
        <time>2022-07-12T09:18:52Z</time>
      </trkpt>
      <trkpt lat="44.46469" lon="2.97344">
        <ele>432.4</ele>
        <time>2022-07-12T09:18:57Z</time>
      </trkpt>
      <trkpt lat="44.46452" lon="2.97353">
        <ele>432.4</ele>
        <time>2022-07-12T09:19:03Z</time>
      </trkpt>
      <trkpt lat="44.46433" lon="2.97361">
        <ele>432.4</ele>
        <time>2022-07-12T09:19:10Z</time>
      </trkpt>
      <trkpt lat="44.46428" lon="2.97366">
        <ele>432.6</ele>
        <time>2022-07-12T09:19:13Z</time>
      </trkpt>
      <trkpt lat="44.46427" lon="2.97367">
        <ele>432.6</ele>
        <time>2022-07-12T09:19:14Z</time>
      </trkpt>
      <trkpt lat="44.46427" lon="2.97367">
        <ele>432.8</ele>
        <time>2022-07-12T09:19:16Z</time>
      </trkpt>
      <trkpt lat="44.46427" lon="2.97366">
        <ele>434.2</ele>
        <time>2022-07-12T09:33:35Z</time>
      </trkpt>
      <trkpt lat="44.46426" lon="2.97364">
        <ele>434.2</ele>
        <time>2022-07-12T09:33:36Z</time>
      </trkpt>
      <trkpt lat="44.46416" lon="2.97361">
        <ele>434</ele>
        <time>2022-07-12T09:33:41Z</time>
      </trkpt>
      <trkpt lat="44.46402" lon="2.97361">
        <ele>433.8</ele>
        <time>2022-07-12T09:33:47Z</time>
      </trkpt>
      <trkpt lat="44.46386" lon="2.97364">
        <ele>433.8</ele>
        <time>2022-07-12T09:33:53Z</time>
      </trkpt>
      <trkpt lat="44.46373" lon="2.97365">
        <ele>434</ele>
        <time>2022-07-12T09:33:58Z</time>
      </trkpt>
      <trkpt lat="44.46357" lon="2.97366">
        <ele>434.2</ele>
        <time>2022-07-12T09:34:04Z</time>
      </trkpt>
      <trkpt lat="44.46338" lon="2.97368">
        <ele>434.4</ele>
        <time>2022-07-12T09:34:11Z</time>
      </trkpt>
      <trkpt lat="44.46322" lon="2.97363">
        <ele>434.4</ele>
        <time>2022-07-12T09:34:18Z</time>
      </trkpt>
      <trkpt lat="44.46315" lon="2.97347">
        <ele>434.2</ele>
        <time>2022-07-12T09:34:22Z</time>
      </trkpt>
      <trkpt lat="44.46308" lon="2.97321">
        <ele>434</ele>
        <time>2022-07-12T09:34:27Z</time>
      </trkpt>
      <trkpt lat="44.46307" lon="2.97311">
        <ele>434</ele>
        <time>2022-07-12T09:34:29Z</time>
      </trkpt>
      <trkpt lat="44.46309" lon="2.97307">
        <ele>434</ele>
        <time>2022-07-12T09:34:30Z</time>
      </trkpt>
      <trkpt lat="44.46311" lon="2.97299">
        <ele>434</ele>
        <time>2022-07-12T09:34:33Z</time>
      </trkpt>
      <trkpt lat="44.46311" lon="2.97298">
        <ele>434</ele>
        <time>2022-07-12T09:34:34Z</time>
      </trkpt>
      <trkpt lat="44.46311" lon="2.97298">
        <ele>434</ele>
        <time>2022-07-12T09:34:35Z</time>
      </trkpt>
      <trkpt lat="44.46312" lon="2.97298">
        <ele>434</ele>
        <time>2022-07-12T09:34:38Z</time>
      </trkpt>
      <trkpt lat="44.46312" lon="2.97298">
        <ele>434</ele>
        <time>2022-07-12T09:34:40Z</time>
      </trkpt>
      <trkpt lat="44.46314" lon="2.97298">
        <ele>433.6</ele>
        <time>2022-07-12T09:34:57Z</time>
      </trkpt>
      <trkpt lat="44.46315" lon="2.97297">
        <ele>433.6</ele>
        <time>2022-07-12T09:35:00Z</time>
      </trkpt>
      <trkpt lat="44.46316" lon="2.97301">
        <ele>433.4</ele>
        <time>2022-07-12T09:35:03Z</time>
      </trkpt>
      <trkpt lat="44.4631" lon="2.97306">
        <ele>433.4</ele>
        <time>2022-07-12T09:35:07Z</time>
      </trkpt>
      <trkpt lat="44.463" lon="2.97305">
        <ele>433.6</ele>
        <time>2022-07-12T09:35:12Z</time>
      </trkpt>
      <trkpt lat="44.46298" lon="2.97302">
        <ele>433.6</ele>
        <time>2022-07-12T09:35:13Z</time>
      </trkpt>
      <trkpt lat="44.46296" lon="2.97298">
        <ele>433.6</ele>
        <time>2022-07-12T09:35:14Z</time>
      </trkpt>
      <trkpt lat="44.46285" lon="2.97265">
        <ele>434</ele>
        <time>2022-07-12T09:35:22Z</time>
      </trkpt>
      <trkpt lat="44.46279" lon="2.97243">
        <ele>434</ele>
        <time>2022-07-12T09:35:28Z</time>
      </trkpt>
      <trkpt lat="44.46277" lon="2.97238">
        <ele>433.8</ele>
        <time>2022-07-12T09:35:33Z</time>
      </trkpt>
      <trkpt lat="44.46276" lon="2.97237">
        <ele>434.2</ele>
        <time>2022-07-12T09:36:37Z</time>
      </trkpt>
      <trkpt lat="44.46275" lon="2.97237">
        <ele>434.2</ele>
        <time>2022-07-12T09:36:38Z</time>
      </trkpt>
      <trkpt lat="44.46273" lon="2.97231">
        <ele>434.2</ele>
        <time>2022-07-12T09:36:41Z</time>
      </trkpt>
      <trkpt lat="44.46266" lon="2.97211">
        <ele>434</ele>
        <time>2022-07-12T09:36:46Z</time>
      </trkpt>
      <trkpt lat="44.46258" lon="2.97187">
        <ele>433.8</ele>
        <time>2022-07-12T09:36:51Z</time>
      </trkpt>
      <trkpt lat="44.46246" lon="2.97154">
        <ele>433.6</ele>
        <time>2022-07-12T09:36:57Z</time>
      </trkpt>
      <trkpt lat="44.4623" lon="2.97106">
        <ele>433.4</ele>
        <time>2022-07-12T09:37:05Z</time>
      </trkpt>
      <trkpt lat="44.46219" lon="2.97077">
        <ele>433.2</ele>
        <time>2022-07-12T09:37:10Z</time>
      </trkpt>
      <trkpt lat="44.46211" lon="2.97055">
        <ele>433</ele>
        <time>2022-07-12T09:37:14Z</time>
      </trkpt>
      <trkpt lat="44.46194" lon="2.97005">
        <ele>433</ele>
        <time>2022-07-12T09:37:23Z</time>
      </trkpt>
      <trkpt lat="44.46174" lon="2.96953">
        <ele>433</ele>
        <time>2022-07-12T09:37:33Z</time>
      </trkpt>
      <trkpt lat="44.46165" lon="2.96928">
        <ele>433.2</ele>
        <time>2022-07-12T09:37:38Z</time>
      </trkpt>
      <trkpt lat="44.46161" lon="2.96917">
        <ele>433.2</ele>
        <time>2022-07-12T09:37:40Z</time>
      </trkpt>
      <trkpt lat="44.46145" lon="2.96871">
        <ele>433</ele>
        <time>2022-07-12T09:37:49Z</time>
      </trkpt>
      <trkpt lat="44.46135" lon="2.96843">
        <ele>432.8</ele>
        <time>2022-07-12T09:37:54Z</time>
      </trkpt>
      <trkpt lat="44.4613" lon="2.96827">
        <ele>432.8</ele>
        <time>2022-07-12T09:37:57Z</time>
      </trkpt>
      <trkpt lat="44.46117" lon="2.96794">
        <ele>432.6</ele>
        <time>2022-07-12T09:38:03Z</time>
      </trkpt>
      <trkpt lat="44.46113" lon="2.96783">
        <ele>432.6</ele>
        <time>2022-07-12T09:38:05Z</time>
      </trkpt>
      <trkpt lat="44.46103" lon="2.96754">
        <ele>432.6</ele>
        <time>2022-07-12T09:38:10Z</time>
      </trkpt>
      <trkpt lat="44.461" lon="2.96735">
        <ele>432.4</ele>
        <time>2022-07-12T09:38:13Z</time>
      </trkpt>
      <trkpt lat="44.46098" lon="2.96723">
        <ele>432.4</ele>
        <time>2022-07-12T09:38:15Z</time>
      </trkpt>
      <trkpt lat="44.46098" lon="2.96711">
        <ele>432.4</ele>
        <time>2022-07-12T09:38:17Z</time>
      </trkpt>
      <trkpt lat="44.46097" lon="2.96705">
        <ele>432.4</ele>
        <time>2022-07-12T09:38:18Z</time>
      </trkpt>
      <trkpt lat="44.46095" lon="2.967">
        <ele>432.4</ele>
        <time>2022-07-12T09:38:19Z</time>
      </trkpt>
      <trkpt lat="44.46086" lon="2.96687">
        <ele>432.2</ele>
        <time>2022-07-12T09:38:22Z</time>
      </trkpt>
      <trkpt lat="44.46069" lon="2.96661">
        <ele>431.8</ele>
        <time>2022-07-12T09:38:28Z</time>
      </trkpt>
      <trkpt lat="44.46056" lon="2.96624">
        <ele>431.6</ele>
        <time>2022-07-12T09:38:34Z</time>
      </trkpt>
      <trkpt lat="44.46049" lon="2.96606">
        <ele>431.6</ele>
        <time>2022-07-12T09:38:37Z</time>
      </trkpt>
      <trkpt lat="44.46033" lon="2.96555">
        <ele>431.2</ele>
        <time>2022-07-12T09:38:46Z</time>
      </trkpt>
      <trkpt lat="44.46031" lon="2.96549">
        <ele>431.2</ele>
        <time>2022-07-12T09:38:47Z</time>
      </trkpt>
      <trkpt lat="44.46018" lon="2.96515">
        <ele>431</ele>
        <time>2022-07-12T09:38:53Z</time>
      </trkpt>
      <trkpt lat="44.46" lon="2.96466">
        <ele>430.8</ele>
        <time>2022-07-12T09:39:02Z</time>
      </trkpt>
      <trkpt lat="44.45995" lon="2.96449">
        <ele>430.8</ele>
        <time>2022-07-12T09:39:05Z</time>
      </trkpt>
      <trkpt lat="44.45988" lon="2.96433">
        <ele>430.8</ele>
        <time>2022-07-12T09:39:08Z</time>
      </trkpt>
      <trkpt lat="44.45986" lon="2.96428">
        <ele>430.8</ele>
        <time>2022-07-12T09:39:09Z</time>
      </trkpt>
      <trkpt lat="44.45979" lon="2.96404">
        <ele>430.6</ele>
        <time>2022-07-12T09:39:13Z</time>
      </trkpt>
      <trkpt lat="44.45971" lon="2.96382">
        <ele>430.6</ele>
        <time>2022-07-12T09:39:17Z</time>
      </trkpt>
      <trkpt lat="44.45957" lon="2.96343">
        <ele>430.4</ele>
        <time>2022-07-12T09:39:24Z</time>
      </trkpt>
      <trkpt lat="44.45944" lon="2.96304">
        <ele>430.4</ele>
        <time>2022-07-12T09:39:31Z</time>
      </trkpt>
      <trkpt lat="44.45927" lon="2.96253">
        <ele>430.6</ele>
        <time>2022-07-12T09:39:41Z</time>
      </trkpt>
      <trkpt lat="44.45917" lon="2.96226">
        <ele>431.4</ele>
        <time>2022-07-12T09:39:47Z</time>
      </trkpt>
      <trkpt lat="44.45912" lon="2.96213">
        <ele>431.8</ele>
        <time>2022-07-12T09:39:50Z</time>
      </trkpt>
      <trkpt lat="44.45905" lon="2.96193">
        <ele>432.4</ele>
        <time>2022-07-12T09:39:55Z</time>
      </trkpt>
      <trkpt lat="44.45902" lon="2.96185">
        <ele>432.8</ele>
        <time>2022-07-12T09:39:57Z</time>
      </trkpt>
      <trkpt lat="44.45896" lon="2.96166">
        <ele>433.6</ele>
        <time>2022-07-12T09:40:02Z</time>
      </trkpt>
      <trkpt lat="44.45893" lon="2.96155">
        <ele>433.8</ele>
        <time>2022-07-12T09:40:05Z</time>
      </trkpt>
      <trkpt lat="44.45886" lon="2.96133">
        <ele>434.2</ele>
        <time>2022-07-12T09:40:11Z</time>
      </trkpt>
      <trkpt lat="44.45879" lon="2.96111">
        <ele>434.6</ele>
        <time>2022-07-12T09:40:17Z</time>
      </trkpt>
      <trkpt lat="44.45874" lon="2.961">
        <ele>434.8</ele>
        <time>2022-07-12T09:40:20Z</time>
      </trkpt>
      <trkpt lat="44.45865" lon="2.96075">
        <ele>435.6</ele>
        <time>2022-07-12T09:40:26Z</time>
      </trkpt>
      <trkpt lat="44.45857" lon="2.96029">
        <ele>435.6</ele>
        <time>2022-07-12T09:40:36Z</time>
      </trkpt>
      <trkpt lat="44.45855" lon="2.95984">
        <ele>435.8</ele>
        <time>2022-07-12T09:40:45Z</time>
      </trkpt>
      <trkpt lat="44.45856" lon="2.95952">
        <ele>435.8</ele>
        <time>2022-07-12T09:40:52Z</time>
      </trkpt>
      <trkpt lat="44.45855" lon="2.95929">
        <ele>435.8</ele>
        <time>2022-07-12T09:40:58Z</time>
      </trkpt>
      <trkpt lat="44.45854" lon="2.95925">
        <ele>435.8</ele>
        <time>2022-07-12T09:40:59Z</time>
      </trkpt>
      <trkpt lat="44.45852" lon="2.95921">
        <ele>436</ele>
        <time>2022-07-12T09:41:01Z</time>
      </trkpt>
      <trkpt lat="44.45845" lon="2.95918">
        <ele>436.2</ele>
        <time>2022-07-12T09:41:04Z</time>
      </trkpt>
      <trkpt lat="44.45836" lon="2.95918">
        <ele>436.6</ele>
        <time>2022-07-12T09:41:09Z</time>
      </trkpt>
      <trkpt lat="44.45834" lon="2.95917">
        <ele>436.8</ele>
        <time>2022-07-12T09:41:10Z</time>
      </trkpt>
      <trkpt lat="44.45832" lon="2.95916">
        <ele>437</ele>
        <time>2022-07-12T09:41:11Z</time>
      </trkpt>
      <trkpt lat="44.45822" lon="2.95914">
        <ele>438.2</ele>
        <time>2022-07-12T09:41:17Z</time>
      </trkpt>
      <trkpt lat="44.45821" lon="2.95914">
        <ele>438.2</ele>
        <time>2022-07-12T09:41:18Z</time>
      </trkpt>
      <trkpt lat="44.45818" lon="2.95914">
        <ele>438.6</ele>
        <time>2022-07-12T09:41:20Z</time>
      </trkpt>
      <trkpt lat="44.45815" lon="2.95915">
        <ele>438.8</ele>
        <time>2022-07-12T09:41:22Z</time>
      </trkpt>
      <trkpt lat="44.45813" lon="2.95915">
        <ele>439</ele>
        <time>2022-07-12T09:41:23Z</time>
      </trkpt>
      <trkpt lat="44.4581" lon="2.95917">
        <ele>439.2</ele>
        <time>2022-07-12T09:41:25Z</time>
      </trkpt>
      <trkpt lat="44.45805" lon="2.95914">
        <ele>440</ele>
        <time>2022-07-12T09:41:29Z</time>
      </trkpt>
      <trkpt lat="44.45802" lon="2.95914">
        <ele>440.4</ele>
        <time>2022-07-12T09:41:31Z</time>
      </trkpt>
      <trkpt lat="44.45797" lon="2.95914">
        <ele>441</ele>
        <time>2022-07-12T09:41:35Z</time>
      </trkpt>
      <trkpt lat="44.45795" lon="2.95912">
        <ele>441.4</ele>
        <time>2022-07-12T09:41:37Z</time>
      </trkpt>
      <trkpt lat="44.45787" lon="2.95912">
        <ele>442.2</ele>
        <time>2022-07-12T09:41:43Z</time>
      </trkpt>
      <trkpt lat="44.45785" lon="2.95912">
        <ele>442.4</ele>
        <time>2022-07-12T09:41:44Z</time>
      </trkpt>
      <trkpt lat="44.45783" lon="2.95911">
        <ele>442.4</ele>
        <time>2022-07-12T09:41:45Z</time>
      </trkpt>
      <trkpt lat="44.45779" lon="2.95911">
        <ele>443</ele>
        <time>2022-07-12T09:41:48Z</time>
      </trkpt>
      <trkpt lat="44.45774" lon="2.95909">
        <ele>443.6</ele>
        <time>2022-07-12T09:41:52Z</time>
      </trkpt>
      <trkpt lat="44.4577" lon="2.95907">
        <ele>444</ele>
        <time>2022-07-12T09:41:55Z</time>
      </trkpt>
      <trkpt lat="44.45763" lon="2.95906">
        <ele>444.6</ele>
        <time>2022-07-12T09:41:59Z</time>
      </trkpt>
      <trkpt lat="44.45759" lon="2.95906">
        <ele>445.2</ele>
        <time>2022-07-12T09:42:02Z</time>
      </trkpt>
      <trkpt lat="44.45752" lon="2.95904">
        <ele>445.6</ele>
        <time>2022-07-12T09:42:07Z</time>
      </trkpt>
      <trkpt lat="44.45744" lon="2.95902">
        <ele>446.6</ele>
        <time>2022-07-12T09:42:12Z</time>
      </trkpt>
      <trkpt lat="44.45733" lon="2.95902">
        <ele>447.6</ele>
        <time>2022-07-12T09:42:20Z</time>
      </trkpt>
      <trkpt lat="44.4573" lon="2.95902">
        <ele>447.8</ele>
        <time>2022-07-12T09:42:22Z</time>
      </trkpt>
      <trkpt lat="44.45718" lon="2.959">
        <ele>448.8</ele>
        <time>2022-07-12T09:42:29Z</time>
      </trkpt>
      <trkpt lat="44.45713" lon="2.959">
        <ele>449.2</ele>
        <time>2022-07-12T09:42:32Z</time>
      </trkpt>
      <trkpt lat="44.45704" lon="2.95899">
        <ele>449.8</ele>
        <time>2022-07-12T09:42:38Z</time>
      </trkpt>
      <trkpt lat="44.45699" lon="2.95898">
        <ele>450.2</ele>
        <time>2022-07-12T09:42:42Z</time>
      </trkpt>
      <trkpt lat="44.4569" lon="2.95897">
        <ele>450.8</ele>
        <time>2022-07-12T09:42:49Z</time>
      </trkpt>
      <trkpt lat="44.45689" lon="2.95897">
        <ele>451</ele>
        <time>2022-07-12T09:42:50Z</time>
      </trkpt>
      <trkpt lat="44.45681" lon="2.95897">
        <ele>452</ele>
        <time>2022-07-12T09:42:56Z</time>
      </trkpt>
      <trkpt lat="44.45678" lon="2.95898">
        <ele>452.2</ele>
        <time>2022-07-12T09:42:58Z</time>
      </trkpt>
      <trkpt lat="44.45676" lon="2.95898">
        <ele>452.4</ele>
        <time>2022-07-12T09:43:00Z</time>
      </trkpt>
      <trkpt lat="44.45671" lon="2.95897">
        <ele>453</ele>
        <time>2022-07-12T09:43:03Z</time>
      </trkpt>
      <trkpt lat="44.45669" lon="2.95897">
        <ele>453.4</ele>
        <time>2022-07-12T09:43:05Z</time>
      </trkpt>
      <trkpt lat="44.45663" lon="2.95899">
        <ele>453.8</ele>
        <time>2022-07-12T09:43:10Z</time>
      </trkpt>
      <trkpt lat="44.45661" lon="2.959">
        <ele>454</ele>
        <time>2022-07-12T09:43:12Z</time>
      </trkpt>
      <trkpt lat="44.4566" lon="2.959">
        <ele>454.4</ele>
        <time>2022-07-12T09:43:13Z</time>
      </trkpt>
      <trkpt lat="44.45659" lon="2.95898">
        <ele>454.8</ele>
        <time>2022-07-12T09:43:15Z</time>
      </trkpt>
      <trkpt lat="44.45659" lon="2.95898">
        <ele>455.2</ele>
        <time>2022-07-12T09:43:17Z</time>
      </trkpt>
      <trkpt lat="44.45661" lon="2.95899">
        <ele>455.4</ele>
        <time>2022-07-12T09:43:20Z</time>
      </trkpt>
      <trkpt lat="44.45662" lon="2.95898">
        <ele>455.6</ele>
        <time>2022-07-12T09:43:22Z</time>
      </trkpt>
      <trkpt lat="44.45665" lon="2.95901">
        <ele>455</ele>
        <time>2022-07-12T09:43:30Z</time>
      </trkpt>
      <trkpt lat="44.45665" lon="2.95901">
        <ele>455</ele>
        <time>2022-07-12T09:43:31Z</time>
      </trkpt>
      <trkpt lat="44.45662" lon="2.95904">
        <ele>455</ele>
        <time>2022-07-12T09:44:02Z</time>
      </trkpt>
      <trkpt lat="44.4566" lon="2.95903">
        <ele>455</ele>
        <time>2022-07-12T09:44:04Z</time>
      </trkpt>
      <trkpt lat="44.45653" lon="2.95903">
        <ele>455.8</ele>
        <time>2022-07-12T09:44:11Z</time>
      </trkpt>
      <trkpt lat="44.45651" lon="2.95901">
        <ele>455.8</ele>
        <time>2022-07-12T09:44:13Z</time>
      </trkpt>
      <trkpt lat="44.4565" lon="2.95901">
        <ele>456</ele>
        <time>2022-07-12T09:44:14Z</time>
      </trkpt>
      <trkpt lat="44.45646" lon="2.95902">
        <ele>456.2</ele>
        <time>2022-07-12T09:44:17Z</time>
      </trkpt>
      <trkpt lat="44.45644" lon="2.95902">
        <ele>456.6</ele>
        <time>2022-07-12T09:44:19Z</time>
      </trkpt>
      <trkpt lat="44.45641" lon="2.95903">
        <ele>457</ele>
        <time>2022-07-12T09:44:21Z</time>
      </trkpt>
      <trkpt lat="44.45638" lon="2.95902">
        <ele>457.2</ele>
        <time>2022-07-12T09:44:23Z</time>
      </trkpt>
      <trkpt lat="44.45637" lon="2.95902">
        <ele>457.2</ele>
        <time>2022-07-12T09:44:24Z</time>
      </trkpt>
      <trkpt lat="44.45636" lon="2.95902">
        <ele>457.4</ele>
        <time>2022-07-12T09:44:25Z</time>
      </trkpt>
      <trkpt lat="44.45633" lon="2.95901">
        <ele>457.8</ele>
        <time>2022-07-12T09:44:27Z</time>
      </trkpt>
      <trkpt lat="44.45629" lon="2.95901">
        <ele>458.4</ele>
        <time>2022-07-12T09:44:30Z</time>
      </trkpt>
      <trkpt lat="44.45628" lon="2.95901">
        <ele>458.6</ele>
        <time>2022-07-12T09:44:31Z</time>
      </trkpt>
      <trkpt lat="44.45618" lon="2.95906">
        <ele>459.6</ele>
        <time>2022-07-12T09:44:38Z</time>
      </trkpt>
      <trkpt lat="44.45615" lon="2.95906">
        <ele>460</ele>
        <time>2022-07-12T09:44:41Z</time>
      </trkpt>
      <trkpt lat="44.45612" lon="2.95905">
        <ele>460.6</ele>
        <time>2022-07-12T09:44:44Z</time>
      </trkpt>
      <trkpt lat="44.45611" lon="2.95904">
        <ele>460.6</ele>
        <time>2022-07-12T09:44:45Z</time>
      </trkpt>
      <trkpt lat="44.45611" lon="2.95903">
        <ele>460.8</ele>
        <time>2022-07-12T09:44:46Z</time>
      </trkpt>
      <trkpt lat="44.45607" lon="2.95901">
        <ele>461.2</ele>
        <time>2022-07-12T09:44:50Z</time>
      </trkpt>
      <trkpt lat="44.45605" lon="2.95901">
        <ele>461.4</ele>
        <time>2022-07-12T09:44:51Z</time>
      </trkpt>
      <trkpt lat="44.45603" lon="2.95901">
        <ele>461.6</ele>
        <time>2022-07-12T09:44:53Z</time>
      </trkpt>
      <trkpt lat="44.45601" lon="2.959">
        <ele>461.8</ele>
        <time>2022-07-12T09:44:55Z</time>
      </trkpt>
      <trkpt lat="44.456" lon="2.95899">
        <ele>462</ele>
        <time>2022-07-12T09:44:57Z</time>
      </trkpt>
      <trkpt lat="44.45599" lon="2.95898">
        <ele>462.8</ele>
        <time>2022-07-12T09:45:02Z</time>
      </trkpt>
      <trkpt lat="44.45592" lon="2.95897">
        <ele>464.6</ele>
        <time>2022-07-12T09:45:20Z</time>
      </trkpt>
      <trkpt lat="44.45591" lon="2.95899">
        <ele>464.8</ele>
        <time>2022-07-12T09:45:21Z</time>
      </trkpt>
      <trkpt lat="44.45589" lon="2.95899">
        <ele>465</ele>
        <time>2022-07-12T09:45:22Z</time>
      </trkpt>
      <trkpt lat="44.45588" lon="2.95899">
        <ele>465.8</ele>
        <time>2022-07-12T09:45:25Z</time>
      </trkpt>
      <trkpt lat="44.45587" lon="2.95898">
        <ele>465.8</ele>
        <time>2022-07-12T09:45:26Z</time>
      </trkpt>
      <trkpt lat="44.45585" lon="2.95897">
        <ele>466.4</ele>
        <time>2022-07-12T09:45:31Z</time>
      </trkpt>
      <trkpt lat="44.45584" lon="2.95897">
        <ele>466.8</ele>
        <time>2022-07-12T09:45:34Z</time>
      </trkpt>
      <trkpt lat="44.45581" lon="2.95896">
        <ele>467.4</ele>
        <time>2022-07-12T09:45:38Z</time>
      </trkpt>
      <trkpt lat="44.45577" lon="2.95896">
        <ele>467.8</ele>
        <time>2022-07-12T09:45:42Z</time>
      </trkpt>
      <trkpt lat="44.45576" lon="2.95895">
        <ele>468.2</ele>
        <time>2022-07-12T09:45:44Z</time>
      </trkpt>
      <trkpt lat="44.45574" lon="2.95895">
        <ele>468.4</ele>
        <time>2022-07-12T09:45:45Z</time>
      </trkpt>
      <trkpt lat="44.45573" lon="2.95895">
        <ele>468.8</ele>
        <time>2022-07-12T09:45:48Z</time>
      </trkpt>
      <trkpt lat="44.45569" lon="2.95892">
        <ele>469.2</ele>
        <time>2022-07-12T09:45:51Z</time>
      </trkpt>
      <trkpt lat="44.45565" lon="2.95891">
        <ele>470</ele>
        <time>2022-07-12T09:45:56Z</time>
      </trkpt>
      <trkpt lat="44.45561" lon="2.95893">
        <ele>470.8</ele>
        <time>2022-07-12T09:46:01Z</time>
      </trkpt>
      <trkpt lat="44.45557" lon="2.95893">
        <ele>471</ele>
        <time>2022-07-12T09:46:05Z</time>
      </trkpt>
      <trkpt lat="44.45556" lon="2.95893">
        <ele>471.2</ele>
        <time>2022-07-12T09:46:06Z</time>
      </trkpt>
      <trkpt lat="44.45555" lon="2.95893">
        <ele>471.6</ele>
        <time>2022-07-12T09:46:10Z</time>
      </trkpt>
      <trkpt lat="44.45552" lon="2.95893">
        <ele>472.2</ele>
        <time>2022-07-12T09:46:14Z</time>
      </trkpt>
      <trkpt lat="44.45551" lon="2.95892">
        <ele>473</ele>
        <time>2022-07-12T09:46:19Z</time>
      </trkpt>
      <trkpt lat="44.45548" lon="2.95891">
        <ele>473.6</ele>
        <time>2022-07-12T09:46:23Z</time>
      </trkpt>
      <trkpt lat="44.45548" lon="2.95891">
        <ele>474.2</ele>
        <time>2022-07-12T09:46:28Z</time>
      </trkpt>
      <trkpt lat="44.45548" lon="2.95891">
        <ele>474.8</ele>
        <time>2022-07-12T09:46:30Z</time>
      </trkpt>
      <trkpt lat="44.45548" lon="2.95891">
        <ele>474.8</ele>
        <time>2022-07-12T09:46:31Z</time>
      </trkpt>
      <trkpt lat="44.45542" lon="2.95892">
        <ele>475.4</ele>
        <time>2022-07-12T09:46:36Z</time>
      </trkpt>
      <trkpt lat="44.45541" lon="2.95892">
        <ele>475.6</ele>
        <time>2022-07-12T09:46:38Z</time>
      </trkpt>
      <trkpt lat="44.45539" lon="2.95892">
        <ele>475.8</ele>
        <time>2022-07-12T09:46:39Z</time>
      </trkpt>
      <trkpt lat="44.45538" lon="2.95891">
        <ele>476.2</ele>
        <time>2022-07-12T09:46:43Z</time>
      </trkpt>
      <trkpt lat="44.45536" lon="2.95892">
        <ele>477</ele>
        <time>2022-07-12T09:46:46Z</time>
      </trkpt>
      <trkpt lat="44.45532" lon="2.9589">
        <ele>477.4</ele>
        <time>2022-07-12T09:46:50Z</time>
      </trkpt>
      <trkpt lat="44.45529" lon="2.95889">
        <ele>478.2</ele>
        <time>2022-07-12T09:46:53Z</time>
      </trkpt>
      <trkpt lat="44.45524" lon="2.95888">
        <ele>479.2</ele>
        <time>2022-07-12T09:46:57Z</time>
      </trkpt>
      <trkpt lat="44.45522" lon="2.95887">
        <ele>479.4</ele>
        <time>2022-07-12T09:46:58Z</time>
      </trkpt>
      <trkpt lat="44.45515" lon="2.95882">
        <ele>480.4</ele>
        <time>2022-07-12T09:47:03Z</time>
      </trkpt>
      <trkpt lat="44.45509" lon="2.95879">
        <ele>481.4</ele>
        <time>2022-07-12T09:47:09Z</time>
      </trkpt>
      <trkpt lat="44.45508" lon="2.95878">
        <ele>481.4</ele>
        <time>2022-07-12T09:47:10Z</time>
      </trkpt>
      <trkpt lat="44.45505" lon="2.95877">
        <ele>482.6</ele>
        <time>2022-07-12T09:47:15Z</time>
      </trkpt>
      <trkpt lat="44.45495" lon="2.95874">
        <ele>483.4</ele>
        <time>2022-07-12T09:47:21Z</time>
      </trkpt>
      <trkpt lat="44.45495" lon="2.95874">
        <ele>483.8</ele>
        <time>2022-07-12T09:47:22Z</time>
      </trkpt>
      <trkpt lat="44.45492" lon="2.95872">
        <ele>484.4</ele>
        <time>2022-07-12T09:47:25Z</time>
      </trkpt>
      <trkpt lat="44.45487" lon="2.9587">
        <ele>484.6</ele>
        <time>2022-07-12T09:47:28Z</time>
      </trkpt>
      <trkpt lat="44.45485" lon="2.95869">
        <ele>484.8</ele>
        <time>2022-07-12T09:47:29Z</time>
      </trkpt>
      <trkpt lat="44.45481" lon="2.95868">
        <ele>485.8</ele>
        <time>2022-07-12T09:47:34Z</time>
      </trkpt>
      <trkpt lat="44.45479" lon="2.95867">
        <ele>486.2</ele>
        <time>2022-07-12T09:47:36Z</time>
      </trkpt>
      <trkpt lat="44.45477" lon="2.95868">
        <ele>486.6</ele>
        <time>2022-07-12T09:47:38Z</time>
      </trkpt>
      <trkpt lat="44.45475" lon="2.95868">
        <ele>487</ele>
        <time>2022-07-12T09:47:41Z</time>
      </trkpt>
      <trkpt lat="44.45466" lon="2.95865">
        <ele>488.2</ele>
        <time>2022-07-12T09:47:48Z</time>
      </trkpt>
      <trkpt lat="44.45458" lon="2.95861">
        <ele>489.2</ele>
        <time>2022-07-12T09:47:56Z</time>
      </trkpt>
      <trkpt lat="44.45457" lon="2.9586">
        <ele>489.4</ele>
        <time>2022-07-12T09:47:57Z</time>
      </trkpt>
      <trkpt lat="44.45453" lon="2.95855">
        <ele>490</ele>
        <time>2022-07-12T09:48:00Z</time>
      </trkpt>
      <trkpt lat="44.4545" lon="2.95854">
        <ele>490.4</ele>
        <time>2022-07-12T09:48:02Z</time>
      </trkpt>
      <trkpt lat="44.45446" lon="2.95851">
        <ele>490.8</ele>
        <time>2022-07-12T09:48:05Z</time>
      </trkpt>
      <trkpt lat="44.45446" lon="2.9585">
        <ele>491.2</ele>
        <time>2022-07-12T09:48:07Z</time>
      </trkpt>
      <trkpt lat="44.45446" lon="2.95849">
        <ele>491.4</ele>
        <time>2022-07-12T09:48:09Z</time>
      </trkpt>
      <trkpt lat="44.45446" lon="2.95848">
        <ele>491.4</ele>
        <time>2022-07-12T09:48:10Z</time>
      </trkpt>
      <trkpt lat="44.45445" lon="2.95846">
        <ele>492.4</ele>
        <time>2022-07-12T09:48:15Z</time>
      </trkpt>
      <trkpt lat="44.45443" lon="2.9584">
        <ele>493</ele>
        <time>2022-07-12T09:48:20Z</time>
      </trkpt>
      <trkpt lat="44.45441" lon="2.95832">
        <ele>493.4</ele>
        <time>2022-07-12T09:48:23Z</time>
      </trkpt>
      <trkpt lat="44.45439" lon="2.95825">
        <ele>494.2</ele>
        <time>2022-07-12T09:48:26Z</time>
      </trkpt>
      <trkpt lat="44.45437" lon="2.95821">
        <ele>494.6</ele>
        <time>2022-07-12T09:48:28Z</time>
      </trkpt>
      <trkpt lat="44.45434" lon="2.95806">
        <ele>495.2</ele>
        <time>2022-07-12T09:48:34Z</time>
      </trkpt>
      <trkpt lat="44.45432" lon="2.95783">
        <ele>495.4</ele>
        <time>2022-07-12T09:48:41Z</time>
      </trkpt>
      <trkpt lat="44.45432" lon="2.95781">
        <ele>495.6</ele>
        <time>2022-07-12T09:48:42Z</time>
      </trkpt>
      <trkpt lat="44.45432" lon="2.95778">
        <ele>495.8</ele>
        <time>2022-07-12T09:48:44Z</time>
      </trkpt>
      <trkpt lat="44.4543" lon="2.95773">
        <ele>496.2</ele>
        <time>2022-07-12T09:48:48Z</time>
      </trkpt>
      <trkpt lat="44.45428" lon="2.95765">
        <ele>496.8</ele>
        <time>2022-07-12T09:48:53Z</time>
      </trkpt>
      <trkpt lat="44.45427" lon="2.95762">
        <ele>497</ele>
        <time>2022-07-12T09:48:55Z</time>
      </trkpt>
      <trkpt lat="44.45427" lon="2.9576">
        <ele>497</ele>
        <time>2022-07-12T09:48:56Z</time>
      </trkpt>
      <trkpt lat="44.45425" lon="2.95756">
        <ele>497.8</ele>
        <time>2022-07-12T09:49:00Z</time>
      </trkpt>
      <trkpt lat="44.45424" lon="2.95755">
        <ele>498</ele>
        <time>2022-07-12T09:49:01Z</time>
      </trkpt>
      <trkpt lat="44.45424" lon="2.95753">
        <ele>498.2</ele>
        <time>2022-07-12T09:49:02Z</time>
      </trkpt>
      <trkpt lat="44.45421" lon="2.95746">
        <ele>498.8</ele>
        <time>2022-07-12T09:49:06Z</time>
      </trkpt>
      <trkpt lat="44.45418" lon="2.95739">
        <ele>499.4</ele>
        <time>2022-07-12T09:49:10Z</time>
      </trkpt>
      <trkpt lat="44.45415" lon="2.95734">
        <ele>500</ele>
        <time>2022-07-12T09:49:15Z</time>
      </trkpt>
      <trkpt lat="44.45414" lon="2.95733">
        <ele>500.2</ele>
        <time>2022-07-12T09:49:16Z</time>
      </trkpt>
      <trkpt lat="44.45408" lon="2.95722">
        <ele>501.2</ele>
        <time>2022-07-12T09:49:23Z</time>
      </trkpt>
      <trkpt lat="44.45408" lon="2.95719">
        <ele>501.4</ele>
        <time>2022-07-12T09:49:24Z</time>
      </trkpt>
      <trkpt lat="44.45405" lon="2.95711">
        <ele>502.2</ele>
        <time>2022-07-12T09:49:29Z</time>
      </trkpt>
      <trkpt lat="44.45402" lon="2.95706">
        <ele>502.8</ele>
        <time>2022-07-12T09:49:35Z</time>
      </trkpt>
      <trkpt lat="44.45401" lon="2.95703">
        <ele>503.2</ele>
        <time>2022-07-12T09:49:39Z</time>
      </trkpt>
      <trkpt lat="44.454" lon="2.957">
        <ele>503.8</ele>
        <time>2022-07-12T09:49:43Z</time>
      </trkpt>
      <trkpt lat="44.45401" lon="2.95692">
        <ele>504.2</ele>
        <time>2022-07-12T09:49:47Z</time>
      </trkpt>
      <trkpt lat="44.454" lon="2.95689">
        <ele>504.8</ele>
        <time>2022-07-12T09:49:50Z</time>
      </trkpt>
      <trkpt lat="44.454" lon="2.95689">
        <ele>505.2</ele>
        <time>2022-07-12T09:49:54Z</time>
      </trkpt>
      <trkpt lat="44.45399" lon="2.95685">
        <ele>506</ele>
        <time>2022-07-12T09:49:59Z</time>
      </trkpt>
      <trkpt lat="44.45398" lon="2.95682">
        <ele>506</ele>
        <time>2022-07-12T09:50:00Z</time>
      </trkpt>
      <trkpt lat="44.45396" lon="2.95677">
        <ele>506.4</ele>
        <time>2022-07-12T09:50:03Z</time>
      </trkpt>
      <trkpt lat="44.45395" lon="2.95675">
        <ele>506.4</ele>
        <time>2022-07-12T09:50:04Z</time>
      </trkpt>
      <trkpt lat="44.45391" lon="2.95659">
        <ele>507.4</ele>
        <time>2022-07-12T09:50:10Z</time>
      </trkpt>
      <trkpt lat="44.4539" lon="2.95656">
        <ele>507.6</ele>
        <time>2022-07-12T09:50:11Z</time>
      </trkpt>
      <trkpt lat="44.45386" lon="2.95642">
        <ele>508.2</ele>
        <time>2022-07-12T09:50:15Z</time>
      </trkpt>
      <trkpt lat="44.45386" lon="2.95642">
        <ele>508.4</ele>
        <time>2022-07-12T09:50:16Z</time>
      </trkpt>
      <trkpt lat="44.45386" lon="2.95641">
        <ele>508.6</ele>
        <time>2022-07-12T09:50:17Z</time>
      </trkpt>
      <trkpt lat="44.45385" lon="2.9564">
        <ele>508.8</ele>
        <time>2022-07-12T09:50:19Z</time>
      </trkpt>
      <trkpt lat="44.45385" lon="2.95639">
        <ele>509</ele>
        <time>2022-07-12T09:50:20Z</time>
      </trkpt>
      <trkpt lat="44.45385" lon="2.95635">
        <ele>509.6</ele>
        <time>2022-07-12T09:50:24Z</time>
      </trkpt>
      <trkpt lat="44.45384" lon="2.95633">
        <ele>509.8</ele>
        <time>2022-07-12T09:50:25Z</time>
      </trkpt>
      <trkpt lat="44.45384" lon="2.95632">
        <ele>510.6</ele>
        <time>2022-07-12T09:50:29Z</time>
      </trkpt>
      <trkpt lat="44.45383" lon="2.95624">
        <ele>511.2</ele>
        <time>2022-07-12T09:50:34Z</time>
      </trkpt>
      <trkpt lat="44.45381" lon="2.95621">
        <ele>511.6</ele>
        <time>2022-07-12T09:50:37Z</time>
      </trkpt>
      <trkpt lat="44.4538" lon="2.95617">
        <ele>512.4</ele>
        <time>2022-07-12T09:50:42Z</time>
      </trkpt>
      <trkpt lat="44.4538" lon="2.95617">
        <ele>512.8</ele>
        <time>2022-07-12T09:50:44Z</time>
      </trkpt>
      <trkpt lat="44.45378" lon="2.9561">
        <ele>513.4</ele>
        <time>2022-07-12T09:50:48Z</time>
      </trkpt>
      <trkpt lat="44.45378" lon="2.95609">
        <ele>513.6</ele>
        <time>2022-07-12T09:50:50Z</time>
      </trkpt>
      <trkpt lat="44.45376" lon="2.95608">
        <ele>513.8</ele>
        <time>2022-07-12T09:50:51Z</time>
      </trkpt>
      <trkpt lat="44.45374" lon="2.95604">
        <ele>513.8</ele>
        <time>2022-07-12T09:50:53Z</time>
      </trkpt>
      <trkpt lat="44.45372" lon="2.95603">
        <ele>514.8</ele>
        <time>2022-07-12T09:50:58Z</time>
      </trkpt>
      <trkpt lat="44.45371" lon="2.95601">
        <ele>515</ele>
        <time>2022-07-12T09:51:00Z</time>
      </trkpt>
      <trkpt lat="44.45367" lon="2.95595">
        <ele>515.8</ele>
        <time>2022-07-12T09:51:07Z</time>
      </trkpt>
      <trkpt lat="44.45365" lon="2.95591">
        <ele>516</ele>
        <time>2022-07-12T09:51:08Z</time>
      </trkpt>
      <trkpt lat="44.45362" lon="2.95585">
        <ele>516.4</ele>
        <time>2022-07-12T09:51:10Z</time>
      </trkpt>
      <trkpt lat="44.45362" lon="2.95584">
        <ele>516.6</ele>
        <time>2022-07-12T09:51:12Z</time>
      </trkpt>
      <trkpt lat="44.45361" lon="2.95582">
        <ele>516.8</ele>
        <time>2022-07-12T09:51:13Z</time>
      </trkpt>
      <trkpt lat="44.45359" lon="2.9558">
        <ele>516.8</ele>
        <time>2022-07-12T09:51:14Z</time>
      </trkpt>
      <trkpt lat="44.45352" lon="2.9557">
        <ele>518</ele>
        <time>2022-07-12T09:51:19Z</time>
      </trkpt>
      <trkpt lat="44.45352" lon="2.9557">
        <ele>518.4</ele>
        <time>2022-07-12T09:51:21Z</time>
      </trkpt>
      <trkpt lat="44.45344" lon="2.95563">
        <ele>519.2</ele>
        <time>2022-07-12T09:51:27Z</time>
      </trkpt>
      <trkpt lat="44.45338" lon="2.95553">
        <ele>519.4</ele>
        <time>2022-07-12T09:51:30Z</time>
      </trkpt>
      <trkpt lat="44.45335" lon="2.95549">
        <ele>519.6</ele>
        <time>2022-07-12T09:51:32Z</time>
      </trkpt>
      <trkpt lat="44.45332" lon="2.95547">
        <ele>520</ele>
        <time>2022-07-12T09:51:34Z</time>
      </trkpt>
      <trkpt lat="44.45331" lon="2.95546">
        <ele>520.2</ele>
        <time>2022-07-12T09:51:35Z</time>
      </trkpt>
      <trkpt lat="44.45327" lon="2.95535">
        <ele>521</ele>
        <time>2022-07-12T09:51:41Z</time>
      </trkpt>
      <trkpt lat="44.45322" lon="2.95526">
        <ele>522</ele>
        <time>2022-07-12T09:51:48Z</time>
      </trkpt>
      <trkpt lat="44.45321" lon="2.95526">
        <ele>522</ele>
        <time>2022-07-12T09:51:49Z</time>
      </trkpt>
      <trkpt lat="44.45315" lon="2.95519">
        <ele>522.8</ele>
        <time>2022-07-12T09:51:54Z</time>
      </trkpt>
      <trkpt lat="44.45312" lon="2.95514">
        <ele>523</ele>
        <time>2022-07-12T09:51:57Z</time>
      </trkpt>
      <trkpt lat="44.45312" lon="2.95512">
        <ele>523.4</ele>
        <time>2022-07-12T09:52:00Z</time>
      </trkpt>
      <trkpt lat="44.45313" lon="2.95508">
        <ele>524</ele>
        <time>2022-07-12T09:52:04Z</time>
      </trkpt>
      <trkpt lat="44.45312" lon="2.95505">
        <ele>524</ele>
        <time>2022-07-12T09:52:05Z</time>
      </trkpt>
      <trkpt lat="44.45312" lon="2.95502">
        <ele>524.4</ele>
        <time>2022-07-12T09:52:07Z</time>
      </trkpt>
      <trkpt lat="44.45312" lon="2.95497">
        <ele>525.2</ele>
        <time>2022-07-12T09:52:13Z</time>
      </trkpt>
      <trkpt lat="44.4531" lon="2.95493">
        <ele>525.4</ele>
        <time>2022-07-12T09:52:16Z</time>
      </trkpt>
      <trkpt lat="44.45306" lon="2.95482">
        <ele>526</ele>
        <time>2022-07-12T09:52:20Z</time>
      </trkpt>
      <trkpt lat="44.45298" lon="2.95471">
        <ele>526.2</ele>
        <time>2022-07-12T09:52:24Z</time>
      </trkpt>
      <trkpt lat="44.45297" lon="2.95469">
        <ele>526.2</ele>
        <time>2022-07-12T09:52:25Z</time>
      </trkpt>
      <trkpt lat="44.45292" lon="2.95459">
        <ele>526.8</ele>
        <time>2022-07-12T09:52:30Z</time>
      </trkpt>
      <trkpt lat="44.4529" lon="2.95457">
        <ele>527</ele>
        <time>2022-07-12T09:52:32Z</time>
      </trkpt>
      <trkpt lat="44.45289" lon="2.95454">
        <ele>527.4</ele>
        <time>2022-07-12T09:52:34Z</time>
      </trkpt>
      <trkpt lat="44.45288" lon="2.95451">
        <ele>527.4</ele>
        <time>2022-07-12T09:52:35Z</time>
      </trkpt>
      <trkpt lat="44.45287" lon="2.95446">
        <ele>528.2</ele>
        <time>2022-07-12T09:52:38Z</time>
      </trkpt>
      <trkpt lat="44.45287" lon="2.95444">
        <ele>528</ele>
        <time>2022-07-12T09:52:39Z</time>
      </trkpt>
      <trkpt lat="44.45287" lon="2.95442">
        <ele>528.2</ele>
        <time>2022-07-12T09:52:40Z</time>
      </trkpt>
      <trkpt lat="44.45282" lon="2.95438">
        <ele>528.4</ele>
        <time>2022-07-12T09:52:42Z</time>
      </trkpt>
      <trkpt lat="44.45281" lon="2.95437">
        <ele>528.6</ele>
        <time>2022-07-12T09:52:43Z</time>
      </trkpt>
      <trkpt lat="44.45275" lon="2.95434">
        <ele>529</ele>
        <time>2022-07-12T09:52:47Z</time>
      </trkpt>
      <trkpt lat="44.45273" lon="2.95435">
        <ele>529.2</ele>
        <time>2022-07-12T09:52:49Z</time>
      </trkpt>
      <trkpt lat="44.45272" lon="2.95433">
        <ele>529.4</ele>
        <time>2022-07-12T09:52:50Z</time>
      </trkpt>
      <trkpt lat="44.45271" lon="2.95429">
        <ele>529.8</ele>
        <time>2022-07-12T09:52:53Z</time>
      </trkpt>
      <trkpt lat="44.45269" lon="2.95425">
        <ele>530.4</ele>
        <time>2022-07-12T09:52:56Z</time>
      </trkpt>
      <trkpt lat="44.45268" lon="2.95423">
        <ele>530.8</ele>
        <time>2022-07-12T09:52:58Z</time>
      </trkpt>
      <trkpt lat="44.45267" lon="2.9542">
        <ele>531</ele>
        <time>2022-07-12T09:53:00Z</time>
      </trkpt>
      <trkpt lat="44.45267" lon="2.95418">
        <ele>531.2</ele>
        <time>2022-07-12T09:53:01Z</time>
      </trkpt>
      <trkpt lat="44.45265" lon="2.95414">
        <ele>531.4</ele>
        <time>2022-07-12T09:53:03Z</time>
      </trkpt>
      <trkpt lat="44.45263" lon="2.9541">
        <ele>532</ele>
        <time>2022-07-12T09:53:06Z</time>
      </trkpt>
      <trkpt lat="44.45263" lon="2.95409">
        <ele>532</ele>
        <time>2022-07-12T09:53:07Z</time>
      </trkpt>
      <trkpt lat="44.45262" lon="2.95404">
        <ele>532.6</ele>
        <time>2022-07-12T09:53:10Z</time>
      </trkpt>
      <trkpt lat="44.45263" lon="2.95397">
        <ele>533.2</ele>
        <time>2022-07-12T09:53:14Z</time>
      </trkpt>
      <trkpt lat="44.45264" lon="2.95392">
        <ele>533.8</ele>
        <time>2022-07-12T09:53:17Z</time>
      </trkpt>
      <trkpt lat="44.45264" lon="2.95385">
        <ele>534.2</ele>
        <time>2022-07-12T09:53:21Z</time>
      </trkpt>
      <trkpt lat="44.45264" lon="2.95383">
        <ele>534.4</ele>
        <time>2022-07-12T09:53:22Z</time>
      </trkpt>
      <trkpt lat="44.45264" lon="2.95377">
        <ele>534.6</ele>
        <time>2022-07-12T09:53:25Z</time>
      </trkpt>
      <trkpt lat="44.45263" lon="2.95372">
        <ele>534.8</ele>
        <time>2022-07-12T09:53:27Z</time>
      </trkpt>
      <trkpt lat="44.45264" lon="2.95369">
        <ele>535</ele>
        <time>2022-07-12T09:53:29Z</time>
      </trkpt>
      <trkpt lat="44.45264" lon="2.95368">
        <ele>535</ele>
        <time>2022-07-12T09:53:30Z</time>
      </trkpt>
      <trkpt lat="44.45264" lon="2.95362">
        <ele>535.6</ele>
        <time>2022-07-12T09:53:33Z</time>
      </trkpt>
      <trkpt lat="44.4526" lon="2.95357">
        <ele>536</ele>
        <time>2022-07-12T09:53:35Z</time>
      </trkpt>
      <trkpt lat="44.45261" lon="2.95356">
        <ele>536.2</ele>
        <time>2022-07-12T09:53:36Z</time>
      </trkpt>
      <trkpt lat="44.45266" lon="2.95358">
        <ele>536.8</ele>
        <time>2022-07-12T09:53:40Z</time>
      </trkpt>
      <trkpt lat="44.45268" lon="2.9536">
        <ele>537</ele>
        <time>2022-07-12T09:53:42Z</time>
      </trkpt>
      <trkpt lat="44.45269" lon="2.95361">
        <ele>537</ele>
        <time>2022-07-12T09:53:43Z</time>
      </trkpt>
      <trkpt lat="44.4527" lon="2.95365">
        <ele>537.4</ele>
        <time>2022-07-12T09:53:46Z</time>
      </trkpt>
      <trkpt lat="44.4527" lon="2.95368">
        <ele>537.8</ele>
        <time>2022-07-12T09:53:48Z</time>
      </trkpt>
      <trkpt lat="44.45271" lon="2.9537">
        <ele>538</ele>
        <time>2022-07-12T09:53:50Z</time>
      </trkpt>
      <trkpt lat="44.45271" lon="2.95374">
        <ele>538.6</ele>
        <time>2022-07-12T09:53:55Z</time>
      </trkpt>
      <trkpt lat="44.45271" lon="2.95375">
        <ele>538.8</ele>
        <time>2022-07-12T09:53:56Z</time>
      </trkpt>
      <trkpt lat="44.45275" lon="2.95381">
        <ele>540</ele>
        <time>2022-07-12T09:54:02Z</time>
      </trkpt>
      <trkpt lat="44.45277" lon="2.95383">
        <ele>541</ele>
        <time>2022-07-12T09:54:08Z</time>
      </trkpt>
      <trkpt lat="44.45278" lon="2.95385">
        <ele>541.2</ele>
        <time>2022-07-12T09:54:10Z</time>
      </trkpt>
      <trkpt lat="44.45281" lon="2.95386">
        <ele>541.8</ele>
        <time>2022-07-12T09:54:15Z</time>
      </trkpt>
      <trkpt lat="44.45282" lon="2.95386">
        <ele>542.2</ele>
        <time>2022-07-12T09:54:17Z</time>
      </trkpt>
      <trkpt lat="44.45287" lon="2.95386">
        <ele>542.8</ele>
        <time>2022-07-12T09:54:22Z</time>
      </trkpt>
      <trkpt lat="44.45288" lon="2.95386">
        <ele>543</ele>
        <time>2022-07-12T09:54:23Z</time>
      </trkpt>
      <trkpt lat="44.45291" lon="2.95384">
        <ele>543.2</ele>
        <time>2022-07-12T09:54:26Z</time>
      </trkpt>
      <trkpt lat="44.45294" lon="2.95382">
        <ele>543.6</ele>
        <time>2022-07-12T09:54:29Z</time>
      </trkpt>
      <trkpt lat="44.45299" lon="2.95382">
        <ele>544.2</ele>
        <time>2022-07-12T09:54:32Z</time>
      </trkpt>
      <trkpt lat="44.45302" lon="2.95381">
        <ele>544.6</ele>
        <time>2022-07-12T09:54:34Z</time>
      </trkpt>
      <trkpt lat="44.45306" lon="2.95381">
        <ele>545</ele>
        <time>2022-07-12T09:54:37Z</time>
      </trkpt>
      <trkpt lat="44.4531" lon="2.9538">
        <ele>545.2</ele>
        <time>2022-07-12T09:54:40Z</time>
      </trkpt>
      <trkpt lat="44.45311" lon="2.9538">
        <ele>545.4</ele>
        <time>2022-07-12T09:54:41Z</time>
      </trkpt>
      <trkpt lat="44.45317" lon="2.9538">
        <ele>545.8</ele>
        <time>2022-07-12T09:54:45Z</time>
      </trkpt>
      <trkpt lat="44.45319" lon="2.9538">
        <ele>546</ele>
        <time>2022-07-12T09:54:47Z</time>
      </trkpt>
      <trkpt lat="44.45323" lon="2.95383">
        <ele>546.6</ele>
        <time>2022-07-12T09:54:50Z</time>
      </trkpt>
      <trkpt lat="44.45327" lon="2.95385">
        <ele>547</ele>
        <time>2022-07-12T09:54:54Z</time>
      </trkpt>
      <trkpt lat="44.45333" lon="2.95388">
        <ele>547.6</ele>
        <time>2022-07-12T09:54:59Z</time>
      </trkpt>
      <trkpt lat="44.45336" lon="2.95391">
        <ele>547.8</ele>
        <time>2022-07-12T09:55:01Z</time>
      </trkpt>
      <trkpt lat="44.45341" lon="2.95397">
        <ele>548.8</ele>
        <time>2022-07-12T09:55:06Z</time>
      </trkpt>
      <trkpt lat="44.45343" lon="2.95398">
        <ele>549</ele>
        <time>2022-07-12T09:55:08Z</time>
      </trkpt>
      <trkpt lat="44.45351" lon="2.95405">
        <ele>549.6</ele>
        <time>2022-07-12T09:55:15Z</time>
      </trkpt>
      <trkpt lat="44.45352" lon="2.95407">
        <ele>549.8</ele>
        <time>2022-07-12T09:55:17Z</time>
      </trkpt>
      <trkpt lat="44.4536" lon="2.95414">
        <ele>550.8</ele>
        <time>2022-07-12T09:55:25Z</time>
      </trkpt>
      <trkpt lat="44.45361" lon="2.95415">
        <ele>551</ele>
        <time>2022-07-12T09:55:26Z</time>
      </trkpt>
      <trkpt lat="44.45368" lon="2.95419">
        <ele>552</ele>
        <time>2022-07-12T09:55:32Z</time>
      </trkpt>
      <trkpt lat="44.4537" lon="2.9542">
        <ele>552.2</ele>
        <time>2022-07-12T09:55:34Z</time>
      </trkpt>
      <trkpt lat="44.45378" lon="2.95425">
        <ele>552.8</ele>
        <time>2022-07-12T09:55:42Z</time>
      </trkpt>
      <trkpt lat="44.45379" lon="2.95425">
        <ele>553</ele>
        <time>2022-07-12T09:55:43Z</time>
      </trkpt>
      <trkpt lat="44.4538" lon="2.95426">
        <ele>553.2</ele>
        <time>2022-07-12T09:55:44Z</time>
      </trkpt>
      <trkpt lat="44.45382" lon="2.95426">
        <ele>553.4</ele>
        <time>2022-07-12T09:55:46Z</time>
      </trkpt>
      <trkpt lat="44.45385" lon="2.95428">
        <ele>553.6</ele>
        <time>2022-07-12T09:55:49Z</time>
      </trkpt>
      <trkpt lat="44.4539" lon="2.95432">
        <ele>554.4</ele>
        <time>2022-07-12T09:55:54Z</time>
      </trkpt>
      <trkpt lat="44.45391" lon="2.95433">
        <ele>554.4</ele>
        <time>2022-07-12T09:55:55Z</time>
      </trkpt>
      <trkpt lat="44.45397" lon="2.95437">
        <ele>555.2</ele>
        <time>2022-07-12T09:56:00Z</time>
      </trkpt>
      <trkpt lat="44.45398" lon="2.95438">
        <ele>555.4</ele>
        <time>2022-07-12T09:56:01Z</time>
      </trkpt>
      <trkpt lat="44.45405" lon="2.95444">
        <ele>556.2</ele>
        <time>2022-07-12T09:56:08Z</time>
      </trkpt>
      <trkpt lat="44.45406" lon="2.95446">
        <ele>556.4</ele>
        <time>2022-07-12T09:56:09Z</time>
      </trkpt>
      <trkpt lat="44.45411" lon="2.95453">
        <ele>557.2</ele>
        <time>2022-07-12T09:56:16Z</time>
      </trkpt>
      <trkpt lat="44.45412" lon="2.95454">
        <ele>557.4</ele>
        <time>2022-07-12T09:56:17Z</time>
      </trkpt>
      <trkpt lat="44.45414" lon="2.95456">
        <ele>557.6</ele>
        <time>2022-07-12T09:56:19Z</time>
      </trkpt>
      <trkpt lat="44.45414" lon="2.95457">
        <ele>557.8</ele>
        <time>2022-07-12T09:56:20Z</time>
      </trkpt>
      <trkpt lat="44.45415" lon="2.95457">
        <ele>557.8</ele>
        <time>2022-07-12T09:56:21Z</time>
      </trkpt>
      <trkpt lat="44.45416" lon="2.95458">
        <ele>558</ele>
        <time>2022-07-12T09:56:22Z</time>
      </trkpt>
      <trkpt lat="44.45418" lon="2.95461">
        <ele>558.6</ele>
        <time>2022-07-12T09:56:26Z</time>
      </trkpt>
      <trkpt lat="44.45419" lon="2.95462">
        <ele>558.6</ele>
        <time>2022-07-12T09:56:27Z</time>
      </trkpt>
      <trkpt lat="44.45422" lon="2.95467">
        <ele>558.8</ele>
        <time>2022-07-12T09:56:30Z</time>
      </trkpt>
      <trkpt lat="44.45424" lon="2.95469">
        <ele>559</ele>
        <time>2022-07-12T09:56:32Z</time>
      </trkpt>
      <trkpt lat="44.45428" lon="2.95474">
        <ele>559.6</ele>
        <time>2022-07-12T09:56:36Z</time>
      </trkpt>
      <trkpt lat="44.4543" lon="2.95482">
        <ele>560.6</ele>
        <time>2022-07-12T09:56:41Z</time>
      </trkpt>
      <trkpt lat="44.45431" lon="2.95484">
        <ele>561</ele>
        <time>2022-07-12T09:56:42Z</time>
      </trkpt>
      <trkpt lat="44.45432" lon="2.95485">
        <ele>561</ele>
        <time>2022-07-12T09:56:43Z</time>
      </trkpt>
      <trkpt lat="44.45434" lon="2.95487">
        <ele>561.4</ele>
        <time>2022-07-12T09:56:45Z</time>
      </trkpt>
      <trkpt lat="44.45435" lon="2.9549">
        <ele>562</ele>
        <time>2022-07-12T09:56:47Z</time>
      </trkpt>
      <trkpt lat="44.4544" lon="2.95502">
        <ele>563.4</ele>
        <time>2022-07-12T09:56:54Z</time>
      </trkpt>
      <trkpt lat="44.45441" lon="2.95504">
        <ele>563.8</ele>
        <time>2022-07-12T09:56:57Z</time>
      </trkpt>
      <trkpt lat="44.45442" lon="2.95505">
        <ele>564.4</ele>
        <time>2022-07-12T09:56:59Z</time>
      </trkpt>
      <trkpt lat="44.45443" lon="2.95505">
        <ele>564.4</ele>
        <time>2022-07-12T09:57:00Z</time>
      </trkpt>
      <trkpt lat="44.45444" lon="2.95505">
        <ele>564.6</ele>
        <time>2022-07-12T09:57:01Z</time>
      </trkpt>
      <trkpt lat="44.45445" lon="2.95504">
        <ele>565</ele>
        <time>2022-07-12T09:57:05Z</time>
      </trkpt>
      <trkpt lat="44.45445" lon="2.95504">
        <ele>565.2</ele>
        <time>2022-07-12T09:57:07Z</time>
      </trkpt>
      <trkpt lat="44.45446" lon="2.95501">
        <ele>566</ele>
        <time>2022-07-12T09:57:43Z</time>
      </trkpt>
      <trkpt lat="44.45448" lon="2.95496">
        <ele>566.2</ele>
        <time>2022-07-12T09:57:46Z</time>
      </trkpt>
      <trkpt lat="44.45448" lon="2.95494">
        <ele>566.2</ele>
        <time>2022-07-12T09:57:47Z</time>
      </trkpt>
      <trkpt lat="44.45451" lon="2.95487">
        <ele>566.6</ele>
        <time>2022-07-12T09:57:51Z</time>
      </trkpt>
      <trkpt lat="44.45452" lon="2.95483">
        <ele>567</ele>
        <time>2022-07-12T09:57:53Z</time>
      </trkpt>
      <trkpt lat="44.45456" lon="2.95467">
        <ele>567.8</ele>
        <time>2022-07-12T09:58:00Z</time>
      </trkpt>
      <trkpt lat="44.45457" lon="2.95461">
        <ele>568.2</ele>
        <time>2022-07-12T09:58:02Z</time>
      </trkpt>
      <trkpt lat="44.45458" lon="2.95459">
        <ele>568.2</ele>
        <time>2022-07-12T09:58:03Z</time>
      </trkpt>
      <trkpt lat="44.45461" lon="2.95452">
        <ele>568.4</ele>
        <time>2022-07-12T09:58:06Z</time>
      </trkpt>
      <trkpt lat="44.45461" lon="2.95452">
        <ele>568.6</ele>
        <time>2022-07-12T09:58:07Z</time>
      </trkpt>
      <trkpt lat="44.45461" lon="2.95451">
        <ele>568.8</ele>
        <time>2022-07-12T09:58:08Z</time>
      </trkpt>
      <trkpt lat="44.45461" lon="2.95448">
        <ele>569.2</ele>
        <time>2022-07-12T09:58:10Z</time>
      </trkpt>
      <trkpt lat="44.45461" lon="2.95446">
        <ele>569.2</ele>
        <time>2022-07-12T09:58:11Z</time>
      </trkpt>
      <trkpt lat="44.45462" lon="2.95446">
        <ele>569.4</ele>
        <time>2022-07-12T09:58:12Z</time>
      </trkpt>
      <trkpt lat="44.45462" lon="2.95444">
        <ele>569.6</ele>
        <time>2022-07-12T09:58:14Z</time>
      </trkpt>
      <trkpt lat="44.4546" lon="2.95438">
        <ele>570</ele>
        <time>2022-07-12T09:58:17Z</time>
      </trkpt>
      <trkpt lat="44.4546" lon="2.95437">
        <ele>570.2</ele>
        <time>2022-07-12T09:58:18Z</time>
      </trkpt>
      <trkpt lat="44.4546" lon="2.95435">
        <ele>570.4</ele>
        <time>2022-07-12T09:58:19Z</time>
      </trkpt>
      <trkpt lat="44.4546" lon="2.95432">
        <ele>570.4</ele>
        <time>2022-07-12T09:58:21Z</time>
      </trkpt>
      <trkpt lat="44.4546" lon="2.95427">
        <ele>571.2</ele>
        <time>2022-07-12T09:58:25Z</time>
      </trkpt>
      <trkpt lat="44.45458" lon="2.95422">
        <ele>571.6</ele>
        <time>2022-07-12T09:58:29Z</time>
      </trkpt>
      <trkpt lat="44.45458" lon="2.95418">
        <ele>571.8</ele>
        <time>2022-07-12T09:58:32Z</time>
      </trkpt>
      <trkpt lat="44.45458" lon="2.95416">
        <ele>572</ele>
        <time>2022-07-12T09:58:33Z</time>
      </trkpt>
      <trkpt lat="44.45457" lon="2.95412">
        <ele>572.4</ele>
        <time>2022-07-12T09:58:35Z</time>
      </trkpt>
      <trkpt lat="44.45456" lon="2.9541">
        <ele>572.6</ele>
        <time>2022-07-12T09:58:36Z</time>
      </trkpt>
      <trkpt lat="44.45456" lon="2.95408">
        <ele>572.8</ele>
        <time>2022-07-12T09:58:37Z</time>
      </trkpt>
      <trkpt lat="44.45455" lon="2.95402">
        <ele>573.4</ele>
        <time>2022-07-12T09:58:40Z</time>
      </trkpt>
      <trkpt lat="44.45454" lon="2.95398">
        <ele>573.6</ele>
        <time>2022-07-12T09:58:42Z</time>
      </trkpt>
      <trkpt lat="44.45453" lon="2.95396">
        <ele>573.8</ele>
        <time>2022-07-12T09:58:43Z</time>
      </trkpt>
      <trkpt lat="44.45452" lon="2.95393">
        <ele>574</ele>
        <time>2022-07-12T09:58:45Z</time>
      </trkpt>
      <trkpt lat="44.45452" lon="2.95389">
        <ele>574.2</ele>
        <time>2022-07-12T09:58:48Z</time>
      </trkpt>
      <trkpt lat="44.45452" lon="2.95387">
        <ele>574.4</ele>
        <time>2022-07-12T09:58:49Z</time>
      </trkpt>
      <trkpt lat="44.45453" lon="2.95385">
        <ele>575.2</ele>
        <time>2022-07-12T09:58:51Z</time>
      </trkpt>
      <trkpt lat="44.45453" lon="2.95378">
        <ele>576.2</ele>
        <time>2022-07-12T09:58:56Z</time>
      </trkpt>
      <trkpt lat="44.45454" lon="2.95377">
        <ele>576.4</ele>
        <time>2022-07-12T09:58:57Z</time>
      </trkpt>
      <trkpt lat="44.45453" lon="2.95368">
        <ele>577</ele>
        <time>2022-07-12T09:59:01Z</time>
      </trkpt>
      <trkpt lat="44.45453" lon="2.95365">
        <ele>577.4</ele>
        <time>2022-07-12T09:59:03Z</time>
      </trkpt>
      <trkpt lat="44.45453" lon="2.95356">
        <ele>578</ele>
        <time>2022-07-12T09:59:08Z</time>
      </trkpt>
      <trkpt lat="44.45451" lon="2.9535">
        <ele>578.2</ele>
        <time>2022-07-12T09:59:11Z</time>
      </trkpt>
      <trkpt lat="44.45451" lon="2.95349">
        <ele>578.4</ele>
        <time>2022-07-12T09:59:12Z</time>
      </trkpt>
      <trkpt lat="44.45452" lon="2.95342">
        <ele>579</ele>
        <time>2022-07-12T09:59:16Z</time>
      </trkpt>
      <trkpt lat="44.45451" lon="2.95336">
        <ele>579.4</ele>
        <time>2022-07-12T09:59:19Z</time>
      </trkpt>
      <trkpt lat="44.4545" lon="2.95334">
        <ele>579.4</ele>
        <time>2022-07-12T09:59:20Z</time>
      </trkpt>
      <trkpt lat="44.45448" lon="2.95325">
        <ele>579.8</ele>
        <time>2022-07-12T09:59:25Z</time>
      </trkpt>
      <trkpt lat="44.45448" lon="2.95313">
        <ele>580.4</ele>
        <time>2022-07-12T09:59:31Z</time>
      </trkpt>
      <trkpt lat="44.45448" lon="2.95312">
        <ele>580.6</ele>
        <time>2022-07-12T09:59:32Z</time>
      </trkpt>
      <trkpt lat="44.45447" lon="2.95308">
        <ele>580.8</ele>
        <time>2022-07-12T09:59:36Z</time>
      </trkpt>
      <trkpt lat="44.45445" lon="2.95304">
        <ele>581</ele>
        <time>2022-07-12T09:59:38Z</time>
      </trkpt>
      <trkpt lat="44.45445" lon="2.95297">
        <ele>581.4</ele>
        <time>2022-07-12T09:59:42Z</time>
      </trkpt>
      <trkpt lat="44.45444" lon="2.95292">
        <ele>581.6</ele>
        <time>2022-07-12T09:59:44Z</time>
      </trkpt>
      <trkpt lat="44.45443" lon="2.95291">
        <ele>581.6</ele>
        <time>2022-07-12T09:59:45Z</time>
      </trkpt>
      <trkpt lat="44.45437" lon="2.95284">
        <ele>582.2</ele>
        <time>2022-07-12T09:59:49Z</time>
      </trkpt>
      <trkpt lat="44.45436" lon="2.95282">
        <ele>582.2</ele>
        <time>2022-07-12T09:59:50Z</time>
      </trkpt>
      <trkpt lat="44.45435" lon="2.95279">
        <ele>582.4</ele>
        <time>2022-07-12T09:59:51Z</time>
      </trkpt>
      <trkpt lat="44.45434" lon="2.95278">
        <ele>582.4</ele>
        <time>2022-07-12T09:59:52Z</time>
      </trkpt>
      <trkpt lat="44.45433" lon="2.95276">
        <ele>582.6</ele>
        <time>2022-07-12T09:59:53Z</time>
      </trkpt>
      <trkpt lat="44.45422" lon="2.9526">
        <ele>583.2</ele>
        <time>2022-07-12T10:00:01Z</time>
      </trkpt>
      <trkpt lat="44.45422" lon="2.95258">
        <ele>583.4</ele>
        <time>2022-07-12T10:00:02Z</time>
      </trkpt>
      <trkpt lat="44.45422" lon="2.95255">
        <ele>583.6</ele>
        <time>2022-07-12T10:00:03Z</time>
      </trkpt>
      <trkpt lat="44.45421" lon="2.95252">
        <ele>583.8</ele>
        <time>2022-07-12T10:00:04Z</time>
      </trkpt>
      <trkpt lat="44.45416" lon="2.95248">
        <ele>583.8</ele>
        <time>2022-07-12T10:00:06Z</time>
      </trkpt>
      <trkpt lat="44.45412" lon="2.9524">
        <ele>584.6</ele>
        <time>2022-07-12T10:00:11Z</time>
      </trkpt>
      <trkpt lat="44.45411" lon="2.95236">
        <ele>585</ele>
        <time>2022-07-12T10:00:13Z</time>
      </trkpt>
      <trkpt lat="44.45405" lon="2.95225">
        <ele>585.6</ele>
        <time>2022-07-12T10:00:20Z</time>
      </trkpt>
      <trkpt lat="44.45404" lon="2.95224">
        <ele>585.8</ele>
        <time>2022-07-12T10:00:21Z</time>
      </trkpt>
      <trkpt lat="44.454" lon="2.95215">
        <ele>586.8</ele>
        <time>2022-07-12T10:00:28Z</time>
      </trkpt>
      <trkpt lat="44.45396" lon="2.95209">
        <ele>587.6</ele>
        <time>2022-07-12T10:00:33Z</time>
      </trkpt>
      <trkpt lat="44.45395" lon="2.95208">
        <ele>587.8</ele>
        <time>2022-07-12T10:00:34Z</time>
      </trkpt>
      <trkpt lat="44.45394" lon="2.95205">
        <ele>588</ele>
        <time>2022-07-12T10:00:36Z</time>
      </trkpt>
      <trkpt lat="44.45393" lon="2.95204">
        <ele>588.2</ele>
        <time>2022-07-12T10:00:37Z</time>
      </trkpt>
      <trkpt lat="44.45393" lon="2.95201">
        <ele>588.6</ele>
        <time>2022-07-12T10:00:39Z</time>
      </trkpt>
      <trkpt lat="44.45392" lon="2.95198">
        <ele>589</ele>
        <time>2022-07-12T10:00:41Z</time>
      </trkpt>
      <trkpt lat="44.45391" lon="2.95193">
        <ele>589.6</ele>
        <time>2022-07-12T10:00:44Z</time>
      </trkpt>
      <trkpt lat="44.4539" lon="2.95189">
        <ele>590.2</ele>
        <time>2022-07-12T10:00:47Z</time>
      </trkpt>
      <trkpt lat="44.45386" lon="2.95181">
        <ele>590.8</ele>
        <time>2022-07-12T10:00:52Z</time>
      </trkpt>
      <trkpt lat="44.45386" lon="2.95179">
        <ele>591.2</ele>
        <time>2022-07-12T10:00:53Z</time>
      </trkpt>
      <trkpt lat="44.45386" lon="2.95177">
        <ele>591.2</ele>
        <time>2022-07-12T10:00:54Z</time>
      </trkpt>
      <trkpt lat="44.45385" lon="2.95174">
        <ele>591.6</ele>
        <time>2022-07-12T10:00:56Z</time>
      </trkpt>
      <trkpt lat="44.45382" lon="2.95168">
        <ele>591.8</ele>
        <time>2022-07-12T10:00:59Z</time>
      </trkpt>
      <trkpt lat="44.45381" lon="2.95164">
        <ele>592.6</ele>
        <time>2022-07-12T10:01:01Z</time>
      </trkpt>
      <trkpt lat="44.45381" lon="2.95161">
        <ele>593.2</ele>
        <time>2022-07-12T10:01:03Z</time>
      </trkpt>
      <trkpt lat="44.45381" lon="2.95157">
        <ele>593.6</ele>
        <time>2022-07-12T10:01:05Z</time>
      </trkpt>
      <trkpt lat="44.4538" lon="2.95156">
        <ele>593.8</ele>
        <time>2022-07-12T10:01:06Z</time>
      </trkpt>
      <trkpt lat="44.45378" lon="2.95151">
        <ele>594.2</ele>
        <time>2022-07-12T10:01:09Z</time>
      </trkpt>
      <trkpt lat="44.45377" lon="2.95146">
        <ele>595</ele>
        <time>2022-07-12T10:01:12Z</time>
      </trkpt>
      <trkpt lat="44.45374" lon="2.9514">
        <ele>595.4</ele>
        <time>2022-07-12T10:01:16Z</time>
      </trkpt>
      <trkpt lat="44.45371" lon="2.95135">
        <ele>596.2</ele>
        <time>2022-07-12T10:01:19Z</time>
      </trkpt>
      <trkpt lat="44.4537" lon="2.95132">
        <ele>596.6</ele>
        <time>2022-07-12T10:01:21Z</time>
      </trkpt>
      <trkpt lat="44.45369" lon="2.9513">
        <ele>596.8</ele>
        <time>2022-07-12T10:01:22Z</time>
      </trkpt>
      <trkpt lat="44.45367" lon="2.95121">
        <ele>597.4</ele>
        <time>2022-07-12T10:01:26Z</time>
      </trkpt>
      <trkpt lat="44.45363" lon="2.95113">
        <ele>597.8</ele>
        <time>2022-07-12T10:01:29Z</time>
      </trkpt>
      <trkpt lat="44.45354" lon="2.95091">
        <ele>598.4</ele>
        <time>2022-07-12T10:01:36Z</time>
      </trkpt>
      <trkpt lat="44.45353" lon="2.95088">
        <ele>598.4</ele>
        <time>2022-07-12T10:01:37Z</time>
      </trkpt>
      <trkpt lat="44.45351" lon="2.95067">
        <ele>599</ele>
        <time>2022-07-12T10:01:44Z</time>
      </trkpt>
      <trkpt lat="44.4535" lon="2.95058">
        <ele>599.4</ele>
        <time>2022-07-12T10:01:48Z</time>
      </trkpt>
      <trkpt lat="44.4535" lon="2.95055">
        <ele>599.6</ele>
        <time>2022-07-12T10:01:49Z</time>
      </trkpt>
      <trkpt lat="44.4535" lon="2.95052">
        <ele>599.8</ele>
        <time>2022-07-12T10:01:51Z</time>
      </trkpt>
      <trkpt lat="44.45351" lon="2.9505">
        <ele>600.2</ele>
        <time>2022-07-12T10:01:54Z</time>
      </trkpt>
      <trkpt lat="44.45351" lon="2.9505">
        <ele>600.6</ele>
        <time>2022-07-12T10:01:55Z</time>
      </trkpt>
      <trkpt lat="44.45349" lon="2.95049">
        <ele>601</ele>
        <time>2022-07-12T10:02:13Z</time>
      </trkpt>
      <trkpt lat="44.45348" lon="2.95048">
        <ele>601</ele>
        <time>2022-07-12T10:02:14Z</time>
      </trkpt>
      <trkpt lat="44.45348" lon="2.95046">
        <ele>601</ele>
        <time>2022-07-12T10:02:15Z</time>
      </trkpt>
      <trkpt lat="44.45348" lon="2.95044">
        <ele>601</ele>
        <time>2022-07-12T10:02:16Z</time>
      </trkpt>
      <trkpt lat="44.45351" lon="2.95036">
        <ele>601.2</ele>
        <time>2022-07-12T10:02:20Z</time>
      </trkpt>
      <trkpt lat="44.4535" lon="2.95026">
        <ele>601.4</ele>
        <time>2022-07-12T10:02:24Z</time>
      </trkpt>
      <trkpt lat="44.4535" lon="2.95021">
        <ele>601.6</ele>
        <time>2022-07-12T10:02:26Z</time>
      </trkpt>
      <trkpt lat="44.45351" lon="2.95018">
        <ele>601.8</ele>
        <time>2022-07-12T10:02:27Z</time>
      </trkpt>
      <trkpt lat="44.45352" lon="2.95003">
        <ele>602.4</ele>
        <time>2022-07-12T10:02:32Z</time>
      </trkpt>
      <trkpt lat="44.45351" lon="2.95">
        <ele>602.4</ele>
        <time>2022-07-12T10:02:33Z</time>
      </trkpt>
      <trkpt lat="44.4535" lon="2.94996">
        <ele>602.8</ele>
        <time>2022-07-12T10:02:36Z</time>
      </trkpt>
      <trkpt lat="44.45349" lon="2.94991">
        <ele>603.4</ele>
        <time>2022-07-12T10:02:38Z</time>
      </trkpt>
      <trkpt lat="44.45346" lon="2.94984">
        <ele>604</ele>
        <time>2022-07-12T10:02:41Z</time>
      </trkpt>
      <trkpt lat="44.45343" lon="2.94977">
        <ele>604.6</ele>
        <time>2022-07-12T10:02:45Z</time>
      </trkpt>
      <trkpt lat="44.45338" lon="2.94971">
        <ele>605</ele>
        <time>2022-07-12T10:02:49Z</time>
      </trkpt>
      <trkpt lat="44.45337" lon="2.94968">
        <ele>605.2</ele>
        <time>2022-07-12T10:02:51Z</time>
      </trkpt>
      <trkpt lat="44.45337" lon="2.94966">
        <ele>605.2</ele>
        <time>2022-07-12T10:02:52Z</time>
      </trkpt>
      <trkpt lat="44.45336" lon="2.94965">
        <ele>605.4</ele>
        <time>2022-07-12T10:02:53Z</time>
      </trkpt>
      <trkpt lat="44.45328" lon="2.94955">
        <ele>606</ele>
        <time>2022-07-12T10:02:58Z</time>
      </trkpt>
      <trkpt lat="44.45327" lon="2.94954">
        <ele>606</ele>
        <time>2022-07-12T10:02:59Z</time>
      </trkpt>
      <trkpt lat="44.45324" lon="2.94949">
        <ele>607</ele>
        <time>2022-07-12T10:03:05Z</time>
      </trkpt>
      <trkpt lat="44.45324" lon="2.94949">
        <ele>607.2</ele>
        <time>2022-07-12T10:03:06Z</time>
      </trkpt>
      <trkpt lat="44.45318" lon="2.94942">
        <ele>608.2</ele>
        <time>2022-07-12T10:03:12Z</time>
      </trkpt>
      <trkpt lat="44.45318" lon="2.94941">
        <ele>608.2</ele>
        <time>2022-07-12T10:03:13Z</time>
      </trkpt>
      <trkpt lat="44.45314" lon="2.94933">
        <ele>609.2</ele>
        <time>2022-07-12T10:03:20Z</time>
      </trkpt>
      <trkpt lat="44.45312" lon="2.94932">
        <ele>609.6</ele>
        <time>2022-07-12T10:03:22Z</time>
      </trkpt>
      <trkpt lat="44.45309" lon="2.94925">
        <ele>610.4</ele>
        <time>2022-07-12T10:03:28Z</time>
      </trkpt>
      <trkpt lat="44.45307" lon="2.94924">
        <ele>610.6</ele>
        <time>2022-07-12T10:03:29Z</time>
      </trkpt>
      <trkpt lat="44.45303" lon="2.94912">
        <ele>611.6</ele>
        <time>2022-07-12T10:03:35Z</time>
      </trkpt>
      <trkpt lat="44.45302" lon="2.94909">
        <ele>612</ele>
        <time>2022-07-12T10:03:37Z</time>
      </trkpt>
      <trkpt lat="44.45294" lon="2.94901">
        <ele>612.8</ele>
        <time>2022-07-12T10:03:42Z</time>
      </trkpt>
      <trkpt lat="44.45294" lon="2.94898">
        <ele>613</ele>
        <time>2022-07-12T10:03:43Z</time>
      </trkpt>
      <trkpt lat="44.45293" lon="2.94893">
        <ele>613.2</ele>
        <time>2022-07-12T10:03:45Z</time>
      </trkpt>
      <trkpt lat="44.45289" lon="2.94889">
        <ele>613.8</ele>
        <time>2022-07-12T10:03:47Z</time>
      </trkpt>
      <trkpt lat="44.45287" lon="2.94886">
        <ele>614</ele>
        <time>2022-07-12T10:03:49Z</time>
      </trkpt>
      <trkpt lat="44.45289" lon="2.9488">
        <ele>614.6</ele>
        <time>2022-07-12T10:03:54Z</time>
      </trkpt>
      <trkpt lat="44.45291" lon="2.9488">
        <ele>614.6</ele>
        <time>2022-07-12T10:03:55Z</time>
      </trkpt>
      <trkpt lat="44.45295" lon="2.94881">
        <ele>615</ele>
        <time>2022-07-12T10:03:58Z</time>
      </trkpt>
      <trkpt lat="44.45295" lon="2.94882">
        <ele>615.2</ele>
        <time>2022-07-12T10:03:59Z</time>
      </trkpt>
      <trkpt lat="44.45296" lon="2.94883">
        <ele>615.2</ele>
        <time>2022-07-12T10:04:00Z</time>
      </trkpt>
      <trkpt lat="44.45298" lon="2.94885">
        <ele>615.6</ele>
        <time>2022-07-12T10:04:03Z</time>
      </trkpt>
      <trkpt lat="44.45302" lon="2.94889">
        <ele>616.2</ele>
        <time>2022-07-12T10:04:07Z</time>
      </trkpt>
      <trkpt lat="44.45308" lon="2.94893">
        <ele>617</ele>
        <time>2022-07-12T10:04:13Z</time>
      </trkpt>
      <trkpt lat="44.45309" lon="2.94893">
        <ele>617.2</ele>
        <time>2022-07-12T10:04:14Z</time>
      </trkpt>
      <trkpt lat="44.45311" lon="2.94892">
        <ele>617.8</ele>
        <time>2022-07-12T10:04:16Z</time>
      </trkpt>
      <trkpt lat="44.45316" lon="2.94892">
        <ele>618.4</ele>
        <time>2022-07-12T10:04:20Z</time>
      </trkpt>
      <trkpt lat="44.45317" lon="2.94892">
        <ele>618.6</ele>
        <time>2022-07-12T10:04:21Z</time>
      </trkpt>
      <trkpt lat="44.45322" lon="2.94886">
        <ele>619.4</ele>
        <time>2022-07-12T10:04:26Z</time>
      </trkpt>
      <trkpt lat="44.45324" lon="2.94882">
        <ele>619.6</ele>
        <time>2022-07-12T10:04:28Z</time>
      </trkpt>
      <trkpt lat="44.45327" lon="2.94873">
        <ele>620</ele>
        <time>2022-07-12T10:04:33Z</time>
      </trkpt>
      <trkpt lat="44.4533" lon="2.9486">
        <ele>620.6</ele>
        <time>2022-07-12T10:04:39Z</time>
      </trkpt>
      <trkpt lat="44.45331" lon="2.94858">
        <ele>620.6</ele>
        <time>2022-07-12T10:04:40Z</time>
      </trkpt>
      <trkpt lat="44.4533" lon="2.94849">
        <ele>621.2</ele>
        <time>2022-07-12T10:04:44Z</time>
      </trkpt>
      <trkpt lat="44.45329" lon="2.94846">
        <ele>621.4</ele>
        <time>2022-07-12T10:04:46Z</time>
      </trkpt>
      <trkpt lat="44.45328" lon="2.94844">
        <ele>621.6</ele>
        <time>2022-07-12T10:04:47Z</time>
      </trkpt>
      <trkpt lat="44.45328" lon="2.94842">
        <ele>621.8</ele>
        <time>2022-07-12T10:04:48Z</time>
      </trkpt>
      <trkpt lat="44.45324" lon="2.94838">
        <ele>622.4</ele>
        <time>2022-07-12T10:04:51Z</time>
      </trkpt>
      <trkpt lat="44.45323" lon="2.94836">
        <ele>622.6</ele>
        <time>2022-07-12T10:04:52Z</time>
      </trkpt>
      <trkpt lat="44.45323" lon="2.94835">
        <ele>622.6</ele>
        <time>2022-07-12T10:04:53Z</time>
      </trkpt>
      <trkpt lat="44.45322" lon="2.94832">
        <ele>622.8</ele>
        <time>2022-07-12T10:04:55Z</time>
      </trkpt>
      <trkpt lat="44.45322" lon="2.94831">
        <ele>622.8</ele>
        <time>2022-07-12T10:04:56Z</time>
      </trkpt>
      <trkpt lat="44.4532" lon="2.94826">
        <ele>623.8</ele>
        <time>2022-07-12T10:05:02Z</time>
      </trkpt>
      <trkpt lat="44.45317" lon="2.9482">
        <ele>624.6</ele>
        <time>2022-07-12T10:05:10Z</time>
      </trkpt>
      <trkpt lat="44.45316" lon="2.94819">
        <ele>625</ele>
        <time>2022-07-12T10:05:11Z</time>
      </trkpt>
      <trkpt lat="44.45313" lon="2.94815">
        <ele>626</ele>
        <time>2022-07-12T10:05:18Z</time>
      </trkpt>
      <trkpt lat="44.45313" lon="2.94815">
        <ele>626.2</ele>
        <time>2022-07-12T10:05:19Z</time>
      </trkpt>
      <trkpt lat="44.4531" lon="2.94812">
        <ele>626.6</ele>
        <time>2022-07-12T10:05:23Z</time>
      </trkpt>
      <trkpt lat="44.45307" lon="2.94808">
        <ele>627.2</ele>
        <time>2022-07-12T10:05:26Z</time>
      </trkpt>
      <trkpt lat="44.45306" lon="2.94805">
        <ele>627.4</ele>
        <time>2022-07-12T10:05:27Z</time>
      </trkpt>
      <trkpt lat="44.45303" lon="2.94802">
        <ele>628.2</ele>
        <time>2022-07-12T10:05:34Z</time>
      </trkpt>
      <trkpt lat="44.45303" lon="2.94801">
        <ele>628.4</ele>
        <time>2022-07-12T10:05:35Z</time>
      </trkpt>
      <trkpt lat="44.45302" lon="2.94801">
        <ele>628.4</ele>
        <time>2022-07-12T10:05:36Z</time>
      </trkpt>
      <trkpt lat="44.45299" lon="2.94794">
        <ele>629.4</ele>
        <time>2022-07-12T10:05:41Z</time>
      </trkpt>
      <trkpt lat="44.45297" lon="2.9479">
        <ele>630</ele>
        <time>2022-07-12T10:05:45Z</time>
      </trkpt>
      <trkpt lat="44.4529" lon="2.9478">
        <ele>630.4</ele>
        <time>2022-07-12T10:05:48Z</time>
      </trkpt>
      <trkpt lat="44.45285" lon="2.94774">
        <ele>631</ele>
        <time>2022-07-12T10:05:53Z</time>
      </trkpt>
      <trkpt lat="44.45284" lon="2.94771">
        <ele>631.4</ele>
        <time>2022-07-12T10:05:55Z</time>
      </trkpt>
      <trkpt lat="44.4528" lon="2.94766">
        <ele>631.8</ele>
        <time>2022-07-12T10:05:57Z</time>
      </trkpt>
      <trkpt lat="44.4528" lon="2.94764">
        <ele>632</ele>
        <time>2022-07-12T10:05:58Z</time>
      </trkpt>
      <trkpt lat="44.4528" lon="2.94762">
        <ele>632.2</ele>
        <time>2022-07-12T10:05:59Z</time>
      </trkpt>
      <trkpt lat="44.45274" lon="2.94753">
        <ele>632.6</ele>
        <time>2022-07-12T10:06:02Z</time>
      </trkpt>
      <trkpt lat="44.4527" lon="2.94745">
        <ele>632.6</ele>
        <time>2022-07-12T10:06:04Z</time>
      </trkpt>
      <trkpt lat="44.45266" lon="2.9474">
        <ele>633</ele>
        <time>2022-07-12T10:06:07Z</time>
      </trkpt>
      <trkpt lat="44.45266" lon="2.9474">
        <ele>633.2</ele>
        <time>2022-07-12T10:06:08Z</time>
      </trkpt>
      <trkpt lat="44.45263" lon="2.94737">
        <ele>633.6</ele>
        <time>2022-07-12T10:06:13Z</time>
      </trkpt>
      <trkpt lat="44.45262" lon="2.94733">
        <ele>634.6</ele>
        <time>2022-07-12T10:06:19Z</time>
      </trkpt>
      <trkpt lat="44.4526" lon="2.94732">
        <ele>635</ele>
        <time>2022-07-12T10:06:22Z</time>
      </trkpt>
      <trkpt lat="44.45255" lon="2.94731">
        <ele>635.4</ele>
        <time>2022-07-12T10:06:25Z</time>
      </trkpt>
      <trkpt lat="44.45252" lon="2.9473">
        <ele>635.8</ele>
        <time>2022-07-12T10:06:27Z</time>
      </trkpt>
      <trkpt lat="44.45245" lon="2.94727">
        <ele>636.2</ele>
        <time>2022-07-12T10:06:31Z</time>
      </trkpt>
      <trkpt lat="44.45242" lon="2.94727">
        <ele>636.4</ele>
        <time>2022-07-12T10:06:32Z</time>
      </trkpt>
      <trkpt lat="44.45238" lon="2.94726">
        <ele>636.8</ele>
        <time>2022-07-12T10:06:34Z</time>
      </trkpt>
      <trkpt lat="44.4523" lon="2.94725">
        <ele>637</ele>
        <time>2022-07-12T10:06:38Z</time>
      </trkpt>
      <trkpt lat="44.4522" lon="2.94726">
        <ele>637.8</ele>
        <time>2022-07-12T10:06:42Z</time>
      </trkpt>
      <trkpt lat="44.45216" lon="2.94726">
        <ele>638</ele>
        <time>2022-07-12T10:06:44Z</time>
      </trkpt>
      <trkpt lat="44.45209" lon="2.94725">
        <ele>638.6</ele>
        <time>2022-07-12T10:06:48Z</time>
      </trkpt>
      <trkpt lat="44.45206" lon="2.94727">
        <ele>638.8</ele>
        <time>2022-07-12T10:06:50Z</time>
      </trkpt>
      <trkpt lat="44.45204" lon="2.94727">
        <ele>638.8</ele>
        <time>2022-07-12T10:06:51Z</time>
      </trkpt>
      <trkpt lat="44.452" lon="2.94727">
        <ele>639</ele>
        <time>2022-07-12T10:06:52Z</time>
      </trkpt>
      <trkpt lat="44.45199" lon="2.94729">
        <ele>639</ele>
        <time>2022-07-12T10:06:53Z</time>
      </trkpt>
      <trkpt lat="44.45187" lon="2.94733">
        <ele>639.4</ele>
        <time>2022-07-12T10:06:58Z</time>
      </trkpt>
      <trkpt lat="44.45176" lon="2.94738">
        <ele>639.6</ele>
        <time>2022-07-12T10:07:04Z</time>
      </trkpt>
      <trkpt lat="44.45163" lon="2.94744">
        <ele>639.8</ele>
        <time>2022-07-12T10:07:12Z</time>
      </trkpt>
      <trkpt lat="44.45162" lon="2.94745">
        <ele>639.8</ele>
        <time>2022-07-12T10:07:13Z</time>
      </trkpt>
      <trkpt lat="44.45156" lon="2.94748">
        <ele>640.2</ele>
        <time>2022-07-12T10:07:17Z</time>
      </trkpt>
      <trkpt lat="44.45154" lon="2.94749">
        <ele>640.2</ele>
        <time>2022-07-12T10:07:19Z</time>
      </trkpt>
      <trkpt lat="44.45151" lon="2.9475">
        <ele>640.8</ele>
        <time>2022-07-12T10:07:22Z</time>
      </trkpt>
      <trkpt lat="44.45144" lon="2.94753">
        <ele>641.8</ele>
        <time>2022-07-12T10:07:28Z</time>
      </trkpt>
      <trkpt lat="44.45139" lon="2.94754">
        <ele>642.8</ele>
        <time>2022-07-12T10:07:33Z</time>
      </trkpt>
      <trkpt lat="44.45136" lon="2.94754">
        <ele>643.2</ele>
        <time>2022-07-12T10:07:35Z</time>
      </trkpt>
      <trkpt lat="44.45134" lon="2.94754">
        <ele>643.4</ele>
        <time>2022-07-12T10:07:36Z</time>
      </trkpt>
      <trkpt lat="44.45131" lon="2.94755">
        <ele>643.8</ele>
        <time>2022-07-12T10:07:38Z</time>
      </trkpt>
      <trkpt lat="44.45125" lon="2.94757">
        <ele>644.4</ele>
        <time>2022-07-12T10:07:42Z</time>
      </trkpt>
      <trkpt lat="44.45118" lon="2.94758">
        <ele>645</ele>
        <time>2022-07-12T10:07:46Z</time>
      </trkpt>
      <trkpt lat="44.45106" lon="2.94761">
        <ele>646</ele>
        <time>2022-07-12T10:07:53Z</time>
      </trkpt>
      <trkpt lat="44.45093" lon="2.94759">
        <ele>646.8</ele>
        <time>2022-07-12T10:08:00Z</time>
      </trkpt>
      <trkpt lat="44.45091" lon="2.94758">
        <ele>647</ele>
        <time>2022-07-12T10:08:01Z</time>
      </trkpt>
      <trkpt lat="44.45091" lon="2.94758">
        <ele>647.2</ele>
        <time>2022-07-12T10:08:03Z</time>
      </trkpt>
      <trkpt lat="44.45089" lon="2.94757">
        <ele>647.4</ele>
        <time>2022-07-12T10:09:50Z</time>
      </trkpt>
      <trkpt lat="44.4508" lon="2.94757">
        <ele>647.4</ele>
        <time>2022-07-12T10:09:55Z</time>
      </trkpt>
      <trkpt lat="44.45076" lon="2.94758">
        <ele>647.2</ele>
        <time>2022-07-12T10:09:57Z</time>
      </trkpt>
      <trkpt lat="44.45063" lon="2.94767">
        <ele>647</ele>
        <time>2022-07-12T10:10:02Z</time>
      </trkpt>
      <trkpt lat="44.45044" lon="2.94788">
        <ele>646.6</ele>
        <time>2022-07-12T10:10:09Z</time>
      </trkpt>
      <trkpt lat="44.45032" lon="2.94802">
        <ele>646</ele>
        <time>2022-07-12T10:10:13Z</time>
      </trkpt>
      <trkpt lat="44.45025" lon="2.94809">
        <ele>645.8</ele>
        <time>2022-07-12T10:10:15Z</time>
      </trkpt>
      <trkpt lat="44.45002" lon="2.94839">
        <ele>644.8</ele>
        <time>2022-07-12T10:10:22Z</time>
      </trkpt>
      <trkpt lat="44.44997" lon="2.94843">
        <ele>644.8</ele>
        <time>2022-07-12T10:10:23Z</time>
      </trkpt>
      <trkpt lat="44.44989" lon="2.94849">
        <ele>644.2</ele>
        <time>2022-07-12T10:10:25Z</time>
      </trkpt>
      <trkpt lat="44.44976" lon="2.94855">
        <ele>644</ele>
        <time>2022-07-12T10:10:28Z</time>
      </trkpt>
      <trkpt lat="44.44965" lon="2.94857">
        <ele>643.8</ele>
        <time>2022-07-12T10:10:31Z</time>
      </trkpt>
      <trkpt lat="44.44958" lon="2.94859">
        <ele>643.6</ele>
        <time>2022-07-12T10:10:33Z</time>
      </trkpt>
      <trkpt lat="44.44935" lon="2.94873">
        <ele>643.2</ele>
        <time>2022-07-12T10:10:39Z</time>
      </trkpt>
      <trkpt lat="44.44928" lon="2.9488">
        <ele>642.4</ele>
        <time>2022-07-12T10:10:42Z</time>
      </trkpt>
      <trkpt lat="44.44924" lon="2.94882">
        <ele>642</ele>
        <time>2022-07-12T10:10:44Z</time>
      </trkpt>
      <trkpt lat="44.44915" lon="2.94887">
        <ele>641.4</ele>
        <time>2022-07-12T10:10:50Z</time>
      </trkpt>
      <trkpt lat="44.44913" lon="2.94887">
        <ele>641.4</ele>
        <time>2022-07-12T10:10:51Z</time>
      </trkpt>
      <trkpt lat="44.449" lon="2.94888">
        <ele>641</ele>
        <time>2022-07-12T10:10:55Z</time>
      </trkpt>
      <trkpt lat="44.44881" lon="2.94893">
        <ele>640.2</ele>
        <time>2022-07-12T10:10:59Z</time>
      </trkpt>
      <trkpt lat="44.44875" lon="2.94894">
        <ele>640</ele>
        <time>2022-07-12T10:11:00Z</time>
      </trkpt>
      <trkpt lat="44.44857" lon="2.94896">
        <ele>639.2</ele>
        <time>2022-07-12T10:11:03Z</time>
      </trkpt>
      <trkpt lat="44.44843" lon="2.94897">
        <ele>638.8</ele>
        <time>2022-07-12T10:11:05Z</time>
      </trkpt>
      <trkpt lat="44.44827" lon="2.94898">
        <ele>638.2</ele>
        <time>2022-07-12T10:11:07Z</time>
      </trkpt>
      <trkpt lat="44.44803" lon="2.949">
        <ele>637.2</ele>
        <time>2022-07-12T10:11:10Z</time>
      </trkpt>
      <trkpt lat="44.44786" lon="2.94905">
        <ele>636.2</ele>
        <time>2022-07-12T10:11:12Z</time>
      </trkpt>
      <trkpt lat="44.44778" lon="2.94908">
        <ele>636</ele>
        <time>2022-07-12T10:11:13Z</time>
      </trkpt>
      <trkpt lat="44.4477" lon="2.94911">
        <ele>635.4</ele>
        <time>2022-07-12T10:11:14Z</time>
      </trkpt>
      <trkpt lat="44.44756" lon="2.94916">
        <ele>635</ele>
        <time>2022-07-12T10:11:16Z</time>
      </trkpt>
      <trkpt lat="44.44734" lon="2.94919">
        <ele>634</ele>
        <time>2022-07-12T10:11:19Z</time>
      </trkpt>
      <trkpt lat="44.44727" lon="2.9492">
        <ele>633.8</ele>
        <time>2022-07-12T10:11:20Z</time>
      </trkpt>
      <trkpt lat="44.44693" lon="2.94929">
        <ele>633.4</ele>
        <time>2022-07-12T10:11:25Z</time>
      </trkpt>
      <trkpt lat="44.44668" lon="2.94938">
        <ele>632.8</ele>
        <time>2022-07-12T10:11:29Z</time>
      </trkpt>
      <trkpt lat="44.44643" lon="2.94949">
        <ele>632.4</ele>
        <time>2022-07-12T10:11:33Z</time>
      </trkpt>
      <trkpt lat="44.44629" lon="2.94957">
        <ele>632</ele>
        <time>2022-07-12T10:11:36Z</time>
      </trkpt>
      <trkpt lat="44.44627" lon="2.94958">
        <ele>631.6</ele>
        <time>2022-07-12T10:11:37Z</time>
      </trkpt>
      <trkpt lat="44.44625" lon="2.94959">
        <ele>630.8</ele>
        <time>2022-07-12T10:11:40Z</time>
      </trkpt>
      <trkpt lat="44.44625" lon="2.94959">
        <ele>630.4</ele>
        <time>2022-07-12T10:11:41Z</time>
      </trkpt>
      <trkpt lat="44.44621" lon="2.94962">
        <ele>628.4</ele>
        <time>2022-07-12T10:11:56Z</time>
      </trkpt>
      <trkpt lat="44.44616" lon="2.94964">
        <ele>628.2</ele>
        <time>2022-07-12T10:11:58Z</time>
      </trkpt>
      <trkpt lat="44.44596" lon="2.94962">
        <ele>628</ele>
        <time>2022-07-12T10:12:04Z</time>
      </trkpt>
      <trkpt lat="44.44578" lon="2.94952">
        <ele>627.6</ele>
        <time>2022-07-12T10:12:10Z</time>
      </trkpt>
      <trkpt lat="44.44572" lon="2.94939">
        <ele>627.6</ele>
        <time>2022-07-12T10:12:14Z</time>
      </trkpt>
      <trkpt lat="44.44573" lon="2.94934">
        <ele>627.6</ele>
        <time>2022-07-12T10:12:18Z</time>
      </trkpt>
      <trkpt lat="44.44573" lon="2.94934">
        <ele>627.6</ele>
        <time>2022-07-12T10:12:20Z</time>
      </trkpt>
      <trkpt lat="44.4457" lon="2.94934">
        <ele>627.8</ele>
        <time>2022-07-12T10:25:15Z</time>
      </trkpt>
      <trkpt lat="44.44568" lon="2.94934">
        <ele>627.8</ele>
        <time>2022-07-12T10:25:16Z</time>
      </trkpt>
      <trkpt lat="44.44562" lon="2.94936">
        <ele>627.6</ele>
        <time>2022-07-12T10:25:19Z</time>
      </trkpt>
      <trkpt lat="44.44556" lon="2.94931">
        <ele>627.6</ele>
        <time>2022-07-12T10:25:21Z</time>
      </trkpt>
      <trkpt lat="44.44534" lon="2.94908">
        <ele>628.4</ele>
        <time>2022-07-12T10:25:28Z</time>
      </trkpt>
      <trkpt lat="44.44519" lon="2.94896">
        <ele>629</ele>
        <time>2022-07-12T10:25:32Z</time>
      </trkpt>
      <trkpt lat="44.44514" lon="2.94894">
        <ele>629</ele>
        <time>2022-07-12T10:25:33Z</time>
      </trkpt>
      <trkpt lat="44.44486" lon="2.94887">
        <ele>629.6</ele>
        <time>2022-07-12T10:25:40Z</time>
      </trkpt>
      <trkpt lat="44.44474" lon="2.94886">
        <ele>630.2</ele>
        <time>2022-07-12T10:25:43Z</time>
      </trkpt>
      <trkpt lat="44.44466" lon="2.94887">
        <ele>630.6</ele>
        <time>2022-07-12T10:25:45Z</time>
      </trkpt>
      <trkpt lat="44.44442" lon="2.94892">
        <ele>631.2</ele>
        <time>2022-07-12T10:25:51Z</time>
      </trkpt>
      <trkpt lat="44.44438" lon="2.94893">
        <ele>631.2</ele>
        <time>2022-07-12T10:25:52Z</time>
      </trkpt>
      <trkpt lat="44.44415" lon="2.94888">
        <ele>631.6</ele>
        <time>2022-07-12T10:25:58Z</time>
      </trkpt>
      <trkpt lat="44.44401" lon="2.94874">
        <ele>631.8</ele>
        <time>2022-07-12T10:26:02Z</time>
      </trkpt>
      <trkpt lat="44.44391" lon="2.94867">
        <ele>632.2</ele>
        <time>2022-07-12T10:26:05Z</time>
      </trkpt>
      <trkpt lat="44.44387" lon="2.94864">
        <ele>632.2</ele>
        <time>2022-07-12T10:26:06Z</time>
      </trkpt>
      <trkpt lat="44.44364" lon="2.94851">
        <ele>632.4</ele>
        <time>2022-07-12T10:26:12Z</time>
      </trkpt>
      <trkpt lat="44.44355" lon="2.9485">
        <ele>632.6</ele>
        <time>2022-07-12T10:26:14Z</time>
      </trkpt>
      <trkpt lat="44.44349" lon="2.94851">
        <ele>632.6</ele>
        <time>2022-07-12T10:26:16Z</time>
      </trkpt>
      <trkpt lat="44.44344" lon="2.94847">
        <ele>633</ele>
        <time>2022-07-12T10:26:18Z</time>
      </trkpt>
      <trkpt lat="44.44341" lon="2.94843">
        <ele>633.2</ele>
        <time>2022-07-12T10:26:19Z</time>
      </trkpt>
      <trkpt lat="44.4434" lon="2.94838">
        <ele>633.4</ele>
        <time>2022-07-12T10:26:20Z</time>
      </trkpt>
      <trkpt lat="44.44336" lon="2.94821">
        <ele>633.8</ele>
        <time>2022-07-12T10:26:23Z</time>
      </trkpt>
      <trkpt lat="44.44336" lon="2.94815">
        <ele>634</ele>
        <time>2022-07-12T10:26:24Z</time>
      </trkpt>
      <trkpt lat="44.44327" lon="2.94792">
        <ele>634</ele>
        <time>2022-07-12T10:26:28Z</time>
      </trkpt>
      <trkpt lat="44.44322" lon="2.94792">
        <ele>634</ele>
        <time>2022-07-12T10:26:30Z</time>
      </trkpt>
      <trkpt lat="44.44314" lon="2.94795">
        <ele>633.6</ele>
        <time>2022-07-12T10:26:32Z</time>
      </trkpt>
      <trkpt lat="44.44306" lon="2.94799">
        <ele>633.4</ele>
        <time>2022-07-12T10:26:34Z</time>
      </trkpt>
      <trkpt lat="44.44284" lon="2.94798">
        <ele>631.8</ele>
        <time>2022-07-12T10:26:38Z</time>
      </trkpt>
      <trkpt lat="44.44273" lon="2.94798">
        <ele>630.4</ele>
        <time>2022-07-12T10:26:40Z</time>
      </trkpt>
      <trkpt lat="44.44262" lon="2.94797">
        <ele>629.2</ele>
        <time>2022-07-12T10:26:42Z</time>
      </trkpt>
      <trkpt lat="44.44259" lon="2.94796">
        <ele>628.4</ele>
        <time>2022-07-12T10:26:43Z</time>
      </trkpt>
      <trkpt lat="44.44259" lon="2.94795">
        <ele>628.2</ele>
        <time>2022-07-12T10:26:44Z</time>
      </trkpt>
      <trkpt lat="44.44258" lon="2.94795">
        <ele>627.2</ele>
        <time>2022-07-12T10:26:45Z</time>
      </trkpt>
      <trkpt lat="44.44256" lon="2.94796">
        <ele>627</ele>
        <time>2022-07-12T10:26:46Z</time>
      </trkpt>
      <trkpt lat="44.44255" lon="2.94797">
        <ele>626</ele>
        <time>2022-07-12T10:26:47Z</time>
      </trkpt>
      <trkpt lat="44.44254" lon="2.94797">
        <ele>625.4</ele>
        <time>2022-07-12T10:26:48Z</time>
      </trkpt>
      <trkpt lat="44.44254" lon="2.94797">
        <ele>624.6</ele>
        <time>2022-07-12T10:26:49Z</time>
      </trkpt>
      <trkpt lat="44.44254" lon="2.94797">
        <ele>624</ele>
        <time>2022-07-12T10:26:50Z</time>
      </trkpt>
      <trkpt lat="44.44251" lon="2.94798">
        <ele>622.6</ele>
        <time>2022-07-12T10:26:56Z</time>
      </trkpt>
      <trkpt lat="44.44249" lon="2.94799">
        <ele>622.4</ele>
        <time>2022-07-12T10:26:57Z</time>
      </trkpt>
      <trkpt lat="44.44241" lon="2.948">
        <ele>622.2</ele>
        <time>2022-07-12T10:27:00Z</time>
      </trkpt>
      <trkpt lat="44.44233" lon="2.94799">
        <ele>621.4</ele>
        <time>2022-07-12T10:27:02Z</time>
      </trkpt>
      <trkpt lat="44.4422" lon="2.94798">
        <ele>619.6</ele>
        <time>2022-07-12T10:27:05Z</time>
      </trkpt>
      <trkpt lat="44.44216" lon="2.94797">
        <ele>619.2</ele>
        <time>2022-07-12T10:27:06Z</time>
      </trkpt>
      <trkpt lat="44.44211" lon="2.94795">
        <ele>618.2</ele>
        <time>2022-07-12T10:27:07Z</time>
      </trkpt>
      <trkpt lat="44.44202" lon="2.94791">
        <ele>616.8</ele>
        <time>2022-07-12T10:27:09Z</time>
      </trkpt>
      <trkpt lat="44.44196" lon="2.94786">
        <ele>616.2</ele>
        <time>2022-07-12T10:27:10Z</time>
      </trkpt>
      <trkpt lat="44.44191" lon="2.94779">
        <ele>615.2</ele>
        <time>2022-07-12T10:27:11Z</time>
      </trkpt>
      <trkpt lat="44.44172" lon="2.94758">
        <ele>613.6</ele>
        <time>2022-07-12T10:27:14Z</time>
      </trkpt>
      <trkpt lat="44.44159" lon="2.94748">
        <ele>612.6</ele>
        <time>2022-07-12T10:27:16Z</time>
      </trkpt>
      <trkpt lat="44.44151" lon="2.94745">
        <ele>612.4</ele>
        <time>2022-07-12T10:27:17Z</time>
      </trkpt>
      <trkpt lat="44.44144" lon="2.94744">
        <ele>611.8</ele>
        <time>2022-07-12T10:27:18Z</time>
      </trkpt>
      <trkpt lat="44.44137" lon="2.94744">
        <ele>611.6</ele>
        <time>2022-07-12T10:27:19Z</time>
      </trkpt>
      <trkpt lat="44.44131" lon="2.94744">
        <ele>611</ele>
        <time>2022-07-12T10:27:20Z</time>
      </trkpt>
      <trkpt lat="44.44121" lon="2.94744">
        <ele>610.8</ele>
        <time>2022-07-12T10:27:22Z</time>
      </trkpt>
      <trkpt lat="44.44112" lon="2.94741">
        <ele>610.8</ele>
        <time>2022-07-12T10:27:24Z</time>
      </trkpt>
      <trkpt lat="44.44104" lon="2.94738">
        <ele>610.8</ele>
        <time>2022-07-12T10:27:26Z</time>
      </trkpt>
      <trkpt lat="44.441" lon="2.94735">
        <ele>610.8</ele>
        <time>2022-07-12T10:27:27Z</time>
      </trkpt>
      <trkpt lat="44.44074" lon="2.94714">
        <ele>610.6</ele>
        <time>2022-07-12T10:27:32Z</time>
      </trkpt>
      <trkpt lat="44.44053" lon="2.94693">
        <ele>610</ele>
        <time>2022-07-12T10:27:36Z</time>
      </trkpt>
      <trkpt lat="44.44037" lon="2.94676">
        <ele>609.2</ele>
        <time>2022-07-12T10:27:39Z</time>
      </trkpt>
      <trkpt lat="44.4403" lon="2.9467">
        <ele>608.8</ele>
        <time>2022-07-12T10:27:40Z</time>
      </trkpt>
      <trkpt lat="44.4401" lon="2.94655">
        <ele>607.6</ele>
        <time>2022-07-12T10:27:43Z</time>
      </trkpt>
      <trkpt lat="44.43978" lon="2.94642">
        <ele>606.6</ele>
        <time>2022-07-12T10:27:48Z</time>
      </trkpt>
      <trkpt lat="44.43974" lon="2.9464">
        <ele>606.6</ele>
        <time>2022-07-12T10:27:49Z</time>
      </trkpt>
      <trkpt lat="44.43972" lon="2.94636">
        <ele>606.4</ele>
        <time>2022-07-12T10:27:51Z</time>
      </trkpt>
      <trkpt lat="44.43969" lon="2.94629">
        <ele>606.2</ele>
        <time>2022-07-12T10:27:54Z</time>
      </trkpt>
      <trkpt lat="44.43967" lon="2.94628">
        <ele>606.2</ele>
        <time>2022-07-12T10:27:55Z</time>
      </trkpt>
      <trkpt lat="44.43951" lon="2.94629">
        <ele>606.2</ele>
        <time>2022-07-12T10:28:00Z</time>
      </trkpt>
      <trkpt lat="44.43939" lon="2.94627">
        <ele>606.8</ele>
        <time>2022-07-12T10:28:04Z</time>
      </trkpt>
      <trkpt lat="44.43932" lon="2.94626">
        <ele>607</ele>
        <time>2022-07-12T10:28:06Z</time>
      </trkpt>
      <trkpt lat="44.43908" lon="2.94618">
        <ele>607.4</ele>
        <time>2022-07-12T10:28:12Z</time>
      </trkpt>
      <trkpt lat="44.43899" lon="2.94607">
        <ele>607.6</ele>
        <time>2022-07-12T10:28:15Z</time>
      </trkpt>
      <trkpt lat="44.43896" lon="2.94602">
        <ele>607.6</ele>
        <time>2022-07-12T10:28:16Z</time>
      </trkpt>
      <trkpt lat="44.43893" lon="2.94596">
        <ele>607.6</ele>
        <time>2022-07-12T10:28:17Z</time>
      </trkpt>
      <trkpt lat="44.4389" lon="2.94589">
        <ele>607.6</ele>
        <time>2022-07-12T10:28:18Z</time>
      </trkpt>
      <trkpt lat="44.43881" lon="2.9457">
        <ele>607.6</ele>
        <time>2022-07-12T10:28:21Z</time>
      </trkpt>
      <trkpt lat="44.43865" lon="2.94532">
        <ele>606.6</ele>
        <time>2022-07-12T10:28:26Z</time>
      </trkpt>
      <trkpt lat="44.43862" lon="2.94524">
        <ele>606.4</ele>
        <time>2022-07-12T10:28:27Z</time>
      </trkpt>
      <trkpt lat="44.43843" lon="2.94476">
        <ele>605.2</ele>
        <time>2022-07-12T10:28:32Z</time>
      </trkpt>
      <trkpt lat="44.43833" lon="2.94457">
        <ele>605</ele>
        <time>2022-07-12T10:28:34Z</time>
      </trkpt>
      <trkpt lat="44.43821" lon="2.94428">
        <ele>604.2</ele>
        <time>2022-07-12T10:28:37Z</time>
      </trkpt>
      <trkpt lat="44.43813" lon="2.9441">
        <ele>604</ele>
        <time>2022-07-12T10:28:39Z</time>
      </trkpt>
      <trkpt lat="44.43788" lon="2.94361">
        <ele>603.2</ele>
        <time>2022-07-12T10:28:45Z</time>
      </trkpt>
      <trkpt lat="44.43784" lon="2.94354">
        <ele>603</ele>
        <time>2022-07-12T10:28:46Z</time>
      </trkpt>
      <trkpt lat="44.4376" lon="2.94315">
        <ele>602.6</ele>
        <time>2022-07-12T10:28:52Z</time>
      </trkpt>
      <trkpt lat="44.4373" lon="2.94285">
        <ele>602.8</ele>
        <time>2022-07-12T10:28:58Z</time>
      </trkpt>
      <trkpt lat="44.4369" lon="2.94255">
        <ele>602.8</ele>
        <time>2022-07-12T10:29:06Z</time>
      </trkpt>
      <trkpt lat="44.43676" lon="2.94247">
        <ele>602.8</ele>
        <time>2022-07-12T10:29:09Z</time>
      </trkpt>
      <trkpt lat="44.43671" lon="2.94246">
        <ele>602.8</ele>
        <time>2022-07-12T10:29:10Z</time>
      </trkpt>
      <trkpt lat="44.43666" lon="2.94246">
        <ele>603</ele>
        <time>2022-07-12T10:29:11Z</time>
      </trkpt>
      <trkpt lat="44.43656" lon="2.94249">
        <ele>603.2</ele>
        <time>2022-07-12T10:29:13Z</time>
      </trkpt>
      <trkpt lat="44.4364" lon="2.94257">
        <ele>603.4</ele>
        <time>2022-07-12T10:29:16Z</time>
      </trkpt>
      <trkpt lat="44.4361" lon="2.94272">
        <ele>603.4</ele>
        <time>2022-07-12T10:29:21Z</time>
      </trkpt>
      <trkpt lat="44.43567" lon="2.94299">
        <ele>602</ele>
        <time>2022-07-12T10:29:28Z</time>
      </trkpt>
      <trkpt lat="44.43545" lon="2.9432">
        <ele>601.6</ele>
        <time>2022-07-12T10:29:32Z</time>
      </trkpt>
      <trkpt lat="44.43508" lon="2.94352">
        <ele>601.4</ele>
        <time>2022-07-12T10:29:39Z</time>
      </trkpt>
      <trkpt lat="44.43486" lon="2.94369">
        <ele>601.4</ele>
        <time>2022-07-12T10:29:43Z</time>
      </trkpt>
      <trkpt lat="44.43474" lon="2.94372">
        <ele>601.6</ele>
        <time>2022-07-12T10:29:45Z</time>
      </trkpt>
      <trkpt lat="44.43463" lon="2.9437">
        <ele>601.6</ele>
        <time>2022-07-12T10:29:47Z</time>
      </trkpt>
      <trkpt lat="44.43458" lon="2.94367">
        <ele>601.6</ele>
        <time>2022-07-12T10:29:48Z</time>
      </trkpt>
      <trkpt lat="44.43418" lon="2.94336">
        <ele>602</ele>
        <time>2022-07-12T10:29:56Z</time>
      </trkpt>
      <trkpt lat="44.43404" lon="2.94324">
        <ele>602.2</ele>
        <time>2022-07-12T10:29:59Z</time>
      </trkpt>
      <trkpt lat="44.43384" lon="2.94309">
        <ele>602.6</ele>
        <time>2022-07-12T10:30:03Z</time>
      </trkpt>
      <trkpt lat="44.43364" lon="2.94295">
        <ele>603</ele>
        <time>2022-07-12T10:30:07Z</time>
      </trkpt>
      <trkpt lat="44.43355" lon="2.94289">
        <ele>603.2</ele>
        <time>2022-07-12T10:30:09Z</time>
      </trkpt>
      <trkpt lat="44.43335" lon="2.94275">
        <ele>603.2</ele>
        <time>2022-07-12T10:30:14Z</time>
      </trkpt>
      <trkpt lat="44.43324" lon="2.94268">
        <ele>603.2</ele>
        <time>2022-07-12T10:30:17Z</time>
      </trkpt>
      <trkpt lat="44.43315" lon="2.94268">
        <ele>603.4</ele>
        <time>2022-07-12T10:30:19Z</time>
      </trkpt>
      <trkpt lat="44.43306" lon="2.9427">
        <ele>603.4</ele>
        <time>2022-07-12T10:30:21Z</time>
      </trkpt>
      <trkpt lat="44.43295" lon="2.94277">
        <ele>603.4</ele>
        <time>2022-07-12T10:30:24Z</time>
      </trkpt>
      <trkpt lat="44.43278" lon="2.9428">
        <ele>603.8</ele>
        <time>2022-07-12T10:30:29Z</time>
      </trkpt>
      <trkpt lat="44.43268" lon="2.94273">
        <ele>604</ele>
        <time>2022-07-12T10:30:32Z</time>
      </trkpt>
      <trkpt lat="44.4326" lon="2.94269">
        <ele>604.4</ele>
        <time>2022-07-12T10:30:35Z</time>
      </trkpt>
      <trkpt lat="44.4325" lon="2.9426">
        <ele>605</ele>
        <time>2022-07-12T10:30:40Z</time>
      </trkpt>
      <trkpt lat="44.43245" lon="2.94257">
        <ele>605</ele>
        <time>2022-07-12T10:30:42Z</time>
      </trkpt>
      <trkpt lat="44.43241" lon="2.94254">
        <ele>605.2</ele>
        <time>2022-07-12T10:30:44Z</time>
      </trkpt>
      <trkpt lat="44.43236" lon="2.9425">
        <ele>605.2</ele>
        <time>2022-07-12T10:30:47Z</time>
      </trkpt>
      <trkpt lat="44.43224" lon="2.94239">
        <ele>605.8</ele>
        <time>2022-07-12T10:30:54Z</time>
      </trkpt>
      <trkpt lat="44.43218" lon="2.94229">
        <ele>606.2</ele>
        <time>2022-07-12T10:30:59Z</time>
      </trkpt>
      <trkpt lat="44.43216" lon="2.94227">
        <ele>606.2</ele>
        <time>2022-07-12T10:31:00Z</time>
      </trkpt>
      <trkpt lat="44.43208" lon="2.94219">
        <ele>606.6</ele>
        <time>2022-07-12T10:31:04Z</time>
      </trkpt>
      <trkpt lat="44.43206" lon="2.94217">
        <ele>606.6</ele>
        <time>2022-07-12T10:31:05Z</time>
      </trkpt>
      <trkpt lat="44.43197" lon="2.94203">
        <ele>606.8</ele>
        <time>2022-07-12T10:31:11Z</time>
      </trkpt>
      <trkpt lat="44.43189" lon="2.94192">
        <ele>607.2</ele>
        <time>2022-07-12T10:31:16Z</time>
      </trkpt>
      <trkpt lat="44.43186" lon="2.94184">
        <ele>607.4</ele>
        <time>2022-07-12T10:31:19Z</time>
      </trkpt>
      <trkpt lat="44.43178" lon="2.94166">
        <ele>607.8</ele>
        <time>2022-07-12T10:31:26Z</time>
      </trkpt>
      <trkpt lat="44.43175" lon="2.94161">
        <ele>608</ele>
        <time>2022-07-12T10:31:28Z</time>
      </trkpt>
      <trkpt lat="44.43171" lon="2.94148">
        <ele>608.2</ele>
        <time>2022-07-12T10:31:33Z</time>
      </trkpt>
      <trkpt lat="44.4317" lon="2.94144">
        <ele>608.2</ele>
        <time>2022-07-12T10:31:35Z</time>
      </trkpt>
      <trkpt lat="44.43161" lon="2.94125">
        <ele>608.6</ele>
        <time>2022-07-12T10:31:44Z</time>
      </trkpt>
      <trkpt lat="44.43156" lon="2.9411">
        <ele>609</ele>
        <time>2022-07-12T10:31:51Z</time>
      </trkpt>
      <trkpt lat="44.43152" lon="2.94104">
        <ele>609.4</ele>
        <time>2022-07-12T10:31:54Z</time>
      </trkpt>
      <trkpt lat="44.43149" lon="2.94098">
        <ele>609.6</ele>
        <time>2022-07-12T10:31:57Z</time>
      </trkpt>
      <trkpt lat="44.43149" lon="2.94096">
        <ele>609.8</ele>
        <time>2022-07-12T10:31:58Z</time>
      </trkpt>
      <trkpt lat="44.43146" lon="2.94088">
        <ele>610.4</ele>
        <time>2022-07-12T10:32:02Z</time>
      </trkpt>
      <trkpt lat="44.43144" lon="2.9408">
        <ele>611</ele>
        <time>2022-07-12T10:32:06Z</time>
      </trkpt>
      <trkpt lat="44.43143" lon="2.94078">
        <ele>611.2</ele>
        <time>2022-07-12T10:32:07Z</time>
      </trkpt>
      <trkpt lat="44.43141" lon="2.94074">
        <ele>611.6</ele>
        <time>2022-07-12T10:32:10Z</time>
      </trkpt>
      <trkpt lat="44.43135" lon="2.94067">
        <ele>612.2</ele>
        <time>2022-07-12T10:32:15Z</time>
      </trkpt>
      <trkpt lat="44.43132" lon="2.94067">
        <ele>612.6</ele>
        <time>2022-07-12T10:32:17Z</time>
      </trkpt>
      <trkpt lat="44.43121" lon="2.9407">
        <ele>613.6</ele>
        <time>2022-07-12T10:32:24Z</time>
      </trkpt>
      <trkpt lat="44.43119" lon="2.9407">
        <ele>613.6</ele>
        <time>2022-07-12T10:32:25Z</time>
      </trkpt>
      <trkpt lat="44.43113" lon="2.9408">
        <ele>614.4</ele>
        <time>2022-07-12T10:32:30Z</time>
      </trkpt>
      <trkpt lat="44.4311" lon="2.94086">
        <ele>614.8</ele>
        <time>2022-07-12T10:32:33Z</time>
      </trkpt>
      <trkpt lat="44.43108" lon="2.94092">
        <ele>615</ele>
        <time>2022-07-12T10:32:36Z</time>
      </trkpt>
      <trkpt lat="44.43105" lon="2.94106">
        <ele>615.8</ele>
        <time>2022-07-12T10:32:42Z</time>
      </trkpt>
      <trkpt lat="44.43103" lon="2.9411">
        <ele>616</ele>
        <time>2022-07-12T10:32:44Z</time>
      </trkpt>
      <trkpt lat="44.431" lon="2.94123">
        <ele>616.4</ele>
        <time>2022-07-12T10:32:50Z</time>
      </trkpt>
      <trkpt lat="44.43098" lon="2.9413">
        <ele>616.6</ele>
        <time>2022-07-12T10:32:53Z</time>
      </trkpt>
      <trkpt lat="44.43094" lon="2.94143">
        <ele>617.6</ele>
        <time>2022-07-12T10:32:59Z</time>
      </trkpt>
      <trkpt lat="44.43093" lon="2.94146">
        <ele>617.8</ele>
        <time>2022-07-12T10:33:00Z</time>
      </trkpt>
      <trkpt lat="44.43089" lon="2.94162">
        <ele>618</ele>
        <time>2022-07-12T10:33:07Z</time>
      </trkpt>
      <trkpt lat="44.43086" lon="2.94172">
        <ele>618.8</ele>
        <time>2022-07-12T10:33:12Z</time>
      </trkpt>
      <trkpt lat="44.43083" lon="2.94182">
        <ele>619.2</ele>
        <time>2022-07-12T10:33:16Z</time>
      </trkpt>
      <trkpt lat="44.4308" lon="2.94193">
        <ele>619.8</ele>
        <time>2022-07-12T10:33:21Z</time>
      </trkpt>
      <trkpt lat="44.43078" lon="2.94204">
        <ele>620.6</ele>
        <time>2022-07-12T10:33:26Z</time>
      </trkpt>
      <trkpt lat="44.43077" lon="2.94208">
        <ele>620.8</ele>
        <time>2022-07-12T10:33:28Z</time>
      </trkpt>
      <trkpt lat="44.43075" lon="2.94218">
        <ele>621.8</ele>
        <time>2022-07-12T10:33:33Z</time>
      </trkpt>
      <trkpt lat="44.43074" lon="2.94223">
        <ele>622</ele>
        <time>2022-07-12T10:33:35Z</time>
      </trkpt>
      <trkpt lat="44.4307" lon="2.94232">
        <ele>622.8</ele>
        <time>2022-07-12T10:33:40Z</time>
      </trkpt>
      <trkpt lat="44.43069" lon="2.94236">
        <ele>623</ele>
        <time>2022-07-12T10:33:42Z</time>
      </trkpt>
      <trkpt lat="44.43069" lon="2.9424">
        <ele>623.4</ele>
        <time>2022-07-12T10:33:44Z</time>
      </trkpt>
      <trkpt lat="44.43068" lon="2.94245">
        <ele>624</ele>
        <time>2022-07-12T10:33:47Z</time>
      </trkpt>
      <trkpt lat="44.43069" lon="2.94247">
        <ele>624.2</ele>
        <time>2022-07-12T10:33:48Z</time>
      </trkpt>
      <trkpt lat="44.43067" lon="2.94253">
        <ele>624.8</ele>
        <time>2022-07-12T10:33:52Z</time>
      </trkpt>
      <trkpt lat="44.43066" lon="2.94257">
        <ele>625.2</ele>
        <time>2022-07-12T10:33:54Z</time>
      </trkpt>
      <trkpt lat="44.43061" lon="2.94262">
        <ele>626.4</ele>
        <time>2022-07-12T10:33:58Z</time>
      </trkpt>
      <trkpt lat="44.4306" lon="2.94263">
        <ele>626.6</ele>
        <time>2022-07-12T10:33:59Z</time>
      </trkpt>
      <trkpt lat="44.43049" lon="2.94265">
        <ele>627.4</ele>
        <time>2022-07-12T10:34:06Z</time>
      </trkpt>
      <trkpt lat="44.43045" lon="2.94259">
        <ele>628.6</ele>
        <time>2022-07-12T10:34:10Z</time>
      </trkpt>
      <trkpt lat="44.43041" lon="2.94253">
        <ele>629.4</ele>
        <time>2022-07-12T10:34:15Z</time>
      </trkpt>
      <trkpt lat="44.4304" lon="2.94252">
        <ele>629.8</ele>
        <time>2022-07-12T10:34:16Z</time>
      </trkpt>
      <trkpt lat="44.43036" lon="2.94244">
        <ele>630.6</ele>
        <time>2022-07-12T10:34:22Z</time>
      </trkpt>
      <trkpt lat="44.43035" lon="2.94242">
        <ele>630.8</ele>
        <time>2022-07-12T10:34:24Z</time>
      </trkpt>
      <trkpt lat="44.43034" lon="2.94241">
        <ele>631.2</ele>
        <time>2022-07-12T10:34:25Z</time>
      </trkpt>
      <trkpt lat="44.43033" lon="2.94238">
        <ele>631.4</ele>
        <time>2022-07-12T10:34:27Z</time>
      </trkpt>
      <trkpt lat="44.43031" lon="2.94236">
        <ele>631.8</ele>
        <time>2022-07-12T10:34:29Z</time>
      </trkpt>
      <trkpt lat="44.4303" lon="2.94235">
        <ele>632</ele>
        <time>2022-07-12T10:34:30Z</time>
      </trkpt>
      <trkpt lat="44.43024" lon="2.94225">
        <ele>632.6</ele>
        <time>2022-07-12T10:34:37Z</time>
      </trkpt>
      <trkpt lat="44.43024" lon="2.94224">
        <ele>632.8</ele>
        <time>2022-07-12T10:34:38Z</time>
      </trkpt>
      <trkpt lat="44.43021" lon="2.9422">
        <ele>633.2</ele>
        <time>2022-07-12T10:34:41Z</time>
      </trkpt>
      <trkpt lat="44.43018" lon="2.94217">
        <ele>634</ele>
        <time>2022-07-12T10:34:45Z</time>
      </trkpt>
      <trkpt lat="44.43011" lon="2.94205">
        <ele>635</ele>
        <time>2022-07-12T10:34:53Z</time>
      </trkpt>
      <trkpt lat="44.4301" lon="2.94203">
        <ele>635</ele>
        <time>2022-07-12T10:34:54Z</time>
      </trkpt>
      <trkpt lat="44.43002" lon="2.94189">
        <ele>636.2</ele>
        <time>2022-07-12T10:35:03Z</time>
      </trkpt>
      <trkpt lat="44.43002" lon="2.94188">
        <ele>636.2</ele>
        <time>2022-07-12T10:35:04Z</time>
      </trkpt>
      <trkpt lat="44.42997" lon="2.94178">
        <ele>637</ele>
        <time>2022-07-12T10:35:10Z</time>
      </trkpt>
      <trkpt lat="44.42996" lon="2.94177">
        <ele>637.2</ele>
        <time>2022-07-12T10:35:11Z</time>
      </trkpt>
      <trkpt lat="44.42996" lon="2.94175">
        <ele>637.2</ele>
        <time>2022-07-12T10:35:12Z</time>
      </trkpt>
      <trkpt lat="44.42994" lon="2.94171">
        <ele>637.8</ele>
        <time>2022-07-12T10:35:16Z</time>
      </trkpt>
      <trkpt lat="44.42993" lon="2.9417">
        <ele>638</ele>
        <time>2022-07-12T10:35:17Z</time>
      </trkpt>
      <trkpt lat="44.42994" lon="2.94168">
        <ele>638.4</ele>
        <time>2022-07-12T10:35:19Z</time>
      </trkpt>
      <trkpt lat="44.42995" lon="2.94165">
        <ele>638.6</ele>
        <time>2022-07-12T10:35:21Z</time>
      </trkpt>
      <trkpt lat="44.42995" lon="2.94163">
        <ele>638.8</ele>
        <time>2022-07-12T10:35:22Z</time>
      </trkpt>
      <trkpt lat="44.42996" lon="2.9416">
        <ele>639</ele>
        <time>2022-07-12T10:35:24Z</time>
      </trkpt>
      <trkpt lat="44.42996" lon="2.94159">
        <ele>639</ele>
        <time>2022-07-12T10:35:25Z</time>
      </trkpt>
      <trkpt lat="44.42988" lon="2.94156">
        <ele>639.6</ele>
        <time>2022-07-12T10:35:28Z</time>
      </trkpt>
      <trkpt lat="44.42985" lon="2.94153">
        <ele>640.2</ele>
        <time>2022-07-12T10:35:31Z</time>
      </trkpt>
      <trkpt lat="44.42984" lon="2.94151">
        <ele>640.6</ele>
        <time>2022-07-12T10:35:33Z</time>
      </trkpt>
      <trkpt lat="44.42983" lon="2.94148">
        <ele>641</ele>
        <time>2022-07-12T10:35:35Z</time>
      </trkpt>
      <trkpt lat="44.42981" lon="2.94145">
        <ele>641.6</ele>
        <time>2022-07-12T10:35:38Z</time>
      </trkpt>
      <trkpt lat="44.4298" lon="2.94145">
        <ele>641.8</ele>
        <time>2022-07-12T10:35:39Z</time>
      </trkpt>
      <trkpt lat="44.42976" lon="2.94138">
        <ele>642.6</ele>
        <time>2022-07-12T10:35:44Z</time>
      </trkpt>
      <trkpt lat="44.42976" lon="2.94137">
        <ele>643</ele>
        <time>2022-07-12T10:35:45Z</time>
      </trkpt>
      <trkpt lat="44.42974" lon="2.94134">
        <ele>643.4</ele>
        <time>2022-07-12T10:35:49Z</time>
      </trkpt>
      <trkpt lat="44.42972" lon="2.94129">
        <ele>644</ele>
        <time>2022-07-12T10:35:53Z</time>
      </trkpt>
      <trkpt lat="44.4297" lon="2.94125">
        <ele>644.4</ele>
        <time>2022-07-12T10:35:56Z</time>
      </trkpt>
      <trkpt lat="44.42967" lon="2.94122">
        <ele>644.6</ele>
        <time>2022-07-12T10:35:58Z</time>
      </trkpt>
      <trkpt lat="44.42962" lon="2.94116">
        <ele>645</ele>
        <time>2022-07-12T10:36:02Z</time>
      </trkpt>
      <trkpt lat="44.4296" lon="2.94112">
        <ele>645.6</ele>
        <time>2022-07-12T10:36:05Z</time>
      </trkpt>
      <trkpt lat="44.42958" lon="2.94109">
        <ele>645.8</ele>
        <time>2022-07-12T10:36:07Z</time>
      </trkpt>
      <trkpt lat="44.42957" lon="2.94107">
        <ele>646</ele>
        <time>2022-07-12T10:36:08Z</time>
      </trkpt>
      <trkpt lat="44.42954" lon="2.94103">
        <ele>646.4</ele>
        <time>2022-07-12T10:36:11Z</time>
      </trkpt>
      <trkpt lat="44.42951" lon="2.94097">
        <ele>647</ele>
        <time>2022-07-12T10:36:15Z</time>
      </trkpt>
      <trkpt lat="44.42948" lon="2.94092">
        <ele>647.6</ele>
        <time>2022-07-12T10:36:19Z</time>
      </trkpt>
      <trkpt lat="44.42946" lon="2.94089">
        <ele>648</ele>
        <time>2022-07-12T10:36:22Z</time>
      </trkpt>
      <trkpt lat="44.42945" lon="2.94088">
        <ele>648.2</ele>
        <time>2022-07-12T10:36:23Z</time>
      </trkpt>
      <trkpt lat="44.42945" lon="2.94087">
        <ele>648.6</ele>
        <time>2022-07-12T10:36:24Z</time>
      </trkpt>
      <trkpt lat="44.42943" lon="2.94082">
        <ele>649.2</ele>
        <time>2022-07-12T10:36:28Z</time>
      </trkpt>
      <trkpt lat="44.42942" lon="2.9408">
        <ele>649.4</ele>
        <time>2022-07-12T10:36:30Z</time>
      </trkpt>
      <trkpt lat="44.42942" lon="2.94079">
        <ele>649.6</ele>
        <time>2022-07-12T10:36:31Z</time>
      </trkpt>
      <trkpt lat="44.42941" lon="2.94078">
        <ele>649.8</ele>
        <time>2022-07-12T10:36:32Z</time>
      </trkpt>
      <trkpt lat="44.42941" lon="2.94076">
        <ele>650.2</ele>
        <time>2022-07-12T10:36:35Z</time>
      </trkpt>
      <trkpt lat="44.4294" lon="2.94074">
        <ele>650.2</ele>
        <time>2022-07-12T10:36:36Z</time>
      </trkpt>
      <trkpt lat="44.42936" lon="2.94068">
        <ele>651.4</ele>
        <time>2022-07-12T10:36:41Z</time>
      </trkpt>
      <trkpt lat="44.42933" lon="2.9406">
        <ele>652.2</ele>
        <time>2022-07-12T10:36:47Z</time>
      </trkpt>
      <trkpt lat="44.42933" lon="2.94059">
        <ele>652.6</ele>
        <time>2022-07-12T10:36:49Z</time>
      </trkpt>
      <trkpt lat="44.42929" lon="2.94055">
        <ele>653.2</ele>
        <time>2022-07-12T10:36:54Z</time>
      </trkpt>
      <trkpt lat="44.42929" lon="2.94055">
        <ele>653.8</ele>
        <time>2022-07-12T10:36:56Z</time>
      </trkpt>
      <trkpt lat="44.42929" lon="2.94055">
        <ele>653.8</ele>
        <time>2022-07-12T10:36:57Z</time>
      </trkpt>
      <trkpt lat="44.42928" lon="2.94055">
        <ele>654.2</ele>
        <time>2022-07-12T10:37:56Z</time>
      </trkpt>
      <trkpt lat="44.42928" lon="2.94056">
        <ele>654.2</ele>
        <time>2022-07-12T10:37:58Z</time>
      </trkpt>
      <trkpt lat="44.42928" lon="2.94057">
        <ele>654.2</ele>
        <time>2022-07-12T10:38:00Z</time>
      </trkpt>
      <trkpt lat="44.42928" lon="2.94057">
        <ele>654.2</ele>
        <time>2022-07-12T10:38:01Z</time>
      </trkpt>
      <trkpt lat="44.42929" lon="2.94059">
        <ele>653.8</ele>
        <time>2022-07-12T10:38:09Z</time>
      </trkpt>
      <trkpt lat="44.42927" lon="2.94064">
        <ele>654.2</ele>
        <time>2022-07-12T10:38:15Z</time>
      </trkpt>
      <trkpt lat="44.42926" lon="2.94068">
        <ele>655</ele>
        <time>2022-07-12T10:38:23Z</time>
      </trkpt>
      <trkpt lat="44.42926" lon="2.94068">
        <ele>655.2</ele>
        <time>2022-07-12T10:38:24Z</time>
      </trkpt>
      <trkpt lat="44.42926" lon="2.94069">
        <ele>655.2</ele>
        <time>2022-07-12T10:38:25Z</time>
      </trkpt>
      <trkpt lat="44.42925" lon="2.94071">
        <ele>655.6</ele>
        <time>2022-07-12T10:38:32Z</time>
      </trkpt>
      <trkpt lat="44.42925" lon="2.94072">
        <ele>656.4</ele>
        <time>2022-07-12T10:38:35Z</time>
      </trkpt>
      <trkpt lat="44.42925" lon="2.94072">
        <ele>656.4</ele>
        <time>2022-07-12T10:38:36Z</time>
      </trkpt>
      <trkpt lat="44.42923" lon="2.94078">
        <ele>656.6</ele>
        <time>2022-07-12T10:38:38Z</time>
      </trkpt>
      <trkpt lat="44.42922" lon="2.9408">
        <ele>656.8</ele>
        <time>2022-07-12T10:38:39Z</time>
      </trkpt>
      <trkpt lat="44.42921" lon="2.94082">
        <ele>656.8</ele>
        <time>2022-07-12T10:38:40Z</time>
      </trkpt>
      <trkpt lat="44.4292" lon="2.94086">
        <ele>657.2</ele>
        <time>2022-07-12T10:38:43Z</time>
      </trkpt>
      <trkpt lat="44.4292" lon="2.94086">
        <ele>657.4</ele>
        <time>2022-07-12T10:38:44Z</time>
      </trkpt>
      <trkpt lat="44.42919" lon="2.94087">
        <ele>657.8</ele>
        <time>2022-07-12T10:38:47Z</time>
      </trkpt>
      <trkpt lat="44.42919" lon="2.94092">
        <ele>658.2</ele>
        <time>2022-07-12T10:38:52Z</time>
      </trkpt>
      <trkpt lat="44.42919" lon="2.94099">
        <ele>658.2</ele>
        <time>2022-07-12T10:38:55Z</time>
      </trkpt>
      <trkpt lat="44.42919" lon="2.94104">
        <ele>658.2</ele>
        <time>2022-07-12T10:38:57Z</time>
      </trkpt>
      <trkpt lat="44.42923" lon="2.94114">
        <ele>658.4</ele>
        <time>2022-07-12T10:39:01Z</time>
      </trkpt>
      <trkpt lat="44.42924" lon="2.94117">
        <ele>658.4</ele>
        <time>2022-07-12T10:39:02Z</time>
      </trkpt>
      <trkpt lat="44.42925" lon="2.94121">
        <ele>658.4</ele>
        <time>2022-07-12T10:39:04Z</time>
      </trkpt>
      <trkpt lat="44.42927" lon="2.94132">
        <ele>658.6</ele>
        <time>2022-07-12T10:39:10Z</time>
      </trkpt>
      <trkpt lat="44.42926" lon="2.94135">
        <ele>658.4</ele>
        <time>2022-07-12T10:39:11Z</time>
      </trkpt>
      <trkpt lat="44.42925" lon="2.94138">
        <ele>658.4</ele>
        <time>2022-07-12T10:39:12Z</time>
      </trkpt>
      <trkpt lat="44.42924" lon="2.94146">
        <ele>658.4</ele>
        <time>2022-07-12T10:39:16Z</time>
      </trkpt>
      <trkpt lat="44.42921" lon="2.94158">
        <ele>658.6</ele>
        <time>2022-07-12T10:39:21Z</time>
      </trkpt>
      <trkpt lat="44.4292" lon="2.94162">
        <ele>658.8</ele>
        <time>2022-07-12T10:39:23Z</time>
      </trkpt>
      <trkpt lat="44.42919" lon="2.94166">
        <ele>658.8</ele>
        <time>2022-07-12T10:39:25Z</time>
      </trkpt>
      <trkpt lat="44.42918" lon="2.94168">
        <ele>659</ele>
        <time>2022-07-12T10:39:26Z</time>
      </trkpt>
      <trkpt lat="44.42918" lon="2.94181">
        <ele>659.4</ele>
        <time>2022-07-12T10:39:30Z</time>
      </trkpt>
      <trkpt lat="44.42919" lon="2.94189">
        <ele>659.6</ele>
        <time>2022-07-12T10:39:33Z</time>
      </trkpt>
      <trkpt lat="44.42918" lon="2.94193">
        <ele>659.8</ele>
        <time>2022-07-12T10:39:35Z</time>
      </trkpt>
      <trkpt lat="44.42916" lon="2.94201">
        <ele>660.2</ele>
        <time>2022-07-12T10:39:39Z</time>
      </trkpt>
      <trkpt lat="44.42913" lon="2.94209">
        <ele>660.8</ele>
        <time>2022-07-12T10:39:43Z</time>
      </trkpt>
      <trkpt lat="44.42911" lon="2.94213">
        <ele>661</ele>
        <time>2022-07-12T10:39:45Z</time>
      </trkpt>
      <trkpt lat="44.42911" lon="2.94213">
        <ele>661.2</ele>
        <time>2022-07-12T10:39:46Z</time>
      </trkpt>
      <trkpt lat="44.42911" lon="2.94216">
        <ele>661.8</ele>
        <time>2022-07-12T10:39:48Z</time>
      </trkpt>
      <trkpt lat="44.42911" lon="2.94219">
        <ele>661.8</ele>
        <time>2022-07-12T10:39:49Z</time>
      </trkpt>
      <trkpt lat="44.4291" lon="2.94223">
        <ele>662.4</ele>
        <time>2022-07-12T10:39:52Z</time>
      </trkpt>
      <trkpt lat="44.4291" lon="2.94227">
        <ele>662.6</ele>
        <time>2022-07-12T10:39:54Z</time>
      </trkpt>
      <trkpt lat="44.42908" lon="2.94237">
        <ele>663.4</ele>
        <time>2022-07-12T10:39:59Z</time>
      </trkpt>
      <trkpt lat="44.42907" lon="2.94242">
        <ele>664.2</ele>
        <time>2022-07-12T10:40:02Z</time>
      </trkpt>
      <trkpt lat="44.42907" lon="2.94246">
        <ele>664.4</ele>
        <time>2022-07-12T10:40:03Z</time>
      </trkpt>
      <trkpt lat="44.42905" lon="2.94251">
        <ele>664.6</ele>
        <time>2022-07-12T10:40:05Z</time>
      </trkpt>
      <trkpt lat="44.42905" lon="2.94254">
        <ele>664.8</ele>
        <time>2022-07-12T10:40:06Z</time>
      </trkpt>
      <trkpt lat="44.42905" lon="2.94256">
        <ele>665</ele>
        <time>2022-07-12T10:40:07Z</time>
      </trkpt>
      <trkpt lat="44.42902" lon="2.94261">
        <ele>665.4</ele>
        <time>2022-07-12T10:40:09Z</time>
      </trkpt>
      <trkpt lat="44.42901" lon="2.94264">
        <ele>665.6</ele>
        <time>2022-07-12T10:40:10Z</time>
      </trkpt>
      <trkpt lat="44.42902" lon="2.94267">
        <ele>665.8</ele>
        <time>2022-07-12T10:40:11Z</time>
      </trkpt>
      <trkpt lat="44.42901" lon="2.94275">
        <ele>666.2</ele>
        <time>2022-07-12T10:40:15Z</time>
      </trkpt>
      <trkpt lat="44.429" lon="2.94277">
        <ele>666.2</ele>
        <time>2022-07-12T10:40:16Z</time>
      </trkpt>
      <trkpt lat="44.429" lon="2.94279">
        <ele>666.4</ele>
        <time>2022-07-12T10:40:17Z</time>
      </trkpt>
      <trkpt lat="44.42899" lon="2.94289">
        <ele>667</ele>
        <time>2022-07-12T10:40:22Z</time>
      </trkpt>
      <trkpt lat="44.429" lon="2.94292">
        <ele>667</ele>
        <time>2022-07-12T10:40:23Z</time>
      </trkpt>
      <trkpt lat="44.429" lon="2.943">
        <ele>667.4</ele>
        <time>2022-07-12T10:40:26Z</time>
      </trkpt>
      <trkpt lat="44.429" lon="2.94305">
        <ele>667.8</ele>
        <time>2022-07-12T10:40:28Z</time>
      </trkpt>
      <trkpt lat="44.42902" lon="2.94315">
        <ele>668</ele>
        <time>2022-07-12T10:40:34Z</time>
      </trkpt>
      <trkpt lat="44.42902" lon="2.94322">
        <ele>668.2</ele>
        <time>2022-07-12T10:40:36Z</time>
      </trkpt>
      <trkpt lat="44.42903" lon="2.94326">
        <ele>668.4</ele>
        <time>2022-07-12T10:40:37Z</time>
      </trkpt>
      <trkpt lat="44.42904" lon="2.94328">
        <ele>668.6</ele>
        <time>2022-07-12T10:40:38Z</time>
      </trkpt>
      <trkpt lat="44.42904" lon="2.9434">
        <ele>668.8</ele>
        <time>2022-07-12T10:40:42Z</time>
      </trkpt>
      <trkpt lat="44.42906" lon="2.94349">
        <ele>669</ele>
        <time>2022-07-12T10:40:45Z</time>
      </trkpt>
      <trkpt lat="44.42907" lon="2.94353">
        <ele>669.4</ele>
        <time>2022-07-12T10:40:46Z</time>
      </trkpt>
      <trkpt lat="44.42907" lon="2.94356">
        <ele>669.4</ele>
        <time>2022-07-12T10:40:47Z</time>
      </trkpt>
      <trkpt lat="44.42907" lon="2.94359">
        <ele>669.6</ele>
        <time>2022-07-12T10:40:48Z</time>
      </trkpt>
      <trkpt lat="44.42908" lon="2.9436">
        <ele>669.8</ele>
        <time>2022-07-12T10:40:49Z</time>
      </trkpt>
      <trkpt lat="44.42908" lon="2.94362">
        <ele>669.8</ele>
        <time>2022-07-12T10:40:50Z</time>
      </trkpt>
      <trkpt lat="44.42911" lon="2.94366">
        <ele>670.4</ele>
        <time>2022-07-12T10:40:54Z</time>
      </trkpt>
      <trkpt lat="44.42911" lon="2.94368">
        <ele>670.6</ele>
        <time>2022-07-12T10:40:55Z</time>
      </trkpt>
      <trkpt lat="44.42912" lon="2.94373">
        <ele>670.8</ele>
        <time>2022-07-12T10:40:57Z</time>
      </trkpt>
      <trkpt lat="44.42913" lon="2.94378">
        <ele>671</ele>
        <time>2022-07-12T10:40:59Z</time>
      </trkpt>
      <trkpt lat="44.42912" lon="2.94381">
        <ele>671.2</ele>
        <time>2022-07-12T10:41:00Z</time>
      </trkpt>
      <trkpt lat="44.42913" lon="2.94383">
        <ele>671.4</ele>
        <time>2022-07-12T10:41:02Z</time>
      </trkpt>
      <trkpt lat="44.42913" lon="2.94384">
        <ele>672.6</ele>
        <time>2022-07-12T10:41:06Z</time>
      </trkpt>
      <trkpt lat="44.42913" lon="2.94385">
        <ele>672.8</ele>
        <time>2022-07-12T10:41:07Z</time>
      </trkpt>
      <trkpt lat="44.42913" lon="2.94392">
        <ele>673.6</ele>
        <time>2022-07-12T10:41:10Z</time>
      </trkpt>
      <trkpt lat="44.42913" lon="2.94395">
        <ele>673.8</ele>
        <time>2022-07-12T10:41:11Z</time>
      </trkpt>
      <trkpt lat="44.42913" lon="2.94399">
        <ele>674.4</ele>
        <time>2022-07-12T10:41:13Z</time>
      </trkpt>
      <trkpt lat="44.42913" lon="2.94401">
        <ele>674.6</ele>
        <time>2022-07-12T10:41:15Z</time>
      </trkpt>
      <trkpt lat="44.42912" lon="2.94403">
        <ele>675</ele>
        <time>2022-07-12T10:41:16Z</time>
      </trkpt>
      <trkpt lat="44.42911" lon="2.94403">
        <ele>675</ele>
        <time>2022-07-12T10:41:17Z</time>
      </trkpt>
      <trkpt lat="44.42911" lon="2.94405">
        <ele>675.8</ele>
        <time>2022-07-12T10:41:19Z</time>
      </trkpt>
      <trkpt lat="44.4291" lon="2.94406">
        <ele>675.8</ele>
        <time>2022-07-12T10:41:20Z</time>
      </trkpt>
      <trkpt lat="44.4291" lon="2.94414">
        <ele>676.4</ele>
        <time>2022-07-12T10:41:23Z</time>
      </trkpt>
      <trkpt lat="44.42908" lon="2.94421">
        <ele>676.8</ele>
        <time>2022-07-12T10:41:26Z</time>
      </trkpt>
      <trkpt lat="44.42907" lon="2.94426">
        <ele>678</ele>
        <time>2022-07-12T10:41:30Z</time>
      </trkpt>
      <trkpt lat="44.42907" lon="2.94428">
        <ele>678.2</ele>
        <time>2022-07-12T10:41:31Z</time>
      </trkpt>
      <trkpt lat="44.42907" lon="2.94431">
        <ele>678.2</ele>
        <time>2022-07-12T10:41:32Z</time>
      </trkpt>
      <trkpt lat="44.42907" lon="2.94439">
        <ele>679.2</ele>
        <time>2022-07-12T10:41:36Z</time>
      </trkpt>
      <trkpt lat="44.42906" lon="2.94441">
        <ele>679.4</ele>
        <time>2022-07-12T10:41:37Z</time>
      </trkpt>
      <trkpt lat="44.42905" lon="2.94444">
        <ele>680</ele>
        <time>2022-07-12T10:41:39Z</time>
      </trkpt>
      <trkpt lat="44.42902" lon="2.94447">
        <ele>680</ele>
        <time>2022-07-12T10:41:41Z</time>
      </trkpt>
      <trkpt lat="44.429" lon="2.9445">
        <ele>680.6</ele>
        <time>2022-07-12T10:41:43Z</time>
      </trkpt>
      <trkpt lat="44.42898" lon="2.94453">
        <ele>681.2</ele>
        <time>2022-07-12T10:41:46Z</time>
      </trkpt>
      <trkpt lat="44.42897" lon="2.94454">
        <ele>681.4</ele>
        <time>2022-07-12T10:41:47Z</time>
      </trkpt>
      <trkpt lat="44.42895" lon="2.94457">
        <ele>682</ele>
        <time>2022-07-12T10:41:50Z</time>
      </trkpt>
      <trkpt lat="44.42895" lon="2.94457">
        <ele>682.2</ele>
        <time>2022-07-12T10:41:51Z</time>
      </trkpt>
      <trkpt lat="44.42891" lon="2.94459">
        <ele>683.4</ele>
        <time>2022-07-12T10:41:55Z</time>
      </trkpt>
      <trkpt lat="44.4289" lon="2.9446">
        <ele>683.4</ele>
        <time>2022-07-12T10:41:56Z</time>
      </trkpt>
      <trkpt lat="44.42884" lon="2.94463">
        <ele>684.4</ele>
        <time>2022-07-12T10:42:01Z</time>
      </trkpt>
      <trkpt lat="44.42881" lon="2.94465">
        <ele>684.8</ele>
        <time>2022-07-12T10:42:03Z</time>
      </trkpt>
      <trkpt lat="44.4288" lon="2.94466">
        <ele>685</ele>
        <time>2022-07-12T10:42:05Z</time>
      </trkpt>
      <trkpt lat="44.42877" lon="2.94467">
        <ele>685.4</ele>
        <time>2022-07-12T10:42:08Z</time>
      </trkpt>
      <trkpt lat="44.42872" lon="2.94471">
        <ele>686.2</ele>
        <time>2022-07-12T10:42:16Z</time>
      </trkpt>
      <trkpt lat="44.42869" lon="2.94473">
        <ele>686.6</ele>
        <time>2022-07-12T10:42:18Z</time>
      </trkpt>
      <trkpt lat="44.42864" lon="2.94476">
        <ele>686.8</ele>
        <time>2022-07-12T10:42:23Z</time>
      </trkpt>
      <trkpt lat="44.42859" lon="2.9448">
        <ele>687.6</ele>
        <time>2022-07-12T10:42:28Z</time>
      </trkpt>
      <trkpt lat="44.42857" lon="2.94482">
        <ele>687.8</ele>
        <time>2022-07-12T10:42:31Z</time>
      </trkpt>
      <trkpt lat="44.42857" lon="2.94482">
        <ele>688.2</ele>
        <time>2022-07-12T10:42:34Z</time>
      </trkpt>
      <trkpt lat="44.42854" lon="2.94484">
        <ele>688.6</ele>
        <time>2022-07-12T10:42:36Z</time>
      </trkpt>
      <trkpt lat="44.42853" lon="2.94484">
        <ele>689</ele>
        <time>2022-07-12T10:42:40Z</time>
      </trkpt>
      <trkpt lat="44.42853" lon="2.94485">
        <ele>689.6</ele>
        <time>2022-07-12T10:42:41Z</time>
      </trkpt>
      <trkpt lat="44.42843" lon="2.94493">
        <ele>690.8</ele>
        <time>2022-07-12T10:42:48Z</time>
      </trkpt>
      <trkpt lat="44.42841" lon="2.94494">
        <ele>690.8</ele>
        <time>2022-07-12T10:42:49Z</time>
      </trkpt>
      <trkpt lat="44.4284" lon="2.94495">
        <ele>692</ele>
        <time>2022-07-12T10:42:54Z</time>
      </trkpt>
      <trkpt lat="44.42839" lon="2.94496">
        <ele>692.2</ele>
        <time>2022-07-12T10:42:57Z</time>
      </trkpt>
      <trkpt lat="44.42831" lon="2.94503">
        <ele>693</ele>
        <time>2022-07-12T10:43:04Z</time>
      </trkpt>
      <trkpt lat="44.42827" lon="2.94507">
        <ele>694.2</ele>
        <time>2022-07-12T10:43:08Z</time>
      </trkpt>
      <trkpt lat="44.4282" lon="2.94512">
        <ele>695.4</ele>
        <time>2022-07-12T10:43:12Z</time>
      </trkpt>
      <trkpt lat="44.42815" lon="2.94515">
        <ele>696.2</ele>
        <time>2022-07-12T10:43:17Z</time>
      </trkpt>
      <trkpt lat="44.42814" lon="2.94516">
        <ele>696.8</ele>
        <time>2022-07-12T10:43:19Z</time>
      </trkpt>
      <trkpt lat="44.42809" lon="2.9452">
        <ele>697</ele>
        <time>2022-07-12T10:43:21Z</time>
      </trkpt>
      <trkpt lat="44.42807" lon="2.94522">
        <ele>697.2</ele>
        <time>2022-07-12T10:43:22Z</time>
      </trkpt>
      <trkpt lat="44.42805" lon="2.94525">
        <ele>697.8</ele>
        <time>2022-07-12T10:43:24Z</time>
      </trkpt>
      <trkpt lat="44.42805" lon="2.94525">
        <ele>698.4</ele>
        <time>2022-07-12T10:43:26Z</time>
      </trkpt>
      <trkpt lat="44.42805" lon="2.94525">
        <ele>698.6</ele>
        <time>2022-07-12T10:43:27Z</time>
      </trkpt>
      <trkpt lat="44.42802" lon="2.94527">
        <ele>699.6</ele>
        <time>2022-07-12T10:43:31Z</time>
      </trkpt>
      <trkpt lat="44.42795" lon="2.94533">
        <ele>700</ele>
        <time>2022-07-12T10:43:35Z</time>
      </trkpt>
      <trkpt lat="44.42783" lon="2.9454">
        <ele>700.4</ele>
        <time>2022-07-12T10:43:42Z</time>
      </trkpt>
      <trkpt lat="44.42776" lon="2.94546">
        <ele>700.6</ele>
        <time>2022-07-12T10:43:45Z</time>
      </trkpt>
      <trkpt lat="44.4277" lon="2.94549">
        <ele>700.8</ele>
        <time>2022-07-12T10:43:48Z</time>
      </trkpt>
      <trkpt lat="44.42768" lon="2.9455">
        <ele>701.2</ele>
        <time>2022-07-12T10:43:53Z</time>
      </trkpt>
      <trkpt lat="44.42767" lon="2.94551">
        <ele>701.2</ele>
        <time>2022-07-12T10:43:54Z</time>
      </trkpt>
      <trkpt lat="44.42763" lon="2.94553">
        <ele>701.6</ele>
        <time>2022-07-12T10:43:56Z</time>
      </trkpt>
      <trkpt lat="44.42759" lon="2.94556">
        <ele>701.6</ele>
        <time>2022-07-12T10:43:58Z</time>
      </trkpt>
      <trkpt lat="44.42757" lon="2.94557">
        <ele>701.8</ele>
        <time>2022-07-12T10:43:59Z</time>
      </trkpt>
      <trkpt lat="44.42756" lon="2.94558">
        <ele>701.8</ele>
        <time>2022-07-12T10:44:01Z</time>
      </trkpt>
      <trkpt lat="44.42748" lon="2.94561">
        <ele>702.8</ele>
        <time>2022-07-12T10:44:09Z</time>
      </trkpt>
      <trkpt lat="44.42746" lon="2.94562">
        <ele>703</ele>
        <time>2022-07-12T10:44:10Z</time>
      </trkpt>
      <trkpt lat="44.42727" lon="2.9457">
        <ele>703.4</ele>
        <time>2022-07-12T10:44:17Z</time>
      </trkpt>
      <trkpt lat="44.42725" lon="2.94572">
        <ele>703.6</ele>
        <time>2022-07-12T10:44:18Z</time>
      </trkpt>
      <trkpt lat="44.42717" lon="2.94574">
        <ele>704.6</ele>
        <time>2022-07-12T10:44:23Z</time>
      </trkpt>
      <trkpt lat="44.42716" lon="2.94575">
        <ele>704.8</ele>
        <time>2022-07-12T10:44:24Z</time>
      </trkpt>
      <trkpt lat="44.42707" lon="2.94581">
        <ele>705.8</ele>
        <time>2022-07-12T10:44:30Z</time>
      </trkpt>
      <trkpt lat="44.42704" lon="2.94584">
        <ele>706.2</ele>
        <time>2022-07-12T10:44:32Z</time>
      </trkpt>
      <trkpt lat="44.42695" lon="2.94593">
        <ele>706.8</ele>
        <time>2022-07-12T10:44:40Z</time>
      </trkpt>
      <trkpt lat="44.42692" lon="2.94596">
        <ele>706.8</ele>
        <time>2022-07-12T10:44:42Z</time>
      </trkpt>
      <trkpt lat="44.4269" lon="2.94598">
        <ele>707</ele>
        <time>2022-07-12T10:44:43Z</time>
      </trkpt>
      <trkpt lat="44.42687" lon="2.94601">
        <ele>707</ele>
        <time>2022-07-12T10:44:45Z</time>
      </trkpt>
      <trkpt lat="44.42685" lon="2.94601">
        <ele>707</ele>
        <time>2022-07-12T10:44:46Z</time>
      </trkpt>
      <trkpt lat="44.42672" lon="2.94601">
        <ele>707.8</ele>
        <time>2022-07-12T10:44:53Z</time>
      </trkpt>
      <trkpt lat="44.42669" lon="2.94602">
        <ele>708</ele>
        <time>2022-07-12T10:44:55Z</time>
      </trkpt>
      <trkpt lat="44.42668" lon="2.94604">
        <ele>708</ele>
        <time>2022-07-12T10:44:57Z</time>
      </trkpt>
      <trkpt lat="44.4266" lon="2.94608">
        <ele>708.2</ele>
        <time>2022-07-12T10:45:00Z</time>
      </trkpt>
      <trkpt lat="44.42655" lon="2.94609">
        <ele>708.4</ele>
        <time>2022-07-12T10:45:02Z</time>
      </trkpt>
      <trkpt lat="44.42646" lon="2.94611">
        <ele>708.8</ele>
        <time>2022-07-12T10:45:05Z</time>
      </trkpt>
      <trkpt lat="44.42644" lon="2.94612">
        <ele>708.8</ele>
        <time>2022-07-12T10:45:06Z</time>
      </trkpt>
      <trkpt lat="44.4264" lon="2.94615">
        <ele>709.4</ele>
        <time>2022-07-12T10:45:09Z</time>
      </trkpt>
      <trkpt lat="44.42634" lon="2.94617">
        <ele>709.6</ele>
        <time>2022-07-12T10:45:11Z</time>
      </trkpt>
      <trkpt lat="44.42633" lon="2.94617">
        <ele>709.8</ele>
        <time>2022-07-12T10:45:12Z</time>
      </trkpt>
      <trkpt lat="44.4263" lon="2.94618">
        <ele>710.2</ele>
        <time>2022-07-12T10:45:16Z</time>
      </trkpt>
      <trkpt lat="44.42628" lon="2.94619">
        <ele>710.4</ele>
        <time>2022-07-12T10:45:18Z</time>
      </trkpt>
      <trkpt lat="44.42626" lon="2.94621">
        <ele>710.6</ele>
        <time>2022-07-12T10:45:20Z</time>
      </trkpt>
      <trkpt lat="44.42623" lon="2.94622">
        <ele>711</ele>
        <time>2022-07-12T10:45:21Z</time>
      </trkpt>
      <trkpt lat="44.42616" lon="2.94625">
        <ele>711.8</ele>
        <time>2022-07-12T10:45:27Z</time>
      </trkpt>
      <trkpt lat="44.42613" lon="2.94628">
        <ele>712</ele>
        <time>2022-07-12T10:45:29Z</time>
      </trkpt>
      <trkpt lat="44.42612" lon="2.94628">
        <ele>712.2</ele>
        <time>2022-07-12T10:45:30Z</time>
      </trkpt>
      <trkpt lat="44.42609" lon="2.94629">
        <ele>712.4</ele>
        <time>2022-07-12T10:45:32Z</time>
      </trkpt>
      <trkpt lat="44.426" lon="2.94631">
        <ele>713</ele>
        <time>2022-07-12T10:45:37Z</time>
      </trkpt>
      <trkpt lat="44.426" lon="2.94631">
        <ele>713</ele>
        <time>2022-07-12T10:45:38Z</time>
      </trkpt>
      <trkpt lat="44.42587" lon="2.94637">
        <ele>714.2</ele>
        <time>2022-07-12T10:45:44Z</time>
      </trkpt>
      <trkpt lat="44.4258" lon="2.94641">
        <ele>714.4</ele>
        <time>2022-07-12T10:45:47Z</time>
      </trkpt>
      <trkpt lat="44.42565" lon="2.94645">
        <ele>714.8</ele>
        <time>2022-07-12T10:45:52Z</time>
      </trkpt>
      <trkpt lat="44.4256" lon="2.94647">
        <ele>715</ele>
        <time>2022-07-12T10:45:54Z</time>
      </trkpt>
      <trkpt lat="44.42558" lon="2.94647">
        <ele>715.4</ele>
        <time>2022-07-12T10:45:55Z</time>
      </trkpt>
      <trkpt lat="44.42555" lon="2.94648">
        <ele>715.6</ele>
        <time>2022-07-12T10:45:56Z</time>
      </trkpt>
      <trkpt lat="44.4254" lon="2.94653">
        <ele>716</ele>
        <time>2022-07-12T10:46:01Z</time>
      </trkpt>
      <trkpt lat="44.42533" lon="2.94654">
        <ele>716.4</ele>
        <time>2022-07-12T10:46:03Z</time>
      </trkpt>
      <trkpt lat="44.4252" lon="2.94655">
        <ele>717.4</ele>
        <time>2022-07-12T10:46:09Z</time>
      </trkpt>
      <trkpt lat="44.42506" lon="2.94656">
        <ele>718.2</ele>
        <time>2022-07-12T10:46:15Z</time>
      </trkpt>
      <trkpt lat="44.42504" lon="2.94657">
        <ele>718.2</ele>
        <time>2022-07-12T10:46:16Z</time>
      </trkpt>
      <trkpt lat="44.42501" lon="2.94658">
        <ele>718.4</ele>
        <time>2022-07-12T10:46:18Z</time>
      </trkpt>
      <trkpt lat="44.42491" lon="2.94655">
        <ele>719.4</ele>
        <time>2022-07-12T10:46:23Z</time>
      </trkpt>
      <trkpt lat="44.4249" lon="2.94655">
        <ele>719.4</ele>
        <time>2022-07-12T10:46:24Z</time>
      </trkpt>
      <trkpt lat="44.42477" lon="2.94655">
        <ele>720.2</ele>
        <time>2022-07-12T10:46:31Z</time>
      </trkpt>
      <trkpt lat="44.42472" lon="2.94652">
        <ele>720.6</ele>
        <time>2022-07-12T10:46:34Z</time>
      </trkpt>
      <trkpt lat="44.42469" lon="2.94652">
        <ele>720.8</ele>
        <time>2022-07-12T10:46:36Z</time>
      </trkpt>
      <trkpt lat="44.42463" lon="2.94653">
        <ele>721.2</ele>
        <time>2022-07-12T10:46:39Z</time>
      </trkpt>
      <trkpt lat="44.42459" lon="2.94654">
        <ele>721.6</ele>
        <time>2022-07-12T10:46:41Z</time>
      </trkpt>
      <trkpt lat="44.42455" lon="2.94655">
        <ele>721.6</ele>
        <time>2022-07-12T10:46:42Z</time>
      </trkpt>
      <trkpt lat="44.42445" lon="2.9466">
        <ele>722.6</ele>
        <time>2022-07-12T10:46:47Z</time>
      </trkpt>
      <trkpt lat="44.42443" lon="2.9466">
        <ele>722.8</ele>
        <time>2022-07-12T10:46:48Z</time>
      </trkpt>
      <trkpt lat="44.42434" lon="2.94665">
        <ele>723.2</ele>
        <time>2022-07-12T10:46:53Z</time>
      </trkpt>
      <trkpt lat="44.42433" lon="2.94666">
        <ele>723.4</ele>
        <time>2022-07-12T10:46:54Z</time>
      </trkpt>
      <trkpt lat="44.42425" lon="2.9467">
        <ele>723.8</ele>
        <time>2022-07-12T10:46:57Z</time>
      </trkpt>
      <trkpt lat="44.42414" lon="2.94674">
        <ele>724.6</ele>
        <time>2022-07-12T10:47:02Z</time>
      </trkpt>
      <trkpt lat="44.42411" lon="2.94675">
        <ele>724.8</ele>
        <time>2022-07-12T10:47:03Z</time>
      </trkpt>
      <trkpt lat="44.42393" lon="2.94678">
        <ele>725.8</ele>
        <time>2022-07-12T10:47:11Z</time>
      </trkpt>
      <trkpt lat="44.4239" lon="2.94678">
        <ele>726</ele>
        <time>2022-07-12T10:47:12Z</time>
      </trkpt>
      <trkpt lat="44.42382" lon="2.94675">
        <ele>726.8</ele>
        <time>2022-07-12T10:47:17Z</time>
      </trkpt>
      <trkpt lat="44.42381" lon="2.94673">
        <ele>726.8</ele>
        <time>2022-07-12T10:47:18Z</time>
      </trkpt>
      <trkpt lat="44.42376" lon="2.94665">
        <ele>727.6</ele>
        <time>2022-07-12T10:47:22Z</time>
      </trkpt>
      <trkpt lat="44.42371" lon="2.9466">
        <ele>728</ele>
        <time>2022-07-12T10:47:25Z</time>
      </trkpt>
      <trkpt lat="44.42364" lon="2.94655">
        <ele>728.6</ele>
        <time>2022-07-12T10:47:28Z</time>
      </trkpt>
      <trkpt lat="44.42363" lon="2.94655">
        <ele>728.8</ele>
        <time>2022-07-12T10:47:29Z</time>
      </trkpt>
      <trkpt lat="44.42361" lon="2.94655">
        <ele>729</ele>
        <time>2022-07-12T10:47:30Z</time>
      </trkpt>
      <trkpt lat="44.42351" lon="2.94653">
        <ele>730</ele>
        <time>2022-07-12T10:47:36Z</time>
      </trkpt>
      <trkpt lat="44.42351" lon="2.94653">
        <ele>730.2</ele>
        <time>2022-07-12T10:47:37Z</time>
      </trkpt>
      <trkpt lat="44.42347" lon="2.94654">
        <ele>730.4</ele>
        <time>2022-07-12T10:47:39Z</time>
      </trkpt>
      <trkpt lat="44.42338" lon="2.94656">
        <ele>730.6</ele>
        <time>2022-07-12T10:47:42Z</time>
      </trkpt>
      <trkpt lat="44.42322" lon="2.94657">
        <ele>731</ele>
        <time>2022-07-12T10:47:48Z</time>
      </trkpt>
      <trkpt lat="44.42305" lon="2.9466">
        <ele>732</ele>
        <time>2022-07-12T10:47:53Z</time>
      </trkpt>
      <trkpt lat="44.42303" lon="2.9466">
        <ele>732.2</ele>
        <time>2022-07-12T10:47:54Z</time>
      </trkpt>
      <trkpt lat="44.423" lon="2.9466">
        <ele>732.4</ele>
        <time>2022-07-12T10:47:55Z</time>
      </trkpt>
      <trkpt lat="44.42293" lon="2.94661">
        <ele>733.2</ele>
        <time>2022-07-12T10:47:58Z</time>
      </trkpt>
      <trkpt lat="44.42281" lon="2.9466">
        <ele>734</ele>
        <time>2022-07-12T10:48:04Z</time>
      </trkpt>
      <trkpt lat="44.42278" lon="2.94659">
        <ele>734.2</ele>
        <time>2022-07-12T10:48:06Z</time>
      </trkpt>
      <trkpt lat="44.42271" lon="2.94656">
        <ele>734.8</ele>
        <time>2022-07-12T10:48:11Z</time>
      </trkpt>
      <trkpt lat="44.42269" lon="2.94655">
        <ele>735</ele>
        <time>2022-07-12T10:48:13Z</time>
      </trkpt>
      <trkpt lat="44.42262" lon="2.94652">
        <ele>735.8</ele>
        <time>2022-07-12T10:48:18Z</time>
      </trkpt>
      <trkpt lat="44.42259" lon="2.94649">
        <ele>736.2</ele>
        <time>2022-07-12T10:48:20Z</time>
      </trkpt>
      <trkpt lat="44.42248" lon="2.94642">
        <ele>737.2</ele>
        <time>2022-07-12T10:48:25Z</time>
      </trkpt>
      <trkpt lat="44.42248" lon="2.94642">
        <ele>737.4</ele>
        <time>2022-07-12T10:48:26Z</time>
      </trkpt>
      <trkpt lat="44.42242" lon="2.94636">
        <ele>738</ele>
        <time>2022-07-12T10:48:30Z</time>
      </trkpt>
      <trkpt lat="44.42237" lon="2.94633">
        <ele>738.2</ele>
        <time>2022-07-12T10:48:32Z</time>
      </trkpt>
      <trkpt lat="44.42234" lon="2.94633">
        <ele>738.4</ele>
        <time>2022-07-12T10:48:34Z</time>
      </trkpt>
      <trkpt lat="44.42226" lon="2.94628">
        <ele>739</ele>
        <time>2022-07-12T10:48:38Z</time>
      </trkpt>
      <trkpt lat="44.42221" lon="2.94623">
        <ele>739.4</ele>
        <time>2022-07-12T10:48:41Z</time>
      </trkpt>
      <trkpt lat="44.42212" lon="2.94618">
        <ele>739.6</ele>
        <time>2022-07-12T10:48:44Z</time>
      </trkpt>
      <trkpt lat="44.42197" lon="2.94611">
        <ele>740</ele>
        <time>2022-07-12T10:48:49Z</time>
      </trkpt>
      <trkpt lat="44.42191" lon="2.94613">
        <ele>740.2</ele>
        <time>2022-07-12T10:48:51Z</time>
      </trkpt>
      <trkpt lat="44.42185" lon="2.94614">
        <ele>740.4</ele>
        <time>2022-07-12T10:48:53Z</time>
      </trkpt>
      <trkpt lat="44.42177" lon="2.9462">
        <ele>740.6</ele>
        <time>2022-07-12T10:48:58Z</time>
      </trkpt>
      <trkpt lat="44.42177" lon="2.94625">
        <ele>740.8</ele>
        <time>2022-07-12T10:49:01Z</time>
      </trkpt>
      <trkpt lat="44.42175" lon="2.94629">
        <ele>741</ele>
        <time>2022-07-12T10:49:03Z</time>
      </trkpt>
      <trkpt lat="44.42173" lon="2.94634">
        <ele>741.4</ele>
        <time>2022-07-12T10:49:06Z</time>
      </trkpt>
      <trkpt lat="44.42172" lon="2.94638">
        <ele>742</ele>
        <time>2022-07-12T10:49:08Z</time>
      </trkpt>
      <trkpt lat="44.42172" lon="2.94639">
        <ele>742.6</ele>
        <time>2022-07-12T10:49:09Z</time>
      </trkpt>
      <trkpt lat="44.42172" lon="2.9464">
        <ele>742.8</ele>
        <time>2022-07-12T10:49:10Z</time>
      </trkpt>
      <trkpt lat="44.42171" lon="2.94648">
        <ele>743.6</ele>
        <time>2022-07-12T10:49:14Z</time>
      </trkpt>
      <trkpt lat="44.42171" lon="2.9465">
        <ele>743.8</ele>
        <time>2022-07-12T10:49:15Z</time>
      </trkpt>
      <trkpt lat="44.42171" lon="2.94653">
        <ele>744.2</ele>
        <time>2022-07-12T10:49:17Z</time>
      </trkpt>
      <trkpt lat="44.42173" lon="2.94657">
        <ele>744.8</ele>
        <time>2022-07-12T10:49:20Z</time>
      </trkpt>
      <trkpt lat="44.42173" lon="2.94661">
        <ele>744.8</ele>
        <time>2022-07-12T10:49:23Z</time>
      </trkpt>
      <trkpt lat="44.42175" lon="2.94665">
        <ele>745</ele>
        <time>2022-07-12T10:49:25Z</time>
      </trkpt>
      <trkpt lat="44.42176" lon="2.94667">
        <ele>745.2</ele>
        <time>2022-07-12T10:49:26Z</time>
      </trkpt>
      <trkpt lat="44.42176" lon="2.94669">
        <ele>745.6</ele>
        <time>2022-07-12T10:49:27Z</time>
      </trkpt>
      <trkpt lat="44.42179" lon="2.94676">
        <ele>746.4</ele>
        <time>2022-07-12T10:49:31Z</time>
      </trkpt>
      <trkpt lat="44.42181" lon="2.94681">
        <ele>746.6</ele>
        <time>2022-07-12T10:49:33Z</time>
      </trkpt>
      <trkpt lat="44.42183" lon="2.94684">
        <ele>747</ele>
        <time>2022-07-12T10:49:35Z</time>
      </trkpt>
      <trkpt lat="44.42184" lon="2.94688">
        <ele>747.4</ele>
        <time>2022-07-12T10:49:37Z</time>
      </trkpt>
      <trkpt lat="44.42185" lon="2.94691">
        <ele>747.8</ele>
        <time>2022-07-12T10:49:39Z</time>
      </trkpt>
      <trkpt lat="44.42191" lon="2.94695">
        <ele>748</ele>
        <time>2022-07-12T10:49:41Z</time>
      </trkpt>
      <trkpt lat="44.4219" lon="2.94698">
        <ele>748.2</ele>
        <time>2022-07-12T10:49:43Z</time>
      </trkpt>
      <trkpt lat="44.42192" lon="2.94704">
        <ele>749</ele>
        <time>2022-07-12T10:49:48Z</time>
      </trkpt>
      <trkpt lat="44.42192" lon="2.94707">
        <ele>749.2</ele>
        <time>2022-07-12T10:49:50Z</time>
      </trkpt>
      <trkpt lat="44.42192" lon="2.94709">
        <ele>749.2</ele>
        <time>2022-07-12T10:49:51Z</time>
      </trkpt>
      <trkpt lat="44.42193" lon="2.94716">
        <ele>749.6</ele>
        <time>2022-07-12T10:49:54Z</time>
      </trkpt>
      <trkpt lat="44.42193" lon="2.94718">
        <ele>749.8</ele>
        <time>2022-07-12T10:49:55Z</time>
      </trkpt>
      <trkpt lat="44.42194" lon="2.9472">
        <ele>750</ele>
        <time>2022-07-12T10:49:56Z</time>
      </trkpt>
      <trkpt lat="44.42194" lon="2.94726">
        <ele>750.6</ele>
        <time>2022-07-12T10:49:59Z</time>
      </trkpt>
      <trkpt lat="44.42196" lon="2.94728">
        <ele>750.6</ele>
        <time>2022-07-12T10:50:00Z</time>
      </trkpt>
      <trkpt lat="44.42196" lon="2.94733">
        <ele>751</ele>
        <time>2022-07-12T10:50:02Z</time>
      </trkpt>
      <trkpt lat="44.42196" lon="2.94738">
        <ele>751.4</ele>
        <time>2022-07-12T10:50:04Z</time>
      </trkpt>
      <trkpt lat="44.42196" lon="2.9474">
        <ele>751.4</ele>
        <time>2022-07-12T10:50:05Z</time>
      </trkpt>
      <trkpt lat="44.42197" lon="2.94753">
        <ele>752</ele>
        <time>2022-07-12T10:50:10Z</time>
      </trkpt>
      <trkpt lat="44.42197" lon="2.94762">
        <ele>752.8</ele>
        <time>2022-07-12T10:50:14Z</time>
      </trkpt>
      <trkpt lat="44.42198" lon="2.94764">
        <ele>753</ele>
        <time>2022-07-12T10:50:15Z</time>
      </trkpt>
      <trkpt lat="44.422" lon="2.94777">
        <ele>754</ele>
        <time>2022-07-12T10:50:21Z</time>
      </trkpt>
      <trkpt lat="44.422" lon="2.94779">
        <ele>754.2</ele>
        <time>2022-07-12T10:50:22Z</time>
      </trkpt>
      <trkpt lat="44.42202" lon="2.94792">
        <ele>755</ele>
        <time>2022-07-12T10:50:28Z</time>
      </trkpt>
      <trkpt lat="44.42202" lon="2.94794">
        <ele>755.2</ele>
        <time>2022-07-12T10:50:29Z</time>
      </trkpt>
      <trkpt lat="44.42202" lon="2.94797">
        <ele>755.2</ele>
        <time>2022-07-12T10:50:30Z</time>
      </trkpt>
      <trkpt lat="44.42203" lon="2.94799">
        <ele>755.4</ele>
        <time>2022-07-12T10:50:31Z</time>
      </trkpt>
      <trkpt lat="44.42205" lon="2.94805">
        <ele>755.6</ele>
        <time>2022-07-12T10:50:34Z</time>
      </trkpt>
      <trkpt lat="44.42205" lon="2.94809">
        <ele>756.2</ele>
        <time>2022-07-12T10:50:36Z</time>
      </trkpt>
      <trkpt lat="44.42207" lon="2.94817">
        <ele>756.8</ele>
        <time>2022-07-12T10:50:40Z</time>
      </trkpt>
      <trkpt lat="44.42209" lon="2.94823">
        <ele>757</ele>
        <time>2022-07-12T10:50:43Z</time>
      </trkpt>
      <trkpt lat="44.42211" lon="2.94829">
        <ele>757.6</ele>
        <time>2022-07-12T10:50:46Z</time>
      </trkpt>
      <trkpt lat="44.42211" lon="2.94831">
        <ele>757.6</ele>
        <time>2022-07-12T10:50:47Z</time>
      </trkpt>
      <trkpt lat="44.42215" lon="2.94848">
        <ele>758.6</ele>
        <time>2022-07-12T10:50:54Z</time>
      </trkpt>
      <trkpt lat="44.42216" lon="2.9487">
        <ele>759.4</ele>
        <time>2022-07-12T10:51:02Z</time>
      </trkpt>
      <trkpt lat="44.42215" lon="2.94882">
        <ele>759.8</ele>
        <time>2022-07-12T10:51:06Z</time>
      </trkpt>
      <trkpt lat="44.42215" lon="2.94884">
        <ele>760</ele>
        <time>2022-07-12T10:51:07Z</time>
      </trkpt>
      <trkpt lat="44.42217" lon="2.94886">
        <ele>760</ele>
        <time>2022-07-12T10:51:08Z</time>
      </trkpt>
      <trkpt lat="44.42218" lon="2.94889">
        <ele>760.2</ele>
        <time>2022-07-12T10:51:09Z</time>
      </trkpt>
      <trkpt lat="44.4222" lon="2.94896">
        <ele>760.6</ele>
        <time>2022-07-12T10:51:12Z</time>
      </trkpt>
      <trkpt lat="44.42219" lon="2.94901">
        <ele>760.6</ele>
        <time>2022-07-12T10:51:14Z</time>
      </trkpt>
      <trkpt lat="44.42217" lon="2.94906">
        <ele>760.8</ele>
        <time>2022-07-12T10:51:16Z</time>
      </trkpt>
      <trkpt lat="44.42217" lon="2.94917">
        <ele>761</ele>
        <time>2022-07-12T10:51:20Z</time>
      </trkpt>
      <trkpt lat="44.42215" lon="2.94922">
        <ele>761.4</ele>
        <time>2022-07-12T10:51:22Z</time>
      </trkpt>
      <trkpt lat="44.42215" lon="2.94928">
        <ele>761.6</ele>
        <time>2022-07-12T10:51:25Z</time>
      </trkpt>
      <trkpt lat="44.42215" lon="2.94937">
        <ele>762.4</ele>
        <time>2022-07-12T10:51:29Z</time>
      </trkpt>
      <trkpt lat="44.42213" lon="2.94944">
        <ele>762.8</ele>
        <time>2022-07-12T10:51:32Z</time>
      </trkpt>
      <trkpt lat="44.42212" lon="2.94946">
        <ele>762.8</ele>
        <time>2022-07-12T10:51:33Z</time>
      </trkpt>
      <trkpt lat="44.42213" lon="2.94949">
        <ele>763.2</ele>
        <time>2022-07-12T10:51:35Z</time>
      </trkpt>
      <trkpt lat="44.42212" lon="2.94955">
        <ele>763.4</ele>
        <time>2022-07-12T10:51:37Z</time>
      </trkpt>
      <trkpt lat="44.42211" lon="2.9496">
        <ele>763.8</ele>
        <time>2022-07-12T10:51:39Z</time>
      </trkpt>
      <trkpt lat="44.42209" lon="2.94968">
        <ele>764.2</ele>
        <time>2022-07-12T10:51:42Z</time>
      </trkpt>
      <trkpt lat="44.42208" lon="2.9497">
        <ele>764.4</ele>
        <time>2022-07-12T10:51:43Z</time>
      </trkpt>
      <trkpt lat="44.42207" lon="2.94978">
        <ele>764.8</ele>
        <time>2022-07-12T10:51:46Z</time>
      </trkpt>
      <trkpt lat="44.42206" lon="2.94981">
        <ele>764.8</ele>
        <time>2022-07-12T10:51:47Z</time>
      </trkpt>
      <trkpt lat="44.42203" lon="2.94998">
        <ele>765.2</ele>
        <time>2022-07-12T10:51:53Z</time>
      </trkpt>
      <trkpt lat="44.42197" lon="2.9501">
        <ele>765.6</ele>
        <time>2022-07-12T10:51:57Z</time>
      </trkpt>
      <trkpt lat="44.42197" lon="2.95014">
        <ele>765.8</ele>
        <time>2022-07-12T10:51:59Z</time>
      </trkpt>
      <trkpt lat="44.42193" lon="2.95023">
        <ele>766.4</ele>
        <time>2022-07-12T10:52:05Z</time>
      </trkpt>
      <trkpt lat="44.42191" lon="2.95028">
        <ele>766.8</ele>
        <time>2022-07-12T10:52:08Z</time>
      </trkpt>
      <trkpt lat="44.42188" lon="2.95036">
        <ele>767.2</ele>
        <time>2022-07-12T10:52:11Z</time>
      </trkpt>
      <trkpt lat="44.42181" lon="2.9505">
        <ele>767.8</ele>
        <time>2022-07-12T10:52:17Z</time>
      </trkpt>
      <trkpt lat="44.42172" lon="2.95071">
        <ele>768.6</ele>
        <time>2022-07-12T10:52:25Z</time>
      </trkpt>
      <trkpt lat="44.42163" lon="2.9508">
        <ele>769</ele>
        <time>2022-07-12T10:52:29Z</time>
      </trkpt>
      <trkpt lat="44.42157" lon="2.95088">
        <ele>769.2</ele>
        <time>2022-07-12T10:52:33Z</time>
      </trkpt>
      <trkpt lat="44.42144" lon="2.95093">
        <ele>770</ele>
        <time>2022-07-12T10:52:39Z</time>
      </trkpt>
      <trkpt lat="44.42143" lon="2.95094">
        <ele>770.2</ele>
        <time>2022-07-12T10:52:40Z</time>
      </trkpt>
      <trkpt lat="44.42134" lon="2.95098">
        <ele>771</ele>
        <time>2022-07-12T10:52:45Z</time>
      </trkpt>
      <trkpt lat="44.42129" lon="2.95099">
        <ele>771.4</ele>
        <time>2022-07-12T10:52:48Z</time>
      </trkpt>
      <trkpt lat="44.42119" lon="2.95105">
        <ele>772</ele>
        <time>2022-07-12T10:52:54Z</time>
      </trkpt>
      <trkpt lat="44.42118" lon="2.95106">
        <ele>772.2</ele>
        <time>2022-07-12T10:52:55Z</time>
      </trkpt>
      <trkpt lat="44.4211" lon="2.95115">
        <ele>773.2</ele>
        <time>2022-07-12T10:53:02Z</time>
      </trkpt>
      <trkpt lat="44.42109" lon="2.95116">
        <ele>773.4</ele>
        <time>2022-07-12T10:53:03Z</time>
      </trkpt>
      <trkpt lat="44.42103" lon="2.95122">
        <ele>774.2</ele>
        <time>2022-07-12T10:53:08Z</time>
      </trkpt>
      <trkpt lat="44.421" lon="2.95125">
        <ele>774.4</ele>
        <time>2022-07-12T10:53:11Z</time>
      </trkpt>
      <trkpt lat="44.42091" lon="2.95133">
        <ele>775.2</ele>
        <time>2022-07-12T10:53:17Z</time>
      </trkpt>
      <trkpt lat="44.42083" lon="2.95144">
        <ele>776.4</ele>
        <time>2022-07-12T10:53:23Z</time>
      </trkpt>
      <trkpt lat="44.42081" lon="2.95146">
        <ele>776.2</ele>
        <time>2022-07-12T10:53:24Z</time>
      </trkpt>
      <trkpt lat="44.42071" lon="2.95161">
        <ele>777</ele>
        <time>2022-07-12T10:53:32Z</time>
      </trkpt>
      <trkpt lat="44.4207" lon="2.95163">
        <ele>777.2</ele>
        <time>2022-07-12T10:53:33Z</time>
      </trkpt>
      <trkpt lat="44.42066" lon="2.95177">
        <ele>778</ele>
        <time>2022-07-12T10:53:38Z</time>
      </trkpt>
      <trkpt lat="44.42066" lon="2.95181">
        <ele>778.2</ele>
        <time>2022-07-12T10:53:40Z</time>
      </trkpt>
      <trkpt lat="44.42062" lon="2.95194">
        <ele>778.6</ele>
        <time>2022-07-12T10:53:46Z</time>
      </trkpt>
      <trkpt lat="44.42059" lon="2.95206">
        <ele>779.2</ele>
        <time>2022-07-12T10:53:52Z</time>
      </trkpt>
      <trkpt lat="44.42058" lon="2.95208">
        <ele>779.4</ele>
        <time>2022-07-12T10:53:53Z</time>
      </trkpt>
      <trkpt lat="44.42056" lon="2.95217">
        <ele>780</ele>
        <time>2022-07-12T10:53:56Z</time>
      </trkpt>
      <trkpt lat="44.42053" lon="2.95227">
        <ele>780.6</ele>
        <time>2022-07-12T10:54:00Z</time>
      </trkpt>
      <trkpt lat="44.4205" lon="2.9524">
        <ele>781.4</ele>
        <time>2022-07-12T10:54:05Z</time>
      </trkpt>
      <trkpt lat="44.42049" lon="2.95251">
        <ele>781.8</ele>
        <time>2022-07-12T10:54:08Z</time>
      </trkpt>
      <trkpt lat="44.42046" lon="2.95264">
        <ele>782.4</ele>
        <time>2022-07-12T10:54:13Z</time>
      </trkpt>
      <trkpt lat="44.42042" lon="2.95272">
        <ele>782.8</ele>
        <time>2022-07-12T10:54:16Z</time>
      </trkpt>
      <trkpt lat="44.4204" lon="2.95288">
        <ele>783.2</ele>
        <time>2022-07-12T10:54:21Z</time>
      </trkpt>
      <trkpt lat="44.42033" lon="2.95309">
        <ele>783.8</ele>
        <time>2022-07-12T10:54:28Z</time>
      </trkpt>
      <trkpt lat="44.4203" lon="2.9532">
        <ele>784</ele>
        <time>2022-07-12T10:54:31Z</time>
      </trkpt>
      <trkpt lat="44.42025" lon="2.9533">
        <ele>784</ele>
        <time>2022-07-12T10:54:34Z</time>
      </trkpt>
      <trkpt lat="44.42022" lon="2.95338">
        <ele>784.2</ele>
        <time>2022-07-12T10:54:37Z</time>
      </trkpt>
      <trkpt lat="44.42014" lon="2.95349">
        <ele>784.4</ele>
        <time>2022-07-12T10:54:42Z</time>
      </trkpt>
      <trkpt lat="44.42001" lon="2.95368">
        <ele>784.6</ele>
        <time>2022-07-12T10:54:49Z</time>
      </trkpt>
      <trkpt lat="44.41999" lon="2.95372">
        <ele>784.2</ele>
        <time>2022-07-12T10:54:54Z</time>
      </trkpt>
      <trkpt lat="44.41997" lon="2.95376">
        <ele>784.2</ele>
        <time>2022-07-12T10:56:25Z</time>
      </trkpt>
      <trkpt lat="44.41992" lon="2.95384">
        <ele>784.2</ele>
        <time>2022-07-12T10:56:28Z</time>
      </trkpt>
      <trkpt lat="44.41975" lon="2.95409">
        <ele>783.6</ele>
        <time>2022-07-12T10:56:34Z</time>
      </trkpt>
      <trkpt lat="44.41968" lon="2.95418">
        <ele>783.4</ele>
        <time>2022-07-12T10:56:36Z</time>
      </trkpt>
      <trkpt lat="44.41958" lon="2.95432">
        <ele>782.8</ele>
        <time>2022-07-12T10:56:39Z</time>
      </trkpt>
      <trkpt lat="44.41947" lon="2.95447">
        <ele>782.2</ele>
        <time>2022-07-12T10:56:41Z</time>
      </trkpt>
      <trkpt lat="44.41941" lon="2.95456">
        <ele>781.6</ele>
        <time>2022-07-12T10:56:42Z</time>
      </trkpt>
      <trkpt lat="44.41935" lon="2.95465">
        <ele>781.2</ele>
        <time>2022-07-12T10:56:43Z</time>
      </trkpt>
      <trkpt lat="44.41919" lon="2.95487">
        <ele>779.6</ele>
        <time>2022-07-12T10:56:46Z</time>
      </trkpt>
      <trkpt lat="44.41913" lon="2.95495">
        <ele>779.4</ele>
        <time>2022-07-12T10:56:47Z</time>
      </trkpt>
      <trkpt lat="44.41903" lon="2.95511">
        <ele>778.4</ele>
        <time>2022-07-12T10:56:49Z</time>
      </trkpt>
      <trkpt lat="44.41895" lon="2.95531">
        <ele>777</ele>
        <time>2022-07-12T10:56:51Z</time>
      </trkpt>
      <trkpt lat="44.4188" lon="2.95562">
        <ele>775.8</ele>
        <time>2022-07-12T10:56:54Z</time>
      </trkpt>
      <trkpt lat="44.41867" lon="2.95584">
        <ele>774</ele>
        <time>2022-07-12T10:56:57Z</time>
      </trkpt>
      <trkpt lat="44.41857" lon="2.95604">
        <ele>772.8</ele>
        <time>2022-07-12T10:57:00Z</time>
      </trkpt>
      <trkpt lat="44.41853" lon="2.95611">
        <ele>772.2</ele>
        <time>2022-07-12T10:57:02Z</time>
      </trkpt>
      <trkpt lat="44.41852" lon="2.95617">
        <ele>771.8</ele>
        <time>2022-07-12T10:57:05Z</time>
      </trkpt>
      <trkpt lat="44.41852" lon="2.95617">
        <ele>771.6</ele>
        <time>2022-07-12T10:57:06Z</time>
      </trkpt>
      <trkpt lat="44.41849" lon="2.9562">
        <ele>771</ele>
        <time>2022-07-12T10:57:31Z</time>
      </trkpt>
      <trkpt lat="44.41846" lon="2.95625">
        <ele>771</ele>
        <time>2022-07-12T10:57:33Z</time>
      </trkpt>
      <trkpt lat="44.41837" lon="2.95641">
        <ele>770.8</ele>
        <time>2022-07-12T10:57:38Z</time>
      </trkpt>
      <trkpt lat="44.41835" lon="2.95644">
        <ele>770.8</ele>
        <time>2022-07-12T10:57:39Z</time>
      </trkpt>
      <trkpt lat="44.4183" lon="2.95652">
        <ele>770.6</ele>
        <time>2022-07-12T10:57:42Z</time>
      </trkpt>
      <trkpt lat="44.41829" lon="2.95654">
        <ele>770.6</ele>
        <time>2022-07-12T10:57:43Z</time>
      </trkpt>
      <trkpt lat="44.41829" lon="2.95655">
        <ele>770.4</ele>
        <time>2022-07-12T10:57:46Z</time>
      </trkpt>
      <trkpt lat="44.41827" lon="2.95657">
        <ele>770</ele>
        <time>2022-07-12T10:57:58Z</time>
      </trkpt>
      <trkpt lat="44.41827" lon="2.95657">
        <ele>770</ele>
        <time>2022-07-12T10:57:59Z</time>
      </trkpt>
      <trkpt lat="44.41822" lon="2.95665">
        <ele>770</ele>
        <time>2022-07-12T10:58:03Z</time>
      </trkpt>
      <trkpt lat="44.41817" lon="2.95672">
        <ele>769.8</ele>
        <time>2022-07-12T10:58:06Z</time>
      </trkpt>
      <trkpt lat="44.4181" lon="2.95683">
        <ele>769.4</ele>
        <time>2022-07-12T10:58:10Z</time>
      </trkpt>
      <trkpt lat="44.41794" lon="2.957">
        <ele>768.8</ele>
        <time>2022-07-12T10:58:17Z</time>
      </trkpt>
      <trkpt lat="44.41781" lon="2.95713">
        <ele>768.6</ele>
        <time>2022-07-12T10:58:21Z</time>
      </trkpt>
      <trkpt lat="44.41778" lon="2.95716">
        <ele>768.4</ele>
        <time>2022-07-12T10:58:22Z</time>
      </trkpt>
      <trkpt lat="44.41757" lon="2.95741">
        <ele>768.4</ele>
        <time>2022-07-12T10:58:29Z</time>
      </trkpt>
      <trkpt lat="44.4173" lon="2.95773">
        <ele>767.4</ele>
        <time>2022-07-12T10:58:40Z</time>
      </trkpt>
      <trkpt lat="44.41713" lon="2.95789">
        <ele>767.2</ele>
        <time>2022-07-12T10:58:46Z</time>
      </trkpt>
      <trkpt lat="44.41697" lon="2.9581">
        <ele>767.2</ele>
        <time>2022-07-12T10:58:53Z</time>
      </trkpt>
      <trkpt lat="44.41677" lon="2.95834">
        <ele>767.4</ele>
        <time>2022-07-12T10:59:02Z</time>
      </trkpt>
      <trkpt lat="44.41658" lon="2.95854">
        <ele>767.2</ele>
        <time>2022-07-12T10:59:10Z</time>
      </trkpt>
      <trkpt lat="44.41642" lon="2.95871">
        <ele>767.6</ele>
        <time>2022-07-12T10:59:17Z</time>
      </trkpt>
      <trkpt lat="44.4162" lon="2.95894">
        <ele>767.8</ele>
        <time>2022-07-12T10:59:26Z</time>
      </trkpt>
      <trkpt lat="44.41601" lon="2.95914">
        <ele>768.2</ele>
        <time>2022-07-12T10:59:34Z</time>
      </trkpt>
      <trkpt lat="44.41595" lon="2.95919">
        <ele>768.2</ele>
        <time>2022-07-12T10:59:36Z</time>
      </trkpt>
      <trkpt lat="44.41588" lon="2.95927">
        <ele>768.4</ele>
        <time>2022-07-12T10:59:39Z</time>
      </trkpt>
      <trkpt lat="44.41579" lon="2.95937">
        <ele>768.4</ele>
        <time>2022-07-12T10:59:42Z</time>
      </trkpt>
      <trkpt lat="44.41554" lon="2.95962">
        <ele>768.4</ele>
        <time>2022-07-12T10:59:50Z</time>
      </trkpt>
      <trkpt lat="44.41529" lon="2.95987">
        <ele>767.8</ele>
        <time>2022-07-12T10:59:56Z</time>
      </trkpt>
      <trkpt lat="44.41525" lon="2.9599">
        <ele>767.6</ele>
        <time>2022-07-12T10:59:57Z</time>
      </trkpt>
      <trkpt lat="44.41507" lon="2.96005">
        <ele>767.2</ele>
        <time>2022-07-12T11:00:01Z</time>
      </trkpt>
      <trkpt lat="44.41498" lon="2.96013">
        <ele>766.8</ele>
        <time>2022-07-12T11:00:03Z</time>
      </trkpt>
      <trkpt lat="44.41491" lon="2.96022">
        <ele>766.4</ele>
        <time>2022-07-12T11:00:05Z</time>
      </trkpt>
      <trkpt lat="44.41488" lon="2.96027">
        <ele>766.2</ele>
        <time>2022-07-12T11:00:06Z</time>
      </trkpt>
      <trkpt lat="44.41484" lon="2.96031">
        <ele>766.2</ele>
        <time>2022-07-12T11:00:07Z</time>
      </trkpt>
      <trkpt lat="44.41475" lon="2.96046">
        <ele>766</ele>
        <time>2022-07-12T11:00:11Z</time>
      </trkpt>
      <trkpt lat="44.41466" lon="2.96067">
        <ele>766.6</ele>
        <time>2022-07-12T11:00:18Z</time>
      </trkpt>
      <trkpt lat="44.41463" lon="2.96074">
        <ele>767</ele>
        <time>2022-07-12T11:00:21Z</time>
      </trkpt>
      <trkpt lat="44.41462" lon="2.96077">
        <ele>767.4</ele>
        <time>2022-07-12T11:00:22Z</time>
      </trkpt>
      <trkpt lat="44.41462" lon="2.96079">
        <ele>767.6</ele>
        <time>2022-07-12T11:00:23Z</time>
      </trkpt>
      <trkpt lat="44.41458" lon="2.96091">
        <ele>768.4</ele>
        <time>2022-07-12T11:00:28Z</time>
      </trkpt>
      <trkpt lat="44.41457" lon="2.96093">
        <ele>768.6</ele>
        <time>2022-07-12T11:00:29Z</time>
      </trkpt>
      <trkpt lat="44.41455" lon="2.96101">
        <ele>769.8</ele>
        <time>2022-07-12T11:00:33Z</time>
      </trkpt>
      <trkpt lat="44.41455" lon="2.96104">
        <ele>770.2</ele>
        <time>2022-07-12T11:00:35Z</time>
      </trkpt>
      <trkpt lat="44.41454" lon="2.96107">
        <ele>770.4</ele>
        <time>2022-07-12T11:00:37Z</time>
      </trkpt>
      <trkpt lat="44.41454" lon="2.96109">
        <ele>770.8</ele>
        <time>2022-07-12T11:00:38Z</time>
      </trkpt>
      <trkpt lat="44.41448" lon="2.96123">
        <ele>772</ele>
        <time>2022-07-12T11:00:46Z</time>
      </trkpt>
      <trkpt lat="44.41447" lon="2.96127">
        <ele>772.4</ele>
        <time>2022-07-12T11:00:48Z</time>
      </trkpt>
      <trkpt lat="44.41445" lon="2.96133">
        <ele>772.8</ele>
        <time>2022-07-12T11:00:51Z</time>
      </trkpt>
      <trkpt lat="44.41444" lon="2.96135">
        <ele>773</ele>
        <time>2022-07-12T11:00:52Z</time>
      </trkpt>
      <trkpt lat="44.41439" lon="2.96149">
        <ele>774</ele>
        <time>2022-07-12T11:00:59Z</time>
      </trkpt>
      <trkpt lat="44.41438" lon="2.96151">
        <ele>774</ele>
        <time>2022-07-12T11:01:00Z</time>
      </trkpt>
      <trkpt lat="44.41432" lon="2.96163">
        <ele>775</ele>
        <time>2022-07-12T11:01:06Z</time>
      </trkpt>
      <trkpt lat="44.41431" lon="2.96165">
        <ele>775</ele>
        <time>2022-07-12T11:01:07Z</time>
      </trkpt>
      <trkpt lat="44.41426" lon="2.96175">
        <ele>776</ele>
        <time>2022-07-12T11:01:12Z</time>
      </trkpt>
      <trkpt lat="44.41424" lon="2.96177">
        <ele>776</ele>
        <time>2022-07-12T11:01:13Z</time>
      </trkpt>
      <trkpt lat="44.41419" lon="2.96188">
        <ele>776.4</ele>
        <time>2022-07-12T11:01:18Z</time>
      </trkpt>
      <trkpt lat="44.4141" lon="2.96207">
        <ele>776.4</ele>
        <time>2022-07-12T11:01:24Z</time>
      </trkpt>
      <trkpt lat="44.41403" lon="2.9622">
        <ele>776.2</ele>
        <time>2022-07-12T11:01:27Z</time>
      </trkpt>
      <trkpt lat="44.41399" lon="2.96227">
        <ele>776.2</ele>
        <time>2022-07-12T11:01:28Z</time>
      </trkpt>
      <trkpt lat="44.41391" lon="2.96244">
        <ele>775.8</ele>
        <time>2022-07-12T11:01:30Z</time>
      </trkpt>
      <trkpt lat="44.41387" lon="2.96254">
        <ele>775.8</ele>
        <time>2022-07-12T11:01:31Z</time>
      </trkpt>
      <trkpt lat="44.41374" lon="2.96287">
        <ele>774</ele>
        <time>2022-07-12T11:01:34Z</time>
      </trkpt>
      <trkpt lat="44.4137" lon="2.96296">
        <ele>773.6</ele>
        <time>2022-07-12T11:01:35Z</time>
      </trkpt>
      <trkpt lat="44.41367" lon="2.96306">
        <ele>772.6</ele>
        <time>2022-07-12T11:01:36Z</time>
      </trkpt>
      <trkpt lat="44.41361" lon="2.96323">
        <ele>771.8</ele>
        <time>2022-07-12T11:01:38Z</time>
      </trkpt>
      <trkpt lat="44.4136" lon="2.9633">
        <ele>771.4</ele>
        <time>2022-07-12T11:01:39Z</time>
      </trkpt>
      <trkpt lat="44.41356" lon="2.96349">
        <ele>771</ele>
        <time>2022-07-12T11:01:42Z</time>
      </trkpt>
      <trkpt lat="44.41354" lon="2.96354">
        <ele>771</ele>
        <time>2022-07-12T11:01:43Z</time>
      </trkpt>
      <trkpt lat="44.4135" lon="2.96377">
        <ele>771.2</ele>
        <time>2022-07-12T11:01:48Z</time>
      </trkpt>
      <trkpt lat="44.41342" lon="2.96406">
        <ele>771.6</ele>
        <time>2022-07-12T11:01:54Z</time>
      </trkpt>
      <trkpt lat="44.41335" lon="2.9643">
        <ele>771.8</ele>
        <time>2022-07-12T11:01:59Z</time>
      </trkpt>
      <trkpt lat="44.41322" lon="2.9646">
        <ele>771.8</ele>
        <time>2022-07-12T11:02:06Z</time>
      </trkpt>
      <trkpt lat="44.41301" lon="2.96487">
        <ele>772</ele>
        <time>2022-07-12T11:02:13Z</time>
      </trkpt>
      <trkpt lat="44.41285" lon="2.96503">
        <ele>771.8</ele>
        <time>2022-07-12T11:02:19Z</time>
      </trkpt>
      <trkpt lat="44.41272" lon="2.96509">
        <ele>771.6</ele>
        <time>2022-07-12T11:02:23Z</time>
      </trkpt>
      <trkpt lat="44.41255" lon="2.96504">
        <ele>771.4</ele>
        <time>2022-07-12T11:02:28Z</time>
      </trkpt>
      <trkpt lat="44.41229" lon="2.96502">
        <ele>771</ele>
        <time>2022-07-12T11:02:34Z</time>
      </trkpt>
      <trkpt lat="44.41223" lon="2.96504">
        <ele>770.8</ele>
        <time>2022-07-12T11:02:35Z</time>
      </trkpt>
      <trkpt lat="44.41204" lon="2.96513">
        <ele>770.4</ele>
        <time>2022-07-12T11:02:38Z</time>
      </trkpt>
      <trkpt lat="44.4119" lon="2.96523">
        <ele>769.8</ele>
        <time>2022-07-12T11:02:40Z</time>
      </trkpt>
      <trkpt lat="44.41173" lon="2.96538">
        <ele>769</ele>
        <time>2022-07-12T11:02:42Z</time>
      </trkpt>
      <trkpt lat="44.41166" lon="2.96546">
        <ele>768.4</ele>
        <time>2022-07-12T11:02:43Z</time>
      </trkpt>
      <trkpt lat="44.41154" lon="2.96563">
        <ele>766.6</ele>
        <time>2022-07-12T11:02:45Z</time>
      </trkpt>
      <trkpt lat="44.41143" lon="2.9658">
        <ele>765</ele>
        <time>2022-07-12T11:02:47Z</time>
      </trkpt>
      <trkpt lat="44.41134" lon="2.96597">
        <ele>763.8</ele>
        <time>2022-07-12T11:02:49Z</time>
      </trkpt>
      <trkpt lat="44.4113" lon="2.96605">
        <ele>763.4</ele>
        <time>2022-07-12T11:02:50Z</time>
      </trkpt>
      <trkpt lat="44.41125" lon="2.96621">
        <ele>762.6</ele>
        <time>2022-07-12T11:02:52Z</time>
      </trkpt>
      <trkpt lat="44.41122" lon="2.96639">
        <ele>761.4</ele>
        <time>2022-07-12T11:02:54Z</time>
      </trkpt>
      <trkpt lat="44.41121" lon="2.96648">
        <ele>760.8</ele>
        <time>2022-07-12T11:02:55Z</time>
      </trkpt>
      <trkpt lat="44.41119" lon="2.96657">
        <ele>759.8</ele>
        <time>2022-07-12T11:02:56Z</time>
      </trkpt>
      <trkpt lat="44.41115" lon="2.96674">
        <ele>758.2</ele>
        <time>2022-07-12T11:02:58Z</time>
      </trkpt>
      <trkpt lat="44.41111" lon="2.96691">
        <ele>757.4</ele>
        <time>2022-07-12T11:03:00Z</time>
      </trkpt>
      <trkpt lat="44.41109" lon="2.96708">
        <ele>756.6</ele>
        <time>2022-07-12T11:03:02Z</time>
      </trkpt>
      <trkpt lat="44.41104" lon="2.96731">
        <ele>756</ele>
        <time>2022-07-12T11:03:05Z</time>
      </trkpt>
      <trkpt lat="44.41096" lon="2.9676">
        <ele>755.6</ele>
        <time>2022-07-12T11:03:08Z</time>
      </trkpt>
      <trkpt lat="44.41093" lon="2.9678">
        <ele>755</ele>
        <time>2022-07-12T11:03:10Z</time>
      </trkpt>
      <trkpt lat="44.41091" lon="2.96797">
        <ele>754.2</ele>
        <time>2022-07-12T11:03:12Z</time>
      </trkpt>
      <trkpt lat="44.4109" lon="2.96803">
        <ele>754</ele>
        <time>2022-07-12T11:03:13Z</time>
      </trkpt>
      <trkpt lat="44.4109" lon="2.96808">
        <ele>753.6</ele>
        <time>2022-07-12T11:03:14Z</time>
      </trkpt>
      <trkpt lat="44.41087" lon="2.96823">
        <ele>753.4</ele>
        <time>2022-07-12T11:03:17Z</time>
      </trkpt>
      <trkpt lat="44.41087" lon="2.96846">
        <ele>754</ele>
        <time>2022-07-12T11:03:23Z</time>
      </trkpt>
      <trkpt lat="44.41087" lon="2.96849">
        <ele>754</ele>
        <time>2022-07-12T11:03:24Z</time>
      </trkpt>
      <trkpt lat="44.41088" lon="2.96865">
        <ele>754.8</ele>
        <time>2022-07-12T11:03:28Z</time>
      </trkpt>
      <trkpt lat="44.41087" lon="2.96868">
        <ele>754.8</ele>
        <time>2022-07-12T11:03:29Z</time>
      </trkpt>
      <trkpt lat="44.41087" lon="2.96875">
        <ele>755.2</ele>
        <time>2022-07-12T11:03:31Z</time>
      </trkpt>
      <trkpt lat="44.41088" lon="2.96884">
        <ele>755.4</ele>
        <time>2022-07-12T11:03:33Z</time>
      </trkpt>
      <trkpt lat="44.41088" lon="2.969">
        <ele>756</ele>
        <time>2022-07-12T11:03:37Z</time>
      </trkpt>
      <trkpt lat="44.4109" lon="2.96904">
        <ele>756.2</ele>
        <time>2022-07-12T11:03:38Z</time>
      </trkpt>
      <trkpt lat="44.41089" lon="2.96908">
        <ele>756.6</ele>
        <time>2022-07-12T11:03:39Z</time>
      </trkpt>
      <trkpt lat="44.41091" lon="2.96912">
        <ele>756.8</ele>
        <time>2022-07-12T11:03:40Z</time>
      </trkpt>
      <trkpt lat="44.41093" lon="2.96921">
        <ele>757</ele>
        <time>2022-07-12T11:03:42Z</time>
      </trkpt>
      <trkpt lat="44.41093" lon="2.96925">
        <ele>757</ele>
        <time>2022-07-12T11:03:43Z</time>
      </trkpt>
      <trkpt lat="44.4109" lon="2.96945">
        <ele>757.4</ele>
        <time>2022-07-12T11:03:48Z</time>
      </trkpt>
      <trkpt lat="44.41089" lon="2.96961">
        <ele>757.6</ele>
        <time>2022-07-12T11:03:52Z</time>
      </trkpt>
      <trkpt lat="44.41088" lon="2.9697">
        <ele>757.6</ele>
        <time>2022-07-12T11:03:54Z</time>
      </trkpt>
      <trkpt lat="44.41083" lon="2.97005">
        <ele>757.8</ele>
        <time>2022-07-12T11:04:01Z</time>
      </trkpt>
      <trkpt lat="44.41079" lon="2.97017">
        <ele>757.6</ele>
        <time>2022-07-12T11:04:03Z</time>
      </trkpt>
      <trkpt lat="44.41073" lon="2.97029">
        <ele>757</ele>
        <time>2022-07-12T11:04:05Z</time>
      </trkpt>
      <trkpt lat="44.41071" lon="2.97035">
        <ele>756.8</ele>
        <time>2022-07-12T11:04:06Z</time>
      </trkpt>
      <trkpt lat="44.41068" lon="2.9705">
        <ele>756.2</ele>
        <time>2022-07-12T11:04:08Z</time>
      </trkpt>
      <trkpt lat="44.41064" lon="2.9707">
        <ele>755.4</ele>
        <time>2022-07-12T11:04:10Z</time>
      </trkpt>
      <trkpt lat="44.41062" lon="2.9708">
        <ele>755</ele>
        <time>2022-07-12T11:04:11Z</time>
      </trkpt>
      <trkpt lat="44.41056" lon="2.97099">
        <ele>753.6</ele>
        <time>2022-07-12T11:04:13Z</time>
      </trkpt>
      <trkpt lat="44.41049" lon="2.97121">
        <ele>752.2</ele>
        <time>2022-07-12T11:04:15Z</time>
      </trkpt>
      <trkpt lat="44.41046" lon="2.9713">
        <ele>751.2</ele>
        <time>2022-07-12T11:04:16Z</time>
      </trkpt>
      <trkpt lat="44.41043" lon="2.97141">
        <ele>750.8</ele>
        <time>2022-07-12T11:04:17Z</time>
      </trkpt>
      <trkpt lat="44.41041" lon="2.97158">
        <ele>750.4</ele>
        <time>2022-07-12T11:04:19Z</time>
      </trkpt>
      <trkpt lat="44.41038" lon="2.97165">
        <ele>750.2</ele>
        <time>2022-07-12T11:04:20Z</time>
      </trkpt>
      <trkpt lat="44.41033" lon="2.97172">
        <ele>749.4</ele>
        <time>2022-07-12T11:04:22Z</time>
      </trkpt>
      <trkpt lat="44.41031" lon="2.97172">
        <ele>749.2</ele>
        <time>2022-07-12T11:04:23Z</time>
      </trkpt>
      <trkpt lat="44.41031" lon="2.9717">
        <ele>749</ele>
        <time>2022-07-12T11:04:24Z</time>
      </trkpt>
      <trkpt lat="44.4103" lon="2.97169">
        <ele>748.8</ele>
        <time>2022-07-12T11:04:26Z</time>
      </trkpt>
      <trkpt lat="44.41023" lon="2.97167">
        <ele>749.4</ele>
        <time>2022-07-12T11:04:31Z</time>
      </trkpt>
      <trkpt lat="44.41012" lon="2.97163">
        <ele>750.2</ele>
        <time>2022-07-12T11:04:37Z</time>
      </trkpt>
      <trkpt lat="44.41011" lon="2.97163">
        <ele>750.4</ele>
        <time>2022-07-12T11:04:38Z</time>
      </trkpt>
      <trkpt lat="44.41002" lon="2.9716">
        <ele>751</ele>
        <time>2022-07-12T11:04:44Z</time>
      </trkpt>
      <trkpt lat="44.40996" lon="2.97159">
        <ele>751.6</ele>
        <time>2022-07-12T11:04:48Z</time>
      </trkpt>
      <trkpt lat="44.40989" lon="2.97158">
        <ele>752.2</ele>
        <time>2022-07-12T11:04:53Z</time>
      </trkpt>
      <trkpt lat="44.40986" lon="2.97158">
        <ele>752.4</ele>
        <time>2022-07-12T11:04:55Z</time>
      </trkpt>
      <trkpt lat="44.4098" lon="2.97156">
        <ele>753.2</ele>
        <time>2022-07-12T11:04:59Z</time>
      </trkpt>
      <trkpt lat="44.40978" lon="2.97156">
        <ele>753.4</ele>
        <time>2022-07-12T11:05:01Z</time>
      </trkpt>
      <trkpt lat="44.40973" lon="2.97153">
        <ele>753.8</ele>
        <time>2022-07-12T11:05:05Z</time>
      </trkpt>
      <trkpt lat="44.40971" lon="2.97152">
        <ele>753.8</ele>
        <time>2022-07-12T11:05:06Z</time>
      </trkpt>
      <trkpt lat="44.40964" lon="2.97149">
        <ele>754.6</ele>
        <time>2022-07-12T11:05:10Z</time>
      </trkpt>
      <trkpt lat="44.40958" lon="2.97146">
        <ele>755.2</ele>
        <time>2022-07-12T11:05:14Z</time>
      </trkpt>
      <trkpt lat="44.40955" lon="2.97145">
        <ele>755.6</ele>
        <time>2022-07-12T11:05:16Z</time>
      </trkpt>
      <trkpt lat="44.40944" lon="2.97144">
        <ele>756</ele>
        <time>2022-07-12T11:05:22Z</time>
      </trkpt>
      <trkpt lat="44.40934" lon="2.97144">
        <ele>756.6</ele>
        <time>2022-07-12T11:05:28Z</time>
      </trkpt>
      <trkpt lat="44.40933" lon="2.97144">
        <ele>756.8</ele>
        <time>2022-07-12T11:05:29Z</time>
      </trkpt>
      <trkpt lat="44.40919" lon="2.97147">
        <ele>758</ele>
        <time>2022-07-12T11:05:38Z</time>
      </trkpt>
      <trkpt lat="44.40904" lon="2.9715">
        <ele>758.6</ele>
        <time>2022-07-12T11:05:46Z</time>
      </trkpt>
      <trkpt lat="44.40899" lon="2.97151">
        <ele>759</ele>
        <time>2022-07-12T11:05:49Z</time>
      </trkpt>
      <trkpt lat="44.40893" lon="2.97151">
        <ele>759.8</ele>
        <time>2022-07-12T11:05:52Z</time>
      </trkpt>
      <trkpt lat="44.40883" lon="2.97152">
        <ele>760</ele>
        <time>2022-07-12T11:05:56Z</time>
      </trkpt>
      <trkpt lat="44.40879" lon="2.97153">
        <ele>760.2</ele>
        <time>2022-07-12T11:05:58Z</time>
      </trkpt>
      <trkpt lat="44.4087" lon="2.97153">
        <ele>760.6</ele>
        <time>2022-07-12T11:06:03Z</time>
      </trkpt>
      <trkpt lat="44.40865" lon="2.97154">
        <ele>760.6</ele>
        <time>2022-07-12T11:06:05Z</time>
      </trkpt>
      <trkpt lat="44.40853" lon="2.97154">
        <ele>761</ele>
        <time>2022-07-12T11:06:10Z</time>
      </trkpt>
      <trkpt lat="44.40848" lon="2.97154">
        <ele>761.2</ele>
        <time>2022-07-12T11:06:11Z</time>
      </trkpt>
      <trkpt lat="44.40842" lon="2.97159">
        <ele>761.2</ele>
        <time>2022-07-12T11:06:16Z</time>
      </trkpt>
      <trkpt lat="44.40838" lon="2.97163">
        <ele>761.2</ele>
        <time>2022-07-12T11:06:18Z</time>
      </trkpt>
      <trkpt lat="44.40822" lon="2.97173">
        <ele>761.6</ele>
        <time>2022-07-12T11:06:24Z</time>
      </trkpt>
      <trkpt lat="44.40803" lon="2.9718">
        <ele>761.8</ele>
        <time>2022-07-12T11:06:30Z</time>
      </trkpt>
      <trkpt lat="44.40778" lon="2.97191">
        <ele>761.8</ele>
        <time>2022-07-12T11:06:37Z</time>
      </trkpt>
      <trkpt lat="44.40774" lon="2.97193">
        <ele>761.8</ele>
        <time>2022-07-12T11:06:38Z</time>
      </trkpt>
      <trkpt lat="44.40743" lon="2.97207">
        <ele>761</ele>
        <time>2022-07-12T11:06:44Z</time>
      </trkpt>
      <trkpt lat="44.40738" lon="2.9721">
        <ele>760.8</ele>
        <time>2022-07-12T11:06:45Z</time>
      </trkpt>
      <trkpt lat="44.40721" lon="2.97218">
        <ele>760</ele>
        <time>2022-07-12T11:06:48Z</time>
      </trkpt>
      <trkpt lat="44.4069" lon="2.97223">
        <ele>758.4</ele>
        <time>2022-07-12T11:06:52Z</time>
      </trkpt>
      <trkpt lat="44.40683" lon="2.97224">
        <ele>758</ele>
        <time>2022-07-12T11:06:53Z</time>
      </trkpt>
      <trkpt lat="44.40669" lon="2.97226">
        <ele>757.4</ele>
        <time>2022-07-12T11:06:55Z</time>
      </trkpt>
      <trkpt lat="44.40638" lon="2.97225">
        <ele>756</ele>
        <time>2022-07-12T11:06:59Z</time>
      </trkpt>
      <trkpt lat="44.40603" lon="2.97225">
        <ele>754.6</ele>
        <time>2022-07-12T11:07:04Z</time>
      </trkpt>
      <trkpt lat="44.40596" lon="2.97225">
        <ele>754</ele>
        <time>2022-07-12T11:07:05Z</time>
      </trkpt>
      <trkpt lat="44.40588" lon="2.97225">
        <ele>753.4</ele>
        <time>2022-07-12T11:07:06Z</time>
      </trkpt>
      <trkpt lat="44.40575" lon="2.97225">
        <ele>752.2</ele>
        <time>2022-07-12T11:07:08Z</time>
      </trkpt>
      <trkpt lat="44.40555" lon="2.97224">
        <ele>751.2</ele>
        <time>2022-07-12T11:07:11Z</time>
      </trkpt>
      <trkpt lat="44.40548" lon="2.97223">
        <ele>751</ele>
        <time>2022-07-12T11:07:12Z</time>
      </trkpt>
      <trkpt lat="44.40525" lon="2.9722">
        <ele>750.2</ele>
        <time>2022-07-12T11:07:16Z</time>
      </trkpt>
      <trkpt lat="44.40521" lon="2.9722">
        <ele>750</ele>
        <time>2022-07-12T11:07:17Z</time>
      </trkpt>
      <trkpt lat="44.40517" lon="2.9722">
        <ele>749.8</ele>
        <time>2022-07-12T11:07:18Z</time>
      </trkpt>
      <trkpt lat="44.40497" lon="2.97219">
        <ele>749</ele>
        <time>2022-07-12T11:07:24Z</time>
      </trkpt>
      <trkpt lat="44.40479" lon="2.97213">
        <ele>748.6</ele>
        <time>2022-07-12T11:07:31Z</time>
      </trkpt>
      <trkpt lat="44.40474" lon="2.97213">
        <ele>748.4</ele>
        <time>2022-07-12T11:07:34Z</time>
      </trkpt>
      <trkpt lat="44.40467" lon="2.97211">
        <ele>748.6</ele>
        <time>2022-07-12T11:07:37Z</time>
      </trkpt>
      <trkpt lat="44.40455" lon="2.9721">
        <ele>749.4</ele>
        <time>2022-07-12T11:07:45Z</time>
      </trkpt>
      <trkpt lat="44.4045" lon="2.97209">
        <ele>750.2</ele>
        <time>2022-07-12T11:07:50Z</time>
      </trkpt>
      <trkpt lat="44.40448" lon="2.97209">
        <ele>750.6</ele>
        <time>2022-07-12T11:07:52Z</time>
      </trkpt>
      <trkpt lat="44.40447" lon="2.97209">
        <ele>750.8</ele>
        <time>2022-07-12T11:07:53Z</time>
      </trkpt>
      <trkpt lat="44.40443" lon="2.97209">
        <ele>751.2</ele>
        <time>2022-07-12T11:07:56Z</time>
      </trkpt>
      <trkpt lat="44.4044" lon="2.9721">
        <ele>751.8</ele>
        <time>2022-07-12T11:07:59Z</time>
      </trkpt>
      <trkpt lat="44.40436" lon="2.9721">
        <ele>752.2</ele>
        <time>2022-07-12T11:08:02Z</time>
      </trkpt>
      <trkpt lat="44.40436" lon="2.9721">
        <ele>752.6</ele>
        <time>2022-07-12T11:08:04Z</time>
      </trkpt>
      <trkpt lat="44.40431" lon="2.97209">
        <ele>753.4</ele>
        <time>2022-07-12T11:08:08Z</time>
      </trkpt>
      <trkpt lat="44.40423" lon="2.97204">
        <ele>754.4</ele>
        <time>2022-07-12T11:08:16Z</time>
      </trkpt>
      <trkpt lat="44.40421" lon="2.97203">
        <ele>754.4</ele>
        <time>2022-07-12T11:08:17Z</time>
      </trkpt>
      <trkpt lat="44.4041" lon="2.97201">
        <ele>755.6</ele>
        <time>2022-07-12T11:08:24Z</time>
      </trkpt>
      <trkpt lat="44.40409" lon="2.97201">
        <ele>755.6</ele>
        <time>2022-07-12T11:08:25Z</time>
      </trkpt>
      <trkpt lat="44.40407" lon="2.97201">
        <ele>755.8</ele>
        <time>2022-07-12T11:08:27Z</time>
      </trkpt>
      <trkpt lat="44.40403" lon="2.97202">
        <ele>756.2</ele>
        <time>2022-07-12T11:08:30Z</time>
      </trkpt>
      <trkpt lat="44.40398" lon="2.97202">
        <ele>756.6</ele>
        <time>2022-07-12T11:08:35Z</time>
      </trkpt>
      <trkpt lat="44.40395" lon="2.97201">
        <ele>756.6</ele>
        <time>2022-07-12T11:08:37Z</time>
      </trkpt>
      <trkpt lat="44.40386" lon="2.97198">
        <ele>757.4</ele>
        <time>2022-07-12T11:08:45Z</time>
      </trkpt>
      <trkpt lat="44.40385" lon="2.97197">
        <ele>757.8</ele>
        <time>2022-07-12T11:08:46Z</time>
      </trkpt>
      <trkpt lat="44.40379" lon="2.97196">
        <ele>758.4</ele>
        <time>2022-07-12T11:08:51Z</time>
      </trkpt>
      <trkpt lat="44.40377" lon="2.97194">
        <ele>758.6</ele>
        <time>2022-07-12T11:08:53Z</time>
      </trkpt>
      <trkpt lat="44.40374" lon="2.97193">
        <ele>758.8</ele>
        <time>2022-07-12T11:08:56Z</time>
      </trkpt>
      <trkpt lat="44.40373" lon="2.97193">
        <ele>758.8</ele>
        <time>2022-07-12T11:08:57Z</time>
      </trkpt>
      <trkpt lat="44.40365" lon="2.97192">
        <ele>760</ele>
        <time>2022-07-12T11:09:02Z</time>
      </trkpt>
      <trkpt lat="44.40364" lon="2.97191">
        <ele>760.2</ele>
        <time>2022-07-12T11:09:03Z</time>
      </trkpt>
      <trkpt lat="44.4036" lon="2.97189">
        <ele>761</ele>
        <time>2022-07-12T11:09:07Z</time>
      </trkpt>
      <trkpt lat="44.40356" lon="2.97187">
        <ele>762</ele>
        <time>2022-07-12T11:09:12Z</time>
      </trkpt>
      <trkpt lat="44.40356" lon="2.97186">
        <ele>762.2</ele>
        <time>2022-07-12T11:09:13Z</time>
      </trkpt>
      <trkpt lat="44.40351" lon="2.97185">
        <ele>763.4</ele>
        <time>2022-07-12T11:09:18Z</time>
      </trkpt>
      <trkpt lat="44.40351" lon="2.97184">
        <ele>763.8</ele>
        <time>2022-07-12T11:09:20Z</time>
      </trkpt>
      <trkpt lat="44.40348" lon="2.97184">
        <ele>764.6</ele>
        <time>2022-07-12T11:09:22Z</time>
      </trkpt>
      <trkpt lat="44.40347" lon="2.97184">
        <ele>765.6</ele>
        <time>2022-07-12T11:09:27Z</time>
      </trkpt>
      <trkpt lat="44.40346" lon="2.97184">
        <ele>766</ele>
        <time>2022-07-12T11:09:29Z</time>
      </trkpt>
      <trkpt lat="44.40339" lon="2.97182">
        <ele>766.8</ele>
        <time>2022-07-12T11:09:34Z</time>
      </trkpt>
      <trkpt lat="44.40334" lon="2.97181">
        <ele>767</ele>
        <time>2022-07-12T11:09:37Z</time>
      </trkpt>
      <trkpt lat="44.40332" lon="2.9718">
        <ele>767.8</ele>
        <time>2022-07-12T11:09:39Z</time>
      </trkpt>
      <trkpt lat="44.40326" lon="2.97178">
        <ele>769</ele>
        <time>2022-07-12T11:09:43Z</time>
      </trkpt>
      <trkpt lat="44.40326" lon="2.97177">
        <ele>769</ele>
        <time>2022-07-12T11:09:44Z</time>
      </trkpt>
      <trkpt lat="44.40319" lon="2.97175">
        <ele>769.6</ele>
        <time>2022-07-12T11:09:47Z</time>
      </trkpt>
      <trkpt lat="44.40318" lon="2.97175">
        <ele>769.6</ele>
        <time>2022-07-12T11:09:48Z</time>
      </trkpt>
      <trkpt lat="44.40315" lon="2.97175">
        <ele>770</ele>
        <time>2022-07-12T11:09:50Z</time>
      </trkpt>
      <trkpt lat="44.40308" lon="2.97173">
        <ele>770.6</ele>
        <time>2022-07-12T11:09:54Z</time>
      </trkpt>
      <trkpt lat="44.40308" lon="2.97173">
        <ele>771</ele>
        <time>2022-07-12T11:09:55Z</time>
      </trkpt>
      <trkpt lat="44.40308" lon="2.97173">
        <ele>771.2</ele>
        <time>2022-07-12T11:09:57Z</time>
      </trkpt>
      <trkpt lat="44.40307" lon="2.97172">
        <ele>771.8</ele>
        <time>2022-07-12T11:10:01Z</time>
      </trkpt>
      <trkpt lat="44.40306" lon="2.97172">
        <ele>771.8</ele>
        <time>2022-07-12T11:10:02Z</time>
      </trkpt>
      <trkpt lat="44.40304" lon="2.97172">
        <ele>772</ele>
        <time>2022-07-12T11:10:04Z</time>
      </trkpt>
      <trkpt lat="44.40299" lon="2.97172">
        <ele>772.4</ele>
        <time>2022-07-12T11:10:12Z</time>
      </trkpt>
      <trkpt lat="44.40297" lon="2.97171">
        <ele>773</ele>
        <time>2022-07-12T11:10:18Z</time>
      </trkpt>
      <trkpt lat="44.40296" lon="2.97171">
        <ele>773</ele>
        <time>2022-07-12T11:10:19Z</time>
      </trkpt>
      <trkpt lat="44.40291" lon="2.97171">
        <ele>774</ele>
        <time>2022-07-12T11:10:24Z</time>
      </trkpt>
      <trkpt lat="44.40288" lon="2.97171">
        <ele>774.4</ele>
        <time>2022-07-12T11:10:27Z</time>
      </trkpt>
      <trkpt lat="44.40284" lon="2.9717">
        <ele>775</ele>
        <time>2022-07-12T11:10:31Z</time>
      </trkpt>
      <trkpt lat="44.4028" lon="2.97169">
        <ele>775.8</ele>
        <time>2022-07-12T11:10:36Z</time>
      </trkpt>
      <trkpt lat="44.40277" lon="2.97168">
        <ele>776</ele>
        <time>2022-07-12T11:10:39Z</time>
      </trkpt>
      <trkpt lat="44.40276" lon="2.97168">
        <ele>776.2</ele>
        <time>2022-07-12T11:10:40Z</time>
      </trkpt>
      <trkpt lat="44.40275" lon="2.97168">
        <ele>776.2</ele>
        <time>2022-07-12T11:10:41Z</time>
      </trkpt>
      <trkpt lat="44.40274" lon="2.97169">
        <ele>776.6</ele>
        <time>2022-07-12T11:10:43Z</time>
      </trkpt>
      <trkpt lat="44.40268" lon="2.97169">
        <ele>777.2</ele>
        <time>2022-07-12T11:10:49Z</time>
      </trkpt>
      <trkpt lat="44.40267" lon="2.97169">
        <ele>777.4</ele>
        <time>2022-07-12T11:10:51Z</time>
      </trkpt>
      <trkpt lat="44.4026" lon="2.97167">
        <ele>778.2</ele>
        <time>2022-07-12T11:10:58Z</time>
      </trkpt>
      <trkpt lat="44.40259" lon="2.97167">
        <ele>778.4</ele>
        <time>2022-07-12T11:10:59Z</time>
      </trkpt>
      <trkpt lat="44.40252" lon="2.97166">
        <ele>779</ele>
        <time>2022-07-12T11:11:06Z</time>
      </trkpt>
      <trkpt lat="44.40251" lon="2.97166">
        <ele>779.4</ele>
        <time>2022-07-12T11:11:08Z</time>
      </trkpt>
      <trkpt lat="44.40246" lon="2.97165">
        <ele>780.2</ele>
        <time>2022-07-12T11:11:14Z</time>
      </trkpt>
      <trkpt lat="44.40244" lon="2.97164">
        <ele>780.4</ele>
        <time>2022-07-12T11:11:16Z</time>
      </trkpt>
      <trkpt lat="44.40239" lon="2.97164">
        <ele>781.2</ele>
        <time>2022-07-12T11:11:22Z</time>
      </trkpt>
      <trkpt lat="44.40238" lon="2.97164">
        <ele>781.2</ele>
        <time>2022-07-12T11:11:23Z</time>
      </trkpt>
      <trkpt lat="44.40236" lon="2.97164">
        <ele>781.6</ele>
        <time>2022-07-12T11:11:25Z</time>
      </trkpt>
      <trkpt lat="44.40234" lon="2.97163">
        <ele>782</ele>
        <time>2022-07-12T11:11:27Z</time>
      </trkpt>
      <trkpt lat="44.40233" lon="2.97162">
        <ele>782.6</ele>
        <time>2022-07-12T11:11:30Z</time>
      </trkpt>
      <trkpt lat="44.40232" lon="2.97162">
        <ele>782.6</ele>
        <time>2022-07-12T11:11:31Z</time>
      </trkpt>
      <trkpt lat="44.40231" lon="2.97162">
        <ele>783</ele>
        <time>2022-07-12T11:11:36Z</time>
      </trkpt>
      <trkpt lat="44.40228" lon="2.97161">
        <ele>783.6</ele>
        <time>2022-07-12T11:11:39Z</time>
      </trkpt>
      <trkpt lat="44.40223" lon="2.97161">
        <ele>784.2</ele>
        <time>2022-07-12T11:11:44Z</time>
      </trkpt>
      <trkpt lat="44.4022" lon="2.9716">
        <ele>784.8</ele>
        <time>2022-07-12T11:11:48Z</time>
      </trkpt>
      <trkpt lat="44.40214" lon="2.97161">
        <ele>785.6</ele>
        <time>2022-07-12T11:11:53Z</time>
      </trkpt>
      <trkpt lat="44.40212" lon="2.9716">
        <ele>785.8</ele>
        <time>2022-07-12T11:11:55Z</time>
      </trkpt>
      <trkpt lat="44.40209" lon="2.9716">
        <ele>786.4</ele>
        <time>2022-07-12T11:11:59Z</time>
      </trkpt>
      <trkpt lat="44.40209" lon="2.9716">
        <ele>786.6</ele>
        <time>2022-07-12T11:12:01Z</time>
      </trkpt>
      <trkpt lat="44.40208" lon="2.97159">
        <ele>787</ele>
        <time>2022-07-12T11:12:02Z</time>
      </trkpt>
      <trkpt lat="44.40204" lon="2.97157">
        <ele>788</ele>
        <time>2022-07-12T11:12:06Z</time>
      </trkpt>
      <trkpt lat="44.40201" lon="2.97158">
        <ele>788.4</ele>
        <time>2022-07-12T11:12:09Z</time>
      </trkpt>
      <trkpt lat="44.40197" lon="2.97159">
        <ele>789.2</ele>
        <time>2022-07-12T11:12:13Z</time>
      </trkpt>
      <trkpt lat="44.40191" lon="2.9716">
        <ele>790.2</ele>
        <time>2022-07-12T11:12:19Z</time>
      </trkpt>
      <trkpt lat="44.40186" lon="2.97162">
        <ele>791.4</ele>
        <time>2022-07-12T11:12:26Z</time>
      </trkpt>
      <trkpt lat="44.40182" lon="2.97164">
        <ele>792</ele>
        <time>2022-07-12T11:12:29Z</time>
      </trkpt>
      <trkpt lat="44.40175" lon="2.97168">
        <ele>792.4</ele>
        <time>2022-07-12T11:12:36Z</time>
      </trkpt>
      <trkpt lat="44.40174" lon="2.97169">
        <ele>792.6</ele>
        <time>2022-07-12T11:12:38Z</time>
      </trkpt>
      <trkpt lat="44.40167" lon="2.97172">
        <ele>793.2</ele>
        <time>2022-07-12T11:12:47Z</time>
      </trkpt>
      <trkpt lat="44.40166" lon="2.97174">
        <ele>793.8</ele>
        <time>2022-07-12T11:12:53Z</time>
      </trkpt>
      <trkpt lat="44.40158" lon="2.97179">
        <ele>793.6</ele>
        <time>2022-07-12T11:13:01Z</time>
      </trkpt>
      <trkpt lat="44.40154" lon="2.97177">
        <ele>793.4</ele>
        <time>2022-07-12T11:13:06Z</time>
      </trkpt>
      <trkpt lat="44.40154" lon="2.97177">
        <ele>793.2</ele>
        <time>2022-07-12T11:13:07Z</time>
      </trkpt>
      <trkpt lat="44.40149" lon="2.97177">
        <ele>793.2</ele>
        <time>2022-07-12T11:13:14Z</time>
      </trkpt>
      <trkpt lat="44.40149" lon="2.97177">
        <ele>793.2</ele>
        <time>2022-07-12T11:13:15Z</time>
      </trkpt>
      <trkpt lat="44.40147" lon="2.97178">
        <ele>793.8</ele>
        <time>2022-07-12T11:13:55Z</time>
      </trkpt>
      <trkpt lat="44.40144" lon="2.97182">
        <ele>793.8</ele>
        <time>2022-07-12T11:13:59Z</time>
      </trkpt>
      <trkpt lat="44.40145" lon="2.97181">
        <ele>793.8</ele>
        <time>2022-07-12T11:14:03Z</time>
      </trkpt>
      <trkpt lat="44.40143" lon="2.9718">
        <ele>793.4</ele>
        <time>2022-07-12T11:14:30Z</time>
      </trkpt>
      <trkpt lat="44.40133" lon="2.97178">
        <ele>793.4</ele>
        <time>2022-07-12T11:14:38Z</time>
      </trkpt>
      <trkpt lat="44.4012" lon="2.97181">
        <ele>793.2</ele>
        <time>2022-07-12T11:14:43Z</time>
      </trkpt>
      <trkpt lat="44.40103" lon="2.97193">
        <ele>792.6</ele>
        <time>2022-07-12T11:14:48Z</time>
      </trkpt>
      <trkpt lat="44.40099" lon="2.97195">
        <ele>792.2</ele>
        <time>2022-07-12T11:14:49Z</time>
      </trkpt>
      <trkpt lat="44.40088" lon="2.97199">
        <ele>791</ele>
        <time>2022-07-12T11:14:53Z</time>
      </trkpt>
      <trkpt lat="44.40086" lon="2.97199">
        <ele>790.6</ele>
        <time>2022-07-12T11:14:54Z</time>
      </trkpt>
      <trkpt lat="44.4008" lon="2.97199">
        <ele>789.4</ele>
        <time>2022-07-12T11:14:56Z</time>
      </trkpt>
      <trkpt lat="44.40074" lon="2.972">
        <ele>788.2</ele>
        <time>2022-07-12T11:14:58Z</time>
      </trkpt>
      <trkpt lat="44.40066" lon="2.97202">
        <ele>787</ele>
        <time>2022-07-12T11:15:01Z</time>
      </trkpt>
      <trkpt lat="44.40057" lon="2.972">
        <ele>786</ele>
        <time>2022-07-12T11:15:04Z</time>
      </trkpt>
      <trkpt lat="44.40051" lon="2.972">
        <ele>784.8</ele>
        <time>2022-07-12T11:15:06Z</time>
      </trkpt>
      <trkpt lat="44.40041" lon="2.97199">
        <ele>783.8</ele>
        <time>2022-07-12T11:15:09Z</time>
      </trkpt>
      <trkpt lat="44.40031" lon="2.97201">
        <ele>782</ele>
        <time>2022-07-12T11:15:12Z</time>
      </trkpt>
      <trkpt lat="44.40028" lon="2.97204">
        <ele>780.6</ele>
        <time>2022-07-12T11:15:14Z</time>
      </trkpt>
      <trkpt lat="44.40027" lon="2.97204">
        <ele>779.4</ele>
        <time>2022-07-12T11:15:16Z</time>
      </trkpt>
      <trkpt lat="44.40027" lon="2.97204">
        <ele>779</ele>
        <time>2022-07-12T11:15:17Z</time>
      </trkpt>
      <trkpt lat="44.40026" lon="2.97204">
        <ele>777</ele>
        <time>2022-07-12T11:15:32Z</time>
      </trkpt>
      <trkpt lat="44.40025" lon="2.97204">
        <ele>777</ele>
        <time>2022-07-12T11:15:33Z</time>
      </trkpt>
      <trkpt lat="44.40018" lon="2.97204">
        <ele>776.6</ele>
        <time>2022-07-12T11:15:37Z</time>
      </trkpt>
      <trkpt lat="44.40006" lon="2.97197">
        <ele>775.4</ele>
        <time>2022-07-12T11:15:41Z</time>
      </trkpt>
      <trkpt lat="44.39998" lon="2.9719">
        <ele>774.2</ele>
        <time>2022-07-12T11:15:44Z</time>
      </trkpt>
      <trkpt lat="44.39993" lon="2.97185">
        <ele>773.4</ele>
        <time>2022-07-12T11:15:46Z</time>
      </trkpt>
      <trkpt lat="44.3999" lon="2.97182">
        <ele>772.8</ele>
        <time>2022-07-12T11:15:47Z</time>
      </trkpt>
      <trkpt lat="44.39984" lon="2.97174">
        <ele>771.6</ele>
        <time>2022-07-12T11:15:49Z</time>
      </trkpt>
      <trkpt lat="44.39978" lon="2.97167">
        <ele>770.6</ele>
        <time>2022-07-12T11:15:51Z</time>
      </trkpt>
      <trkpt lat="44.39973" lon="2.97159">
        <ele>769.6</ele>
        <time>2022-07-12T11:15:53Z</time>
      </trkpt>
      <trkpt lat="44.39971" lon="2.97155">
        <ele>768.6</ele>
        <time>2022-07-12T11:15:54Z</time>
      </trkpt>
      <trkpt lat="44.39966" lon="2.97143">
        <ele>766.6</ele>
        <time>2022-07-12T11:15:57Z</time>
      </trkpt>
      <trkpt lat="44.39965" lon="2.9714">
        <ele>766.4</ele>
        <time>2022-07-12T11:15:58Z</time>
      </trkpt>
      <trkpt lat="44.39965" lon="2.97138">
        <ele>765.6</ele>
        <time>2022-07-12T11:15:59Z</time>
      </trkpt>
      <trkpt lat="44.39964" lon="2.97136">
        <ele>765.2</ele>
        <time>2022-07-12T11:16:00Z</time>
      </trkpt>
      <trkpt lat="44.39963" lon="2.97135">
        <ele>764.6</ele>
        <time>2022-07-12T11:16:01Z</time>
      </trkpt>
      <trkpt lat="44.3996" lon="2.97136">
        <ele>764.2</ele>
        <time>2022-07-12T11:16:02Z</time>
      </trkpt>
      <trkpt lat="44.39958" lon="2.97137">
        <ele>763.2</ele>
        <time>2022-07-12T11:16:03Z</time>
      </trkpt>
      <trkpt lat="44.39951" lon="2.97147">
        <ele>762</ele>
        <time>2022-07-12T11:16:06Z</time>
      </trkpt>
      <trkpt lat="44.39948" lon="2.97151">
        <ele>761.8</ele>
        <time>2022-07-12T11:16:07Z</time>
      </trkpt>
      <trkpt lat="44.39941" lon="2.97165">
        <ele>760.4</ele>
        <time>2022-07-12T11:16:10Z</time>
      </trkpt>
      <trkpt lat="44.39934" lon="2.97181">
        <ele>759</ele>
        <time>2022-07-12T11:16:13Z</time>
      </trkpt>
      <trkpt lat="44.3993" lon="2.97191">
        <ele>757.6</ele>
        <time>2022-07-12T11:16:15Z</time>
      </trkpt>
      <trkpt lat="44.39929" lon="2.97198">
        <ele>756.4</ele>
        <time>2022-07-12T11:16:17Z</time>
      </trkpt>
      <trkpt lat="44.39928" lon="2.97201">
        <ele>756</ele>
        <time>2022-07-12T11:16:18Z</time>
      </trkpt>
      <trkpt lat="44.39927" lon="2.97207">
        <ele>754.4</ele>
        <time>2022-07-12T11:16:21Z</time>
      </trkpt>
      <trkpt lat="44.39927" lon="2.97209">
        <ele>753</ele>
        <time>2022-07-12T11:16:22Z</time>
      </trkpt>
      <trkpt lat="44.39927" lon="2.97212">
        <ele>752.6</ele>
        <time>2022-07-12T11:16:23Z</time>
      </trkpt>
      <trkpt lat="44.39926" lon="2.97214">
        <ele>751.8</ele>
        <time>2022-07-12T11:16:24Z</time>
      </trkpt>
      <trkpt lat="44.39924" lon="2.97227">
        <ele>750.6</ele>
        <time>2022-07-12T11:16:28Z</time>
      </trkpt>
      <trkpt lat="44.39923" lon="2.97234">
        <ele>749.6</ele>
        <time>2022-07-12T11:16:30Z</time>
      </trkpt>
      <trkpt lat="44.39922" lon="2.97245">
        <ele>748.2</ele>
        <time>2022-07-12T11:16:33Z</time>
      </trkpt>
      <trkpt lat="44.39919" lon="2.97256">
        <ele>747.4</ele>
        <time>2022-07-12T11:16:36Z</time>
      </trkpt>
      <trkpt lat="44.39918" lon="2.9726">
        <ele>747</ele>
        <time>2022-07-12T11:16:37Z</time>
      </trkpt>
      <trkpt lat="44.39915" lon="2.97268">
        <ele>746</ele>
        <time>2022-07-12T11:16:39Z</time>
      </trkpt>
      <trkpt lat="44.39913" lon="2.97271">
        <ele>745</ele>
        <time>2022-07-12T11:16:40Z</time>
      </trkpt>
      <trkpt lat="44.39908" lon="2.97281">
        <ele>743.8</ele>
        <time>2022-07-12T11:16:43Z</time>
      </trkpt>
      <trkpt lat="44.39905" lon="2.97286">
        <ele>742.8</ele>
        <time>2022-07-12T11:16:45Z</time>
      </trkpt>
      <trkpt lat="44.39904" lon="2.97287">
        <ele>742.2</ele>
        <time>2022-07-12T11:16:46Z</time>
      </trkpt>
      <trkpt lat="44.39902" lon="2.97287">
        <ele>741.2</ele>
        <time>2022-07-12T11:16:47Z</time>
      </trkpt>
      <trkpt lat="44.39901" lon="2.97287">
        <ele>740.8</ele>
        <time>2022-07-12T11:16:48Z</time>
      </trkpt>
      <trkpt lat="44.39901" lon="2.97285">
        <ele>739.8</ele>
        <time>2022-07-12T11:16:50Z</time>
      </trkpt>
      <trkpt lat="44.39901" lon="2.97285">
        <ele>738.8</ele>
        <time>2022-07-12T11:16:51Z</time>
      </trkpt>
      <trkpt lat="44.39898" lon="2.97278">
        <ele>737.6</ele>
        <time>2022-07-12T11:16:54Z</time>
      </trkpt>
      <trkpt lat="44.39896" lon="2.97275">
        <ele>737</ele>
        <time>2022-07-12T11:16:55Z</time>
      </trkpt>
      <trkpt lat="44.39894" lon="2.97272">
        <ele>736.4</ele>
        <time>2022-07-12T11:16:56Z</time>
      </trkpt>
      <trkpt lat="44.39888" lon="2.97265">
        <ele>735.2</ele>
        <time>2022-07-12T11:16:59Z</time>
      </trkpt>
      <trkpt lat="44.39885" lon="2.9726">
        <ele>734.2</ele>
        <time>2022-07-12T11:17:01Z</time>
      </trkpt>
      <trkpt lat="44.39883" lon="2.97257">
        <ele>733.4</ele>
        <time>2022-07-12T11:17:03Z</time>
      </trkpt>
      <trkpt lat="44.39881" lon="2.97255">
        <ele>732.4</ele>
        <time>2022-07-12T11:17:04Z</time>
      </trkpt>
      <trkpt lat="44.39878" lon="2.97251">
        <ele>731.4</ele>
        <time>2022-07-12T11:17:06Z</time>
      </trkpt>
      <trkpt lat="44.39874" lon="2.97245">
        <ele>730.4</ele>
        <time>2022-07-12T11:17:08Z</time>
      </trkpt>
      <trkpt lat="44.39872" lon="2.97241">
        <ele>729.8</ele>
        <time>2022-07-12T11:17:09Z</time>
      </trkpt>
      <trkpt lat="44.39859" lon="2.97233">
        <ele>728.4</ele>
        <time>2022-07-12T11:17:12Z</time>
      </trkpt>
      <trkpt lat="44.39856" lon="2.97232">
        <ele>727.2</ele>
        <time>2022-07-12T11:17:14Z</time>
      </trkpt>
      <trkpt lat="44.39855" lon="2.97232">
        <ele>727</ele>
        <time>2022-07-12T11:17:15Z</time>
      </trkpt>
      <trkpt lat="44.39853" lon="2.97232">
        <ele>726.6</ele>
        <time>2022-07-12T11:17:16Z</time>
      </trkpt>
      <trkpt lat="44.39848" lon="2.97232">
        <ele>726.2</ele>
        <time>2022-07-12T11:17:18Z</time>
      </trkpt>
      <trkpt lat="44.39842" lon="2.9723">
        <ele>725</ele>
        <time>2022-07-12T11:17:21Z</time>
      </trkpt>
      <trkpt lat="44.39834" lon="2.97229">
        <ele>723.8</ele>
        <time>2022-07-12T11:17:23Z</time>
      </trkpt>
      <trkpt lat="44.39831" lon="2.97228">
        <ele>722.6</ele>
        <time>2022-07-12T11:17:25Z</time>
      </trkpt>
      <trkpt lat="44.39831" lon="2.97228">
        <ele>721.8</ele>
        <time>2022-07-12T11:17:27Z</time>
      </trkpt>
      <trkpt lat="44.39824" lon="2.97224">
        <ele>718.8</ele>
        <time>2022-07-12T11:17:34Z</time>
      </trkpt>
      <trkpt lat="44.39813" lon="2.97224">
        <ele>718.2</ele>
        <time>2022-07-12T11:17:36Z</time>
      </trkpt>
      <trkpt lat="44.39806" lon="2.97227">
        <ele>717.6</ele>
        <time>2022-07-12T11:17:38Z</time>
      </trkpt>
      <trkpt lat="44.39799" lon="2.97229">
        <ele>716.6</ele>
        <time>2022-07-12T11:17:40Z</time>
      </trkpt>
      <trkpt lat="44.39796" lon="2.97231">
        <ele>715.8</ele>
        <time>2022-07-12T11:17:41Z</time>
      </trkpt>
      <trkpt lat="44.39775" lon="2.97242">
        <ele>714.6</ele>
        <time>2022-07-12T11:17:45Z</time>
      </trkpt>
      <trkpt lat="44.39751" lon="2.97247">
        <ele>713.4</ele>
        <time>2022-07-12T11:17:48Z</time>
      </trkpt>
      <trkpt lat="44.39747" lon="2.97248">
        <ele>713.2</ele>
        <time>2022-07-12T11:17:49Z</time>
      </trkpt>
      <trkpt lat="44.39726" lon="2.97256">
        <ele>712.2</ele>
        <time>2022-07-12T11:17:52Z</time>
      </trkpt>
      <trkpt lat="44.39709" lon="2.97269">
        <ele>711.4</ele>
        <time>2022-07-12T11:17:55Z</time>
      </trkpt>
      <trkpt lat="44.39706" lon="2.97271">
        <ele>711.2</ele>
        <time>2022-07-12T11:17:56Z</time>
      </trkpt>
      <trkpt lat="44.39696" lon="2.97279">
        <ele>710.6</ele>
        <time>2022-07-12T11:17:59Z</time>
      </trkpt>
      <trkpt lat="44.3969" lon="2.97287">
        <ele>710</ele>
        <time>2022-07-12T11:18:02Z</time>
      </trkpt>
      <trkpt lat="44.39686" lon="2.97291">
        <ele>709.4</ele>
        <time>2022-07-12T11:18:04Z</time>
      </trkpt>
      <trkpt lat="44.39678" lon="2.9729">
        <ele>708.8</ele>
        <time>2022-07-12T11:18:06Z</time>
      </trkpt>
      <trkpt lat="44.39674" lon="2.97289">
        <ele>708.2</ele>
        <time>2022-07-12T11:18:08Z</time>
      </trkpt>
      <trkpt lat="44.39671" lon="2.97287">
        <ele>707.6</ele>
        <time>2022-07-12T11:18:10Z</time>
      </trkpt>
      <trkpt lat="44.3967" lon="2.97287">
        <ele>706</ele>
        <time>2022-07-12T11:18:12Z</time>
      </trkpt>
      <trkpt lat="44.3967" lon="2.97287">
        <ele>705.2</ele>
        <time>2022-07-12T11:18:13Z</time>
      </trkpt>
      <trkpt lat="44.39655" lon="2.97289">
        <ele>703</ele>
        <time>2022-07-12T11:19:38Z</time>
      </trkpt>
      <trkpt lat="44.39649" lon="2.9729">
        <ele>703</ele>
        <time>2022-07-12T11:19:41Z</time>
      </trkpt>
      <trkpt lat="44.39639" lon="2.97291">
        <ele>703.2</ele>
        <time>2022-07-12T11:19:47Z</time>
      </trkpt>
      <trkpt lat="44.39636" lon="2.97292">
        <ele>703.2</ele>
        <time>2022-07-12T11:19:49Z</time>
      </trkpt>
      <trkpt lat="44.39634" lon="2.97292">
        <ele>703.4</ele>
        <time>2022-07-12T11:19:50Z</time>
      </trkpt>
      <trkpt lat="44.39628" lon="2.97293">
        <ele>703.8</ele>
        <time>2022-07-12T11:19:53Z</time>
      </trkpt>
      <trkpt lat="44.39626" lon="2.97294">
        <ele>704</ele>
        <time>2022-07-12T11:19:54Z</time>
      </trkpt>
      <trkpt lat="44.39613" lon="2.97299">
        <ele>704.6</ele>
        <time>2022-07-12T11:19:59Z</time>
      </trkpt>
      <trkpt lat="44.39588" lon="2.97303">
        <ele>704.6</ele>
        <time>2022-07-12T11:20:04Z</time>
      </trkpt>
      <trkpt lat="44.39569" lon="2.97312">
        <ele>704</ele>
        <time>2022-07-12T11:20:09Z</time>
      </trkpt>
      <trkpt lat="44.39555" lon="2.9731">
        <ele>703.2</ele>
        <time>2022-07-12T11:20:13Z</time>
      </trkpt>
      <trkpt lat="44.39546" lon="2.97308">
        <ele>702.6</ele>
        <time>2022-07-12T11:20:15Z</time>
      </trkpt>
      <trkpt lat="44.3954" lon="2.97309">
        <ele>701.6</ele>
        <time>2022-07-12T11:20:17Z</time>
      </trkpt>
      <trkpt lat="44.39534" lon="2.97311">
        <ele>700.8</ele>
        <time>2022-07-12T11:20:19Z</time>
      </trkpt>
      <trkpt lat="44.39532" lon="2.97312">
        <ele>700.6</ele>
        <time>2022-07-12T11:20:20Z</time>
      </trkpt>
      <trkpt lat="44.39528" lon="2.97314">
        <ele>699.4</ele>
        <time>2022-07-12T11:20:22Z</time>
      </trkpt>
      <trkpt lat="44.39521" lon="2.97312">
        <ele>698.4</ele>
        <time>2022-07-12T11:20:24Z</time>
      </trkpt>
      <trkpt lat="44.39513" lon="2.97312">
        <ele>697.4</ele>
        <time>2022-07-12T11:20:26Z</time>
      </trkpt>
      <trkpt lat="44.39499" lon="2.97309">
        <ele>695.4</ele>
        <time>2022-07-12T11:20:29Z</time>
      </trkpt>
      <trkpt lat="44.39495" lon="2.9731">
        <ele>695</ele>
        <time>2022-07-12T11:20:30Z</time>
      </trkpt>
      <trkpt lat="44.39484" lon="2.97316">
        <ele>694</ele>
        <time>2022-07-12T11:20:32Z</time>
      </trkpt>
      <trkpt lat="44.39479" lon="2.97319">
        <ele>692.2</ele>
        <time>2022-07-12T11:20:33Z</time>
      </trkpt>
      <trkpt lat="44.39473" lon="2.97319">
        <ele>691.6</ele>
        <time>2022-07-12T11:20:34Z</time>
      </trkpt>
      <trkpt lat="44.39468" lon="2.97321">
        <ele>690.6</ele>
        <time>2022-07-12T11:20:35Z</time>
      </trkpt>
      <trkpt lat="44.39463" lon="2.97324">
        <ele>690.2</ele>
        <time>2022-07-12T11:20:36Z</time>
      </trkpt>
      <trkpt lat="44.39456" lon="2.97333">
        <ele>688.8</ele>
        <time>2022-07-12T11:20:38Z</time>
      </trkpt>
      <trkpt lat="44.39449" lon="2.97341">
        <ele>687.4</ele>
        <time>2022-07-12T11:20:40Z</time>
      </trkpt>
      <trkpt lat="44.39441" lon="2.97341">
        <ele>686.2</ele>
        <time>2022-07-12T11:20:42Z</time>
      </trkpt>
      <trkpt lat="44.39433" lon="2.9734">
        <ele>685.4</ele>
        <time>2022-07-12T11:20:44Z</time>
      </trkpt>
      <trkpt lat="44.39426" lon="2.97336">
        <ele>685</ele>
        <time>2022-07-12T11:20:46Z</time>
      </trkpt>
      <trkpt lat="44.39415" lon="2.97334">
        <ele>684.4</ele>
        <time>2022-07-12T11:20:49Z</time>
      </trkpt>
      <trkpt lat="44.39402" lon="2.97336">
        <ele>684</ele>
        <time>2022-07-12T11:20:52Z</time>
      </trkpt>
      <trkpt lat="44.3939" lon="2.97341">
        <ele>683.4</ele>
        <time>2022-07-12T11:20:55Z</time>
      </trkpt>
      <trkpt lat="44.39376" lon="2.97349">
        <ele>682.8</ele>
        <time>2022-07-12T11:20:59Z</time>
      </trkpt>
      <trkpt lat="44.3937" lon="2.97353">
        <ele>682.6</ele>
        <time>2022-07-12T11:21:01Z</time>
      </trkpt>
      <trkpt lat="44.39355" lon="2.97358">
        <ele>682.4</ele>
        <time>2022-07-12T11:21:07Z</time>
      </trkpt>
      <trkpt lat="44.39348" lon="2.97354">
        <ele>682.2</ele>
        <time>2022-07-12T11:21:11Z</time>
      </trkpt>
      <trkpt lat="44.39339" lon="2.97348">
        <ele>682.6</ele>
        <time>2022-07-12T11:21:17Z</time>
      </trkpt>
      <trkpt lat="44.39333" lon="2.97343">
        <ele>682.8</ele>
        <time>2022-07-12T11:21:20Z</time>
      </trkpt>
      <trkpt lat="44.39322" lon="2.97334">
        <ele>683</ele>
        <time>2022-07-12T11:21:24Z</time>
      </trkpt>
      <trkpt lat="44.39305" lon="2.97322">
        <ele>682.4</ele>
        <time>2022-07-12T11:21:29Z</time>
      </trkpt>
      <trkpt lat="44.39297" lon="2.97316">
        <ele>681.8</ele>
        <time>2022-07-12T11:21:31Z</time>
      </trkpt>
      <trkpt lat="44.39281" lon="2.97305">
        <ele>681.2</ele>
        <time>2022-07-12T11:21:34Z</time>
      </trkpt>
      <trkpt lat="44.39262" lon="2.97294">
        <ele>680.4</ele>
        <time>2022-07-12T11:21:37Z</time>
      </trkpt>
      <trkpt lat="44.39253" lon="2.97291">
        <ele>680.2</ele>
        <time>2022-07-12T11:21:38Z</time>
      </trkpt>
      <trkpt lat="44.39237" lon="2.97283">
        <ele>679.4</ele>
        <time>2022-07-12T11:21:43Z</time>
      </trkpt>
      <trkpt lat="44.39235" lon="2.97281">
        <ele>679</ele>
        <time>2022-07-12T11:21:44Z</time>
      </trkpt>
      <trkpt lat="44.39225" lon="2.97278">
        <ele>678.4</ele>
        <time>2022-07-12T11:21:48Z</time>
      </trkpt>
      <trkpt lat="44.39202" lon="2.97274">
        <ele>678.2</ele>
        <time>2022-07-12T11:21:54Z</time>
      </trkpt>
      <trkpt lat="44.39166" lon="2.97263">
        <ele>678.6</ele>
        <time>2022-07-12T11:22:03Z</time>
      </trkpt>
      <trkpt lat="44.39145" lon="2.97257">
        <ele>679.2</ele>
        <time>2022-07-12T11:22:09Z</time>
      </trkpt>
      <trkpt lat="44.39129" lon="2.97246">
        <ele>679</ele>
        <time>2022-07-12T11:22:14Z</time>
      </trkpt>
      <trkpt lat="44.39108" lon="2.97225">
        <ele>679.4</ele>
        <time>2022-07-12T11:22:21Z</time>
      </trkpt>
      <trkpt lat="44.39093" lon="2.97208">
        <ele>679.8</ele>
        <time>2022-07-12T11:22:28Z</time>
      </trkpt>
      <trkpt lat="44.3909" lon="2.97205">
        <ele>680.2</ele>
        <time>2022-07-12T11:22:32Z</time>
      </trkpt>
      <trkpt lat="44.39084" lon="2.97204">
        <ele>680.2</ele>
        <time>2022-07-12T11:22:34Z</time>
      </trkpt>
      <trkpt lat="44.39082" lon="2.97205">
        <ele>680.4</ele>
        <time>2022-07-12T11:22:35Z</time>
      </trkpt>
      <trkpt lat="44.39078" lon="2.97204">
        <ele>680.8</ele>
        <time>2022-07-12T11:22:38Z</time>
      </trkpt>
      <trkpt lat="44.39074" lon="2.97204">
        <ele>681.4</ele>
        <time>2022-07-12T11:22:43Z</time>
      </trkpt>
      <trkpt lat="44.39072" lon="2.97204">
        <ele>681.8</ele>
        <time>2022-07-12T11:22:45Z</time>
      </trkpt>
      <trkpt lat="44.39067" lon="2.97204">
        <ele>682.6</ele>
        <time>2022-07-12T11:22:48Z</time>
      </trkpt>
      <trkpt lat="44.39066" lon="2.97205">
        <ele>682.8</ele>
        <time>2022-07-12T11:22:49Z</time>
      </trkpt>
      <trkpt lat="44.3906" lon="2.97206">
        <ele>682.8</ele>
        <time>2022-07-12T11:22:51Z</time>
      </trkpt>
      <trkpt lat="44.39039" lon="2.97209">
        <ele>683.6</ele>
        <time>2022-07-12T11:22:58Z</time>
      </trkpt>
      <trkpt lat="44.39037" lon="2.9721">
        <ele>683.8</ele>
        <time>2022-07-12T11:22:59Z</time>
      </trkpt>
      <trkpt lat="44.39022" lon="2.97212">
        <ele>684.4</ele>
        <time>2022-07-12T11:23:06Z</time>
      </trkpt>
      <trkpt lat="44.39018" lon="2.97211">
        <ele>684.6</ele>
        <time>2022-07-12T11:23:08Z</time>
      </trkpt>
      <trkpt lat="44.39004" lon="2.97213">
        <ele>685.6</ele>
        <time>2022-07-12T11:23:15Z</time>
      </trkpt>
      <trkpt lat="44.38991" lon="2.97215">
        <ele>686.4</ele>
        <time>2022-07-12T11:23:20Z</time>
      </trkpt>
      <trkpt lat="44.38987" lon="2.97216">
        <ele>686.6</ele>
        <time>2022-07-12T11:23:22Z</time>
      </trkpt>
      <trkpt lat="44.38986" lon="2.97216">
        <ele>686.6</ele>
        <time>2022-07-12T11:23:23Z</time>
      </trkpt>
      <trkpt lat="44.38971" lon="2.97218">
        <ele>687.6</ele>
        <time>2022-07-12T11:23:28Z</time>
      </trkpt>
      <trkpt lat="44.38964" lon="2.9722">
        <ele>688</ele>
        <time>2022-07-12T11:23:30Z</time>
      </trkpt>
      <trkpt lat="44.38961" lon="2.97221">
        <ele>688</ele>
        <time>2022-07-12T11:23:31Z</time>
      </trkpt>
      <trkpt lat="44.38954" lon="2.9722">
        <ele>688.6</ele>
        <time>2022-07-12T11:23:35Z</time>
      </trkpt>
      <trkpt lat="44.38952" lon="2.97221">
        <ele>689</ele>
        <time>2022-07-12T11:23:36Z</time>
      </trkpt>
      <trkpt lat="44.38945" lon="2.97224">
        <ele>689.8</ele>
        <time>2022-07-12T11:23:41Z</time>
      </trkpt>
      <trkpt lat="44.3894" lon="2.97225">
        <ele>690</ele>
        <time>2022-07-12T11:23:43Z</time>
      </trkpt>
      <trkpt lat="44.38932" lon="2.97228">
        <ele>691.2</ele>
        <time>2022-07-12T11:23:48Z</time>
      </trkpt>
      <trkpt lat="44.38931" lon="2.97229">
        <ele>691.4</ele>
        <time>2022-07-12T11:23:49Z</time>
      </trkpt>
      <trkpt lat="44.38914" lon="2.97231">
        <ele>692</ele>
        <time>2022-07-12T11:23:57Z</time>
      </trkpt>
      <trkpt lat="44.38911" lon="2.97231">
        <ele>692.2</ele>
        <time>2022-07-12T11:23:58Z</time>
      </trkpt>
      <trkpt lat="44.38897" lon="2.97228">
        <ele>693</ele>
        <time>2022-07-12T11:24:05Z</time>
      </trkpt>
      <trkpt lat="44.38893" lon="2.97228">
        <ele>693.2</ele>
        <time>2022-07-12T11:24:07Z</time>
      </trkpt>
      <trkpt lat="44.38879" lon="2.97225">
        <ele>694.2</ele>
        <time>2022-07-12T11:24:14Z</time>
      </trkpt>
      <trkpt lat="44.38878" lon="2.97225">
        <ele>694.2</ele>
        <time>2022-07-12T11:24:15Z</time>
      </trkpt>
      <trkpt lat="44.38878" lon="2.97224">
        <ele>694.4</ele>
        <time>2022-07-12T11:24:16Z</time>
      </trkpt>
      <trkpt lat="44.38879" lon="2.97224">
        <ele>694.6</ele>
        <time>2022-07-12T11:24:18Z</time>
      </trkpt>
      <trkpt lat="44.3888" lon="2.97224">
        <ele>694.6</ele>
        <time>2022-07-12T11:24:19Z</time>
      </trkpt>
      <trkpt lat="44.38882" lon="2.97228">
        <ele>694.6</ele>
        <time>2022-07-12T11:24:21Z</time>
      </trkpt>
      <trkpt lat="44.38883" lon="2.9723">
        <ele>694.6</ele>
        <time>2022-07-12T11:24:22Z</time>
      </trkpt>
      <trkpt lat="44.38885" lon="2.9723">
        <ele>694.6</ele>
        <time>2022-07-12T11:24:23Z</time>
      </trkpt>
      <trkpt lat="44.38893" lon="2.97231">
        <ele>694</ele>
        <time>2022-07-12T11:24:28Z</time>
      </trkpt>
      <trkpt lat="44.38895" lon="2.97235">
        <ele>693.6</ele>
        <time>2022-07-12T11:24:32Z</time>
      </trkpt>
      <trkpt lat="44.38895" lon="2.97235">
        <ele>693.4</ele>
        <time>2022-07-12T11:24:34Z</time>
      </trkpt>
      <trkpt lat="44.38891" lon="2.97233">
        <ele>694</ele>
        <time>2022-07-12T11:26:06Z</time>
      </trkpt>
      <trkpt lat="44.3889" lon="2.97232">
        <ele>693.8</ele>
        <time>2022-07-12T11:26:07Z</time>
      </trkpt>
      <trkpt lat="44.38873" lon="2.97229">
        <ele>694</ele>
        <time>2022-07-12T11:26:15Z</time>
      </trkpt>
      <trkpt lat="44.38858" lon="2.97227">
        <ele>694.8</ele>
        <time>2022-07-12T11:26:21Z</time>
      </trkpt>
      <trkpt lat="44.38855" lon="2.97226">
        <ele>695</ele>
        <time>2022-07-12T11:26:23Z</time>
      </trkpt>
      <trkpt lat="44.38836" lon="2.97227">
        <ele>695.8</ele>
        <time>2022-07-12T11:26:30Z</time>
      </trkpt>
      <trkpt lat="44.38835" lon="2.97228">
        <ele>696.2</ele>
        <time>2022-07-12T11:26:31Z</time>
      </trkpt>
      <trkpt lat="44.38821" lon="2.97233">
        <ele>696.4</ele>
        <time>2022-07-12T11:26:37Z</time>
      </trkpt>
      <trkpt lat="44.38814" lon="2.97239">
        <ele>697</ele>
        <time>2022-07-12T11:26:41Z</time>
      </trkpt>
      <trkpt lat="44.38809" lon="2.97245">
        <ele>697.4</ele>
        <time>2022-07-12T11:26:45Z</time>
      </trkpt>
      <trkpt lat="44.38802" lon="2.97253">
        <ele>698</ele>
        <time>2022-07-12T11:26:50Z</time>
      </trkpt>
      <trkpt lat="44.38798" lon="2.97259">
        <ele>698.2</ele>
        <time>2022-07-12T11:26:53Z</time>
      </trkpt>
      <trkpt lat="44.3879" lon="2.97274">
        <ele>699.2</ele>
        <time>2022-07-12T11:27:00Z</time>
      </trkpt>
      <trkpt lat="44.38782" lon="2.97296">
        <ele>700.2</ele>
        <time>2022-07-12T11:27:08Z</time>
      </trkpt>
      <trkpt lat="44.38781" lon="2.97299">
        <ele>700.4</ele>
        <time>2022-07-12T11:27:09Z</time>
      </trkpt>
      <trkpt lat="44.38771" lon="2.97324">
        <ele>701.6</ele>
        <time>2022-07-12T11:27:18Z</time>
      </trkpt>
      <trkpt lat="44.38767" lon="2.97332">
        <ele>702</ele>
        <time>2022-07-12T11:27:21Z</time>
      </trkpt>
      <trkpt lat="44.38764" lon="2.97345">
        <ele>702.6</ele>
        <time>2022-07-12T11:27:25Z</time>
      </trkpt>
      <trkpt lat="44.38763" lon="2.97348">
        <ele>702.6</ele>
        <time>2022-07-12T11:27:26Z</time>
      </trkpt>
      <trkpt lat="44.3876" lon="2.97366">
        <ele>703</ele>
        <time>2022-07-12T11:27:32Z</time>
      </trkpt>
      <trkpt lat="44.38757" lon="2.97379">
        <ele>703.6</ele>
        <time>2022-07-12T11:27:37Z</time>
      </trkpt>
      <trkpt lat="44.38753" lon="2.97408">
        <ele>704.8</ele>
        <time>2022-07-12T11:27:45Z</time>
      </trkpt>
      <trkpt lat="44.38745" lon="2.97418">
        <ele>705.6</ele>
        <time>2022-07-12T11:27:50Z</time>
      </trkpt>
      <trkpt lat="44.38741" lon="2.97422">
        <ele>706</ele>
        <time>2022-07-12T11:27:52Z</time>
      </trkpt>
      <trkpt lat="44.38732" lon="2.97433">
        <ele>707</ele>
        <time>2022-07-12T11:27:57Z</time>
      </trkpt>
      <trkpt lat="44.38721" lon="2.97443">
        <ele>707.6</ele>
        <time>2022-07-12T11:28:01Z</time>
      </trkpt>
      <trkpt lat="44.38713" lon="2.97449">
        <ele>708</ele>
        <time>2022-07-12T11:28:04Z</time>
      </trkpt>
      <trkpt lat="44.38705" lon="2.9746">
        <ele>708.6</ele>
        <time>2022-07-12T11:28:08Z</time>
      </trkpt>
      <trkpt lat="44.38689" lon="2.9747">
        <ele>708.8</ele>
        <time>2022-07-12T11:28:14Z</time>
      </trkpt>
      <trkpt lat="44.38683" lon="2.97473">
        <ele>709</ele>
        <time>2022-07-12T11:28:17Z</time>
      </trkpt>
      <trkpt lat="44.38677" lon="2.97474">
        <ele>709.2</ele>
        <time>2022-07-12T11:28:20Z</time>
      </trkpt>
      <trkpt lat="44.38667" lon="2.97476">
        <ele>710</ele>
        <time>2022-07-12T11:28:25Z</time>
      </trkpt>
      <trkpt lat="44.38666" lon="2.97475">
        <ele>710</ele>
        <time>2022-07-12T11:28:26Z</time>
      </trkpt>
      <trkpt lat="44.38664" lon="2.97475">
        <ele>710.2</ele>
        <time>2022-07-12T11:28:27Z</time>
      </trkpt>
      <trkpt lat="44.38649" lon="2.97474">
        <ele>710.8</ele>
        <time>2022-07-12T11:28:33Z</time>
      </trkpt>
      <trkpt lat="44.38644" lon="2.97473">
        <ele>711.2</ele>
        <time>2022-07-12T11:28:38Z</time>
      </trkpt>
      <trkpt lat="44.38641" lon="2.97472">
        <ele>711.2</ele>
        <time>2022-07-12T11:28:40Z</time>
      </trkpt>
      <trkpt lat="44.38639" lon="2.97472">
        <ele>711.4</ele>
        <time>2022-07-12T11:28:41Z</time>
      </trkpt>
      <trkpt lat="44.38633" lon="2.97469">
        <ele>712.4</ele>
        <time>2022-07-12T11:28:47Z</time>
      </trkpt>
      <trkpt lat="44.38631" lon="2.97469">
        <ele>712.8</ele>
        <time>2022-07-12T11:28:49Z</time>
      </trkpt>
      <trkpt lat="44.38627" lon="2.97469">
        <ele>713.4</ele>
        <time>2022-07-12T11:28:52Z</time>
      </trkpt>
      <trkpt lat="44.38626" lon="2.97469">
        <ele>713.4</ele>
        <time>2022-07-12T11:28:53Z</time>
      </trkpt>
      <trkpt lat="44.38623" lon="2.9747">
        <ele>713.8</ele>
        <time>2022-07-12T11:28:56Z</time>
      </trkpt>
      <trkpt lat="44.38623" lon="2.9747">
        <ele>714</ele>
        <time>2022-07-12T11:28:57Z</time>
      </trkpt>
      <trkpt lat="44.3862" lon="2.97468">
        <ele>715</ele>
        <time>2022-07-12T11:30:07Z</time>
      </trkpt>
      <trkpt lat="44.38615" lon="2.97466">
        <ele>715.2</ele>
        <time>2022-07-12T11:30:11Z</time>
      </trkpt>
      <trkpt lat="44.38608" lon="2.97463">
        <ele>715.6</ele>
        <time>2022-07-12T11:30:16Z</time>
      </trkpt>
      <trkpt lat="44.38604" lon="2.97461">
        <ele>716.2</ele>
        <time>2022-07-12T11:30:19Z</time>
      </trkpt>
      <trkpt lat="44.38601" lon="2.9746">
        <ele>716.4</ele>
        <time>2022-07-12T11:30:20Z</time>
      </trkpt>
      <trkpt lat="44.38589" lon="2.97452">
        <ele>717.2</ele>
        <time>2022-07-12T11:30:28Z</time>
      </trkpt>
      <trkpt lat="44.38578" lon="2.97443">
        <ele>718.2</ele>
        <time>2022-07-12T11:30:35Z</time>
      </trkpt>
      <trkpt lat="44.38577" lon="2.97442">
        <ele>718.4</ele>
        <time>2022-07-12T11:30:36Z</time>
      </trkpt>
      <trkpt lat="44.38575" lon="2.9744">
        <ele>718.6</ele>
        <time>2022-07-12T11:30:37Z</time>
      </trkpt>
      <trkpt lat="44.38571" lon="2.97433">
        <ele>718.8</ele>
        <time>2022-07-12T11:30:41Z</time>
      </trkpt>
      <trkpt lat="44.38554" lon="2.97412">
        <ele>719.2</ele>
        <time>2022-07-12T11:30:48Z</time>
      </trkpt>
      <trkpt lat="44.38552" lon="2.97408">
        <ele>719.4</ele>
        <time>2022-07-12T11:30:49Z</time>
      </trkpt>
      <trkpt lat="44.3855" lon="2.97405">
        <ele>719.6</ele>
        <time>2022-07-12T11:30:50Z</time>
      </trkpt>
      <trkpt lat="44.38547" lon="2.97402">
        <ele>719.6</ele>
        <time>2022-07-12T11:30:51Z</time>
      </trkpt>
      <trkpt lat="44.38544" lon="2.974">
        <ele>719.8</ele>
        <time>2022-07-12T11:30:52Z</time>
      </trkpt>
      <trkpt lat="44.38542" lon="2.97398">
        <ele>719.8</ele>
        <time>2022-07-12T11:30:53Z</time>
      </trkpt>
      <trkpt lat="44.38536" lon="2.97388">
        <ele>720.4</ele>
        <time>2022-07-12T11:30:56Z</time>
      </trkpt>
      <trkpt lat="44.38535" lon="2.97384">
        <ele>720.6</ele>
        <time>2022-07-12T11:30:57Z</time>
      </trkpt>
      <trkpt lat="44.38529" lon="2.97363">
        <ele>721.6</ele>
        <time>2022-07-12T11:31:03Z</time>
      </trkpt>
      <trkpt lat="44.38528" lon="2.97357">
        <ele>721.8</ele>
        <time>2022-07-12T11:31:05Z</time>
      </trkpt>
      <trkpt lat="44.38526" lon="2.9735">
        <ele>722</ele>
        <time>2022-07-12T11:31:07Z</time>
      </trkpt>
      <trkpt lat="44.38526" lon="2.97341">
        <ele>722.4</ele>
        <time>2022-07-12T11:31:09Z</time>
      </trkpt>
      <trkpt lat="44.38526" lon="2.97338">
        <ele>722.6</ele>
        <time>2022-07-12T11:31:10Z</time>
      </trkpt>
      <trkpt lat="44.38528" lon="2.97321">
        <ele>722.8</ele>
        <time>2022-07-12T11:31:15Z</time>
      </trkpt>
      <trkpt lat="44.38532" lon="2.97303">
        <ele>723</ele>
        <time>2022-07-12T11:31:20Z</time>
      </trkpt>
      <trkpt lat="44.38544" lon="2.97278">
        <ele>722.8</ele>
        <time>2022-07-12T11:31:27Z</time>
      </trkpt>
      <trkpt lat="44.38555" lon="2.97253">
        <ele>722.6</ele>
        <time>2022-07-12T11:31:34Z</time>
      </trkpt>
      <trkpt lat="44.38558" lon="2.97219">
        <ele>722.6</ele>
        <time>2022-07-12T11:31:41Z</time>
      </trkpt>
      <trkpt lat="44.38556" lon="2.97215">
        <ele>722.6</ele>
        <time>2022-07-12T11:31:42Z</time>
      </trkpt>
      <trkpt lat="44.38546" lon="2.97208">
        <ele>722.6</ele>
        <time>2022-07-12T11:31:45Z</time>
      </trkpt>
      <trkpt lat="44.38527" lon="2.97201">
        <ele>722.6</ele>
        <time>2022-07-12T11:31:51Z</time>
      </trkpt>
      <trkpt lat="44.38512" lon="2.97194">
        <ele>722.8</ele>
        <time>2022-07-12T11:31:56Z</time>
      </trkpt>
      <trkpt lat="44.38492" lon="2.97188">
        <ele>723.6</ele>
        <time>2022-07-12T11:32:03Z</time>
      </trkpt>
      <trkpt lat="44.38488" lon="2.97185">
        <ele>723.8</ele>
        <time>2022-07-12T11:32:05Z</time>
      </trkpt>
      <trkpt lat="44.38477" lon="2.9718">
        <ele>724.4</ele>
        <time>2022-07-12T11:32:08Z</time>
      </trkpt>
      <trkpt lat="44.38463" lon="2.97174">
        <ele>725</ele>
        <time>2022-07-12T11:32:12Z</time>
      </trkpt>
      <trkpt lat="44.38451" lon="2.97168">
        <ele>725.4</ele>
        <time>2022-07-12T11:32:15Z</time>
      </trkpt>
      <trkpt lat="44.38432" lon="2.97163">
        <ele>725.8</ele>
        <time>2022-07-12T11:32:21Z</time>
      </trkpt>
      <trkpt lat="44.38413" lon="2.97169">
        <ele>726</ele>
        <time>2022-07-12T11:32:27Z</time>
      </trkpt>
      <trkpt lat="44.38389" lon="2.97178">
        <ele>726</ele>
        <time>2022-07-12T11:32:33Z</time>
      </trkpt>
      <trkpt lat="44.38374" lon="2.97188">
        <ele>726</ele>
        <time>2022-07-12T11:32:37Z</time>
      </trkpt>
      <trkpt lat="44.38367" lon="2.97198">
        <ele>726</ele>
        <time>2022-07-12T11:32:39Z</time>
      </trkpt>
      <trkpt lat="44.38363" lon="2.97209">
        <ele>725.6</ele>
        <time>2022-07-12T11:32:41Z</time>
      </trkpt>
      <trkpt lat="44.38359" lon="2.97227">
        <ele>725.4</ele>
        <time>2022-07-12T11:32:44Z</time>
      </trkpt>
      <trkpt lat="44.38356" lon="2.97239">
        <ele>725.2</ele>
        <time>2022-07-12T11:32:46Z</time>
      </trkpt>
      <trkpt lat="44.38354" lon="2.97252">
        <ele>725.2</ele>
        <time>2022-07-12T11:32:48Z</time>
      </trkpt>
      <trkpt lat="44.38353" lon="2.97259">
        <ele>725</ele>
        <time>2022-07-12T11:32:49Z</time>
      </trkpt>
      <trkpt lat="44.38339" lon="2.973">
        <ele>724.8</ele>
        <time>2022-07-12T11:32:56Z</time>
      </trkpt>
      <trkpt lat="44.38337" lon="2.97305">
        <ele>724.8</ele>
        <time>2022-07-12T11:32:57Z</time>
      </trkpt>
      <trkpt lat="44.38324" lon="2.97334">
        <ele>724.6</ele>
        <time>2022-07-12T11:33:03Z</time>
      </trkpt>
      <trkpt lat="44.38312" lon="2.97364">
        <ele>724.6</ele>
        <time>2022-07-12T11:33:10Z</time>
      </trkpt>
      <trkpt lat="44.38299" lon="2.97395">
        <ele>725.4</ele>
        <time>2022-07-12T11:33:17Z</time>
      </trkpt>
      <trkpt lat="44.38283" lon="2.97436">
        <ele>725.8</ele>
        <time>2022-07-12T11:33:26Z</time>
      </trkpt>
      <trkpt lat="44.38275" lon="2.97453">
        <ele>725.8</ele>
        <time>2022-07-12T11:33:31Z</time>
      </trkpt>
      <trkpt lat="44.38259" lon="2.9748">
        <ele>726</ele>
        <time>2022-07-12T11:33:38Z</time>
      </trkpt>
      <trkpt lat="44.38258" lon="2.97486">
        <ele>726</ele>
        <time>2022-07-12T11:33:39Z</time>
      </trkpt>
      <trkpt lat="44.38251" lon="2.97503">
        <ele>726</ele>
        <time>2022-07-12T11:33:42Z</time>
      </trkpt>
      <trkpt lat="44.38239" lon="2.97529">
        <ele>725.6</ele>
        <time>2022-07-12T11:33:46Z</time>
      </trkpt>
      <trkpt lat="44.38233" lon="2.97542">
        <ele>725.4</ele>
        <time>2022-07-12T11:33:48Z</time>
      </trkpt>
      <trkpt lat="44.382" lon="2.97589">
        <ele>724.6</ele>
        <time>2022-07-12T11:33:56Z</time>
      </trkpt>
      <trkpt lat="44.38173" lon="2.97622">
        <ele>724.2</ele>
        <time>2022-07-12T11:34:02Z</time>
      </trkpt>
      <trkpt lat="44.38156" lon="2.97645">
        <ele>724</ele>
        <time>2022-07-12T11:34:06Z</time>
      </trkpt>
      <trkpt lat="44.38116" lon="2.977">
        <ele>723.6</ele>
        <time>2022-07-12T11:34:15Z</time>
      </trkpt>
      <trkpt lat="44.38108" lon="2.97713">
        <ele>723.4</ele>
        <time>2022-07-12T11:34:17Z</time>
      </trkpt>
      <trkpt lat="44.38104" lon="2.97721">
        <ele>723</ele>
        <time>2022-07-12T11:34:18Z</time>
      </trkpt>
      <trkpt lat="44.38087" lon="2.97755">
        <ele>722.4</ele>
        <time>2022-07-12T11:34:23Z</time>
      </trkpt>
      <trkpt lat="44.38085" lon="2.9776">
        <ele>722.2</ele>
        <time>2022-07-12T11:34:24Z</time>
      </trkpt>
      <trkpt lat="44.38083" lon="2.9777">
        <ele>722</ele>
        <time>2022-07-12T11:34:26Z</time>
      </trkpt>
      <trkpt lat="44.38081" lon="2.9778">
        <ele>721.6</ele>
        <time>2022-07-12T11:34:28Z</time>
      </trkpt>
      <trkpt lat="44.38081" lon="2.97785">
        <ele>720.8</ele>
        <time>2022-07-12T11:34:29Z</time>
      </trkpt>
      <trkpt lat="44.3808" lon="2.97799">
        <ele>720</ele>
        <time>2022-07-12T11:34:31Z</time>
      </trkpt>
      <trkpt lat="44.38078" lon="2.97806">
        <ele>719.4</ele>
        <time>2022-07-12T11:34:32Z</time>
      </trkpt>
      <trkpt lat="44.38077" lon="2.97814">
        <ele>719.2</ele>
        <time>2022-07-12T11:34:33Z</time>
      </trkpt>
      <trkpt lat="44.38071" lon="2.9783">
        <ele>718.8</ele>
        <time>2022-07-12T11:34:35Z</time>
      </trkpt>
      <trkpt lat="44.38064" lon="2.97843">
        <ele>718.4</ele>
        <time>2022-07-12T11:34:37Z</time>
      </trkpt>
      <trkpt lat="44.3806" lon="2.97849">
        <ele>718.2</ele>
        <time>2022-07-12T11:34:38Z</time>
      </trkpt>
      <trkpt lat="44.38052" lon="2.97857">
        <ele>717.8</ele>
        <time>2022-07-12T11:34:40Z</time>
      </trkpt>
      <trkpt lat="44.38047" lon="2.97861">
        <ele>717.6</ele>
        <time>2022-07-12T11:34:41Z</time>
      </trkpt>
      <trkpt lat="44.38041" lon="2.97863">
        <ele>717.6</ele>
        <time>2022-07-12T11:34:42Z</time>
      </trkpt>
      <trkpt lat="44.3803" lon="2.97861">
        <ele>717.4</ele>
        <time>2022-07-12T11:34:44Z</time>
      </trkpt>
      <trkpt lat="44.38003" lon="2.9785">
        <ele>717.4</ele>
        <time>2022-07-12T11:34:50Z</time>
      </trkpt>
      <trkpt lat="44.37986" lon="2.97844">
        <ele>718</ele>
        <time>2022-07-12T11:34:55Z</time>
      </trkpt>
      <trkpt lat="44.37969" lon="2.97835">
        <ele>718.8</ele>
        <time>2022-07-12T11:35:02Z</time>
      </trkpt>
      <trkpt lat="44.37961" lon="2.97829">
        <ele>719.4</ele>
        <time>2022-07-12T11:35:05Z</time>
      </trkpt>
      <trkpt lat="44.37943" lon="2.97818">
        <ele>720</ele>
        <time>2022-07-12T11:35:11Z</time>
      </trkpt>
      <trkpt lat="44.37938" lon="2.97814">
        <ele>720.4</ele>
        <time>2022-07-12T11:35:13Z</time>
      </trkpt>
      <trkpt lat="44.3792" lon="2.97804">
        <ele>721.2</ele>
        <time>2022-07-12T11:35:19Z</time>
      </trkpt>
      <trkpt lat="44.37909" lon="2.97797">
        <ele>721.4</ele>
        <time>2022-07-12T11:35:23Z</time>
      </trkpt>
      <trkpt lat="44.37897" lon="2.9779">
        <ele>722</ele>
        <time>2022-07-12T11:35:27Z</time>
      </trkpt>
      <trkpt lat="44.37884" lon="2.97787">
        <ele>722.6</ele>
        <time>2022-07-12T11:35:31Z</time>
      </trkpt>
      <trkpt lat="44.37873" lon="2.97787">
        <ele>722.8</ele>
        <time>2022-07-12T11:35:34Z</time>
      </trkpt>
      <trkpt lat="44.37849" lon="2.97798">
        <ele>723.2</ele>
        <time>2022-07-12T11:35:40Z</time>
      </trkpt>
      <trkpt lat="44.37837" lon="2.97812">
        <ele>723.2</ele>
        <time>2022-07-12T11:35:43Z</time>
      </trkpt>
      <trkpt lat="44.3783" lon="2.97823">
        <ele>722.8</ele>
        <time>2022-07-12T11:35:45Z</time>
      </trkpt>
      <trkpt lat="44.37823" lon="2.97836">
        <ele>722.6</ele>
        <time>2022-07-12T11:35:47Z</time>
      </trkpt>
      <trkpt lat="44.37814" lon="2.97858">
        <ele>722.2</ele>
        <time>2022-07-12T11:35:50Z</time>
      </trkpt>
      <trkpt lat="44.378" lon="2.97892">
        <ele>721.6</ele>
        <time>2022-07-12T11:35:55Z</time>
      </trkpt>
      <trkpt lat="44.37798" lon="2.97898">
        <ele>721.6</ele>
        <time>2022-07-12T11:35:56Z</time>
      </trkpt>
      <trkpt lat="44.37795" lon="2.97903">
        <ele>721.4</ele>
        <time>2022-07-12T11:35:57Z</time>
      </trkpt>
      <trkpt lat="44.37784" lon="2.97923">
        <ele>721.2</ele>
        <time>2022-07-12T11:36:01Z</time>
      </trkpt>
      <trkpt lat="44.37768" lon="2.97941">
        <ele>721.2</ele>
        <time>2022-07-12T11:36:06Z</time>
      </trkpt>
      <trkpt lat="44.37766" lon="2.97944">
        <ele>721.4</ele>
        <time>2022-07-12T11:36:07Z</time>
      </trkpt>
      <trkpt lat="44.37752" lon="2.97956">
        <ele>721.8</ele>
        <time>2022-07-12T11:36:12Z</time>
      </trkpt>
      <trkpt lat="44.37739" lon="2.97964">
        <ele>722</ele>
        <time>2022-07-12T11:36:17Z</time>
      </trkpt>
      <trkpt lat="44.37732" lon="2.97967">
        <ele>722.8</ele>
        <time>2022-07-12T11:36:20Z</time>
      </trkpt>
      <trkpt lat="44.37723" lon="2.97969">
        <ele>723.4</ele>
        <time>2022-07-12T11:36:24Z</time>
      </trkpt>
      <trkpt lat="44.37719" lon="2.9797">
        <ele>723.8</ele>
        <time>2022-07-12T11:36:26Z</time>
      </trkpt>
      <trkpt lat="44.37703" lon="2.97974">
        <ele>725</ele>
        <time>2022-07-12T11:36:32Z</time>
      </trkpt>
      <trkpt lat="44.37688" lon="2.97975">
        <ele>726.2</ele>
        <time>2022-07-12T11:36:38Z</time>
      </trkpt>
      <trkpt lat="44.37681" lon="2.97972">
        <ele>726.4</ele>
        <time>2022-07-12T11:36:41Z</time>
      </trkpt>
      <trkpt lat="44.3767" lon="2.97954">
        <ele>726.8</ele>
        <time>2022-07-12T11:36:45Z</time>
      </trkpt>
      <trkpt lat="44.37666" lon="2.97944">
        <ele>726.8</ele>
        <time>2022-07-12T11:36:47Z</time>
      </trkpt>
      <trkpt lat="44.37656" lon="2.97915">
        <ele>726.8</ele>
        <time>2022-07-12T11:36:52Z</time>
      </trkpt>
      <trkpt lat="44.37641" lon="2.97872">
        <ele>726</ele>
        <time>2022-07-12T11:36:59Z</time>
      </trkpt>
      <trkpt lat="44.37639" lon="2.97866">
        <ele>726</ele>
        <time>2022-07-12T11:37:00Z</time>
      </trkpt>
      <trkpt lat="44.37627" lon="2.97837">
        <ele>725.6</ele>
        <time>2022-07-12T11:37:05Z</time>
      </trkpt>
      <trkpt lat="44.37626" lon="2.97832">
        <ele>725.6</ele>
        <time>2022-07-12T11:37:06Z</time>
      </trkpt>
      <trkpt lat="44.37624" lon="2.97826">
        <ele>725.6</ele>
        <time>2022-07-12T11:37:07Z</time>
      </trkpt>
      <trkpt lat="44.37614" lon="2.97803">
        <ele>725.8</ele>
        <time>2022-07-12T11:37:12Z</time>
      </trkpt>
      <trkpt lat="44.37596" lon="2.97775">
        <ele>726.2</ele>
        <time>2022-07-12T11:37:19Z</time>
      </trkpt>
      <trkpt lat="44.3758" lon="2.97749">
        <ele>727</ele>
        <time>2022-07-12T11:37:26Z</time>
      </trkpt>
      <trkpt lat="44.37576" lon="2.97741">
        <ele>727.4</ele>
        <time>2022-07-12T11:37:28Z</time>
      </trkpt>
      <trkpt lat="44.37568" lon="2.97719">
        <ele>728</ele>
        <time>2022-07-12T11:37:34Z</time>
      </trkpt>
      <trkpt lat="44.37566" lon="2.97715">
        <ele>728.2</ele>
        <time>2022-07-12T11:37:36Z</time>
      </trkpt>
      <trkpt lat="44.37564" lon="2.97715">
        <ele>728.2</ele>
        <time>2022-07-12T11:37:37Z</time>
      </trkpt>
      <trkpt lat="44.37563" lon="2.97716">
        <ele>728.4</ele>
        <time>2022-07-12T11:37:38Z</time>
      </trkpt>
      <trkpt lat="44.37563" lon="2.97721">
        <ele>728.6</ele>
        <time>2022-07-12T11:37:40Z</time>
      </trkpt>
      <trkpt lat="44.37567" lon="2.97737">
        <ele>729.2</ele>
        <time>2022-07-12T11:37:46Z</time>
      </trkpt>
      <trkpt lat="44.37567" lon="2.97739">
        <ele>729.4</ele>
        <time>2022-07-12T11:37:47Z</time>
      </trkpt>
      <trkpt lat="44.37568" lon="2.97739">
        <ele>729.6</ele>
        <time>2022-07-12T11:37:49Z</time>
      </trkpt>
      <trkpt lat="44.37569" lon="2.97742">
        <ele>730.2</ele>
        <time>2022-07-12T11:38:00Z</time>
      </trkpt>
      <trkpt lat="44.37572" lon="2.97748">
        <ele>730</ele>
        <time>2022-07-12T11:38:05Z</time>
      </trkpt>
      <trkpt lat="44.37574" lon="2.97752">
        <ele>729.8</ele>
        <time>2022-07-12T11:38:08Z</time>
      </trkpt>
      <trkpt lat="44.37581" lon="2.97764">
        <ele>729.4</ele>
        <time>2022-07-12T11:38:16Z</time>
      </trkpt>
      <trkpt lat="44.37593" lon="2.97784">
        <ele>729.2</ele>
        <time>2022-07-12T11:38:22Z</time>
      </trkpt>
      <trkpt lat="44.37593" lon="2.97803">
        <ele>729.4</ele>
        <time>2022-07-12T11:38:28Z</time>
      </trkpt>
      <trkpt lat="44.37592" lon="2.97803">
        <ele>729.4</ele>
        <time>2022-07-12T11:38:30Z</time>
      </trkpt>
      <trkpt lat="44.37591" lon="2.97803">
        <ele>729.4</ele>
        <time>2022-07-12T11:38:32Z</time>
      </trkpt>
      <trkpt lat="44.3759" lon="2.97805">
        <ele>729.6</ele>
        <time>2022-07-12T11:38:34Z</time>
      </trkpt>
      <trkpt lat="44.37585" lon="2.9781">
        <ele>729.8</ele>
        <time>2022-07-12T11:38:40Z</time>
      </trkpt>
      <trkpt lat="44.3758" lon="2.97815">
        <ele>730.6</ele>
        <time>2022-07-12T11:38:47Z</time>
      </trkpt>
      <trkpt lat="44.3758" lon="2.97815">
        <ele>730.6</ele>
        <time>2022-07-12T11:38:48Z</time>
      </trkpt>
      <trkpt lat="44.37578" lon="2.97819">
        <ele>731.2</ele>
        <time>2022-07-12T11:38:52Z</time>
      </trkpt>
      <trkpt lat="44.37577" lon="2.97819">
        <ele>731.6</ele>
        <time>2022-07-12T11:38:55Z</time>
      </trkpt>
      <trkpt lat="44.37578" lon="2.97819">
        <ele>732</ele>
        <time>2022-07-12T11:40:59Z</time>
      </trkpt>
      <trkpt lat="44.37578" lon="2.97819">
        <ele>732</ele>
        <time>2022-07-12T11:41:01Z</time>
      </trkpt>
      <trkpt lat="44.37577" lon="2.97818">
        <ele>732.2</ele>
        <time>2022-07-12T11:41:07Z</time>
      </trkpt>
      <trkpt lat="44.37577" lon="2.97818">
        <ele>732.2</ele>
        <time>2022-07-12T11:41:08Z</time>
      </trkpt>
      <trkpt lat="44.37576" lon="2.97817">
        <ele>732.2</ele>
        <time>2022-07-12T11:41:12Z</time>
      </trkpt>
      <trkpt lat="44.37576" lon="2.97815">
        <ele>732.4</ele>
        <time>2022-07-12T11:42:17Z</time>
      </trkpt>
      <trkpt lat="44.37577" lon="2.97815">
        <ele>732.4</ele>
        <time>2022-07-12T11:42:18Z</time>
      </trkpt>
      <trkpt lat="44.3758" lon="2.97813">
        <ele>732.4</ele>
        <time>2022-07-12T11:42:23Z</time>
      </trkpt>
      <trkpt lat="44.37582" lon="2.9781">
        <ele>732.4</ele>
        <time>2022-07-12T11:42:24Z</time>
      </trkpt>
      <trkpt lat="44.37592" lon="2.97798">
        <ele>732.4</ele>
        <time>2022-07-12T11:42:27Z</time>
      </trkpt>
      <trkpt lat="44.37593" lon="2.97793">
        <ele>732.2</ele>
        <time>2022-07-12T11:42:28Z</time>
      </trkpt>
      <trkpt lat="44.3759" lon="2.97778">
        <ele>731.6</ele>
        <time>2022-07-12T11:42:32Z</time>
      </trkpt>
      <trkpt lat="44.37586" lon="2.97773">
        <ele>731.2</ele>
        <time>2022-07-12T11:42:34Z</time>
      </trkpt>
      <trkpt lat="44.37582" lon="2.97766">
        <ele>730.8</ele>
        <time>2022-07-12T11:42:37Z</time>
      </trkpt>
      <trkpt lat="44.37573" lon="2.97749">
        <ele>730.4</ele>
        <time>2022-07-12T11:42:44Z</time>
      </trkpt>
      <trkpt lat="44.37566" lon="2.97738">
        <ele>730.4</ele>
        <time>2022-07-12T11:42:49Z</time>
      </trkpt>
      <trkpt lat="44.37565" lon="2.97735">
        <ele>730.4</ele>
        <time>2022-07-12T11:42:51Z</time>
      </trkpt>
      <trkpt lat="44.37565" lon="2.97734">
        <ele>730.4</ele>
        <time>2022-07-12T11:42:55Z</time>
      </trkpt>
      <trkpt lat="44.37565" lon="2.9773">
        <ele>730.2</ele>
        <time>2022-07-12T11:43:01Z</time>
      </trkpt>
      <trkpt lat="44.37565" lon="2.97728">
        <ele>730</ele>
        <time>2022-07-12T11:43:02Z</time>
      </trkpt>
      <trkpt lat="44.37564" lon="2.97712">
        <ele>729.8</ele>
        <time>2022-07-12T11:43:06Z</time>
      </trkpt>
      <trkpt lat="44.37564" lon="2.97707">
        <ele>729.8</ele>
        <time>2022-07-12T11:43:07Z</time>
      </trkpt>
      <trkpt lat="44.37565" lon="2.97696">
        <ele>729.6</ele>
        <time>2022-07-12T11:43:11Z</time>
      </trkpt>
      <trkpt lat="44.37565" lon="2.97693">
        <ele>729.6</ele>
        <time>2022-07-12T11:43:13Z</time>
      </trkpt>
      <trkpt lat="44.37565" lon="2.97689">
        <ele>729.4</ele>
        <time>2022-07-12T11:43:15Z</time>
      </trkpt>
      <trkpt lat="44.37565" lon="2.97681">
        <ele>729.8</ele>
        <time>2022-07-12T11:43:18Z</time>
      </trkpt>
      <trkpt lat="44.37567" lon="2.97671">
        <ele>730.2</ele>
        <time>2022-07-12T11:43:23Z</time>
      </trkpt>
      <trkpt lat="44.37567" lon="2.97654">
        <ele>731.2</ele>
        <time>2022-07-12T11:43:30Z</time>
      </trkpt>
      <trkpt lat="44.37567" lon="2.97651">
        <ele>731.4</ele>
        <time>2022-07-12T11:43:31Z</time>
      </trkpt>
      <trkpt lat="44.37565" lon="2.97635">
        <ele>731.8</ele>
        <time>2022-07-12T11:43:37Z</time>
      </trkpt>
      <trkpt lat="44.37564" lon="2.97611">
        <ele>732.6</ele>
        <time>2022-07-12T11:43:45Z</time>
      </trkpt>
      <trkpt lat="44.37561" lon="2.97586">
        <ele>733.2</ele>
        <time>2022-07-12T11:43:53Z</time>
      </trkpt>
      <trkpt lat="44.37556" lon="2.97571">
        <ele>733.6</ele>
        <time>2022-07-12T11:43:58Z</time>
      </trkpt>
      <trkpt lat="44.37555" lon="2.97564">
        <ele>733.8</ele>
        <time>2022-07-12T11:44:00Z</time>
      </trkpt>
      <trkpt lat="44.37551" lon="2.97549">
        <ele>734.4</ele>
        <time>2022-07-12T11:44:06Z</time>
      </trkpt>
      <trkpt lat="44.3755" lon="2.97539">
        <ele>734.6</ele>
        <time>2022-07-12T11:44:09Z</time>
      </trkpt>
      <trkpt lat="44.37548" lon="2.97533">
        <ele>734.8</ele>
        <time>2022-07-12T11:44:11Z</time>
      </trkpt>
      <trkpt lat="44.37548" lon="2.9753">
        <ele>734.8</ele>
        <time>2022-07-12T11:44:12Z</time>
      </trkpt>
      <trkpt lat="44.37546" lon="2.97525">
        <ele>734.8</ele>
        <time>2022-07-12T11:44:14Z</time>
      </trkpt>
      <trkpt lat="44.37545" lon="2.97521">
        <ele>734.8</ele>
        <time>2022-07-12T11:44:15Z</time>
      </trkpt>
      <trkpt lat="44.37536" lon="2.97501">
        <ele>735.6</ele>
        <time>2022-07-12T11:44:22Z</time>
      </trkpt>
      <trkpt lat="44.37534" lon="2.97497">
        <ele>735.8</ele>
        <time>2022-07-12T11:44:23Z</time>
      </trkpt>
      <trkpt lat="44.37524" lon="2.97476">
        <ele>736.2</ele>
        <time>2022-07-12T11:44:29Z</time>
      </trkpt>
      <trkpt lat="44.3751" lon="2.9746">
        <ele>736.8</ele>
        <time>2022-07-12T11:44:34Z</time>
      </trkpt>
      <trkpt lat="44.37505" lon="2.97452">
        <ele>736.8</ele>
        <time>2022-07-12T11:44:37Z</time>
      </trkpt>
      <trkpt lat="44.37496" lon="2.97439">
        <ele>737</ele>
        <time>2022-07-12T11:44:42Z</time>
      </trkpt>
      <trkpt lat="44.37486" lon="2.97413">
        <ele>736.8</ele>
        <time>2022-07-12T11:44:50Z</time>
      </trkpt>
      <trkpt lat="44.37476" lon="2.9738">
        <ele>736.8</ele>
        <time>2022-07-12T11:45:00Z</time>
      </trkpt>
      <trkpt lat="44.37469" lon="2.97353">
        <ele>737.2</ele>
        <time>2022-07-12T11:45:08Z</time>
      </trkpt>
      <trkpt lat="44.37466" lon="2.97337">
        <ele>737.4</ele>
        <time>2022-07-12T11:45:14Z</time>
      </trkpt>
      <trkpt lat="44.37458" lon="2.97321">
        <ele>737.6</ele>
        <time>2022-07-12T11:45:19Z</time>
      </trkpt>
      <trkpt lat="44.3745" lon="2.97308">
        <ele>737.8</ele>
        <time>2022-07-12T11:45:24Z</time>
      </trkpt>
      <trkpt lat="44.37445" lon="2.97302">
        <ele>738</ele>
        <time>2022-07-12T11:45:26Z</time>
      </trkpt>
      <trkpt lat="44.37426" lon="2.97273">
        <ele>738.6</ele>
        <time>2022-07-12T11:45:36Z</time>
      </trkpt>
      <trkpt lat="44.3742" lon="2.9726">
        <ele>738.8</ele>
        <time>2022-07-12T11:45:40Z</time>
      </trkpt>
      <trkpt lat="44.37416" lon="2.97251">
        <ele>739</ele>
        <time>2022-07-12T11:45:44Z</time>
      </trkpt>
      <trkpt lat="44.37411" lon="2.9724">
        <ele>739.4</ele>
        <time>2022-07-12T11:45:50Z</time>
      </trkpt>
      <trkpt lat="44.37405" lon="2.97225">
        <ele>740</ele>
        <time>2022-07-12T11:45:56Z</time>
      </trkpt>
      <trkpt lat="44.37403" lon="2.9722">
        <ele>740.2</ele>
        <time>2022-07-12T11:45:58Z</time>
      </trkpt>
      <trkpt lat="44.37401" lon="2.97217">
        <ele>740.2</ele>
        <time>2022-07-12T11:45:59Z</time>
      </trkpt>
      <trkpt lat="44.37397" lon="2.97213">
        <ele>740.4</ele>
        <time>2022-07-12T11:46:01Z</time>
      </trkpt>
      <trkpt lat="44.37396" lon="2.97211">
        <ele>740.6</ele>
        <time>2022-07-12T11:46:02Z</time>
      </trkpt>
      <trkpt lat="44.37392" lon="2.97207">
        <ele>741</ele>
        <time>2022-07-12T11:46:05Z</time>
      </trkpt>
      <trkpt lat="44.37391" lon="2.97205">
        <ele>741.2</ele>
        <time>2022-07-12T11:46:07Z</time>
      </trkpt>
      <trkpt lat="44.37391" lon="2.97205">
        <ele>741.6</ele>
        <time>2022-07-12T11:46:10Z</time>
      </trkpt>
      <trkpt lat="44.37392" lon="2.97199">
        <ele>742</ele>
        <time>2022-07-12T11:46:29Z</time>
      </trkpt>
      <trkpt lat="44.37392" lon="2.97196">
        <ele>741.8</ele>
        <time>2022-07-12T11:46:30Z</time>
      </trkpt>
      <trkpt lat="44.37387" lon="2.97183">
        <ele>742</ele>
        <time>2022-07-12T11:46:35Z</time>
      </trkpt>
      <trkpt lat="44.37386" lon="2.97181">
        <ele>742</ele>
        <time>2022-07-12T11:46:36Z</time>
      </trkpt>
      <trkpt lat="44.37386" lon="2.97181">
        <ele>742.2</ele>
        <time>2022-07-12T11:46:39Z</time>
      </trkpt>
      <trkpt lat="44.37383" lon="2.97179">
        <ele>742.6</ele>
        <time>2022-07-12T11:46:50Z</time>
      </trkpt>
      <trkpt lat="44.37381" lon="2.97179">
        <ele>742.6</ele>
        <time>2022-07-12T11:46:51Z</time>
      </trkpt>
      <trkpt lat="44.3737" lon="2.97179">
        <ele>742.8</ele>
        <time>2022-07-12T11:46:57Z</time>
      </trkpt>
      <trkpt lat="44.37362" lon="2.9718">
        <ele>743.2</ele>
        <time>2022-07-12T11:47:00Z</time>
      </trkpt>
      <trkpt lat="44.37357" lon="2.97181">
        <ele>743.4</ele>
        <time>2022-07-12T11:47:02Z</time>
      </trkpt>
      <trkpt lat="44.37353" lon="2.9718">
        <ele>743.6</ele>
        <time>2022-07-12T11:47:03Z</time>
      </trkpt>
      <trkpt lat="44.37342" lon="2.97186">
        <ele>743.8</ele>
        <time>2022-07-12T11:47:06Z</time>
      </trkpt>
      <trkpt lat="44.37335" lon="2.97185">
        <ele>743.8</ele>
        <time>2022-07-12T11:47:07Z</time>
      </trkpt>
      <trkpt lat="44.37322" lon="2.97185">
        <ele>743.8</ele>
        <time>2022-07-12T11:47:09Z</time>
      </trkpt>
      <trkpt lat="44.37317" lon="2.97189">
        <ele>743.8</ele>
        <time>2022-07-12T11:47:10Z</time>
      </trkpt>
      <trkpt lat="44.37312" lon="2.97199">
        <ele>743.4</ele>
        <time>2022-07-12T11:47:12Z</time>
      </trkpt>
      <trkpt lat="44.3731" lon="2.97224">
        <ele>743</ele>
        <time>2022-07-12T11:47:15Z</time>
      </trkpt>
      <trkpt lat="44.37308" lon="2.9723">
        <ele>743</ele>
        <time>2022-07-12T11:47:16Z</time>
      </trkpt>
      <trkpt lat="44.37304" lon="2.97244">
        <ele>742.8</ele>
        <time>2022-07-12T11:47:18Z</time>
      </trkpt>
      <trkpt lat="44.37297" lon="2.97258">
        <ele>742.6</ele>
        <time>2022-07-12T11:47:20Z</time>
      </trkpt>
      <trkpt lat="44.37292" lon="2.97265">
        <ele>742.6</ele>
        <time>2022-07-12T11:47:21Z</time>
      </trkpt>
      <trkpt lat="44.37288" lon="2.9727">
        <ele>742.4</ele>
        <time>2022-07-12T11:47:22Z</time>
      </trkpt>
      <trkpt lat="44.37277" lon="2.97281">
        <ele>742.2</ele>
        <time>2022-07-12T11:47:24Z</time>
      </trkpt>
      <trkpt lat="44.37271" lon="2.97285">
        <ele>741.8</ele>
        <time>2022-07-12T11:47:25Z</time>
      </trkpt>
      <trkpt lat="44.37238" lon="2.973">
        <ele>740.8</ele>
        <time>2022-07-12T11:47:30Z</time>
      </trkpt>
      <trkpt lat="44.37226" lon="2.97303">
        <ele>740.6</ele>
        <time>2022-07-12T11:47:32Z</time>
      </trkpt>
      <trkpt lat="44.37207" lon="2.97301">
        <ele>740</ele>
        <time>2022-07-12T11:47:35Z</time>
      </trkpt>
      <trkpt lat="44.37176" lon="2.97285">
        <ele>739.4</ele>
        <time>2022-07-12T11:47:39Z</time>
      </trkpt>
      <trkpt lat="44.37171" lon="2.97281">
        <ele>739.2</ele>
        <time>2022-07-12T11:47:40Z</time>
      </trkpt>
      <trkpt lat="44.37159" lon="2.97269">
        <ele>739</ele>
        <time>2022-07-12T11:47:42Z</time>
      </trkpt>
      <trkpt lat="44.37149" lon="2.97253">
        <ele>738</ele>
        <time>2022-07-12T11:47:44Z</time>
      </trkpt>
      <trkpt lat="44.37136" lon="2.97227">
        <ele>736.8</ele>
        <time>2022-07-12T11:47:47Z</time>
      </trkpt>
      <trkpt lat="44.37125" lon="2.97204">
        <ele>735.8</ele>
        <time>2022-07-12T11:47:50Z</time>
      </trkpt>
      <trkpt lat="44.37122" lon="2.97197">
        <ele>735.6</ele>
        <time>2022-07-12T11:47:51Z</time>
      </trkpt>
      <trkpt lat="44.37111" lon="2.9719">
        <ele>735.4</ele>
        <time>2022-07-12T11:47:53Z</time>
      </trkpt>
      <trkpt lat="44.37099" lon="2.97191">
        <ele>735.2</ele>
        <time>2022-07-12T11:47:55Z</time>
      </trkpt>
      <trkpt lat="44.37093" lon="2.97194">
        <ele>735</ele>
        <time>2022-07-12T11:47:56Z</time>
      </trkpt>
      <trkpt lat="44.37076" lon="2.97205">
        <ele>734.2</ele>
        <time>2022-07-12T11:47:59Z</time>
      </trkpt>
      <trkpt lat="44.37065" lon="2.97216">
        <ele>733.8</ele>
        <time>2022-07-12T11:48:01Z</time>
      </trkpt>
      <trkpt lat="44.37059" lon="2.97221">
        <ele>733</ele>
        <time>2022-07-12T11:48:02Z</time>
      </trkpt>
      <trkpt lat="44.37048" lon="2.9723">
        <ele>732.2</ele>
        <time>2022-07-12T11:48:04Z</time>
      </trkpt>
      <trkpt lat="44.37043" lon="2.97234">
        <ele>732</ele>
        <time>2022-07-12T11:48:05Z</time>
      </trkpt>
      <trkpt lat="44.37039" lon="2.97237">
        <ele>731.6</ele>
        <time>2022-07-12T11:48:06Z</time>
      </trkpt>
      <trkpt lat="44.37026" lon="2.97247">
        <ele>730.8</ele>
        <time>2022-07-12T11:48:09Z</time>
      </trkpt>
      <trkpt lat="44.37016" lon="2.97253">
        <ele>730</ele>
        <time>2022-07-12T11:48:11Z</time>
      </trkpt>
      <trkpt lat="44.37011" lon="2.97257">
        <ele>729.8</ele>
        <time>2022-07-12T11:48:12Z</time>
      </trkpt>
      <trkpt lat="44.37" lon="2.97263">
        <ele>729</ele>
        <time>2022-07-12T11:48:14Z</time>
      </trkpt>
      <trkpt lat="44.36994" lon="2.97267">
        <ele>728.8</ele>
        <time>2022-07-12T11:48:15Z</time>
      </trkpt>
      <trkpt lat="44.36977" lon="2.97276">
        <ele>728.2</ele>
        <time>2022-07-12T11:48:18Z</time>
      </trkpt>
      <trkpt lat="44.36965" lon="2.97284">
        <ele>727.6</ele>
        <time>2022-07-12T11:48:20Z</time>
      </trkpt>
      <trkpt lat="44.36947" lon="2.97293">
        <ele>726.6</ele>
        <time>2022-07-12T11:48:23Z</time>
      </trkpt>
      <trkpt lat="44.36941" lon="2.97295">
        <ele>726</ele>
        <time>2022-07-12T11:48:24Z</time>
      </trkpt>
      <trkpt lat="44.36936" lon="2.97297">
        <ele>725.6</ele>
        <time>2022-07-12T11:48:25Z</time>
      </trkpt>
      <trkpt lat="44.3693" lon="2.97299">
        <ele>725.2</ele>
        <time>2022-07-12T11:48:26Z</time>
      </trkpt>
      <trkpt lat="44.36914" lon="2.9731">
        <ele>724.2</ele>
        <time>2022-07-12T11:48:29Z</time>
      </trkpt>
      <trkpt lat="44.36909" lon="2.97313">
        <ele>724</ele>
        <time>2022-07-12T11:48:30Z</time>
      </trkpt>
      <trkpt lat="44.36898" lon="2.97321">
        <ele>723.4</ele>
        <time>2022-07-12T11:48:32Z</time>
      </trkpt>
      <trkpt lat="44.36892" lon="2.97324">
        <ele>722.6</ele>
        <time>2022-07-12T11:48:33Z</time>
      </trkpt>
      <trkpt lat="44.36879" lon="2.97328">
        <ele>722.2</ele>
        <time>2022-07-12T11:48:35Z</time>
      </trkpt>
      <trkpt lat="44.36861" lon="2.97332">
        <ele>721.4</ele>
        <time>2022-07-12T11:48:38Z</time>
      </trkpt>
      <trkpt lat="44.36845" lon="2.97337">
        <ele>720.4</ele>
        <time>2022-07-12T11:48:41Z</time>
      </trkpt>
      <trkpt lat="44.3684" lon="2.97339">
        <ele>720</ele>
        <time>2022-07-12T11:48:42Z</time>
      </trkpt>
      <trkpt lat="44.3682" lon="2.97341">
        <ele>718.4</ele>
        <time>2022-07-12T11:48:46Z</time>
      </trkpt>
      <trkpt lat="44.36806" lon="2.97341">
        <ele>717</ele>
        <time>2022-07-12T11:48:49Z</time>
      </trkpt>
      <trkpt lat="44.36791" lon="2.97342">
        <ele>715.6</ele>
        <time>2022-07-12T11:48:52Z</time>
      </trkpt>
      <trkpt lat="44.36781" lon="2.97343">
        <ele>714.6</ele>
        <time>2022-07-12T11:48:54Z</time>
      </trkpt>
      <trkpt lat="44.36775" lon="2.97343">
        <ele>713.8</ele>
        <time>2022-07-12T11:48:55Z</time>
      </trkpt>
      <trkpt lat="44.3677" lon="2.97343">
        <ele>713</ele>
        <time>2022-07-12T11:48:56Z</time>
      </trkpt>
      <trkpt lat="44.36759" lon="2.97344">
        <ele>712.6</ele>
        <time>2022-07-12T11:48:58Z</time>
      </trkpt>
      <trkpt lat="44.36744" lon="2.97342">
        <ele>712</ele>
        <time>2022-07-12T11:49:01Z</time>
      </trkpt>
      <trkpt lat="44.36733" lon="2.97342">
        <ele>711</ele>
        <time>2022-07-12T11:49:03Z</time>
      </trkpt>
      <trkpt lat="44.36727" lon="2.97341">
        <ele>710.8</ele>
        <time>2022-07-12T11:49:04Z</time>
      </trkpt>
      <trkpt lat="44.36708" lon="2.9734">
        <ele>709.8</ele>
        <time>2022-07-12T11:49:07Z</time>
      </trkpt>
      <trkpt lat="44.36702" lon="2.97339">
        <ele>709.6</ele>
        <time>2022-07-12T11:49:08Z</time>
      </trkpt>
      <trkpt lat="44.36692" lon="2.97339">
        <ele>709</ele>
        <time>2022-07-12T11:49:10Z</time>
      </trkpt>
      <trkpt lat="44.36687" lon="2.97339">
        <ele>708.2</ele>
        <time>2022-07-12T11:49:11Z</time>
      </trkpt>
      <trkpt lat="44.36676" lon="2.97339">
        <ele>706.8</ele>
        <time>2022-07-12T11:49:13Z</time>
      </trkpt>
      <trkpt lat="44.3667" lon="2.97341">
        <ele>706</ele>
        <time>2022-07-12T11:49:14Z</time>
      </trkpt>
      <trkpt lat="44.36659" lon="2.97345">
        <ele>704.8</ele>
        <time>2022-07-12T11:49:16Z</time>
      </trkpt>
      <trkpt lat="44.36648" lon="2.97349">
        <ele>703.8</ele>
        <time>2022-07-12T11:49:18Z</time>
      </trkpt>
      <trkpt lat="44.36632" lon="2.97354">
        <ele>702.6</ele>
        <time>2022-07-12T11:49:21Z</time>
      </trkpt>
      <trkpt lat="44.36599" lon="2.97361">
        <ele>701.6</ele>
        <time>2022-07-12T11:49:27Z</time>
      </trkpt>
      <trkpt lat="44.36594" lon="2.9736">
        <ele>701.4</ele>
        <time>2022-07-12T11:49:28Z</time>
      </trkpt>
      <trkpt lat="44.36573" lon="2.97356">
        <ele>700.2</ele>
        <time>2022-07-12T11:49:32Z</time>
      </trkpt>
      <trkpt lat="44.36546" lon="2.97352">
        <ele>699.4</ele>
        <time>2022-07-12T11:49:37Z</time>
      </trkpt>
      <trkpt lat="44.36536" lon="2.97353">
        <ele>699</ele>
        <time>2022-07-12T11:49:39Z</time>
      </trkpt>
      <trkpt lat="44.36522" lon="2.97355">
        <ele>698.6</ele>
        <time>2022-07-12T11:49:42Z</time>
      </trkpt>
      <trkpt lat="44.36495" lon="2.97355">
        <ele>697.6</ele>
        <time>2022-07-12T11:49:47Z</time>
      </trkpt>
      <trkpt lat="44.36483" lon="2.97357">
        <ele>697.4</ele>
        <time>2022-07-12T11:49:49Z</time>
      </trkpt>
      <trkpt lat="44.36451" lon="2.97367">
        <ele>696.8</ele>
        <time>2022-07-12T11:49:54Z</time>
      </trkpt>
      <trkpt lat="44.36443" lon="2.97369">
        <ele>696.6</ele>
        <time>2022-07-12T11:49:55Z</time>
      </trkpt>
      <trkpt lat="44.36431" lon="2.97372">
        <ele>695.2</ele>
        <time>2022-07-12T11:49:57Z</time>
      </trkpt>
      <trkpt lat="44.36421" lon="2.97374">
        <ele>694.8</ele>
        <time>2022-07-12T11:49:59Z</time>
      </trkpt>
      <trkpt lat="44.36405" lon="2.97381">
        <ele>694</ele>
        <time>2022-07-12T11:50:03Z</time>
      </trkpt>
      <trkpt lat="44.36401" lon="2.97382">
        <ele>694</ele>
        <time>2022-07-12T11:50:04Z</time>
      </trkpt>
      <trkpt lat="44.36386" lon="2.97383">
        <ele>693.8</ele>
        <time>2022-07-12T11:50:09Z</time>
      </trkpt>
      <trkpt lat="44.36376" lon="2.97378">
        <ele>694.4</ele>
        <time>2022-07-12T11:50:15Z</time>
      </trkpt>
      <trkpt lat="44.36367" lon="2.97373">
        <ele>695.4</ele>
        <time>2022-07-12T11:50:21Z</time>
      </trkpt>
      <trkpt lat="44.36351" lon="2.97374">
        <ele>695.6</ele>
        <time>2022-07-12T11:50:28Z</time>
      </trkpt>
      <trkpt lat="44.36334" lon="2.97374">
        <ele>695</ele>
        <time>2022-07-12T11:50:34Z</time>
      </trkpt>
      <trkpt lat="44.36311" lon="2.97379">
        <ele>694.2</ele>
        <time>2022-07-12T11:50:40Z</time>
      </trkpt>
      <trkpt lat="44.36292" lon="2.97384">
        <ele>693.2</ele>
        <time>2022-07-12T11:50:44Z</time>
      </trkpt>
      <trkpt lat="44.36276" lon="2.9739">
        <ele>692.4</ele>
        <time>2022-07-12T11:50:47Z</time>
      </trkpt>
      <trkpt lat="44.36271" lon="2.97392">
        <ele>691.4</ele>
        <time>2022-07-12T11:50:48Z</time>
      </trkpt>
      <trkpt lat="44.36247" lon="2.97397">
        <ele>690.2</ele>
        <time>2022-07-12T11:50:53Z</time>
      </trkpt>
      <trkpt lat="44.36242" lon="2.97397">
        <ele>690</ele>
        <time>2022-07-12T11:50:54Z</time>
      </trkpt>
      <trkpt lat="44.36233" lon="2.97398">
        <ele>689.2</ele>
        <time>2022-07-12T11:50:56Z</time>
      </trkpt>
      <trkpt lat="44.3622" lon="2.97398">
        <ele>688.4</ele>
        <time>2022-07-12T11:50:59Z</time>
      </trkpt>
      <trkpt lat="44.36211" lon="2.97397">
        <ele>688</ele>
        <time>2022-07-12T11:51:01Z</time>
      </trkpt>
      <trkpt lat="44.36201" lon="2.9739">
        <ele>687.2</ele>
        <time>2022-07-12T11:51:04Z</time>
      </trkpt>
      <trkpt lat="44.36199" lon="2.97388">
        <ele>687</ele>
        <time>2022-07-12T11:51:05Z</time>
      </trkpt>
      <trkpt lat="44.36194" lon="2.97385">
        <ele>686.2</ele>
        <time>2022-07-12T11:51:08Z</time>
      </trkpt>
      <trkpt lat="44.36193" lon="2.97385">
        <ele>685.6</ele>
        <time>2022-07-12T11:51:09Z</time>
      </trkpt>
      <trkpt lat="44.36185" lon="2.97386">
        <ele>684.2</ele>
        <time>2022-07-12T11:51:13Z</time>
      </trkpt>
      <trkpt lat="44.36167" lon="2.97393">
        <ele>683.6</ele>
        <time>2022-07-12T11:51:17Z</time>
      </trkpt>
      <trkpt lat="44.36162" lon="2.97395">
        <ele>683</ele>
        <time>2022-07-12T11:51:18Z</time>
      </trkpt>
      <trkpt lat="44.3614" lon="2.97407">
        <ele>681.8</ele>
        <time>2022-07-12T11:51:22Z</time>
      </trkpt>
      <trkpt lat="44.36131" lon="2.97414">
        <ele>680.6</ele>
        <time>2022-07-12T11:51:24Z</time>
      </trkpt>
      <trkpt lat="44.36128" lon="2.97416">
        <ele>680</ele>
        <time>2022-07-12T11:51:25Z</time>
      </trkpt>
      <trkpt lat="44.36121" lon="2.97419">
        <ele>678.8</ele>
        <time>2022-07-12T11:51:27Z</time>
      </trkpt>
      <trkpt lat="44.36116" lon="2.97421">
        <ele>677.8</ele>
        <time>2022-07-12T11:51:30Z</time>
      </trkpt>
      <trkpt lat="44.36115" lon="2.97421">
        <ele>677.4</ele>
        <time>2022-07-12T11:51:31Z</time>
      </trkpt>
      <trkpt lat="44.36115" lon="2.97421">
        <ele>676.8</ele>
        <time>2022-07-12T11:51:33Z</time>
      </trkpt>
      <trkpt lat="44.36112" lon="2.97421">
        <ele>675.4</ele>
        <time>2022-07-12T11:51:54Z</time>
      </trkpt>
      <trkpt lat="44.3611" lon="2.97421">
        <ele>675.6</ele>
        <time>2022-07-12T11:51:55Z</time>
      </trkpt>
      <trkpt lat="44.36094" lon="2.97423">
        <ele>675.4</ele>
        <time>2022-07-12T11:52:01Z</time>
      </trkpt>
      <trkpt lat="44.36072" lon="2.97426">
        <ele>674.4</ele>
        <time>2022-07-12T11:52:07Z</time>
      </trkpt>
      <trkpt lat="44.36043" lon="2.97432">
        <ele>673.6</ele>
        <time>2022-07-12T11:52:13Z</time>
      </trkpt>
      <trkpt lat="44.36033" lon="2.97434">
        <ele>673.4</ele>
        <time>2022-07-12T11:52:15Z</time>
      </trkpt>
      <trkpt lat="44.36012" lon="2.97438">
        <ele>672</ele>
        <time>2022-07-12T11:52:19Z</time>
      </trkpt>
      <trkpt lat="44.36001" lon="2.9744">
        <ele>671.2</ele>
        <time>2022-07-12T11:52:21Z</time>
      </trkpt>
      <trkpt lat="44.35996" lon="2.97442">
        <ele>671.2</ele>
        <time>2022-07-12T11:52:22Z</time>
      </trkpt>
      <trkpt lat="44.35991" lon="2.97444">
        <ele>670.4</ele>
        <time>2022-07-12T11:52:23Z</time>
      </trkpt>
      <trkpt lat="44.35976" lon="2.9745">
        <ele>669.6</ele>
        <time>2022-07-12T11:52:26Z</time>
      </trkpt>
      <trkpt lat="44.35971" lon="2.9745">
        <ele>669.4</ele>
        <time>2022-07-12T11:52:27Z</time>
      </trkpt>
      <trkpt lat="44.35947" lon="2.97448">
        <ele>668.6</ele>
        <time>2022-07-12T11:52:31Z</time>
      </trkpt>
      <trkpt lat="44.35941" lon="2.97448">
        <ele>668</ele>
        <time>2022-07-12T11:52:32Z</time>
      </trkpt>
      <trkpt lat="44.35928" lon="2.97448">
        <ele>666.6</ele>
        <time>2022-07-12T11:52:34Z</time>
      </trkpt>
      <trkpt lat="44.35921" lon="2.97448">
        <ele>665.2</ele>
        <time>2022-07-12T11:52:35Z</time>
      </trkpt>
      <trkpt lat="44.35914" lon="2.97448">
        <ele>664.8</ele>
        <time>2022-07-12T11:52:36Z</time>
      </trkpt>
      <trkpt lat="44.35907" lon="2.97449">
        <ele>664</ele>
        <time>2022-07-12T11:52:37Z</time>
      </trkpt>
      <trkpt lat="44.35893" lon="2.97449">
        <ele>662.8</ele>
        <time>2022-07-12T11:52:39Z</time>
      </trkpt>
      <trkpt lat="44.35867" lon="2.97453">
        <ele>661.6</ele>
        <time>2022-07-12T11:52:43Z</time>
      </trkpt>
      <trkpt lat="44.35848" lon="2.97456">
        <ele>659.8</ele>
        <time>2022-07-12T11:52:46Z</time>
      </trkpt>
      <trkpt lat="44.35824" lon="2.97463">
        <ele>658.6</ele>
        <time>2022-07-12T11:52:50Z</time>
      </trkpt>
      <trkpt lat="44.35796" lon="2.97474">
        <ele>657.6</ele>
        <time>2022-07-12T11:52:55Z</time>
      </trkpt>
      <trkpt lat="44.35781" lon="2.97479">
        <ele>656.8</ele>
        <time>2022-07-12T11:52:58Z</time>
      </trkpt>
      <trkpt lat="44.35777" lon="2.97481">
        <ele>655.8</ele>
        <time>2022-07-12T11:52:59Z</time>
      </trkpt>
      <trkpt lat="44.35762" lon="2.97487">
        <ele>654.4</ele>
        <time>2022-07-12T11:53:02Z</time>
      </trkpt>
      <trkpt lat="44.35757" lon="2.97489">
        <ele>654.4</ele>
        <time>2022-07-12T11:53:03Z</time>
      </trkpt>
      <trkpt lat="44.35725" lon="2.975">
        <ele>653.4</ele>
        <time>2022-07-12T11:53:09Z</time>
      </trkpt>
      <trkpt lat="44.35704" lon="2.97509">
        <ele>652.2</ele>
        <time>2022-07-12T11:53:13Z</time>
      </trkpt>
      <trkpt lat="44.35684" lon="2.97522">
        <ele>651.8</ele>
        <time>2022-07-12T11:53:17Z</time>
      </trkpt>
      <trkpt lat="44.35676" lon="2.97529">
        <ele>651.2</ele>
        <time>2022-07-12T11:53:19Z</time>
      </trkpt>
      <trkpt lat="44.35668" lon="2.97529">
        <ele>650.6</ele>
        <time>2022-07-12T11:53:21Z</time>
      </trkpt>
      <trkpt lat="44.35662" lon="2.97528">
        <ele>650.4</ele>
        <time>2022-07-12T11:53:22Z</time>
      </trkpt>
      <trkpt lat="44.35645" lon="2.97522">
        <ele>650</ele>
        <time>2022-07-12T11:53:25Z</time>
      </trkpt>
      <trkpt lat="44.35635" lon="2.97518">
        <ele>649.6</ele>
        <time>2022-07-12T11:53:27Z</time>
      </trkpt>
      <trkpt lat="44.3562" lon="2.97509">
        <ele>648.8</ele>
        <time>2022-07-12T11:53:30Z</time>
      </trkpt>
      <trkpt lat="44.35608" lon="2.97504">
        <ele>648.4</ele>
        <time>2022-07-12T11:53:32Z</time>
      </trkpt>
      <trkpt lat="44.35598" lon="2.97502">
        <ele>647.6</ele>
        <time>2022-07-12T11:53:34Z</time>
      </trkpt>
      <trkpt lat="44.35589" lon="2.97501">
        <ele>646.6</ele>
        <time>2022-07-12T11:53:36Z</time>
      </trkpt>
      <trkpt lat="44.3558" lon="2.975">
        <ele>645.8</ele>
        <time>2022-07-12T11:53:38Z</time>
      </trkpt>
      <trkpt lat="44.35575" lon="2.97502">
        <ele>645.6</ele>
        <time>2022-07-12T11:53:39Z</time>
      </trkpt>
      <trkpt lat="44.35567" lon="2.97504">
        <ele>644.6</ele>
        <time>2022-07-12T11:53:41Z</time>
      </trkpt>
      <trkpt lat="44.35561" lon="2.97505">
        <ele>643.6</ele>
        <time>2022-07-12T11:53:43Z</time>
      </trkpt>
      <trkpt lat="44.35557" lon="2.97506">
        <ele>642.8</ele>
        <time>2022-07-12T11:53:45Z</time>
      </trkpt>
      <trkpt lat="44.35551" lon="2.97511">
        <ele>641.8</ele>
        <time>2022-07-12T11:53:48Z</time>
      </trkpt>
      <trkpt lat="44.35548" lon="2.97513">
        <ele>641.8</ele>
        <time>2022-07-12T11:53:49Z</time>
      </trkpt>
      <trkpt lat="44.35539" lon="2.9752">
        <ele>640.6</ele>
        <time>2022-07-12T11:53:54Z</time>
      </trkpt>
      <trkpt lat="44.35533" lon="2.97526">
        <ele>640.6</ele>
        <time>2022-07-12T11:53:59Z</time>
      </trkpt>
      <trkpt lat="44.35527" lon="2.97533">
        <ele>641.2</ele>
        <time>2022-07-12T11:54:05Z</time>
      </trkpt>
      <trkpt lat="44.35525" lon="2.97537">
        <ele>641.6</ele>
        <time>2022-07-12T11:54:08Z</time>
      </trkpt>
      <trkpt lat="44.35524" lon="2.97538">
        <ele>642</ele>
        <time>2022-07-12T11:54:09Z</time>
      </trkpt>
      <trkpt lat="44.35522" lon="2.9754">
        <ele>642.4</ele>
        <time>2022-07-12T11:54:11Z</time>
      </trkpt>
      <trkpt lat="44.35522" lon="2.97541">
        <ele>642.6</ele>
        <time>2022-07-12T11:54:12Z</time>
      </trkpt>
      <trkpt lat="44.35521" lon="2.97543">
        <ele>642.8</ele>
        <time>2022-07-12T11:54:13Z</time>
      </trkpt>
      <trkpt lat="44.3552" lon="2.97544">
        <ele>643.6</ele>
        <time>2022-07-12T11:54:17Z</time>
      </trkpt>
      <trkpt lat="44.35521" lon="2.97543">
        <ele>644.2</ele>
        <time>2022-07-12T11:54:24Z</time>
      </trkpt>
      <trkpt lat="44.35523" lon="2.97542">
        <ele>644.2</ele>
        <time>2022-07-12T11:54:25Z</time>
      </trkpt>
      <trkpt lat="44.35533" lon="2.9753">
        <ele>643.8</ele>
        <time>2022-07-12T11:54:29Z</time>
      </trkpt>
      <trkpt lat="44.35542" lon="2.9752">
        <ele>643.2</ele>
        <time>2022-07-12T11:54:32Z</time>
      </trkpt>
      <trkpt lat="44.35543" lon="2.97517">
        <ele>643</ele>
        <time>2022-07-12T11:54:33Z</time>
      </trkpt>
      <trkpt lat="44.35543" lon="2.97514">
        <ele>642.6</ele>
        <time>2022-07-12T11:54:34Z</time>
      </trkpt>
      <trkpt lat="44.35542" lon="2.9751">
        <ele>641.6</ele>
        <time>2022-07-12T11:54:36Z</time>
      </trkpt>
      <trkpt lat="44.35538" lon="2.97509">
        <ele>641</ele>
        <time>2022-07-12T11:54:38Z</time>
      </trkpt>
      <trkpt lat="44.35536" lon="2.9751">
        <ele>640.6</ele>
        <time>2022-07-12T11:54:39Z</time>
      </trkpt>
      <trkpt lat="44.35529" lon="2.97511">
        <ele>639.4</ele>
        <time>2022-07-12T11:54:42Z</time>
      </trkpt>
      <trkpt lat="44.35526" lon="2.97513">
        <ele>639</ele>
        <time>2022-07-12T11:54:43Z</time>
      </trkpt>
      <trkpt lat="44.3552" lon="2.97512">
        <ele>638.4</ele>
        <time>2022-07-12T11:54:45Z</time>
      </trkpt>
      <trkpt lat="44.35509" lon="2.97512">
        <ele>637</ele>
        <time>2022-07-12T11:54:48Z</time>
      </trkpt>
      <trkpt lat="44.35493" lon="2.97516">
        <ele>635.4</ele>
        <time>2022-07-12T11:54:52Z</time>
      </trkpt>
      <trkpt lat="44.35489" lon="2.97518">
        <ele>634.6</ele>
        <time>2022-07-12T11:54:53Z</time>
      </trkpt>
      <trkpt lat="44.35485" lon="2.97521">
        <ele>634.4</ele>
        <time>2022-07-12T11:54:54Z</time>
      </trkpt>
      <trkpt lat="44.35479" lon="2.97525">
        <ele>633.2</ele>
        <time>2022-07-12T11:54:56Z</time>
      </trkpt>
      <trkpt lat="44.35473" lon="2.97532">
        <ele>632.2</ele>
        <time>2022-07-12T11:54:58Z</time>
      </trkpt>
      <trkpt lat="44.35467" lon="2.97538">
        <ele>631.4</ele>
        <time>2022-07-12T11:55:00Z</time>
      </trkpt>
      <trkpt lat="44.35464" lon="2.97541">
        <ele>631</ele>
        <time>2022-07-12T11:55:01Z</time>
      </trkpt>
      <trkpt lat="44.35456" lon="2.97553">
        <ele>629.8</ele>
        <time>2022-07-12T11:55:04Z</time>
      </trkpt>
      <trkpt lat="44.35451" lon="2.97562">
        <ele>629.2</ele>
        <time>2022-07-12T11:55:06Z</time>
      </trkpt>
      <trkpt lat="44.35449" lon="2.97566">
        <ele>629.2</ele>
        <time>2022-07-12T11:55:07Z</time>
      </trkpt>
      <trkpt lat="44.35444" lon="2.97576">
        <ele>628.6</ele>
        <time>2022-07-12T11:55:09Z</time>
      </trkpt>
      <trkpt lat="44.35438" lon="2.97585">
        <ele>627.4</ele>
        <time>2022-07-12T11:55:11Z</time>
      </trkpt>
      <trkpt lat="44.35434" lon="2.97588">
        <ele>627.2</ele>
        <time>2022-07-12T11:55:12Z</time>
      </trkpt>
      <trkpt lat="44.3543" lon="2.9759">
        <ele>626.6</ele>
        <time>2022-07-12T11:55:13Z</time>
      </trkpt>
      <trkpt lat="44.35427" lon="2.97592">
        <ele>626.2</ele>
        <time>2022-07-12T11:55:14Z</time>
      </trkpt>
      <trkpt lat="44.35423" lon="2.97593">
        <ele>625.8</ele>
        <time>2022-07-12T11:55:15Z</time>
      </trkpt>
      <trkpt lat="44.35414" lon="2.9759">
        <ele>624.8</ele>
        <time>2022-07-12T11:55:17Z</time>
      </trkpt>
      <trkpt lat="44.35401" lon="2.97582">
        <ele>623.4</ele>
        <time>2022-07-12T11:55:20Z</time>
      </trkpt>
      <trkpt lat="44.35397" lon="2.97579">
        <ele>623</ele>
        <time>2022-07-12T11:55:21Z</time>
      </trkpt>
      <trkpt lat="44.35394" lon="2.97575">
        <ele>622.4</ele>
        <time>2022-07-12T11:55:22Z</time>
      </trkpt>
      <trkpt lat="44.35392" lon="2.97569">
        <ele>622</ele>
        <time>2022-07-12T11:55:23Z</time>
      </trkpt>
      <trkpt lat="44.35391" lon="2.97562">
        <ele>621.2</ele>
        <time>2022-07-12T11:55:24Z</time>
      </trkpt>
      <trkpt lat="44.3539" lon="2.97556">
        <ele>621</ele>
        <time>2022-07-12T11:55:25Z</time>
      </trkpt>
      <trkpt lat="44.35386" lon="2.97541">
        <ele>620</ele>
        <time>2022-07-12T11:55:27Z</time>
      </trkpt>
      <trkpt lat="44.35384" lon="2.97535">
        <ele>619.6</ele>
        <time>2022-07-12T11:55:28Z</time>
      </trkpt>
      <trkpt lat="44.35382" lon="2.9753">
        <ele>619.2</ele>
        <time>2022-07-12T11:55:29Z</time>
      </trkpt>
      <trkpt lat="44.35373" lon="2.97515">
        <ele>618.8</ele>
        <time>2022-07-12T11:55:32Z</time>
      </trkpt>
      <trkpt lat="44.35367" lon="2.97508">
        <ele>618.6</ele>
        <time>2022-07-12T11:55:34Z</time>
      </trkpt>
      <trkpt lat="44.3536" lon="2.97493">
        <ele>618.2</ele>
        <time>2022-07-12T11:55:39Z</time>
      </trkpt>
      <trkpt lat="44.35355" lon="2.97482">
        <ele>618.2</ele>
        <time>2022-07-12T11:55:43Z</time>
      </trkpt>
      <trkpt lat="44.35353" lon="2.97472">
        <ele>618.2</ele>
        <time>2022-07-12T11:55:45Z</time>
      </trkpt>
      <trkpt lat="44.35353" lon="2.97465">
        <ele>618.4</ele>
        <time>2022-07-12T11:55:47Z</time>
      </trkpt>
      <trkpt lat="44.35353" lon="2.97454">
        <ele>618.4</ele>
        <time>2022-07-12T11:55:50Z</time>
      </trkpt>
      <trkpt lat="44.35353" lon="2.97444">
        <ele>618.6</ele>
        <time>2022-07-12T11:55:53Z</time>
      </trkpt>
      <trkpt lat="44.35355" lon="2.97435">
        <ele>619</ele>
        <time>2022-07-12T11:55:56Z</time>
      </trkpt>
      <trkpt lat="44.35356" lon="2.97428">
        <ele>619.2</ele>
        <time>2022-07-12T11:55:58Z</time>
      </trkpt>
      <trkpt lat="44.3536" lon="2.97413">
        <ele>619.8</ele>
        <time>2022-07-12T11:56:02Z</time>
      </trkpt>
      <trkpt lat="44.35363" lon="2.97409">
        <ele>620</ele>
        <time>2022-07-12T11:56:04Z</time>
      </trkpt>
      <trkpt lat="44.35364" lon="2.97405">
        <ele>620.2</ele>
        <time>2022-07-12T11:56:06Z</time>
      </trkpt>
      <trkpt lat="44.35364" lon="2.97399">
        <ele>620.4</ele>
        <time>2022-07-12T11:56:08Z</time>
      </trkpt>
      <trkpt lat="44.35363" lon="2.97378">
        <ele>620.8</ele>
        <time>2022-07-12T11:56:14Z</time>
      </trkpt>
      <trkpt lat="44.35362" lon="2.97375">
        <ele>621</ele>
        <time>2022-07-12T11:56:15Z</time>
      </trkpt>
      <trkpt lat="44.35356" lon="2.97348">
        <ele>621.6</ele>
        <time>2022-07-12T11:56:23Z</time>
      </trkpt>
      <trkpt lat="44.35354" lon="2.97336">
        <ele>622</ele>
        <time>2022-07-12T11:56:27Z</time>
      </trkpt>
      <trkpt lat="44.35354" lon="2.97329">
        <ele>622.6</ele>
        <time>2022-07-12T11:56:30Z</time>
      </trkpt>
      <trkpt lat="44.35353" lon="2.97324">
        <ele>623.2</ele>
        <time>2022-07-12T11:56:32Z</time>
      </trkpt>
      <trkpt lat="44.3535" lon="2.97313">
        <ele>624</ele>
        <time>2022-07-12T11:56:37Z</time>
      </trkpt>
      <trkpt lat="44.35349" lon="2.97311">
        <ele>624.4</ele>
        <time>2022-07-12T11:56:38Z</time>
      </trkpt>
      <trkpt lat="44.35345" lon="2.97309">
        <ele>625</ele>
        <time>2022-07-12T11:56:40Z</time>
      </trkpt>
      <trkpt lat="44.35341" lon="2.9731">
        <ele>625.4</ele>
        <time>2022-07-12T11:56:42Z</time>
      </trkpt>
      <trkpt lat="44.35339" lon="2.97311">
        <ele>625.4</ele>
        <time>2022-07-12T11:56:43Z</time>
      </trkpt>
      <trkpt lat="44.35328" lon="2.97323">
        <ele>626</ele>
        <time>2022-07-12T11:56:50Z</time>
      </trkpt>
      <trkpt lat="44.35321" lon="2.97328">
        <ele>626.4</ele>
        <time>2022-07-12T11:56:54Z</time>
      </trkpt>
      <trkpt lat="44.35318" lon="2.97332">
        <ele>626.6</ele>
        <time>2022-07-12T11:56:56Z</time>
      </trkpt>
      <trkpt lat="44.35313" lon="2.97335">
        <ele>627.2</ele>
        <time>2022-07-12T11:56:59Z</time>
      </trkpt>
      <trkpt lat="44.35302" lon="2.97339">
        <ele>627.8</ele>
        <time>2022-07-12T11:57:05Z</time>
      </trkpt>
      <trkpt lat="44.35293" lon="2.9734">
        <ele>628.4</ele>
        <time>2022-07-12T11:57:09Z</time>
      </trkpt>
      <trkpt lat="44.3529" lon="2.9734">
        <ele>628.8</ele>
        <time>2022-07-12T11:57:10Z</time>
      </trkpt>
      <trkpt lat="44.35276" lon="2.97337">
        <ele>629.8</ele>
        <time>2022-07-12T11:57:16Z</time>
      </trkpt>
      <trkpt lat="44.35262" lon="2.97323">
        <ele>630.8</ele>
        <time>2022-07-12T11:57:22Z</time>
      </trkpt>
      <trkpt lat="44.3526" lon="2.97321">
        <ele>631</ele>
        <time>2022-07-12T11:57:23Z</time>
      </trkpt>
      <trkpt lat="44.35251" lon="2.97306">
        <ele>631.6</ele>
        <time>2022-07-12T11:57:29Z</time>
      </trkpt>
      <trkpt lat="44.35247" lon="2.97297">
        <ele>632</ele>
        <time>2022-07-12T11:57:32Z</time>
      </trkpt>
      <trkpt lat="44.35236" lon="2.97275">
        <ele>633</ele>
        <time>2022-07-12T11:57:40Z</time>
      </trkpt>
      <trkpt lat="44.35235" lon="2.97273">
        <ele>633.2</ele>
        <time>2022-07-12T11:57:41Z</time>
      </trkpt>
      <trkpt lat="44.35225" lon="2.9725">
        <ele>634</ele>
        <time>2022-07-12T11:57:49Z</time>
      </trkpt>
      <trkpt lat="44.3522" lon="2.97239">
        <ele>634.6</ele>
        <time>2022-07-12T11:57:53Z</time>
      </trkpt>
      <trkpt lat="44.35211" lon="2.97222">
        <ele>635.2</ele>
        <time>2022-07-12T11:57:59Z</time>
      </trkpt>
      <trkpt lat="44.35203" lon="2.97211">
        <ele>635.8</ele>
        <time>2022-07-12T11:58:03Z</time>
      </trkpt>
      <trkpt lat="44.35191" lon="2.97195">
        <ele>636.4</ele>
        <time>2022-07-12T11:58:09Z</time>
      </trkpt>
      <trkpt lat="44.35186" lon="2.9719">
        <ele>636.6</ele>
        <time>2022-07-12T11:58:11Z</time>
      </trkpt>
      <trkpt lat="44.3516" lon="2.97173">
        <ele>637</ele>
        <time>2022-07-12T11:58:19Z</time>
      </trkpt>
      <trkpt lat="44.35134" lon="2.9716">
        <ele>637.4</ele>
        <time>2022-07-12T11:58:27Z</time>
      </trkpt>
      <trkpt lat="44.35108" lon="2.97143">
        <ele>637.4</ele>
        <time>2022-07-12T11:58:35Z</time>
      </trkpt>
      <trkpt lat="44.35097" lon="2.97124">
        <ele>637.4</ele>
        <time>2022-07-12T11:58:40Z</time>
      </trkpt>
      <trkpt lat="44.35095" lon="2.9712">
        <ele>637.4</ele>
        <time>2022-07-12T11:58:41Z</time>
      </trkpt>
      <trkpt lat="44.35082" lon="2.97112">
        <ele>637.6</ele>
        <time>2022-07-12T11:58:45Z</time>
      </trkpt>
      <trkpt lat="44.35066" lon="2.9712">
        <ele>637.8</ele>
        <time>2022-07-12T11:58:50Z</time>
      </trkpt>
      <trkpt lat="44.35052" lon="2.97147">
        <ele>637.8</ele>
        <time>2022-07-12T11:58:56Z</time>
      </trkpt>
      <trkpt lat="44.35026" lon="2.97164">
        <ele>637.6</ele>
        <time>2022-07-12T11:59:03Z</time>
      </trkpt>
      <trkpt lat="44.35007" lon="2.97174">
        <ele>637.8</ele>
        <time>2022-07-12T11:59:09Z</time>
      </trkpt>
      <trkpt lat="44.34983" lon="2.97179">
        <ele>638.4</ele>
        <time>2022-07-12T11:59:16Z</time>
      </trkpt>
      <trkpt lat="44.34975" lon="2.97178">
        <ele>638.6</ele>
        <time>2022-07-12T11:59:18Z</time>
      </trkpt>
      <trkpt lat="44.34962" lon="2.97173">
        <ele>639</ele>
        <time>2022-07-12T11:59:22Z</time>
      </trkpt>
      <trkpt lat="44.34947" lon="2.97162">
        <ele>639.8</ele>
        <time>2022-07-12T11:59:28Z</time>
      </trkpt>
      <trkpt lat="44.34942" lon="2.97158">
        <ele>640</ele>
        <time>2022-07-12T11:59:30Z</time>
      </trkpt>
      <trkpt lat="44.3493" lon="2.97146">
        <ele>641</ele>
        <time>2022-07-12T11:59:35Z</time>
      </trkpt>
      <trkpt lat="44.34923" lon="2.97139">
        <ele>641.4</ele>
        <time>2022-07-12T11:59:38Z</time>
      </trkpt>
      <trkpt lat="44.34905" lon="2.97123">
        <ele>642</ele>
        <time>2022-07-12T11:59:45Z</time>
      </trkpt>
      <trkpt lat="44.34902" lon="2.97121">
        <ele>642.2</ele>
        <time>2022-07-12T11:59:46Z</time>
      </trkpt>
      <trkpt lat="44.34879" lon="2.97106">
        <ele>643</ele>
        <time>2022-07-12T11:59:54Z</time>
      </trkpt>
      <trkpt lat="44.34876" lon="2.97105">
        <ele>643.2</ele>
        <time>2022-07-12T11:59:55Z</time>
      </trkpt>
      <trkpt lat="44.34856" lon="2.97099">
        <ele>644.2</ele>
        <time>2022-07-12T12:00:02Z</time>
      </trkpt>
      <trkpt lat="44.34843" lon="2.97098">
        <ele>644.6</ele>
        <time>2022-07-12T12:00:06Z</time>
      </trkpt>
      <trkpt lat="44.3483" lon="2.97099">
        <ele>645.2</ele>
        <time>2022-07-12T12:00:10Z</time>
      </trkpt>
      <trkpt lat="44.34812" lon="2.97103">
        <ele>645.6</ele>
        <time>2022-07-12T12:00:16Z</time>
      </trkpt>
      <trkpt lat="44.348" lon="2.97105">
        <ele>646.2</ele>
        <time>2022-07-12T12:00:20Z</time>
      </trkpt>
      <trkpt lat="44.34779" lon="2.97104">
        <ele>646.6</ele>
        <time>2022-07-12T12:00:26Z</time>
      </trkpt>
      <trkpt lat="44.34774" lon="2.97103">
        <ele>646.6</ele>
        <time>2022-07-12T12:00:27Z</time>
      </trkpt>
      <trkpt lat="44.34755" lon="2.97091">
        <ele>646.2</ele>
        <time>2022-07-12T12:00:31Z</time>
      </trkpt>
      <trkpt lat="44.34729" lon="2.97071">
        <ele>645.6</ele>
        <time>2022-07-12T12:00:37Z</time>
      </trkpt>
      <trkpt lat="44.34716" lon="2.97056">
        <ele>645.4</ele>
        <time>2022-07-12T12:00:42Z</time>
      </trkpt>
      <trkpt lat="44.34697" lon="2.97046">
        <ele>646</ele>
        <time>2022-07-12T12:00:48Z</time>
      </trkpt>
      <trkpt lat="44.34669" lon="2.97043">
        <ele>646.4</ele>
        <time>2022-07-12T12:00:56Z</time>
      </trkpt>
      <trkpt lat="44.34636" lon="2.97035">
        <ele>646.4</ele>
        <time>2022-07-12T12:01:04Z</time>
      </trkpt>
      <trkpt lat="44.34604" lon="2.97023">
        <ele>646.4</ele>
        <time>2022-07-12T12:01:12Z</time>
      </trkpt>
      <trkpt lat="44.34573" lon="2.97002">
        <ele>646.6</ele>
        <time>2022-07-12T12:01:19Z</time>
      </trkpt>
      <trkpt lat="44.34539" lon="2.9698">
        <ele>646.2</ele>
        <time>2022-07-12T12:01:27Z</time>
      </trkpt>
      <trkpt lat="44.34525" lon="2.96974">
        <ele>646.2</ele>
        <time>2022-07-12T12:01:30Z</time>
      </trkpt>
      <trkpt lat="44.34516" lon="2.96973">
        <ele>646.2</ele>
        <time>2022-07-12T12:01:32Z</time>
      </trkpt>
      <trkpt lat="44.34511" lon="2.96972">
        <ele>646.2</ele>
        <time>2022-07-12T12:01:33Z</time>
      </trkpt>
      <trkpt lat="44.34506" lon="2.96973">
        <ele>646.2</ele>
        <time>2022-07-12T12:01:34Z</time>
      </trkpt>
      <trkpt lat="44.34493" lon="2.96978">
        <ele>646</ele>
        <time>2022-07-12T12:01:37Z</time>
      </trkpt>
      <trkpt lat="44.34488" lon="2.96981">
        <ele>646</ele>
        <time>2022-07-12T12:01:38Z</time>
      </trkpt>
      <trkpt lat="44.34458" lon="2.97006">
        <ele>646</ele>
        <time>2022-07-12T12:01:45Z</time>
      </trkpt>
      <trkpt lat="44.34447" lon="2.97009">
        <ele>646</ele>
        <time>2022-07-12T12:01:47Z</time>
      </trkpt>
      <trkpt lat="44.34436" lon="2.97005">
        <ele>645.8</ele>
        <time>2022-07-12T12:01:49Z</time>
      </trkpt>
      <trkpt lat="44.34413" lon="2.96985">
        <ele>645.6</ele>
        <time>2022-07-12T12:01:54Z</time>
      </trkpt>
      <trkpt lat="44.34374" lon="2.96951">
        <ele>645</ele>
        <time>2022-07-12T12:02:02Z</time>
      </trkpt>
      <trkpt lat="44.34347" lon="2.96926">
        <ele>644.6</ele>
        <time>2022-07-12T12:02:07Z</time>
      </trkpt>
      <trkpt lat="44.34342" lon="2.96921">
        <ele>644.2</ele>
        <time>2022-07-12T12:02:08Z</time>
      </trkpt>
      <trkpt lat="44.34333" lon="2.96909">
        <ele>643.8</ele>
        <time>2022-07-12T12:02:10Z</time>
      </trkpt>
      <trkpt lat="44.34325" lon="2.96896">
        <ele>643.6</ele>
        <time>2022-07-12T12:02:12Z</time>
      </trkpt>
      <trkpt lat="44.34312" lon="2.96869">
        <ele>643</ele>
        <time>2022-07-12T12:02:16Z</time>
      </trkpt>
      <trkpt lat="44.34296" lon="2.96831">
        <ele>642.6</ele>
        <time>2022-07-12T12:02:22Z</time>
      </trkpt>
      <trkpt lat="44.34292" lon="2.96825">
        <ele>642.4</ele>
        <time>2022-07-12T12:02:23Z</time>
      </trkpt>
      <trkpt lat="44.34278" lon="2.96809">
        <ele>642</ele>
        <time>2022-07-12T12:02:26Z</time>
      </trkpt>
      <trkpt lat="44.34255" lon="2.96788">
        <ele>641.2</ele>
        <time>2022-07-12T12:02:30Z</time>
      </trkpt>
      <trkpt lat="44.34249" lon="2.96783">
        <ele>640.8</ele>
        <time>2022-07-12T12:02:31Z</time>
      </trkpt>
      <trkpt lat="44.3423" lon="2.96766">
        <ele>640.2</ele>
        <time>2022-07-12T12:02:35Z</time>
      </trkpt>
      <trkpt lat="44.34226" lon="2.96761">
        <ele>640</ele>
        <time>2022-07-12T12:02:36Z</time>
      </trkpt>
      <trkpt lat="44.34215" lon="2.96743">
        <ele>639</ele>
        <time>2022-07-12T12:02:39Z</time>
      </trkpt>
      <trkpt lat="44.34209" lon="2.96731">
        <ele>638.8</ele>
        <time>2022-07-12T12:02:41Z</time>
      </trkpt>
      <trkpt lat="44.34201" lon="2.9672">
        <ele>638.6</ele>
        <time>2022-07-12T12:02:43Z</time>
      </trkpt>
      <trkpt lat="44.34198" lon="2.96716">
        <ele>638</ele>
        <time>2022-07-12T12:02:44Z</time>
      </trkpt>
      <trkpt lat="44.34193" lon="2.96713">
        <ele>637.8</ele>
        <time>2022-07-12T12:02:45Z</time>
      </trkpt>
      <trkpt lat="44.34187" lon="2.9671">
        <ele>637.6</ele>
        <time>2022-07-12T12:02:46Z</time>
      </trkpt>
      <trkpt lat="44.34182" lon="2.96707">
        <ele>637.6</ele>
        <time>2022-07-12T12:02:47Z</time>
      </trkpt>
      <trkpt lat="44.34167" lon="2.96696">
        <ele>637.4</ele>
        <time>2022-07-12T12:02:50Z</time>
      </trkpt>
      <trkpt lat="44.34161" lon="2.96693">
        <ele>637.2</ele>
        <time>2022-07-12T12:02:51Z</time>
      </trkpt>
      <trkpt lat="44.34155" lon="2.96692">
        <ele>637</ele>
        <time>2022-07-12T12:02:52Z</time>
      </trkpt>
      <trkpt lat="44.34144" lon="2.96695">
        <ele>636.2</ele>
        <time>2022-07-12T12:02:54Z</time>
      </trkpt>
      <trkpt lat="44.34137" lon="2.96696">
        <ele>636</ele>
        <time>2022-07-12T12:02:55Z</time>
      </trkpt>
      <trkpt lat="44.34133" lon="2.96698">
        <ele>635.8</ele>
        <time>2022-07-12T12:02:56Z</time>
      </trkpt>
      <trkpt lat="44.34128" lon="2.967">
        <ele>635.2</ele>
        <time>2022-07-12T12:02:58Z</time>
      </trkpt>
      <trkpt lat="44.34123" lon="2.96701">
        <ele>635</ele>
        <time>2022-07-12T12:02:59Z</time>
      </trkpt>
      <trkpt lat="44.3412" lon="2.96702">
        <ele>634.6</ele>
        <time>2022-07-12T12:03:00Z</time>
      </trkpt>
      <trkpt lat="44.34114" lon="2.96704">
        <ele>634.2</ele>
        <time>2022-07-12T12:03:02Z</time>
      </trkpt>
      <trkpt lat="44.34111" lon="2.96706">
        <ele>634.2</ele>
        <time>2022-07-12T12:03:03Z</time>
      </trkpt>
      <trkpt lat="44.34103" lon="2.96711">
        <ele>633.6</ele>
        <time>2022-07-12T12:03:07Z</time>
      </trkpt>
      <trkpt lat="44.34102" lon="2.96712">
        <ele>633.4</ele>
        <time>2022-07-12T12:03:08Z</time>
      </trkpt>
      <trkpt lat="44.34097" lon="2.96713">
        <ele>632.4</ele>
        <time>2022-07-12T12:03:13Z</time>
      </trkpt>
      <trkpt lat="44.34097" lon="2.96713">
        <ele>632.2</ele>
        <time>2022-07-12T12:03:14Z</time>
      </trkpt>
      <trkpt lat="44.34097" lon="2.96714">
        <ele>632.2</ele>
        <time>2022-07-12T12:03:15Z</time>
      </trkpt>
      <trkpt lat="44.34097" lon="2.96713">
        <ele>631.8</ele>
        <time>2022-07-12T12:03:17Z</time>
      </trkpt>
      <trkpt lat="44.34097" lon="2.96715">
        <ele>631.4</ele>
        <time>2022-07-12T12:03:21Z</time>
      </trkpt>
      <trkpt lat="44.34098" lon="2.96716">
        <ele>631</ele>
        <time>2022-07-12T12:03:25Z</time>
      </trkpt>
      <trkpt lat="44.34094" lon="2.96717">
        <ele>630.6</ele>
        <time>2022-07-12T12:05:22Z</time>
      </trkpt>
      <trkpt lat="44.34093" lon="2.96717">
        <ele>630.4</ele>
        <time>2022-07-12T12:05:24Z</time>
      </trkpt>
      <trkpt lat="44.3409" lon="2.96717">
        <ele>630.4</ele>
        <time>2022-07-12T12:05:26Z</time>
      </trkpt>
      <trkpt lat="44.34087" lon="2.96718">
        <ele>630.4</ele>
        <time>2022-07-12T12:05:27Z</time>
      </trkpt>
      <trkpt lat="44.34071" lon="2.96719">
        <ele>630</ele>
        <time>2022-07-12T12:05:31Z</time>
      </trkpt>
      <trkpt lat="44.34054" lon="2.96717">
        <ele>629.8</ele>
        <time>2022-07-12T12:05:35Z</time>
      </trkpt>
      <trkpt lat="44.34039" lon="2.96726">
        <ele>629.4</ele>
        <time>2022-07-12T12:05:39Z</time>
      </trkpt>
      <trkpt lat="44.34034" lon="2.96728">
        <ele>629.2</ele>
        <time>2022-07-12T12:05:40Z</time>
      </trkpt>
      <trkpt lat="44.34025" lon="2.96735">
        <ele>629</ele>
        <time>2022-07-12T12:05:42Z</time>
      </trkpt>
      <trkpt lat="44.34016" lon="2.96742">
        <ele>628.4</ele>
        <time>2022-07-12T12:05:44Z</time>
      </trkpt>
      <trkpt lat="44.34011" lon="2.96745">
        <ele>628.2</ele>
        <time>2022-07-12T12:05:45Z</time>
      </trkpt>
      <trkpt lat="44.33999" lon="2.96749">
        <ele>628</ele>
        <time>2022-07-12T12:05:47Z</time>
      </trkpt>
      <trkpt lat="44.33994" lon="2.96754">
        <ele>627.8</ele>
        <time>2022-07-12T12:05:48Z</time>
      </trkpt>
      <trkpt lat="44.33986" lon="2.96762">
        <ele>627.2</ele>
        <time>2022-07-12T12:05:50Z</time>
      </trkpt>
      <trkpt lat="44.33982" lon="2.96765">
        <ele>626.8</ele>
        <time>2022-07-12T12:05:51Z</time>
      </trkpt>
      <trkpt lat="44.33979" lon="2.96764">
        <ele>626.4</ele>
        <time>2022-07-12T12:05:52Z</time>
      </trkpt>
      <trkpt lat="44.33972" lon="2.96758">
        <ele>626</ele>
        <time>2022-07-12T12:05:54Z</time>
      </trkpt>
      <trkpt lat="44.33964" lon="2.96749">
        <ele>625.6</ele>
        <time>2022-07-12T12:05:56Z</time>
      </trkpt>
      <trkpt lat="44.33951" lon="2.96731">
        <ele>625</ele>
        <time>2022-07-12T12:06:00Z</time>
      </trkpt>
      <trkpt lat="44.33941" lon="2.96718">
        <ele>624.2</ele>
        <time>2022-07-12T12:06:03Z</time>
      </trkpt>
      <trkpt lat="44.33937" lon="2.96712">
        <ele>623.8</ele>
        <time>2022-07-12T12:06:05Z</time>
      </trkpt>
      <trkpt lat="44.33933" lon="2.96703">
        <ele>623.4</ele>
        <time>2022-07-12T12:06:08Z</time>
      </trkpt>
      <trkpt lat="44.33933" lon="2.96701">
        <ele>623.6</ele>
        <time>2022-07-12T12:06:09Z</time>
      </trkpt>
      <trkpt lat="44.33931" lon="2.96697">
        <ele>623.6</ele>
        <time>2022-07-12T12:06:11Z</time>
      </trkpt>
      <trkpt lat="44.33929" lon="2.96696">
        <ele>623.6</ele>
        <time>2022-07-12T12:06:12Z</time>
      </trkpt>
      <trkpt lat="44.33928" lon="2.96692">
        <ele>623.8</ele>
        <time>2022-07-12T12:06:14Z</time>
      </trkpt>
      <trkpt lat="44.33926" lon="2.9669">
        <ele>623.8</ele>
        <time>2022-07-12T12:06:18Z</time>
      </trkpt>
      <trkpt lat="44.33923" lon="2.96688">
        <ele>624</ele>
        <time>2022-07-12T12:06:25Z</time>
      </trkpt>
      <trkpt lat="44.33922" lon="2.96685">
        <ele>623.6</ele>
        <time>2022-07-12T12:06:27Z</time>
      </trkpt>
      <trkpt lat="44.3392" lon="2.96682">
        <ele>623.6</ele>
        <time>2022-07-12T12:06:29Z</time>
      </trkpt>
      <trkpt lat="44.33917" lon="2.96678">
        <ele>624</ele>
        <time>2022-07-12T12:06:32Z</time>
      </trkpt>
      <trkpt lat="44.33915" lon="2.96672">
        <ele>624.2</ele>
        <time>2022-07-12T12:06:35Z</time>
      </trkpt>
      <trkpt lat="44.33914" lon="2.96671">
        <ele>624.2</ele>
        <time>2022-07-12T12:06:36Z</time>
      </trkpt>
      <trkpt lat="44.3391" lon="2.96665">
        <ele>624.4</ele>
        <time>2022-07-12T12:06:39Z</time>
      </trkpt>
      <trkpt lat="44.33909" lon="2.96662">
        <ele>624.4</ele>
        <time>2022-07-12T12:06:41Z</time>
      </trkpt>
      <trkpt lat="44.33907" lon="2.96658">
        <ele>624.6</ele>
        <time>2022-07-12T12:06:43Z</time>
      </trkpt>
      <trkpt lat="44.33909" lon="2.96653">
        <ele>624.8</ele>
        <time>2022-07-12T12:06:45Z</time>
      </trkpt>
      <trkpt lat="44.33909" lon="2.96651">
        <ele>624.8</ele>
        <time>2022-07-12T12:06:46Z</time>
      </trkpt>
      <trkpt lat="44.33909" lon="2.96648">
        <ele>625</ele>
        <time>2022-07-12T12:06:48Z</time>
      </trkpt>
      <trkpt lat="44.3391" lon="2.96646">
        <ele>625.2</ele>
        <time>2022-07-12T12:06:50Z</time>
      </trkpt>
      <trkpt lat="44.33913" lon="2.96643">
        <ele>625.6</ele>
        <time>2022-07-12T12:06:52Z</time>
      </trkpt>
      <trkpt lat="44.33913" lon="2.96642">
        <ele>625.6</ele>
        <time>2022-07-12T12:06:53Z</time>
      </trkpt>
      <trkpt lat="44.33911" lon="2.96636">
        <ele>626.2</ele>
        <time>2022-07-12T12:06:57Z</time>
      </trkpt>
      <trkpt lat="44.33911" lon="2.96633">
        <ele>626.4</ele>
        <time>2022-07-12T12:06:59Z</time>
      </trkpt>
      <trkpt lat="44.33911" lon="2.96629">
        <ele>626.8</ele>
        <time>2022-07-12T12:07:02Z</time>
      </trkpt>
      <trkpt lat="44.33911" lon="2.96625">
        <ele>627.2</ele>
        <time>2022-07-12T12:07:05Z</time>
      </trkpt>
      <trkpt lat="44.33909" lon="2.96622">
        <ele>627.6</ele>
        <time>2022-07-12T12:07:08Z</time>
      </trkpt>
      <trkpt lat="44.33908" lon="2.96619">
        <ele>627.6</ele>
        <time>2022-07-12T12:07:10Z</time>
      </trkpt>
      <trkpt lat="44.33906" lon="2.96611">
        <ele>627.8</ele>
        <time>2022-07-12T12:07:15Z</time>
      </trkpt>
      <trkpt lat="44.33905" lon="2.96607">
        <ele>627.8</ele>
        <time>2022-07-12T12:07:18Z</time>
      </trkpt>
      <trkpt lat="44.33904" lon="2.96605">
        <ele>628.2</ele>
        <time>2022-07-12T12:07:19Z</time>
      </trkpt>
      <trkpt lat="44.33903" lon="2.96603">
        <ele>628.6</ele>
        <time>2022-07-12T12:07:21Z</time>
      </trkpt>
      <trkpt lat="44.339" lon="2.966">
        <ele>629</ele>
        <time>2022-07-12T12:07:24Z</time>
      </trkpt>
      <trkpt lat="44.33899" lon="2.96599">
        <ele>629.2</ele>
        <time>2022-07-12T12:07:25Z</time>
      </trkpt>
      <trkpt lat="44.33898" lon="2.96598">
        <ele>629.4</ele>
        <time>2022-07-12T12:07:26Z</time>
      </trkpt>
      <trkpt lat="44.33897" lon="2.96592">
        <ele>629.8</ele>
        <time>2022-07-12T12:07:30Z</time>
      </trkpt>
      <trkpt lat="44.33896" lon="2.96591">
        <ele>629.8</ele>
        <time>2022-07-12T12:07:31Z</time>
      </trkpt>
      <trkpt lat="44.33892" lon="2.96582">
        <ele>630.4</ele>
        <time>2022-07-12T12:07:37Z</time>
      </trkpt>
      <trkpt lat="44.33891" lon="2.96581">
        <ele>630.4</ele>
        <time>2022-07-12T12:07:38Z</time>
      </trkpt>
      <trkpt lat="44.33889" lon="2.96578">
        <ele>630.6</ele>
        <time>2022-07-12T12:07:40Z</time>
      </trkpt>
      <trkpt lat="44.33887" lon="2.96574">
        <ele>631.2</ele>
        <time>2022-07-12T12:07:45Z</time>
      </trkpt>
      <trkpt lat="44.33887" lon="2.96574">
        <ele>631.4</ele>
        <time>2022-07-12T12:07:46Z</time>
      </trkpt>
      <trkpt lat="44.33886" lon="2.96573">
        <ele>631.6</ele>
        <time>2022-07-12T12:07:47Z</time>
      </trkpt>
      <trkpt lat="44.33883" lon="2.96569">
        <ele>632</ele>
        <time>2022-07-12T12:07:50Z</time>
      </trkpt>
      <trkpt lat="44.33882" lon="2.96568">
        <ele>632.2</ele>
        <time>2022-07-12T12:07:51Z</time>
      </trkpt>
      <trkpt lat="44.33882" lon="2.96567">
        <ele>632.2</ele>
        <time>2022-07-12T12:07:52Z</time>
      </trkpt>
      <trkpt lat="44.3388" lon="2.96563">
        <ele>632.4</ele>
        <time>2022-07-12T12:07:54Z</time>
      </trkpt>
      <trkpt lat="44.33878" lon="2.9656">
        <ele>632.8</ele>
        <time>2022-07-12T12:07:57Z</time>
      </trkpt>
      <trkpt lat="44.33876" lon="2.96558">
        <ele>633</ele>
        <time>2022-07-12T12:07:59Z</time>
      </trkpt>
      <trkpt lat="44.33873" lon="2.96555">
        <ele>633.6</ele>
        <time>2022-07-12T12:08:02Z</time>
      </trkpt>
      <trkpt lat="44.33872" lon="2.96553">
        <ele>633.8</ele>
        <time>2022-07-12T12:08:03Z</time>
      </trkpt>
      <trkpt lat="44.33863" lon="2.96547">
        <ele>635</ele>
        <time>2022-07-12T12:08:11Z</time>
      </trkpt>
      <trkpt lat="44.33854" lon="2.96538">
        <ele>635.8</ele>
        <time>2022-07-12T12:08:20Z</time>
      </trkpt>
      <trkpt lat="44.33852" lon="2.96537">
        <ele>636.2</ele>
        <time>2022-07-12T12:08:22Z</time>
      </trkpt>
      <trkpt lat="44.33844" lon="2.96529">
        <ele>637.2</ele>
        <time>2022-07-12T12:08:29Z</time>
      </trkpt>
      <trkpt lat="44.33831" lon="2.96519">
        <ele>638.2</ele>
        <time>2022-07-12T12:08:38Z</time>
      </trkpt>
      <trkpt lat="44.33817" lon="2.96512">
        <ele>638.8</ele>
        <time>2022-07-12T12:08:45Z</time>
      </trkpt>
      <trkpt lat="44.33808" lon="2.96507">
        <ele>639.2</ele>
        <time>2022-07-12T12:08:49Z</time>
      </trkpt>
      <trkpt lat="44.33798" lon="2.96502">
        <ele>639.6</ele>
        <time>2022-07-12T12:08:53Z</time>
      </trkpt>
      <trkpt lat="44.33781" lon="2.96493">
        <ele>640</ele>
        <time>2022-07-12T12:09:00Z</time>
      </trkpt>
      <trkpt lat="44.33764" lon="2.96479">
        <ele>640.2</ele>
        <time>2022-07-12T12:09:08Z</time>
      </trkpt>
      <trkpt lat="44.3376" lon="2.96475">
        <ele>640.2</ele>
        <time>2022-07-12T12:09:10Z</time>
      </trkpt>
      <trkpt lat="44.33745" lon="2.96461">
        <ele>641.2</ele>
        <time>2022-07-12T12:09:18Z</time>
      </trkpt>
      <trkpt lat="44.33732" lon="2.96447">
        <ele>642.4</ele>
        <time>2022-07-12T12:09:25Z</time>
      </trkpt>
      <trkpt lat="44.33727" lon="2.96442">
        <ele>642.8</ele>
        <time>2022-07-12T12:09:27Z</time>
      </trkpt>
      <trkpt lat="44.33706" lon="2.96425">
        <ele>643.4</ele>
        <time>2022-07-12T12:09:35Z</time>
      </trkpt>
      <trkpt lat="44.33686" lon="2.96418">
        <ele>644</ele>
        <time>2022-07-12T12:09:42Z</time>
      </trkpt>
      <trkpt lat="44.33676" lon="2.96429">
        <ele>644</ele>
        <time>2022-07-12T12:09:47Z</time>
      </trkpt>
      <trkpt lat="44.33665" lon="2.96444">
        <ele>644.4</ele>
        <time>2022-07-12T12:09:53Z</time>
      </trkpt>
      <trkpt lat="44.33657" lon="2.96442">
        <ele>644.4</ele>
        <time>2022-07-12T12:09:57Z</time>
      </trkpt>
      <trkpt lat="44.33655" lon="2.96441">
        <ele>644.4</ele>
        <time>2022-07-12T12:09:58Z</time>
      </trkpt>
      <trkpt lat="44.3365" lon="2.96439">
        <ele>644.6</ele>
        <time>2022-07-12T12:10:01Z</time>
      </trkpt>
      <trkpt lat="44.33643" lon="2.96434">
        <ele>645</ele>
        <time>2022-07-12T12:10:05Z</time>
      </trkpt>
      <trkpt lat="44.33637" lon="2.96429">
        <ele>645.2</ele>
        <time>2022-07-12T12:10:09Z</time>
      </trkpt>
      <trkpt lat="44.33635" lon="2.96425">
        <ele>645.4</ele>
        <time>2022-07-12T12:10:11Z</time>
      </trkpt>
      <trkpt lat="44.33632" lon="2.96422">
        <ele>645.6</ele>
        <time>2022-07-12T12:10:13Z</time>
      </trkpt>
      <trkpt lat="44.33625" lon="2.96412">
        <ele>646.2</ele>
        <time>2022-07-12T12:10:18Z</time>
      </trkpt>
      <trkpt lat="44.3362" lon="2.96403">
        <ele>646.6</ele>
        <time>2022-07-12T12:10:23Z</time>
      </trkpt>
      <trkpt lat="44.33618" lon="2.964">
        <ele>647</ele>
        <time>2022-07-12T12:10:25Z</time>
      </trkpt>
      <trkpt lat="44.33604" lon="2.96385">
        <ele>648</ele>
        <time>2022-07-12T12:10:32Z</time>
      </trkpt>
      <trkpt lat="44.33593" lon="2.96372">
        <ele>648.6</ele>
        <time>2022-07-12T12:10:39Z</time>
      </trkpt>
      <trkpt lat="44.33585" lon="2.96364">
        <ele>649</ele>
        <time>2022-07-12T12:10:44Z</time>
      </trkpt>
      <trkpt lat="44.33581" lon="2.96361">
        <ele>649</ele>
        <time>2022-07-12T12:10:47Z</time>
      </trkpt>
      <trkpt lat="44.33575" lon="2.96348">
        <ele>649.4</ele>
        <time>2022-07-12T12:10:55Z</time>
      </trkpt>
      <trkpt lat="44.33572" lon="2.96343">
        <ele>649.8</ele>
        <time>2022-07-12T12:10:58Z</time>
      </trkpt>
      <trkpt lat="44.33572" lon="2.96341">
        <ele>650</ele>
        <time>2022-07-12T12:11:00Z</time>
      </trkpt>
      <trkpt lat="44.33571" lon="2.9634">
        <ele>650</ele>
        <time>2022-07-12T12:11:01Z</time>
      </trkpt>
      <trkpt lat="44.33568" lon="2.96334">
        <ele>650.8</ele>
        <time>2022-07-12T12:11:06Z</time>
      </trkpt>
      <trkpt lat="44.33565" lon="2.9633">
        <ele>651</ele>
        <time>2022-07-12T12:11:08Z</time>
      </trkpt>
      <trkpt lat="44.33563" lon="2.96328">
        <ele>651.2</ele>
        <time>2022-07-12T12:11:09Z</time>
      </trkpt>
      <trkpt lat="44.33554" lon="2.96317">
        <ele>652</ele>
        <time>2022-07-12T12:11:14Z</time>
      </trkpt>
      <trkpt lat="44.33552" lon="2.96314">
        <ele>652.4</ele>
        <time>2022-07-12T12:11:17Z</time>
      </trkpt>
      <trkpt lat="44.3355" lon="2.9631">
        <ele>652.6</ele>
        <time>2022-07-12T12:11:19Z</time>
      </trkpt>
      <trkpt lat="44.33543" lon="2.96301">
        <ele>653</ele>
        <time>2022-07-12T12:11:23Z</time>
      </trkpt>
      <trkpt lat="44.33529" lon="2.96285">
        <ele>653.4</ele>
        <time>2022-07-12T12:11:29Z</time>
      </trkpt>
      <trkpt lat="44.33524" lon="2.96281">
        <ele>653.6</ele>
        <time>2022-07-12T12:11:31Z</time>
      </trkpt>
      <trkpt lat="44.33514" lon="2.96269">
        <ele>654.2</ele>
        <time>2022-07-12T12:11:37Z</time>
      </trkpt>
      <trkpt lat="44.33503" lon="2.96256">
        <ele>654.4</ele>
        <time>2022-07-12T12:11:45Z</time>
      </trkpt>
      <trkpt lat="44.335" lon="2.96253">
        <ele>654.6</ele>
        <time>2022-07-12T12:11:47Z</time>
      </trkpt>
      <trkpt lat="44.33493" lon="2.96247">
        <ele>655</ele>
        <time>2022-07-12T12:11:52Z</time>
      </trkpt>
      <trkpt lat="44.33485" lon="2.96238">
        <ele>655.6</ele>
        <time>2022-07-12T12:11:57Z</time>
      </trkpt>
      <trkpt lat="44.33483" lon="2.96236">
        <ele>655.8</ele>
        <time>2022-07-12T12:11:58Z</time>
      </trkpt>
      <trkpt lat="44.33482" lon="2.96235">
        <ele>655.8</ele>
        <time>2022-07-12T12:11:59Z</time>
      </trkpt>
      <trkpt lat="44.33471" lon="2.96223">
        <ele>656.6</ele>
        <time>2022-07-12T12:12:06Z</time>
      </trkpt>
      <trkpt lat="44.33461" lon="2.96211">
        <ele>656.8</ele>
        <time>2022-07-12T12:12:10Z</time>
      </trkpt>
      <trkpt lat="44.33457" lon="2.96206">
        <ele>657.2</ele>
        <time>2022-07-12T12:12:12Z</time>
      </trkpt>
      <trkpt lat="44.33439" lon="2.96192">
        <ele>657.8</ele>
        <time>2022-07-12T12:12:19Z</time>
      </trkpt>
      <trkpt lat="44.33437" lon="2.96192">
        <ele>657.8</ele>
        <time>2022-07-12T12:12:20Z</time>
      </trkpt>
      <trkpt lat="44.33426" lon="2.96197">
        <ele>657.8</ele>
        <time>2022-07-12T12:12:24Z</time>
      </trkpt>
      <trkpt lat="44.33406" lon="2.96209">
        <ele>657.6</ele>
        <time>2022-07-12T12:12:31Z</time>
      </trkpt>
      <trkpt lat="44.33379" lon="2.96212">
        <ele>657.4</ele>
        <time>2022-07-12T12:12:38Z</time>
      </trkpt>
      <trkpt lat="44.33341" lon="2.96203">
        <ele>656.8</ele>
        <time>2022-07-12T12:12:47Z</time>
      </trkpt>
      <trkpt lat="44.33302" lon="2.96193">
        <ele>655.8</ele>
        <time>2022-07-12T12:12:56Z</time>
      </trkpt>
      <trkpt lat="44.33294" lon="2.96192">
        <ele>655.8</ele>
        <time>2022-07-12T12:12:58Z</time>
      </trkpt>
      <trkpt lat="44.33264" lon="2.96186">
        <ele>655.4</ele>
        <time>2022-07-12T12:13:05Z</time>
      </trkpt>
      <trkpt lat="44.33246" lon="2.96183">
        <ele>655.2</ele>
        <time>2022-07-12T12:13:10Z</time>
      </trkpt>
      <trkpt lat="44.33222" lon="2.96183">
        <ele>655.2</ele>
        <time>2022-07-12T12:13:17Z</time>
      </trkpt>
      <trkpt lat="44.33199" lon="2.96178">
        <ele>655.4</ele>
        <time>2022-07-12T12:13:23Z</time>
      </trkpt>
      <trkpt lat="44.33193" lon="2.96171">
        <ele>655.4</ele>
        <time>2022-07-12T12:13:25Z</time>
      </trkpt>
      <trkpt lat="44.33177" lon="2.96155">
        <ele>655.8</ele>
        <time>2022-07-12T12:13:31Z</time>
      </trkpt>
      <trkpt lat="44.33158" lon="2.96127">
        <ele>656.2</ele>
        <time>2022-07-12T12:13:40Z</time>
      </trkpt>
      <trkpt lat="44.33146" lon="2.96102">
        <ele>656.6</ele>
        <time>2022-07-12T12:13:47Z</time>
      </trkpt>
      <trkpt lat="44.3314" lon="2.96091">
        <ele>656.8</ele>
        <time>2022-07-12T12:13:51Z</time>
      </trkpt>
      <trkpt lat="44.33135" lon="2.96084">
        <ele>657</ele>
        <time>2022-07-12T12:13:54Z</time>
      </trkpt>
      <trkpt lat="44.33116" lon="2.96071">
        <ele>657.4</ele>
        <time>2022-07-12T12:14:01Z</time>
      </trkpt>
      <trkpt lat="44.33098" lon="2.96069">
        <ele>657.6</ele>
        <time>2022-07-12T12:14:07Z</time>
      </trkpt>
      <trkpt lat="44.33079" lon="2.96073">
        <ele>658</ele>
        <time>2022-07-12T12:14:13Z</time>
      </trkpt>
      <trkpt lat="44.33071" lon="2.96077">
        <ele>658.2</ele>
        <time>2022-07-12T12:14:16Z</time>
      </trkpt>
      <trkpt lat="44.33052" lon="2.96081">
        <ele>658.8</ele>
        <time>2022-07-12T12:14:23Z</time>
      </trkpt>
      <trkpt lat="44.33048" lon="2.96082">
        <ele>659</ele>
        <time>2022-07-12T12:14:25Z</time>
      </trkpt>
      <trkpt lat="44.33038" lon="2.96084">
        <ele>659.6</ele>
        <time>2022-07-12T12:14:29Z</time>
      </trkpt>
      <trkpt lat="44.33028" lon="2.96086">
        <ele>660.2</ele>
        <time>2022-07-12T12:14:34Z</time>
      </trkpt>
      <trkpt lat="44.33024" lon="2.96087">
        <ele>660.4</ele>
        <time>2022-07-12T12:14:36Z</time>
      </trkpt>
      <trkpt lat="44.33012" lon="2.96092">
        <ele>661.4</ele>
        <time>2022-07-12T12:14:42Z</time>
      </trkpt>
      <trkpt lat="44.3301" lon="2.96093">
        <ele>661.4</ele>
        <time>2022-07-12T12:14:43Z</time>
      </trkpt>
      <trkpt lat="44.32994" lon="2.961">
        <ele>662.2</ele>
        <time>2022-07-12T12:14:51Z</time>
      </trkpt>
      <trkpt lat="44.32991" lon="2.96101">
        <ele>662.6</ele>
        <time>2022-07-12T12:14:52Z</time>
      </trkpt>
      <trkpt lat="44.32977" lon="2.96107">
        <ele>663.4</ele>
        <time>2022-07-12T12:15:00Z</time>
      </trkpt>
      <trkpt lat="44.32974" lon="2.96108">
        <ele>663.6</ele>
        <time>2022-07-12T12:15:02Z</time>
      </trkpt>
      <trkpt lat="44.32966" lon="2.9611">
        <ele>664.8</ele>
        <time>2022-07-12T12:15:07Z</time>
      </trkpt>
      <trkpt lat="44.32962" lon="2.9611">
        <ele>665.6</ele>
        <time>2022-07-12T12:15:10Z</time>
      </trkpt>
      <trkpt lat="44.32959" lon="2.96111">
        <ele>666</ele>
        <time>2022-07-12T12:15:12Z</time>
      </trkpt>
      <trkpt lat="44.32955" lon="2.96111">
        <ele>666.6</ele>
        <time>2022-07-12T12:15:14Z</time>
      </trkpt>
      <trkpt lat="44.32951" lon="2.96113">
        <ele>667</ele>
        <time>2022-07-12T12:15:16Z</time>
      </trkpt>
      <trkpt lat="44.32942" lon="2.96115">
        <ele>667.4</ele>
        <time>2022-07-12T12:15:20Z</time>
      </trkpt>
      <trkpt lat="44.32931" lon="2.9612">
        <ele>668</ele>
        <time>2022-07-12T12:15:26Z</time>
      </trkpt>
      <trkpt lat="44.32929" lon="2.9612">
        <ele>668.2</ele>
        <time>2022-07-12T12:15:27Z</time>
      </trkpt>
      <trkpt lat="44.32915" lon="2.96122">
        <ele>669.2</ele>
        <time>2022-07-12T12:15:34Z</time>
      </trkpt>
      <trkpt lat="44.3291" lon="2.96123">
        <ele>669.4</ele>
        <time>2022-07-12T12:15:36Z</time>
      </trkpt>
      <trkpt lat="44.32902" lon="2.96126">
        <ele>670.2</ele>
        <time>2022-07-12T12:15:41Z</time>
      </trkpt>
      <trkpt lat="44.32895" lon="2.96129">
        <ele>670.8</ele>
        <time>2022-07-12T12:15:45Z</time>
      </trkpt>
      <trkpt lat="44.32886" lon="2.96133">
        <ele>671.2</ele>
        <time>2022-07-12T12:15:49Z</time>
      </trkpt>
      <trkpt lat="44.32882" lon="2.96135">
        <ele>671.4</ele>
        <time>2022-07-12T12:15:51Z</time>
      </trkpt>
      <trkpt lat="44.32872" lon="2.96141">
        <ele>672.2</ele>
        <time>2022-07-12T12:15:56Z</time>
      </trkpt>
      <trkpt lat="44.32861" lon="2.9615">
        <ele>673</ele>
        <time>2022-07-12T12:16:02Z</time>
      </trkpt>
      <trkpt lat="44.32857" lon="2.96154">
        <ele>673.2</ele>
        <time>2022-07-12T12:16:04Z</time>
      </trkpt>
      <trkpt lat="44.32844" lon="2.96167">
        <ele>674.2</ele>
        <time>2022-07-12T12:16:11Z</time>
      </trkpt>
      <trkpt lat="44.32842" lon="2.96169">
        <ele>674.4</ele>
        <time>2022-07-12T12:16:12Z</time>
      </trkpt>
      <trkpt lat="44.32829" lon="2.96186">
        <ele>675.4</ele>
        <time>2022-07-12T12:16:20Z</time>
      </trkpt>
      <trkpt lat="44.32827" lon="2.96188">
        <ele>675.4</ele>
        <time>2022-07-12T12:16:21Z</time>
      </trkpt>
      <trkpt lat="44.32812" lon="2.9621">
        <ele>676.2</ele>
        <time>2022-07-12T12:16:30Z</time>
      </trkpt>
      <trkpt lat="44.32808" lon="2.96215">
        <ele>676.6</ele>
        <time>2022-07-12T12:16:32Z</time>
      </trkpt>
      <trkpt lat="44.32797" lon="2.96228">
        <ele>677.2</ele>
        <time>2022-07-12T12:16:38Z</time>
      </trkpt>
      <trkpt lat="44.32793" lon="2.96232">
        <ele>677.6</ele>
        <time>2022-07-12T12:16:40Z</time>
      </trkpt>
      <trkpt lat="44.32784" lon="2.96243">
        <ele>678</ele>
        <time>2022-07-12T12:16:45Z</time>
      </trkpt>
      <trkpt lat="44.32777" lon="2.96251">
        <ele>678.8</ele>
        <time>2022-07-12T12:16:49Z</time>
      </trkpt>
      <trkpt lat="44.32771" lon="2.96257">
        <ele>679.2</ele>
        <time>2022-07-12T12:16:52Z</time>
      </trkpt>
      <trkpt lat="44.32764" lon="2.96263">
        <ele>679.8</ele>
        <time>2022-07-12T12:16:55Z</time>
      </trkpt>
      <trkpt lat="44.32754" lon="2.96276">
        <ele>680.6</ele>
        <time>2022-07-12T12:17:01Z</time>
      </trkpt>
      <trkpt lat="44.32752" lon="2.96279">
        <ele>681</ele>
        <time>2022-07-12T12:17:02Z</time>
      </trkpt>
      <trkpt lat="44.32744" lon="2.96293">
        <ele>681.6</ele>
        <time>2022-07-12T12:17:07Z</time>
      </trkpt>
      <trkpt lat="44.32737" lon="2.96303">
        <ele>682</ele>
        <time>2022-07-12T12:17:11Z</time>
      </trkpt>
      <trkpt lat="44.32734" lon="2.96307">
        <ele>682.4</ele>
        <time>2022-07-12T12:17:13Z</time>
      </trkpt>
      <trkpt lat="44.3272" lon="2.96321">
        <ele>683</ele>
        <time>2022-07-12T12:17:20Z</time>
      </trkpt>
      <trkpt lat="44.32719" lon="2.96323">
        <ele>683.2</ele>
        <time>2022-07-12T12:17:21Z</time>
      </trkpt>
      <trkpt lat="44.32708" lon="2.96341">
        <ele>684.2</ele>
        <time>2022-07-12T12:17:28Z</time>
      </trkpt>
      <trkpt lat="44.32705" lon="2.96345">
        <ele>684.4</ele>
        <time>2022-07-12T12:17:30Z</time>
      </trkpt>
      <trkpt lat="44.32694" lon="2.96359">
        <ele>685.2</ele>
        <time>2022-07-12T12:17:36Z</time>
      </trkpt>
      <trkpt lat="44.32687" lon="2.96367">
        <ele>685.8</ele>
        <time>2022-07-12T12:17:40Z</time>
      </trkpt>
      <trkpt lat="44.32682" lon="2.96371">
        <ele>686.2</ele>
        <time>2022-07-12T12:17:43Z</time>
      </trkpt>
      <trkpt lat="44.32672" lon="2.9638">
        <ele>687</ele>
        <time>2022-07-12T12:17:49Z</time>
      </trkpt>
      <trkpt lat="44.32669" lon="2.96382">
        <ele>687.4</ele>
        <time>2022-07-12T12:17:51Z</time>
      </trkpt>
      <trkpt lat="44.32657" lon="2.96388">
        <ele>688.4</ele>
        <time>2022-07-12T12:17:57Z</time>
      </trkpt>
      <trkpt lat="44.32652" lon="2.96389">
        <ele>688.8</ele>
        <time>2022-07-12T12:17:59Z</time>
      </trkpt>
      <trkpt lat="44.3264" lon="2.96393">
        <ele>689.8</ele>
        <time>2022-07-12T12:18:05Z</time>
      </trkpt>
      <trkpt lat="44.32636" lon="2.96395">
        <ele>690</ele>
        <time>2022-07-12T12:18:07Z</time>
      </trkpt>
      <trkpt lat="44.32628" lon="2.96397">
        <ele>690.8</ele>
        <time>2022-07-12T12:18:11Z</time>
      </trkpt>
      <trkpt lat="44.32622" lon="2.96399">
        <ele>692.2</ele>
        <time>2022-07-12T12:18:15Z</time>
      </trkpt>
      <trkpt lat="44.32609" lon="2.96398">
        <ele>693.2</ele>
        <time>2022-07-12T12:18:22Z</time>
      </trkpt>
      <trkpt lat="44.32607" lon="2.96398">
        <ele>693.4</ele>
        <time>2022-07-12T12:18:23Z</time>
      </trkpt>
      <trkpt lat="44.32595" lon="2.96394">
        <ele>694.4</ele>
        <time>2022-07-12T12:18:29Z</time>
      </trkpt>
      <trkpt lat="44.32593" lon="2.96393">
        <ele>694.4</ele>
        <time>2022-07-12T12:18:30Z</time>
      </trkpt>
      <trkpt lat="44.32591" lon="2.96392">
        <ele>694.6</ele>
        <time>2022-07-12T12:18:31Z</time>
      </trkpt>
      <trkpt lat="44.32585" lon="2.96389">
        <ele>695.2</ele>
        <time>2022-07-12T12:18:35Z</time>
      </trkpt>
      <trkpt lat="44.32583" lon="2.96388">
        <ele>695.4</ele>
        <time>2022-07-12T12:18:36Z</time>
      </trkpt>
      <trkpt lat="44.32571" lon="2.96381">
        <ele>696.6</ele>
        <time>2022-07-12T12:18:43Z</time>
      </trkpt>
      <trkpt lat="44.32562" lon="2.96373">
        <ele>697.6</ele>
        <time>2022-07-12T12:18:49Z</time>
      </trkpt>
      <trkpt lat="44.32561" lon="2.96371">
        <ele>697.8</ele>
        <time>2022-07-12T12:18:50Z</time>
      </trkpt>
      <trkpt lat="44.32555" lon="2.96354">
        <ele>698.8</ele>
        <time>2022-07-12T12:18:58Z</time>
      </trkpt>
      <trkpt lat="44.32553" lon="2.96349">
        <ele>699</ele>
        <time>2022-07-12T12:19:00Z</time>
      </trkpt>
      <trkpt lat="44.32551" lon="2.96337">
        <ele>699.8</ele>
        <time>2022-07-12T12:19:05Z</time>
      </trkpt>
      <trkpt lat="44.3255" lon="2.96326">
        <ele>700.4</ele>
        <time>2022-07-12T12:19:10Z</time>
      </trkpt>
      <trkpt lat="44.3255" lon="2.9632">
        <ele>701</ele>
        <time>2022-07-12T12:19:13Z</time>
      </trkpt>
      <trkpt lat="44.3255" lon="2.96317">
        <ele>701.6</ele>
        <time>2022-07-12T12:19:15Z</time>
      </trkpt>
      <trkpt lat="44.3255" lon="2.96314">
        <ele>701.8</ele>
        <time>2022-07-12T12:19:16Z</time>
      </trkpt>
      <trkpt lat="44.32548" lon="2.96311">
        <ele>702</ele>
        <time>2022-07-12T12:19:17Z</time>
      </trkpt>
      <trkpt lat="44.32548" lon="2.96308">
        <ele>702.2</ele>
        <time>2022-07-12T12:19:18Z</time>
      </trkpt>
      <trkpt lat="44.32546" lon="2.96297">
        <ele>703.4</ele>
        <time>2022-07-12T12:19:22Z</time>
      </trkpt>
      <trkpt lat="44.32546" lon="2.96295">
        <ele>703.6</ele>
        <time>2022-07-12T12:19:23Z</time>
      </trkpt>
      <trkpt lat="44.32543" lon="2.96279">
        <ele>704.4</ele>
        <time>2022-07-12T12:19:28Z</time>
      </trkpt>
      <trkpt lat="44.32541" lon="2.96269">
        <ele>705.2</ele>
        <time>2022-07-12T12:19:31Z</time>
      </trkpt>
      <trkpt lat="44.3254" lon="2.96263">
        <ele>705.4</ele>
        <time>2022-07-12T12:19:34Z</time>
      </trkpt>
      <trkpt lat="44.32539" lon="2.96257">
        <ele>706</ele>
        <time>2022-07-12T12:19:37Z</time>
      </trkpt>
      <trkpt lat="44.32539" lon="2.96252">
        <ele>706.4</ele>
        <time>2022-07-12T12:19:39Z</time>
      </trkpt>
      <trkpt lat="44.32538" lon="2.96251">
        <ele>706.6</ele>
        <time>2022-07-12T12:19:40Z</time>
      </trkpt>
      <trkpt lat="44.32536" lon="2.96247">
        <ele>707</ele>
        <time>2022-07-12T12:19:42Z</time>
      </trkpt>
      <trkpt lat="44.32535" lon="2.96243">
        <ele>707.2</ele>
        <time>2022-07-12T12:19:44Z</time>
      </trkpt>
      <trkpt lat="44.32534" lon="2.96239">
        <ele>707.6</ele>
        <time>2022-07-12T12:19:46Z</time>
      </trkpt>
      <trkpt lat="44.32534" lon="2.96236">
        <ele>707.8</ele>
        <time>2022-07-12T12:19:47Z</time>
      </trkpt>
      <trkpt lat="44.32532" lon="2.96227">
        <ele>708.8</ele>
        <time>2022-07-12T12:19:51Z</time>
      </trkpt>
      <trkpt lat="44.32532" lon="2.96218">
        <ele>709.4</ele>
        <time>2022-07-12T12:19:55Z</time>
      </trkpt>
      <trkpt lat="44.32532" lon="2.96207">
        <ele>710</ele>
        <time>2022-07-12T12:20:00Z</time>
      </trkpt>
      <trkpt lat="44.32533" lon="2.96202">
        <ele>710.2</ele>
        <time>2022-07-12T12:20:02Z</time>
      </trkpt>
      <trkpt lat="44.32537" lon="2.96187">
        <ele>711</ele>
        <time>2022-07-12T12:20:09Z</time>
      </trkpt>
      <trkpt lat="44.3254" lon="2.96177">
        <ele>711.4</ele>
        <time>2022-07-12T12:20:13Z</time>
      </trkpt>
      <trkpt lat="44.32543" lon="2.96163">
        <ele>712.2</ele>
        <time>2022-07-12T12:20:19Z</time>
      </trkpt>
      <trkpt lat="44.32543" lon="2.9616">
        <ele>712.2</ele>
        <time>2022-07-12T12:20:20Z</time>
      </trkpt>
      <trkpt lat="44.32545" lon="2.96145">
        <ele>713.4</ele>
        <time>2022-07-12T12:20:27Z</time>
      </trkpt>
      <trkpt lat="44.32546" lon="2.96138">
        <ele>713.8</ele>
        <time>2022-07-12T12:20:30Z</time>
      </trkpt>
      <trkpt lat="44.32546" lon="2.96131">
        <ele>714.4</ele>
        <time>2022-07-12T12:20:33Z</time>
      </trkpt>
      <trkpt lat="44.32547" lon="2.96117">
        <ele>715.4</ele>
        <time>2022-07-12T12:20:40Z</time>
      </trkpt>
      <trkpt lat="44.32547" lon="2.96115">
        <ele>715.6</ele>
        <time>2022-07-12T12:20:41Z</time>
      </trkpt>
      <trkpt lat="44.32548" lon="2.96101">
        <ele>716.6</ele>
        <time>2022-07-12T12:20:47Z</time>
      </trkpt>
      <trkpt lat="44.32549" lon="2.96097">
        <ele>716.8</ele>
        <time>2022-07-12T12:20:49Z</time>
      </trkpt>
      <trkpt lat="44.32549" lon="2.96084">
        <ele>717.6</ele>
        <time>2022-07-12T12:20:55Z</time>
      </trkpt>
      <trkpt lat="44.3255" lon="2.96079">
        <ele>718</ele>
        <time>2022-07-12T12:20:57Z</time>
      </trkpt>
      <trkpt lat="44.3255" lon="2.96065">
        <ele>718.6</ele>
        <time>2022-07-12T12:21:02Z</time>
      </trkpt>
      <trkpt lat="44.3255" lon="2.96058">
        <ele>719.4</ele>
        <time>2022-07-12T12:21:05Z</time>
      </trkpt>
      <trkpt lat="44.3255" lon="2.96053">
        <ele>719.8</ele>
        <time>2022-07-12T12:21:07Z</time>
      </trkpt>
      <trkpt lat="44.32551" lon="2.96043">
        <ele>721</ele>
        <time>2022-07-12T12:21:12Z</time>
      </trkpt>
      <trkpt lat="44.32551" lon="2.96039">
        <ele>721.2</ele>
        <time>2022-07-12T12:21:14Z</time>
      </trkpt>
      <trkpt lat="44.32551" lon="2.96025">
        <ele>722</ele>
        <time>2022-07-12T12:21:20Z</time>
      </trkpt>
      <trkpt lat="44.32552" lon="2.96021">
        <ele>722.2</ele>
        <time>2022-07-12T12:21:22Z</time>
      </trkpt>
      <trkpt lat="44.32552" lon="2.9601">
        <ele>723.2</ele>
        <time>2022-07-12T12:21:27Z</time>
      </trkpt>
      <trkpt lat="44.32552" lon="2.96006">
        <ele>723.6</ele>
        <time>2022-07-12T12:21:29Z</time>
      </trkpt>
      <trkpt lat="44.32551" lon="2.96001">
        <ele>723.8</ele>
        <time>2022-07-12T12:21:31Z</time>
      </trkpt>
      <trkpt lat="44.3255" lon="2.95992">
        <ele>724.2</ele>
        <time>2022-07-12T12:21:35Z</time>
      </trkpt>
      <trkpt lat="44.32546" lon="2.95985">
        <ele>724.8</ele>
        <time>2022-07-12T12:21:39Z</time>
      </trkpt>
      <trkpt lat="44.32541" lon="2.95976">
        <ele>725.4</ele>
        <time>2022-07-12T12:21:43Z</time>
      </trkpt>
      <trkpt lat="44.32539" lon="2.95973">
        <ele>725.6</ele>
        <time>2022-07-12T12:21:45Z</time>
      </trkpt>
      <trkpt lat="44.32537" lon="2.9597">
        <ele>726.2</ele>
        <time>2022-07-12T12:21:47Z</time>
      </trkpt>
      <trkpt lat="44.32536" lon="2.95968">
        <ele>726.4</ele>
        <time>2022-07-12T12:21:48Z</time>
      </trkpt>
      <trkpt lat="44.32534" lon="2.95964">
        <ele>726.6</ele>
        <time>2022-07-12T12:21:50Z</time>
      </trkpt>
      <trkpt lat="44.32532" lon="2.9596">
        <ele>727</ele>
        <time>2022-07-12T12:21:52Z</time>
      </trkpt>
      <trkpt lat="44.32527" lon="2.95953">
        <ele>727.4</ele>
        <time>2022-07-12T12:21:55Z</time>
      </trkpt>
      <trkpt lat="44.32521" lon="2.95943">
        <ele>728.2</ele>
        <time>2022-07-12T12:21:59Z</time>
      </trkpt>
      <trkpt lat="44.32519" lon="2.95941">
        <ele>728.2</ele>
        <time>2022-07-12T12:22:00Z</time>
      </trkpt>
      <trkpt lat="44.32516" lon="2.95938">
        <ele>728.4</ele>
        <time>2022-07-12T12:22:02Z</time>
      </trkpt>
      <trkpt lat="44.32508" lon="2.9593">
        <ele>729.6</ele>
        <time>2022-07-12T12:22:08Z</time>
      </trkpt>
      <trkpt lat="44.32504" lon="2.95928">
        <ele>730</ele>
        <time>2022-07-12T12:22:10Z</time>
      </trkpt>
      <trkpt lat="44.32498" lon="2.95925">
        <ele>730.6</ele>
        <time>2022-07-12T12:22:14Z</time>
      </trkpt>
      <trkpt lat="44.32493" lon="2.95923">
        <ele>731</ele>
        <time>2022-07-12T12:22:17Z</time>
      </trkpt>
      <trkpt lat="44.32486" lon="2.95922">
        <ele>731.8</ele>
        <time>2022-07-12T12:22:21Z</time>
      </trkpt>
      <trkpt lat="44.32481" lon="2.95922">
        <ele>732.2</ele>
        <time>2022-07-12T12:22:24Z</time>
      </trkpt>
      <trkpt lat="44.32478" lon="2.95921">
        <ele>732.8</ele>
        <time>2022-07-12T12:22:26Z</time>
      </trkpt>
      <trkpt lat="44.32473" lon="2.95919">
        <ele>733.6</ele>
        <time>2022-07-12T12:22:30Z</time>
      </trkpt>
      <trkpt lat="44.32471" lon="2.95917">
        <ele>734</ele>
        <time>2022-07-12T12:22:32Z</time>
      </trkpt>
      <trkpt lat="44.32462" lon="2.95912">
        <ele>735</ele>
        <time>2022-07-12T12:22:37Z</time>
      </trkpt>
      <trkpt lat="44.32457" lon="2.9591">
        <ele>735</ele>
        <time>2022-07-12T12:22:39Z</time>
      </trkpt>
      <trkpt lat="44.3244" lon="2.95908">
        <ele>736</ele>
        <time>2022-07-12T12:22:48Z</time>
      </trkpt>
      <trkpt lat="44.32431" lon="2.95911">
        <ele>737.2</ele>
        <time>2022-07-12T12:22:53Z</time>
      </trkpt>
      <trkpt lat="44.32427" lon="2.95913">
        <ele>737.6</ele>
        <time>2022-07-12T12:22:55Z</time>
      </trkpt>
      <trkpt lat="44.32419" lon="2.95918">
        <ele>738.2</ele>
        <time>2022-07-12T12:23:01Z</time>
      </trkpt>
      <trkpt lat="44.32414" lon="2.95921">
        <ele>739</ele>
        <time>2022-07-12T12:23:05Z</time>
      </trkpt>
      <trkpt lat="44.32413" lon="2.95922">
        <ele>739.4</ele>
        <time>2022-07-12T12:23:06Z</time>
      </trkpt>
      <trkpt lat="44.32402" lon="2.9593">
        <ele>740.2</ele>
        <time>2022-07-12T12:23:12Z</time>
      </trkpt>
      <trkpt lat="44.32398" lon="2.95931">
        <ele>740.6</ele>
        <time>2022-07-12T12:23:15Z</time>
      </trkpt>
      <trkpt lat="44.3239" lon="2.95936">
        <ele>741.4</ele>
        <time>2022-07-12T12:23:20Z</time>
      </trkpt>
      <trkpt lat="44.32388" lon="2.95937">
        <ele>741.6</ele>
        <time>2022-07-12T12:23:22Z</time>
      </trkpt>
      <trkpt lat="44.3238" lon="2.95944">
        <ele>742.2</ele>
        <time>2022-07-12T12:23:26Z</time>
      </trkpt>
      <trkpt lat="44.32374" lon="2.95946">
        <ele>742.8</ele>
        <time>2022-07-12T12:23:29Z</time>
      </trkpt>
      <trkpt lat="44.32365" lon="2.95949">
        <ele>743.4</ele>
        <time>2022-07-12T12:23:34Z</time>
      </trkpt>
      <trkpt lat="44.32361" lon="2.9595">
        <ele>744</ele>
        <time>2022-07-12T12:23:36Z</time>
      </trkpt>
      <trkpt lat="44.32352" lon="2.95952">
        <ele>744.6</ele>
        <time>2022-07-12T12:23:41Z</time>
      </trkpt>
      <trkpt lat="44.3235" lon="2.95953">
        <ele>745.2</ele>
        <time>2022-07-12T12:23:43Z</time>
      </trkpt>
      <trkpt lat="44.32349" lon="2.95953">
        <ele>745.4</ele>
        <time>2022-07-12T12:23:44Z</time>
      </trkpt>
      <trkpt lat="44.32343" lon="2.95954">
        <ele>745.6</ele>
        <time>2022-07-12T12:23:48Z</time>
      </trkpt>
      <trkpt lat="44.32334" lon="2.95955">
        <ele>746.2</ele>
        <time>2022-07-12T12:23:53Z</time>
      </trkpt>
      <trkpt lat="44.32328" lon="2.95955">
        <ele>746.6</ele>
        <time>2022-07-12T12:23:56Z</time>
      </trkpt>
      <trkpt lat="44.32322" lon="2.95955">
        <ele>747.2</ele>
        <time>2022-07-12T12:24:00Z</time>
      </trkpt>
      <trkpt lat="44.32321" lon="2.95955">
        <ele>747.4</ele>
        <time>2022-07-12T12:24:01Z</time>
      </trkpt>
      <trkpt lat="44.32319" lon="2.95955">
        <ele>747.6</ele>
        <time>2022-07-12T12:24:02Z</time>
      </trkpt>
      <trkpt lat="44.32311" lon="2.95954">
        <ele>748.4</ele>
        <time>2022-07-12T12:24:07Z</time>
      </trkpt>
      <trkpt lat="44.32309" lon="2.95954">
        <ele>748.6</ele>
        <time>2022-07-12T12:24:08Z</time>
      </trkpt>
      <trkpt lat="44.32307" lon="2.95954">
        <ele>748.8</ele>
        <time>2022-07-12T12:24:09Z</time>
      </trkpt>
      <trkpt lat="44.32301" lon="2.95955">
        <ele>749.4</ele>
        <time>2022-07-12T12:24:13Z</time>
      </trkpt>
      <trkpt lat="44.32299" lon="2.95955">
        <ele>750</ele>
        <time>2022-07-12T12:24:16Z</time>
      </trkpt>
      <trkpt lat="44.32299" lon="2.95955">
        <ele>750</ele>
        <time>2022-07-12T12:24:17Z</time>
      </trkpt>
      <trkpt lat="44.32297" lon="2.95956">
        <ele>750.4</ele>
        <time>2022-07-12T12:24:20Z</time>
      </trkpt>
      <trkpt lat="44.32295" lon="2.95956">
        <ele>750.6</ele>
        <time>2022-07-12T12:24:21Z</time>
      </trkpt>
      <trkpt lat="44.32291" lon="2.95957">
        <ele>750.6</ele>
        <time>2022-07-12T12:24:25Z</time>
      </trkpt>
      <trkpt lat="44.32285" lon="2.9596">
        <ele>751.6</ele>
        <time>2022-07-12T12:24:33Z</time>
      </trkpt>
      <trkpt lat="44.3228" lon="2.95962">
        <ele>752.4</ele>
        <time>2022-07-12T12:24:42Z</time>
      </trkpt>
      <trkpt lat="44.32279" lon="2.95962">
        <ele>752.6</ele>
        <time>2022-07-12T12:24:43Z</time>
      </trkpt>
      <trkpt lat="44.32278" lon="2.95964">
        <ele>753.4</ele>
        <time>2022-07-12T12:24:50Z</time>
      </trkpt>
      <trkpt lat="44.32277" lon="2.95964">
        <ele>753.6</ele>
        <time>2022-07-12T12:24:52Z</time>
      </trkpt>
      <trkpt lat="44.32273" lon="2.95967">
        <ele>753.6</ele>
        <time>2022-07-12T12:24:54Z</time>
      </trkpt>
      <trkpt lat="44.32265" lon="2.95971">
        <ele>754.6</ele>
        <time>2022-07-12T12:25:01Z</time>
      </trkpt>
      <trkpt lat="44.32263" lon="2.95972">
        <ele>754.8</ele>
        <time>2022-07-12T12:25:03Z</time>
      </trkpt>
      <trkpt lat="44.32257" lon="2.95976">
        <ele>755.6</ele>
        <time>2022-07-12T12:25:11Z</time>
      </trkpt>
      <trkpt lat="44.32253" lon="2.95977">
        <ele>755.8</ele>
        <time>2022-07-12T12:25:13Z</time>
      </trkpt>
      <trkpt lat="44.32243" lon="2.9598">
        <ele>756.4</ele>
        <time>2022-07-12T12:25:21Z</time>
      </trkpt>
      <trkpt lat="44.32241" lon="2.95981">
        <ele>756.8</ele>
        <time>2022-07-12T12:25:24Z</time>
      </trkpt>
      <trkpt lat="44.32237" lon="2.95983">
        <ele>757</ele>
        <time>2022-07-12T12:25:27Z</time>
      </trkpt>
      <trkpt lat="44.32236" lon="2.95983">
        <ele>757</ele>
        <time>2022-07-12T12:25:28Z</time>
      </trkpt>
      <trkpt lat="44.32225" lon="2.95986">
        <ele>757.8</ele>
        <time>2022-07-12T12:25:39Z</time>
      </trkpt>
      <trkpt lat="44.32223" lon="2.95986">
        <ele>758</ele>
        <time>2022-07-12T12:25:41Z</time>
      </trkpt>
      <trkpt lat="44.32217" lon="2.95989">
        <ele>758.6</ele>
        <time>2022-07-12T12:25:49Z</time>
      </trkpt>
      <trkpt lat="44.32215" lon="2.95989">
        <ele>758.8</ele>
        <time>2022-07-12T12:25:50Z</time>
      </trkpt>
      <trkpt lat="44.3221" lon="2.95991">
        <ele>759.8</ele>
        <time>2022-07-12T12:25:55Z</time>
      </trkpt>
      <trkpt lat="44.3221" lon="2.95991">
        <ele>760</ele>
        <time>2022-07-12T12:25:56Z</time>
      </trkpt>
      <trkpt lat="44.32205" lon="2.95994">
        <ele>760.8</ele>
        <time>2022-07-12T12:26:05Z</time>
      </trkpt>
      <trkpt lat="44.32203" lon="2.95995">
        <ele>761</ele>
        <time>2022-07-12T12:26:06Z</time>
      </trkpt>
      <trkpt lat="44.32195" lon="2.95999">
        <ele>761.6</ele>
        <time>2022-07-12T12:26:11Z</time>
      </trkpt>
      <trkpt lat="44.32188" lon="2.96001">
        <ele>761.8</ele>
        <time>2022-07-12T12:26:14Z</time>
      </trkpt>
      <trkpt lat="44.32186" lon="2.96002">
        <ele>761.8</ele>
        <time>2022-07-12T12:26:15Z</time>
      </trkpt>
      <trkpt lat="44.32183" lon="2.96004">
        <ele>762</ele>
        <time>2022-07-12T12:26:17Z</time>
      </trkpt>
      <trkpt lat="44.32178" lon="2.96008">
        <ele>762.2</ele>
        <time>2022-07-12T12:26:21Z</time>
      </trkpt>
      <trkpt lat="44.32176" lon="2.9601">
        <ele>762.4</ele>
        <time>2022-07-12T12:26:23Z</time>
      </trkpt>
      <trkpt lat="44.32173" lon="2.96014">
        <ele>762.8</ele>
        <time>2022-07-12T12:26:26Z</time>
      </trkpt>
      <trkpt lat="44.32168" lon="2.96018">
        <ele>763.6</ele>
        <time>2022-07-12T12:26:31Z</time>
      </trkpt>
      <trkpt lat="44.32165" lon="2.96021">
        <ele>764</ele>
        <time>2022-07-12T12:26:35Z</time>
      </trkpt>
      <trkpt lat="44.32161" lon="2.96022">
        <ele>764.2</ele>
        <time>2022-07-12T12:26:37Z</time>
      </trkpt>
      <trkpt lat="44.32155" lon="2.96032">
        <ele>765</ele>
        <time>2022-07-12T12:26:42Z</time>
      </trkpt>
      <trkpt lat="44.32153" lon="2.96035">
        <ele>765.2</ele>
        <time>2022-07-12T12:26:44Z</time>
      </trkpt>
      <trkpt lat="44.32151" lon="2.96035">
        <ele>765.4</ele>
        <time>2022-07-12T12:26:45Z</time>
      </trkpt>
      <trkpt lat="44.32144" lon="2.96039">
        <ele>766.2</ele>
        <time>2022-07-12T12:26:51Z</time>
      </trkpt>
      <trkpt lat="44.32139" lon="2.96039">
        <ele>766.6</ele>
        <time>2022-07-12T12:26:57Z</time>
      </trkpt>
      <trkpt lat="44.32133" lon="2.96038">
        <ele>767.2</ele>
        <time>2022-07-12T12:27:03Z</time>
      </trkpt>
      <trkpt lat="44.32132" lon="2.96039">
        <ele>767.2</ele>
        <time>2022-07-12T12:27:04Z</time>
      </trkpt>
      <trkpt lat="44.32125" lon="2.96042">
        <ele>767.6</ele>
        <time>2022-07-12T12:27:09Z</time>
      </trkpt>
      <trkpt lat="44.32124" lon="2.96044">
        <ele>767.6</ele>
        <time>2022-07-12T12:27:10Z</time>
      </trkpt>
      <trkpt lat="44.32123" lon="2.96045">
        <ele>768.2</ele>
        <time>2022-07-12T12:27:15Z</time>
      </trkpt>
      <trkpt lat="44.32123" lon="2.96045">
        <ele>768.4</ele>
        <time>2022-07-12T12:27:32Z</time>
      </trkpt>
      <trkpt lat="44.32123" lon="2.96045">
        <ele>768.6</ele>
        <time>2022-07-12T12:27:37Z</time>
      </trkpt>
      <trkpt lat="44.32121" lon="2.96045">
        <ele>768.6</ele>
        <time>2022-07-12T12:28:11Z</time>
      </trkpt>
      <trkpt lat="44.32121" lon="2.96045">
        <ele>768.6</ele>
        <time>2022-07-12T12:28:13Z</time>
      </trkpt>
      <trkpt lat="44.3212" lon="2.96047">
        <ele>768.8</ele>
        <time>2022-07-12T12:28:16Z</time>
      </trkpt>
      <trkpt lat="44.3212" lon="2.96047">
        <ele>769</ele>
        <time>2022-07-12T12:28:17Z</time>
      </trkpt>
      <trkpt lat="44.3212" lon="2.96047">
        <ele>768.8</ele>
        <time>2022-07-12T12:28:18Z</time>
      </trkpt>
      <trkpt lat="44.32119" lon="2.9605">
        <ele>769.2</ele>
        <time>2022-07-12T12:28:21Z</time>
      </trkpt>
      <trkpt lat="44.32119" lon="2.96051">
        <ele>769.2</ele>
        <time>2022-07-12T12:28:22Z</time>
      </trkpt>
      <trkpt lat="44.32117" lon="2.96056">
        <ele>769.4</ele>
        <time>2022-07-12T12:28:25Z</time>
      </trkpt>
      <trkpt lat="44.32116" lon="2.9606">
        <ele>770</ele>
        <time>2022-07-12T12:28:29Z</time>
      </trkpt>
      <trkpt lat="44.32115" lon="2.96066">
        <ele>770.6</ele>
        <time>2022-07-12T12:28:33Z</time>
      </trkpt>
      <trkpt lat="44.32114" lon="2.96071">
        <ele>771</ele>
        <time>2022-07-12T12:28:36Z</time>
      </trkpt>
      <trkpt lat="44.32112" lon="2.96077">
        <ele>771.6</ele>
        <time>2022-07-12T12:28:40Z</time>
      </trkpt>
      <trkpt lat="44.32111" lon="2.96079">
        <ele>771.6</ele>
        <time>2022-07-12T12:28:41Z</time>
      </trkpt>
      <trkpt lat="44.32111" lon="2.96083">
        <ele>771.8</ele>
        <time>2022-07-12T12:28:42Z</time>
      </trkpt>
      <trkpt lat="44.32109" lon="2.96087">
        <ele>772</ele>
        <time>2022-07-12T12:28:44Z</time>
      </trkpt>
      <trkpt lat="44.32108" lon="2.9609">
        <ele>772.2</ele>
        <time>2022-07-12T12:28:45Z</time>
      </trkpt>
      <trkpt lat="44.32106" lon="2.96092">
        <ele>772.4</ele>
        <time>2022-07-12T12:28:46Z</time>
      </trkpt>
      <trkpt lat="44.32103" lon="2.96098">
        <ele>772.6</ele>
        <time>2022-07-12T12:28:48Z</time>
      </trkpt>
      <trkpt lat="44.32099" lon="2.96111">
        <ele>773.2</ele>
        <time>2022-07-12T12:28:53Z</time>
      </trkpt>
      <trkpt lat="44.32093" lon="2.96125">
        <ele>773.6</ele>
        <time>2022-07-12T12:29:00Z</time>
      </trkpt>
      <trkpt lat="44.32093" lon="2.9613">
        <ele>773.8</ele>
        <time>2022-07-12T12:29:01Z</time>
      </trkpt>
      <trkpt lat="44.32093" lon="2.96133">
        <ele>774</ele>
        <time>2022-07-12T12:29:02Z</time>
      </trkpt>
      <trkpt lat="44.32089" lon="2.9614">
        <ele>774.2</ele>
        <time>2022-07-12T12:29:05Z</time>
      </trkpt>
      <trkpt lat="44.32086" lon="2.96143">
        <ele>774.4</ele>
        <time>2022-07-12T12:29:07Z</time>
      </trkpt>
      <trkpt lat="44.32077" lon="2.96155">
        <ele>775</ele>
        <time>2022-07-12T12:29:13Z</time>
      </trkpt>
      <trkpt lat="44.32074" lon="2.96156">
        <ele>775.2</ele>
        <time>2022-07-12T12:29:15Z</time>
      </trkpt>
      <trkpt lat="44.32069" lon="2.96158">
        <ele>776</ele>
        <time>2022-07-12T12:29:19Z</time>
      </trkpt>
      <trkpt lat="44.32067" lon="2.96159">
        <ele>776.2</ele>
        <time>2022-07-12T12:29:21Z</time>
      </trkpt>
      <trkpt lat="44.32066" lon="2.96159">
        <ele>776.2</ele>
        <time>2022-07-12T12:29:22Z</time>
      </trkpt>
      <trkpt lat="44.32064" lon="2.9616">
        <ele>776.4</ele>
        <time>2022-07-12T12:29:24Z</time>
      </trkpt>
      <trkpt lat="44.32056" lon="2.9616">
        <ele>777.2</ele>
        <time>2022-07-12T12:29:29Z</time>
      </trkpt>
      <trkpt lat="44.32052" lon="2.96158">
        <ele>777.6</ele>
        <time>2022-07-12T12:29:32Z</time>
      </trkpt>
      <trkpt lat="44.32049" lon="2.96155">
        <ele>778.2</ele>
        <time>2022-07-12T12:29:37Z</time>
      </trkpt>
      <trkpt lat="44.32049" lon="2.96154">
        <ele>778.4</ele>
        <time>2022-07-12T12:29:38Z</time>
      </trkpt>
      <trkpt lat="44.32047" lon="2.96151">
        <ele>779.2</ele>
        <time>2022-07-12T12:29:44Z</time>
      </trkpt>
      <trkpt lat="44.32046" lon="2.96147">
        <ele>779.4</ele>
        <time>2022-07-12T12:29:46Z</time>
      </trkpt>
      <trkpt lat="44.32045" lon="2.96146">
        <ele>779.6</ele>
        <time>2022-07-12T12:29:47Z</time>
      </trkpt>
      <trkpt lat="44.32044" lon="2.9614">
        <ele>780.2</ele>
        <time>2022-07-12T12:29:50Z</time>
      </trkpt>
      <trkpt lat="44.32041" lon="2.96133">
        <ele>780.8</ele>
        <time>2022-07-12T12:29:53Z</time>
      </trkpt>
      <trkpt lat="44.3204" lon="2.96125">
        <ele>781</ele>
        <time>2022-07-12T12:29:57Z</time>
      </trkpt>
      <trkpt lat="44.32031" lon="2.96101">
        <ele>781.8</ele>
        <time>2022-07-12T12:30:06Z</time>
      </trkpt>
      <trkpt lat="44.32028" lon="2.96085">
        <ele>783</ele>
        <time>2022-07-12T12:30:12Z</time>
      </trkpt>
      <trkpt lat="44.32027" lon="2.96082">
        <ele>783.2</ele>
        <time>2022-07-12T12:30:14Z</time>
      </trkpt>
      <trkpt lat="44.32025" lon="2.96076">
        <ele>783.6</ele>
        <time>2022-07-12T12:30:18Z</time>
      </trkpt>
      <trkpt lat="44.32023" lon="2.96075">
        <ele>783.8</ele>
        <time>2022-07-12T12:30:19Z</time>
      </trkpt>
      <trkpt lat="44.3202" lon="2.96073">
        <ele>784</ele>
        <time>2022-07-12T12:30:20Z</time>
      </trkpt>
      <trkpt lat="44.32018" lon="2.96069">
        <ele>784.4</ele>
        <time>2022-07-12T12:30:22Z</time>
      </trkpt>
      <trkpt lat="44.32016" lon="2.96064">
        <ele>785</ele>
        <time>2022-07-12T12:30:26Z</time>
      </trkpt>
      <trkpt lat="44.32014" lon="2.96062">
        <ele>785.4</ele>
        <time>2022-07-12T12:30:29Z</time>
      </trkpt>
      <trkpt lat="44.32002" lon="2.96054">
        <ele>786</ele>
        <time>2022-07-12T12:30:34Z</time>
      </trkpt>
      <trkpt lat="44.32" lon="2.96052">
        <ele>786.2</ele>
        <time>2022-07-12T12:30:36Z</time>
      </trkpt>
      <trkpt lat="44.31994" lon="2.96049">
        <ele>787.2</ele>
        <time>2022-07-12T12:30:42Z</time>
      </trkpt>
      <trkpt lat="44.31992" lon="2.96047">
        <ele>787.4</ele>
        <time>2022-07-12T12:30:44Z</time>
      </trkpt>
      <trkpt lat="44.31991" lon="2.96047">
        <ele>787.6</ele>
        <time>2022-07-12T12:30:45Z</time>
      </trkpt>
      <trkpt lat="44.31985" lon="2.96043">
        <ele>788.4</ele>
        <time>2022-07-12T12:30:50Z</time>
      </trkpt>
      <trkpt lat="44.31979" lon="2.96038">
        <ele>789</ele>
        <time>2022-07-12T12:30:54Z</time>
      </trkpt>
      <trkpt lat="44.31976" lon="2.96035">
        <ele>789.4</ele>
        <time>2022-07-12T12:30:57Z</time>
      </trkpt>
      <trkpt lat="44.31974" lon="2.96033">
        <ele>789.8</ele>
        <time>2022-07-12T12:31:00Z</time>
      </trkpt>
      <trkpt lat="44.31973" lon="2.9603">
        <ele>790</ele>
        <time>2022-07-12T12:31:02Z</time>
      </trkpt>
      <trkpt lat="44.31971" lon="2.96028">
        <ele>790.2</ele>
        <time>2022-07-12T12:31:04Z</time>
      </trkpt>
      <trkpt lat="44.3197" lon="2.96026">
        <ele>790.6</ele>
        <time>2022-07-12T12:31:06Z</time>
      </trkpt>
      <trkpt lat="44.31968" lon="2.96021">
        <ele>791.6</ele>
        <time>2022-07-12T12:31:11Z</time>
      </trkpt>
      <trkpt lat="44.31967" lon="2.9602">
        <ele>791.8</ele>
        <time>2022-07-12T12:31:12Z</time>
      </trkpt>
      <trkpt lat="44.31964" lon="2.96011">
        <ele>792.4</ele>
        <time>2022-07-12T12:31:19Z</time>
      </trkpt>
      <trkpt lat="44.31963" lon="2.9601">
        <ele>792.8</ele>
        <time>2022-07-12T12:31:23Z</time>
      </trkpt>
      <trkpt lat="44.31962" lon="2.96008">
        <ele>793.4</ele>
        <time>2022-07-12T12:31:26Z</time>
      </trkpt>
      <trkpt lat="44.31957" lon="2.96004">
        <ele>794</ele>
        <time>2022-07-12T12:31:33Z</time>
      </trkpt>
      <trkpt lat="44.31956" lon="2.96001">
        <ele>794.6</ele>
        <time>2022-07-12T12:31:38Z</time>
      </trkpt>
      <trkpt lat="44.31941" lon="2.95985">
        <ele>800</ele>
        <time>2022-07-12T12:32:13Z</time>
      </trkpt>
      <trkpt lat="44.31934" lon="2.95976">
        <ele>801</ele>
        <time>2022-07-12T12:32:20Z</time>
      </trkpt>
      <trkpt lat="44.31921" lon="2.95966">
        <ele>802</ele>
        <time>2022-07-12T12:32:27Z</time>
      </trkpt>
      <trkpt lat="44.31913" lon="2.95963">
        <ele>802.4</ele>
        <time>2022-07-12T12:32:30Z</time>
      </trkpt>
      <trkpt lat="44.31904" lon="2.95955">
        <ele>802.8</ele>
        <time>2022-07-12T12:32:33Z</time>
      </trkpt>
      <trkpt lat="44.31896" lon="2.95951">
        <ele>803.2</ele>
        <time>2022-07-12T12:32:35Z</time>
      </trkpt>
      <trkpt lat="44.31894" lon="2.9595">
        <ele>803.4</ele>
        <time>2022-07-12T12:32:36Z</time>
      </trkpt>
      <trkpt lat="44.31889" lon="2.95948">
        <ele>803.6</ele>
        <time>2022-07-12T12:32:38Z</time>
      </trkpt>
      <trkpt lat="44.31886" lon="2.95948">
        <ele>803.8</ele>
        <time>2022-07-12T12:32:40Z</time>
      </trkpt>
      <trkpt lat="44.31885" lon="2.95947">
        <ele>804.2</ele>
        <time>2022-07-12T12:32:42Z</time>
      </trkpt>
      <trkpt lat="44.31885" lon="2.95947">
        <ele>804.4</ele>
        <time>2022-07-12T12:32:43Z</time>
      </trkpt>
      <trkpt lat="44.31881" lon="2.95944">
        <ele>805</ele>
        <time>2022-07-12T12:32:46Z</time>
      </trkpt>
      <trkpt lat="44.31878" lon="2.9594">
        <ele>805</ele>
        <time>2022-07-12T12:32:48Z</time>
      </trkpt>
      <trkpt lat="44.31875" lon="2.95938">
        <ele>805.4</ele>
        <time>2022-07-12T12:32:50Z</time>
      </trkpt>
      <trkpt lat="44.3187" lon="2.95936">
        <ele>805.8</ele>
        <time>2022-07-12T12:32:54Z</time>
      </trkpt>
      <trkpt lat="44.31865" lon="2.95929">
        <ele>806.4</ele>
        <time>2022-07-12T12:33:01Z</time>
      </trkpt>
      <trkpt lat="44.31862" lon="2.95927">
        <ele>806.6</ele>
        <time>2022-07-12T12:33:03Z</time>
      </trkpt>
      <trkpt lat="44.31858" lon="2.95923">
        <ele>807.4</ele>
        <time>2022-07-12T12:33:11Z</time>
      </trkpt>
      <trkpt lat="44.31853" lon="2.95917">
        <ele>808</ele>
        <time>2022-07-12T12:33:16Z</time>
      </trkpt>
      <trkpt lat="44.31852" lon="2.95917">
        <ele>808.4</ele>
        <time>2022-07-12T12:33:17Z</time>
      </trkpt>
      <trkpt lat="44.31847" lon="2.95913">
        <ele>809.4</ele>
        <time>2022-07-12T12:33:24Z</time>
      </trkpt>
      <trkpt lat="44.31846" lon="2.95912">
        <ele>809.6</ele>
        <time>2022-07-12T12:33:26Z</time>
      </trkpt>
      <trkpt lat="44.31845" lon="2.9591">
        <ele>810</ele>
        <time>2022-07-12T12:33:29Z</time>
      </trkpt>
      <trkpt lat="44.31841" lon="2.95907">
        <ele>810.4</ele>
        <time>2022-07-12T12:33:31Z</time>
      </trkpt>
      <trkpt lat="44.31841" lon="2.95907">
        <ele>810.4</ele>
        <time>2022-07-12T12:33:32Z</time>
      </trkpt>
      <trkpt lat="44.31836" lon="2.95903">
        <ele>811</ele>
        <time>2022-07-12T12:33:36Z</time>
      </trkpt>
      <trkpt lat="44.3183" lon="2.959">
        <ele>811.4</ele>
        <time>2022-07-12T12:33:40Z</time>
      </trkpt>
      <trkpt lat="44.3183" lon="2.95901">
        <ele>811.6</ele>
        <time>2022-07-12T12:33:41Z</time>
      </trkpt>
      <trkpt lat="44.31826" lon="2.95898">
        <ele>811.6</ele>
        <time>2022-07-12T12:33:43Z</time>
      </trkpt>
      <trkpt lat="44.31818" lon="2.95895">
        <ele>812</ele>
        <time>2022-07-12T12:33:46Z</time>
      </trkpt>
      <trkpt lat="44.31815" lon="2.95894">
        <ele>812.4</ele>
        <time>2022-07-12T12:33:48Z</time>
      </trkpt>
      <trkpt lat="44.31813" lon="2.95894">
        <ele>812.6</ele>
        <time>2022-07-12T12:33:49Z</time>
      </trkpt>
      <trkpt lat="44.31807" lon="2.95895">
        <ele>813</ele>
        <time>2022-07-12T12:33:53Z</time>
      </trkpt>
      <trkpt lat="44.31803" lon="2.95897">
        <ele>813.4</ele>
        <time>2022-07-12T12:33:55Z</time>
      </trkpt>
      <trkpt lat="44.31792" lon="2.959">
        <ele>814.2</ele>
        <time>2022-07-12T12:34:01Z</time>
      </trkpt>
      <trkpt lat="44.31789" lon="2.959">
        <ele>814.6</ele>
        <time>2022-07-12T12:34:03Z</time>
      </trkpt>
      <trkpt lat="44.31775" lon="2.95899">
        <ele>815.6</ele>
        <time>2022-07-12T12:34:09Z</time>
      </trkpt>
      <trkpt lat="44.31764" lon="2.95898">
        <ele>816.6</ele>
        <time>2022-07-12T12:34:14Z</time>
      </trkpt>
      <trkpt lat="44.31761" lon="2.95898">
        <ele>816.8</ele>
        <time>2022-07-12T12:34:15Z</time>
      </trkpt>
      <trkpt lat="44.31749" lon="2.95894">
        <ele>817.8</ele>
        <time>2022-07-12T12:34:23Z</time>
      </trkpt>
      <trkpt lat="44.31748" lon="2.95893">
        <ele>818.2</ele>
        <time>2022-07-12T12:34:25Z</time>
      </trkpt>
      <trkpt lat="44.31745" lon="2.95891">
        <ele>818.6</ele>
        <time>2022-07-12T12:34:29Z</time>
      </trkpt>
      <trkpt lat="44.3174" lon="2.95888">
        <ele>818.6</ele>
        <time>2022-07-12T12:34:33Z</time>
      </trkpt>
      <trkpt lat="44.31736" lon="2.95886">
        <ele>818.8</ele>
        <time>2022-07-12T12:34:36Z</time>
      </trkpt>
      <trkpt lat="44.31727" lon="2.95876">
        <ele>819.8</ele>
        <time>2022-07-12T12:34:44Z</time>
      </trkpt>
      <trkpt lat="44.31715" lon="2.95862">
        <ele>821</ele>
        <time>2022-07-12T12:34:53Z</time>
      </trkpt>
      <trkpt lat="44.31703" lon="2.95846">
        <ele>822</ele>
        <time>2022-07-12T12:35:02Z</time>
      </trkpt>
      <trkpt lat="44.31702" lon="2.95845">
        <ele>823.2</ele>
        <time>2022-07-12T12:35:09Z</time>
      </trkpt>
      <trkpt lat="44.31702" lon="2.95844">
        <ele>823.4</ele>
        <time>2022-07-12T12:35:11Z</time>
      </trkpt>
      <trkpt lat="44.31696" lon="2.9584">
        <ele>824.6</ele>
        <time>2022-07-12T12:35:18Z</time>
      </trkpt>
      <trkpt lat="44.31693" lon="2.95837">
        <ele>825</ele>
        <time>2022-07-12T12:35:20Z</time>
      </trkpt>
      <trkpt lat="44.31686" lon="2.9583">
        <ele>825.6</ele>
        <time>2022-07-12T12:35:28Z</time>
      </trkpt>
      <trkpt lat="44.31683" lon="2.95827">
        <ele>826.2</ele>
        <time>2022-07-12T12:35:31Z</time>
      </trkpt>
      <trkpt lat="44.31679" lon="2.95823">
        <ele>826.6</ele>
        <time>2022-07-12T12:35:34Z</time>
      </trkpt>
      <trkpt lat="44.31676" lon="2.95818">
        <ele>827.4</ele>
        <time>2022-07-12T12:35:39Z</time>
      </trkpt>
      <trkpt lat="44.31672" lon="2.95812">
        <ele>827.6</ele>
        <time>2022-07-12T12:35:43Z</time>
      </trkpt>
      <trkpt lat="44.31671" lon="2.95811">
        <ele>827.6</ele>
        <time>2022-07-12T12:35:44Z</time>
      </trkpt>
      <trkpt lat="44.3167" lon="2.95806">
        <ele>828.2</ele>
        <time>2022-07-12T12:35:46Z</time>
      </trkpt>
      <trkpt lat="44.31667" lon="2.95799">
        <ele>828.4</ele>
        <time>2022-07-12T12:35:49Z</time>
      </trkpt>
      <trkpt lat="44.31666" lon="2.95795">
        <ele>828.6</ele>
        <time>2022-07-12T12:35:50Z</time>
      </trkpt>
      <trkpt lat="44.31666" lon="2.9579">
        <ele>828.8</ele>
        <time>2022-07-12T12:35:52Z</time>
      </trkpt>
      <trkpt lat="44.31662" lon="2.95776">
        <ele>829.6</ele>
        <time>2022-07-12T12:35:58Z</time>
      </trkpt>
      <trkpt lat="44.31662" lon="2.95773">
        <ele>830</ele>
        <time>2022-07-12T12:35:59Z</time>
      </trkpt>
      <trkpt lat="44.31656" lon="2.95756">
        <ele>830.6</ele>
        <time>2022-07-12T12:36:06Z</time>
      </trkpt>
      <trkpt lat="44.31656" lon="2.95756">
        <ele>831</ele>
        <time>2022-07-12T12:36:10Z</time>
      </trkpt>
      <trkpt lat="44.31653" lon="2.9575">
        <ele>831.4</ele>
        <time>2022-07-12T12:36:14Z</time>
      </trkpt>
      <trkpt lat="44.31653" lon="2.95748">
        <ele>832.2</ele>
        <time>2022-07-12T12:36:19Z</time>
      </trkpt>
      <trkpt lat="44.31653" lon="2.95746">
        <ele>833.2</ele>
        <time>2022-07-12T12:36:25Z</time>
      </trkpt>
      <trkpt lat="44.31653" lon="2.95745">
        <ele>833.2</ele>
        <time>2022-07-12T12:36:26Z</time>
      </trkpt>
      <trkpt lat="44.31651" lon="2.95734">
        <ele>834.2</ele>
        <time>2022-07-12T12:36:32Z</time>
      </trkpt>
      <trkpt lat="44.3165" lon="2.9573">
        <ele>834.2</ele>
        <time>2022-07-12T12:36:33Z</time>
      </trkpt>
      <trkpt lat="44.31649" lon="2.95727">
        <ele>834.4</ele>
        <time>2022-07-12T12:36:34Z</time>
      </trkpt>
      <trkpt lat="44.31645" lon="2.95721">
        <ele>834.8</ele>
        <time>2022-07-12T12:36:36Z</time>
      </trkpt>
      <trkpt lat="44.31642" lon="2.95711">
        <ele>835.2</ele>
        <time>2022-07-12T12:36:39Z</time>
      </trkpt>
      <trkpt lat="44.31639" lon="2.95705">
        <ele>835.2</ele>
        <time>2022-07-12T12:36:41Z</time>
      </trkpt>
      <trkpt lat="44.31634" lon="2.95694">
        <ele>835.8</ele>
        <time>2022-07-12T12:36:44Z</time>
      </trkpt>
      <trkpt lat="44.31633" lon="2.95689">
        <ele>836</ele>
        <time>2022-07-12T12:36:45Z</time>
      </trkpt>
      <trkpt lat="44.31628" lon="2.95678">
        <ele>836.4</ele>
        <time>2022-07-12T12:36:48Z</time>
      </trkpt>
      <trkpt lat="44.3162" lon="2.95667">
        <ele>836.6</ele>
        <time>2022-07-12T12:36:51Z</time>
      </trkpt>
      <trkpt lat="44.31616" lon="2.95664">
        <ele>836.6</ele>
        <time>2022-07-12T12:36:53Z</time>
      </trkpt>
      <trkpt lat="44.31612" lon="2.9566">
        <ele>836.8</ele>
        <time>2022-07-12T12:36:55Z</time>
      </trkpt>
      <trkpt lat="44.31612" lon="2.95657">
        <ele>836.8</ele>
        <time>2022-07-12T12:36:56Z</time>
      </trkpt>
      <trkpt lat="44.3161" lon="2.95656">
        <ele>837</ele>
        <time>2022-07-12T12:36:57Z</time>
      </trkpt>
      <trkpt lat="44.31605" lon="2.95654">
        <ele>837.2</ele>
        <time>2022-07-12T12:37:00Z</time>
      </trkpt>
      <trkpt lat="44.31602" lon="2.95652">
        <ele>837.4</ele>
        <time>2022-07-12T12:37:02Z</time>
      </trkpt>
      <trkpt lat="44.31596" lon="2.95643">
        <ele>838.2</ele>
        <time>2022-07-12T12:37:08Z</time>
      </trkpt>
      <trkpt lat="44.31596" lon="2.95642">
        <ele>838.4</ele>
        <time>2022-07-12T12:37:09Z</time>
      </trkpt>
      <trkpt lat="44.31589" lon="2.95634">
        <ele>839.2</ele>
        <time>2022-07-12T12:37:16Z</time>
      </trkpt>
      <trkpt lat="44.31588" lon="2.95632">
        <ele>839.4</ele>
        <time>2022-07-12T12:37:17Z</time>
      </trkpt>
      <trkpt lat="44.31587" lon="2.95625">
        <ele>839.8</ele>
        <time>2022-07-12T12:37:21Z</time>
      </trkpt>
      <trkpt lat="44.31586" lon="2.95625">
        <ele>839.8</ele>
        <time>2022-07-12T12:37:22Z</time>
      </trkpt>
      <trkpt lat="44.31584" lon="2.95622">
        <ele>840.2</ele>
        <time>2022-07-12T12:37:24Z</time>
      </trkpt>
      <trkpt lat="44.3158" lon="2.95615">
        <ele>840.8</ele>
        <time>2022-07-12T12:37:29Z</time>
      </trkpt>
      <trkpt lat="44.31576" lon="2.95611">
        <ele>841.4</ele>
        <time>2022-07-12T12:37:32Z</time>
      </trkpt>
      <trkpt lat="44.31575" lon="2.9561">
        <ele>841.4</ele>
        <time>2022-07-12T12:37:33Z</time>
      </trkpt>
      <trkpt lat="44.31572" lon="2.95608">
        <ele>841.8</ele>
        <time>2022-07-12T12:37:35Z</time>
      </trkpt>
      <trkpt lat="44.31568" lon="2.95605">
        <ele>842</ele>
        <time>2022-07-12T12:37:38Z</time>
      </trkpt>
      <trkpt lat="44.31568" lon="2.95604">
        <ele>842.2</ele>
        <time>2022-07-12T12:37:39Z</time>
      </trkpt>
      <trkpt lat="44.31563" lon="2.95602">
        <ele>842.8</ele>
        <time>2022-07-12T12:37:42Z</time>
      </trkpt>
      <trkpt lat="44.31562" lon="2.95602">
        <ele>843</ele>
        <time>2022-07-12T12:37:43Z</time>
      </trkpt>
      <trkpt lat="44.31557" lon="2.95598">
        <ele>843.4</ele>
        <time>2022-07-12T12:37:46Z</time>
      </trkpt>
      <trkpt lat="44.31555" lon="2.95598">
        <ele>843.4</ele>
        <time>2022-07-12T12:37:47Z</time>
      </trkpt>
      <trkpt lat="44.31554" lon="2.95597">
        <ele>843.4</ele>
        <time>2022-07-12T12:37:48Z</time>
      </trkpt>
      <trkpt lat="44.31544" lon="2.95594">
        <ele>844</ele>
        <time>2022-07-12T12:37:54Z</time>
      </trkpt>
      <trkpt lat="44.31543" lon="2.95593">
        <ele>844.2</ele>
        <time>2022-07-12T12:37:55Z</time>
      </trkpt>
      <trkpt lat="44.31537" lon="2.95592">
        <ele>844.8</ele>
        <time>2022-07-12T12:37:59Z</time>
      </trkpt>
      <trkpt lat="44.31533" lon="2.95591">
        <ele>845.2</ele>
        <time>2022-07-12T12:38:02Z</time>
      </trkpt>
      <trkpt lat="44.31532" lon="2.95591">
        <ele>845.2</ele>
        <time>2022-07-12T12:38:03Z</time>
      </trkpt>
      <trkpt lat="44.3152" lon="2.95595">
        <ele>846.2</ele>
        <time>2022-07-12T12:38:10Z</time>
      </trkpt>
      <trkpt lat="44.31514" lon="2.95597">
        <ele>846.6</ele>
        <time>2022-07-12T12:38:13Z</time>
      </trkpt>
      <trkpt lat="44.31512" lon="2.95598">
        <ele>846.8</ele>
        <time>2022-07-12T12:38:14Z</time>
      </trkpt>
      <trkpt lat="44.31509" lon="2.95599">
        <ele>847.2</ele>
        <time>2022-07-12T12:38:16Z</time>
      </trkpt>
      <trkpt lat="44.31506" lon="2.95602">
        <ele>847.4</ele>
        <time>2022-07-12T12:38:18Z</time>
      </trkpt>
      <trkpt lat="44.31498" lon="2.95605">
        <ele>847.8</ele>
        <time>2022-07-12T12:38:24Z</time>
      </trkpt>
      <trkpt lat="44.31495" lon="2.95606">
        <ele>848</ele>
        <time>2022-07-12T12:38:26Z</time>
      </trkpt>
      <trkpt lat="44.31489" lon="2.95609">
        <ele>848.8</ele>
        <time>2022-07-12T12:38:30Z</time>
      </trkpt>
      <trkpt lat="44.31484" lon="2.9561">
        <ele>849.2</ele>
        <time>2022-07-12T12:38:33Z</time>
      </trkpt>
      <trkpt lat="44.31481" lon="2.95612">
        <ele>849.4</ele>
        <time>2022-07-12T12:38:36Z</time>
      </trkpt>
      <trkpt lat="44.3148" lon="2.95613">
        <ele>849.4</ele>
        <time>2022-07-12T12:38:37Z</time>
      </trkpt>
      <trkpt lat="44.31472" lon="2.95616">
        <ele>850.2</ele>
        <time>2022-07-12T12:38:43Z</time>
      </trkpt>
      <trkpt lat="44.3147" lon="2.95617">
        <ele>850.4</ele>
        <time>2022-07-12T12:38:45Z</time>
      </trkpt>
      <trkpt lat="44.31466" lon="2.95618">
        <ele>850.8</ele>
        <time>2022-07-12T12:38:47Z</time>
      </trkpt>
      <trkpt lat="44.31462" lon="2.95618">
        <ele>851.2</ele>
        <time>2022-07-12T12:38:50Z</time>
      </trkpt>
      <trkpt lat="44.31456" lon="2.95621">
        <ele>851.6</ele>
        <time>2022-07-12T12:38:55Z</time>
      </trkpt>
      <trkpt lat="44.31452" lon="2.95621">
        <ele>852.4</ele>
        <time>2022-07-12T12:38:57Z</time>
      </trkpt>
      <trkpt lat="44.31442" lon="2.95623">
        <ele>853.2</ele>
        <time>2022-07-12T12:39:03Z</time>
      </trkpt>
      <trkpt lat="44.3144" lon="2.95624">
        <ele>853.2</ele>
        <time>2022-07-12T12:39:04Z</time>
      </trkpt>
      <trkpt lat="44.31435" lon="2.95626">
        <ele>853.8</ele>
        <time>2022-07-12T12:39:08Z</time>
      </trkpt>
      <trkpt lat="44.31432" lon="2.95628">
        <ele>854.2</ele>
        <time>2022-07-12T12:39:10Z</time>
      </trkpt>
      <trkpt lat="44.31426" lon="2.9563">
        <ele>855</ele>
        <time>2022-07-12T12:39:15Z</time>
      </trkpt>
      <trkpt lat="44.31422" lon="2.95632">
        <ele>855.2</ele>
        <time>2022-07-12T12:39:18Z</time>
      </trkpt>
      <trkpt lat="44.31421" lon="2.95633">
        <ele>855.2</ele>
        <time>2022-07-12T12:39:19Z</time>
      </trkpt>
      <trkpt lat="44.31416" lon="2.95634">
        <ele>855.6</ele>
        <time>2022-07-12T12:39:22Z</time>
      </trkpt>
      <trkpt lat="44.31413" lon="2.95634">
        <ele>855.8</ele>
        <time>2022-07-12T12:39:24Z</time>
      </trkpt>
      <trkpt lat="44.31407" lon="2.95635">
        <ele>855.8</ele>
        <time>2022-07-12T12:39:28Z</time>
      </trkpt>
      <trkpt lat="44.31406" lon="2.95635">
        <ele>856</ele>
        <time>2022-07-12T12:39:29Z</time>
      </trkpt>
      <trkpt lat="44.31403" lon="2.95637">
        <ele>856.6</ele>
        <time>2022-07-12T12:39:31Z</time>
      </trkpt>
      <trkpt lat="44.31395" lon="2.95637">
        <ele>857</ele>
        <time>2022-07-12T12:39:36Z</time>
      </trkpt>
      <trkpt lat="44.31394" lon="2.95638">
        <ele>857.4</ele>
        <time>2022-07-12T12:39:37Z</time>
      </trkpt>
      <trkpt lat="44.31388" lon="2.9564">
        <ele>858.2</ele>
        <time>2022-07-12T12:39:42Z</time>
      </trkpt>
      <trkpt lat="44.31387" lon="2.9564">
        <ele>858</ele>
        <time>2022-07-12T12:39:43Z</time>
      </trkpt>
      <trkpt lat="44.31384" lon="2.95641">
        <ele>858.2</ele>
        <time>2022-07-12T12:39:46Z</time>
      </trkpt>
      <trkpt lat="44.3138" lon="2.95642">
        <ele>858.8</ele>
        <time>2022-07-12T12:39:49Z</time>
      </trkpt>
      <trkpt lat="44.31377" lon="2.95644">
        <ele>859</ele>
        <time>2022-07-12T12:39:51Z</time>
      </trkpt>
      <trkpt lat="44.31367" lon="2.95648">
        <ele>860</ele>
        <time>2022-07-12T12:39:58Z</time>
      </trkpt>
      <trkpt lat="44.31365" lon="2.95648">
        <ele>860</ele>
        <time>2022-07-12T12:39:59Z</time>
      </trkpt>
      <trkpt lat="44.31356" lon="2.95651">
        <ele>861</ele>
        <time>2022-07-12T12:40:05Z</time>
      </trkpt>
      <trkpt lat="44.31353" lon="2.95651">
        <ele>861.2</ele>
        <time>2022-07-12T12:40:07Z</time>
      </trkpt>
      <trkpt lat="44.31346" lon="2.95652">
        <ele>861.8</ele>
        <time>2022-07-12T12:40:12Z</time>
      </trkpt>
      <trkpt lat="44.31345" lon="2.95654">
        <ele>861.8</ele>
        <time>2022-07-12T12:40:13Z</time>
      </trkpt>
      <trkpt lat="44.31344" lon="2.95654">
        <ele>861.8</ele>
        <time>2022-07-12T12:40:14Z</time>
      </trkpt>
      <trkpt lat="44.31336" lon="2.95658">
        <ele>862.6</ele>
        <time>2022-07-12T12:40:20Z</time>
      </trkpt>
      <trkpt lat="44.31333" lon="2.9566">
        <ele>863</ele>
        <time>2022-07-12T12:40:23Z</time>
      </trkpt>
      <trkpt lat="44.31327" lon="2.95665">
        <ele>863.6</ele>
        <time>2022-07-12T12:40:29Z</time>
      </trkpt>
      <trkpt lat="44.31325" lon="2.95666">
        <ele>863.8</ele>
        <time>2022-07-12T12:40:30Z</time>
      </trkpt>
      <trkpt lat="44.31319" lon="2.95671">
        <ele>864.6</ele>
        <time>2022-07-12T12:40:36Z</time>
      </trkpt>
      <trkpt lat="44.31317" lon="2.95673">
        <ele>865</ele>
        <time>2022-07-12T12:40:38Z</time>
      </trkpt>
      <trkpt lat="44.31316" lon="2.95675">
        <ele>865.4</ele>
        <time>2022-07-12T12:40:39Z</time>
      </trkpt>
      <trkpt lat="44.3131" lon="2.95677">
        <ele>865.8</ele>
        <time>2022-07-12T12:40:43Z</time>
      </trkpt>
      <trkpt lat="44.3131" lon="2.95678">
        <ele>866</ele>
        <time>2022-07-12T12:40:44Z</time>
      </trkpt>
      <trkpt lat="44.31309" lon="2.95679">
        <ele>866.2</ele>
        <time>2022-07-12T12:40:45Z</time>
      </trkpt>
      <trkpt lat="44.31303" lon="2.95683">
        <ele>866.6</ele>
        <time>2022-07-12T12:40:49Z</time>
      </trkpt>
      <trkpt lat="44.31302" lon="2.95684">
        <ele>866.8</ele>
        <time>2022-07-12T12:40:50Z</time>
      </trkpt>
      <trkpt lat="44.31299" lon="2.95687">
        <ele>867</ele>
        <time>2022-07-12T12:40:52Z</time>
      </trkpt>
      <trkpt lat="44.31296" lon="2.95689">
        <ele>867.6</ele>
        <time>2022-07-12T12:40:55Z</time>
      </trkpt>
      <trkpt lat="44.31293" lon="2.9569">
        <ele>868</ele>
        <time>2022-07-12T12:40:57Z</time>
      </trkpt>
      <trkpt lat="44.31292" lon="2.95691">
        <ele>868.2</ele>
        <time>2022-07-12T12:40:58Z</time>
      </trkpt>
      <trkpt lat="44.31287" lon="2.95693">
        <ele>868.6</ele>
        <time>2022-07-12T12:41:02Z</time>
      </trkpt>
      <trkpt lat="44.31286" lon="2.95694">
        <ele>868.6</ele>
        <time>2022-07-12T12:41:03Z</time>
      </trkpt>
      <trkpt lat="44.3128" lon="2.95699">
        <ele>869.2</ele>
        <time>2022-07-12T12:41:08Z</time>
      </trkpt>
      <trkpt lat="44.31278" lon="2.95701">
        <ele>869.4</ele>
        <time>2022-07-12T12:41:10Z</time>
      </trkpt>
      <trkpt lat="44.31276" lon="2.95701">
        <ele>869.4</ele>
        <time>2022-07-12T12:41:11Z</time>
      </trkpt>
      <trkpt lat="44.31272" lon="2.95703">
        <ele>870.2</ele>
        <time>2022-07-12T12:41:15Z</time>
      </trkpt>
      <trkpt lat="44.3127" lon="2.95704">
        <ele>871</ele>
        <time>2022-07-12T12:41:19Z</time>
      </trkpt>
      <trkpt lat="44.31267" lon="2.95704">
        <ele>871.4</ele>
        <time>2022-07-12T12:41:21Z</time>
      </trkpt>
      <trkpt lat="44.31262" lon="2.95705">
        <ele>872</ele>
        <time>2022-07-12T12:41:26Z</time>
      </trkpt>
      <trkpt lat="44.31259" lon="2.95704">
        <ele>872.4</ele>
        <time>2022-07-12T12:41:29Z</time>
      </trkpt>
      <trkpt lat="44.31257" lon="2.95704">
        <ele>872.6</ele>
        <time>2022-07-12T12:41:31Z</time>
      </trkpt>
      <trkpt lat="44.31257" lon="2.95704">
        <ele>873</ele>
        <time>2022-07-12T12:41:34Z</time>
      </trkpt>
      <trkpt lat="44.31257" lon="2.95704">
        <ele>873.2</ele>
        <time>2022-07-12T12:41:35Z</time>
      </trkpt>
      <trkpt lat="44.31236" lon="2.95697">
        <ele>877</ele>
        <time>2022-07-12T12:42:05Z</time>
      </trkpt>
      <trkpt lat="44.31227" lon="2.95691">
        <ele>877.4</ele>
        <time>2022-07-12T12:42:09Z</time>
      </trkpt>
      <trkpt lat="44.31216" lon="2.95686">
        <ele>877.8</ele>
        <time>2022-07-12T12:42:14Z</time>
      </trkpt>
      <trkpt lat="44.3121" lon="2.95679">
        <ele>878</ele>
        <time>2022-07-12T12:42:16Z</time>
      </trkpt>
      <trkpt lat="44.31195" lon="2.95675">
        <ele>878.8</ele>
        <time>2022-07-12T12:42:22Z</time>
      </trkpt>
      <trkpt lat="44.31193" lon="2.95675">
        <ele>879</ele>
        <time>2022-07-12T12:42:25Z</time>
      </trkpt>
      <trkpt lat="44.31191" lon="2.95675">
        <ele>879.8</ele>
        <time>2022-07-12T12:42:31Z</time>
      </trkpt>
      <trkpt lat="44.3119" lon="2.95673">
        <ele>880</ele>
        <time>2022-07-12T12:42:33Z</time>
      </trkpt>
      <trkpt lat="44.31188" lon="2.95671">
        <ele>880.2</ele>
        <time>2022-07-12T12:42:35Z</time>
      </trkpt>
      <trkpt lat="44.31185" lon="2.95669">
        <ele>880.4</ele>
        <time>2022-07-12T12:42:36Z</time>
      </trkpt>
      <trkpt lat="44.31183" lon="2.95667">
        <ele>880.4</ele>
        <time>2022-07-12T12:42:37Z</time>
      </trkpt>
      <trkpt lat="44.31182" lon="2.95666">
        <ele>881.2</ele>
        <time>2022-07-12T12:42:41Z</time>
      </trkpt>
      <trkpt lat="44.31172" lon="2.95657">
        <ele>881.6</ele>
        <time>2022-07-12T12:42:46Z</time>
      </trkpt>
      <trkpt lat="44.31169" lon="2.95654">
        <ele>882.2</ele>
        <time>2022-07-12T12:42:50Z</time>
      </trkpt>
      <trkpt lat="44.31165" lon="2.9565">
        <ele>882.4</ele>
        <time>2022-07-12T12:42:52Z</time>
      </trkpt>
      <trkpt lat="44.31158" lon="2.95638">
        <ele>883.2</ele>
        <time>2022-07-12T12:42:57Z</time>
      </trkpt>
      <trkpt lat="44.31155" lon="2.95633">
        <ele>883.6</ele>
        <time>2022-07-12T12:42:59Z</time>
      </trkpt>
      <trkpt lat="44.31149" lon="2.95617">
        <ele>884.2</ele>
        <time>2022-07-12T12:43:05Z</time>
      </trkpt>
      <trkpt lat="44.31149" lon="2.95614">
        <ele>884.4</ele>
        <time>2022-07-12T12:43:06Z</time>
      </trkpt>
      <trkpt lat="44.31148" lon="2.95611">
        <ele>884.4</ele>
        <time>2022-07-12T12:43:07Z</time>
      </trkpt>
      <trkpt lat="44.31142" lon="2.95592">
        <ele>885</ele>
        <time>2022-07-12T12:43:13Z</time>
      </trkpt>
      <trkpt lat="44.31141" lon="2.9559">
        <ele>885.2</ele>
        <time>2022-07-12T12:43:14Z</time>
      </trkpt>
      <trkpt lat="44.31141" lon="2.95585">
        <ele>885.8</ele>
        <time>2022-07-12T12:43:19Z</time>
      </trkpt>
      <trkpt lat="44.31141" lon="2.95582">
        <ele>885.8</ele>
        <time>2022-07-12T12:43:20Z</time>
      </trkpt>
      <trkpt lat="44.3114" lon="2.95574">
        <ele>886.2</ele>
        <time>2022-07-12T12:43:22Z</time>
      </trkpt>
      <trkpt lat="44.31139" lon="2.95571">
        <ele>886.2</ele>
        <time>2022-07-12T12:43:23Z</time>
      </trkpt>
      <trkpt lat="44.31138" lon="2.95567">
        <ele>886.4</ele>
        <time>2022-07-12T12:43:25Z</time>
      </trkpt>
      <trkpt lat="44.31138" lon="2.95556">
        <ele>887.4</ele>
        <time>2022-07-12T12:43:31Z</time>
      </trkpt>
      <trkpt lat="44.31138" lon="2.95555">
        <ele>887.2</ele>
        <time>2022-07-12T12:43:32Z</time>
      </trkpt>
      <trkpt lat="44.31136" lon="2.95549">
        <ele>888</ele>
        <time>2022-07-12T12:43:38Z</time>
      </trkpt>
      <trkpt lat="44.31136" lon="2.95543">
        <ele>888.4</ele>
        <time>2022-07-12T12:43:40Z</time>
      </trkpt>
      <trkpt lat="44.31136" lon="2.9554">
        <ele>888.8</ele>
        <time>2022-07-12T12:43:42Z</time>
      </trkpt>
      <trkpt lat="44.31133" lon="2.95533">
        <ele>889.4</ele>
        <time>2022-07-12T12:43:47Z</time>
      </trkpt>
      <trkpt lat="44.31129" lon="2.95517">
        <ele>890.4</ele>
        <time>2022-07-12T12:43:54Z</time>
      </trkpt>
      <trkpt lat="44.31128" lon="2.95515">
        <ele>890.4</ele>
        <time>2022-07-12T12:43:55Z</time>
      </trkpt>
      <trkpt lat="44.31127" lon="2.95504">
        <ele>890.8</ele>
        <time>2022-07-12T12:44:01Z</time>
      </trkpt>
      <trkpt lat="44.31126" lon="2.955">
        <ele>890.8</ele>
        <time>2022-07-12T12:44:02Z</time>
      </trkpt>
      <trkpt lat="44.31124" lon="2.9549">
        <ele>891.2</ele>
        <time>2022-07-12T12:44:04Z</time>
      </trkpt>
      <trkpt lat="44.31123" lon="2.95487">
        <ele>891.6</ele>
        <time>2022-07-12T12:44:05Z</time>
      </trkpt>
      <trkpt lat="44.31123" lon="2.95484">
        <ele>891.6</ele>
        <time>2022-07-12T12:44:06Z</time>
      </trkpt>
      <trkpt lat="44.31123" lon="2.95467">
        <ele>892.4</ele>
        <time>2022-07-12T12:44:14Z</time>
      </trkpt>
      <trkpt lat="44.31121" lon="2.95452">
        <ele>892.8</ele>
        <time>2022-07-12T12:44:18Z</time>
      </trkpt>
      <trkpt lat="44.3112" lon="2.95444">
        <ele>893</ele>
        <time>2022-07-12T12:44:20Z</time>
      </trkpt>
      <trkpt lat="44.3112" lon="2.9544">
        <ele>893.2</ele>
        <time>2022-07-12T12:44:21Z</time>
      </trkpt>
      <trkpt lat="44.31118" lon="2.95434">
        <ele>893.4</ele>
        <time>2022-07-12T12:44:23Z</time>
      </trkpt>
      <trkpt lat="44.31116" lon="2.95423">
        <ele>894</ele>
        <time>2022-07-12T12:44:26Z</time>
      </trkpt>
      <trkpt lat="44.31111" lon="2.95415">
        <ele>894</ele>
        <time>2022-07-12T12:44:29Z</time>
      </trkpt>
      <trkpt lat="44.31106" lon="2.95406">
        <ele>894.2</ele>
        <time>2022-07-12T12:44:31Z</time>
      </trkpt>
      <trkpt lat="44.31106" lon="2.95406">
        <ele>894.4</ele>
        <time>2022-07-12T12:44:32Z</time>
      </trkpt>
      <trkpt lat="44.31094" lon="2.95396">
        <ele>895</ele>
        <time>2022-07-12T12:44:38Z</time>
      </trkpt>
      <trkpt lat="44.31093" lon="2.95396">
        <ele>895.2</ele>
        <time>2022-07-12T12:44:39Z</time>
      </trkpt>
      <trkpt lat="44.31093" lon="2.95395">
        <ele>895.4</ele>
        <time>2022-07-12T12:44:40Z</time>
      </trkpt>
      <trkpt lat="44.31084" lon="2.9539">
        <ele>896.4</ele>
        <time>2022-07-12T12:44:46Z</time>
      </trkpt>
      <trkpt lat="44.31072" lon="2.95376">
        <ele>897.4</ele>
        <time>2022-07-12T12:44:54Z</time>
      </trkpt>
      <trkpt lat="44.31069" lon="2.95373">
        <ele>897.4</ele>
        <time>2022-07-12T12:44:56Z</time>
      </trkpt>
      <trkpt lat="44.31066" lon="2.95371">
        <ele>897.6</ele>
        <time>2022-07-12T12:44:59Z</time>
      </trkpt>
      <trkpt lat="44.31066" lon="2.9537">
        <ele>897.6</ele>
        <time>2022-07-12T12:45:00Z</time>
      </trkpt>
      <trkpt lat="44.31065" lon="2.95367">
        <ele>898</ele>
        <time>2022-07-12T12:45:02Z</time>
      </trkpt>
      <trkpt lat="44.31063" lon="2.95361">
        <ele>898.4</ele>
        <time>2022-07-12T12:45:06Z</time>
      </trkpt>
      <trkpt lat="44.3106" lon="2.95354">
        <ele>898.8</ele>
        <time>2022-07-12T12:45:10Z</time>
      </trkpt>
      <trkpt lat="44.31054" lon="2.9534">
        <ele>899.6</ele>
        <time>2022-07-12T12:45:15Z</time>
      </trkpt>
      <trkpt lat="44.31053" lon="2.95336">
        <ele>899.8</ele>
        <time>2022-07-12T12:45:17Z</time>
      </trkpt>
      <trkpt lat="44.31047" lon="2.95323">
        <ele>900.6</ele>
        <time>2022-07-12T12:45:24Z</time>
      </trkpt>
      <trkpt lat="44.31046" lon="2.95321">
        <ele>900.6</ele>
        <time>2022-07-12T12:45:25Z</time>
      </trkpt>
      <trkpt lat="44.31043" lon="2.95309">
        <ele>901</ele>
        <time>2022-07-12T12:45:30Z</time>
      </trkpt>
      <trkpt lat="44.31039" lon="2.95296">
        <ele>901.6</ele>
        <time>2022-07-12T12:45:34Z</time>
      </trkpt>
      <trkpt lat="44.31032" lon="2.95286">
        <ele>902</ele>
        <time>2022-07-12T12:45:38Z</time>
      </trkpt>
      <trkpt lat="44.31033" lon="2.95281">
        <ele>902.6</ele>
        <time>2022-07-12T12:45:44Z</time>
      </trkpt>
      <trkpt lat="44.31032" lon="2.95277">
        <ele>902.8</ele>
        <time>2022-07-12T12:45:46Z</time>
      </trkpt>
      <trkpt lat="44.31032" lon="2.95273">
        <ele>903.4</ele>
        <time>2022-07-12T12:45:50Z</time>
      </trkpt>
      <trkpt lat="44.31031" lon="2.95269">
        <ele>903.8</ele>
        <time>2022-07-12T12:45:54Z</time>
      </trkpt>
      <trkpt lat="44.31029" lon="2.95259">
        <ele>904.2</ele>
        <time>2022-07-12T12:46:00Z</time>
      </trkpt>
      <trkpt lat="44.31028" lon="2.95255">
        <ele>904.4</ele>
        <time>2022-07-12T12:46:02Z</time>
      </trkpt>
      <trkpt lat="44.31028" lon="2.95251">
        <ele>904.6</ele>
        <time>2022-07-12T12:46:06Z</time>
      </trkpt>
      <trkpt lat="44.31027" lon="2.95248">
        <ele>905.2</ele>
        <time>2022-07-12T12:46:09Z</time>
      </trkpt>
      <trkpt lat="44.31023" lon="2.9524">
        <ele>905.6</ele>
        <time>2022-07-12T12:46:13Z</time>
      </trkpt>
      <trkpt lat="44.3102" lon="2.95237">
        <ele>905.8</ele>
        <time>2022-07-12T12:46:14Z</time>
      </trkpt>
      <trkpt lat="44.31012" lon="2.95229">
        <ele>906.2</ele>
        <time>2022-07-12T12:46:18Z</time>
      </trkpt>
      <trkpt lat="44.31005" lon="2.95227">
        <ele>906.6</ele>
        <time>2022-07-12T12:46:21Z</time>
      </trkpt>
      <trkpt lat="44.31002" lon="2.95226">
        <ele>906.6</ele>
        <time>2022-07-12T12:46:22Z</time>
      </trkpt>
      <trkpt lat="44.30997" lon="2.95225">
        <ele>907.2</ele>
        <time>2022-07-12T12:46:24Z</time>
      </trkpt>
      <trkpt lat="44.30985" lon="2.95216">
        <ele>907.8</ele>
        <time>2022-07-12T12:46:28Z</time>
      </trkpt>
      <trkpt lat="44.30979" lon="2.95216">
        <ele>908</ele>
        <time>2022-07-12T12:46:30Z</time>
      </trkpt>
      <trkpt lat="44.30967" lon="2.95222">
        <ele>908.6</ele>
        <time>2022-07-12T12:46:36Z</time>
      </trkpt>
      <trkpt lat="44.30965" lon="2.95222">
        <ele>908.8</ele>
        <time>2022-07-12T12:46:37Z</time>
      </trkpt>
      <trkpt lat="44.3096" lon="2.95224">
        <ele>908.8</ele>
        <time>2022-07-12T12:46:39Z</time>
      </trkpt>
      <trkpt lat="44.30959" lon="2.95225">
        <ele>909.2</ele>
        <time>2022-07-12T12:46:40Z</time>
      </trkpt>
      <trkpt lat="44.30956" lon="2.95228">
        <ele>909.4</ele>
        <time>2022-07-12T12:46:42Z</time>
      </trkpt>
      <trkpt lat="44.30951" lon="2.9523">
        <ele>909.6</ele>
        <time>2022-07-12T12:46:44Z</time>
      </trkpt>
      <trkpt lat="44.30942" lon="2.95233">
        <ele>910.4</ele>
        <time>2022-07-12T12:46:48Z</time>
      </trkpt>
      <trkpt lat="44.3094" lon="2.95235">
        <ele>910.6</ele>
        <time>2022-07-12T12:46:49Z</time>
      </trkpt>
      <trkpt lat="44.30926" lon="2.95241">
        <ele>911</ele>
        <time>2022-07-12T12:46:55Z</time>
      </trkpt>
      <trkpt lat="44.30921" lon="2.95247">
        <ele>911.4</ele>
        <time>2022-07-12T12:47:00Z</time>
      </trkpt>
      <trkpt lat="44.30918" lon="2.9525">
        <ele>912</ele>
        <time>2022-07-12T12:47:02Z</time>
      </trkpt>
      <trkpt lat="44.30912" lon="2.95255">
        <ele>912.6</ele>
        <time>2022-07-12T12:47:06Z</time>
      </trkpt>
      <trkpt lat="44.30905" lon="2.95259">
        <ele>913.2</ele>
        <time>2022-07-12T12:47:10Z</time>
      </trkpt>
      <trkpt lat="44.30897" lon="2.95263">
        <ele>913.4</ele>
        <time>2022-07-12T12:47:16Z</time>
      </trkpt>
      <trkpt lat="44.30896" lon="2.95263">
        <ele>913.4</ele>
        <time>2022-07-12T12:47:17Z</time>
      </trkpt>
      <trkpt lat="44.30887" lon="2.95272">
        <ele>913.8</ele>
        <time>2022-07-12T12:47:23Z</time>
      </trkpt>
      <trkpt lat="44.30886" lon="2.95272">
        <ele>913.8</ele>
        <time>2022-07-12T12:47:24Z</time>
      </trkpt>
      <trkpt lat="44.30883" lon="2.95275">
        <ele>914.2</ele>
        <time>2022-07-12T12:47:26Z</time>
      </trkpt>
      <trkpt lat="44.30881" lon="2.95277">
        <ele>914.4</ele>
        <time>2022-07-12T12:47:27Z</time>
      </trkpt>
      <trkpt lat="44.30878" lon="2.95278">
        <ele>914.8</ele>
        <time>2022-07-12T12:47:29Z</time>
      </trkpt>
      <trkpt lat="44.30873" lon="2.9528">
        <ele>915</ele>
        <time>2022-07-12T12:47:31Z</time>
      </trkpt>
      <trkpt lat="44.30864" lon="2.95283">
        <ele>915.6</ele>
        <time>2022-07-12T12:47:35Z</time>
      </trkpt>
      <trkpt lat="44.30861" lon="2.95282">
        <ele>915.6</ele>
        <time>2022-07-12T12:47:36Z</time>
      </trkpt>
      <trkpt lat="44.30857" lon="2.95283">
        <ele>916.2</ele>
        <time>2022-07-12T12:47:38Z</time>
      </trkpt>
      <trkpt lat="44.30854" lon="2.95288">
        <ele>916.4</ele>
        <time>2022-07-12T12:47:41Z</time>
      </trkpt>
      <trkpt lat="44.30853" lon="2.95288">
        <ele>916.6</ele>
        <time>2022-07-12T12:47:42Z</time>
      </trkpt>
      <trkpt lat="44.3085" lon="2.95287">
        <ele>916.8</ele>
        <time>2022-07-12T12:47:45Z</time>
      </trkpt>
      <trkpt lat="44.30849" lon="2.95286">
        <ele>916.8</ele>
        <time>2022-07-12T12:47:46Z</time>
      </trkpt>
      <trkpt lat="44.30841" lon="2.95283">
        <ele>917</ele>
        <time>2022-07-12T12:47:51Z</time>
      </trkpt>
      <trkpt lat="44.30838" lon="2.95279">
        <ele>917.4</ele>
        <time>2022-07-12T12:47:53Z</time>
      </trkpt>
      <trkpt lat="44.30834" lon="2.95277">
        <ele>917.8</ele>
        <time>2022-07-12T12:47:55Z</time>
      </trkpt>
      <trkpt lat="44.30829" lon="2.95277">
        <ele>918.2</ele>
        <time>2022-07-12T12:47:57Z</time>
      </trkpt>
      <trkpt lat="44.30826" lon="2.95276">
        <ele>918.4</ele>
        <time>2022-07-12T12:47:59Z</time>
      </trkpt>
      <trkpt lat="44.30811" lon="2.95277">
        <ele>919.2</ele>
        <time>2022-07-12T12:48:06Z</time>
      </trkpt>
      <trkpt lat="44.30809" lon="2.95277">
        <ele>919.4</ele>
        <time>2022-07-12T12:48:07Z</time>
      </trkpt>
      <trkpt lat="44.30793" lon="2.95271">
        <ele>920.2</ele>
        <time>2022-07-12T12:48:13Z</time>
      </trkpt>
      <trkpt lat="44.3079" lon="2.9527">
        <ele>920.4</ele>
        <time>2022-07-12T12:48:14Z</time>
      </trkpt>
      <trkpt lat="44.3078" lon="2.9527">
        <ele>921.2</ele>
        <time>2022-07-12T12:48:18Z</time>
      </trkpt>
      <trkpt lat="44.30778" lon="2.9527">
        <ele>921.2</ele>
        <time>2022-07-12T12:48:19Z</time>
      </trkpt>
      <trkpt lat="44.30777" lon="2.95271">
        <ele>921.4</ele>
        <time>2022-07-12T12:48:20Z</time>
      </trkpt>
      <trkpt lat="44.30768" lon="2.95271">
        <ele>922</ele>
        <time>2022-07-12T12:48:25Z</time>
      </trkpt>
      <trkpt lat="44.30764" lon="2.95272">
        <ele>922.4</ele>
        <time>2022-07-12T12:48:27Z</time>
      </trkpt>
      <trkpt lat="44.30756" lon="2.9527">
        <ele>922.6</ele>
        <time>2022-07-12T12:48:31Z</time>
      </trkpt>
      <trkpt lat="44.30747" lon="2.95271">
        <ele>923.2</ele>
        <time>2022-07-12T12:48:36Z</time>
      </trkpt>
      <trkpt lat="44.30745" lon="2.95272">
        <ele>923.2</ele>
        <time>2022-07-12T12:48:37Z</time>
      </trkpt>
      <trkpt lat="44.30742" lon="2.95271">
        <ele>923.8</ele>
        <time>2022-07-12T12:48:40Z</time>
      </trkpt>
      <trkpt lat="44.30739" lon="2.95272">
        <ele>924.2</ele>
        <time>2022-07-12T12:48:43Z</time>
      </trkpt>
      <trkpt lat="44.30739" lon="2.95272">
        <ele>924.4</ele>
        <time>2022-07-12T12:48:45Z</time>
      </trkpt>
      <trkpt lat="44.30733" lon="2.95271">
        <ele>924.6</ele>
        <time>2022-07-12T12:48:48Z</time>
      </trkpt>
      <trkpt lat="44.30724" lon="2.95268">
        <ele>925.2</ele>
        <time>2022-07-12T12:48:52Z</time>
      </trkpt>
      <trkpt lat="44.30717" lon="2.95268">
        <ele>926.2</ele>
        <time>2022-07-12T12:48:57Z</time>
      </trkpt>
      <trkpt lat="44.30714" lon="2.95267">
        <ele>926.4</ele>
        <time>2022-07-12T12:48:58Z</time>
      </trkpt>
      <trkpt lat="44.30706" lon="2.95265">
        <ele>927.2</ele>
        <time>2022-07-12T12:49:04Z</time>
      </trkpt>
      <trkpt lat="44.30705" lon="2.95265">
        <ele>927.4</ele>
        <time>2022-07-12T12:49:05Z</time>
      </trkpt>
      <trkpt lat="44.30698" lon="2.95263">
        <ele>928</ele>
        <time>2022-07-12T12:49:09Z</time>
      </trkpt>
      <trkpt lat="44.30696" lon="2.95263">
        <ele>928.2</ele>
        <time>2022-07-12T12:49:10Z</time>
      </trkpt>
      <trkpt lat="44.30685" lon="2.95262">
        <ele>928.8</ele>
        <time>2022-07-12T12:49:16Z</time>
      </trkpt>
      <trkpt lat="44.30679" lon="2.95262">
        <ele>929.2</ele>
        <time>2022-07-12T12:49:19Z</time>
      </trkpt>
      <trkpt lat="44.30675" lon="2.95262">
        <ele>929.6</ele>
        <time>2022-07-12T12:49:21Z</time>
      </trkpt>
      <trkpt lat="44.3067" lon="2.9526">
        <ele>930</ele>
        <time>2022-07-12T12:49:23Z</time>
      </trkpt>
      <trkpt lat="44.30666" lon="2.95259">
        <ele>930.2</ele>
        <time>2022-07-12T12:49:25Z</time>
      </trkpt>
      <trkpt lat="44.30658" lon="2.95253">
        <ele>931.2</ele>
        <time>2022-07-12T12:49:30Z</time>
      </trkpt>
      <trkpt lat="44.30655" lon="2.95252">
        <ele>931.4</ele>
        <time>2022-07-12T12:49:31Z</time>
      </trkpt>
      <trkpt lat="44.30647" lon="2.95251">
        <ele>932.2</ele>
        <time>2022-07-12T12:49:36Z</time>
      </trkpt>
      <trkpt lat="44.30644" lon="2.95249">
        <ele>932.6</ele>
        <time>2022-07-12T12:49:37Z</time>
      </trkpt>
      <trkpt lat="44.30632" lon="2.95243">
        <ele>933.4</ele>
        <time>2022-07-12T12:49:44Z</time>
      </trkpt>
      <trkpt lat="44.3063" lon="2.95242">
        <ele>933.6</ele>
        <time>2022-07-12T12:49:45Z</time>
      </trkpt>
      <trkpt lat="44.30621" lon="2.95241">
        <ele>934.8</ele>
        <time>2022-07-12T12:49:51Z</time>
      </trkpt>
      <trkpt lat="44.30618" lon="2.95238">
        <ele>934.8</ele>
        <time>2022-07-12T12:49:52Z</time>
      </trkpt>
      <trkpt lat="44.30611" lon="2.95238">
        <ele>935.8</ele>
        <time>2022-07-12T12:49:56Z</time>
      </trkpt>
      <trkpt lat="44.30605" lon="2.95237">
        <ele>936</ele>
        <time>2022-07-12T12:49:59Z</time>
      </trkpt>
      <trkpt lat="44.3059" lon="2.95236">
        <ele>936.8</ele>
        <time>2022-07-12T12:50:06Z</time>
      </trkpt>
      <trkpt lat="44.30588" lon="2.95237">
        <ele>937.2</ele>
        <time>2022-07-12T12:50:07Z</time>
      </trkpt>
      <trkpt lat="44.30572" lon="2.95244">
        <ele>938</ele>
        <time>2022-07-12T12:50:14Z</time>
      </trkpt>
      <trkpt lat="44.30571" lon="2.95245">
        <ele>938.4</ele>
        <time>2022-07-12T12:50:15Z</time>
      </trkpt>
      <trkpt lat="44.30558" lon="2.9525">
        <ele>938.8</ele>
        <time>2022-07-12T12:50:22Z</time>
      </trkpt>
      <trkpt lat="44.30553" lon="2.95256">
        <ele>939.2</ele>
        <time>2022-07-12T12:50:25Z</time>
      </trkpt>
      <trkpt lat="44.30548" lon="2.95263">
        <ele>939.8</ele>
        <time>2022-07-12T12:50:30Z</time>
      </trkpt>
      <trkpt lat="44.30544" lon="2.95266">
        <ele>940.2</ele>
        <time>2022-07-12T12:50:33Z</time>
      </trkpt>
      <trkpt lat="44.30542" lon="2.95269">
        <ele>940.6</ele>
        <time>2022-07-12T12:50:36Z</time>
      </trkpt>
      <trkpt lat="44.30541" lon="2.95271">
        <ele>941</ele>
        <time>2022-07-12T12:50:38Z</time>
      </trkpt>
      <trkpt lat="44.3054" lon="2.95271">
        <ele>941</ele>
        <time>2022-07-12T12:50:39Z</time>
      </trkpt>
      <trkpt lat="44.30537" lon="2.95273">
        <ele>941.2</ele>
        <time>2022-07-12T12:50:42Z</time>
      </trkpt>
      <trkpt lat="44.30536" lon="2.95275">
        <ele>941.4</ele>
        <time>2022-07-12T12:50:43Z</time>
      </trkpt>
      <trkpt lat="44.30533" lon="2.95277">
        <ele>941.8</ele>
        <time>2022-07-12T12:50:45Z</time>
      </trkpt>
      <trkpt lat="44.30529" lon="2.95285">
        <ele>942.2</ele>
        <time>2022-07-12T12:50:49Z</time>
      </trkpt>
      <trkpt lat="44.30523" lon="2.95295">
        <ele>943</ele>
        <time>2022-07-12T12:50:55Z</time>
      </trkpt>
      <trkpt lat="44.30523" lon="2.95295">
        <ele>943</ele>
        <time>2022-07-12T12:50:56Z</time>
      </trkpt>
      <trkpt lat="44.30521" lon="2.95299">
        <ele>943.4</ele>
        <time>2022-07-12T12:51:30Z</time>
      </trkpt>
      <trkpt lat="44.30518" lon="2.95303">
        <ele>943.4</ele>
        <time>2022-07-12T12:51:34Z</time>
      </trkpt>
      <trkpt lat="44.30513" lon="2.9531">
        <ele>943.6</ele>
        <time>2022-07-12T12:51:40Z</time>
      </trkpt>
      <trkpt lat="44.30509" lon="2.95311">
        <ele>943.8</ele>
        <time>2022-07-12T12:51:43Z</time>
      </trkpt>
      <trkpt lat="44.30506" lon="2.95315">
        <ele>943.8</ele>
        <time>2022-07-12T12:51:48Z</time>
      </trkpt>
      <trkpt lat="44.30504" lon="2.95317">
        <ele>943.8</ele>
        <time>2022-07-12T12:51:50Z</time>
      </trkpt>
      <trkpt lat="44.30502" lon="2.95319">
        <ele>943.8</ele>
        <time>2022-07-12T12:51:51Z</time>
      </trkpt>
      <trkpt lat="44.30491" lon="2.95332">
        <ele>943.8</ele>
        <time>2022-07-12T12:51:56Z</time>
      </trkpt>
      <trkpt lat="44.30477" lon="2.95352">
        <ele>943.6</ele>
        <time>2022-07-12T12:52:03Z</time>
      </trkpt>
      <trkpt lat="44.30465" lon="2.95374">
        <ele>943.4</ele>
        <time>2022-07-12T12:52:08Z</time>
      </trkpt>
      <trkpt lat="44.3045" lon="2.95398">
        <ele>942.8</ele>
        <time>2022-07-12T12:52:15Z</time>
      </trkpt>
      <trkpt lat="44.3044" lon="2.95412">
        <ele>942.8</ele>
        <time>2022-07-12T12:52:19Z</time>
      </trkpt>
      <trkpt lat="44.30424" lon="2.95436">
        <ele>942.2</ele>
        <time>2022-07-12T12:52:24Z</time>
      </trkpt>
      <trkpt lat="44.3042" lon="2.95441">
        <ele>942</ele>
        <time>2022-07-12T12:52:25Z</time>
      </trkpt>
      <trkpt lat="44.30402" lon="2.95467">
        <ele>941.8</ele>
        <time>2022-07-12T12:52:30Z</time>
      </trkpt>
      <trkpt lat="44.30399" lon="2.95472">
        <ele>941.6</ele>
        <time>2022-07-12T12:52:31Z</time>
      </trkpt>
      <trkpt lat="44.30396" lon="2.95477">
        <ele>941.6</ele>
        <time>2022-07-12T12:52:32Z</time>
      </trkpt>
      <trkpt lat="44.3039" lon="2.95487">
        <ele>941.4</ele>
        <time>2022-07-12T12:52:34Z</time>
      </trkpt>
      <trkpt lat="44.30386" lon="2.95492">
        <ele>941.2</ele>
        <time>2022-07-12T12:52:35Z</time>
      </trkpt>
      <trkpt lat="44.30382" lon="2.95497">
        <ele>941</ele>
        <time>2022-07-12T12:52:36Z</time>
      </trkpt>
      <trkpt lat="44.30368" lon="2.95513">
        <ele>941</ele>
        <time>2022-07-12T12:52:39Z</time>
      </trkpt>
      <trkpt lat="44.30359" lon="2.95525">
        <ele>940.8</ele>
        <time>2022-07-12T12:52:41Z</time>
      </trkpt>
      <trkpt lat="44.30349" lon="2.95541">
        <ele>940.6</ele>
        <time>2022-07-12T12:52:44Z</time>
      </trkpt>
      <trkpt lat="44.30342" lon="2.95554">
        <ele>940.4</ele>
        <time>2022-07-12T12:52:46Z</time>
      </trkpt>
      <trkpt lat="44.30337" lon="2.95558">
        <ele>940.2</ele>
        <time>2022-07-12T12:52:47Z</time>
      </trkpt>
      <trkpt lat="44.30333" lon="2.95563">
        <ele>940</ele>
        <time>2022-07-12T12:52:48Z</time>
      </trkpt>
      <trkpt lat="44.30322" lon="2.95572">
        <ele>939.8</ele>
        <time>2022-07-12T12:52:50Z</time>
      </trkpt>
      <trkpt lat="44.30289" lon="2.95594">
        <ele>939.4</ele>
        <time>2022-07-12T12:52:56Z</time>
      </trkpt>
      <trkpt lat="44.30279" lon="2.95599">
        <ele>939.2</ele>
        <time>2022-07-12T12:52:58Z</time>
      </trkpt>
      <trkpt lat="44.30254" lon="2.95611">
        <ele>939</ele>
        <time>2022-07-12T12:53:03Z</time>
      </trkpt>
      <trkpt lat="44.30246" lon="2.95614">
        <ele>939</ele>
        <time>2022-07-12T12:53:05Z</time>
      </trkpt>
      <trkpt lat="44.30233" lon="2.95619">
        <ele>939</ele>
        <time>2022-07-12T12:53:08Z</time>
      </trkpt>
      <trkpt lat="44.30225" lon="2.95619">
        <ele>939.2</ele>
        <time>2022-07-12T12:53:10Z</time>
      </trkpt>
      <trkpt lat="44.30207" lon="2.95621">
        <ele>939.4</ele>
        <time>2022-07-12T12:53:15Z</time>
      </trkpt>
      <trkpt lat="44.30194" lon="2.95623">
        <ele>940</ele>
        <time>2022-07-12T12:53:19Z</time>
      </trkpt>
      <trkpt lat="44.30166" lon="2.95625">
        <ele>940.6</ele>
        <time>2022-07-12T12:53:28Z</time>
      </trkpt>
      <trkpt lat="44.30159" lon="2.95625">
        <ele>940.8</ele>
        <time>2022-07-12T12:53:30Z</time>
      </trkpt>
      <trkpt lat="44.3015" lon="2.95623">
        <ele>941.6</ele>
        <time>2022-07-12T12:53:33Z</time>
      </trkpt>
      <trkpt lat="44.30144" lon="2.95621">
        <ele>941.8</ele>
        <time>2022-07-12T12:53:35Z</time>
      </trkpt>
      <trkpt lat="44.30128" lon="2.95611">
        <ele>942.6</ele>
        <time>2022-07-12T12:53:41Z</time>
      </trkpt>
      <trkpt lat="44.30124" lon="2.95607">
        <ele>942.8</ele>
        <time>2022-07-12T12:53:43Z</time>
      </trkpt>
      <trkpt lat="44.3012" lon="2.95605">
        <ele>943.2</ele>
        <time>2022-07-12T12:53:45Z</time>
      </trkpt>
      <trkpt lat="44.30115" lon="2.95604">
        <ele>943.4</ele>
        <time>2022-07-12T12:53:47Z</time>
      </trkpt>
      <trkpt lat="44.30108" lon="2.95599">
        <ele>944</ele>
        <time>2022-07-12T12:53:50Z</time>
      </trkpt>
      <trkpt lat="44.301" lon="2.95593">
        <ele>944.4</ele>
        <time>2022-07-12T12:53:55Z</time>
      </trkpt>
      <trkpt lat="44.30088" lon="2.95589">
        <ele>945.2</ele>
        <time>2022-07-12T12:54:00Z</time>
      </trkpt>
      <trkpt lat="44.30081" lon="2.95585">
        <ele>945.4</ele>
        <time>2022-07-12T12:54:03Z</time>
      </trkpt>
      <trkpt lat="44.30072" lon="2.95584">
        <ele>946.2</ele>
        <time>2022-07-12T12:54:08Z</time>
      </trkpt>
      <trkpt lat="44.3007" lon="2.95583">
        <ele>946.4</ele>
        <time>2022-07-12T12:54:09Z</time>
      </trkpt>
      <trkpt lat="44.30059" lon="2.95577">
        <ele>947.2</ele>
        <time>2022-07-12T12:54:14Z</time>
      </trkpt>
      <trkpt lat="44.30057" lon="2.95577">
        <ele>947.4</ele>
        <time>2022-07-12T12:54:15Z</time>
      </trkpt>
      <trkpt lat="44.30052" lon="2.95578">
        <ele>947.8</ele>
        <time>2022-07-12T12:54:17Z</time>
      </trkpt>
      <trkpt lat="44.30044" lon="2.95578">
        <ele>948.4</ele>
        <time>2022-07-12T12:54:21Z</time>
      </trkpt>
      <trkpt lat="44.30032" lon="2.95578">
        <ele>948.4</ele>
        <time>2022-07-12T12:54:25Z</time>
      </trkpt>
      <trkpt lat="44.30021" lon="2.95576">
        <ele>948.8</ele>
        <time>2022-07-12T12:54:29Z</time>
      </trkpt>
      <trkpt lat="44.30016" lon="2.95576">
        <ele>949.2</ele>
        <time>2022-07-12T12:54:31Z</time>
      </trkpt>
      <trkpt lat="44.30013" lon="2.95577">
        <ele>949.6</ele>
        <time>2022-07-12T12:54:33Z</time>
      </trkpt>
      <trkpt lat="44.30007" lon="2.95575">
        <ele>950.4</ele>
        <time>2022-07-12T12:54:36Z</time>
      </trkpt>
      <trkpt lat="44.29999" lon="2.95575">
        <ele>951</ele>
        <time>2022-07-12T12:54:40Z</time>
      </trkpt>
      <trkpt lat="44.29997" lon="2.95575">
        <ele>951.4</ele>
        <time>2022-07-12T12:54:42Z</time>
      </trkpt>
      <trkpt lat="44.29995" lon="2.95573">
        <ele>951.6</ele>
        <time>2022-07-12T12:54:43Z</time>
      </trkpt>
      <trkpt lat="44.29987" lon="2.95569">
        <ele>952.6</ele>
        <time>2022-07-12T12:54:48Z</time>
      </trkpt>
      <trkpt lat="44.29983" lon="2.95572">
        <ele>953</ele>
        <time>2022-07-12T12:54:51Z</time>
      </trkpt>
      <trkpt lat="44.29977" lon="2.95574">
        <ele>953.6</ele>
        <time>2022-07-12T12:54:55Z</time>
      </trkpt>
      <trkpt lat="44.29974" lon="2.95573">
        <ele>954</ele>
        <time>2022-07-12T12:54:57Z</time>
      </trkpt>
      <trkpt lat="44.29966" lon="2.95575">
        <ele>954.8</ele>
        <time>2022-07-12T12:55:02Z</time>
      </trkpt>
      <trkpt lat="44.29964" lon="2.95576">
        <ele>955.2</ele>
        <time>2022-07-12T12:55:04Z</time>
      </trkpt>
      <trkpt lat="44.29959" lon="2.95576">
        <ele>955.8</ele>
        <time>2022-07-12T12:55:08Z</time>
      </trkpt>
      <trkpt lat="44.29954" lon="2.95578">
        <ele>956.4</ele>
        <time>2022-07-12T12:55:11Z</time>
      </trkpt>
      <trkpt lat="44.29949" lon="2.95579">
        <ele>957</ele>
        <time>2022-07-12T12:55:14Z</time>
      </trkpt>
      <trkpt lat="44.29943" lon="2.95579">
        <ele>958</ele>
        <time>2022-07-12T12:55:18Z</time>
      </trkpt>
      <trkpt lat="44.29941" lon="2.9558">
        <ele>958.2</ele>
        <time>2022-07-12T12:55:20Z</time>
      </trkpt>
      <trkpt lat="44.29939" lon="2.9558">
        <ele>958.2</ele>
        <time>2022-07-12T12:55:21Z</time>
      </trkpt>
      <trkpt lat="44.29936" lon="2.95581">
        <ele>958.6</ele>
        <time>2022-07-12T12:55:23Z</time>
      </trkpt>
      <trkpt lat="44.2993" lon="2.95583">
        <ele>959.2</ele>
        <time>2022-07-12T12:55:26Z</time>
      </trkpt>
      <trkpt lat="44.29924" lon="2.95588">
        <ele>960</ele>
        <time>2022-07-12T12:55:30Z</time>
      </trkpt>
      <trkpt lat="44.29919" lon="2.95591">
        <ele>960.4</ele>
        <time>2022-07-12T12:55:33Z</time>
      </trkpt>
      <trkpt lat="44.29918" lon="2.95592">
        <ele>960.6</ele>
        <time>2022-07-12T12:55:34Z</time>
      </trkpt>
      <trkpt lat="44.29915" lon="2.95594">
        <ele>960.8</ele>
        <time>2022-07-12T12:55:36Z</time>
      </trkpt>
      <trkpt lat="44.29904" lon="2.95601">
        <ele>961.6</ele>
        <time>2022-07-12T12:55:42Z</time>
      </trkpt>
      <trkpt lat="44.29899" lon="2.95605">
        <ele>962</ele>
        <time>2022-07-12T12:55:45Z</time>
      </trkpt>
      <trkpt lat="44.29895" lon="2.95608">
        <ele>962.4</ele>
        <time>2022-07-12T12:55:48Z</time>
      </trkpt>
      <trkpt lat="44.29888" lon="2.95611">
        <ele>963.2</ele>
        <time>2022-07-12T12:55:52Z</time>
      </trkpt>
      <trkpt lat="44.29886" lon="2.95614">
        <ele>963.6</ele>
        <time>2022-07-12T12:55:54Z</time>
      </trkpt>
      <trkpt lat="44.29885" lon="2.95615">
        <ele>963.8</ele>
        <time>2022-07-12T12:55:55Z</time>
      </trkpt>
      <trkpt lat="44.2988" lon="2.95617">
        <ele>964.2</ele>
        <time>2022-07-12T12:55:58Z</time>
      </trkpt>
      <trkpt lat="44.29877" lon="2.9562">
        <ele>964.8</ele>
        <time>2022-07-12T12:56:00Z</time>
      </trkpt>
      <trkpt lat="44.29872" lon="2.95623">
        <ele>965.4</ele>
        <time>2022-07-12T12:56:03Z</time>
      </trkpt>
      <trkpt lat="44.29869" lon="2.95626">
        <ele>965.8</ele>
        <time>2022-07-12T12:56:05Z</time>
      </trkpt>
      <trkpt lat="44.29861" lon="2.95633">
        <ele>966.8</ele>
        <time>2022-07-12T12:56:10Z</time>
      </trkpt>
      <trkpt lat="44.29859" lon="2.95635">
        <ele>966.8</ele>
        <time>2022-07-12T12:56:11Z</time>
      </trkpt>
      <trkpt lat="44.29848" lon="2.95643">
        <ele>967.8</ele>
        <time>2022-07-12T12:56:17Z</time>
      </trkpt>
      <trkpt lat="44.29847" lon="2.95644">
        <ele>968</ele>
        <time>2022-07-12T12:56:18Z</time>
      </trkpt>
      <trkpt lat="44.29836" lon="2.95652">
        <ele>969</ele>
        <time>2022-07-12T12:56:24Z</time>
      </trkpt>
      <trkpt lat="44.29832" lon="2.95655">
        <ele>969</ele>
        <time>2022-07-12T12:56:26Z</time>
      </trkpt>
      <trkpt lat="44.29824" lon="2.95661">
        <ele>970</ele>
        <time>2022-07-12T12:56:31Z</time>
      </trkpt>
      <trkpt lat="44.29822" lon="2.95663">
        <ele>970.2</ele>
        <time>2022-07-12T12:56:32Z</time>
      </trkpt>
      <trkpt lat="44.29805" lon="2.95678">
        <ele>970.8</ele>
        <time>2022-07-12T12:56:42Z</time>
      </trkpt>
      <trkpt lat="44.29802" lon="2.95681">
        <ele>971</ele>
        <time>2022-07-12T12:56:44Z</time>
      </trkpt>
      <trkpt lat="44.29792" lon="2.95689">
        <ele>971.8</ele>
        <time>2022-07-12T12:56:50Z</time>
      </trkpt>
      <trkpt lat="44.29787" lon="2.95695">
        <ele>972</ele>
        <time>2022-07-12T12:56:53Z</time>
      </trkpt>
      <trkpt lat="44.29773" lon="2.95705">
        <ele>973</ele>
        <time>2022-07-12T12:57:00Z</time>
      </trkpt>
      <trkpt lat="44.29769" lon="2.95708">
        <ele>973.2</ele>
        <time>2022-07-12T12:57:02Z</time>
      </trkpt>
      <trkpt lat="44.29755" lon="2.95716">
        <ele>974.2</ele>
        <time>2022-07-12T12:57:09Z</time>
      </trkpt>
      <trkpt lat="44.29741" lon="2.95724">
        <ele>975.4</ele>
        <time>2022-07-12T12:57:16Z</time>
      </trkpt>
      <trkpt lat="44.29735" lon="2.95727">
        <ele>976</ele>
        <time>2022-07-12T12:57:19Z</time>
      </trkpt>
      <trkpt lat="44.29727" lon="2.9573">
        <ele>976.4</ele>
        <time>2022-07-12T12:57:23Z</time>
      </trkpt>
      <trkpt lat="44.2972" lon="2.95733">
        <ele>977</ele>
        <time>2022-07-12T12:57:27Z</time>
      </trkpt>
      <trkpt lat="44.29714" lon="2.95736">
        <ele>977.4</ele>
        <time>2022-07-12T12:57:30Z</time>
      </trkpt>
      <trkpt lat="44.29712" lon="2.95737">
        <ele>977.6</ele>
        <time>2022-07-12T12:57:31Z</time>
      </trkpt>
      <trkpt lat="44.29707" lon="2.95739">
        <ele>978</ele>
        <time>2022-07-12T12:57:34Z</time>
      </trkpt>
      <trkpt lat="44.29703" lon="2.95741">
        <ele>978.6</ele>
        <time>2022-07-12T12:57:36Z</time>
      </trkpt>
      <trkpt lat="44.29695" lon="2.95744">
        <ele>979.2</ele>
        <time>2022-07-12T12:57:40Z</time>
      </trkpt>
      <trkpt lat="44.29691" lon="2.95742">
        <ele>979.4</ele>
        <time>2022-07-12T12:57:42Z</time>
      </trkpt>
      <trkpt lat="44.29689" lon="2.95743">
        <ele>979.6</ele>
        <time>2022-07-12T12:57:43Z</time>
      </trkpt>
      <trkpt lat="44.29688" lon="2.95743">
        <ele>979.8</ele>
        <time>2022-07-12T12:57:44Z</time>
      </trkpt>
      <trkpt lat="44.29687" lon="2.95742">
        <ele>980.2</ele>
        <time>2022-07-12T12:57:46Z</time>
      </trkpt>
      <trkpt lat="44.29687" lon="2.95742">
        <ele>980.2</ele>
        <time>2022-07-12T12:57:47Z</time>
      </trkpt>
      <trkpt lat="44.29685" lon="2.95746">
        <ele>981</ele>
        <time>2022-07-12T12:58:29Z</time>
      </trkpt>
      <trkpt lat="44.29681" lon="2.95746">
        <ele>981</ele>
        <time>2022-07-12T12:58:32Z</time>
      </trkpt>
      <trkpt lat="44.29668" lon="2.9575">
        <ele>981.6</ele>
        <time>2022-07-12T12:58:40Z</time>
      </trkpt>
      <trkpt lat="44.29658" lon="2.95752">
        <ele>982</ele>
        <time>2022-07-12T12:58:45Z</time>
      </trkpt>
      <trkpt lat="44.29654" lon="2.95753">
        <ele>982.4</ele>
        <time>2022-07-12T12:58:47Z</time>
      </trkpt>
      <trkpt lat="44.29648" lon="2.95755">
        <ele>983.2</ele>
        <time>2022-07-12T12:58:50Z</time>
      </trkpt>
      <trkpt lat="44.29637" lon="2.95761">
        <ele>983.8</ele>
        <time>2022-07-12T12:58:55Z</time>
      </trkpt>
      <trkpt lat="44.29633" lon="2.95764">
        <ele>984</ele>
        <time>2022-07-12T12:58:57Z</time>
      </trkpt>
      <trkpt lat="44.29623" lon="2.95776">
        <ele>984.8</ele>
        <time>2022-07-12T12:59:04Z</time>
      </trkpt>
      <trkpt lat="44.2962" lon="2.9578">
        <ele>985.2</ele>
        <time>2022-07-12T12:59:06Z</time>
      </trkpt>
      <trkpt lat="44.29614" lon="2.95788">
        <ele>986.2</ele>
        <time>2022-07-12T12:59:10Z</time>
      </trkpt>
      <trkpt lat="44.29609" lon="2.95794">
        <ele>986.8</ele>
        <time>2022-07-12T12:59:13Z</time>
      </trkpt>
      <trkpt lat="44.29604" lon="2.95802">
        <ele>987.2</ele>
        <time>2022-07-12T12:59:16Z</time>
      </trkpt>
      <trkpt lat="44.29594" lon="2.95817">
        <ele>987.8</ele>
        <time>2022-07-12T12:59:22Z</time>
      </trkpt>
      <trkpt lat="44.29589" lon="2.95825">
        <ele>988.2</ele>
        <time>2022-07-12T12:59:25Z</time>
      </trkpt>
      <trkpt lat="44.29584" lon="2.95833">
        <ele>989</ele>
        <time>2022-07-12T12:59:29Z</time>
      </trkpt>
      <trkpt lat="44.29581" lon="2.95837">
        <ele>989.2</ele>
        <time>2022-07-12T12:59:31Z</time>
      </trkpt>
      <trkpt lat="44.2957" lon="2.95851">
        <ele>990.4</ele>
        <time>2022-07-12T12:59:38Z</time>
      </trkpt>
      <trkpt lat="44.29567" lon="2.95856">
        <ele>990.4</ele>
        <time>2022-07-12T12:59:40Z</time>
      </trkpt>
      <trkpt lat="44.29553" lon="2.95876">
        <ele>991.4</ele>
        <time>2022-07-12T12:59:48Z</time>
      </trkpt>
      <trkpt lat="44.29551" lon="2.95878">
        <ele>991.8</ele>
        <time>2022-07-12T12:59:49Z</time>
      </trkpt>
      <trkpt lat="44.29547" lon="2.95885">
        <ele>992.6</ele>
        <time>2022-07-12T12:59:52Z</time>
      </trkpt>
      <trkpt lat="44.29539" lon="2.95895">
        <ele>993.2</ele>
        <time>2022-07-12T12:59:57Z</time>
      </trkpt>
      <trkpt lat="44.29536" lon="2.959">
        <ele>993.6</ele>
        <time>2022-07-12T12:59:59Z</time>
      </trkpt>
      <trkpt lat="44.29522" lon="2.9592">
        <ele>994.4</ele>
        <time>2022-07-12T13:00:08Z</time>
      </trkpt>
      <trkpt lat="44.2952" lon="2.95923">
        <ele>994.6</ele>
        <time>2022-07-12T13:00:09Z</time>
      </trkpt>
      <trkpt lat="44.29518" lon="2.95926">
        <ele>994.8</ele>
        <time>2022-07-12T13:00:10Z</time>
      </trkpt>
      <trkpt lat="44.29511" lon="2.95942">
        <ele>995.2</ele>
        <time>2022-07-12T13:00:16Z</time>
      </trkpt>
      <trkpt lat="44.29511" lon="2.95942">
        <ele>995.2</ele>
        <time>2022-07-12T13:00:18Z</time>
      </trkpt>
      <trkpt lat="44.2951" lon="2.95945">
        <ele>995.4</ele>
        <time>2022-07-12T13:00:53Z</time>
      </trkpt>
      <trkpt lat="44.29504" lon="2.95964">
        <ele>995.6</ele>
        <time>2022-07-12T13:00:59Z</time>
      </trkpt>
      <trkpt lat="44.29503" lon="2.95968">
        <ele>995.6</ele>
        <time>2022-07-12T13:01:00Z</time>
      </trkpt>
      <trkpt lat="44.29499" lon="2.95986">
        <ele>995.6</ele>
        <time>2022-07-12T13:01:05Z</time>
      </trkpt>
      <trkpt lat="44.29491" lon="2.96022">
        <ele>996</ele>
        <time>2022-07-12T13:01:14Z</time>
      </trkpt>
      <trkpt lat="44.2949" lon="2.96026">
        <ele>996</ele>
        <time>2022-07-12T13:01:15Z</time>
      </trkpt>
      <trkpt lat="44.29487" lon="2.96042">
        <ele>996.4</ele>
        <time>2022-07-12T13:01:19Z</time>
      </trkpt>
      <trkpt lat="44.29484" lon="2.96055">
        <ele>996.6</ele>
        <time>2022-07-12T13:01:22Z</time>
      </trkpt>
      <trkpt lat="44.29475" lon="2.96088">
        <ele>997.2</ele>
        <time>2022-07-12T13:01:30Z</time>
      </trkpt>
      <trkpt lat="44.29471" lon="2.961">
        <ele>997.4</ele>
        <time>2022-07-12T13:01:33Z</time>
      </trkpt>
      <trkpt lat="44.29468" lon="2.96114">
        <ele>997.6</ele>
        <time>2022-07-12T13:01:36Z</time>
      </trkpt>
      <trkpt lat="44.29466" lon="2.96119">
        <ele>997.6</ele>
        <time>2022-07-12T13:01:37Z</time>
      </trkpt>
      <trkpt lat="44.29454" lon="2.96162">
        <ele>998</ele>
        <time>2022-07-12T13:01:46Z</time>
      </trkpt>
      <trkpt lat="44.29445" lon="2.96188">
        <ele>998.4</ele>
        <time>2022-07-12T13:01:52Z</time>
      </trkpt>
      <trkpt lat="44.29439" lon="2.96207">
        <ele>998.8</ele>
        <time>2022-07-12T13:01:58Z</time>
      </trkpt>
      <trkpt lat="44.29432" lon="2.96231">
        <ele>999.2</ele>
        <time>2022-07-12T13:02:07Z</time>
      </trkpt>
      <trkpt lat="44.29424" lon="2.9626">
        <ele>999.4</ele>
        <time>2022-07-12T13:02:17Z</time>
      </trkpt>
      <trkpt lat="44.29423" lon="2.96263">
        <ele>999.4</ele>
        <time>2022-07-12T13:02:18Z</time>
      </trkpt>
      <trkpt lat="44.29419" lon="2.96281">
        <ele>1000.2</ele>
        <time>2022-07-12T13:02:25Z</time>
      </trkpt>
      <trkpt lat="44.29418" lon="2.96283">
        <ele>1000.4</ele>
        <time>2022-07-12T13:02:26Z</time>
      </trkpt>
      <trkpt lat="44.29416" lon="2.96288">
        <ele>1000.6</ele>
        <time>2022-07-12T13:02:28Z</time>
      </trkpt>
      <trkpt lat="44.29412" lon="2.96299">
        <ele>1001</ele>
        <time>2022-07-12T13:02:33Z</time>
      </trkpt>
      <trkpt lat="44.29409" lon="2.96313">
        <ele>1001.4</ele>
        <time>2022-07-12T13:02:39Z</time>
      </trkpt>
      <trkpt lat="44.29407" lon="2.96321">
        <ele>1001.6</ele>
        <time>2022-07-12T13:02:42Z</time>
      </trkpt>
      <trkpt lat="44.29404" lon="2.96331">
        <ele>1002.2</ele>
        <time>2022-07-12T13:02:46Z</time>
      </trkpt>
      <trkpt lat="44.294" lon="2.96341">
        <ele>1002.8</ele>
        <time>2022-07-12T13:02:50Z</time>
      </trkpt>
      <trkpt lat="44.29398" lon="2.96349">
        <ele>1003.2</ele>
        <time>2022-07-12T13:02:53Z</time>
      </trkpt>
      <trkpt lat="44.29397" lon="2.96351">
        <ele>1003.4</ele>
        <time>2022-07-12T13:02:54Z</time>
      </trkpt>
      <trkpt lat="44.2939" lon="2.96368">
        <ele>1003.6</ele>
        <time>2022-07-12T13:03:00Z</time>
      </trkpt>
      <trkpt lat="44.29386" lon="2.96377">
        <ele>1003.8</ele>
        <time>2022-07-12T13:03:03Z</time>
      </trkpt>
      <trkpt lat="44.29384" lon="2.96382">
        <ele>1004</ele>
        <time>2022-07-12T13:03:05Z</time>
      </trkpt>
      <trkpt lat="44.29372" lon="2.96411">
        <ele>1004.8</ele>
        <time>2022-07-12T13:03:14Z</time>
      </trkpt>
      <trkpt lat="44.29371" lon="2.96414">
        <ele>1005</ele>
        <time>2022-07-12T13:03:15Z</time>
      </trkpt>
      <trkpt lat="44.2936" lon="2.96443">
        <ele>1005.6</ele>
        <time>2022-07-12T13:03:24Z</time>
      </trkpt>
      <trkpt lat="44.29355" lon="2.96455">
        <ele>1005.6</ele>
        <time>2022-07-12T13:03:28Z</time>
      </trkpt>
      <trkpt lat="44.2935" lon="2.96465">
        <ele>1005.8</ele>
        <time>2022-07-12T13:03:31Z</time>
      </trkpt>
      <trkpt lat="44.29345" lon="2.96476">
        <ele>1006.2</ele>
        <time>2022-07-12T13:03:34Z</time>
      </trkpt>
      <trkpt lat="44.29333" lon="2.96507">
        <ele>1006.8</ele>
        <time>2022-07-12T13:03:43Z</time>
      </trkpt>
      <trkpt lat="44.29329" lon="2.96515">
        <ele>1007</ele>
        <time>2022-07-12T13:03:45Z</time>
      </trkpt>
      <trkpt lat="44.29316" lon="2.96547">
        <ele>1007.8</ele>
        <time>2022-07-12T13:03:53Z</time>
      </trkpt>
      <trkpt lat="44.29314" lon="2.96551">
        <ele>1008</ele>
        <time>2022-07-12T13:03:54Z</time>
      </trkpt>
      <trkpt lat="44.29308" lon="2.96567">
        <ele>1008</ele>
        <time>2022-07-12T13:03:58Z</time>
      </trkpt>
      <trkpt lat="44.29303" lon="2.96579">
        <ele>1008</ele>
        <time>2022-07-12T13:04:01Z</time>
      </trkpt>
      <trkpt lat="44.29283" lon="2.96612">
        <ele>1008.2</ele>
        <time>2022-07-12T13:04:10Z</time>
      </trkpt>
      <trkpt lat="44.29265" lon="2.96636">
        <ele>1008.6</ele>
        <time>2022-07-12T13:04:18Z</time>
      </trkpt>
      <trkpt lat="44.29258" lon="2.96643">
        <ele>1009</ele>
        <time>2022-07-12T13:04:21Z</time>
      </trkpt>
      <trkpt lat="44.2925" lon="2.96655">
        <ele>1009.2</ele>
        <time>2022-07-12T13:04:26Z</time>
      </trkpt>
      <trkpt lat="44.29238" lon="2.96668">
        <ele>1009.6</ele>
        <time>2022-07-12T13:04:34Z</time>
      </trkpt>
      <trkpt lat="44.29237" lon="2.9667">
        <ele>1009.8</ele>
        <time>2022-07-12T13:04:35Z</time>
      </trkpt>
      <trkpt lat="44.29229" lon="2.9668">
        <ele>1011</ele>
        <time>2022-07-12T13:04:42Z</time>
      </trkpt>
      <trkpt lat="44.29228" lon="2.96681">
        <ele>1011</ele>
        <time>2022-07-12T13:04:43Z</time>
      </trkpt>
      <trkpt lat="44.29221" lon="2.96691">
        <ele>1012.2</ele>
        <time>2022-07-12T13:04:50Z</time>
      </trkpt>
      <trkpt lat="44.29218" lon="2.96694">
        <ele>1012.6</ele>
        <time>2022-07-12T13:04:53Z</time>
      </trkpt>
      <trkpt lat="44.29215" lon="2.96699">
        <ele>1012.8</ele>
        <time>2022-07-12T13:04:56Z</time>
      </trkpt>
      <trkpt lat="44.29212" lon="2.96702">
        <ele>1013.4</ele>
        <time>2022-07-12T13:04:59Z</time>
      </trkpt>
      <trkpt lat="44.29207" lon="2.96708">
        <ele>1014</ele>
        <time>2022-07-12T13:05:04Z</time>
      </trkpt>
      <trkpt lat="44.29205" lon="2.9671">
        <ele>1014.6</ele>
        <time>2022-07-12T13:05:06Z</time>
      </trkpt>
      <trkpt lat="44.29203" lon="2.96713">
        <ele>1015</ele>
        <time>2022-07-12T13:05:08Z</time>
      </trkpt>
      <trkpt lat="44.29197" lon="2.96722">
        <ele>1015.6</ele>
        <time>2022-07-12T13:05:13Z</time>
      </trkpt>
      <trkpt lat="44.29196" lon="2.96724">
        <ele>1015.6</ele>
        <time>2022-07-12T13:05:14Z</time>
      </trkpt>
      <trkpt lat="44.29189" lon="2.96732">
        <ele>1016.8</ele>
        <time>2022-07-12T13:05:19Z</time>
      </trkpt>
      <trkpt lat="44.29187" lon="2.96735">
        <ele>1017</ele>
        <time>2022-07-12T13:05:21Z</time>
      </trkpt>
      <trkpt lat="44.29182" lon="2.96743">
        <ele>1018</ele>
        <time>2022-07-12T13:05:26Z</time>
      </trkpt>
      <trkpt lat="44.29178" lon="2.96748">
        <ele>1018.2</ele>
        <time>2022-07-12T13:05:30Z</time>
      </trkpt>
      <trkpt lat="44.29175" lon="2.96753">
        <ele>1019</ele>
        <time>2022-07-12T13:05:33Z</time>
      </trkpt>
      <trkpt lat="44.29169" lon="2.96764">
        <ele>1020</ele>
        <time>2022-07-12T13:05:40Z</time>
      </trkpt>
      <trkpt lat="44.29167" lon="2.96768">
        <ele>1020.2</ele>
        <time>2022-07-12T13:05:42Z</time>
      </trkpt>
      <trkpt lat="44.29163" lon="2.96778">
        <ele>1020.6</ele>
        <time>2022-07-12T13:05:47Z</time>
      </trkpt>
      <trkpt lat="44.29162" lon="2.9678">
        <ele>1020.8</ele>
        <time>2022-07-12T13:05:48Z</time>
      </trkpt>
      <trkpt lat="44.2916" lon="2.96783">
        <ele>1021</ele>
        <time>2022-07-12T13:05:50Z</time>
      </trkpt>
      <trkpt lat="44.29158" lon="2.96789">
        <ele>1021.4</ele>
        <time>2022-07-12T13:05:53Z</time>
      </trkpt>
      <trkpt lat="44.29158" lon="2.96791">
        <ele>1021.6</ele>
        <time>2022-07-12T13:05:54Z</time>
      </trkpt>
      <trkpt lat="44.29151" lon="2.96807">
        <ele>1022.2</ele>
        <time>2022-07-12T13:06:02Z</time>
      </trkpt>
      <trkpt lat="44.2915" lon="2.96809">
        <ele>1022.4</ele>
        <time>2022-07-12T13:06:03Z</time>
      </trkpt>
      <trkpt lat="44.29147" lon="2.96818">
        <ele>1023.2</ele>
        <time>2022-07-12T13:06:07Z</time>
      </trkpt>
      <trkpt lat="44.29146" lon="2.96823">
        <ele>1023.6</ele>
        <time>2022-07-12T13:06:09Z</time>
      </trkpt>
      <trkpt lat="44.29144" lon="2.96827">
        <ele>1023.8</ele>
        <time>2022-07-12T13:06:11Z</time>
      </trkpt>
      <trkpt lat="44.29141" lon="2.96835">
        <ele>1024.4</ele>
        <time>2022-07-12T13:06:15Z</time>
      </trkpt>
      <trkpt lat="44.2914" lon="2.96836">
        <ele>1024.6</ele>
        <time>2022-07-12T13:06:17Z</time>
      </trkpt>
      <trkpt lat="44.2914" lon="2.96836">
        <ele>1024.6</ele>
        <time>2022-07-12T13:06:18Z</time>
      </trkpt>
      <trkpt lat="44.2914" lon="2.96839">
        <ele>1025.4</ele>
        <time>2022-07-12T13:06:30Z</time>
      </trkpt>
      <trkpt lat="44.29139" lon="2.96847">
        <ele>1025.4</ele>
        <time>2022-07-12T13:06:33Z</time>
      </trkpt>
      <trkpt lat="44.29137" lon="2.96853">
        <ele>1025.6</ele>
        <time>2022-07-12T13:06:35Z</time>
      </trkpt>
      <trkpt lat="44.29133" lon="2.96869">
        <ele>1025.8</ele>
        <time>2022-07-12T13:06:40Z</time>
      </trkpt>
      <trkpt lat="44.29129" lon="2.9688">
        <ele>1026.4</ele>
        <time>2022-07-12T13:06:44Z</time>
      </trkpt>
      <trkpt lat="44.29125" lon="2.96887">
        <ele>1026.6</ele>
        <time>2022-07-12T13:06:47Z</time>
      </trkpt>
      <trkpt lat="44.29116" lon="2.96913">
        <ele>1026.6</ele>
        <time>2022-07-12T13:06:54Z</time>
      </trkpt>
      <trkpt lat="44.29116" lon="2.96919">
        <ele>1026.6</ele>
        <time>2022-07-12T13:06:55Z</time>
      </trkpt>
      <trkpt lat="44.29118" lon="2.96936">
        <ele>1026.2</ele>
        <time>2022-07-12T13:06:58Z</time>
      </trkpt>
      <trkpt lat="44.29122" lon="2.96954">
        <ele>1026</ele>
        <time>2022-07-12T13:07:02Z</time>
      </trkpt>
      <trkpt lat="44.29124" lon="2.96958">
        <ele>1025.6</ele>
        <time>2022-07-12T13:07:06Z</time>
      </trkpt>
      <trkpt lat="44.29124" lon="2.96958">
        <ele>1025.6</ele>
        <time>2022-07-12T13:07:07Z</time>
      </trkpt>
      <trkpt lat="44.29125" lon="2.96964">
        <ele>1024.6</ele>
        <time>2022-07-12T13:12:06Z</time>
      </trkpt>
      <trkpt lat="44.29126" lon="2.9697">
        <ele>1024.4</ele>
        <time>2022-07-12T13:12:08Z</time>
      </trkpt>
      <trkpt lat="44.29129" lon="2.9698">
        <ele>1024.2</ele>
        <time>2022-07-12T13:12:11Z</time>
      </trkpt>
      <trkpt lat="44.29131" lon="2.96993">
        <ele>1023.8</ele>
        <time>2022-07-12T13:12:14Z</time>
      </trkpt>
      <trkpt lat="44.2913" lon="2.97023">
        <ele>1023.4</ele>
        <time>2022-07-12T13:12:20Z</time>
      </trkpt>
      <trkpt lat="44.2912" lon="2.97057">
        <ele>1023.4</ele>
        <time>2022-07-12T13:12:27Z</time>
      </trkpt>
      <trkpt lat="44.29099" lon="2.97097">
        <ele>1023.8</ele>
        <time>2022-07-12T13:12:37Z</time>
      </trkpt>
      <trkpt lat="44.29082" lon="2.97131">
        <ele>1023.4</ele>
        <time>2022-07-12T13:12:45Z</time>
      </trkpt>
      <trkpt lat="44.29072" lon="2.97156">
        <ele>1023</ele>
        <time>2022-07-12T13:12:49Z</time>
      </trkpt>
      <trkpt lat="44.29069" lon="2.97164">
        <ele>1022.8</ele>
        <time>2022-07-12T13:12:50Z</time>
      </trkpt>
      <trkpt lat="44.29059" lon="2.97199">
        <ele>1022.2</ele>
        <time>2022-07-12T13:12:54Z</time>
      </trkpt>
      <trkpt lat="44.29055" lon="2.97217">
        <ele>1021.4</ele>
        <time>2022-07-12T13:12:56Z</time>
      </trkpt>
      <trkpt lat="44.29053" lon="2.97234">
        <ele>1020.8</ele>
        <time>2022-07-12T13:12:58Z</time>
      </trkpt>
      <trkpt lat="44.29053" lon="2.97243">
        <ele>1020.4</ele>
        <time>2022-07-12T13:12:59Z</time>
      </trkpt>
      <trkpt lat="44.29052" lon="2.97281">
        <ele>1019.2</ele>
        <time>2022-07-12T13:13:03Z</time>
      </trkpt>
      <trkpt lat="44.29054" lon="2.97319">
        <ele>1018</ele>
        <time>2022-07-12T13:13:07Z</time>
      </trkpt>
      <trkpt lat="44.29058" lon="2.97336">
        <ele>1017.4</ele>
        <time>2022-07-12T13:13:09Z</time>
      </trkpt>
      <trkpt lat="44.29064" lon="2.97352">
        <ele>1016.8</ele>
        <time>2022-07-12T13:13:11Z</time>
      </trkpt>
      <trkpt lat="44.29074" lon="2.97372">
        <ele>1015.8</ele>
        <time>2022-07-12T13:13:14Z</time>
      </trkpt>
      <trkpt lat="44.29078" lon="2.9738">
        <ele>1015.4</ele>
        <time>2022-07-12T13:13:15Z</time>
      </trkpt>
      <trkpt lat="44.2908" lon="2.97389">
        <ele>1015.2</ele>
        <time>2022-07-12T13:13:16Z</time>
      </trkpt>
      <trkpt lat="44.29083" lon="2.97407">
        <ele>1014.6</ele>
        <time>2022-07-12T13:13:18Z</time>
      </trkpt>
      <trkpt lat="44.29084" lon="2.97427">
        <ele>1013.8</ele>
        <time>2022-07-12T13:13:20Z</time>
      </trkpt>
      <trkpt lat="44.29083" lon="2.97438">
        <ele>1013.2</ele>
        <time>2022-07-12T13:13:21Z</time>
      </trkpt>
      <trkpt lat="44.29083" lon="2.97448">
        <ele>1013</ele>
        <time>2022-07-12T13:13:22Z</time>
      </trkpt>
      <trkpt lat="44.2908" lon="2.97469">
        <ele>1011.6</ele>
        <time>2022-07-12T13:13:24Z</time>
      </trkpt>
      <trkpt lat="44.29078" lon="2.97484">
        <ele>1010.8</ele>
        <time>2022-07-12T13:13:26Z</time>
      </trkpt>
      <trkpt lat="44.29077" lon="2.97488">
        <ele>1010.4</ele>
        <time>2022-07-12T13:13:27Z</time>
      </trkpt>
      <trkpt lat="44.29076" lon="2.97492">
        <ele>1009.4</ele>
        <time>2022-07-12T13:13:29Z</time>
      </trkpt>
      <trkpt lat="44.29076" lon="2.97492">
        <ele>1008.6</ele>
        <time>2022-07-12T13:13:30Z</time>
      </trkpt>
      <trkpt lat="44.29076" lon="2.97496">
        <ele>1006.6</ele>
        <time>2022-07-12T13:13:45Z</time>
      </trkpt>
      <trkpt lat="44.29074" lon="2.97503">
        <ele>1006.6</ele>
        <time>2022-07-12T13:13:47Z</time>
      </trkpt>
      <trkpt lat="44.29067" lon="2.97527">
        <ele>1006</ele>
        <time>2022-07-12T13:13:53Z</time>
      </trkpt>
      <trkpt lat="44.29059" lon="2.97546">
        <ele>1005.4</ele>
        <time>2022-07-12T13:13:58Z</time>
      </trkpt>
      <trkpt lat="44.29057" lon="2.9755">
        <ele>1005.4</ele>
        <time>2022-07-12T13:13:59Z</time>
      </trkpt>
      <trkpt lat="44.2904" lon="2.97575">
        <ele>1004.8</ele>
        <time>2022-07-12T13:14:06Z</time>
      </trkpt>
      <trkpt lat="44.29026" lon="2.97593">
        <ele>1004.4</ele>
        <time>2022-07-12T13:14:12Z</time>
      </trkpt>
      <trkpt lat="44.2902" lon="2.97599">
        <ele>1004.2</ele>
        <time>2022-07-12T13:14:17Z</time>
      </trkpt>
      <trkpt lat="44.2902" lon="2.97599">
        <ele>1004</ele>
        <time>2022-07-12T13:14:18Z</time>
      </trkpt>
      <trkpt lat="44.29019" lon="2.97602">
        <ele>1003.6</ele>
        <time>2022-07-12T13:15:59Z</time>
      </trkpt>
      <trkpt lat="44.29014" lon="2.97608">
        <ele>1003.6</ele>
        <time>2022-07-12T13:16:02Z</time>
      </trkpt>
      <trkpt lat="44.29011" lon="2.97615">
        <ele>1003.4</ele>
        <time>2022-07-12T13:16:04Z</time>
      </trkpt>
      <trkpt lat="44.29004" lon="2.97629">
        <ele>1003.2</ele>
        <time>2022-07-12T13:16:07Z</time>
      </trkpt>
      <trkpt lat="44.29001" lon="2.97642">
        <ele>1003</ele>
        <time>2022-07-12T13:16:09Z</time>
      </trkpt>
      <trkpt lat="44.29001" lon="2.97656">
        <ele>1002.6</ele>
        <time>2022-07-12T13:16:11Z</time>
      </trkpt>
      <trkpt lat="44.29003" lon="2.97675">
        <ele>1002.4</ele>
        <time>2022-07-12T13:16:14Z</time>
      </trkpt>
      <trkpt lat="44.29005" lon="2.97688">
        <ele>1002</ele>
        <time>2022-07-12T13:16:16Z</time>
      </trkpt>
      <trkpt lat="44.29009" lon="2.97709">
        <ele>1001.2</ele>
        <time>2022-07-12T13:16:19Z</time>
      </trkpt>
      <trkpt lat="44.29012" lon="2.97722">
        <ele>1000.6</ele>
        <time>2022-07-12T13:16:21Z</time>
      </trkpt>
      <trkpt lat="44.29012" lon="2.97729">
        <ele>1000.4</ele>
        <time>2022-07-12T13:16:22Z</time>
      </trkpt>
      <trkpt lat="44.29012" lon="2.97736">
        <ele>1000.2</ele>
        <time>2022-07-12T13:16:23Z</time>
      </trkpt>
      <trkpt lat="44.29011" lon="2.97743">
        <ele>1000.2</ele>
        <time>2022-07-12T13:16:24Z</time>
      </trkpt>
      <trkpt lat="44.2901" lon="2.97749">
        <ele>1000.2</ele>
        <time>2022-07-12T13:16:25Z</time>
      </trkpt>
      <trkpt lat="44.29007" lon="2.97762">
        <ele>1000</ele>
        <time>2022-07-12T13:16:27Z</time>
      </trkpt>
      <trkpt lat="44.28997" lon="2.97779">
        <ele>999.8</ele>
        <time>2022-07-12T13:16:31Z</time>
      </trkpt>
      <trkpt lat="44.28987" lon="2.97791">
        <ele>999.6</ele>
        <time>2022-07-12T13:16:37Z</time>
      </trkpt>
      <trkpt lat="44.28978" lon="2.97798">
        <ele>999.8</ele>
        <time>2022-07-12T13:16:43Z</time>
      </trkpt>
      <trkpt lat="44.28964" lon="2.97807">
        <ele>1000</ele>
        <time>2022-07-12T13:16:48Z</time>
      </trkpt>
      <trkpt lat="44.28944" lon="2.9782">
        <ele>1000.2</ele>
        <time>2022-07-12T13:16:54Z</time>
      </trkpt>
      <trkpt lat="44.28926" lon="2.97838">
        <ele>1000.8</ele>
        <time>2022-07-12T13:17:01Z</time>
      </trkpt>
      <trkpt lat="44.2891" lon="2.97853">
        <ele>1000.2</ele>
        <time>2022-07-12T13:17:05Z</time>
      </trkpt>
      <trkpt lat="44.28903" lon="2.97863">
        <ele>999.2</ele>
        <time>2022-07-12T13:17:09Z</time>
      </trkpt>
      <trkpt lat="44.28903" lon="2.97863">
        <ele>999</ele>
        <time>2022-07-12T13:17:11Z</time>
      </trkpt>
      <trkpt lat="44.28905" lon="2.97861">
        <ele>998.6</ele>
        <time>2022-07-12T13:17:20Z</time>
      </trkpt>
      <trkpt lat="44.28905" lon="2.97861">
        <ele>998.6</ele>
        <time>2022-07-12T13:17:21Z</time>
      </trkpt>
      <trkpt lat="44.28907" lon="2.97858">
        <ele>998.4</ele>
        <time>2022-07-12T13:17:24Z</time>
      </trkpt>
      <trkpt lat="44.28912" lon="2.97853">
        <ele>998.4</ele>
        <time>2022-07-12T13:17:27Z</time>
      </trkpt>
      <trkpt lat="44.28923" lon="2.97841">
        <ele>998.6</ele>
        <time>2022-07-12T13:17:32Z</time>
      </trkpt>
      <trkpt lat="44.28931" lon="2.97832">
        <ele>999.2</ele>
        <time>2022-07-12T13:17:38Z</time>
      </trkpt>
      <trkpt lat="44.28933" lon="2.97828">
        <ele>999.6</ele>
        <time>2022-07-12T13:17:41Z</time>
      </trkpt>
      <trkpt lat="44.28936" lon="2.97826">
        <ele>999.8</ele>
        <time>2022-07-12T13:17:43Z</time>
      </trkpt>
      <trkpt lat="44.28938" lon="2.97828">
        <ele>1000.4</ele>
        <time>2022-07-12T13:17:45Z</time>
      </trkpt>
      <trkpt lat="44.28938" lon="2.97829">
        <ele>1000.4</ele>
        <time>2022-07-12T13:17:46Z</time>
      </trkpt>
      <trkpt lat="44.28937" lon="2.97833">
        <ele>1001</ele>
        <time>2022-07-12T13:17:48Z</time>
      </trkpt>
      <trkpt lat="44.28928" lon="2.97847">
        <ele>1001.4</ele>
        <time>2022-07-12T13:17:54Z</time>
      </trkpt>
      <trkpt lat="44.28921" lon="2.97869">
        <ele>1001.4</ele>
        <time>2022-07-12T13:18:00Z</time>
      </trkpt>
      <trkpt lat="44.28908" lon="2.97897">
        <ele>1001.2</ele>
        <time>2022-07-12T13:18:07Z</time>
      </trkpt>
      <trkpt lat="44.28892" lon="2.97921">
        <ele>1000.4</ele>
        <time>2022-07-12T13:18:13Z</time>
      </trkpt>
      <trkpt lat="44.28874" lon="2.9795">
        <ele>1000.4</ele>
        <time>2022-07-12T13:18:20Z</time>
      </trkpt>
      <trkpt lat="44.28865" lon="2.97967">
        <ele>1000.2</ele>
        <time>2022-07-12T13:18:24Z</time>
      </trkpt>
      <trkpt lat="44.28857" lon="2.97972">
        <ele>1000</ele>
        <time>2022-07-12T13:18:26Z</time>
      </trkpt>
      <trkpt lat="44.2885" lon="2.97982">
        <ele>1000</ele>
        <time>2022-07-12T13:18:28Z</time>
      </trkpt>
      <trkpt lat="44.28845" lon="2.97992">
        <ele>999.6</ele>
        <time>2022-07-12T13:18:30Z</time>
      </trkpt>
      <trkpt lat="44.28838" lon="2.98001">
        <ele>999.2</ele>
        <time>2022-07-12T13:18:32Z</time>
      </trkpt>
      <trkpt lat="44.28834" lon="2.98004">
        <ele>999</ele>
        <time>2022-07-12T13:18:33Z</time>
      </trkpt>
      <trkpt lat="44.28813" lon="2.98023">
        <ele>998.4</ele>
        <time>2022-07-12T13:18:38Z</time>
      </trkpt>
      <trkpt lat="44.28803" lon="2.98034">
        <ele>998.2</ele>
        <time>2022-07-12T13:18:41Z</time>
      </trkpt>
      <trkpt lat="44.28794" lon="2.98044">
        <ele>998</ele>
        <time>2022-07-12T13:18:44Z</time>
      </trkpt>
      <trkpt lat="44.28778" lon="2.98062">
        <ele>998.2</ele>
        <time>2022-07-12T13:18:50Z</time>
      </trkpt>
      <trkpt lat="44.28755" lon="2.98086">
        <ele>999.4</ele>
        <time>2022-07-12T13:18:59Z</time>
      </trkpt>
      <trkpt lat="44.28735" lon="2.98105">
        <ele>1000</ele>
        <time>2022-07-12T13:19:06Z</time>
      </trkpt>
      <trkpt lat="44.28732" lon="2.98108">
        <ele>1000</ele>
        <time>2022-07-12T13:19:07Z</time>
      </trkpt>
      <trkpt lat="44.28703" lon="2.98137">
        <ele>1000.6</ele>
        <time>2022-07-12T13:19:16Z</time>
      </trkpt>
      <trkpt lat="44.28693" lon="2.98147">
        <ele>1001</ele>
        <time>2022-07-12T13:19:19Z</time>
      </trkpt>
      <trkpt lat="44.28668" lon="2.98172">
        <ele>1001.4</ele>
        <time>2022-07-12T13:19:27Z</time>
      </trkpt>
      <trkpt lat="44.28646" lon="2.98195">
        <ele>1002.2</ele>
        <time>2022-07-12T13:19:34Z</time>
      </trkpt>
      <trkpt lat="44.28639" lon="2.98202">
        <ele>1002.2</ele>
        <time>2022-07-12T13:19:36Z</time>
      </trkpt>
      <trkpt lat="44.28621" lon="2.98221">
        <ele>1002.2</ele>
        <time>2022-07-12T13:19:42Z</time>
      </trkpt>
      <trkpt lat="44.28604" lon="2.98235">
        <ele>1002.8</ele>
        <time>2022-07-12T13:19:48Z</time>
      </trkpt>
      <trkpt lat="44.28599" lon="2.98239">
        <ele>1003</ele>
        <time>2022-07-12T13:19:50Z</time>
      </trkpt>
      <trkpt lat="44.28583" lon="2.98257">
        <ele>1003.6</ele>
        <time>2022-07-12T13:19:56Z</time>
      </trkpt>
      <trkpt lat="44.28569" lon="2.98271">
        <ele>1004</ele>
        <time>2022-07-12T13:20:01Z</time>
      </trkpt>
      <trkpt lat="44.28566" lon="2.98273">
        <ele>1004.2</ele>
        <time>2022-07-12T13:20:02Z</time>
      </trkpt>
      <trkpt lat="44.28558" lon="2.98284">
        <ele>1004.4</ele>
        <time>2022-07-12T13:20:05Z</time>
      </trkpt>
      <trkpt lat="44.28539" lon="2.98313">
        <ele>1005</ele>
        <time>2022-07-12T13:20:12Z</time>
      </trkpt>
      <trkpt lat="44.28536" lon="2.98317">
        <ele>1005.2</ele>
        <time>2022-07-12T13:20:13Z</time>
      </trkpt>
      <trkpt lat="44.28524" lon="2.98334">
        <ele>1005.4</ele>
        <time>2022-07-12T13:20:17Z</time>
      </trkpt>
      <trkpt lat="44.28506" lon="2.98364">
        <ele>1006</ele>
        <time>2022-07-12T13:20:24Z</time>
      </trkpt>
      <trkpt lat="44.28488" lon="2.98377">
        <ele>1006</ele>
        <time>2022-07-12T13:20:29Z</time>
      </trkpt>
      <trkpt lat="44.28473" lon="2.98393">
        <ele>1005.8</ele>
        <time>2022-07-12T13:20:33Z</time>
      </trkpt>
      <trkpt lat="44.28451" lon="2.98409">
        <ele>1005.6</ele>
        <time>2022-07-12T13:20:37Z</time>
      </trkpt>
      <trkpt lat="44.28445" lon="2.9841">
        <ele>1005.6</ele>
        <time>2022-07-12T13:20:38Z</time>
      </trkpt>
      <trkpt lat="44.28433" lon="2.98413">
        <ele>1005.4</ele>
        <time>2022-07-12T13:20:40Z</time>
      </trkpt>
      <trkpt lat="44.28417" lon="2.98417">
        <ele>1004.8</ele>
        <time>2022-07-12T13:20:43Z</time>
      </trkpt>
      <trkpt lat="44.28403" lon="2.98421">
        <ele>1004</ele>
        <time>2022-07-12T13:20:45Z</time>
      </trkpt>
      <trkpt lat="44.28374" lon="2.98423">
        <ele>1002.4</ele>
        <time>2022-07-12T13:20:49Z</time>
      </trkpt>
      <trkpt lat="44.28367" lon="2.98424">
        <ele>1002.2</ele>
        <time>2022-07-12T13:20:50Z</time>
      </trkpt>
      <trkpt lat="44.28359" lon="2.98425">
        <ele>1001.4</ele>
        <time>2022-07-12T13:20:51Z</time>
      </trkpt>
      <trkpt lat="44.28351" lon="2.98426">
        <ele>1001</ele>
        <time>2022-07-12T13:20:52Z</time>
      </trkpt>
      <trkpt lat="44.28343" lon="2.98428">
        <ele>1000.2</ele>
        <time>2022-07-12T13:20:53Z</time>
      </trkpt>
      <trkpt lat="44.28337" lon="2.98429">
        <ele>999.6</ele>
        <time>2022-07-12T13:20:54Z</time>
      </trkpt>
      <trkpt lat="44.28309" lon="2.98447">
        <ele>998.2</ele>
        <time>2022-07-12T13:20:58Z</time>
      </trkpt>
      <trkpt lat="44.2829" lon="2.98465">
        <ele>996.8</ele>
        <time>2022-07-12T13:21:02Z</time>
      </trkpt>
      <trkpt lat="44.28265" lon="2.98483">
        <ele>995.8</ele>
        <time>2022-07-12T13:21:07Z</time>
      </trkpt>
      <trkpt lat="44.2826" lon="2.98485">
        <ele>995.6</ele>
        <time>2022-07-12T13:21:08Z</time>
      </trkpt>
      <trkpt lat="44.28245" lon="2.98495">
        <ele>995.2</ele>
        <time>2022-07-12T13:21:11Z</time>
      </trkpt>
      <trkpt lat="44.28233" lon="2.98504">
        <ele>994.8</ele>
        <time>2022-07-12T13:21:13Z</time>
      </trkpt>
      <trkpt lat="44.28228" lon="2.98508">
        <ele>994.8</ele>
        <time>2022-07-12T13:21:14Z</time>
      </trkpt>
      <trkpt lat="44.28218" lon="2.98517">
        <ele>994.4</ele>
        <time>2022-07-12T13:21:16Z</time>
      </trkpt>
      <trkpt lat="44.28206" lon="2.98531">
        <ele>994</ele>
        <time>2022-07-12T13:21:18Z</time>
      </trkpt>
      <trkpt lat="44.28201" lon="2.98538">
        <ele>993.8</ele>
        <time>2022-07-12T13:21:19Z</time>
      </trkpt>
      <trkpt lat="44.2819" lon="2.98553">
        <ele>993.2</ele>
        <time>2022-07-12T13:21:21Z</time>
      </trkpt>
      <trkpt lat="44.28184" lon="2.9856">
        <ele>993</ele>
        <time>2022-07-12T13:21:22Z</time>
      </trkpt>
      <trkpt lat="44.28178" lon="2.98566">
        <ele>992.6</ele>
        <time>2022-07-12T13:21:23Z</time>
      </trkpt>
      <trkpt lat="44.28166" lon="2.98579">
        <ele>992.2</ele>
        <time>2022-07-12T13:21:25Z</time>
      </trkpt>
      <trkpt lat="44.28159" lon="2.98584">
        <ele>992</ele>
        <time>2022-07-12T13:21:26Z</time>
      </trkpt>
      <trkpt lat="44.28152" lon="2.98588">
        <ele>991.8</ele>
        <time>2022-07-12T13:21:27Z</time>
      </trkpt>
      <trkpt lat="44.28144" lon="2.98591">
        <ele>991.6</ele>
        <time>2022-07-12T13:21:28Z</time>
      </trkpt>
      <trkpt lat="44.28138" lon="2.98591">
        <ele>991.4</ele>
        <time>2022-07-12T13:21:29Z</time>
      </trkpt>
      <trkpt lat="44.28134" lon="2.9859">
        <ele>991.4</ele>
        <time>2022-07-12T13:21:30Z</time>
      </trkpt>
      <trkpt lat="44.2813" lon="2.98588">
        <ele>991.2</ele>
        <time>2022-07-12T13:21:31Z</time>
      </trkpt>
      <trkpt lat="44.28116" lon="2.98585">
        <ele>991.2</ele>
        <time>2022-07-12T13:21:35Z</time>
      </trkpt>
      <trkpt lat="44.28101" lon="2.98579">
        <ele>992</ele>
        <time>2022-07-12T13:21:41Z</time>
      </trkpt>
      <trkpt lat="44.2809" lon="2.98578">
        <ele>992</ele>
        <time>2022-07-12T13:21:44Z</time>
      </trkpt>
      <trkpt lat="44.28083" lon="2.98577">
        <ele>992.2</ele>
        <time>2022-07-12T13:21:46Z</time>
      </trkpt>
      <trkpt lat="44.28063" lon="2.98574">
        <ele>992.8</ele>
        <time>2022-07-12T13:21:52Z</time>
      </trkpt>
      <trkpt lat="44.2803" lon="2.98576">
        <ele>993</ele>
        <time>2022-07-12T13:22:01Z</time>
      </trkpt>
      <trkpt lat="44.28027" lon="2.98577">
        <ele>993</ele>
        <time>2022-07-12T13:22:02Z</time>
      </trkpt>
      <trkpt lat="44.28" lon="2.98593">
        <ele>993</ele>
        <time>2022-07-12T13:22:10Z</time>
      </trkpt>
      <trkpt lat="44.27997" lon="2.98595">
        <ele>993.2</ele>
        <time>2022-07-12T13:22:11Z</time>
      </trkpt>
      <trkpt lat="44.27979" lon="2.98616">
        <ele>993.6</ele>
        <time>2022-07-12T13:22:18Z</time>
      </trkpt>
      <trkpt lat="44.27969" lon="2.98641">
        <ele>994.2</ele>
        <time>2022-07-12T13:22:24Z</time>
      </trkpt>
      <trkpt lat="44.27955" lon="2.98655">
        <ele>994.8</ele>
        <time>2022-07-12T13:22:29Z</time>
      </trkpt>
      <trkpt lat="44.27941" lon="2.98656">
        <ele>995</ele>
        <time>2022-07-12T13:22:33Z</time>
      </trkpt>
      <trkpt lat="44.27934" lon="2.98653">
        <ele>995.4</ele>
        <time>2022-07-12T13:22:35Z</time>
      </trkpt>
      <trkpt lat="44.2791" lon="2.98641">
        <ele>996</ele>
        <time>2022-07-12T13:22:42Z</time>
      </trkpt>
      <trkpt lat="44.27904" lon="2.98638">
        <ele>996.2</ele>
        <time>2022-07-12T13:22:44Z</time>
      </trkpt>
      <trkpt lat="44.27895" lon="2.98634">
        <ele>996.6</ele>
        <time>2022-07-12T13:22:48Z</time>
      </trkpt>
      <trkpt lat="44.27884" lon="2.98627">
        <ele>997.2</ele>
        <time>2022-07-12T13:22:52Z</time>
      </trkpt>
      <trkpt lat="44.27874" lon="2.98616">
        <ele>998.2</ele>
        <time>2022-07-12T13:22:56Z</time>
      </trkpt>
      <trkpt lat="44.27868" lon="2.98609">
        <ele>998.4</ele>
        <time>2022-07-12T13:22:58Z</time>
      </trkpt>
      <trkpt lat="44.27855" lon="2.98594">
        <ele>998.4</ele>
        <time>2022-07-12T13:23:02Z</time>
      </trkpt>
      <trkpt lat="44.27828" lon="2.98563">
        <ele>997.8</ele>
        <time>2022-07-12T13:23:10Z</time>
      </trkpt>
      <trkpt lat="44.27806" lon="2.98527">
        <ele>998</ele>
        <time>2022-07-12T13:23:18Z</time>
      </trkpt>
      <trkpt lat="44.27795" lon="2.9851">
        <ele>998</ele>
        <time>2022-07-12T13:23:22Z</time>
      </trkpt>
      <trkpt lat="44.27788" lon="2.98502">
        <ele>998</ele>
        <time>2022-07-12T13:23:24Z</time>
      </trkpt>
      <trkpt lat="44.27755" lon="2.98464">
        <ele>998</ele>
        <time>2022-07-12T13:23:34Z</time>
      </trkpt>
      <trkpt lat="44.27747" lon="2.98458">
        <ele>998</ele>
        <time>2022-07-12T13:23:36Z</time>
      </trkpt>
      <trkpt lat="44.27726" lon="2.98443">
        <ele>998.2</ele>
        <time>2022-07-12T13:23:42Z</time>
      </trkpt>
      <trkpt lat="44.27684" lon="2.9843">
        <ele>999</ele>
        <time>2022-07-12T13:23:53Z</time>
      </trkpt>
      <trkpt lat="44.2767" lon="2.9843">
        <ele>999.2</ele>
        <time>2022-07-12T13:23:57Z</time>
      </trkpt>
      <trkpt lat="44.27649" lon="2.98431">
        <ele>999.6</ele>
        <time>2022-07-12T13:24:03Z</time>
      </trkpt>
      <trkpt lat="44.27638" lon="2.98433">
        <ele>1000.2</ele>
        <time>2022-07-12T13:24:06Z</time>
      </trkpt>
      <trkpt lat="44.27629" lon="2.98438">
        <ele>1000.4</ele>
        <time>2022-07-12T13:24:09Z</time>
      </trkpt>
      <trkpt lat="44.27606" lon="2.98451">
        <ele>1000</ele>
        <time>2022-07-12T13:24:18Z</time>
      </trkpt>
      <trkpt lat="44.27597" lon="2.98456">
        <ele>999</ele>
        <time>2022-07-12T13:24:23Z</time>
      </trkpt>
      <trkpt lat="44.27596" lon="2.98457">
        <ele>998.2</ele>
        <time>2022-07-12T13:24:25Z</time>
      </trkpt>
      <trkpt lat="44.27596" lon="2.98457">
        <ele>998</ele>
        <time>2022-07-12T13:24:26Z</time>
      </trkpt>
      <trkpt lat="44.27594" lon="2.98458">
        <ele>997</ele>
        <time>2022-07-12T13:25:16Z</time>
      </trkpt>
      <trkpt lat="44.27587" lon="2.9846">
        <ele>997</ele>
        <time>2022-07-12T13:25:19Z</time>
      </trkpt>
      <trkpt lat="44.27566" lon="2.98469">
        <ele>996</ele>
        <time>2022-07-12T13:25:24Z</time>
      </trkpt>
      <trkpt lat="44.27562" lon="2.98471">
        <ele>995.8</ele>
        <time>2022-07-12T13:25:25Z</time>
      </trkpt>
      <trkpt lat="44.27549" lon="2.9848">
        <ele>994.2</ele>
        <time>2022-07-12T13:25:28Z</time>
      </trkpt>
      <trkpt lat="44.27542" lon="2.98483">
        <ele>993.2</ele>
        <time>2022-07-12T13:25:30Z</time>
      </trkpt>
      <trkpt lat="44.27536" lon="2.98485">
        <ele>991.8</ele>
        <time>2022-07-12T13:25:32Z</time>
      </trkpt>
      <trkpt lat="44.27527" lon="2.9849">
        <ele>990.2</ele>
        <time>2022-07-12T13:25:35Z</time>
      </trkpt>
      <trkpt lat="44.27524" lon="2.98492">
        <ele>989.8</ele>
        <time>2022-07-12T13:25:36Z</time>
      </trkpt>
      <trkpt lat="44.27522" lon="2.98494">
        <ele>989</ele>
        <time>2022-07-12T13:25:37Z</time>
      </trkpt>
      <trkpt lat="44.27512" lon="2.98502">
        <ele>988</ele>
        <time>2022-07-12T13:25:40Z</time>
      </trkpt>
      <trkpt lat="44.27505" lon="2.9851">
        <ele>987</ele>
        <time>2022-07-12T13:25:42Z</time>
      </trkpt>
      <trkpt lat="44.27503" lon="2.98514">
        <ele>986.8</ele>
        <time>2022-07-12T13:25:43Z</time>
      </trkpt>
      <trkpt lat="44.27501" lon="2.9852">
        <ele>986.2</ele>
        <time>2022-07-12T13:25:44Z</time>
      </trkpt>
      <trkpt lat="44.27499" lon="2.98526">
        <ele>986</ele>
        <time>2022-07-12T13:25:45Z</time>
      </trkpt>
      <trkpt lat="44.27497" lon="2.98533">
        <ele>985.4</ele>
        <time>2022-07-12T13:25:46Z</time>
      </trkpt>
      <trkpt lat="44.27495" lon="2.98542">
        <ele>985</ele>
        <time>2022-07-12T13:25:47Z</time>
      </trkpt>
      <trkpt lat="44.27494" lon="2.98552">
        <ele>984.2</ele>
        <time>2022-07-12T13:25:48Z</time>
      </trkpt>
      <trkpt lat="44.27493" lon="2.98562">
        <ele>983.6</ele>
        <time>2022-07-12T13:25:49Z</time>
      </trkpt>
      <trkpt lat="44.27492" lon="2.98574">
        <ele>983.4</ele>
        <time>2022-07-12T13:25:50Z</time>
      </trkpt>
      <trkpt lat="44.27489" lon="2.98586">
        <ele>983</ele>
        <time>2022-07-12T13:25:51Z</time>
      </trkpt>
      <trkpt lat="44.27485" lon="2.98599">
        <ele>982.6</ele>
        <time>2022-07-12T13:25:52Z</time>
      </trkpt>
      <trkpt lat="44.27481" lon="2.98611">
        <ele>982.2</ele>
        <time>2022-07-12T13:25:53Z</time>
      </trkpt>
      <trkpt lat="44.27476" lon="2.98624">
        <ele>981.8</ele>
        <time>2022-07-12T13:25:54Z</time>
      </trkpt>
      <trkpt lat="44.2747" lon="2.98635">
        <ele>980.8</ele>
        <time>2022-07-12T13:25:55Z</time>
      </trkpt>
      <trkpt lat="44.27465" lon="2.98646">
        <ele>980.2</ele>
        <time>2022-07-12T13:25:56Z</time>
      </trkpt>
      <trkpt lat="44.2746" lon="2.98657">
        <ele>979.4</ele>
        <time>2022-07-12T13:25:57Z</time>
      </trkpt>
      <trkpt lat="44.27446" lon="2.98685">
        <ele>977.8</ele>
        <time>2022-07-12T13:26:00Z</time>
      </trkpt>
      <trkpt lat="44.27435" lon="2.98703">
        <ele>976.6</ele>
        <time>2022-07-12T13:26:02Z</time>
      </trkpt>
      <trkpt lat="44.27425" lon="2.98718">
        <ele>975.6</ele>
        <time>2022-07-12T13:26:04Z</time>
      </trkpt>
      <trkpt lat="44.27416" lon="2.98731">
        <ele>975</ele>
        <time>2022-07-12T13:26:06Z</time>
      </trkpt>
      <trkpt lat="44.27411" lon="2.98736">
        <ele>974.6</ele>
        <time>2022-07-12T13:26:07Z</time>
      </trkpt>
      <trkpt lat="44.27403" lon="2.98743">
        <ele>974.2</ele>
        <time>2022-07-12T13:26:09Z</time>
      </trkpt>
      <trkpt lat="44.27392" lon="2.98753">
        <ele>974</ele>
        <time>2022-07-12T13:26:12Z</time>
      </trkpt>
      <trkpt lat="44.2737" lon="2.9877">
        <ele>973.8</ele>
        <time>2022-07-12T13:26:18Z</time>
      </trkpt>
      <trkpt lat="44.27366" lon="2.98772">
        <ele>973.8</ele>
        <time>2022-07-12T13:26:19Z</time>
      </trkpt>
      <trkpt lat="44.27357" lon="2.98775">
        <ele>973.8</ele>
        <time>2022-07-12T13:26:21Z</time>
      </trkpt>
      <trkpt lat="44.27342" lon="2.98776">
        <ele>973.4</ele>
        <time>2022-07-12T13:26:24Z</time>
      </trkpt>
      <trkpt lat="44.27337" lon="2.98776">
        <ele>973.2</ele>
        <time>2022-07-12T13:26:25Z</time>
      </trkpt>
      <trkpt lat="44.27332" lon="2.98778">
        <ele>973</ele>
        <time>2022-07-12T13:26:26Z</time>
      </trkpt>
      <trkpt lat="44.27318" lon="2.98783">
        <ele>972</ele>
        <time>2022-07-12T13:26:29Z</time>
      </trkpt>
      <trkpt lat="44.27314" lon="2.98784">
        <ele>972</ele>
        <time>2022-07-12T13:26:30Z</time>
      </trkpt>
      <trkpt lat="44.27305" lon="2.98788">
        <ele>971</ele>
        <time>2022-07-12T13:26:33Z</time>
      </trkpt>
      <trkpt lat="44.273" lon="2.98789">
        <ele>970.8</ele>
        <time>2022-07-12T13:26:35Z</time>
      </trkpt>
      <trkpt lat="44.27294" lon="2.98789">
        <ele>970</ele>
        <time>2022-07-12T13:26:38Z</time>
      </trkpt>
      <trkpt lat="44.2729" lon="2.98788">
        <ele>969.8</ele>
        <time>2022-07-12T13:26:40Z</time>
      </trkpt>
      <trkpt lat="44.27279" lon="2.98784">
        <ele>969.2</ele>
        <time>2022-07-12T13:26:46Z</time>
      </trkpt>
      <trkpt lat="44.27274" lon="2.98783">
        <ele>969</ele>
        <time>2022-07-12T13:26:48Z</time>
      </trkpt>
      <trkpt lat="44.2726" lon="2.98779">
        <ele>968.4</ele>
        <time>2022-07-12T13:26:53Z</time>
      </trkpt>
      <trkpt lat="44.27252" lon="2.98776">
        <ele>968</ele>
        <time>2022-07-12T13:26:56Z</time>
      </trkpt>
      <trkpt lat="44.27245" lon="2.98774">
        <ele>967.6</ele>
        <time>2022-07-12T13:26:58Z</time>
      </trkpt>
      <trkpt lat="44.27221" lon="2.98761">
        <ele>967</ele>
        <time>2022-07-12T13:27:03Z</time>
      </trkpt>
      <trkpt lat="44.27214" lon="2.98759">
        <ele>967</ele>
        <time>2022-07-12T13:27:04Z</time>
      </trkpt>
      <trkpt lat="44.27208" lon="2.98758">
        <ele>966.8</ele>
        <time>2022-07-12T13:27:05Z</time>
      </trkpt>
      <trkpt lat="44.272" lon="2.98758">
        <ele>966.4</ele>
        <time>2022-07-12T13:27:06Z</time>
      </trkpt>
      <trkpt lat="44.27193" lon="2.98758">
        <ele>966.4</ele>
        <time>2022-07-12T13:27:07Z</time>
      </trkpt>
      <trkpt lat="44.2717" lon="2.98761">
        <ele>965.6</ele>
        <time>2022-07-12T13:27:10Z</time>
      </trkpt>
      <trkpt lat="44.27156" lon="2.98766">
        <ele>965.4</ele>
        <time>2022-07-12T13:27:12Z</time>
      </trkpt>
      <trkpt lat="44.27133" lon="2.98773">
        <ele>964.6</ele>
        <time>2022-07-12T13:27:15Z</time>
      </trkpt>
      <trkpt lat="44.27103" lon="2.98783">
        <ele>963.8</ele>
        <time>2022-07-12T13:27:19Z</time>
      </trkpt>
      <trkpt lat="44.27089" lon="2.98787">
        <ele>963.4</ele>
        <time>2022-07-12T13:27:21Z</time>
      </trkpt>
      <trkpt lat="44.27043" lon="2.98799">
        <ele>962.4</ele>
        <time>2022-07-12T13:27:27Z</time>
      </trkpt>
      <trkpt lat="44.27035" lon="2.988">
        <ele>962.4</ele>
        <time>2022-07-12T13:27:28Z</time>
      </trkpt>
      <trkpt lat="44.26987" lon="2.98806">
        <ele>961.2</ele>
        <time>2022-07-12T13:27:34Z</time>
      </trkpt>
      <trkpt lat="44.26979" lon="2.98807">
        <ele>961</ele>
        <time>2022-07-12T13:27:35Z</time>
      </trkpt>
      <trkpt lat="44.26927" lon="2.98812">
        <ele>960.2</ele>
        <time>2022-07-12T13:27:42Z</time>
      </trkpt>
      <trkpt lat="44.26883" lon="2.98823">
        <ele>959.8</ele>
        <time>2022-07-12T13:27:48Z</time>
      </trkpt>
      <trkpt lat="44.26859" lon="2.98832">
        <ele>959.2</ele>
        <time>2022-07-12T13:27:51Z</time>
      </trkpt>
      <trkpt lat="44.26851" lon="2.98831">
        <ele>959.2</ele>
        <time>2022-07-12T13:27:52Z</time>
      </trkpt>
      <trkpt lat="44.26827" lon="2.9882">
        <ele>957.8</ele>
        <time>2022-07-12T13:27:55Z</time>
      </trkpt>
      <trkpt lat="44.26819" lon="2.98815">
        <ele>957.6</ele>
        <time>2022-07-12T13:27:56Z</time>
      </trkpt>
      <trkpt lat="44.26785" lon="2.98796">
        <ele>956.2</ele>
        <time>2022-07-12T13:28:00Z</time>
      </trkpt>
      <trkpt lat="44.26777" lon="2.98789">
        <ele>955.6</ele>
        <time>2022-07-12T13:28:01Z</time>
      </trkpt>
      <trkpt lat="44.26769" lon="2.98781">
        <ele>954.4</ele>
        <time>2022-07-12T13:28:02Z</time>
      </trkpt>
      <trkpt lat="44.26754" lon="2.98766">
        <ele>952.2</ele>
        <time>2022-07-12T13:28:04Z</time>
      </trkpt>
      <trkpt lat="44.26745" lon="2.98762">
        <ele>951.8</ele>
        <time>2022-07-12T13:28:05Z</time>
      </trkpt>
      <trkpt lat="44.26735" lon="2.98758">
        <ele>950</ele>
        <time>2022-07-12T13:28:06Z</time>
      </trkpt>
      <trkpt lat="44.26725" lon="2.98756">
        <ele>948</ele>
        <time>2022-07-12T13:28:07Z</time>
      </trkpt>
      <trkpt lat="44.26715" lon="2.98755">
        <ele>947.2</ele>
        <time>2022-07-12T13:28:08Z</time>
      </trkpt>
      <trkpt lat="44.26705" lon="2.98756">
        <ele>945.6</ele>
        <time>2022-07-12T13:28:09Z</time>
      </trkpt>
      <trkpt lat="44.26686" lon="2.98758">
        <ele>943.4</ele>
        <time>2022-07-12T13:28:11Z</time>
      </trkpt>
      <trkpt lat="44.26667" lon="2.98758">
        <ele>942.2</ele>
        <time>2022-07-12T13:28:13Z</time>
      </trkpt>
      <trkpt lat="44.26648" lon="2.98749">
        <ele>941</ele>
        <time>2022-07-12T13:28:15Z</time>
      </trkpt>
      <trkpt lat="44.26639" lon="2.98741">
        <ele>940.2</ele>
        <time>2022-07-12T13:28:16Z</time>
      </trkpt>
      <trkpt lat="44.26631" lon="2.98732">
        <ele>940</ele>
        <time>2022-07-12T13:28:17Z</time>
      </trkpt>
      <trkpt lat="44.26622" lon="2.98722">
        <ele>938.8</ele>
        <time>2022-07-12T13:28:18Z</time>
      </trkpt>
      <trkpt lat="44.26604" lon="2.98702">
        <ele>936.6</ele>
        <time>2022-07-12T13:28:20Z</time>
      </trkpt>
      <trkpt lat="44.26586" lon="2.98682">
        <ele>935</ele>
        <time>2022-07-12T13:28:22Z</time>
      </trkpt>
      <trkpt lat="44.26578" lon="2.98671">
        <ele>934</ele>
        <time>2022-07-12T13:28:23Z</time>
      </trkpt>
      <trkpt lat="44.26561" lon="2.98648">
        <ele>932.6</ele>
        <time>2022-07-12T13:28:25Z</time>
      </trkpt>
      <trkpt lat="44.26554" lon="2.98635">
        <ele>931.8</ele>
        <time>2022-07-12T13:28:26Z</time>
      </trkpt>
      <trkpt lat="44.26548" lon="2.98623">
        <ele>931.2</ele>
        <time>2022-07-12T13:28:27Z</time>
      </trkpt>
      <trkpt lat="44.26533" lon="2.98585">
        <ele>929.8</ele>
        <time>2022-07-12T13:28:30Z</time>
      </trkpt>
      <trkpt lat="44.26523" lon="2.98564">
        <ele>928.8</ele>
        <time>2022-07-12T13:28:32Z</time>
      </trkpt>
      <trkpt lat="44.26509" lon="2.98534">
        <ele>927.8</ele>
        <time>2022-07-12T13:28:35Z</time>
      </trkpt>
      <trkpt lat="44.26504" lon="2.98526">
        <ele>927.4</ele>
        <time>2022-07-12T13:28:36Z</time>
      </trkpt>
      <trkpt lat="44.26489" lon="2.98506">
        <ele>927</ele>
        <time>2022-07-12T13:28:39Z</time>
      </trkpt>
      <trkpt lat="44.26466" lon="2.98482">
        <ele>926.2</ele>
        <time>2022-07-12T13:28:43Z</time>
      </trkpt>
      <trkpt lat="44.26458" lon="2.98477">
        <ele>926</ele>
        <time>2022-07-12T13:28:44Z</time>
      </trkpt>
      <trkpt lat="44.26441" lon="2.98468">
        <ele>925</ele>
        <time>2022-07-12T13:28:46Z</time>
      </trkpt>
      <trkpt lat="44.26422" lon="2.98459">
        <ele>924.2</ele>
        <time>2022-07-12T13:28:48Z</time>
      </trkpt>
      <trkpt lat="44.26413" lon="2.98453">
        <ele>923.4</ele>
        <time>2022-07-12T13:28:49Z</time>
      </trkpt>
      <trkpt lat="44.26405" lon="2.98448">
        <ele>922.2</ele>
        <time>2022-07-12T13:28:50Z</time>
      </trkpt>
      <trkpt lat="44.2639" lon="2.98435">
        <ele>920.6</ele>
        <time>2022-07-12T13:28:52Z</time>
      </trkpt>
      <trkpt lat="44.26378" lon="2.98417">
        <ele>918.8</ele>
        <time>2022-07-12T13:28:54Z</time>
      </trkpt>
      <trkpt lat="44.26367" lon="2.98401">
        <ele>917.4</ele>
        <time>2022-07-12T13:28:56Z</time>
      </trkpt>
      <trkpt lat="44.26356" lon="2.98392">
        <ele>916.2</ele>
        <time>2022-07-12T13:28:58Z</time>
      </trkpt>
      <trkpt lat="44.2635" lon="2.98389">
        <ele>914.8</ele>
        <time>2022-07-12T13:28:59Z</time>
      </trkpt>
      <trkpt lat="44.26344" lon="2.98385">
        <ele>914.2</ele>
        <time>2022-07-12T13:29:00Z</time>
      </trkpt>
      <trkpt lat="44.26338" lon="2.98383">
        <ele>913.2</ele>
        <time>2022-07-12T13:29:01Z</time>
      </trkpt>
      <trkpt lat="44.26331" lon="2.98381">
        <ele>912.8</ele>
        <time>2022-07-12T13:29:02Z</time>
      </trkpt>
      <trkpt lat="44.26324" lon="2.9838">
        <ele>912.2</ele>
        <time>2022-07-12T13:29:03Z</time>
      </trkpt>
      <trkpt lat="44.26317" lon="2.9838">
        <ele>912</ele>
        <time>2022-07-12T13:29:04Z</time>
      </trkpt>
      <trkpt lat="44.2631" lon="2.9838">
        <ele>910.6</ele>
        <time>2022-07-12T13:29:05Z</time>
      </trkpt>
      <trkpt lat="44.26296" lon="2.98381">
        <ele>909.6</ele>
        <time>2022-07-12T13:29:07Z</time>
      </trkpt>
      <trkpt lat="44.26289" lon="2.98382">
        <ele>909</ele>
        <time>2022-07-12T13:29:08Z</time>
      </trkpt>
      <trkpt lat="44.26277" lon="2.98387">
        <ele>908.4</ele>
        <time>2022-07-12T13:29:10Z</time>
      </trkpt>
      <trkpt lat="44.26271" lon="2.98389">
        <ele>908</ele>
        <time>2022-07-12T13:29:11Z</time>
      </trkpt>
      <trkpt lat="44.26265" lon="2.98388">
        <ele>907.2</ele>
        <time>2022-07-12T13:29:12Z</time>
      </trkpt>
      <trkpt lat="44.26259" lon="2.98385">
        <ele>907</ele>
        <time>2022-07-12T13:29:13Z</time>
      </trkpt>
      <trkpt lat="44.26253" lon="2.98382">
        <ele>906.6</ele>
        <time>2022-07-12T13:29:14Z</time>
      </trkpt>
      <trkpt lat="44.26243" lon="2.98375">
        <ele>906.2</ele>
        <time>2022-07-12T13:29:16Z</time>
      </trkpt>
      <trkpt lat="44.26238" lon="2.98368">
        <ele>905.8</ele>
        <time>2022-07-12T13:29:18Z</time>
      </trkpt>
      <trkpt lat="44.26235" lon="2.98361">
        <ele>905</ele>
        <time>2022-07-12T13:29:21Z</time>
      </trkpt>
      <trkpt lat="44.26234" lon="2.9836">
        <ele>905</ele>
        <time>2022-07-12T13:29:22Z</time>
      </trkpt>
      <trkpt lat="44.26223" lon="2.98354">
        <ele>904.2</ele>
        <time>2022-07-12T13:29:27Z</time>
      </trkpt>
      <trkpt lat="44.2622" lon="2.98351">
        <ele>904</ele>
        <time>2022-07-12T13:29:28Z</time>
      </trkpt>
      <trkpt lat="44.26214" lon="2.98342">
        <ele>903.2</ele>
        <time>2022-07-12T13:29:31Z</time>
      </trkpt>
      <trkpt lat="44.26213" lon="2.9834">
        <ele>902</ele>
        <time>2022-07-12T13:29:32Z</time>
      </trkpt>
      <trkpt lat="44.26212" lon="2.98337">
        <ele>901</ele>
        <time>2022-07-12T13:29:34Z</time>
      </trkpt>
      <trkpt lat="44.26211" lon="2.98336">
        <ele>900</ele>
        <time>2022-07-12T13:29:35Z</time>
      </trkpt>
      <trkpt lat="44.26211" lon="2.98335">
        <ele>899.6</ele>
        <time>2022-07-12T13:29:36Z</time>
      </trkpt>
      <trkpt lat="44.26209" lon="2.98327">
        <ele>898.2</ele>
        <time>2022-07-12T13:29:39Z</time>
      </trkpt>
      <trkpt lat="44.26206" lon="2.9832">
        <ele>897.8</ele>
        <time>2022-07-12T13:29:41Z</time>
      </trkpt>
      <trkpt lat="44.26203" lon="2.98318">
        <ele>897.6</ele>
        <time>2022-07-12T13:29:42Z</time>
      </trkpt>
      <trkpt lat="44.26197" lon="2.98321">
        <ele>897</ele>
        <time>2022-07-12T13:29:44Z</time>
      </trkpt>
      <trkpt lat="44.2619" lon="2.9833">
        <ele>895.8</ele>
        <time>2022-07-12T13:29:46Z</time>
      </trkpt>
      <trkpt lat="44.26181" lon="2.98338">
        <ele>895</ele>
        <time>2022-07-12T13:29:48Z</time>
      </trkpt>
      <trkpt lat="44.26177" lon="2.98344">
        <ele>894.4</ele>
        <time>2022-07-12T13:29:49Z</time>
      </trkpt>
      <trkpt lat="44.26166" lon="2.98365">
        <ele>893.6</ele>
        <time>2022-07-12T13:29:52Z</time>
      </trkpt>
      <trkpt lat="44.26162" lon="2.98373">
        <ele>893</ele>
        <time>2022-07-12T13:29:53Z</time>
      </trkpt>
      <trkpt lat="44.26144" lon="2.98408">
        <ele>892</ele>
        <time>2022-07-12T13:29:57Z</time>
      </trkpt>
      <trkpt lat="44.2614" lon="2.98419">
        <ele>891.6</ele>
        <time>2022-07-12T13:29:58Z</time>
      </trkpt>
      <trkpt lat="44.26131" lon="2.98439">
        <ele>891</ele>
        <time>2022-07-12T13:30:00Z</time>
      </trkpt>
      <trkpt lat="44.26128" lon="2.98449">
        <ele>890.6</ele>
        <time>2022-07-12T13:30:01Z</time>
      </trkpt>
      <trkpt lat="44.26124" lon="2.98457">
        <ele>889.2</ele>
        <time>2022-07-12T13:30:02Z</time>
      </trkpt>
      <trkpt lat="44.26117" lon="2.98472">
        <ele>887.6</ele>
        <time>2022-07-12T13:30:04Z</time>
      </trkpt>
      <trkpt lat="44.26113" lon="2.98478">
        <ele>887</ele>
        <time>2022-07-12T13:30:05Z</time>
      </trkpt>
      <trkpt lat="44.26111" lon="2.98484">
        <ele>886.2</ele>
        <time>2022-07-12T13:30:06Z</time>
      </trkpt>
      <trkpt lat="44.26109" lon="2.98489">
        <ele>885.2</ele>
        <time>2022-07-12T13:30:07Z</time>
      </trkpt>
      <trkpt lat="44.26107" lon="2.98494">
        <ele>883.6</ele>
        <time>2022-07-12T13:30:09Z</time>
      </trkpt>
      <trkpt lat="44.26105" lon="2.98498">
        <ele>882.4</ele>
        <time>2022-07-12T13:30:11Z</time>
      </trkpt>
      <trkpt lat="44.26096" lon="2.98504">
        <ele>881.2</ele>
        <time>2022-07-12T13:30:16Z</time>
      </trkpt>
      <trkpt lat="44.26083" lon="2.98514">
        <ele>880.4</ele>
        <time>2022-07-12T13:30:20Z</time>
      </trkpt>
      <trkpt lat="44.26074" lon="2.9852">
        <ele>880.2</ele>
        <time>2022-07-12T13:30:22Z</time>
      </trkpt>
      <trkpt lat="44.26064" lon="2.98525">
        <ele>880</ele>
        <time>2022-07-12T13:30:24Z</time>
      </trkpt>
      <trkpt lat="44.26054" lon="2.98529">
        <ele>879.8</ele>
        <time>2022-07-12T13:30:26Z</time>
      </trkpt>
      <trkpt lat="44.26039" lon="2.98535">
        <ele>879.4</ele>
        <time>2022-07-12T13:30:29Z</time>
      </trkpt>
      <trkpt lat="44.26031" lon="2.98537">
        <ele>879.2</ele>
        <time>2022-07-12T13:30:31Z</time>
      </trkpt>
      <trkpt lat="44.26028" lon="2.98538">
        <ele>879</ele>
        <time>2022-07-12T13:30:32Z</time>
      </trkpt>
      <trkpt lat="44.26026" lon="2.9854">
        <ele>879</ele>
        <time>2022-07-12T13:30:33Z</time>
      </trkpt>
      <trkpt lat="44.2602" lon="2.98546">
        <ele>879</ele>
        <time>2022-07-12T13:30:36Z</time>
      </trkpt>
      <trkpt lat="44.26006" lon="2.98557">
        <ele>879</ele>
        <time>2022-07-12T13:30:42Z</time>
      </trkpt>
      <trkpt lat="44.25985" lon="2.98577">
        <ele>879</ele>
        <time>2022-07-12T13:30:49Z</time>
      </trkpt>
      <trkpt lat="44.25974" lon="2.98589">
        <ele>879.4</ele>
        <time>2022-07-12T13:30:55Z</time>
      </trkpt>
      <trkpt lat="44.25965" lon="2.98605">
        <ele>880</ele>
        <time>2022-07-12T13:31:02Z</time>
      </trkpt>
      <trkpt lat="44.25962" lon="2.98609">
        <ele>880.2</ele>
        <time>2022-07-12T13:31:04Z</time>
      </trkpt>
      <trkpt lat="44.25955" lon="2.98618">
        <ele>881.2</ele>
        <time>2022-07-12T13:31:09Z</time>
      </trkpt>
      <trkpt lat="44.25955" lon="2.98619">
        <ele>881.4</ele>
        <time>2022-07-12T13:31:10Z</time>
      </trkpt>
      <trkpt lat="44.25952" lon="2.98627">
        <ele>882</ele>
        <time>2022-07-12T13:31:14Z</time>
      </trkpt>
      <trkpt lat="44.25952" lon="2.98629">
        <ele>882.2</ele>
        <time>2022-07-12T13:31:15Z</time>
      </trkpt>
      <trkpt lat="44.2595" lon="2.98634">
        <ele>882.4</ele>
        <time>2022-07-12T13:31:19Z</time>
      </trkpt>
      <trkpt lat="44.25949" lon="2.98635">
        <ele>882.6</ele>
        <time>2022-07-12T13:31:20Z</time>
      </trkpt>
      <trkpt lat="44.25946" lon="2.98636">
        <ele>883</ele>
        <time>2022-07-12T13:31:22Z</time>
      </trkpt>
      <trkpt lat="44.25941" lon="2.98642">
        <ele>883.6</ele>
        <time>2022-07-12T13:31:26Z</time>
      </trkpt>
      <trkpt lat="44.25938" lon="2.98648">
        <ele>884</ele>
        <time>2022-07-12T13:31:29Z</time>
      </trkpt>
      <trkpt lat="44.25935" lon="2.98658">
        <ele>884.8</ele>
        <time>2022-07-12T13:31:35Z</time>
      </trkpt>
      <trkpt lat="44.25934" lon="2.9866">
        <ele>885.2</ele>
        <time>2022-07-12T13:31:37Z</time>
      </trkpt>
      <trkpt lat="44.25929" lon="2.98665">
        <ele>885.8</ele>
        <time>2022-07-12T13:31:42Z</time>
      </trkpt>
      <trkpt lat="44.25925" lon="2.98669">
        <ele>886.2</ele>
        <time>2022-07-12T13:31:46Z</time>
      </trkpt>
      <trkpt lat="44.25921" lon="2.98674">
        <ele>887</ele>
        <time>2022-07-12T13:31:51Z</time>
      </trkpt>
      <trkpt lat="44.25919" lon="2.98678">
        <ele>887.4</ele>
        <time>2022-07-12T13:31:55Z</time>
      </trkpt>
      <trkpt lat="44.25917" lon="2.9868">
        <ele>888</ele>
        <time>2022-07-12T13:31:58Z</time>
      </trkpt>
      <trkpt lat="44.25914" lon="2.98684">
        <ele>888.8</ele>
        <time>2022-07-12T13:32:03Z</time>
      </trkpt>
      <trkpt lat="44.25913" lon="2.98685">
        <ele>889</ele>
        <time>2022-07-12T13:32:04Z</time>
      </trkpt>
      <trkpt lat="44.25909" lon="2.98692">
        <ele>889.6</ele>
        <time>2022-07-12T13:32:10Z</time>
      </trkpt>
      <trkpt lat="44.25906" lon="2.98697">
        <ele>890.2</ele>
        <time>2022-07-12T13:32:13Z</time>
      </trkpt>
      <trkpt lat="44.25903" lon="2.98704">
        <ele>890.8</ele>
        <time>2022-07-12T13:32:17Z</time>
      </trkpt>
      <trkpt lat="44.25902" lon="2.98705">
        <ele>891</ele>
        <time>2022-07-12T13:32:18Z</time>
      </trkpt>
      <trkpt lat="44.25899" lon="2.98708">
        <ele>891.2</ele>
        <time>2022-07-12T13:32:20Z</time>
      </trkpt>
      <trkpt lat="44.25897" lon="2.98713">
        <ele>891.8</ele>
        <time>2022-07-12T13:32:25Z</time>
      </trkpt>
      <trkpt lat="44.25896" lon="2.98716">
        <ele>892</ele>
        <time>2022-07-12T13:32:27Z</time>
      </trkpt>
      <trkpt lat="44.25894" lon="2.98718">
        <ele>892.2</ele>
        <time>2022-07-12T13:32:29Z</time>
      </trkpt>
      <trkpt lat="44.25892" lon="2.98721">
        <ele>892.4</ele>
        <time>2022-07-12T13:32:31Z</time>
      </trkpt>
      <trkpt lat="44.25889" lon="2.98728">
        <ele>893.2</ele>
        <time>2022-07-12T13:32:36Z</time>
      </trkpt>
      <trkpt lat="44.25886" lon="2.9873">
        <ele>893.4</ele>
        <time>2022-07-12T13:32:38Z</time>
      </trkpt>
      <trkpt lat="44.25885" lon="2.98731">
        <ele>893.6</ele>
        <time>2022-07-12T13:32:39Z</time>
      </trkpt>
      <trkpt lat="44.25882" lon="2.98735">
        <ele>893.8</ele>
        <time>2022-07-12T13:32:42Z</time>
      </trkpt>
      <trkpt lat="44.2588" lon="2.9874">
        <ele>894.2</ele>
        <time>2022-07-12T13:32:45Z</time>
      </trkpt>
      <trkpt lat="44.25879" lon="2.98741">
        <ele>894.2</ele>
        <time>2022-07-12T13:32:46Z</time>
      </trkpt>
      <trkpt lat="44.25876" lon="2.98746">
        <ele>894.6</ele>
        <time>2022-07-12T13:32:50Z</time>
      </trkpt>
      <trkpt lat="44.25873" lon="2.98751">
        <ele>895.2</ele>
        <time>2022-07-12T13:32:54Z</time>
      </trkpt>
      <trkpt lat="44.25871" lon="2.98755">
        <ele>895.6</ele>
        <time>2022-07-12T13:32:57Z</time>
      </trkpt>
      <trkpt lat="44.25867" lon="2.98765">
        <ele>896.2</ele>
        <time>2022-07-12T13:33:03Z</time>
      </trkpt>
      <trkpt lat="44.25866" lon="2.98766">
        <ele>896.2</ele>
        <time>2022-07-12T13:33:04Z</time>
      </trkpt>
      <trkpt lat="44.25863" lon="2.98772">
        <ele>896.6</ele>
        <time>2022-07-12T13:33:09Z</time>
      </trkpt>
      <trkpt lat="44.25862" lon="2.98773">
        <ele>896.8</ele>
        <time>2022-07-12T13:33:10Z</time>
      </trkpt>
      <trkpt lat="44.25859" lon="2.98781">
        <ele>897.6</ele>
        <time>2022-07-12T13:33:16Z</time>
      </trkpt>
      <trkpt lat="44.25859" lon="2.98781">
        <ele>898</ele>
        <time>2022-07-12T13:33:17Z</time>
      </trkpt>
      <trkpt lat="44.25853" lon="2.98789">
        <ele>899</ele>
        <time>2022-07-12T13:33:23Z</time>
      </trkpt>
      <trkpt lat="44.25851" lon="2.98791">
        <ele>899.2</ele>
        <time>2022-07-12T13:33:24Z</time>
      </trkpt>
      <trkpt lat="44.25849" lon="2.98797">
        <ele>899.8</ele>
        <time>2022-07-12T13:33:28Z</time>
      </trkpt>
      <trkpt lat="44.25847" lon="2.988">
        <ele>899.8</ele>
        <time>2022-07-12T13:33:30Z</time>
      </trkpt>
      <trkpt lat="44.25846" lon="2.98802">
        <ele>900.2</ele>
        <time>2022-07-12T13:33:31Z</time>
      </trkpt>
      <trkpt lat="44.25845" lon="2.98805">
        <ele>900.4</ele>
        <time>2022-07-12T13:33:33Z</time>
      </trkpt>
      <trkpt lat="44.25842" lon="2.98812">
        <ele>901</ele>
        <time>2022-07-12T13:33:38Z</time>
      </trkpt>
      <trkpt lat="44.25838" lon="2.98819">
        <ele>901.2</ele>
        <time>2022-07-12T13:33:42Z</time>
      </trkpt>
      <trkpt lat="44.25837" lon="2.98822">
        <ele>901.4</ele>
        <time>2022-07-12T13:33:45Z</time>
      </trkpt>
      <trkpt lat="44.25832" lon="2.98834">
        <ele>902.4</ele>
        <time>2022-07-12T13:33:51Z</time>
      </trkpt>
      <trkpt lat="44.25831" lon="2.98837">
        <ele>902.4</ele>
        <time>2022-07-12T13:33:52Z</time>
      </trkpt>
      <trkpt lat="44.25829" lon="2.98851">
        <ele>903</ele>
        <time>2022-07-12T13:33:59Z</time>
      </trkpt>
      <trkpt lat="44.25829" lon="2.98852">
        <ele>903.2</ele>
        <time>2022-07-12T13:34:01Z</time>
      </trkpt>
      <trkpt lat="44.25828" lon="2.98853">
        <ele>903.4</ele>
        <time>2022-07-12T13:34:02Z</time>
      </trkpt>
      <trkpt lat="44.25827" lon="2.98858">
        <ele>903.8</ele>
        <time>2022-07-12T13:34:05Z</time>
      </trkpt>
      <trkpt lat="44.25825" lon="2.98863">
        <ele>904.4</ele>
        <time>2022-07-12T13:34:09Z</time>
      </trkpt>
      <trkpt lat="44.25824" lon="2.9887">
        <ele>904.8</ele>
        <time>2022-07-12T13:34:13Z</time>
      </trkpt>
      <trkpt lat="44.2582" lon="2.98876">
        <ele>905.4</ele>
        <time>2022-07-12T13:34:18Z</time>
      </trkpt>
      <trkpt lat="44.25819" lon="2.9888">
        <ele>905.8</ele>
        <time>2022-07-12T13:34:22Z</time>
      </trkpt>
      <trkpt lat="44.25818" lon="2.98885">
        <ele>906.2</ele>
        <time>2022-07-12T13:34:25Z</time>
      </trkpt>
      <trkpt lat="44.25817" lon="2.98888">
        <ele>906.6</ele>
        <time>2022-07-12T13:34:27Z</time>
      </trkpt>
      <trkpt lat="44.25815" lon="2.98895">
        <ele>907.2</ele>
        <time>2022-07-12T13:34:31Z</time>
      </trkpt>
      <trkpt lat="44.25814" lon="2.98904">
        <ele>907.6</ele>
        <time>2022-07-12T13:34:35Z</time>
      </trkpt>
      <trkpt lat="44.25813" lon="2.98908">
        <ele>908</ele>
        <time>2022-07-12T13:34:38Z</time>
      </trkpt>
      <trkpt lat="44.25812" lon="2.9891">
        <ele>908.4</ele>
        <time>2022-07-12T13:34:41Z</time>
      </trkpt>
      <trkpt lat="44.25811" lon="2.98913">
        <ele>908.6</ele>
        <time>2022-07-12T13:34:43Z</time>
      </trkpt>
      <trkpt lat="44.2581" lon="2.98915">
        <ele>908.8</ele>
        <time>2022-07-12T13:34:44Z</time>
      </trkpt>
      <trkpt lat="44.25808" lon="2.98926">
        <ele>909.6</ele>
        <time>2022-07-12T13:34:51Z</time>
      </trkpt>
      <trkpt lat="44.25807" lon="2.98927">
        <ele>909.8</ele>
        <time>2022-07-12T13:34:52Z</time>
      </trkpt>
      <trkpt lat="44.25807" lon="2.98931">
        <ele>910</ele>
        <time>2022-07-12T13:34:54Z</time>
      </trkpt>
      <trkpt lat="44.25805" lon="2.98934">
        <ele>910.6</ele>
        <time>2022-07-12T13:34:58Z</time>
      </trkpt>
      <trkpt lat="44.25804" lon="2.98941">
        <ele>912.2</ele>
        <time>2022-07-12T13:35:10Z</time>
      </trkpt>
      <trkpt lat="44.25803" lon="2.98951">
        <ele>912.8</ele>
        <time>2022-07-12T13:35:15Z</time>
      </trkpt>
      <trkpt lat="44.25802" lon="2.98952">
        <ele>913.2</ele>
        <time>2022-07-12T13:35:18Z</time>
      </trkpt>
      <trkpt lat="44.25802" lon="2.98952">
        <ele>913.2</ele>
        <time>2022-07-12T13:35:19Z</time>
      </trkpt>
      <trkpt lat="44.25802" lon="2.98953">
        <ele>913.8</ele>
        <time>2022-07-12T13:35:22Z</time>
      </trkpt>
      <trkpt lat="44.25802" lon="2.98954">
        <ele>914</ele>
        <time>2022-07-12T13:35:24Z</time>
      </trkpt>
      <trkpt lat="44.258" lon="2.98972">
        <ele>916.4</ele>
        <time>2022-07-12T13:35:48Z</time>
      </trkpt>
      <trkpt lat="44.258" lon="2.98974">
        <ele>917</ele>
        <time>2022-07-12T13:35:53Z</time>
      </trkpt>
      <trkpt lat="44.25799" lon="2.9898">
        <ele>917.4</ele>
        <time>2022-07-12T13:35:58Z</time>
      </trkpt>
      <trkpt lat="44.25799" lon="2.9898">
        <ele>917.6</ele>
        <time>2022-07-12T13:36:00Z</time>
      </trkpt>
      <trkpt lat="44.25798" lon="2.99007">
        <ele>920.2</ele>
        <time>2022-07-12T13:36:29Z</time>
      </trkpt>
      <trkpt lat="44.25795" lon="2.99017">
        <ele>921.2</ele>
        <time>2022-07-12T13:36:37Z</time>
      </trkpt>
      <trkpt lat="44.25795" lon="2.99017">
        <ele>921.2</ele>
        <time>2022-07-12T13:36:38Z</time>
      </trkpt>
      <trkpt lat="44.25793" lon="2.99025">
        <ele>922.2</ele>
        <time>2022-07-12T13:36:47Z</time>
      </trkpt>
      <trkpt lat="44.25792" lon="2.99029">
        <ele>922.4</ele>
        <time>2022-07-12T13:36:50Z</time>
      </trkpt>
      <trkpt lat="44.25787" lon="2.99041">
        <ele>922.8</ele>
        <time>2022-07-12T13:36:57Z</time>
      </trkpt>
      <trkpt lat="44.25784" lon="2.99052">
        <ele>923.6</ele>
        <time>2022-07-12T13:37:06Z</time>
      </trkpt>
      <trkpt lat="44.25782" lon="2.99057">
        <ele>924.6</ele>
        <time>2022-07-12T13:37:13Z</time>
      </trkpt>
      <trkpt lat="44.25782" lon="2.99058">
        <ele>925.4</ele>
        <time>2022-07-12T13:37:17Z</time>
      </trkpt>
      <trkpt lat="44.25781" lon="2.99061">
        <ele>925.8</ele>
        <time>2022-07-12T13:37:19Z</time>
      </trkpt>
      <trkpt lat="44.25781" lon="2.99062">
        <ele>926.6</ele>
        <time>2022-07-12T13:37:26Z</time>
      </trkpt>
      <trkpt lat="44.25778" lon="2.99067">
        <ele>927</ele>
        <time>2022-07-12T13:37:29Z</time>
      </trkpt>
      <trkpt lat="44.25775" lon="2.99075">
        <ele>927.2</ele>
        <time>2022-07-12T13:37:33Z</time>
      </trkpt>
      <trkpt lat="44.25775" lon="2.99075">
        <ele>927.4</ele>
        <time>2022-07-12T13:37:37Z</time>
      </trkpt>
      <trkpt lat="44.25773" lon="2.99081">
        <ele>928.2</ele>
        <time>2022-07-12T13:38:43Z</time>
      </trkpt>
      <trkpt lat="44.25772" lon="2.99086">
        <ele>928.2</ele>
        <time>2022-07-12T13:38:46Z</time>
      </trkpt>
      <trkpt lat="44.25767" lon="2.99097">
        <ele>928.2</ele>
        <time>2022-07-12T13:38:53Z</time>
      </trkpt>
      <trkpt lat="44.25763" lon="2.99109">
        <ele>928.4</ele>
        <time>2022-07-12T13:39:01Z</time>
      </trkpt>
      <trkpt lat="44.25761" lon="2.99115">
        <ele>929</ele>
        <time>2022-07-12T13:39:05Z</time>
      </trkpt>
      <trkpt lat="44.25758" lon="2.99121">
        <ele>929.2</ele>
        <time>2022-07-12T13:39:09Z</time>
      </trkpt>
      <trkpt lat="44.25755" lon="2.99131">
        <ele>929.6</ele>
        <time>2022-07-12T13:39:17Z</time>
      </trkpt>
      <trkpt lat="44.25753" lon="2.99134">
        <ele>930</ele>
        <time>2022-07-12T13:39:21Z</time>
      </trkpt>
      <trkpt lat="44.25752" lon="2.99138">
        <ele>930.2</ele>
        <time>2022-07-12T13:39:24Z</time>
      </trkpt>
      <trkpt lat="44.25752" lon="2.99138">
        <ele>930.4</ele>
        <time>2022-07-12T13:39:25Z</time>
      </trkpt>
      <trkpt lat="44.25746" lon="2.99145">
        <ele>930.8</ele>
        <time>2022-07-12T13:39:33Z</time>
      </trkpt>
      <trkpt lat="44.25742" lon="2.99148">
        <ele>930.6</ele>
        <time>2022-07-12T13:39:41Z</time>
      </trkpt>
      <trkpt lat="44.25739" lon="2.99154">
        <ele>931</ele>
        <time>2022-07-12T13:40:30Z</time>
      </trkpt>
      <trkpt lat="44.25739" lon="2.99154">
        <ele>931</ele>
        <time>2022-07-12T13:40:32Z</time>
      </trkpt>
      <trkpt lat="44.25737" lon="2.99154">
        <ele>931.2</ele>
        <time>2022-07-12T13:40:37Z</time>
      </trkpt>
      <trkpt lat="44.25731" lon="2.9916">
        <ele>931.4</ele>
        <time>2022-07-12T13:40:44Z</time>
      </trkpt>
      <trkpt lat="44.25721" lon="2.99169">
        <ele>931.2</ele>
        <time>2022-07-12T13:40:51Z</time>
      </trkpt>
      <trkpt lat="44.257" lon="2.99183">
        <ele>931.2</ele>
        <time>2022-07-12T13:40:59Z</time>
      </trkpt>
      <trkpt lat="44.2569" lon="2.99189">
        <ele>931</ele>
        <time>2022-07-12T13:41:02Z</time>
      </trkpt>
      <trkpt lat="44.25672" lon="2.99197">
        <ele>930.8</ele>
        <time>2022-07-12T13:41:06Z</time>
      </trkpt>
      <trkpt lat="44.25667" lon="2.992">
        <ele>930.6</ele>
        <time>2022-07-12T13:41:07Z</time>
      </trkpt>
      <trkpt lat="44.2564" lon="2.99215">
        <ele>929.6</ele>
        <time>2022-07-12T13:41:12Z</time>
      </trkpt>
      <trkpt lat="44.25607" lon="2.99231">
        <ele>928.4</ele>
        <time>2022-07-12T13:41:17Z</time>
      </trkpt>
      <trkpt lat="44.25601" lon="2.99234">
        <ele>928.2</ele>
        <time>2022-07-12T13:41:18Z</time>
      </trkpt>
      <trkpt lat="44.25584" lon="2.99244">
        <ele>926.8</ele>
        <time>2022-07-12T13:41:21Z</time>
      </trkpt>
      <trkpt lat="44.25572" lon="2.9925">
        <ele>925.6</ele>
        <time>2022-07-12T13:41:23Z</time>
      </trkpt>
      <trkpt lat="44.25567" lon="2.99253">
        <ele>924.8</ele>
        <time>2022-07-12T13:41:24Z</time>
      </trkpt>
      <trkpt lat="44.25562" lon="2.99254">
        <ele>924.6</ele>
        <time>2022-07-12T13:41:25Z</time>
      </trkpt>
      <trkpt lat="44.25557" lon="2.99254">
        <ele>924.2</ele>
        <time>2022-07-12T13:41:26Z</time>
      </trkpt>
      <trkpt lat="44.25545" lon="2.99249">
        <ele>923.6</ele>
        <time>2022-07-12T13:41:28Z</time>
      </trkpt>
      <trkpt lat="44.2554" lon="2.99246">
        <ele>923.4</ele>
        <time>2022-07-12T13:41:29Z</time>
      </trkpt>
      <trkpt lat="44.25535" lon="2.99244">
        <ele>923</ele>
        <time>2022-07-12T13:41:30Z</time>
      </trkpt>
      <trkpt lat="44.25524" lon="2.99244">
        <ele>922.6</ele>
        <time>2022-07-12T13:41:32Z</time>
      </trkpt>
      <trkpt lat="44.2551" lon="2.99245">
        <ele>921.4</ele>
        <time>2022-07-12T13:41:35Z</time>
      </trkpt>
      <trkpt lat="44.25507" lon="2.99244">
        <ele>921</ele>
        <time>2022-07-12T13:41:36Z</time>
      </trkpt>
      <trkpt lat="44.255" lon="2.99241">
        <ele>920.2</ele>
        <time>2022-07-12T13:41:38Z</time>
      </trkpt>
      <trkpt lat="44.25495" lon="2.9924">
        <ele>918.8</ele>
        <time>2022-07-12T13:41:40Z</time>
      </trkpt>
      <trkpt lat="44.25488" lon="2.99241">
        <ele>917.6</ele>
        <time>2022-07-12T13:41:42Z</time>
      </trkpt>
      <trkpt lat="44.25482" lon="2.99245">
        <ele>917</ele>
        <time>2022-07-12T13:41:45Z</time>
      </trkpt>
      <trkpt lat="44.2548" lon="2.99247">
        <ele>916.4</ele>
        <time>2022-07-12T13:41:46Z</time>
      </trkpt>
      <trkpt lat="44.25474" lon="2.99255">
        <ele>915.2</ele>
        <time>2022-07-12T13:41:49Z</time>
      </trkpt>
      <trkpt lat="44.25468" lon="2.99258">
        <ele>914.8</ele>
        <time>2022-07-12T13:41:51Z</time>
      </trkpt>
      <trkpt lat="44.25461" lon="2.99258">
        <ele>913.8</ele>
        <time>2022-07-12T13:41:53Z</time>
      </trkpt>
      <trkpt lat="44.25455" lon="2.99256">
        <ele>913.2</ele>
        <time>2022-07-12T13:41:56Z</time>
      </trkpt>
      <trkpt lat="44.2545" lon="2.99255">
        <ele>912.8</ele>
        <time>2022-07-12T13:41:58Z</time>
      </trkpt>
      <trkpt lat="44.25439" lon="2.99254">
        <ele>912.4</ele>
        <time>2022-07-12T13:42:01Z</time>
      </trkpt>
      <trkpt lat="44.25423" lon="2.99257">
        <ele>911.8</ele>
        <time>2022-07-12T13:42:06Z</time>
      </trkpt>
      <trkpt lat="44.2542" lon="2.99258">
        <ele>911.6</ele>
        <time>2022-07-12T13:42:07Z</time>
      </trkpt>
      <trkpt lat="44.25402" lon="2.99262">
        <ele>911.2</ele>
        <time>2022-07-12T13:42:12Z</time>
      </trkpt>
      <trkpt lat="44.25393" lon="2.99266">
        <ele>910.6</ele>
        <time>2022-07-12T13:42:15Z</time>
      </trkpt>
      <trkpt lat="44.25375" lon="2.99276">
        <ele>910</ele>
        <time>2022-07-12T13:42:20Z</time>
      </trkpt>
      <trkpt lat="44.25354" lon="2.99298">
        <ele>910.2</ele>
        <time>2022-07-12T13:42:27Z</time>
      </trkpt>
      <trkpt lat="44.25335" lon="2.99313">
        <ele>910.4</ele>
        <time>2022-07-12T13:42:33Z</time>
      </trkpt>
      <trkpt lat="44.25315" lon="2.9934">
        <ele>911.2</ele>
        <time>2022-07-12T13:42:41Z</time>
      </trkpt>
      <trkpt lat="44.25297" lon="2.99366">
        <ele>911.4</ele>
        <time>2022-07-12T13:42:50Z</time>
      </trkpt>
      <trkpt lat="44.25281" lon="2.9938">
        <ele>911.8</ele>
        <time>2022-07-12T13:42:57Z</time>
      </trkpt>
      <trkpt lat="44.25279" lon="2.99381">
        <ele>911.8</ele>
        <time>2022-07-12T13:42:58Z</time>
      </trkpt>
      <trkpt lat="44.25265" lon="2.99389">
        <ele>912.6</ele>
        <time>2022-07-12T13:43:05Z</time>
      </trkpt>
      <trkpt lat="44.25263" lon="2.9939">
        <ele>913</ele>
        <time>2022-07-12T13:43:06Z</time>
      </trkpt>
      <trkpt lat="44.25247" lon="2.99401">
        <ele>913.4</ele>
        <time>2022-07-12T13:43:13Z</time>
      </trkpt>
      <trkpt lat="44.25224" lon="2.99413">
        <ele>913.2</ele>
        <time>2022-07-12T13:43:19Z</time>
      </trkpt>
      <trkpt lat="44.25206" lon="2.99426">
        <ele>912.8</ele>
        <time>2022-07-12T13:43:23Z</time>
      </trkpt>
      <trkpt lat="44.25202" lon="2.99428">
        <ele>912.6</ele>
        <time>2022-07-12T13:43:24Z</time>
      </trkpt>
      <trkpt lat="44.25196" lon="2.99429">
        <ele>912.6</ele>
        <time>2022-07-12T13:43:25Z</time>
      </trkpt>
      <trkpt lat="44.25187" lon="2.99428">
        <ele>912.2</ele>
        <time>2022-07-12T13:43:27Z</time>
      </trkpt>
      <trkpt lat="44.25181" lon="2.99426">
        <ele>912</ele>
        <time>2022-07-12T13:43:28Z</time>
      </trkpt>
      <trkpt lat="44.25175" lon="2.99422">
        <ele>911.4</ele>
        <time>2022-07-12T13:43:29Z</time>
      </trkpt>
      <trkpt lat="44.25165" lon="2.99417">
        <ele>910.2</ele>
        <time>2022-07-12T13:43:31Z</time>
      </trkpt>
      <trkpt lat="44.25159" lon="2.99417">
        <ele>910</ele>
        <time>2022-07-12T13:43:32Z</time>
      </trkpt>
      <trkpt lat="44.25154" lon="2.99419">
        <ele>909</ele>
        <time>2022-07-12T13:43:33Z</time>
      </trkpt>
      <trkpt lat="44.25138" lon="2.99427">
        <ele>907.6</ele>
        <time>2022-07-12T13:43:36Z</time>
      </trkpt>
      <trkpt lat="44.25123" lon="2.99436">
        <ele>906.4</ele>
        <time>2022-07-12T13:43:39Z</time>
      </trkpt>
      <trkpt lat="44.25109" lon="2.99442">
        <ele>906</ele>
        <time>2022-07-12T13:43:42Z</time>
      </trkpt>
      <trkpt lat="44.25091" lon="2.99447">
        <ele>905.8</ele>
        <time>2022-07-12T13:43:47Z</time>
      </trkpt>
      <trkpt lat="44.25084" lon="2.99447">
        <ele>905.4</ele>
        <time>2022-07-12T13:43:49Z</time>
      </trkpt>
      <trkpt lat="44.25077" lon="2.99441">
        <ele>905.2</ele>
        <time>2022-07-12T13:43:52Z</time>
      </trkpt>
      <trkpt lat="44.25064" lon="2.99428">
        <ele>905</ele>
        <time>2022-07-12T13:43:57Z</time>
      </trkpt>
      <trkpt lat="44.2505" lon="2.99416">
        <ele>905</ele>
        <time>2022-07-12T13:44:03Z</time>
      </trkpt>
      <trkpt lat="44.25039" lon="2.99406">
        <ele>905</ele>
        <time>2022-07-12T13:44:08Z</time>
      </trkpt>
      <trkpt lat="44.25031" lon="2.994">
        <ele>905</ele>
        <time>2022-07-12T13:44:11Z</time>
      </trkpt>
      <trkpt lat="44.25025" lon="2.99395">
        <ele>905</ele>
        <time>2022-07-12T13:44:13Z</time>
      </trkpt>
      <trkpt lat="44.25008" lon="2.99381">
        <ele>905.2</ele>
        <time>2022-07-12T13:44:20Z</time>
      </trkpt>
      <trkpt lat="44.24987" lon="2.99373">
        <ele>906.2</ele>
        <time>2022-07-12T13:44:28Z</time>
      </trkpt>
      <trkpt lat="44.24976" lon="2.99371">
        <ele>906.6</ele>
        <time>2022-07-12T13:44:32Z</time>
      </trkpt>
      <trkpt lat="44.24969" lon="2.9937">
        <ele>906.6</ele>
        <time>2022-07-12T13:44:34Z</time>
      </trkpt>
      <trkpt lat="44.24943" lon="2.99356">
        <ele>907.2</ele>
        <time>2022-07-12T13:44:42Z</time>
      </trkpt>
      <trkpt lat="44.24928" lon="2.99349">
        <ele>907.2</ele>
        <time>2022-07-12T13:44:47Z</time>
      </trkpt>
      <trkpt lat="44.24922" lon="2.99345">
        <ele>907.6</ele>
        <time>2022-07-12T13:44:50Z</time>
      </trkpt>
      <trkpt lat="44.24904" lon="2.99335">
        <ele>907.6</ele>
        <time>2022-07-12T13:44:55Z</time>
      </trkpt>
      <trkpt lat="44.24888" lon="2.99328">
        <ele>907.6</ele>
        <time>2022-07-12T13:45:00Z</time>
      </trkpt>
      <trkpt lat="44.24871" lon="2.99319">
        <ele>907.8</ele>
        <time>2022-07-12T13:45:05Z</time>
      </trkpt>
      <trkpt lat="44.24864" lon="2.99317">
        <ele>907.8</ele>
        <time>2022-07-12T13:45:07Z</time>
      </trkpt>
      <trkpt lat="44.24847" lon="2.99309">
        <ele>908</ele>
        <time>2022-07-12T13:45:12Z</time>
      </trkpt>
      <trkpt lat="44.24832" lon="2.99305">
        <ele>908.6</ele>
        <time>2022-07-12T13:45:17Z</time>
      </trkpt>
      <trkpt lat="44.24828" lon="2.99304">
        <ele>908.6</ele>
        <time>2022-07-12T13:45:18Z</time>
      </trkpt>
      <trkpt lat="44.24817" lon="2.99299">
        <ele>909.2</ele>
        <time>2022-07-12T13:45:22Z</time>
      </trkpt>
      <trkpt lat="44.24809" lon="2.99298">
        <ele>909.6</ele>
        <time>2022-07-12T13:45:25Z</time>
      </trkpt>
      <trkpt lat="44.24798" lon="2.99299">
        <ele>910.2</ele>
        <time>2022-07-12T13:45:28Z</time>
      </trkpt>
      <trkpt lat="44.24775" lon="2.99301">
        <ele>910.8</ele>
        <time>2022-07-12T13:45:35Z</time>
      </trkpt>
      <trkpt lat="44.24771" lon="2.99302">
        <ele>911</ele>
        <time>2022-07-12T13:45:36Z</time>
      </trkpt>
      <trkpt lat="44.24739" lon="2.99308">
        <ele>911</ele>
        <time>2022-07-12T13:45:44Z</time>
      </trkpt>
      <trkpt lat="44.24717" lon="2.99321">
        <ele>910.4</ele>
        <time>2022-07-12T13:45:50Z</time>
      </trkpt>
      <trkpt lat="44.24705" lon="2.99325">
        <ele>910</ele>
        <time>2022-07-12T13:45:53Z</time>
      </trkpt>
      <trkpt lat="44.24698" lon="2.99328">
        <ele>909.8</ele>
        <time>2022-07-12T13:45:55Z</time>
      </trkpt>
      <trkpt lat="44.24676" lon="2.99335">
        <ele>908.8</ele>
        <time>2022-07-12T13:46:00Z</time>
      </trkpt>
      <trkpt lat="44.2467" lon="2.99336">
        <ele>908.6</ele>
        <time>2022-07-12T13:46:01Z</time>
      </trkpt>
      <trkpt lat="44.2466" lon="2.99338">
        <ele>908.2</ele>
        <time>2022-07-12T13:46:03Z</time>
      </trkpt>
      <trkpt lat="44.24649" lon="2.99339">
        <ele>907.6</ele>
        <time>2022-07-12T13:46:05Z</time>
      </trkpt>
      <trkpt lat="44.24644" lon="2.99338">
        <ele>907.4</ele>
        <time>2022-07-12T13:46:06Z</time>
      </trkpt>
      <trkpt lat="44.24639" lon="2.99337">
        <ele>906.6</ele>
        <time>2022-07-12T13:46:07Z</time>
      </trkpt>
      <trkpt lat="44.24635" lon="2.99335">
        <ele>906.2</ele>
        <time>2022-07-12T13:46:08Z</time>
      </trkpt>
      <trkpt lat="44.2463" lon="2.99333">
        <ele>905.6</ele>
        <time>2022-07-12T13:46:09Z</time>
      </trkpt>
      <trkpt lat="44.24626" lon="2.99332">
        <ele>904.8</ele>
        <time>2022-07-12T13:46:10Z</time>
      </trkpt>
      <trkpt lat="44.24621" lon="2.99331">
        <ele>904.2</ele>
        <time>2022-07-12T13:46:11Z</time>
      </trkpt>
      <trkpt lat="44.24616" lon="2.99329">
        <ele>903.4</ele>
        <time>2022-07-12T13:46:12Z</time>
      </trkpt>
      <trkpt lat="44.24607" lon="2.99327">
        <ele>902.4</ele>
        <time>2022-07-12T13:46:14Z</time>
      </trkpt>
      <trkpt lat="44.24598" lon="2.99325">
        <ele>901.6</ele>
        <time>2022-07-12T13:46:16Z</time>
      </trkpt>
      <trkpt lat="44.24593" lon="2.99324">
        <ele>901.2</ele>
        <time>2022-07-12T13:46:17Z</time>
      </trkpt>
      <trkpt lat="44.24589" lon="2.99324">
        <ele>901</ele>
        <time>2022-07-12T13:46:18Z</time>
      </trkpt>
      <trkpt lat="44.24581" lon="2.99327">
        <ele>900.6</ele>
        <time>2022-07-12T13:46:20Z</time>
      </trkpt>
      <trkpt lat="44.24575" lon="2.99335">
        <ele>899.8</ele>
        <time>2022-07-12T13:46:22Z</time>
      </trkpt>
      <trkpt lat="44.24571" lon="2.99348">
        <ele>898.6</ele>
        <time>2022-07-12T13:46:24Z</time>
      </trkpt>
      <trkpt lat="44.24565" lon="2.99361">
        <ele>897.6</ele>
        <time>2022-07-12T13:46:26Z</time>
      </trkpt>
      <trkpt lat="44.24562" lon="2.99367">
        <ele>897</ele>
        <time>2022-07-12T13:46:27Z</time>
      </trkpt>
      <trkpt lat="44.24558" lon="2.99372">
        <ele>895.8</ele>
        <time>2022-07-12T13:46:28Z</time>
      </trkpt>
      <trkpt lat="44.2455" lon="2.99378">
        <ele>894.8</ele>
        <time>2022-07-12T13:46:30Z</time>
      </trkpt>
      <trkpt lat="44.24546" lon="2.99379">
        <ele>894.6</ele>
        <time>2022-07-12T13:46:31Z</time>
      </trkpt>
      <trkpt lat="44.24542" lon="2.99379">
        <ele>894</ele>
        <time>2022-07-12T13:46:32Z</time>
      </trkpt>
      <trkpt lat="44.24539" lon="2.99378">
        <ele>893.4</ele>
        <time>2022-07-12T13:46:33Z</time>
      </trkpt>
      <trkpt lat="44.24531" lon="2.99375">
        <ele>892</ele>
        <time>2022-07-12T13:46:35Z</time>
      </trkpt>
      <trkpt lat="44.24528" lon="2.99373">
        <ele>891.6</ele>
        <time>2022-07-12T13:46:36Z</time>
      </trkpt>
      <trkpt lat="44.24524" lon="2.99371">
        <ele>890.8</ele>
        <time>2022-07-12T13:46:37Z</time>
      </trkpt>
      <trkpt lat="44.24519" lon="2.99368">
        <ele>889.8</ele>
        <time>2022-07-12T13:46:39Z</time>
      </trkpt>
      <trkpt lat="44.24509" lon="2.99368">
        <ele>888.4</ele>
        <time>2022-07-12T13:46:42Z</time>
      </trkpt>
      <trkpt lat="44.24502" lon="2.9937">
        <ele>887.2</ele>
        <time>2022-07-12T13:46:44Z</time>
      </trkpt>
      <trkpt lat="44.24494" lon="2.99375">
        <ele>886</ele>
        <time>2022-07-12T13:46:46Z</time>
      </trkpt>
      <trkpt lat="44.24481" lon="2.99387">
        <ele>885</ele>
        <time>2022-07-12T13:46:49Z</time>
      </trkpt>
      <trkpt lat="44.24477" lon="2.99392">
        <ele>884.4</ele>
        <time>2022-07-12T13:46:50Z</time>
      </trkpt>
      <trkpt lat="44.2447" lon="2.99402">
        <ele>883.2</ele>
        <time>2022-07-12T13:46:52Z</time>
      </trkpt>
      <trkpt lat="44.24467" lon="2.99407">
        <ele>882.2</ele>
        <time>2022-07-12T13:46:53Z</time>
      </trkpt>
      <trkpt lat="44.24464" lon="2.99411">
        <ele>881.8</ele>
        <time>2022-07-12T13:46:54Z</time>
      </trkpt>
      <trkpt lat="44.24456" lon="2.99423">
        <ele>880.4</ele>
        <time>2022-07-12T13:46:57Z</time>
      </trkpt>
      <trkpt lat="44.2445" lon="2.9943">
        <ele>879.2</ele>
        <time>2022-07-12T13:46:59Z</time>
      </trkpt>
      <trkpt lat="44.24442" lon="2.9944">
        <ele>877.8</ele>
        <time>2022-07-12T13:47:02Z</time>
      </trkpt>
      <trkpt lat="44.24436" lon="2.99445">
        <ele>876.4</ele>
        <time>2022-07-12T13:47:04Z</time>
      </trkpt>
      <trkpt lat="44.24433" lon="2.99447">
        <ele>875.8</ele>
        <time>2022-07-12T13:47:05Z</time>
      </trkpt>
      <trkpt lat="44.24428" lon="2.99452">
        <ele>875</ele>
        <time>2022-07-12T13:47:07Z</time>
      </trkpt>
      <trkpt lat="44.24417" lon="2.99463">
        <ele>874</ele>
        <time>2022-07-12T13:47:10Z</time>
      </trkpt>
      <trkpt lat="44.24413" lon="2.99467">
        <ele>873.4</ele>
        <time>2022-07-12T13:47:11Z</time>
      </trkpt>
      <trkpt lat="44.24405" lon="2.99476">
        <ele>872.4</ele>
        <time>2022-07-12T13:47:13Z</time>
      </trkpt>
      <trkpt lat="44.24395" lon="2.99484">
        <ele>871.2</ele>
        <time>2022-07-12T13:47:15Z</time>
      </trkpt>
      <trkpt lat="44.2439" lon="2.99488">
        <ele>871</ele>
        <time>2022-07-12T13:47:16Z</time>
      </trkpt>
      <trkpt lat="44.24381" lon="2.99495">
        <ele>870</ele>
        <time>2022-07-12T13:47:18Z</time>
      </trkpt>
      <trkpt lat="44.24361" lon="2.99511">
        <ele>868.6</ele>
        <time>2022-07-12T13:47:22Z</time>
      </trkpt>
      <trkpt lat="44.2435" lon="2.9952">
        <ele>867.8</ele>
        <time>2022-07-12T13:47:24Z</time>
      </trkpt>
      <trkpt lat="44.24344" lon="2.99524">
        <ele>867.4</ele>
        <time>2022-07-12T13:47:25Z</time>
      </trkpt>
      <trkpt lat="44.24318" lon="2.99539">
        <ele>865.6</ele>
        <time>2022-07-12T13:47:29Z</time>
      </trkpt>
      <trkpt lat="44.24311" lon="2.99544">
        <ele>865.2</ele>
        <time>2022-07-12T13:47:30Z</time>
      </trkpt>
      <trkpt lat="44.24305" lon="2.99548">
        <ele>864.8</ele>
        <time>2022-07-12T13:47:31Z</time>
      </trkpt>
      <trkpt lat="44.24298" lon="2.99551">
        <ele>864.4</ele>
        <time>2022-07-12T13:47:32Z</time>
      </trkpt>
      <trkpt lat="44.24291" lon="2.99554">
        <ele>864</ele>
        <time>2022-07-12T13:47:33Z</time>
      </trkpt>
      <trkpt lat="44.24284" lon="2.99557">
        <ele>863.6</ele>
        <time>2022-07-12T13:47:34Z</time>
      </trkpt>
      <trkpt lat="44.24277" lon="2.99558">
        <ele>863</ele>
        <time>2022-07-12T13:47:35Z</time>
      </trkpt>
      <trkpt lat="44.24262" lon="2.99561">
        <ele>862</ele>
        <time>2022-07-12T13:47:37Z</time>
      </trkpt>
      <trkpt lat="44.24248" lon="2.99564">
        <ele>861.4</ele>
        <time>2022-07-12T13:47:39Z</time>
      </trkpt>
      <trkpt lat="44.24242" lon="2.99567">
        <ele>861</ele>
        <time>2022-07-12T13:47:40Z</time>
      </trkpt>
      <trkpt lat="44.24235" lon="2.99568">
        <ele>860.8</ele>
        <time>2022-07-12T13:47:41Z</time>
      </trkpt>
      <trkpt lat="44.24212" lon="2.99574">
        <ele>860.4</ele>
        <time>2022-07-12T13:47:45Z</time>
      </trkpt>
      <trkpt lat="44.24186" lon="2.99578">
        <ele>860.2</ele>
        <time>2022-07-12T13:47:50Z</time>
      </trkpt>
      <trkpt lat="44.24176" lon="2.9958">
        <ele>860</ele>
        <time>2022-07-12T13:47:52Z</time>
      </trkpt>
      <trkpt lat="44.24164" lon="2.99582">
        <ele>860</ele>
        <time>2022-07-12T13:47:55Z</time>
      </trkpt>
      <trkpt lat="44.24145" lon="2.99599">
        <ele>859.8</ele>
        <time>2022-07-12T13:48:01Z</time>
      </trkpt>
      <trkpt lat="44.24139" lon="2.99608">
        <ele>859.8</ele>
        <time>2022-07-12T13:48:03Z</time>
      </trkpt>
      <trkpt lat="44.24131" lon="2.99624">
        <ele>859.8</ele>
        <time>2022-07-12T13:48:06Z</time>
      </trkpt>
      <trkpt lat="44.24124" lon="2.99638">
        <ele>859.8</ele>
        <time>2022-07-12T13:48:09Z</time>
      </trkpt>
      <trkpt lat="44.2412" lon="2.99649">
        <ele>860.2</ele>
        <time>2022-07-12T13:48:11Z</time>
      </trkpt>
      <trkpt lat="44.24117" lon="2.99654">
        <ele>860.2</ele>
        <time>2022-07-12T13:48:12Z</time>
      </trkpt>
      <trkpt lat="44.24103" lon="2.99688">
        <ele>860</ele>
        <time>2022-07-12T13:48:19Z</time>
      </trkpt>
      <trkpt lat="44.24101" lon="2.99694">
        <ele>860</ele>
        <time>2022-07-12T13:48:20Z</time>
      </trkpt>
      <trkpt lat="44.24096" lon="2.99707">
        <ele>859.8</ele>
        <time>2022-07-12T13:48:22Z</time>
      </trkpt>
      <trkpt lat="44.24091" lon="2.99718">
        <ele>859.6</ele>
        <time>2022-07-12T13:48:24Z</time>
      </trkpt>
      <trkpt lat="44.24088" lon="2.99723">
        <ele>859.6</ele>
        <time>2022-07-12T13:48:25Z</time>
      </trkpt>
      <trkpt lat="44.24078" lon="2.99738">
        <ele>858.8</ele>
        <time>2022-07-12T13:48:28Z</time>
      </trkpt>
      <trkpt lat="44.24075" lon="2.99743">
        <ele>858.8</ele>
        <time>2022-07-12T13:48:29Z</time>
      </trkpt>
      <trkpt lat="44.24053" lon="2.9977">
        <ele>858</ele>
        <time>2022-07-12T13:48:36Z</time>
      </trkpt>
      <trkpt lat="44.24045" lon="2.99779">
        <ele>857.6</ele>
        <time>2022-07-12T13:48:38Z</time>
      </trkpt>
      <trkpt lat="44.24027" lon="2.99799">
        <ele>857</ele>
        <time>2022-07-12T13:48:43Z</time>
      </trkpt>
      <trkpt lat="44.24023" lon="2.99803">
        <ele>856.8</ele>
        <time>2022-07-12T13:48:44Z</time>
      </trkpt>
      <trkpt lat="44.24015" lon="2.9981">
        <ele>856.6</ele>
        <time>2022-07-12T13:48:46Z</time>
      </trkpt>
      <trkpt lat="44.24007" lon="2.99815">
        <ele>856.2</ele>
        <time>2022-07-12T13:48:48Z</time>
      </trkpt>
      <trkpt lat="44.23999" lon="2.99821">
        <ele>856</ele>
        <time>2022-07-12T13:48:50Z</time>
      </trkpt>
      <trkpt lat="44.23984" lon="2.99832">
        <ele>855.6</ele>
        <time>2022-07-12T13:48:53Z</time>
      </trkpt>
      <trkpt lat="44.2398" lon="2.99836">
        <ele>855.6</ele>
        <time>2022-07-12T13:48:54Z</time>
      </trkpt>
      <trkpt lat="44.23977" lon="2.99841">
        <ele>855.4</ele>
        <time>2022-07-12T13:48:55Z</time>
      </trkpt>
      <trkpt lat="44.23963" lon="2.99857">
        <ele>855.2</ele>
        <time>2022-07-12T13:48:58Z</time>
      </trkpt>
      <trkpt lat="44.23948" lon="2.99874">
        <ele>855.2</ele>
        <time>2022-07-12T13:49:02Z</time>
      </trkpt>
      <trkpt lat="44.23946" lon="2.99878">
        <ele>855.2</ele>
        <time>2022-07-12T13:49:03Z</time>
      </trkpt>
      <trkpt lat="44.23939" lon="2.99897">
        <ele>855.2</ele>
        <time>2022-07-12T13:49:07Z</time>
      </trkpt>
      <trkpt lat="44.23928" lon="2.99917">
        <ele>855.4</ele>
        <time>2022-07-12T13:49:11Z</time>
      </trkpt>
      <trkpt lat="44.23923" lon="2.99929">
        <ele>855.4</ele>
        <time>2022-07-12T13:49:13Z</time>
      </trkpt>
      <trkpt lat="44.23922" lon="2.99935">
        <ele>855.4</ele>
        <time>2022-07-12T13:49:14Z</time>
      </trkpt>
      <trkpt lat="44.23917" lon="2.99946">
        <ele>855.6</ele>
        <time>2022-07-12T13:49:16Z</time>
      </trkpt>
      <trkpt lat="44.23913" lon="2.9995">
        <ele>855.6</ele>
        <time>2022-07-12T13:49:17Z</time>
      </trkpt>
      <trkpt lat="44.239" lon="2.99964">
        <ele>855.8</ele>
        <time>2022-07-12T13:49:22Z</time>
      </trkpt>
      <trkpt lat="44.23892" lon="2.99974">
        <ele>855.8</ele>
        <time>2022-07-12T13:49:25Z</time>
      </trkpt>
      <trkpt lat="44.23886" lon="2.99981">
        <ele>855.8</ele>
        <time>2022-07-12T13:49:27Z</time>
      </trkpt>
      <trkpt lat="44.23868" lon="3.00003">
        <ele>855.8</ele>
        <time>2022-07-12T13:49:33Z</time>
      </trkpt>
      <trkpt lat="44.23846" lon="3.00042">
        <ele>855.8</ele>
        <time>2022-07-12T13:49:40Z</time>
      </trkpt>
      <trkpt lat="44.23829" lon="3.00078">
        <ele>855.6</ele>
        <time>2022-07-12T13:49:46Z</time>
      </trkpt>
      <trkpt lat="44.23799" lon="3.00117">
        <ele>854.6</ele>
        <time>2022-07-12T13:49:54Z</time>
      </trkpt>
      <trkpt lat="44.23796" lon="3.00121">
        <ele>854.4</ele>
        <time>2022-07-12T13:49:55Z</time>
      </trkpt>
      <trkpt lat="44.23793" lon="3.00127">
        <ele>854.4</ele>
        <time>2022-07-12T13:49:56Z</time>
      </trkpt>
      <trkpt lat="44.2379" lon="3.00132">
        <ele>854</ele>
        <time>2022-07-12T13:49:57Z</time>
      </trkpt>
      <trkpt lat="44.23785" lon="3.00137">
        <ele>853.6</ele>
        <time>2022-07-12T13:49:58Z</time>
      </trkpt>
      <trkpt lat="44.23781" lon="3.00141">
        <ele>853.2</ele>
        <time>2022-07-12T13:49:59Z</time>
      </trkpt>
      <trkpt lat="44.23777" lon="3.00145">
        <ele>853.2</ele>
        <time>2022-07-12T13:50:00Z</time>
      </trkpt>
      <trkpt lat="44.23771" lon="3.00153">
        <ele>852.8</ele>
        <time>2022-07-12T13:50:02Z</time>
      </trkpt>
      <trkpt lat="44.23765" lon="3.00161">
        <ele>852.4</ele>
        <time>2022-07-12T13:50:04Z</time>
      </trkpt>
      <trkpt lat="44.23759" lon="3.0017">
        <ele>852.2</ele>
        <time>2022-07-12T13:50:06Z</time>
      </trkpt>
      <trkpt lat="44.23744" lon="3.00187">
        <ele>851.8</ele>
        <time>2022-07-12T13:50:10Z</time>
      </trkpt>
      <trkpt lat="44.23732" lon="3.00198">
        <ele>851.4</ele>
        <time>2022-07-12T13:50:13Z</time>
      </trkpt>
      <trkpt lat="44.23724" lon="3.00207">
        <ele>851.2</ele>
        <time>2022-07-12T13:50:15Z</time>
      </trkpt>
      <trkpt lat="44.23708" lon="3.00224">
        <ele>851</ele>
        <time>2022-07-12T13:50:19Z</time>
      </trkpt>
      <trkpt lat="44.23701" lon="3.00231">
        <ele>850.6</ele>
        <time>2022-07-12T13:50:21Z</time>
      </trkpt>
      <trkpt lat="44.23698" lon="3.00235">
        <ele>850.4</ele>
        <time>2022-07-12T13:50:22Z</time>
      </trkpt>
      <trkpt lat="44.2369" lon="3.00243">
        <ele>850.2</ele>
        <time>2022-07-12T13:50:24Z</time>
      </trkpt>
      <trkpt lat="44.23687" lon="3.00246">
        <ele>850</ele>
        <time>2022-07-12T13:50:25Z</time>
      </trkpt>
      <trkpt lat="44.23646" lon="3.00284">
        <ele>849.6</ele>
        <time>2022-07-12T13:50:34Z</time>
      </trkpt>
      <trkpt lat="44.23636" lon="3.00293">
        <ele>849.4</ele>
        <time>2022-07-12T13:50:36Z</time>
      </trkpt>
      <trkpt lat="44.23616" lon="3.00307">
        <ele>848.8</ele>
        <time>2022-07-12T13:50:40Z</time>
      </trkpt>
      <trkpt lat="44.23602" lon="3.00317">
        <ele>848.6</ele>
        <time>2022-07-12T13:50:43Z</time>
      </trkpt>
      <trkpt lat="44.23594" lon="3.00321">
        <ele>848.4</ele>
        <time>2022-07-12T13:50:45Z</time>
      </trkpt>
      <trkpt lat="44.23581" lon="3.00323">
        <ele>848.4</ele>
        <time>2022-07-12T13:50:48Z</time>
      </trkpt>
      <trkpt lat="44.23567" lon="3.00324">
        <ele>848.4</ele>
        <time>2022-07-12T13:50:51Z</time>
      </trkpt>
      <trkpt lat="44.23558" lon="3.00324">
        <ele>848.6</ele>
        <time>2022-07-12T13:50:53Z</time>
      </trkpt>
      <trkpt lat="44.23546" lon="3.00324">
        <ele>848.6</ele>
        <time>2022-07-12T13:50:56Z</time>
      </trkpt>
      <trkpt lat="44.23528" lon="3.00329">
        <ele>848.8</ele>
        <time>2022-07-12T13:51:01Z</time>
      </trkpt>
      <trkpt lat="44.23507" lon="3.0034">
        <ele>849.4</ele>
        <time>2022-07-12T13:51:07Z</time>
      </trkpt>
      <trkpt lat="44.23484" lon="3.00346">
        <ele>850</ele>
        <time>2022-07-12T13:51:13Z</time>
      </trkpt>
      <trkpt lat="44.23469" lon="3.00346">
        <ele>850.4</ele>
        <time>2022-07-12T13:51:17Z</time>
      </trkpt>
      <trkpt lat="44.23457" lon="3.00348">
        <ele>850.6</ele>
        <time>2022-07-12T13:51:20Z</time>
      </trkpt>
      <trkpt lat="44.23424" lon="3.00359">
        <ele>850.4</ele>
        <time>2022-07-12T13:51:28Z</time>
      </trkpt>
      <trkpt lat="44.23402" lon="3.00365">
        <ele>850.2</ele>
        <time>2022-07-12T13:51:33Z</time>
      </trkpt>
      <trkpt lat="44.23394" lon="3.00367">
        <ele>850.2</ele>
        <time>2022-07-12T13:51:35Z</time>
      </trkpt>
      <trkpt lat="44.23386" lon="3.00369">
        <ele>850.2</ele>
        <time>2022-07-12T13:51:37Z</time>
      </trkpt>
      <trkpt lat="44.2337" lon="3.00377">
        <ele>850.2</ele>
        <time>2022-07-12T13:51:41Z</time>
      </trkpt>
      <trkpt lat="44.23367" lon="3.0038">
        <ele>850.2</ele>
        <time>2022-07-12T13:51:42Z</time>
      </trkpt>
      <trkpt lat="44.23352" lon="3.00395">
        <ele>850.2</ele>
        <time>2022-07-12T13:51:46Z</time>
      </trkpt>
      <trkpt lat="44.23344" lon="3.00402">
        <ele>850.2</ele>
        <time>2022-07-12T13:51:48Z</time>
      </trkpt>
      <trkpt lat="44.23334" lon="3.00405">
        <ele>850.2</ele>
        <time>2022-07-12T13:51:50Z</time>
      </trkpt>
      <trkpt lat="44.2332" lon="3.00407">
        <ele>850</ele>
        <time>2022-07-12T13:51:53Z</time>
      </trkpt>
      <trkpt lat="44.23311" lon="3.00409">
        <ele>849.8</ele>
        <time>2022-07-12T13:51:55Z</time>
      </trkpt>
      <trkpt lat="44.23306" lon="3.0041">
        <ele>850</ele>
        <time>2022-07-12T13:51:56Z</time>
      </trkpt>
      <trkpt lat="44.23293" lon="3.00412">
        <ele>849.8</ele>
        <time>2022-07-12T13:51:59Z</time>
      </trkpt>
      <trkpt lat="44.23281" lon="3.00413">
        <ele>850.2</ele>
        <time>2022-07-12T13:52:02Z</time>
      </trkpt>
      <trkpt lat="44.2326" lon="3.00415">
        <ele>850</ele>
        <time>2022-07-12T13:52:07Z</time>
      </trkpt>
      <trkpt lat="44.23251" lon="3.00418">
        <ele>849.6</ele>
        <time>2022-07-12T13:52:09Z</time>
      </trkpt>
      <trkpt lat="44.23235" lon="3.00423">
        <ele>849</ele>
        <time>2022-07-12T13:52:12Z</time>
      </trkpt>
      <trkpt lat="44.23224" lon="3.00429">
        <ele>848.6</ele>
        <time>2022-07-12T13:52:14Z</time>
      </trkpt>
      <trkpt lat="44.23218" lon="3.00433">
        <ele>848.4</ele>
        <time>2022-07-12T13:52:15Z</time>
      </trkpt>
      <trkpt lat="44.23206" lon="3.00439">
        <ele>847.8</ele>
        <time>2022-07-12T13:52:17Z</time>
      </trkpt>
      <trkpt lat="44.23194" lon="3.00443">
        <ele>847.4</ele>
        <time>2022-07-12T13:52:19Z</time>
      </trkpt>
      <trkpt lat="44.23161" lon="3.00457">
        <ele>846</ele>
        <time>2022-07-12T13:52:24Z</time>
      </trkpt>
      <trkpt lat="44.23141" lon="3.00465">
        <ele>845</ele>
        <time>2022-07-12T13:52:27Z</time>
      </trkpt>
      <trkpt lat="44.23121" lon="3.00474">
        <ele>843.8</ele>
        <time>2022-07-12T13:52:30Z</time>
      </trkpt>
      <trkpt lat="44.23115" lon="3.00476">
        <ele>843.6</ele>
        <time>2022-07-12T13:52:31Z</time>
      </trkpt>
      <trkpt lat="44.23109" lon="3.00476">
        <ele>843</ele>
        <time>2022-07-12T13:52:32Z</time>
      </trkpt>
      <trkpt lat="44.23103" lon="3.00476">
        <ele>842.6</ele>
        <time>2022-07-12T13:52:33Z</time>
      </trkpt>
      <trkpt lat="44.23085" lon="3.00477">
        <ele>841.6</ele>
        <time>2022-07-12T13:52:36Z</time>
      </trkpt>
      <trkpt lat="44.23068" lon="3.0048">
        <ele>840.8</ele>
        <time>2022-07-12T13:52:39Z</time>
      </trkpt>
      <trkpt lat="44.23058" lon="3.00488">
        <ele>840.2</ele>
        <time>2022-07-12T13:52:41Z</time>
      </trkpt>
      <trkpt lat="44.23048" lon="3.00495">
        <ele>839.6</ele>
        <time>2022-07-12T13:52:43Z</time>
      </trkpt>
      <trkpt lat="44.23042" lon="3.00497">
        <ele>839.4</ele>
        <time>2022-07-12T13:52:44Z</time>
      </trkpt>
      <trkpt lat="44.23037" lon="3.00497">
        <ele>839</ele>
        <time>2022-07-12T13:52:45Z</time>
      </trkpt>
      <trkpt lat="44.23031" lon="3.00498">
        <ele>839</ele>
        <time>2022-07-12T13:52:46Z</time>
      </trkpt>
      <trkpt lat="44.23022" lon="3.00497">
        <ele>838.2</ele>
        <time>2022-07-12T13:52:48Z</time>
      </trkpt>
      <trkpt lat="44.23017" lon="3.00497">
        <ele>838</ele>
        <time>2022-07-12T13:52:49Z</time>
      </trkpt>
      <trkpt lat="44.23012" lon="3.00498">
        <ele>837.8</ele>
        <time>2022-07-12T13:52:50Z</time>
      </trkpt>
      <trkpt lat="44.23007" lon="3.00499">
        <ele>837.6</ele>
        <time>2022-07-12T13:52:51Z</time>
      </trkpt>
      <trkpt lat="44.22996" lon="3.00499">
        <ele>837.2</ele>
        <time>2022-07-12T13:52:53Z</time>
      </trkpt>
      <trkpt lat="44.22991" lon="3.00498">
        <ele>836.8</ele>
        <time>2022-07-12T13:52:54Z</time>
      </trkpt>
      <trkpt lat="44.22972" lon="3.00493">
        <ele>836.2</ele>
        <time>2022-07-12T13:52:57Z</time>
      </trkpt>
      <trkpt lat="44.22966" lon="3.00493">
        <ele>836.2</ele>
        <time>2022-07-12T13:52:58Z</time>
      </trkpt>
      <trkpt lat="44.2296" lon="3.00494">
        <ele>835.6</ele>
        <time>2022-07-12T13:52:59Z</time>
      </trkpt>
      <trkpt lat="44.2295" lon="3.00499">
        <ele>834.6</ele>
        <time>2022-07-12T13:53:01Z</time>
      </trkpt>
      <trkpt lat="44.22945" lon="3.00501">
        <ele>834.2</ele>
        <time>2022-07-12T13:53:02Z</time>
      </trkpt>
      <trkpt lat="44.22941" lon="3.00504">
        <ele>833.8</ele>
        <time>2022-07-12T13:53:03Z</time>
      </trkpt>
      <trkpt lat="44.22937" lon="3.00508">
        <ele>833.4</ele>
        <time>2022-07-12T13:53:04Z</time>
      </trkpt>
      <trkpt lat="44.22929" lon="3.00516">
        <ele>833</ele>
        <time>2022-07-12T13:53:06Z</time>
      </trkpt>
      <trkpt lat="44.22925" lon="3.00522">
        <ele>832.8</ele>
        <time>2022-07-12T13:53:07Z</time>
      </trkpt>
      <trkpt lat="44.2292" lon="3.00527">
        <ele>832.4</ele>
        <time>2022-07-12T13:53:08Z</time>
      </trkpt>
      <trkpt lat="44.22901" lon="3.00545">
        <ele>831.4</ele>
        <time>2022-07-12T13:53:12Z</time>
      </trkpt>
      <trkpt lat="44.22896" lon="3.0055">
        <ele>831.2</ele>
        <time>2022-07-12T13:53:13Z</time>
      </trkpt>
      <trkpt lat="44.22874" lon="3.00567">
        <ele>830</ele>
        <time>2022-07-12T13:53:18Z</time>
      </trkpt>
      <trkpt lat="44.22869" lon="3.00569">
        <ele>829.8</ele>
        <time>2022-07-12T13:53:19Z</time>
      </trkpt>
      <trkpt lat="44.22832" lon="3.00585">
        <ele>829.4</ele>
        <time>2022-07-12T13:53:27Z</time>
      </trkpt>
      <trkpt lat="44.22796" lon="3.006">
        <ele>829.4</ele>
        <time>2022-07-12T13:53:35Z</time>
      </trkpt>
      <trkpt lat="44.22792" lon="3.00602">
        <ele>829.4</ele>
        <time>2022-07-12T13:53:36Z</time>
      </trkpt>
      <trkpt lat="44.22764" lon="3.00621">
        <ele>830</ele>
        <time>2022-07-12T13:53:43Z</time>
      </trkpt>
      <trkpt lat="44.22756" lon="3.00625">
        <ele>830.2</ele>
        <time>2022-07-12T13:53:45Z</time>
      </trkpt>
      <trkpt lat="44.22741" lon="3.00634">
        <ele>830.4</ele>
        <time>2022-07-12T13:53:49Z</time>
      </trkpt>
      <trkpt lat="44.22705" lon="3.0066">
        <ele>830.8</ele>
        <time>2022-07-12T13:53:59Z</time>
      </trkpt>
      <trkpt lat="44.22678" lon="3.00675">
        <ele>831</ele>
        <time>2022-07-12T13:54:06Z</time>
      </trkpt>
      <trkpt lat="44.22671" lon="3.00677">
        <ele>831</ele>
        <time>2022-07-12T13:54:08Z</time>
      </trkpt>
      <trkpt lat="44.22649" lon="3.00684">
        <ele>831.2</ele>
        <time>2022-07-12T13:54:14Z</time>
      </trkpt>
      <trkpt lat="44.22638" lon="3.00687">
        <ele>831.2</ele>
        <time>2022-07-12T13:54:17Z</time>
      </trkpt>
      <trkpt lat="44.22608" lon="3.00689">
        <ele>831.4</ele>
        <time>2022-07-12T13:54:25Z</time>
      </trkpt>
      <trkpt lat="44.22585" lon="3.00686">
        <ele>832</ele>
        <time>2022-07-12T13:54:32Z</time>
      </trkpt>
      <trkpt lat="44.22574" lon="3.00686">
        <ele>832.2</ele>
        <time>2022-07-12T13:54:36Z</time>
      </trkpt>
      <trkpt lat="44.22568" lon="3.00687">
        <ele>832.8</ele>
        <time>2022-07-12T13:54:38Z</time>
      </trkpt>
      <trkpt lat="44.22556" lon="3.00689">
        <ele>833.2</ele>
        <time>2022-07-12T13:54:43Z</time>
      </trkpt>
      <trkpt lat="44.2255" lon="3.00691">
        <ele>833.2</ele>
        <time>2022-07-12T13:54:45Z</time>
      </trkpt>
      <trkpt lat="44.22548" lon="3.00691">
        <ele>833.2</ele>
        <time>2022-07-12T13:54:46Z</time>
      </trkpt>
      <trkpt lat="44.22534" lon="3.00691">
        <ele>833.8</ele>
        <time>2022-07-12T13:54:52Z</time>
      </trkpt>
      <trkpt lat="44.22525" lon="3.00693">
        <ele>834.4</ele>
        <time>2022-07-12T13:54:56Z</time>
      </trkpt>
      <trkpt lat="44.22518" lon="3.00695">
        <ele>835.2</ele>
        <time>2022-07-12T13:54:59Z</time>
      </trkpt>
      <trkpt lat="44.2251" lon="3.00695">
        <ele>835.6</ele>
        <time>2022-07-12T13:55:02Z</time>
      </trkpt>
      <trkpt lat="44.22502" lon="3.00697">
        <ele>836</ele>
        <time>2022-07-12T13:55:05Z</time>
      </trkpt>
      <trkpt lat="44.22482" lon="3.00699">
        <ele>836.4</ele>
        <time>2022-07-12T13:55:12Z</time>
      </trkpt>
      <trkpt lat="44.22479" lon="3.007">
        <ele>836.6</ele>
        <time>2022-07-12T13:55:13Z</time>
      </trkpt>
      <trkpt lat="44.22461" lon="3.00702">
        <ele>837</ele>
        <time>2022-07-12T13:55:19Z</time>
      </trkpt>
      <trkpt lat="44.22446" lon="3.00704">
        <ele>837.8</ele>
        <time>2022-07-12T13:55:25Z</time>
      </trkpt>
      <trkpt lat="44.22439" lon="3.00705">
        <ele>838</ele>
        <time>2022-07-12T13:55:28Z</time>
      </trkpt>
      <trkpt lat="44.2242" lon="3.00709">
        <ele>838.8</ele>
        <time>2022-07-12T13:55:35Z</time>
      </trkpt>
      <trkpt lat="44.22413" lon="3.00711">
        <ele>839</ele>
        <time>2022-07-12T13:55:37Z</time>
      </trkpt>
      <trkpt lat="44.22401" lon="3.00714">
        <ele>839.2</ele>
        <time>2022-07-12T13:55:40Z</time>
      </trkpt>
      <trkpt lat="44.22372" lon="3.00726">
        <ele>839.4</ele>
        <time>2022-07-12T13:55:47Z</time>
      </trkpt>
      <trkpt lat="44.22342" lon="3.00739">
        <ele>839.4</ele>
        <time>2022-07-12T13:55:55Z</time>
      </trkpt>
      <trkpt lat="44.22335" lon="3.00743">
        <ele>839.6</ele>
        <time>2022-07-12T13:55:58Z</time>
      </trkpt>
      <trkpt lat="44.22332" lon="3.00744">
        <ele>839.6</ele>
        <time>2022-07-12T13:55:59Z</time>
      </trkpt>
      <trkpt lat="44.22313" lon="3.00749">
        <ele>839.8</ele>
        <time>2022-07-12T13:56:05Z</time>
      </trkpt>
      <trkpt lat="44.22294" lon="3.00757">
        <ele>839.8</ele>
        <time>2022-07-12T13:56:10Z</time>
      </trkpt>
      <trkpt lat="44.22267" lon="3.00763">
        <ele>839.8</ele>
        <time>2022-07-12T13:56:18Z</time>
      </trkpt>
      <trkpt lat="44.22247" lon="3.00769">
        <ele>840</ele>
        <time>2022-07-12T13:56:25Z</time>
      </trkpt>
      <trkpt lat="44.22232" lon="3.00773">
        <ele>841</ele>
        <time>2022-07-12T13:56:31Z</time>
      </trkpt>
      <trkpt lat="44.22222" lon="3.00776">
        <ele>841.2</ele>
        <time>2022-07-12T13:56:35Z</time>
      </trkpt>
      <trkpt lat="44.22216" lon="3.00777">
        <ele>841.4</ele>
        <time>2022-07-12T13:56:37Z</time>
      </trkpt>
      <trkpt lat="44.22193" lon="3.00789">
        <ele>842.2</ele>
        <time>2022-07-12T13:56:46Z</time>
      </trkpt>
      <trkpt lat="44.22187" lon="3.00792">
        <ele>842.4</ele>
        <time>2022-07-12T13:56:48Z</time>
      </trkpt>
      <trkpt lat="44.22181" lon="3.00797">
        <ele>842.4</ele>
        <time>2022-07-12T13:56:51Z</time>
      </trkpt>
      <trkpt lat="44.22168" lon="3.00803">
        <ele>843.2</ele>
        <time>2022-07-12T13:56:57Z</time>
      </trkpt>
      <trkpt lat="44.22162" lon="3.00805">
        <ele>843.4</ele>
        <time>2022-07-12T13:56:59Z</time>
      </trkpt>
      <trkpt lat="44.2215" lon="3.00811">
        <ele>843.8</ele>
        <time>2022-07-12T13:57:04Z</time>
      </trkpt>
      <trkpt lat="44.22122" lon="3.00822">
        <ele>844.4</ele>
        <time>2022-07-12T13:57:14Z</time>
      </trkpt>
      <trkpt lat="44.22119" lon="3.00822">
        <ele>844.6</ele>
        <time>2022-07-12T13:57:15Z</time>
      </trkpt>
      <trkpt lat="44.22101" lon="3.00825">
        <ele>845.4</ele>
        <time>2022-07-12T13:57:22Z</time>
      </trkpt>
      <trkpt lat="44.22083" lon="3.00832">
        <ele>846</ele>
        <time>2022-07-12T13:57:29Z</time>
      </trkpt>
      <trkpt lat="44.22074" lon="3.00835">
        <ele>846.2</ele>
        <time>2022-07-12T13:57:32Z</time>
      </trkpt>
      <trkpt lat="44.22048" lon="3.00844">
        <ele>846.8</ele>
        <time>2022-07-12T13:57:40Z</time>
      </trkpt>
      <trkpt lat="44.22025" lon="3.00853">
        <ele>847</ele>
        <time>2022-07-12T13:57:47Z</time>
      </trkpt>
      <trkpt lat="44.22015" lon="3.00856">
        <ele>847</ele>
        <time>2022-07-12T13:57:50Z</time>
      </trkpt>
      <trkpt lat="44.21993" lon="3.00865">
        <ele>847</ele>
        <time>2022-07-12T13:57:57Z</time>
      </trkpt>
      <trkpt lat="44.21964" lon="3.00874">
        <ele>847</ele>
        <time>2022-07-12T13:58:05Z</time>
      </trkpt>
      <trkpt lat="44.2196" lon="3.00875">
        <ele>847</ele>
        <time>2022-07-12T13:58:06Z</time>
      </trkpt>
      <trkpt lat="44.21929" lon="3.00884">
        <ele>847</ele>
        <time>2022-07-12T13:58:14Z</time>
      </trkpt>
      <trkpt lat="44.21879" lon="3.00903">
        <ele>847</ele>
        <time>2022-07-12T13:58:27Z</time>
      </trkpt>
      <trkpt lat="44.21857" lon="3.0092">
        <ele>846.8</ele>
        <time>2022-07-12T13:58:33Z</time>
      </trkpt>
      <trkpt lat="44.2182" lon="3.00938">
        <ele>846.6</ele>
        <time>2022-07-12T13:58:41Z</time>
      </trkpt>
      <trkpt lat="44.21801" lon="3.00947">
        <ele>846.2</ele>
        <time>2022-07-12T13:58:45Z</time>
      </trkpt>
      <trkpt lat="44.2178" lon="3.00956">
        <ele>845.6</ele>
        <time>2022-07-12T13:58:49Z</time>
      </trkpt>
      <trkpt lat="44.21775" lon="3.00958">
        <ele>845.2</ele>
        <time>2022-07-12T13:58:50Z</time>
      </trkpt>
      <trkpt lat="44.21771" lon="3.00961">
        <ele>845</ele>
        <time>2022-07-12T13:58:51Z</time>
      </trkpt>
      <trkpt lat="44.21766" lon="3.00963">
        <ele>844.8</ele>
        <time>2022-07-12T13:58:52Z</time>
      </trkpt>
      <trkpt lat="44.2176" lon="3.00967">
        <ele>844.4</ele>
        <time>2022-07-12T13:58:54Z</time>
      </trkpt>
      <trkpt lat="44.21758" lon="3.00969">
        <ele>844</ele>
        <time>2022-07-12T13:58:55Z</time>
      </trkpt>
      <trkpt lat="44.21758" lon="3.00971">
        <ele>843.8</ele>
        <time>2022-07-12T13:58:56Z</time>
      </trkpt>
      <trkpt lat="44.21761" lon="3.00975">
        <ele>843.2</ele>
        <time>2022-07-12T13:58:58Z</time>
      </trkpt>
      <trkpt lat="44.2177" lon="3.0098">
        <ele>842.8</ele>
        <time>2022-07-12T13:59:02Z</time>
      </trkpt>
      <trkpt lat="44.21771" lon="3.00982">
        <ele>842.8</ele>
        <time>2022-07-12T13:59:03Z</time>
      </trkpt>
      <trkpt lat="44.21773" lon="3.00985">
        <ele>842.8</ele>
        <time>2022-07-12T13:59:04Z</time>
      </trkpt>
      <trkpt lat="44.2177" lon="3.01005">
        <ele>843.2</ele>
        <time>2022-07-12T13:59:09Z</time>
      </trkpt>
      <trkpt lat="44.21762" lon="3.01031">
        <ele>843.4</ele>
        <time>2022-07-12T13:59:16Z</time>
      </trkpt>
      <trkpt lat="44.21753" lon="3.01052">
        <ele>843.2</ele>
        <time>2022-07-12T13:59:21Z</time>
      </trkpt>
      <trkpt lat="44.21741" lon="3.01078">
        <ele>842.2</ele>
        <time>2022-07-12T13:59:27Z</time>
      </trkpt>
      <trkpt lat="44.21739" lon="3.01086">
        <ele>841.6</ele>
        <time>2022-07-12T13:59:29Z</time>
      </trkpt>
      <trkpt lat="44.21737" lon="3.0109">
        <ele>841.4</ele>
        <time>2022-07-12T13:59:31Z</time>
      </trkpt>
      <trkpt lat="44.21737" lon="3.0109">
        <ele>841.2</ele>
        <time>2022-07-12T13:59:32Z</time>
      </trkpt>
      <trkpt lat="44.21737" lon="3.0109">
        <ele>841</ele>
        <time>2022-07-12T13:59:34Z</time>
      </trkpt>
      <trkpt lat="44.21739" lon="3.0109">
        <ele>840.8</ele>
        <time>2022-07-12T13:59:38Z</time>
      </trkpt>
      <trkpt lat="44.2174" lon="3.01089">
        <ele>840.8</ele>
        <time>2022-07-12T13:59:40Z</time>
      </trkpt>
      <trkpt lat="44.2174" lon="3.01089">
        <ele>840.8</ele>
        <time>2022-07-12T13:59:42Z</time>
      </trkpt>
      <trkpt lat="44.21741" lon="3.01086">
        <ele>840.8</ele>
        <time>2022-07-12T13:59:47Z</time>
      </trkpt>
      <trkpt lat="44.21742" lon="3.01084">
        <ele>840.8</ele>
        <time>2022-07-12T13:59:49Z</time>
      </trkpt>
      <trkpt lat="44.21742" lon="3.01082">
        <ele>840.8</ele>
        <time>2022-07-12T13:59:50Z</time>
      </trkpt>
      <trkpt lat="44.21744" lon="3.01075">
        <ele>841</ele>
        <time>2022-07-12T13:59:56Z</time>
      </trkpt>
      <trkpt lat="44.21745" lon="3.01073">
        <ele>841.2</ele>
        <time>2022-07-12T13:59:58Z</time>
      </trkpt>
      <trkpt lat="44.21747" lon="3.01072">
        <ele>841.2</ele>
        <time>2022-07-12T14:00:00Z</time>
      </trkpt>
      <trkpt lat="44.21753" lon="3.01069">
        <ele>841.4</ele>
        <time>2022-07-12T14:00:06Z</time>
      </trkpt>
      <trkpt lat="44.21762" lon="3.01067">
        <ele>842</ele>
        <time>2022-07-12T14:00:15Z</time>
      </trkpt>
      <trkpt lat="44.21764" lon="3.01065">
        <ele>842</ele>
        <time>2022-07-12T14:00:17Z</time>
      </trkpt>
      <trkpt lat="44.21765" lon="3.0106">
        <ele>842.4</ele>
        <time>2022-07-12T14:00:21Z</time>
      </trkpt>
      <trkpt lat="44.21765" lon="3.01052">
        <ele>842.8</ele>
        <time>2022-07-12T14:00:26Z</time>
      </trkpt>
      <trkpt lat="44.21766" lon="3.01046">
        <ele>843</ele>
        <time>2022-07-12T14:00:30Z</time>
      </trkpt>
      <trkpt lat="44.21769" lon="3.01033">
        <ele>843.4</ele>
        <time>2022-07-12T14:00:40Z</time>
      </trkpt>
      <trkpt lat="44.21771" lon="3.01015">
        <ele>843.6</ele>
        <time>2022-07-12T14:00:52Z</time>
      </trkpt>
      <trkpt lat="44.21773" lon="3.01008">
        <ele>843.8</ele>
        <time>2022-07-12T14:00:59Z</time>
      </trkpt>
      <trkpt lat="44.21772" lon="3.01002">
        <ele>843.8</ele>
        <time>2022-07-12T14:01:01Z</time>
      </trkpt>
      <trkpt lat="44.21773" lon="3.00992">
        <ele>843.8</ele>
        <time>2022-07-12T14:01:04Z</time>
      </trkpt>
      <trkpt lat="44.2177" lon="3.00979">
        <ele>843.8</ele>
        <time>2022-07-12T14:01:07Z</time>
      </trkpt>
      <trkpt lat="44.21768" lon="3.00975">
        <ele>844.2</ele>
        <time>2022-07-12T14:01:08Z</time>
      </trkpt>
      <trkpt lat="44.21762" lon="3.00972">
        <ele>844.2</ele>
        <time>2022-07-12T14:01:10Z</time>
      </trkpt>
      <trkpt lat="44.21753" lon="3.00974">
        <ele>843.8</ele>
        <time>2022-07-12T14:01:12Z</time>
      </trkpt>
      <trkpt lat="44.21728" lon="3.00992">
        <ele>843</ele>
        <time>2022-07-12T14:01:18Z</time>
      </trkpt>
      <trkpt lat="44.21725" lon="3.00994">
        <ele>842.8</ele>
        <time>2022-07-12T14:01:19Z</time>
      </trkpt>
      <trkpt lat="44.21713" lon="3.01004">
        <ele>842.2</ele>
        <time>2022-07-12T14:01:23Z</time>
      </trkpt>
      <trkpt lat="44.21694" lon="3.0102">
        <ele>842</ele>
        <time>2022-07-12T14:01:30Z</time>
      </trkpt>
      <trkpt lat="44.21688" lon="3.01027">
        <ele>841.8</ele>
        <time>2022-07-12T14:01:33Z</time>
      </trkpt>
      <trkpt lat="44.21684" lon="3.0103">
        <ele>841.4</ele>
        <time>2022-07-12T14:01:37Z</time>
      </trkpt>
      <trkpt lat="44.21684" lon="3.0103">
        <ele>841.2</ele>
        <time>2022-07-12T14:01:38Z</time>
      </trkpt>
      <trkpt lat="44.21681" lon="3.01032">
        <ele>840.8</ele>
        <time>2022-07-12T14:02:02Z</time>
      </trkpt>
      <trkpt lat="44.2168" lon="3.01032">
        <ele>840.8</ele>
        <time>2022-07-12T14:02:04Z</time>
      </trkpt>
      <trkpt lat="44.21677" lon="3.01034">
        <ele>841</ele>
        <time>2022-07-12T14:02:16Z</time>
      </trkpt>
      <trkpt lat="44.21672" lon="3.01039">
        <ele>841</ele>
        <time>2022-07-12T14:02:19Z</time>
      </trkpt>
      <trkpt lat="44.21657" lon="3.01048">
        <ele>841</ele>
        <time>2022-07-12T14:02:24Z</time>
      </trkpt>
      <trkpt lat="44.21635" lon="3.01061">
        <ele>840.8</ele>
        <time>2022-07-12T14:02:31Z</time>
      </trkpt>
      <trkpt lat="44.21631" lon="3.01063">
        <ele>840.8</ele>
        <time>2022-07-12T14:02:32Z</time>
      </trkpt>
      <trkpt lat="44.21623" lon="3.01066">
        <ele>840.8</ele>
        <time>2022-07-12T14:02:34Z</time>
      </trkpt>
      <trkpt lat="44.21606" lon="3.01069">
        <ele>840.8</ele>
        <time>2022-07-12T14:02:38Z</time>
      </trkpt>
      <trkpt lat="44.21602" lon="3.01069">
        <ele>840.8</ele>
        <time>2022-07-12T14:02:39Z</time>
      </trkpt>
      <trkpt lat="44.21579" lon="3.01067">
        <ele>840.4</ele>
        <time>2022-07-12T14:02:44Z</time>
      </trkpt>
      <trkpt lat="44.21551" lon="3.01065">
        <ele>840</ele>
        <time>2022-07-12T14:02:50Z</time>
      </trkpt>
      <trkpt lat="44.21547" lon="3.01065">
        <ele>839.8</ele>
        <time>2022-07-12T14:02:51Z</time>
      </trkpt>
      <trkpt lat="44.21536" lon="3.01067">
        <ele>839.6</ele>
        <time>2022-07-12T14:02:54Z</time>
      </trkpt>
      <trkpt lat="44.21522" lon="3.01082">
        <ele>839.2</ele>
        <time>2022-07-12T14:02:59Z</time>
      </trkpt>
      <trkpt lat="44.2151" lon="3.0109">
        <ele>839</ele>
        <time>2022-07-12T14:03:02Z</time>
      </trkpt>
      <trkpt lat="44.21505" lon="3.01095">
        <ele>838.8</ele>
        <time>2022-07-12T14:03:03Z</time>
      </trkpt>
      <trkpt lat="44.21501" lon="3.01099">
        <ele>838.6</ele>
        <time>2022-07-12T14:03:04Z</time>
      </trkpt>
      <trkpt lat="44.21497" lon="3.01102">
        <ele>838.4</ele>
        <time>2022-07-12T14:03:05Z</time>
      </trkpt>
      <trkpt lat="44.2148" lon="3.01114">
        <ele>837.6</ele>
        <time>2022-07-12T14:03:08Z</time>
      </trkpt>
      <trkpt lat="44.21443" lon="3.0114">
        <ele>836.8</ele>
        <time>2022-07-12T14:03:14Z</time>
      </trkpt>
      <trkpt lat="44.21409" lon="3.01162">
        <ele>835.6</ele>
        <time>2022-07-12T14:03:19Z</time>
      </trkpt>
      <trkpt lat="44.21379" lon="3.0118">
        <ele>834.8</ele>
        <time>2022-07-12T14:03:23Z</time>
      </trkpt>
      <trkpt lat="44.21372" lon="3.01185">
        <ele>834.4</ele>
        <time>2022-07-12T14:03:24Z</time>
      </trkpt>
      <trkpt lat="44.21341" lon="3.01203">
        <ele>833.2</ele>
        <time>2022-07-12T14:03:28Z</time>
      </trkpt>
      <trkpt lat="44.21333" lon="3.01208">
        <ele>833</ele>
        <time>2022-07-12T14:03:29Z</time>
      </trkpt>
      <trkpt lat="44.2131" lon="3.01222">
        <ele>832.2</ele>
        <time>2022-07-12T14:03:32Z</time>
      </trkpt>
      <trkpt lat="44.21288" lon="3.01235">
        <ele>831.4</ele>
        <time>2022-07-12T14:03:35Z</time>
      </trkpt>
      <trkpt lat="44.21268" lon="3.01249">
        <ele>831</ele>
        <time>2022-07-12T14:03:38Z</time>
      </trkpt>
      <trkpt lat="44.21255" lon="3.01258">
        <ele>830.4</ele>
        <time>2022-07-12T14:03:40Z</time>
      </trkpt>
      <trkpt lat="44.21242" lon="3.01266">
        <ele>829.8</ele>
        <time>2022-07-12T14:03:42Z</time>
      </trkpt>
      <trkpt lat="44.21199" lon="3.01295">
        <ele>829</ele>
        <time>2022-07-12T14:03:49Z</time>
      </trkpt>
      <trkpt lat="44.21158" lon="3.01322">
        <ele>829</ele>
        <time>2022-07-12T14:03:56Z</time>
      </trkpt>
      <trkpt lat="44.21123" lon="3.01346">
        <ele>829.8</ele>
        <time>2022-07-12T14:04:03Z</time>
      </trkpt>
      <trkpt lat="44.21092" lon="3.01365">
        <ele>830.2</ele>
        <time>2022-07-12T14:04:10Z</time>
      </trkpt>
      <trkpt lat="44.21056" lon="3.01389">
        <ele>831</ele>
        <time>2022-07-12T14:04:18Z</time>
      </trkpt>
      <trkpt lat="44.21052" lon="3.01392">
        <ele>831.2</ele>
        <time>2022-07-12T14:04:19Z</time>
      </trkpt>
      <trkpt lat="44.21014" lon="3.01415">
        <ele>831.8</ele>
        <time>2022-07-12T14:04:28Z</time>
      </trkpt>
      <trkpt lat="44.20999" lon="3.01423">
        <ele>831.8</ele>
        <time>2022-07-12T14:04:31Z</time>
      </trkpt>
      <trkpt lat="44.20978" lon="3.01431">
        <ele>831.8</ele>
        <time>2022-07-12T14:04:35Z</time>
      </trkpt>
      <trkpt lat="44.2093" lon="3.01445">
        <ele>831.6</ele>
        <time>2022-07-12T14:04:43Z</time>
      </trkpt>
      <trkpt lat="44.20883" lon="3.01447">
        <ele>831.2</ele>
        <time>2022-07-12T14:04:50Z</time>
      </trkpt>
      <trkpt lat="44.20844" lon="3.01444">
        <ele>830.2</ele>
        <time>2022-07-12T14:04:55Z</time>
      </trkpt>
      <trkpt lat="44.20836" lon="3.01444">
        <ele>830</ele>
        <time>2022-07-12T14:04:56Z</time>
      </trkpt>
      <trkpt lat="44.20801" lon="3.01441">
        <ele>829.2</ele>
        <time>2022-07-12T14:05:00Z</time>
      </trkpt>
      <trkpt lat="44.20792" lon="3.0144">
        <ele>829.2</ele>
        <time>2022-07-12T14:05:01Z</time>
      </trkpt>
      <trkpt lat="44.20757" lon="3.01437">
        <ele>828</ele>
        <time>2022-07-12T14:05:05Z</time>
      </trkpt>
      <trkpt lat="44.20733" lon="3.01435">
        <ele>827.6</ele>
        <time>2022-07-12T14:05:08Z</time>
      </trkpt>
      <trkpt lat="44.20697" lon="3.01433">
        <ele>827.2</ele>
        <time>2022-07-12T14:05:13Z</time>
      </trkpt>
      <trkpt lat="44.20683" lon="3.01431">
        <ele>827</ele>
        <time>2022-07-12T14:05:15Z</time>
      </trkpt>
      <trkpt lat="44.20652" lon="3.01429">
        <ele>827</ele>
        <time>2022-07-12T14:05:20Z</time>
      </trkpt>
      <trkpt lat="44.20616" lon="3.01426">
        <ele>827.6</ele>
        <time>2022-07-12T14:05:27Z</time>
      </trkpt>
      <trkpt lat="44.20611" lon="3.01425">
        <ele>827.6</ele>
        <time>2022-07-12T14:05:28Z</time>
      </trkpt>
      <trkpt lat="44.20596" lon="3.01425">
        <ele>828</ele>
        <time>2022-07-12T14:05:31Z</time>
      </trkpt>
      <trkpt lat="44.20571" lon="3.01422">
        <ele>829.4</ele>
        <time>2022-07-12T14:05:36Z</time>
      </trkpt>
      <trkpt lat="44.20561" lon="3.01422">
        <ele>829.8</ele>
        <time>2022-07-12T14:05:38Z</time>
      </trkpt>
      <trkpt lat="44.20538" lon="3.0142">
        <ele>830.6</ele>
        <time>2022-07-12T14:05:43Z</time>
      </trkpt>
      <trkpt lat="44.20523" lon="3.01418">
        <ele>831</ele>
        <time>2022-07-12T14:05:46Z</time>
      </trkpt>
      <trkpt lat="44.20504" lon="3.01416">
        <ele>831.8</ele>
        <time>2022-07-12T14:05:50Z</time>
      </trkpt>
      <trkpt lat="44.20465" lon="3.01413">
        <ele>832.6</ele>
        <time>2022-07-12T14:05:58Z</time>
      </trkpt>
      <trkpt lat="44.20455" lon="3.01412">
        <ele>832.8</ele>
        <time>2022-07-12T14:06:00Z</time>
      </trkpt>
      <trkpt lat="44.20408" lon="3.01414">
        <ele>833.6</ele>
        <time>2022-07-12T14:06:09Z</time>
      </trkpt>
      <trkpt lat="44.20353" lon="3.01429">
        <ele>833.4</ele>
        <time>2022-07-12T14:06:19Z</time>
      </trkpt>
      <trkpt lat="44.20315" lon="3.01447">
        <ele>833.2</ele>
        <time>2022-07-12T14:06:25Z</time>
      </trkpt>
      <trkpt lat="44.2027" lon="3.01473">
        <ele>832.4</ele>
        <time>2022-07-12T14:06:32Z</time>
      </trkpt>
      <trkpt lat="44.20247" lon="3.01487">
        <ele>831.8</ele>
        <time>2022-07-12T14:06:35Z</time>
      </trkpt>
      <trkpt lat="44.20221" lon="3.01501">
        <ele>830.6</ele>
        <time>2022-07-12T14:06:38Z</time>
      </trkpt>
      <trkpt lat="44.20185" lon="3.01521">
        <ele>829.2</ele>
        <time>2022-07-12T14:06:42Z</time>
      </trkpt>
      <trkpt lat="44.20157" lon="3.01537">
        <ele>828.2</ele>
        <time>2022-07-12T14:06:45Z</time>
      </trkpt>
      <trkpt lat="44.20147" lon="3.01543">
        <ele>827</ele>
        <time>2022-07-12T14:06:46Z</time>
      </trkpt>
      <trkpt lat="44.20127" lon="3.01556">
        <ele>825.8</ele>
        <time>2022-07-12T14:06:48Z</time>
      </trkpt>
      <trkpt lat="44.20107" lon="3.01569">
        <ele>824.6</ele>
        <time>2022-07-12T14:06:50Z</time>
      </trkpt>
      <trkpt lat="44.20097" lon="3.01576">
        <ele>823.6</ele>
        <time>2022-07-12T14:06:51Z</time>
      </trkpt>
      <trkpt lat="44.20088" lon="3.01583">
        <ele>823.2</ele>
        <time>2022-07-12T14:06:52Z</time>
      </trkpt>
      <trkpt lat="44.20067" lon="3.016">
        <ele>822.6</ele>
        <time>2022-07-12T14:06:54Z</time>
      </trkpt>
      <trkpt lat="44.20049" lon="3.01615">
        <ele>821.4</ele>
        <time>2022-07-12T14:06:56Z</time>
      </trkpt>
      <trkpt lat="44.20034" lon="3.01624">
        <ele>820.2</ele>
        <time>2022-07-12T14:06:58Z</time>
      </trkpt>
      <trkpt lat="44.2002" lon="3.01625">
        <ele>819.2</ele>
        <time>2022-07-12T14:07:00Z</time>
      </trkpt>
      <trkpt lat="44.20014" lon="3.01621">
        <ele>818.8</ele>
        <time>2022-07-12T14:07:01Z</time>
      </trkpt>
      <trkpt lat="44.20008" lon="3.01616">
        <ele>818.2</ele>
        <time>2022-07-12T14:07:02Z</time>
      </trkpt>
      <trkpt lat="44.20003" lon="3.01609">
        <ele>818</ele>
        <time>2022-07-12T14:07:03Z</time>
      </trkpt>
      <trkpt lat="44.19998" lon="3.01601">
        <ele>817.4</ele>
        <time>2022-07-12T14:07:04Z</time>
      </trkpt>
      <trkpt lat="44.19993" lon="3.01593">
        <ele>816.4</ele>
        <time>2022-07-12T14:07:05Z</time>
      </trkpt>
      <trkpt lat="44.1998" lon="3.01582">
        <ele>815.4</ele>
        <time>2022-07-12T14:07:07Z</time>
      </trkpt>
      <trkpt lat="44.19972" lon="3.01579">
        <ele>815.2</ele>
        <time>2022-07-12T14:07:08Z</time>
      </trkpt>
      <trkpt lat="44.19946" lon="3.01571">
        <ele>813.8</ele>
        <time>2022-07-12T14:07:11Z</time>
      </trkpt>
      <trkpt lat="44.19937" lon="3.01568">
        <ele>813.6</ele>
        <time>2022-07-12T14:07:12Z</time>
      </trkpt>
      <trkpt lat="44.19917" lon="3.01559">
        <ele>812.2</ele>
        <time>2022-07-12T14:07:14Z</time>
      </trkpt>
      <trkpt lat="44.19887" lon="3.01544">
        <ele>810.8</ele>
        <time>2022-07-12T14:07:17Z</time>
      </trkpt>
      <trkpt lat="44.19878" lon="3.01539">
        <ele>810.2</ele>
        <time>2022-07-12T14:07:18Z</time>
      </trkpt>
      <trkpt lat="44.19869" lon="3.01534">
        <ele>809.8</ele>
        <time>2022-07-12T14:07:19Z</time>
      </trkpt>
      <trkpt lat="44.1986" lon="3.0153">
        <ele>808.6</ele>
        <time>2022-07-12T14:07:20Z</time>
      </trkpt>
      <trkpt lat="44.19843" lon="3.0152">
        <ele>807.4</ele>
        <time>2022-07-12T14:07:22Z</time>
      </trkpt>
      <trkpt lat="44.19836" lon="3.01517">
        <ele>806.4</ele>
        <time>2022-07-12T14:07:23Z</time>
      </trkpt>
      <trkpt lat="44.19822" lon="3.01511">
        <ele>805.2</ele>
        <time>2022-07-12T14:07:25Z</time>
      </trkpt>
      <trkpt lat="44.19816" lon="3.01508">
        <ele>804.8</ele>
        <time>2022-07-12T14:07:26Z</time>
      </trkpt>
      <trkpt lat="44.19811" lon="3.01508">
        <ele>804.2</ele>
        <time>2022-07-12T14:07:27Z</time>
      </trkpt>
      <trkpt lat="44.19807" lon="3.01509">
        <ele>804</ele>
        <time>2022-07-12T14:07:28Z</time>
      </trkpt>
      <trkpt lat="44.19801" lon="3.01513">
        <ele>803.2</ele>
        <time>2022-07-12T14:07:30Z</time>
      </trkpt>
      <trkpt lat="44.19799" lon="3.01518">
        <ele>803</ele>
        <time>2022-07-12T14:07:31Z</time>
      </trkpt>
      <trkpt lat="44.19797" lon="3.01524">
        <ele>802.6</ele>
        <time>2022-07-12T14:07:33Z</time>
      </trkpt>
      <trkpt lat="44.19796" lon="3.01525">
        <ele>802</ele>
        <time>2022-07-12T14:07:36Z</time>
      </trkpt>
      <trkpt lat="44.19794" lon="3.01524">
        <ele>801.6</ele>
        <time>2022-07-12T14:07:39Z</time>
      </trkpt>
      <trkpt lat="44.19791" lon="3.01528">
        <ele>801.6</ele>
        <time>2022-07-12T14:07:46Z</time>
      </trkpt>
      <trkpt lat="44.19787" lon="3.01532">
        <ele>802.2</ele>
        <time>2022-07-12T14:07:52Z</time>
      </trkpt>
      <trkpt lat="44.19787" lon="3.01532">
        <ele>802.4</ele>
        <time>2022-07-12T14:07:54Z</time>
      </trkpt>
      <trkpt lat="44.19785" lon="3.01533">
        <ele>802.4</ele>
        <time>2022-07-12T14:07:58Z</time>
      </trkpt>
      <trkpt lat="44.19783" lon="3.01534">
        <ele>802.6</ele>
        <time>2022-07-12T14:08:00Z</time>
      </trkpt>
      <trkpt lat="44.19781" lon="3.01536">
        <ele>802.6</ele>
        <time>2022-07-12T14:08:04Z</time>
      </trkpt>
      <trkpt lat="44.19777" lon="3.01537">
        <ele>802.6</ele>
        <time>2022-07-12T14:08:06Z</time>
      </trkpt>
      <trkpt lat="44.19767" lon="3.0154">
        <ele>802.6</ele>
        <time>2022-07-12T14:08:11Z</time>
      </trkpt>
      <trkpt lat="44.19759" lon="3.01541">
        <ele>802.8</ele>
        <time>2022-07-12T14:08:14Z</time>
      </trkpt>
      <trkpt lat="44.19754" lon="3.0154">
        <ele>802.8</ele>
        <time>2022-07-12T14:08:16Z</time>
      </trkpt>
      <trkpt lat="44.1974" lon="3.01536">
        <ele>803.2</ele>
        <time>2022-07-12T14:08:20Z</time>
      </trkpt>
      <trkpt lat="44.19737" lon="3.01533">
        <ele>803.2</ele>
        <time>2022-07-12T14:08:21Z</time>
      </trkpt>
      <trkpt lat="44.19735" lon="3.01532">
        <ele>803.2</ele>
        <time>2022-07-12T14:08:22Z</time>
      </trkpt>
      <trkpt lat="44.1973" lon="3.0153">
        <ele>803.4</ele>
        <time>2022-07-12T14:08:24Z</time>
      </trkpt>
      <trkpt lat="44.19701" lon="3.01521">
        <ele>804.2</ele>
        <time>2022-07-12T14:08:31Z</time>
      </trkpt>
      <trkpt lat="44.19698" lon="3.01519">
        <ele>804.2</ele>
        <time>2022-07-12T14:08:32Z</time>
      </trkpt>
      <trkpt lat="44.1968" lon="3.01515">
        <ele>804.6</ele>
        <time>2022-07-12T14:08:37Z</time>
      </trkpt>
      <trkpt lat="44.19671" lon="3.01518">
        <ele>805.4</ele>
        <time>2022-07-12T14:08:41Z</time>
      </trkpt>
      <trkpt lat="44.19668" lon="3.01519">
        <ele>805.6</ele>
        <time>2022-07-12T14:08:42Z</time>
      </trkpt>
      <trkpt lat="44.19663" lon="3.01517">
        <ele>805.8</ele>
        <time>2022-07-12T14:08:44Z</time>
      </trkpt>
      <trkpt lat="44.19647" lon="3.01512">
        <ele>806.6</ele>
        <time>2022-07-12T14:08:50Z</time>
      </trkpt>
      <trkpt lat="44.19643" lon="3.01514">
        <ele>806.8</ele>
        <time>2022-07-12T14:08:52Z</time>
      </trkpt>
      <trkpt lat="44.19633" lon="3.01518">
        <ele>807.6</ele>
        <time>2022-07-12T14:08:59Z</time>
      </trkpt>
      <trkpt lat="44.19632" lon="3.01518">
        <ele>807.8</ele>
        <time>2022-07-12T14:09:00Z</time>
      </trkpt>
      <trkpt lat="44.19624" lon="3.0152">
        <ele>808.4</ele>
        <time>2022-07-12T14:09:06Z</time>
      </trkpt>
      <trkpt lat="44.1962" lon="3.01521">
        <ele>808.8</ele>
        <time>2022-07-12T14:09:09Z</time>
      </trkpt>
      <trkpt lat="44.19613" lon="3.0152">
        <ele>809.4</ele>
        <time>2022-07-12T14:09:14Z</time>
      </trkpt>
      <trkpt lat="44.19597" lon="3.01519">
        <ele>809.6</ele>
        <time>2022-07-12T14:09:20Z</time>
      </trkpt>
      <trkpt lat="44.19588" lon="3.01515">
        <ele>809.8</ele>
        <time>2022-07-12T14:09:24Z</time>
      </trkpt>
      <trkpt lat="44.19586" lon="3.01514">
        <ele>810.2</ele>
        <time>2022-07-12T14:09:25Z</time>
      </trkpt>
      <trkpt lat="44.19584" lon="3.01514">
        <ele>810.4</ele>
        <time>2022-07-12T14:09:26Z</time>
      </trkpt>
      <trkpt lat="44.19583" lon="3.01514">
        <ele>810.4</ele>
        <time>2022-07-12T14:09:27Z</time>
      </trkpt>
      <trkpt lat="44.19572" lon="3.01513">
        <ele>810.4</ele>
        <time>2022-07-12T14:09:30Z</time>
      </trkpt>
      <trkpt lat="44.19553" lon="3.0151">
        <ele>810.4</ele>
        <time>2022-07-12T14:09:35Z</time>
      </trkpt>
      <trkpt lat="44.19532" lon="3.01512">
        <ele>810.4</ele>
        <time>2022-07-12T14:09:41Z</time>
      </trkpt>
      <trkpt lat="44.19506" lon="3.01513">
        <ele>810.2</ele>
        <time>2022-07-12T14:09:48Z</time>
      </trkpt>
      <trkpt lat="44.19472" lon="3.0151">
        <ele>810.2</ele>
        <time>2022-07-12T14:09:57Z</time>
      </trkpt>
      <trkpt lat="44.19454" lon="3.01511">
        <ele>810.6</ele>
        <time>2022-07-12T14:10:02Z</time>
      </trkpt>
      <trkpt lat="44.19436" lon="3.01514">
        <ele>810.4</ele>
        <time>2022-07-12T14:10:07Z</time>
      </trkpt>
      <trkpt lat="44.19414" lon="3.0152">
        <ele>810.2</ele>
        <time>2022-07-12T14:10:13Z</time>
      </trkpt>
      <trkpt lat="44.19383" lon="3.01527">
        <ele>809.4</ele>
        <time>2022-07-12T14:10:19Z</time>
      </trkpt>
      <trkpt lat="44.1936" lon="3.01536">
        <ele>809</ele>
        <time>2022-07-12T14:10:24Z</time>
      </trkpt>
      <trkpt lat="44.19341" lon="3.01548">
        <ele>807.8</ele>
        <time>2022-07-12T14:10:30Z</time>
      </trkpt>
      <trkpt lat="44.1933" lon="3.01551">
        <ele>807.2</ele>
        <time>2022-07-12T14:10:33Z</time>
      </trkpt>
      <trkpt lat="44.19326" lon="3.01549">
        <ele>807.2</ele>
        <time>2022-07-12T14:10:34Z</time>
      </trkpt>
      <trkpt lat="44.19318" lon="3.01541">
        <ele>806.6</ele>
        <time>2022-07-12T14:10:36Z</time>
      </trkpt>
      <trkpt lat="44.19315" lon="3.01537">
        <ele>806.2</ele>
        <time>2022-07-12T14:10:37Z</time>
      </trkpt>
      <trkpt lat="44.19308" lon="3.01528">
        <ele>805.4</ele>
        <time>2022-07-12T14:10:39Z</time>
      </trkpt>
      <trkpt lat="44.19306" lon="3.01522">
        <ele>805.4</ele>
        <time>2022-07-12T14:10:40Z</time>
      </trkpt>
      <trkpt lat="44.19301" lon="3.01507">
        <ele>805.2</ele>
        <time>2022-07-12T14:10:43Z</time>
      </trkpt>
      <trkpt lat="44.19296" lon="3.01475">
        <ele>805</ele>
        <time>2022-07-12T14:10:49Z</time>
      </trkpt>
      <trkpt lat="44.1929" lon="3.01457">
        <ele>804.8</ele>
        <time>2022-07-12T14:10:53Z</time>
      </trkpt>
      <trkpt lat="44.19274" lon="3.01446">
        <ele>804.4</ele>
        <time>2022-07-12T14:10:57Z</time>
      </trkpt>
      <trkpt lat="44.19268" lon="3.01443">
        <ele>804.4</ele>
        <time>2022-07-12T14:10:58Z</time>
      </trkpt>
      <trkpt lat="44.19258" lon="3.01437">
        <ele>803.8</ele>
        <time>2022-07-12T14:11:00Z</time>
      </trkpt>
      <trkpt lat="44.19249" lon="3.0143">
        <ele>803.4</ele>
        <time>2022-07-12T14:11:02Z</time>
      </trkpt>
      <trkpt lat="44.19244" lon="3.01427">
        <ele>803.4</ele>
        <time>2022-07-12T14:11:03Z</time>
      </trkpt>
      <trkpt lat="44.19215" lon="3.01404">
        <ele>802.2</ele>
        <time>2022-07-12T14:11:08Z</time>
      </trkpt>
      <trkpt lat="44.19205" lon="3.01395">
        <ele>801.4</ele>
        <time>2022-07-12T14:11:10Z</time>
      </trkpt>
      <trkpt lat="44.19188" lon="3.01384">
        <ele>801</ele>
        <time>2022-07-12T14:11:13Z</time>
      </trkpt>
      <trkpt lat="44.19173" lon="3.01371">
        <ele>800.4</ele>
        <time>2022-07-12T14:11:16Z</time>
      </trkpt>
      <trkpt lat="44.19152" lon="3.01356">
        <ele>800</ele>
        <time>2022-07-12T14:11:20Z</time>
      </trkpt>
      <trkpt lat="44.19132" lon="3.01346">
        <ele>799.8</ele>
        <time>2022-07-12T14:11:24Z</time>
      </trkpt>
      <trkpt lat="44.19122" lon="3.01341">
        <ele>799.4</ele>
        <time>2022-07-12T14:11:26Z</time>
      </trkpt>
      <trkpt lat="44.19111" lon="3.01333">
        <ele>799</ele>
        <time>2022-07-12T14:11:28Z</time>
      </trkpt>
      <trkpt lat="44.19101" lon="3.01321">
        <ele>799</ele>
        <time>2022-07-12T14:11:30Z</time>
      </trkpt>
      <trkpt lat="44.1908" lon="3.01306">
        <ele>797.8</ele>
        <time>2022-07-12T14:11:34Z</time>
      </trkpt>
      <trkpt lat="44.19075" lon="3.01303">
        <ele>797.6</ele>
        <time>2022-07-12T14:11:35Z</time>
      </trkpt>
      <trkpt lat="44.19061" lon="3.01295">
        <ele>796.4</ele>
        <time>2022-07-12T14:11:38Z</time>
      </trkpt>
      <trkpt lat="44.19055" lon="3.01292">
        <ele>795.2</ele>
        <time>2022-07-12T14:11:40Z</time>
      </trkpt>
      <trkpt lat="44.19049" lon="3.01285">
        <ele>794</ele>
        <time>2022-07-12T14:11:43Z</time>
      </trkpt>
      <trkpt lat="44.19048" lon="3.01283">
        <ele>793.8</ele>
        <time>2022-07-12T14:11:44Z</time>
      </trkpt>
      <trkpt lat="44.19046" lon="3.01282">
        <ele>793.6</ele>
        <time>2022-07-12T14:11:45Z</time>
      </trkpt>
      <trkpt lat="44.19041" lon="3.0128">
        <ele>793.2</ele>
        <time>2022-07-12T14:11:48Z</time>
      </trkpt>
      <trkpt lat="44.19039" lon="3.01278">
        <ele>793</ele>
        <time>2022-07-12T14:11:49Z</time>
      </trkpt>
      <trkpt lat="44.19037" lon="3.01274">
        <ele>793</ele>
        <time>2022-07-12T14:11:50Z</time>
      </trkpt>
      <trkpt lat="44.19033" lon="3.01266">
        <ele>792.6</ele>
        <time>2022-07-12T14:11:52Z</time>
      </trkpt>
      <trkpt lat="44.19027" lon="3.01239">
        <ele>791.8</ele>
        <time>2022-07-12T14:11:57Z</time>
      </trkpt>
      <trkpt lat="44.19027" lon="3.01233">
        <ele>791.4</ele>
        <time>2022-07-12T14:11:58Z</time>
      </trkpt>
      <trkpt lat="44.19027" lon="3.01221">
        <ele>791.2</ele>
        <time>2022-07-12T14:12:00Z</time>
      </trkpt>
      <trkpt lat="44.19025" lon="3.01215">
        <ele>791</ele>
        <time>2022-07-12T14:12:01Z</time>
      </trkpt>
      <trkpt lat="44.19019" lon="3.01208">
        <ele>790.8</ele>
        <time>2022-07-12T14:12:03Z</time>
      </trkpt>
      <trkpt lat="44.19016" lon="3.01206">
        <ele>790.8</ele>
        <time>2022-07-12T14:12:04Z</time>
      </trkpt>
      <trkpt lat="44.19005" lon="3.01202">
        <ele>789.8</ele>
        <time>2022-07-12T14:12:07Z</time>
      </trkpt>
      <trkpt lat="44.19002" lon="3.01201">
        <ele>789.4</ele>
        <time>2022-07-12T14:12:08Z</time>
      </trkpt>
      <trkpt lat="44.18983" lon="3.01199">
        <ele>789</ele>
        <time>2022-07-12T14:12:13Z</time>
      </trkpt>
      <trkpt lat="44.18955" lon="3.01194">
        <ele>788.6</ele>
        <time>2022-07-12T14:12:20Z</time>
      </trkpt>
      <trkpt lat="44.18937" lon="3.0119">
        <ele>788.4</ele>
        <time>2022-07-12T14:12:24Z</time>
      </trkpt>
      <trkpt lat="44.18928" lon="3.01187">
        <ele>788.6</ele>
        <time>2022-07-12T14:12:26Z</time>
      </trkpt>
      <trkpt lat="44.18896" lon="3.01177">
        <ele>788.2</ele>
        <time>2022-07-12T14:12:33Z</time>
      </trkpt>
      <trkpt lat="44.18871" lon="3.01173">
        <ele>787.6</ele>
        <time>2022-07-12T14:12:38Z</time>
      </trkpt>
      <trkpt lat="44.18846" lon="3.01166">
        <ele>786.8</ele>
        <time>2022-07-12T14:12:43Z</time>
      </trkpt>
      <trkpt lat="44.18836" lon="3.01165">
        <ele>786.6</ele>
        <time>2022-07-12T14:12:45Z</time>
      </trkpt>
      <trkpt lat="44.18801" lon="3.01159">
        <ele>785.8</ele>
        <time>2022-07-12T14:12:52Z</time>
      </trkpt>
      <trkpt lat="44.18796" lon="3.01158">
        <ele>785.6</ele>
        <time>2022-07-12T14:12:53Z</time>
      </trkpt>
      <trkpt lat="44.18761" lon="3.01148">
        <ele>784.4</ele>
        <time>2022-07-12T14:12:59Z</time>
      </trkpt>
      <trkpt lat="44.18715" lon="3.01138">
        <ele>783.4</ele>
        <time>2022-07-12T14:13:06Z</time>
      </trkpt>
      <trkpt lat="44.18679" lon="3.01132">
        <ele>782</ele>
        <time>2022-07-12T14:13:11Z</time>
      </trkpt>
      <trkpt lat="44.18664" lon="3.01129">
        <ele>781.6</ele>
        <time>2022-07-12T14:13:13Z</time>
      </trkpt>
      <trkpt lat="44.18634" lon="3.0112">
        <ele>781</ele>
        <time>2022-07-12T14:13:17Z</time>
      </trkpt>
      <trkpt lat="44.18618" lon="3.01116">
        <ele>780.2</ele>
        <time>2022-07-12T14:13:19Z</time>
      </trkpt>
      <trkpt lat="44.18611" lon="3.01115">
        <ele>779.4</ele>
        <time>2022-07-12T14:13:20Z</time>
      </trkpt>
      <trkpt lat="44.18596" lon="3.01113">
        <ele>778.8</ele>
        <time>2022-07-12T14:13:22Z</time>
      </trkpt>
      <trkpt lat="44.18589" lon="3.01111">
        <ele>778.4</ele>
        <time>2022-07-12T14:13:23Z</time>
      </trkpt>
      <trkpt lat="44.18575" lon="3.01108">
        <ele>776.8</ele>
        <time>2022-07-12T14:13:25Z</time>
      </trkpt>
      <trkpt lat="44.18569" lon="3.01106">
        <ele>776.6</ele>
        <time>2022-07-12T14:13:26Z</time>
      </trkpt>
      <trkpt lat="44.18536" lon="3.011">
        <ele>775.8</ele>
        <time>2022-07-12T14:13:31Z</time>
      </trkpt>
      <trkpt lat="44.18507" lon="3.01092">
        <ele>774.8</ele>
        <time>2022-07-12T14:13:36Z</time>
      </trkpt>
      <trkpt lat="44.18502" lon="3.01091">
        <ele>774.6</ele>
        <time>2022-07-12T14:13:37Z</time>
      </trkpt>
      <trkpt lat="44.18485" lon="3.01088">
        <ele>774.4</ele>
        <time>2022-07-12T14:13:40Z</time>
      </trkpt>
      <trkpt lat="44.18475" lon="3.01086">
        <ele>774.2</ele>
        <time>2022-07-12T14:13:42Z</time>
      </trkpt>
      <trkpt lat="44.18464" lon="3.01084">
        <ele>773.8</ele>
        <time>2022-07-12T14:13:44Z</time>
      </trkpt>
      <trkpt lat="44.18453" lon="3.01082">
        <ele>773</ele>
        <time>2022-07-12T14:13:46Z</time>
      </trkpt>
      <trkpt lat="44.18448" lon="3.0108">
        <ele>772.6</ele>
        <time>2022-07-12T14:13:47Z</time>
      </trkpt>
      <trkpt lat="44.18442" lon="3.01077">
        <ele>772.6</ele>
        <time>2022-07-12T14:13:48Z</time>
      </trkpt>
      <trkpt lat="44.18416" lon="3.01068">
        <ele>772.4</ele>
        <time>2022-07-12T14:13:53Z</time>
      </trkpt>
      <trkpt lat="44.18406" lon="3.01064">
        <ele>771.6</ele>
        <time>2022-07-12T14:13:55Z</time>
      </trkpt>
      <trkpt lat="44.18389" lon="3.01057">
        <ele>770.2</ele>
        <time>2022-07-12T14:13:58Z</time>
      </trkpt>
      <trkpt lat="44.18371" lon="3.01049">
        <ele>769.8</ele>
        <time>2022-07-12T14:14:01Z</time>
      </trkpt>
      <trkpt lat="44.18346" lon="3.0104">
        <ele>769.2</ele>
        <time>2022-07-12T14:14:05Z</time>
      </trkpt>
      <trkpt lat="44.18334" lon="3.01036">
        <ele>768.6</ele>
        <time>2022-07-12T14:14:07Z</time>
      </trkpt>
      <trkpt lat="44.18328" lon="3.01035">
        <ele>768.2</ele>
        <time>2022-07-12T14:14:08Z</time>
      </trkpt>
      <trkpt lat="44.18322" lon="3.01034">
        <ele>768</ele>
        <time>2022-07-12T14:14:09Z</time>
      </trkpt>
      <trkpt lat="44.18303" lon="3.01028">
        <ele>767</ele>
        <time>2022-07-12T14:14:12Z</time>
      </trkpt>
      <trkpt lat="44.1829" lon="3.01023">
        <ele>766.4</ele>
        <time>2022-07-12T14:14:14Z</time>
      </trkpt>
      <trkpt lat="44.18284" lon="3.01021">
        <ele>766</ele>
        <time>2022-07-12T14:14:15Z</time>
      </trkpt>
      <trkpt lat="44.18263" lon="3.0101">
        <ele>765.4</ele>
        <time>2022-07-12T14:14:19Z</time>
      </trkpt>
      <trkpt lat="44.1825" lon="3.01005">
        <ele>764.8</ele>
        <time>2022-07-12T14:14:21Z</time>
      </trkpt>
      <trkpt lat="44.1824" lon="3.01001">
        <ele>764.6</ele>
        <time>2022-07-12T14:14:23Z</time>
      </trkpt>
      <trkpt lat="44.18222" lon="3.00995">
        <ele>763.8</ele>
        <time>2022-07-12T14:14:26Z</time>
      </trkpt>
      <trkpt lat="44.18214" lon="3.00991">
        <ele>763.6</ele>
        <time>2022-07-12T14:14:27Z</time>
      </trkpt>
      <trkpt lat="44.18207" lon="3.00988">
        <ele>763.4</ele>
        <time>2022-07-12T14:14:28Z</time>
      </trkpt>
      <trkpt lat="44.18197" lon="3.00984">
        <ele>763</ele>
        <time>2022-07-12T14:14:30Z</time>
      </trkpt>
      <trkpt lat="44.18186" lon="3.00981">
        <ele>762.8</ele>
        <time>2022-07-12T14:14:32Z</time>
      </trkpt>
      <trkpt lat="44.18177" lon="3.00978">
        <ele>762.4</ele>
        <time>2022-07-12T14:14:33Z</time>
      </trkpt>
      <trkpt lat="44.18154" lon="3.00969">
        <ele>761.8</ele>
        <time>2022-07-12T14:14:36Z</time>
      </trkpt>
      <trkpt lat="44.18137" lon="3.00961">
        <ele>761.2</ele>
        <time>2022-07-12T14:14:38Z</time>
      </trkpt>
      <trkpt lat="44.18114" lon="3.00951">
        <ele>760.4</ele>
        <time>2022-07-12T14:14:41Z</time>
      </trkpt>
      <trkpt lat="44.18105" lon="3.00949">
        <ele>760.2</ele>
        <time>2022-07-12T14:14:42Z</time>
      </trkpt>
      <trkpt lat="44.18078" lon="3.00939">
        <ele>759</ele>
        <time>2022-07-12T14:14:46Z</time>
      </trkpt>
      <trkpt lat="44.18071" lon="3.00936">
        <ele>758.8</ele>
        <time>2022-07-12T14:14:47Z</time>
      </trkpt>
      <trkpt lat="44.18046" lon="3.00922">
        <ele>758</ele>
        <time>2022-07-12T14:14:50Z</time>
      </trkpt>
      <trkpt lat="44.18019" lon="3.00914">
        <ele>757.2</ele>
        <time>2022-07-12T14:14:54Z</time>
      </trkpt>
      <trkpt lat="44.18013" lon="3.00913">
        <ele>756.6</ele>
        <time>2022-07-12T14:14:55Z</time>
      </trkpt>
      <trkpt lat="44.18001" lon="3.00909">
        <ele>755.8</ele>
        <time>2022-07-12T14:14:57Z</time>
      </trkpt>
      <trkpt lat="44.17996" lon="3.00909">
        <ele>755</ele>
        <time>2022-07-12T14:14:58Z</time>
      </trkpt>
      <trkpt lat="44.17991" lon="3.00911">
        <ele>754.8</ele>
        <time>2022-07-12T14:14:59Z</time>
      </trkpt>
      <trkpt lat="44.17981" lon="3.00918">
        <ele>753.8</ele>
        <time>2022-07-12T14:15:01Z</time>
      </trkpt>
      <trkpt lat="44.17976" lon="3.00923">
        <ele>753</ele>
        <time>2022-07-12T14:15:02Z</time>
      </trkpt>
      <trkpt lat="44.17971" lon="3.00928">
        <ele>752.8</ele>
        <time>2022-07-12T14:15:03Z</time>
      </trkpt>
      <trkpt lat="44.17957" lon="3.00942">
        <ele>752</ele>
        <time>2022-07-12T14:15:06Z</time>
      </trkpt>
      <trkpt lat="44.17953" lon="3.00946">
        <ele>751.4</ele>
        <time>2022-07-12T14:15:07Z</time>
      </trkpt>
      <trkpt lat="44.17948" lon="3.00951">
        <ele>751.2</ele>
        <time>2022-07-12T14:15:08Z</time>
      </trkpt>
      <trkpt lat="44.1793" lon="3.00969">
        <ele>750</ele>
        <time>2022-07-12T14:15:11Z</time>
      </trkpt>
      <trkpt lat="44.17917" lon="3.00982">
        <ele>748.8</ele>
        <time>2022-07-12T14:15:13Z</time>
      </trkpt>
      <trkpt lat="44.17912" lon="3.00988">
        <ele>748.6</ele>
        <time>2022-07-12T14:15:14Z</time>
      </trkpt>
      <trkpt lat="44.17899" lon="3.00999">
        <ele>748</ele>
        <time>2022-07-12T14:15:16Z</time>
      </trkpt>
      <trkpt lat="44.17892" lon="3.01003">
        <ele>747.8</ele>
        <time>2022-07-12T14:15:17Z</time>
      </trkpt>
      <trkpt lat="44.17886" lon="3.01008">
        <ele>747.6</ele>
        <time>2022-07-12T14:15:18Z</time>
      </trkpt>
      <trkpt lat="44.17859" lon="3.01034">
        <ele>746.8</ele>
        <time>2022-07-12T14:15:22Z</time>
      </trkpt>
      <trkpt lat="44.17852" lon="3.01041">
        <ele>746.6</ele>
        <time>2022-07-12T14:15:23Z</time>
      </trkpt>
      <trkpt lat="44.1784" lon="3.01054">
        <ele>745.8</ele>
        <time>2022-07-12T14:15:25Z</time>
      </trkpt>
      <trkpt lat="44.1783" lon="3.01057">
        <ele>744.2</ele>
        <time>2022-07-12T14:15:27Z</time>
      </trkpt>
      <trkpt lat="44.17822" lon="3.01061">
        <ele>742.8</ele>
        <time>2022-07-12T14:15:29Z</time>
      </trkpt>
      <trkpt lat="44.17815" lon="3.01065">
        <ele>741.4</ele>
        <time>2022-07-12T14:15:31Z</time>
      </trkpt>
      <trkpt lat="44.17817" lon="3.01074">
        <ele>740.2</ele>
        <time>2022-07-12T14:15:34Z</time>
      </trkpt>
      <trkpt lat="44.17818" lon="3.01076">
        <ele>740</ele>
        <time>2022-07-12T14:15:35Z</time>
      </trkpt>
      <trkpt lat="44.17822" lon="3.01096">
        <ele>739.6</ele>
        <time>2022-07-12T14:15:39Z</time>
      </trkpt>
      <trkpt lat="44.17823" lon="3.01101">
        <ele>739.6</ele>
        <time>2022-07-12T14:15:40Z</time>
      </trkpt>
      <trkpt lat="44.17828" lon="3.01108">
        <ele>739.4</ele>
        <time>2022-07-12T14:15:42Z</time>
      </trkpt>
      <trkpt lat="44.17833" lon="3.01113">
        <ele>739.2</ele>
        <time>2022-07-12T14:15:44Z</time>
      </trkpt>
      <trkpt lat="44.17843" lon="3.01125">
        <ele>737.8</ele>
        <time>2022-07-12T14:15:47Z</time>
      </trkpt>
      <trkpt lat="44.17844" lon="3.01129">
        <ele>737.8</ele>
        <time>2022-07-12T14:15:48Z</time>
      </trkpt>
      <trkpt lat="44.17845" lon="3.01133">
        <ele>737.4</ele>
        <time>2022-07-12T14:15:49Z</time>
      </trkpt>
      <trkpt lat="44.17845" lon="3.01136">
        <ele>737.2</ele>
        <time>2022-07-12T14:15:50Z</time>
      </trkpt>
      <trkpt lat="44.17845" lon="3.01139">
        <ele>736.8</ele>
        <time>2022-07-12T14:15:51Z</time>
      </trkpt>
      <trkpt lat="44.17846" lon="3.01142">
        <ele>736</ele>
        <time>2022-07-12T14:15:52Z</time>
      </trkpt>
      <trkpt lat="44.17847" lon="3.01145">
        <ele>735.4</ele>
        <time>2022-07-12T14:15:53Z</time>
      </trkpt>
      <trkpt lat="44.17848" lon="3.01147">
        <ele>734.8</ele>
        <time>2022-07-12T14:15:54Z</time>
      </trkpt>
      <trkpt lat="44.1785" lon="3.01155">
        <ele>734.2</ele>
        <time>2022-07-12T14:15:56Z</time>
      </trkpt>
      <trkpt lat="44.17854" lon="3.0117">
        <ele>734</ele>
        <time>2022-07-12T14:15:59Z</time>
      </trkpt>
      <trkpt lat="44.17851" lon="3.01193">
        <ele>734</ele>
        <time>2022-07-12T14:16:04Z</time>
      </trkpt>
      <trkpt lat="44.1785" lon="3.012">
        <ele>734.4</ele>
        <time>2022-07-12T14:16:07Z</time>
      </trkpt>
      <trkpt lat="44.1785" lon="3.01201">
        <ele>734.6</ele>
        <time>2022-07-12T14:16:08Z</time>
      </trkpt>
      <trkpt lat="44.17849" lon="3.01203">
        <ele>734.8</ele>
        <time>2022-07-12T14:16:11Z</time>
      </trkpt>
      <trkpt lat="44.17849" lon="3.01203">
        <ele>735</ele>
        <time>2022-07-12T14:16:13Z</time>
      </trkpt>
      <trkpt lat="44.17849" lon="3.01201">
        <ele>735</ele>
        <time>2022-07-12T14:16:18Z</time>
      </trkpt>
      <trkpt lat="44.17849" lon="3.01197">
        <ele>735</ele>
        <time>2022-07-12T14:16:20Z</time>
      </trkpt>
      <trkpt lat="44.17844" lon="3.01189">
        <ele>734.4</ele>
        <time>2022-07-12T14:16:24Z</time>
      </trkpt>
      <trkpt lat="44.17827" lon="3.01192">
        <ele>733.4</ele>
        <time>2022-07-12T14:16:29Z</time>
      </trkpt>
      <trkpt lat="44.17824" lon="3.01195">
        <ele>733.2</ele>
        <time>2022-07-12T14:16:30Z</time>
      </trkpt>
      <trkpt lat="44.17815" lon="3.01203">
        <ele>732.6</ele>
        <time>2022-07-12T14:16:33Z</time>
      </trkpt>
      <trkpt lat="44.17806" lon="3.01208">
        <ele>732.4</ele>
        <time>2022-07-12T14:16:35Z</time>
      </trkpt>
      <trkpt lat="44.17785" lon="3.01231">
        <ele>732.2</ele>
        <time>2022-07-12T14:16:41Z</time>
      </trkpt>
      <trkpt lat="44.17762" lon="3.01251">
        <ele>731.4</ele>
        <time>2022-07-12T14:16:47Z</time>
      </trkpt>
      <trkpt lat="44.17754" lon="3.01257">
        <ele>731</ele>
        <time>2022-07-12T14:16:49Z</time>
      </trkpt>
      <trkpt lat="44.1775" lon="3.01261">
        <ele>731</ele>
        <time>2022-07-12T14:16:50Z</time>
      </trkpt>
      <trkpt lat="44.17734" lon="3.01278">
        <ele>730.4</ele>
        <time>2022-07-12T14:16:54Z</time>
      </trkpt>
      <trkpt lat="44.17722" lon="3.01287">
        <ele>730</ele>
        <time>2022-07-12T14:16:57Z</time>
      </trkpt>
      <trkpt lat="44.17713" lon="3.01295">
        <ele>730.2</ele>
        <time>2022-07-12T14:16:59Z</time>
      </trkpt>
      <trkpt lat="44.17693" lon="3.01316">
        <ele>729.8</ele>
        <time>2022-07-12T14:17:04Z</time>
      </trkpt>
      <trkpt lat="44.1767" lon="3.01346">
        <ele>729.4</ele>
        <time>2022-07-12T14:17:10Z</time>
      </trkpt>
      <trkpt lat="44.17662" lon="3.01362">
        <ele>729.2</ele>
        <time>2022-07-12T14:17:13Z</time>
      </trkpt>
      <trkpt lat="44.17654" lon="3.01378">
        <ele>728.8</ele>
        <time>2022-07-12T14:17:16Z</time>
      </trkpt>
      <trkpt lat="44.17651" lon="3.01384">
        <ele>728.8</ele>
        <time>2022-07-12T14:17:17Z</time>
      </trkpt>
      <trkpt lat="44.17645" lon="3.01394">
        <ele>728.6</ele>
        <time>2022-07-12T14:17:19Z</time>
      </trkpt>
      <trkpt lat="44.1764" lon="3.01403">
        <ele>728.6</ele>
        <time>2022-07-12T14:17:21Z</time>
      </trkpt>
      <trkpt lat="44.17616" lon="3.01444">
        <ele>728.6</ele>
        <time>2022-07-12T14:17:29Z</time>
      </trkpt>
      <trkpt lat="44.17613" lon="3.01449">
        <ele>728.8</ele>
        <time>2022-07-12T14:17:30Z</time>
      </trkpt>
      <trkpt lat="44.17603" lon="3.01464">
        <ele>728.8</ele>
        <time>2022-07-12T14:17:33Z</time>
      </trkpt>
      <trkpt lat="44.17598" lon="3.01471">
        <ele>728.8</ele>
        <time>2022-07-12T14:17:35Z</time>
      </trkpt>
      <trkpt lat="44.17584" lon="3.01493">
        <ele>728.8</ele>
        <time>2022-07-12T14:17:40Z</time>
      </trkpt>
      <trkpt lat="44.17581" lon="3.01497">
        <ele>729.4</ele>
        <time>2022-07-12T14:17:41Z</time>
      </trkpt>
      <trkpt lat="44.17571" lon="3.01511">
        <ele>729.4</ele>
        <time>2022-07-12T14:17:44Z</time>
      </trkpt>
      <trkpt lat="44.17557" lon="3.01531">
        <ele>729.8</ele>
        <time>2022-07-12T14:17:49Z</time>
      </trkpt>
      <trkpt lat="44.17541" lon="3.01557">
        <ele>730</ele>
        <time>2022-07-12T14:17:55Z</time>
      </trkpt>
      <trkpt lat="44.1753" lon="3.01579">
        <ele>730.4</ele>
        <time>2022-07-12T14:18:00Z</time>
      </trkpt>
      <trkpt lat="44.17519" lon="3.01584">
        <ele>730.6</ele>
        <time>2022-07-12T14:18:04Z</time>
      </trkpt>
      <trkpt lat="44.175" lon="3.01585">
        <ele>730.6</ele>
        <time>2022-07-12T14:18:08Z</time>
      </trkpt>
      <trkpt lat="44.17495" lon="3.01585">
        <ele>730.6</ele>
        <time>2022-07-12T14:18:09Z</time>
      </trkpt>
      <trkpt lat="44.17479" lon="3.01584">
        <ele>728.4</ele>
        <time>2022-07-12T14:18:12Z</time>
      </trkpt>
      <trkpt lat="44.17474" lon="3.01584">
        <ele>727.6</ele>
        <time>2022-07-12T14:18:13Z</time>
      </trkpt>
      <trkpt lat="44.17468" lon="3.01584">
        <ele>727.4</ele>
        <time>2022-07-12T14:18:14Z</time>
      </trkpt>
      <trkpt lat="44.17454" lon="3.01581">
        <ele>725.4</ele>
        <time>2022-07-12T14:18:17Z</time>
      </trkpt>
      <trkpt lat="44.1745" lon="3.01577">
        <ele>724.4</ele>
        <time>2022-07-12T14:18:18Z</time>
      </trkpt>
      <trkpt lat="44.17445" lon="3.01572">
        <ele>723.4</ele>
        <time>2022-07-12T14:18:19Z</time>
      </trkpt>
      <trkpt lat="44.17441" lon="3.01566">
        <ele>723</ele>
        <time>2022-07-12T14:18:20Z</time>
      </trkpt>
      <trkpt lat="44.17438" lon="3.0156">
        <ele>721.8</ele>
        <time>2022-07-12T14:18:21Z</time>
      </trkpt>
      <trkpt lat="44.17434" lon="3.01555">
        <ele>721</ele>
        <time>2022-07-12T14:18:22Z</time>
      </trkpt>
      <trkpt lat="44.17432" lon="3.01549">
        <ele>720.6</ele>
        <time>2022-07-12T14:18:23Z</time>
      </trkpt>
      <trkpt lat="44.17431" lon="3.01544">
        <ele>719.4</ele>
        <time>2022-07-12T14:18:24Z</time>
      </trkpt>
      <trkpt lat="44.17429" lon="3.01536">
        <ele>718.4</ele>
        <time>2022-07-12T14:18:26Z</time>
      </trkpt>
      <trkpt lat="44.17422" lon="3.0153">
        <ele>716.6</ele>
        <time>2022-07-12T14:18:28Z</time>
      </trkpt>
      <trkpt lat="44.17421" lon="3.01528">
        <ele>715.8</ele>
        <time>2022-07-12T14:18:29Z</time>
      </trkpt>
      <trkpt lat="44.1742" lon="3.01525">
        <ele>715.4</ele>
        <time>2022-07-12T14:18:30Z</time>
      </trkpt>
      <trkpt lat="44.17415" lon="3.01516">
        <ele>713.8</ele>
        <time>2022-07-12T14:18:32Z</time>
      </trkpt>
      <trkpt lat="44.17413" lon="3.01511">
        <ele>712.2</ele>
        <time>2022-07-12T14:18:34Z</time>
      </trkpt>
      <trkpt lat="44.17413" lon="3.01505">
        <ele>711</ele>
        <time>2022-07-12T14:18:36Z</time>
      </trkpt>
      <trkpt lat="44.17411" lon="3.01503">
        <ele>709.2</ele>
        <time>2022-07-12T14:18:38Z</time>
      </trkpt>
      <trkpt lat="44.17409" lon="3.01499">
        <ele>707.8</ele>
        <time>2022-07-12T14:18:40Z</time>
      </trkpt>
      <trkpt lat="44.17407" lon="3.01497">
        <ele>707.4</ele>
        <time>2022-07-12T14:18:41Z</time>
      </trkpt>
      <trkpt lat="44.17407" lon="3.01497">
        <ele>706.6</ele>
        <time>2022-07-12T14:18:42Z</time>
      </trkpt>
      <trkpt lat="44.17407" lon="3.01496">
        <ele>705.6</ele>
        <time>2022-07-12T14:18:44Z</time>
      </trkpt>
      <trkpt lat="44.17405" lon="3.01492">
        <ele>705.4</ele>
        <time>2022-07-12T14:18:45Z</time>
      </trkpt>
      <trkpt lat="44.17402" lon="3.01491">
        <ele>705.4</ele>
        <time>2022-07-12T14:18:46Z</time>
      </trkpt>
      <trkpt lat="44.17396" lon="3.01491">
        <ele>705.4</ele>
        <time>2022-07-12T14:18:49Z</time>
      </trkpt>
      <trkpt lat="44.17391" lon="3.01493">
        <ele>706</ele>
        <time>2022-07-12T14:18:52Z</time>
      </trkpt>
      <trkpt lat="44.17389" lon="3.01493">
        <ele>706.2</ele>
        <time>2022-07-12T14:18:53Z</time>
      </trkpt>
      <trkpt lat="44.17383" lon="3.01493">
        <ele>706.6</ele>
        <time>2022-07-12T14:18:56Z</time>
      </trkpt>
      <trkpt lat="44.17381" lon="3.01494">
        <ele>706.6</ele>
        <time>2022-07-12T14:18:57Z</time>
      </trkpt>
      <trkpt lat="44.17376" lon="3.01496">
        <ele>707</ele>
        <time>2022-07-12T14:18:59Z</time>
      </trkpt>
      <trkpt lat="44.1737" lon="3.01497">
        <ele>707.4</ele>
        <time>2022-07-12T14:19:02Z</time>
      </trkpt>
      <trkpt lat="44.17368" lon="3.01498">
        <ele>707.4</ele>
        <time>2022-07-12T14:19:03Z</time>
      </trkpt>
      <trkpt lat="44.17365" lon="3.01499">
        <ele>707.6</ele>
        <time>2022-07-12T14:19:04Z</time>
      </trkpt>
      <trkpt lat="44.17361" lon="3.01503">
        <ele>707.8</ele>
        <time>2022-07-12T14:19:06Z</time>
      </trkpt>
      <trkpt lat="44.17353" lon="3.01508">
        <ele>708</ele>
        <time>2022-07-12T14:19:09Z</time>
      </trkpt>
      <trkpt lat="44.17338" lon="3.01521">
        <ele>707.8</ele>
        <time>2022-07-12T14:19:14Z</time>
      </trkpt>
      <trkpt lat="44.17332" lon="3.01524">
        <ele>707.6</ele>
        <time>2022-07-12T14:19:16Z</time>
      </trkpt>
      <trkpt lat="44.17326" lon="3.01527">
        <ele>706.6</ele>
        <time>2022-07-12T14:19:18Z</time>
      </trkpt>
      <trkpt lat="44.17323" lon="3.01531">
        <ele>706.2</ele>
        <time>2022-07-12T14:19:19Z</time>
      </trkpt>
      <trkpt lat="44.17311" lon="3.01551">
        <ele>705.2</ele>
        <time>2022-07-12T14:19:23Z</time>
      </trkpt>
      <trkpt lat="44.17305" lon="3.01555">
        <ele>704.6</ele>
        <time>2022-07-12T14:19:25Z</time>
      </trkpt>
      <trkpt lat="44.17297" lon="3.01554">
        <ele>704</ele>
        <time>2022-07-12T14:19:27Z</time>
      </trkpt>
      <trkpt lat="44.17287" lon="3.0156">
        <ele>703.6</ele>
        <time>2022-07-12T14:19:29Z</time>
      </trkpt>
      <trkpt lat="44.17276" lon="3.01571">
        <ele>703</ele>
        <time>2022-07-12T14:19:31Z</time>
      </trkpt>
      <trkpt lat="44.17267" lon="3.01575">
        <ele>702.2</ele>
        <time>2022-07-12T14:19:33Z</time>
      </trkpt>
      <trkpt lat="44.17256" lon="3.01575">
        <ele>701.2</ele>
        <time>2022-07-12T14:19:35Z</time>
      </trkpt>
      <trkpt lat="44.17252" lon="3.01575">
        <ele>701</ele>
        <time>2022-07-12T14:19:36Z</time>
      </trkpt>
      <trkpt lat="44.17243" lon="3.01573">
        <ele>700.2</ele>
        <time>2022-07-12T14:19:38Z</time>
      </trkpt>
      <trkpt lat="44.17237" lon="3.01574">
        <ele>699.8</ele>
        <time>2022-07-12T14:19:40Z</time>
      </trkpt>
      <trkpt lat="44.17229" lon="3.01574">
        <ele>699.6</ele>
        <time>2022-07-12T14:19:44Z</time>
      </trkpt>
      <trkpt lat="44.17225" lon="3.01571">
        <ele>699.8</ele>
        <time>2022-07-12T14:19:49Z</time>
      </trkpt>
      <trkpt lat="44.17221" lon="3.01569">
        <ele>700.4</ele>
        <time>2022-07-12T14:19:52Z</time>
      </trkpt>
      <trkpt lat="44.17219" lon="3.01568">
        <ele>701</ele>
        <time>2022-07-12T14:19:54Z</time>
      </trkpt>
      <trkpt lat="44.17217" lon="3.01567">
        <ele>701</ele>
        <time>2022-07-12T14:19:55Z</time>
      </trkpt>
      <trkpt lat="44.17205" lon="3.01563">
        <ele>701.4</ele>
        <time>2022-07-12T14:19:59Z</time>
      </trkpt>
      <trkpt lat="44.17203" lon="3.01562">
        <ele>701.4</ele>
        <time>2022-07-12T14:20:00Z</time>
      </trkpt>
      <trkpt lat="44.1719" lon="3.0156">
        <ele>702</ele>
        <time>2022-07-12T14:20:06Z</time>
      </trkpt>
      <trkpt lat="44.17188" lon="3.01558">
        <ele>702</ele>
        <time>2022-07-12T14:20:07Z</time>
      </trkpt>
      <trkpt lat="44.17185" lon="3.01556">
        <ele>702.4</ele>
        <time>2022-07-12T14:20:09Z</time>
      </trkpt>
      <trkpt lat="44.17183" lon="3.01556">
        <ele>702.8</ele>
        <time>2022-07-12T14:20:10Z</time>
      </trkpt>
      <trkpt lat="44.17182" lon="3.01555">
        <ele>703.2</ele>
        <time>2022-07-12T14:20:11Z</time>
      </trkpt>
      <trkpt lat="44.17178" lon="3.01555">
        <ele>703.6</ele>
        <time>2022-07-12T14:20:13Z</time>
      </trkpt>
      <trkpt lat="44.17171" lon="3.01554">
        <ele>703.8</ele>
        <time>2022-07-12T14:20:16Z</time>
      </trkpt>
      <trkpt lat="44.17158" lon="3.01553">
        <ele>704.2</ele>
        <time>2022-07-12T14:20:21Z</time>
      </trkpt>
      <trkpt lat="44.17148" lon="3.0155">
        <ele>704.4</ele>
        <time>2022-07-12T14:20:24Z</time>
      </trkpt>
      <trkpt lat="44.17144" lon="3.0155">
        <ele>704.6</ele>
        <time>2022-07-12T14:20:25Z</time>
      </trkpt>
      <trkpt lat="44.17139" lon="3.01552">
        <ele>704.8</ele>
        <time>2022-07-12T14:20:27Z</time>
      </trkpt>
      <trkpt lat="44.17137" lon="3.01552">
        <ele>705</ele>
        <time>2022-07-12T14:20:28Z</time>
      </trkpt>
      <trkpt lat="44.17132" lon="3.01561">
        <ele>705.4</ele>
        <time>2022-07-12T14:20:31Z</time>
      </trkpt>
      <trkpt lat="44.17129" lon="3.01565">
        <ele>705.4</ele>
        <time>2022-07-12T14:20:33Z</time>
      </trkpt>
      <trkpt lat="44.17128" lon="3.01567">
        <ele>705.8</ele>
        <time>2022-07-12T14:20:35Z</time>
      </trkpt>
      <trkpt lat="44.17123" lon="3.0157">
        <ele>706</ele>
        <time>2022-07-12T14:20:38Z</time>
      </trkpt>
      <trkpt lat="44.17121" lon="3.01573">
        <ele>706.4</ele>
        <time>2022-07-12T14:20:40Z</time>
      </trkpt>
      <trkpt lat="44.17121" lon="3.01574">
        <ele>706.6</ele>
        <time>2022-07-12T14:20:41Z</time>
      </trkpt>
      <trkpt lat="44.17119" lon="3.01575">
        <ele>707</ele>
        <time>2022-07-12T14:20:43Z</time>
      </trkpt>
      <trkpt lat="44.17118" lon="3.01578">
        <ele>707.6</ele>
        <time>2022-07-12T14:20:47Z</time>
      </trkpt>
      <trkpt lat="44.17116" lon="3.01579">
        <ele>707.8</ele>
        <time>2022-07-12T14:20:48Z</time>
      </trkpt>
      <trkpt lat="44.17109" lon="3.01588">
        <ele>709</ele>
        <time>2022-07-12T14:20:54Z</time>
      </trkpt>
      <trkpt lat="44.17107" lon="3.0159">
        <ele>709.2</ele>
        <time>2022-07-12T14:20:55Z</time>
      </trkpt>
      <trkpt lat="44.17103" lon="3.01596">
        <ele>709.6</ele>
        <time>2022-07-12T14:20:57Z</time>
      </trkpt>
      <trkpt lat="44.17101" lon="3.01599">
        <ele>709.8</ele>
        <time>2022-07-12T14:20:58Z</time>
      </trkpt>
      <trkpt lat="44.17097" lon="3.0161">
        <ele>710.2</ele>
        <time>2022-07-12T14:21:01Z</time>
      </trkpt>
      <trkpt lat="44.17092" lon="3.0162">
        <ele>710.6</ele>
        <time>2022-07-12T14:21:04Z</time>
      </trkpt>
      <trkpt lat="44.17078" lon="3.01633">
        <ele>711.4</ele>
        <time>2022-07-12T14:21:10Z</time>
      </trkpt>
      <trkpt lat="44.17076" lon="3.01634">
        <ele>711.4</ele>
        <time>2022-07-12T14:21:11Z</time>
      </trkpt>
      <trkpt lat="44.17058" lon="3.01644">
        <ele>712</ele>
        <time>2022-07-12T14:21:17Z</time>
      </trkpt>
      <trkpt lat="44.17053" lon="3.01646">
        <ele>712.6</ele>
        <time>2022-07-12T14:21:21Z</time>
      </trkpt>
      <trkpt lat="44.17051" lon="3.01647">
        <ele>712.6</ele>
        <time>2022-07-12T14:21:22Z</time>
      </trkpt>
      <trkpt lat="44.17032" lon="3.01667">
        <ele>713.4</ele>
        <time>2022-07-12T14:21:31Z</time>
      </trkpt>
      <trkpt lat="44.1703" lon="3.01669">
        <ele>713.6</ele>
        <time>2022-07-12T14:21:32Z</time>
      </trkpt>
      <trkpt lat="44.17014" lon="3.0169">
        <ele>714.4</ele>
        <time>2022-07-12T14:21:39Z</time>
      </trkpt>
      <trkpt lat="44.17" lon="3.017">
        <ele>714.8</ele>
        <time>2022-07-12T14:21:44Z</time>
      </trkpt>
      <trkpt lat="44.16998" lon="3.01702">
        <ele>714.8</ele>
        <time>2022-07-12T14:21:45Z</time>
      </trkpt>
      <trkpt lat="44.16977" lon="3.01721">
        <ele>715.8</ele>
        <time>2022-07-12T14:21:54Z</time>
      </trkpt>
      <trkpt lat="44.16974" lon="3.01725">
        <ele>716</ele>
        <time>2022-07-12T14:21:55Z</time>
      </trkpt>
      <trkpt lat="44.16956" lon="3.0174">
        <ele>716.8</ele>
        <time>2022-07-12T14:22:02Z</time>
      </trkpt>
      <trkpt lat="44.16938" lon="3.0175">
        <ele>716.8</ele>
        <time>2022-07-12T14:22:08Z</time>
      </trkpt>
      <trkpt lat="44.1693" lon="3.0175">
        <ele>717.2</ele>
        <time>2022-07-12T14:22:11Z</time>
      </trkpt>
      <trkpt lat="44.16925" lon="3.01749">
        <ele>717.4</ele>
        <time>2022-07-12T14:22:13Z</time>
      </trkpt>
      <trkpt lat="44.1691" lon="3.01757">
        <ele>718</ele>
        <time>2022-07-12T14:22:18Z</time>
      </trkpt>
      <trkpt lat="44.16908" lon="3.01758">
        <ele>718.2</ele>
        <time>2022-07-12T14:22:19Z</time>
      </trkpt>
      <trkpt lat="44.16906" lon="3.01758">
        <ele>718.2</ele>
        <time>2022-07-12T14:22:20Z</time>
      </trkpt>
      <trkpt lat="44.169" lon="3.01758">
        <ele>718.4</ele>
        <time>2022-07-12T14:22:22Z</time>
      </trkpt>
      <trkpt lat="44.16879" lon="3.01752">
        <ele>718.6</ele>
        <time>2022-07-12T14:22:28Z</time>
      </trkpt>
      <trkpt lat="44.16863" lon="3.01747">
        <ele>718.8</ele>
        <time>2022-07-12T14:22:33Z</time>
      </trkpt>
      <trkpt lat="44.16854" lon="3.01749">
        <ele>718.8</ele>
        <time>2022-07-12T14:22:36Z</time>
      </trkpt>
      <trkpt lat="44.16851" lon="3.01748">
        <ele>718.8</ele>
        <time>2022-07-12T14:22:37Z</time>
      </trkpt>
      <trkpt lat="44.1683" lon="3.01743">
        <ele>718.4</ele>
        <time>2022-07-12T14:22:43Z</time>
      </trkpt>
      <trkpt lat="44.16817" lon="3.01743">
        <ele>718.2</ele>
        <time>2022-07-12T14:22:46Z</time>
      </trkpt>
      <trkpt lat="44.16813" lon="3.01741">
        <ele>718.2</ele>
        <time>2022-07-12T14:22:47Z</time>
      </trkpt>
      <trkpt lat="44.16798" lon="3.01728">
        <ele>717.2</ele>
        <time>2022-07-12T14:22:51Z</time>
      </trkpt>
      <trkpt lat="44.1679" lon="3.01718">
        <ele>716.8</ele>
        <time>2022-07-12T14:22:53Z</time>
      </trkpt>
      <trkpt lat="44.16787" lon="3.01711">
        <ele>716.6</ele>
        <time>2022-07-12T14:22:54Z</time>
      </trkpt>
      <trkpt lat="44.16783" lon="3.01698">
        <ele>716.2</ele>
        <time>2022-07-12T14:22:56Z</time>
      </trkpt>
      <trkpt lat="44.16778" lon="3.01687">
        <ele>716</ele>
        <time>2022-07-12T14:22:58Z</time>
      </trkpt>
      <trkpt lat="44.16771" lon="3.01676">
        <ele>715.6</ele>
        <time>2022-07-12T14:23:00Z</time>
      </trkpt>
      <trkpt lat="44.16763" lon="3.0167">
        <ele>715.2</ele>
        <time>2022-07-12T14:23:02Z</time>
      </trkpt>
      <trkpt lat="44.16744" lon="3.01663">
        <ele>713.8</ele>
        <time>2022-07-12T14:23:06Z</time>
      </trkpt>
      <trkpt lat="44.1674" lon="3.01658">
        <ele>712</ele>
        <time>2022-07-12T14:23:08Z</time>
      </trkpt>
      <trkpt lat="44.16736" lon="3.0165">
        <ele>710.6</ele>
        <time>2022-07-12T14:23:10Z</time>
      </trkpt>
      <trkpt lat="44.16731" lon="3.01645">
        <ele>710</ele>
        <time>2022-07-12T14:23:12Z</time>
      </trkpt>
      <trkpt lat="44.16728" lon="3.01644">
        <ele>709.4</ele>
        <time>2022-07-12T14:23:13Z</time>
      </trkpt>
      <trkpt lat="44.16721" lon="3.01643">
        <ele>708.2</ele>
        <time>2022-07-12T14:23:15Z</time>
      </trkpt>
      <trkpt lat="44.16713" lon="3.01646">
        <ele>707.8</ele>
        <time>2022-07-12T14:23:17Z</time>
      </trkpt>
      <trkpt lat="44.16695" lon="3.01659">
        <ele>707.6</ele>
        <time>2022-07-12T14:23:22Z</time>
      </trkpt>
      <trkpt lat="44.1668" lon="3.01666">
        <ele>707.4</ele>
        <time>2022-07-12T14:23:27Z</time>
      </trkpt>
      <trkpt lat="44.16655" lon="3.01679">
        <ele>708</ele>
        <time>2022-07-12T14:23:35Z</time>
      </trkpt>
      <trkpt lat="44.16628" lon="3.0169">
        <ele>708.2</ele>
        <time>2022-07-12T14:23:44Z</time>
      </trkpt>
      <trkpt lat="44.16611" lon="3.017">
        <ele>709</ele>
        <time>2022-07-12T14:23:51Z</time>
      </trkpt>
      <trkpt lat="44.16609" lon="3.01701">
        <ele>709</ele>
        <time>2022-07-12T14:23:52Z</time>
      </trkpt>
      <trkpt lat="44.16605" lon="3.01698">
        <ele>709.4</ele>
        <time>2022-07-12T14:23:54Z</time>
      </trkpt>
      <trkpt lat="44.16603" lon="3.01697">
        <ele>709.6</ele>
        <time>2022-07-12T14:23:55Z</time>
      </trkpt>
      <trkpt lat="44.16594" lon="3.01683">
        <ele>710</ele>
        <time>2022-07-12T14:24:01Z</time>
      </trkpt>
      <trkpt lat="44.16588" lon="3.01681">
        <ele>710</ele>
        <time>2022-07-12T14:24:03Z</time>
      </trkpt>
      <trkpt lat="44.16583" lon="3.01683">
        <ele>710.2</ele>
        <time>2022-07-12T14:24:05Z</time>
      </trkpt>
      <trkpt lat="44.16569" lon="3.01698">
        <ele>710.4</ele>
        <time>2022-07-12T14:24:10Z</time>
      </trkpt>
      <trkpt lat="44.16554" lon="3.01707">
        <ele>710.2</ele>
        <time>2022-07-12T14:24:14Z</time>
      </trkpt>
      <trkpt lat="44.16549" lon="3.0171">
        <ele>710</ele>
        <time>2022-07-12T14:24:15Z</time>
      </trkpt>
      <trkpt lat="44.16546" lon="3.01714">
        <ele>710</ele>
        <time>2022-07-12T14:24:16Z</time>
      </trkpt>
      <trkpt lat="44.16518" lon="3.01749">
        <ele>709</ele>
        <time>2022-07-12T14:24:23Z</time>
      </trkpt>
      <trkpt lat="44.16506" lon="3.01763">
        <ele>708.4</ele>
        <time>2022-07-12T14:24:26Z</time>
      </trkpt>
      <trkpt lat="44.16493" lon="3.01776">
        <ele>707.6</ele>
        <time>2022-07-12T14:24:29Z</time>
      </trkpt>
      <trkpt lat="44.16488" lon="3.01779">
        <ele>707.4</ele>
        <time>2022-07-12T14:24:30Z</time>
      </trkpt>
      <trkpt lat="44.16483" lon="3.01781">
        <ele>707.4</ele>
        <time>2022-07-12T14:24:31Z</time>
      </trkpt>
      <trkpt lat="44.16455" lon="3.01786">
        <ele>707.2</ele>
        <time>2022-07-12T14:24:36Z</time>
      </trkpt>
      <trkpt lat="44.16423" lon="3.01789">
        <ele>706.4</ele>
        <time>2022-07-12T14:24:41Z</time>
      </trkpt>
      <trkpt lat="44.16409" lon="3.0179">
        <ele>706</ele>
        <time>2022-07-12T14:24:43Z</time>
      </trkpt>
      <trkpt lat="44.16395" lon="3.01789">
        <ele>705.6</ele>
        <time>2022-07-12T14:24:45Z</time>
      </trkpt>
      <trkpt lat="44.16387" lon="3.01787">
        <ele>705.2</ele>
        <time>2022-07-12T14:24:46Z</time>
      </trkpt>
      <trkpt lat="44.16379" lon="3.01784">
        <ele>705</ele>
        <time>2022-07-12T14:24:47Z</time>
      </trkpt>
      <trkpt lat="44.16354" lon="3.01775">
        <ele>703.4</ele>
        <time>2022-07-12T14:24:50Z</time>
      </trkpt>
      <trkpt lat="44.16329" lon="3.01765">
        <ele>702.2</ele>
        <time>2022-07-12T14:24:53Z</time>
      </trkpt>
      <trkpt lat="44.16304" lon="3.01757">
        <ele>700.6</ele>
        <time>2022-07-12T14:24:56Z</time>
      </trkpt>
      <trkpt lat="44.16296" lon="3.01756">
        <ele>699.8</ele>
        <time>2022-07-12T14:24:57Z</time>
      </trkpt>
      <trkpt lat="44.16287" lon="3.01755">
        <ele>699.2</ele>
        <time>2022-07-12T14:24:58Z</time>
      </trkpt>
      <trkpt lat="44.16265" lon="3.01756">
        <ele>697.6</ele>
        <time>2022-07-12T14:25:01Z</time>
      </trkpt>
      <trkpt lat="44.16248" lon="3.01756">
        <ele>696.4</ele>
        <time>2022-07-12T14:25:03Z</time>
      </trkpt>
      <trkpt lat="44.16228" lon="3.01755">
        <ele>695</ele>
        <time>2022-07-12T14:25:05Z</time>
      </trkpt>
      <trkpt lat="44.1621" lon="3.01752">
        <ele>693.8</ele>
        <time>2022-07-12T14:25:07Z</time>
      </trkpt>
      <trkpt lat="44.16193" lon="3.01749">
        <ele>692.6</ele>
        <time>2022-07-12T14:25:09Z</time>
      </trkpt>
      <trkpt lat="44.16177" lon="3.01748">
        <ele>691.8</ele>
        <time>2022-07-12T14:25:11Z</time>
      </trkpt>
      <trkpt lat="44.16154" lon="3.01749">
        <ele>690.6</ele>
        <time>2022-07-12T14:25:14Z</time>
      </trkpt>
      <trkpt lat="44.16146" lon="3.0175">
        <ele>689.2</ele>
        <time>2022-07-12T14:25:15Z</time>
      </trkpt>
      <trkpt lat="44.16138" lon="3.01751">
        <ele>688.8</ele>
        <time>2022-07-12T14:25:16Z</time>
      </trkpt>
      <trkpt lat="44.1613" lon="3.01752">
        <ele>687.8</ele>
        <time>2022-07-12T14:25:17Z</time>
      </trkpt>
      <trkpt lat="44.16122" lon="3.01752">
        <ele>686.8</ele>
        <time>2022-07-12T14:25:18Z</time>
      </trkpt>
      <trkpt lat="44.16107" lon="3.01752">
        <ele>685.6</ele>
        <time>2022-07-12T14:25:20Z</time>
      </trkpt>
      <trkpt lat="44.16094" lon="3.01754">
        <ele>684.4</ele>
        <time>2022-07-12T14:25:22Z</time>
      </trkpt>
      <trkpt lat="44.1608" lon="3.01757">
        <ele>683</ele>
        <time>2022-07-12T14:25:24Z</time>
      </trkpt>
      <trkpt lat="44.16074" lon="3.01759">
        <ele>682.2</ele>
        <time>2022-07-12T14:25:25Z</time>
      </trkpt>
      <trkpt lat="44.16068" lon="3.01762">
        <ele>681.4</ele>
        <time>2022-07-12T14:25:26Z</time>
      </trkpt>
      <trkpt lat="44.16061" lon="3.01765">
        <ele>680.6</ele>
        <time>2022-07-12T14:25:27Z</time>
      </trkpt>
      <trkpt lat="44.16055" lon="3.01769">
        <ele>680.4</ele>
        <time>2022-07-12T14:25:28Z</time>
      </trkpt>
      <trkpt lat="44.16042" lon="3.01778">
        <ele>679.2</ele>
        <time>2022-07-12T14:25:30Z</time>
      </trkpt>
      <trkpt lat="44.1603" lon="3.01788">
        <ele>678.2</ele>
        <time>2022-07-12T14:25:32Z</time>
      </trkpt>
      <trkpt lat="44.16019" lon="3.01797">
        <ele>677.4</ele>
        <time>2022-07-12T14:25:34Z</time>
      </trkpt>
      <trkpt lat="44.16013" lon="3.01802">
        <ele>677</ele>
        <time>2022-07-12T14:25:35Z</time>
      </trkpt>
      <trkpt lat="44.15997" lon="3.01818">
        <ele>676</ele>
        <time>2022-07-12T14:25:38Z</time>
      </trkpt>
      <trkpt lat="44.15993" lon="3.01824">
        <ele>675.8</ele>
        <time>2022-07-12T14:25:39Z</time>
      </trkpt>
      <trkpt lat="44.15988" lon="3.0183">
        <ele>675.4</ele>
        <time>2022-07-12T14:25:40Z</time>
      </trkpt>
      <trkpt lat="44.15981" lon="3.01842">
        <ele>674.4</ele>
        <time>2022-07-12T14:25:42Z</time>
      </trkpt>
      <trkpt lat="44.15977" lon="3.01849">
        <ele>674.2</ele>
        <time>2022-07-12T14:25:43Z</time>
      </trkpt>
      <trkpt lat="44.15969" lon="3.01862">
        <ele>673.2</ele>
        <time>2022-07-12T14:25:45Z</time>
      </trkpt>
      <trkpt lat="44.15953" lon="3.01888">
        <ele>672.2</ele>
        <time>2022-07-12T14:25:49Z</time>
      </trkpt>
      <trkpt lat="44.15938" lon="3.0191">
        <ele>671.4</ele>
        <time>2022-07-12T14:25:52Z</time>
      </trkpt>
      <trkpt lat="44.15926" lon="3.01925">
        <ele>670.8</ele>
        <time>2022-07-12T14:25:54Z</time>
      </trkpt>
      <trkpt lat="44.15914" lon="3.01938">
        <ele>670.4</ele>
        <time>2022-07-12T14:25:56Z</time>
      </trkpt>
      <trkpt lat="44.15908" lon="3.01944">
        <ele>670.2</ele>
        <time>2022-07-12T14:25:57Z</time>
      </trkpt>
      <trkpt lat="44.15903" lon="3.0195">
        <ele>669.4</ele>
        <time>2022-07-12T14:25:58Z</time>
      </trkpt>
      <trkpt lat="44.15887" lon="3.01965">
        <ele>668.2</ele>
        <time>2022-07-12T14:26:01Z</time>
      </trkpt>
      <trkpt lat="44.15883" lon="3.01971">
        <ele>667.8</ele>
        <time>2022-07-12T14:26:02Z</time>
      </trkpt>
      <trkpt lat="44.15878" lon="3.01984">
        <ele>667</ele>
        <time>2022-07-12T14:26:04Z</time>
      </trkpt>
      <trkpt lat="44.15872" lon="3.01997">
        <ele>665.8</ele>
        <time>2022-07-12T14:26:06Z</time>
      </trkpt>
      <trkpt lat="44.15869" lon="3.02004">
        <ele>665</ele>
        <time>2022-07-12T14:26:07Z</time>
      </trkpt>
      <trkpt lat="44.15866" lon="3.0201">
        <ele>664.6</ele>
        <time>2022-07-12T14:26:08Z</time>
      </trkpt>
      <trkpt lat="44.15853" lon="3.02027">
        <ele>663.4</ele>
        <time>2022-07-12T14:26:11Z</time>
      </trkpt>
      <trkpt lat="44.15848" lon="3.02032">
        <ele>663.2</ele>
        <time>2022-07-12T14:26:12Z</time>
      </trkpt>
      <trkpt lat="44.15843" lon="3.02037">
        <ele>663</ele>
        <time>2022-07-12T14:26:13Z</time>
      </trkpt>
      <trkpt lat="44.15826" lon="3.02051">
        <ele>662</ele>
        <time>2022-07-12T14:26:16Z</time>
      </trkpt>
      <trkpt lat="44.1582" lon="3.02056">
        <ele>661.8</ele>
        <time>2022-07-12T14:26:17Z</time>
      </trkpt>
      <trkpt lat="44.15814" lon="3.0206">
        <ele>661.6</ele>
        <time>2022-07-12T14:26:18Z</time>
      </trkpt>
      <trkpt lat="44.15802" lon="3.02067">
        <ele>661</ele>
        <time>2022-07-12T14:26:20Z</time>
      </trkpt>
      <trkpt lat="44.1579" lon="3.02076">
        <ele>660.4</ele>
        <time>2022-07-12T14:26:22Z</time>
      </trkpt>
      <trkpt lat="44.15779" lon="3.02087">
        <ele>660</ele>
        <time>2022-07-12T14:26:24Z</time>
      </trkpt>
      <trkpt lat="44.15773" lon="3.02091">
        <ele>659.8</ele>
        <time>2022-07-12T14:26:25Z</time>
      </trkpt>
      <trkpt lat="44.15759" lon="3.02105">
        <ele>658.6</ele>
        <time>2022-07-12T14:26:28Z</time>
      </trkpt>
      <trkpt lat="44.15747" lon="3.02117">
        <ele>658</ele>
        <time>2022-07-12T14:26:30Z</time>
      </trkpt>
      <trkpt lat="44.15737" lon="3.02126">
        <ele>657</ele>
        <time>2022-07-12T14:26:32Z</time>
      </trkpt>
      <trkpt lat="44.15731" lon="3.02129">
        <ele>657</ele>
        <time>2022-07-12T14:26:33Z</time>
      </trkpt>
      <trkpt lat="44.15716" lon="3.02135">
        <ele>656.2</ele>
        <time>2022-07-12T14:26:36Z</time>
      </trkpt>
      <trkpt lat="44.15711" lon="3.02137">
        <ele>656</ele>
        <time>2022-07-12T14:26:37Z</time>
      </trkpt>
      <trkpt lat="44.15706" lon="3.0214">
        <ele>655.8</ele>
        <time>2022-07-12T14:26:38Z</time>
      </trkpt>
      <trkpt lat="44.15691" lon="3.02152">
        <ele>654.6</ele>
        <time>2022-07-12T14:26:41Z</time>
      </trkpt>
      <trkpt lat="44.15625" lon="3.02216">
        <ele>648.2</ele>
        <time>2022-07-12T14:26:58Z</time>
      </trkpt>
      <trkpt lat="44.15624" lon="3.0222">
        <ele>647.6</ele>
        <time>2022-07-12T14:27:00Z</time>
      </trkpt>
      <trkpt lat="44.15622" lon="3.02224">
        <ele>647.4</ele>
        <time>2022-07-12T14:27:01Z</time>
      </trkpt>
      <trkpt lat="44.15621" lon="3.02253">
        <ele>646.6</ele>
        <time>2022-07-12T14:27:07Z</time>
      </trkpt>
      <trkpt lat="44.15622" lon="3.0226">
        <ele>646.4</ele>
        <time>2022-07-12T14:27:10Z</time>
      </trkpt>
      <trkpt lat="44.15622" lon="3.0226">
        <ele>646.4</ele>
        <time>2022-07-12T14:27:11Z</time>
      </trkpt>
      <trkpt lat="44.15622" lon="3.0226">
        <ele>646.4</ele>
        <time>2022-07-12T14:27:13Z</time>
      </trkpt>
      <trkpt lat="44.15622" lon="3.02258">
        <ele>646.6</ele>
        <time>2022-07-12T14:27:16Z</time>
      </trkpt>
      <trkpt lat="44.15622" lon="3.02256">
        <ele>646.6</ele>
        <time>2022-07-12T14:27:18Z</time>
      </trkpt>
      <trkpt lat="44.15622" lon="3.02255">
        <ele>646.6</ele>
        <time>2022-07-12T14:27:19Z</time>
      </trkpt>
      <trkpt lat="44.15622" lon="3.02246">
        <ele>646.4</ele>
        <time>2022-07-12T14:27:22Z</time>
      </trkpt>
      <trkpt lat="44.15624" lon="3.02224">
        <ele>646.2</ele>
        <time>2022-07-12T14:27:27Z</time>
      </trkpt>
      <trkpt lat="44.15622" lon="3.02212">
        <ele>645.8</ele>
        <time>2022-07-12T14:27:31Z</time>
      </trkpt>
      <trkpt lat="44.15616" lon="3.02215">
        <ele>645.8</ele>
        <time>2022-07-12T14:27:34Z</time>
      </trkpt>
      <trkpt lat="44.15604" lon="3.02225">
        <ele>646</ele>
        <time>2022-07-12T14:27:40Z</time>
      </trkpt>
      <trkpt lat="44.15603" lon="3.02227">
        <ele>646</ele>
        <time>2022-07-12T14:27:41Z</time>
      </trkpt>
      <trkpt lat="44.15597" lon="3.02241">
        <ele>646.8</ele>
        <time>2022-07-12T14:27:45Z</time>
      </trkpt>
      <trkpt lat="44.15589" lon="3.02267">
        <ele>647.4</ele>
        <time>2022-07-12T14:27:50Z</time>
      </trkpt>
      <trkpt lat="44.15586" lon="3.0229">
        <ele>647</ele>
        <time>2022-07-12T14:27:54Z</time>
      </trkpt>
      <trkpt lat="44.15586" lon="3.0233">
        <ele>646.2</ele>
        <time>2022-07-12T14:27:59Z</time>
      </trkpt>
      <trkpt lat="44.15586" lon="3.02344">
        <ele>645.8</ele>
        <time>2022-07-12T14:28:01Z</time>
      </trkpt>
      <trkpt lat="44.15588" lon="3.02357">
        <ele>645.4</ele>
        <time>2022-07-12T14:28:03Z</time>
      </trkpt>
      <trkpt lat="44.15589" lon="3.02362">
        <ele>645.2</ele>
        <time>2022-07-12T14:28:04Z</time>
      </trkpt>
      <trkpt lat="44.15587" lon="3.02369">
        <ele>644.6</ele>
        <time>2022-07-12T14:28:05Z</time>
      </trkpt>
      <trkpt lat="44.15586" lon="3.02375">
        <ele>644.4</ele>
        <time>2022-07-12T14:28:06Z</time>
      </trkpt>
      <trkpt lat="44.15584" lon="3.02383">
        <ele>644.2</ele>
        <time>2022-07-12T14:28:07Z</time>
      </trkpt>
      <trkpt lat="44.1558" lon="3.02399">
        <ele>643.6</ele>
        <time>2022-07-12T14:28:09Z</time>
      </trkpt>
      <trkpt lat="44.15579" lon="3.02405">
        <ele>643.2</ele>
        <time>2022-07-12T14:28:10Z</time>
      </trkpt>
      <trkpt lat="44.15572" lon="3.02438">
        <ele>642.2</ele>
        <time>2022-07-12T14:28:15Z</time>
      </trkpt>
      <trkpt lat="44.15571" lon="3.02446">
        <ele>642</ele>
        <time>2022-07-12T14:28:16Z</time>
      </trkpt>
      <trkpt lat="44.15569" lon="3.02452">
        <ele>641.6</ele>
        <time>2022-07-12T14:28:17Z</time>
      </trkpt>
      <trkpt lat="44.15565" lon="3.02461">
        <ele>640.8</ele>
        <time>2022-07-12T14:28:19Z</time>
      </trkpt>
      <trkpt lat="44.15554" lon="3.02479">
        <ele>639.6</ele>
        <time>2022-07-12T14:28:23Z</time>
      </trkpt>
      <trkpt lat="44.15549" lon="3.02485">
        <ele>639.2</ele>
        <time>2022-07-12T14:28:25Z</time>
      </trkpt>
      <trkpt lat="44.15547" lon="3.0249">
        <ele>638.4</ele>
        <time>2022-07-12T14:28:26Z</time>
      </trkpt>
      <trkpt lat="44.15544" lon="3.02499">
        <ele>637.4</ele>
        <time>2022-07-12T14:28:28Z</time>
      </trkpt>
      <trkpt lat="44.15539" lon="3.02511">
        <ele>636.2</ele>
        <time>2022-07-12T14:28:30Z</time>
      </trkpt>
      <trkpt lat="44.15531" lon="3.02534">
        <ele>635.2</ele>
        <time>2022-07-12T14:28:33Z</time>
      </trkpt>
      <trkpt lat="44.15524" lon="3.02555">
        <ele>634</ele>
        <time>2022-07-12T14:28:36Z</time>
      </trkpt>
      <trkpt lat="44.15521" lon="3.02564">
        <ele>633.4</ele>
        <time>2022-07-12T14:28:37Z</time>
      </trkpt>
      <trkpt lat="44.15516" lon="3.02577">
        <ele>632.8</ele>
        <time>2022-07-12T14:28:39Z</time>
      </trkpt>
      <trkpt lat="44.15514" lon="3.02584">
        <ele>632.6</ele>
        <time>2022-07-12T14:28:40Z</time>
      </trkpt>
      <trkpt lat="44.15512" lon="3.02598">
        <ele>632</ele>
        <time>2022-07-12T14:28:42Z</time>
      </trkpt>
      <trkpt lat="44.15511" lon="3.02605">
        <ele>631.8</ele>
        <time>2022-07-12T14:28:43Z</time>
      </trkpt>
      <trkpt lat="44.1551" lon="3.02613">
        <ele>631.6</ele>
        <time>2022-07-12T14:28:44Z</time>
      </trkpt>
      <trkpt lat="44.15509" lon="3.02628">
        <ele>631.2</ele>
        <time>2022-07-12T14:28:46Z</time>
      </trkpt>
      <trkpt lat="44.15508" lon="3.02635">
        <ele>631</ele>
        <time>2022-07-12T14:28:47Z</time>
      </trkpt>
      <trkpt lat="44.15507" lon="3.02651">
        <ele>630.8</ele>
        <time>2022-07-12T14:28:49Z</time>
      </trkpt>
      <trkpt lat="44.15506" lon="3.02682">
        <ele>630</ele>
        <time>2022-07-12T14:28:53Z</time>
      </trkpt>
      <trkpt lat="44.15505" lon="3.02696">
        <ele>629.6</ele>
        <time>2022-07-12T14:28:55Z</time>
      </trkpt>
      <trkpt lat="44.15505" lon="3.02703">
        <ele>629.6</ele>
        <time>2022-07-12T14:28:56Z</time>
      </trkpt>
      <trkpt lat="44.15503" lon="3.02717">
        <ele>628.6</ele>
        <time>2022-07-12T14:28:58Z</time>
      </trkpt>
      <trkpt lat="44.15503" lon="3.02725">
        <ele>628.4</ele>
        <time>2022-07-12T14:28:59Z</time>
      </trkpt>
      <trkpt lat="44.155" lon="3.02737">
        <ele>627.8</ele>
        <time>2022-07-12T14:29:01Z</time>
      </trkpt>
      <trkpt lat="44.15498" lon="3.02743">
        <ele>627.4</ele>
        <time>2022-07-12T14:29:02Z</time>
      </trkpt>
      <trkpt lat="44.15492" lon="3.02765">
        <ele>626.4</ele>
        <time>2022-07-12T14:29:06Z</time>
      </trkpt>
      <trkpt lat="44.1549" lon="3.0277">
        <ele>626</ele>
        <time>2022-07-12T14:29:07Z</time>
      </trkpt>
      <trkpt lat="44.15487" lon="3.02775">
        <ele>625.8</ele>
        <time>2022-07-12T14:29:08Z</time>
      </trkpt>
      <trkpt lat="44.15477" lon="3.02791">
        <ele>625</ele>
        <time>2022-07-12T14:29:12Z</time>
      </trkpt>
      <trkpt lat="44.15474" lon="3.02795">
        <ele>624.8</ele>
        <time>2022-07-12T14:29:13Z</time>
      </trkpt>
      <trkpt lat="44.1546" lon="3.02812">
        <ele>623.8</ele>
        <time>2022-07-12T14:29:17Z</time>
      </trkpt>
      <trkpt lat="44.1545" lon="3.02828">
        <ele>622.6</ele>
        <time>2022-07-12T14:29:20Z</time>
      </trkpt>
      <trkpt lat="44.15445" lon="3.0284">
        <ele>621.6</ele>
        <time>2022-07-12T14:29:22Z</time>
      </trkpt>
      <trkpt lat="44.15443" lon="3.02846">
        <ele>621.4</ele>
        <time>2022-07-12T14:29:23Z</time>
      </trkpt>
      <trkpt lat="44.15441" lon="3.02854">
        <ele>621</ele>
        <time>2022-07-12T14:29:24Z</time>
      </trkpt>
      <trkpt lat="44.15434" lon="3.02874">
        <ele>620</ele>
        <time>2022-07-12T14:29:27Z</time>
      </trkpt>
      <trkpt lat="44.15427" lon="3.02894">
        <ele>619.4</ele>
        <time>2022-07-12T14:29:30Z</time>
      </trkpt>
      <trkpt lat="44.15425" lon="3.029">
        <ele>619.2</ele>
        <time>2022-07-12T14:29:31Z</time>
      </trkpt>
      <trkpt lat="44.1542" lon="3.02915">
        <ele>618.8</ele>
        <time>2022-07-12T14:29:33Z</time>
      </trkpt>
      <trkpt lat="44.15417" lon="3.02922">
        <ele>618.8</ele>
        <time>2022-07-12T14:29:34Z</time>
      </trkpt>
      <trkpt lat="44.15414" lon="3.02928">
        <ele>618.6</ele>
        <time>2022-07-12T14:29:35Z</time>
      </trkpt>
      <trkpt lat="44.15401" lon="3.02952">
        <ele>618</ele>
        <time>2022-07-12T14:29:39Z</time>
      </trkpt>
      <trkpt lat="44.15398" lon="3.02957">
        <ele>617.8</ele>
        <time>2022-07-12T14:29:40Z</time>
      </trkpt>
      <trkpt lat="44.15395" lon="3.0296">
        <ele>617.6</ele>
        <time>2022-07-12T14:29:41Z</time>
      </trkpt>
      <trkpt lat="44.15388" lon="3.02971">
        <ele>616.6</ele>
        <time>2022-07-12T14:29:45Z</time>
      </trkpt>
      <trkpt lat="44.15383" lon="3.02974">
        <ele>615.4</ele>
        <time>2022-07-12T14:29:48Z</time>
      </trkpt>
      <trkpt lat="44.1538" lon="3.02975">
        <ele>614.8</ele>
        <time>2022-07-12T14:29:50Z</time>
      </trkpt>
      <trkpt lat="44.15378" lon="3.02976">
        <ele>614.4</ele>
        <time>2022-07-12T14:29:51Z</time>
      </trkpt>
      <trkpt lat="44.15378" lon="3.02976">
        <ele>613.8</ele>
        <time>2022-07-12T14:29:53Z</time>
      </trkpt>
      <trkpt lat="44.15378" lon="3.02976">
        <ele>611.6</ele>
        <time>2022-07-12T14:30:07Z</time>
      </trkpt>
      <trkpt lat="44.15377" lon="3.02977">
        <ele>611.4</ele>
        <time>2022-07-12T14:30:08Z</time>
      </trkpt>
      <trkpt lat="44.15371" lon="3.02979">
        <ele>611.2</ele>
        <time>2022-07-12T14:30:13Z</time>
      </trkpt>
      <trkpt lat="44.15362" lon="3.02984">
        <ele>610.6</ele>
        <time>2022-07-12T14:30:17Z</time>
      </trkpt>
      <trkpt lat="44.15358" lon="3.02986">
        <ele>610.4</ele>
        <time>2022-07-12T14:30:18Z</time>
      </trkpt>
      <trkpt lat="44.15346" lon="3.02995">
        <ele>610</ele>
        <time>2022-07-12T14:30:21Z</time>
      </trkpt>
      <trkpt lat="44.15331" lon="3.03007">
        <ele>609.2</ele>
        <time>2022-07-12T14:30:24Z</time>
      </trkpt>
      <trkpt lat="44.15323" lon="3.03012">
        <ele>608.6</ele>
        <time>2022-07-12T14:30:26Z</time>
      </trkpt>
      <trkpt lat="44.15315" lon="3.03016">
        <ele>608</ele>
        <time>2022-07-12T14:30:28Z</time>
      </trkpt>
      <trkpt lat="44.15308" lon="3.03024">
        <ele>606.8</ele>
        <time>2022-07-12T14:30:30Z</time>
      </trkpt>
      <trkpt lat="44.15304" lon="3.03027">
        <ele>606.4</ele>
        <time>2022-07-12T14:30:31Z</time>
      </trkpt>
      <trkpt lat="44.15293" lon="3.03033">
        <ele>605.6</ele>
        <time>2022-07-12T14:30:33Z</time>
      </trkpt>
      <trkpt lat="44.15279" lon="3.03042">
        <ele>605</ele>
        <time>2022-07-12T14:30:36Z</time>
      </trkpt>
      <trkpt lat="44.15268" lon="3.03048">
        <ele>604.6</ele>
        <time>2022-07-12T14:30:39Z</time>
      </trkpt>
      <trkpt lat="44.15265" lon="3.03049">
        <ele>604.6</ele>
        <time>2022-07-12T14:30:40Z</time>
      </trkpt>
      <trkpt lat="44.15249" lon="3.03061">
        <ele>603.8</ele>
        <time>2022-07-12T14:30:44Z</time>
      </trkpt>
      <trkpt lat="44.15241" lon="3.03062">
        <ele>603.6</ele>
        <time>2022-07-12T14:30:46Z</time>
      </trkpt>
      <trkpt lat="44.15232" lon="3.03065">
        <ele>602.8</ele>
        <time>2022-07-12T14:30:48Z</time>
      </trkpt>
      <trkpt lat="44.15227" lon="3.03066">
        <ele>602.2</ele>
        <time>2022-07-12T14:30:49Z</time>
      </trkpt>
      <trkpt lat="44.15213" lon="3.03069">
        <ele>601</ele>
        <time>2022-07-12T14:30:52Z</time>
      </trkpt>
      <trkpt lat="44.15207" lon="3.0307">
        <ele>600.4</ele>
        <time>2022-07-12T14:30:53Z</time>
      </trkpt>
      <trkpt lat="44.15194" lon="3.03075">
        <ele>600</ele>
        <time>2022-07-12T14:30:55Z</time>
      </trkpt>
      <trkpt lat="44.15172" lon="3.03079">
        <ele>598.8</ele>
        <time>2022-07-12T14:31:00Z</time>
      </trkpt>
      <trkpt lat="44.15168" lon="3.03081">
        <ele>598.6</ele>
        <time>2022-07-12T14:31:01Z</time>
      </trkpt>
      <trkpt lat="44.15165" lon="3.0308">
        <ele>597.6</ele>
        <time>2022-07-12T14:31:02Z</time>
      </trkpt>
      <trkpt lat="44.15155" lon="3.03089">
        <ele>596.6</ele>
        <time>2022-07-12T14:31:05Z</time>
      </trkpt>
      <trkpt lat="44.15153" lon="3.0309">
        <ele>596.4</ele>
        <time>2022-07-12T14:31:06Z</time>
      </trkpt>
      <trkpt lat="44.15144" lon="3.03094">
        <ele>595.6</ele>
        <time>2022-07-12T14:31:09Z</time>
      </trkpt>
      <trkpt lat="44.15135" lon="3.03098">
        <ele>595.2</ele>
        <time>2022-07-12T14:31:11Z</time>
      </trkpt>
      <trkpt lat="44.15127" lon="3.03102">
        <ele>594.6</ele>
        <time>2022-07-12T14:31:14Z</time>
      </trkpt>
      <trkpt lat="44.15122" lon="3.03103">
        <ele>594.2</ele>
        <time>2022-07-12T14:31:16Z</time>
      </trkpt>
      <trkpt lat="44.15119" lon="3.03101">
        <ele>594.2</ele>
        <time>2022-07-12T14:31:17Z</time>
      </trkpt>
      <trkpt lat="44.15117" lon="3.03101">
        <ele>594</ele>
        <time>2022-07-12T14:31:18Z</time>
      </trkpt>
      <trkpt lat="44.1511" lon="3.03107">
        <ele>593.8</ele>
        <time>2022-07-12T14:31:22Z</time>
      </trkpt>
      <trkpt lat="44.15103" lon="3.03123">
        <ele>593.4</ele>
        <time>2022-07-12T14:31:27Z</time>
      </trkpt>
      <trkpt lat="44.151" lon="3.03127">
        <ele>593.2</ele>
        <time>2022-07-12T14:31:28Z</time>
      </trkpt>
      <trkpt lat="44.151" lon="3.03146">
        <ele>592.6</ele>
        <time>2022-07-12T14:31:32Z</time>
      </trkpt>
      <trkpt lat="44.151" lon="3.03156">
        <ele>592.2</ele>
        <time>2022-07-12T14:31:34Z</time>
      </trkpt>
      <trkpt lat="44.15097" lon="3.03166">
        <ele>591.4</ele>
        <time>2022-07-12T14:31:36Z</time>
      </trkpt>
      <trkpt lat="44.15094" lon="3.0317">
        <ele>591.2</ele>
        <time>2022-07-12T14:31:37Z</time>
      </trkpt>
      <trkpt lat="44.15084" lon="3.03179">
        <ele>590.4</ele>
        <time>2022-07-12T14:31:40Z</time>
      </trkpt>
      <trkpt lat="44.15083" lon="3.0318">
        <ele>590</ele>
        <time>2022-07-12T14:31:41Z</time>
      </trkpt>
      <trkpt lat="44.1508" lon="3.03183">
        <ele>589.4</ele>
        <time>2022-07-12T14:31:43Z</time>
      </trkpt>
      <trkpt lat="44.15079" lon="3.03184">
        <ele>588.8</ele>
        <time>2022-07-12T14:31:45Z</time>
      </trkpt>
      <trkpt lat="44.15077" lon="3.03186">
        <ele>588</ele>
        <time>2022-07-12T14:31:48Z</time>
      </trkpt>
      <trkpt lat="44.15076" lon="3.03188">
        <ele>587.6</ele>
        <time>2022-07-12T14:31:49Z</time>
      </trkpt>
      <trkpt lat="44.15069" lon="3.03192">
        <ele>587.4</ele>
        <time>2022-07-12T14:31:51Z</time>
      </trkpt>
      <trkpt lat="44.15051" lon="3.03204">
        <ele>586.8</ele>
        <time>2022-07-12T14:31:56Z</time>
      </trkpt>
      <trkpt lat="44.15047" lon="3.03208">
        <ele>586.8</ele>
        <time>2022-07-12T14:31:57Z</time>
      </trkpt>
      <trkpt lat="44.15035" lon="3.03225">
        <ele>586.6</ele>
        <time>2022-07-12T14:32:01Z</time>
      </trkpt>
      <trkpt lat="44.15027" lon="3.03239">
        <ele>586.6</ele>
        <time>2022-07-12T14:32:04Z</time>
      </trkpt>
      <trkpt lat="44.15019" lon="3.03252">
        <ele>586.6</ele>
        <time>2022-07-12T14:32:07Z</time>
      </trkpt>
      <trkpt lat="44.15005" lon="3.03278">
        <ele>586.2</ele>
        <time>2022-07-12T14:32:11Z</time>
      </trkpt>
      <trkpt lat="44.15001" lon="3.03283">
        <ele>585.8</ele>
        <time>2022-07-12T14:32:12Z</time>
      </trkpt>
      <trkpt lat="44.14985" lon="3.03309">
        <ele>584.6</ele>
        <time>2022-07-12T14:32:16Z</time>
      </trkpt>
      <trkpt lat="44.14981" lon="3.03316">
        <ele>583.6</ele>
        <time>2022-07-12T14:32:17Z</time>
      </trkpt>
      <trkpt lat="44.14978" lon="3.03322">
        <ele>582.8</ele>
        <time>2022-07-12T14:32:18Z</time>
      </trkpt>
      <trkpt lat="44.14971" lon="3.03333">
        <ele>581.6</ele>
        <time>2022-07-12T14:32:20Z</time>
      </trkpt>
      <trkpt lat="44.14967" lon="3.03337">
        <ele>580.8</ele>
        <time>2022-07-12T14:32:21Z</time>
      </trkpt>
      <trkpt lat="44.14961" lon="3.03341">
        <ele>580.4</ele>
        <time>2022-07-12T14:32:22Z</time>
      </trkpt>
      <trkpt lat="44.14955" lon="3.03343">
        <ele>580.2</ele>
        <time>2022-07-12T14:32:23Z</time>
      </trkpt>
      <trkpt lat="44.14944" lon="3.03346">
        <ele>579.8</ele>
        <time>2022-07-12T14:32:25Z</time>
      </trkpt>
      <trkpt lat="44.14939" lon="3.03347">
        <ele>578.6</ele>
        <time>2022-07-12T14:32:26Z</time>
      </trkpt>
      <trkpt lat="44.1493" lon="3.03348">
        <ele>577</ele>
        <time>2022-07-12T14:32:28Z</time>
      </trkpt>
      <trkpt lat="44.14926" lon="3.03349">
        <ele>576.2</ele>
        <time>2022-07-12T14:32:29Z</time>
      </trkpt>
      <trkpt lat="44.14922" lon="3.0335">
        <ele>575.4</ele>
        <time>2022-07-12T14:32:30Z</time>
      </trkpt>
      <trkpt lat="44.14916" lon="3.03354">
        <ele>574.4</ele>
        <time>2022-07-12T14:32:32Z</time>
      </trkpt>
      <trkpt lat="44.14911" lon="3.03353">
        <ele>573.8</ele>
        <time>2022-07-12T14:32:34Z</time>
      </trkpt>
      <trkpt lat="44.14907" lon="3.0335">
        <ele>573.2</ele>
        <time>2022-07-12T14:32:36Z</time>
      </trkpt>
      <trkpt lat="44.14903" lon="3.03343">
        <ele>572.4</ele>
        <time>2022-07-12T14:32:38Z</time>
      </trkpt>
      <trkpt lat="44.149" lon="3.03338">
        <ele>571.6</ele>
        <time>2022-07-12T14:32:39Z</time>
      </trkpt>
      <trkpt lat="44.14895" lon="3.03331">
        <ele>571.4</ele>
        <time>2022-07-12T14:32:40Z</time>
      </trkpt>
      <trkpt lat="44.14888" lon="3.0332">
        <ele>570.2</ele>
        <time>2022-07-12T14:32:42Z</time>
      </trkpt>
      <trkpt lat="44.14884" lon="3.03317">
        <ele>570</ele>
        <time>2022-07-12T14:32:43Z</time>
      </trkpt>
      <trkpt lat="44.14879" lon="3.03316">
        <ele>569</ele>
        <time>2022-07-12T14:32:44Z</time>
      </trkpt>
      <trkpt lat="44.14871" lon="3.03319">
        <ele>568</ele>
        <time>2022-07-12T14:32:46Z</time>
      </trkpt>
      <trkpt lat="44.14864" lon="3.03335">
        <ele>566.8</ele>
        <time>2022-07-12T14:32:49Z</time>
      </trkpt>
      <trkpt lat="44.14859" lon="3.03347">
        <ele>566.2</ele>
        <time>2022-07-12T14:32:51Z</time>
      </trkpt>
      <trkpt lat="44.14857" lon="3.0335">
        <ele>566</ele>
        <time>2022-07-12T14:32:52Z</time>
      </trkpt>
      <trkpt lat="44.14853" lon="3.03352">
        <ele>565.8</ele>
        <time>2022-07-12T14:32:53Z</time>
      </trkpt>
      <trkpt lat="44.14851" lon="3.03352">
        <ele>565.8</ele>
        <time>2022-07-12T14:32:54Z</time>
      </trkpt>
      <trkpt lat="44.14848" lon="3.03353">
        <ele>565.8</ele>
        <time>2022-07-12T14:32:55Z</time>
      </trkpt>
      <trkpt lat="44.14841" lon="3.03352">
        <ele>566.2</ele>
        <time>2022-07-12T14:32:58Z</time>
      </trkpt>
      <trkpt lat="44.14837" lon="3.03354">
        <ele>566.8</ele>
        <time>2022-07-12T14:33:00Z</time>
      </trkpt>
      <trkpt lat="44.14831" lon="3.03356">
        <ele>567.2</ele>
        <time>2022-07-12T14:33:03Z</time>
      </trkpt>
      <trkpt lat="44.14827" lon="3.03359">
        <ele>568</ele>
        <time>2022-07-12T14:33:06Z</time>
      </trkpt>
      <trkpt lat="44.14825" lon="3.0336">
        <ele>568.2</ele>
        <time>2022-07-12T14:33:07Z</time>
      </trkpt>
      <trkpt lat="44.14817" lon="3.03369">
        <ele>569.4</ele>
        <time>2022-07-12T14:33:12Z</time>
      </trkpt>
      <trkpt lat="44.14815" lon="3.03371">
        <ele>569.4</ele>
        <time>2022-07-12T14:33:13Z</time>
      </trkpt>
      <trkpt lat="44.14805" lon="3.03377">
        <ele>570.4</ele>
        <time>2022-07-12T14:33:18Z</time>
      </trkpt>
      <trkpt lat="44.14802" lon="3.0338">
        <ele>570.6</ele>
        <time>2022-07-12T14:33:20Z</time>
      </trkpt>
      <trkpt lat="44.14793" lon="3.03393">
        <ele>571.6</ele>
        <time>2022-07-12T14:33:27Z</time>
      </trkpt>
      <trkpt lat="44.14783" lon="3.03405">
        <ele>572.4</ele>
        <time>2022-07-12T14:33:34Z</time>
      </trkpt>
      <trkpt lat="44.1478" lon="3.03408">
        <ele>572.6</ele>
        <time>2022-07-12T14:33:36Z</time>
      </trkpt>
      <trkpt lat="44.14767" lon="3.03414">
        <ele>573.2</ele>
        <time>2022-07-12T14:33:43Z</time>
      </trkpt>
      <trkpt lat="44.14759" lon="3.03415">
        <ele>574</ele>
        <time>2022-07-12T14:33:47Z</time>
      </trkpt>
      <trkpt lat="44.14752" lon="3.03417">
        <ele>574.6</ele>
        <time>2022-07-12T14:33:50Z</time>
      </trkpt>
      <trkpt lat="44.14746" lon="3.03418">
        <ele>575.2</ele>
        <time>2022-07-12T14:33:53Z</time>
      </trkpt>
      <trkpt lat="44.1474" lon="3.0342">
        <ele>575.8</ele>
        <time>2022-07-12T14:33:56Z</time>
      </trkpt>
      <trkpt lat="44.14732" lon="3.03424">
        <ele>576.4</ele>
        <time>2022-07-12T14:34:00Z</time>
      </trkpt>
      <trkpt lat="44.14726" lon="3.03426">
        <ele>576.6</ele>
        <time>2022-07-12T14:34:03Z</time>
      </trkpt>
      <trkpt lat="44.14706" lon="3.03433">
        <ele>577.4</ele>
        <time>2022-07-12T14:34:12Z</time>
      </trkpt>
      <trkpt lat="44.1469" lon="3.03437">
        <ele>577.8</ele>
        <time>2022-07-12T14:34:18Z</time>
      </trkpt>
      <trkpt lat="44.14674" lon="3.03441">
        <ele>578.6</ele>
        <time>2022-07-12T14:34:25Z</time>
      </trkpt>
      <trkpt lat="44.14652" lon="3.03449">
        <ele>579.6</ele>
        <time>2022-07-12T14:34:33Z</time>
      </trkpt>
      <trkpt lat="44.1465" lon="3.0345">
        <ele>579.8</ele>
        <time>2022-07-12T14:34:34Z</time>
      </trkpt>
      <trkpt lat="44.14623" lon="3.03457">
        <ele>580.2</ele>
        <time>2022-07-12T14:34:43Z</time>
      </trkpt>
      <trkpt lat="44.14601" lon="3.03461">
        <ele>580.4</ele>
        <time>2022-07-12T14:34:50Z</time>
      </trkpt>
      <trkpt lat="44.14592" lon="3.03463">
        <ele>580.4</ele>
        <time>2022-07-12T14:34:52Z</time>
      </trkpt>
      <trkpt lat="44.14577" lon="3.03469">
        <ele>580.4</ele>
        <time>2022-07-12T14:34:55Z</time>
      </trkpt>
      <trkpt lat="44.14567" lon="3.03473">
        <ele>580.2</ele>
        <time>2022-07-12T14:34:57Z</time>
      </trkpt>
      <trkpt lat="44.14559" lon="3.03479">
        <ele>579.6</ele>
        <time>2022-07-12T14:34:59Z</time>
      </trkpt>
      <trkpt lat="44.14548" lon="3.03487">
        <ele>579.2</ele>
        <time>2022-07-12T14:35:03Z</time>
      </trkpt>
      <trkpt lat="44.14544" lon="3.03492">
        <ele>579.4</ele>
        <time>2022-07-12T14:35:06Z</time>
      </trkpt>
      <trkpt lat="44.1454" lon="3.03495">
        <ele>579.8</ele>
        <time>2022-07-12T14:35:08Z</time>
      </trkpt>
      <trkpt lat="44.14528" lon="3.03507">
        <ele>581.4</ele>
        <time>2022-07-12T14:35:14Z</time>
      </trkpt>
      <trkpt lat="44.14524" lon="3.03512">
        <ele>581.8</ele>
        <time>2022-07-12T14:35:16Z</time>
      </trkpt>
      <trkpt lat="44.14515" lon="3.03518">
        <ele>582.4</ele>
        <time>2022-07-12T14:35:20Z</time>
      </trkpt>
      <trkpt lat="44.1451" lon="3.03524">
        <ele>583.4</ele>
        <time>2022-07-12T14:35:24Z</time>
      </trkpt>
      <trkpt lat="44.14508" lon="3.03526">
        <ele>584</ele>
        <time>2022-07-12T14:35:25Z</time>
      </trkpt>
      <trkpt lat="44.145" lon="3.03534">
        <ele>585.2</ele>
        <time>2022-07-12T14:35:30Z</time>
      </trkpt>
      <trkpt lat="44.14497" lon="3.03537">
        <ele>585.6</ele>
        <time>2022-07-12T14:35:32Z</time>
      </trkpt>
      <trkpt lat="44.14488" lon="3.03547">
        <ele>586.4</ele>
        <time>2022-07-12T14:35:38Z</time>
      </trkpt>
      <trkpt lat="44.14471" lon="3.03559">
        <ele>587.2</ele>
        <time>2022-07-12T14:35:46Z</time>
      </trkpt>
      <trkpt lat="44.14459" lon="3.03564">
        <ele>587.4</ele>
        <time>2022-07-12T14:35:50Z</time>
      </trkpt>
      <trkpt lat="44.14451" lon="3.03568">
        <ele>587.4</ele>
        <time>2022-07-12T14:35:53Z</time>
      </trkpt>
      <trkpt lat="44.14438" lon="3.03575">
        <ele>587.8</ele>
        <time>2022-07-12T14:35:58Z</time>
      </trkpt>
      <trkpt lat="44.14416" lon="3.03584">
        <ele>588.4</ele>
        <time>2022-07-12T14:36:07Z</time>
      </trkpt>
      <trkpt lat="44.14414" lon="3.03585">
        <ele>588.8</ele>
        <time>2022-07-12T14:36:08Z</time>
      </trkpt>
      <trkpt lat="44.14407" lon="3.03591">
        <ele>589.4</ele>
        <time>2022-07-12T14:36:12Z</time>
      </trkpt>
      <trkpt lat="44.14402" lon="3.03593">
        <ele>590</ele>
        <time>2022-07-12T14:36:15Z</time>
      </trkpt>
      <trkpt lat="44.14398" lon="3.03596">
        <ele>590.4</ele>
        <time>2022-07-12T14:36:18Z</time>
      </trkpt>
      <trkpt lat="44.14391" lon="3.03602">
        <ele>591.4</ele>
        <time>2022-07-12T14:36:22Z</time>
      </trkpt>
      <trkpt lat="44.14385" lon="3.03609">
        <ele>591.8</ele>
        <time>2022-07-12T14:36:26Z</time>
      </trkpt>
      <trkpt lat="44.14375" lon="3.03618">
        <ele>592.4</ele>
        <time>2022-07-12T14:36:31Z</time>
      </trkpt>
      <trkpt lat="44.14368" lon="3.03627">
        <ele>593.2</ele>
        <time>2022-07-12T14:36:35Z</time>
      </trkpt>
      <trkpt lat="44.14363" lon="3.03633">
        <ele>593.6</ele>
        <time>2022-07-12T14:36:38Z</time>
      </trkpt>
      <trkpt lat="44.14357" lon="3.03642">
        <ele>593.8</ele>
        <time>2022-07-12T14:36:41Z</time>
      </trkpt>
      <trkpt lat="44.1435" lon="3.03653">
        <ele>594.2</ele>
        <time>2022-07-12T14:36:46Z</time>
      </trkpt>
      <trkpt lat="44.14341" lon="3.03663">
        <ele>594.6</ele>
        <time>2022-07-12T14:36:50Z</time>
      </trkpt>
      <trkpt lat="44.14339" lon="3.03665">
        <ele>594.8</ele>
        <time>2022-07-12T14:36:51Z</time>
      </trkpt>
      <trkpt lat="44.14333" lon="3.03677">
        <ele>594.8</ele>
        <time>2022-07-12T14:36:55Z</time>
      </trkpt>
      <trkpt lat="44.14325" lon="3.03691">
        <ele>594.8</ele>
        <time>2022-07-12T14:36:58Z</time>
      </trkpt>
      <trkpt lat="44.14318" lon="3.03698">
        <ele>594.8</ele>
        <time>2022-07-12T14:37:00Z</time>
      </trkpt>
      <trkpt lat="44.14303" lon="3.03702">
        <ele>594.4</ele>
        <time>2022-07-12T14:37:04Z</time>
      </trkpt>
      <trkpt lat="44.1428" lon="3.03696">
        <ele>593.8</ele>
        <time>2022-07-12T14:37:11Z</time>
      </trkpt>
      <trkpt lat="44.14273" lon="3.03694">
        <ele>594</ele>
        <time>2022-07-12T14:37:14Z</time>
      </trkpt>
      <trkpt lat="44.14266" lon="3.03692">
        <ele>594.4</ele>
        <time>2022-07-12T14:37:18Z</time>
      </trkpt>
      <trkpt lat="44.14259" lon="3.03685">
        <ele>595.4</ele>
        <time>2022-07-12T14:37:23Z</time>
      </trkpt>
      <trkpt lat="44.14257" lon="3.03684">
        <ele>595.4</ele>
        <time>2022-07-12T14:37:24Z</time>
      </trkpt>
      <trkpt lat="44.14253" lon="3.03681">
        <ele>596</ele>
        <time>2022-07-12T14:37:27Z</time>
      </trkpt>
      <trkpt lat="44.14248" lon="3.03678">
        <ele>597.2</ele>
        <time>2022-07-12T14:37:31Z</time>
      </trkpt>
      <trkpt lat="44.14246" lon="3.03677">
        <ele>597.4</ele>
        <time>2022-07-12T14:37:32Z</time>
      </trkpt>
      <trkpt lat="44.14236" lon="3.03674">
        <ele>598.4</ele>
        <time>2022-07-12T14:37:38Z</time>
      </trkpt>
      <trkpt lat="44.14226" lon="3.03673">
        <ele>599</ele>
        <time>2022-07-12T14:37:43Z</time>
      </trkpt>
      <trkpt lat="44.14223" lon="3.03673">
        <ele>599.6</ele>
        <time>2022-07-12T14:37:45Z</time>
      </trkpt>
      <trkpt lat="44.14213" lon="3.03675">
        <ele>600.6</ele>
        <time>2022-07-12T14:37:51Z</time>
      </trkpt>
      <trkpt lat="44.14211" lon="3.03676">
        <ele>600.8</ele>
        <time>2022-07-12T14:37:52Z</time>
      </trkpt>
      <trkpt lat="44.14199" lon="3.03684">
        <ele>601.8</ele>
        <time>2022-07-12T14:37:59Z</time>
      </trkpt>
      <trkpt lat="44.14196" lon="3.03685">
        <ele>602</ele>
        <time>2022-07-12T14:38:01Z</time>
      </trkpt>
      <trkpt lat="44.14185" lon="3.03689">
        <ele>603</ele>
        <time>2022-07-12T14:38:07Z</time>
      </trkpt>
      <trkpt lat="44.14178" lon="3.03694">
        <ele>603.6</ele>
        <time>2022-07-12T14:38:11Z</time>
      </trkpt>
      <trkpt lat="44.14167" lon="3.037">
        <ele>604</ele>
        <time>2022-07-12T14:38:16Z</time>
      </trkpt>
      <trkpt lat="44.14153" lon="3.03709">
        <ele>604.8</ele>
        <time>2022-07-12T14:38:23Z</time>
      </trkpt>
      <trkpt lat="44.1415" lon="3.03711">
        <ele>605</ele>
        <time>2022-07-12T14:38:25Z</time>
      </trkpt>
      <trkpt lat="44.14139" lon="3.03717">
        <ele>606.2</ele>
        <time>2022-07-12T14:38:30Z</time>
      </trkpt>
      <trkpt lat="44.14133" lon="3.0372">
        <ele>606.4</ele>
        <time>2022-07-12T14:38:33Z</time>
      </trkpt>
      <trkpt lat="44.14124" lon="3.03723">
        <ele>607.2</ele>
        <time>2022-07-12T14:38:37Z</time>
      </trkpt>
      <trkpt lat="44.1412" lon="3.03726">
        <ele>607.8</ele>
        <time>2022-07-12T14:38:39Z</time>
      </trkpt>
      <trkpt lat="44.14115" lon="3.03728">
        <ele>608.4</ele>
        <time>2022-07-12T14:38:41Z</time>
      </trkpt>
      <trkpt lat="44.14107" lon="3.0373">
        <ele>609.2</ele>
        <time>2022-07-12T14:38:44Z</time>
      </trkpt>
      <trkpt lat="44.14102" lon="3.0373">
        <ele>609.8</ele>
        <time>2022-07-12T14:38:46Z</time>
      </trkpt>
      <trkpt lat="44.14091" lon="3.0373">
        <ele>610.8</ele>
        <time>2022-07-12T14:38:51Z</time>
      </trkpt>
      <trkpt lat="44.14086" lon="3.03729">
        <ele>611.2</ele>
        <time>2022-07-12T14:38:53Z</time>
      </trkpt>
      <trkpt lat="44.14072" lon="3.03727">
        <ele>611.8</ele>
        <time>2022-07-12T14:38:58Z</time>
      </trkpt>
      <trkpt lat="44.14065" lon="3.03724">
        <ele>612</ele>
        <time>2022-07-12T14:39:01Z</time>
      </trkpt>
      <trkpt lat="44.14052" lon="3.03718">
        <ele>612.2</ele>
        <time>2022-07-12T14:39:06Z</time>
      </trkpt>
      <trkpt lat="44.1405" lon="3.03717">
        <ele>612.2</ele>
        <time>2022-07-12T14:39:07Z</time>
      </trkpt>
      <trkpt lat="44.14037" lon="3.03712">
        <ele>612.8</ele>
        <time>2022-07-12T14:39:12Z</time>
      </trkpt>
      <trkpt lat="44.1403" lon="3.03712">
        <ele>613.2</ele>
        <time>2022-07-12T14:39:15Z</time>
      </trkpt>
      <trkpt lat="44.14018" lon="3.03715">
        <ele>614</ele>
        <time>2022-07-12T14:39:20Z</time>
      </trkpt>
      <trkpt lat="44.14003" lon="3.03719">
        <ele>615.2</ele>
        <time>2022-07-12T14:39:25Z</time>
      </trkpt>
      <trkpt lat="44.13981" lon="3.03725">
        <ele>616.2</ele>
        <time>2022-07-12T14:39:32Z</time>
      </trkpt>
      <trkpt lat="44.13975" lon="3.03726">
        <ele>616.4</ele>
        <time>2022-07-12T14:39:34Z</time>
      </trkpt>
      <trkpt lat="44.13955" lon="3.03731">
        <ele>617</ele>
        <time>2022-07-12T14:39:41Z</time>
      </trkpt>
      <trkpt lat="44.13942" lon="3.03737">
        <ele>617.2</ele>
        <time>2022-07-12T14:39:45Z</time>
      </trkpt>
      <trkpt lat="44.13927" lon="3.03747">
        <ele>617.8</ele>
        <time>2022-07-12T14:39:50Z</time>
      </trkpt>
      <trkpt lat="44.13921" lon="3.03751">
        <ele>618.4</ele>
        <time>2022-07-12T14:39:52Z</time>
      </trkpt>
      <trkpt lat="44.13918" lon="3.03753">
        <ele>618.6</ele>
        <time>2022-07-12T14:39:53Z</time>
      </trkpt>
      <trkpt lat="44.13909" lon="3.03759">
        <ele>619.6</ele>
        <time>2022-07-12T14:39:56Z</time>
      </trkpt>
      <trkpt lat="44.13898" lon="3.03766">
        <ele>620.6</ele>
        <time>2022-07-12T14:40:00Z</time>
      </trkpt>
      <trkpt lat="44.13895" lon="3.03767">
        <ele>621.2</ele>
        <time>2022-07-12T14:40:01Z</time>
      </trkpt>
      <trkpt lat="44.1389" lon="3.03771">
        <ele>622</ele>
        <time>2022-07-12T14:40:03Z</time>
      </trkpt>
      <trkpt lat="44.13883" lon="3.03777">
        <ele>623.2</ele>
        <time>2022-07-12T14:40:06Z</time>
      </trkpt>
      <trkpt lat="44.1388" lon="3.03779">
        <ele>623.2</ele>
        <time>2022-07-12T14:40:07Z</time>
      </trkpt>
      <trkpt lat="44.13875" lon="3.03783">
        <ele>624.4</ele>
        <time>2022-07-12T14:40:09Z</time>
      </trkpt>
      <trkpt lat="44.13865" lon="3.03794">
        <ele>625.4</ele>
        <time>2022-07-12T14:40:13Z</time>
      </trkpt>
      <trkpt lat="44.13859" lon="3.03802">
        <ele>626.4</ele>
        <time>2022-07-12T14:40:16Z</time>
      </trkpt>
      <trkpt lat="44.13855" lon="3.03808">
        <ele>627.6</ele>
        <time>2022-07-12T14:40:19Z</time>
      </trkpt>
      <trkpt lat="44.13852" lon="3.03809">
        <ele>628.2</ele>
        <time>2022-07-12T14:40:21Z</time>
      </trkpt>
      <trkpt lat="44.13852" lon="3.03805">
        <ele>628.4</ele>
        <time>2022-07-12T14:40:24Z</time>
      </trkpt>
      <trkpt lat="44.13852" lon="3.03804">
        <ele>628.6</ele>
        <time>2022-07-12T14:40:25Z</time>
      </trkpt>
      <trkpt lat="44.13853" lon="3.03801">
        <ele>628.8</ele>
        <time>2022-07-12T14:40:27Z</time>
      </trkpt>
      <trkpt lat="44.13853" lon="3.03799">
        <ele>628.8</ele>
        <time>2022-07-12T14:40:28Z</time>
      </trkpt>
      <trkpt lat="44.13851" lon="3.03799">
        <ele>629</ele>
        <time>2022-07-12T14:40:30Z</time>
      </trkpt>
      <trkpt lat="44.13851" lon="3.03799">
        <ele>629</ele>
        <time>2022-07-12T14:40:32Z</time>
      </trkpt>
      <trkpt lat="44.13849" lon="3.03798">
        <ele>629.4</ele>
        <time>2022-07-12T14:40:43Z</time>
      </trkpt>
      <trkpt lat="44.13845" lon="3.03785">
        <ele>629.6</ele>
        <time>2022-07-12T14:40:48Z</time>
      </trkpt>
      <trkpt lat="44.13843" lon="3.0378">
        <ele>629.8</ele>
        <time>2022-07-12T14:40:50Z</time>
      </trkpt>
      <trkpt lat="44.13836" lon="3.03766">
        <ele>630.8</ele>
        <time>2022-07-12T14:40:55Z</time>
      </trkpt>
      <trkpt lat="44.13833" lon="3.03761">
        <ele>631</ele>
        <time>2022-07-12T14:40:57Z</time>
      </trkpt>
      <trkpt lat="44.13826" lon="3.03747">
        <ele>631.6</ele>
        <time>2022-07-12T14:41:02Z</time>
      </trkpt>
      <trkpt lat="44.13825" lon="3.03745">
        <ele>631.8</ele>
        <time>2022-07-12T14:41:04Z</time>
      </trkpt>
      <trkpt lat="44.13823" lon="3.03745">
        <ele>631.8</ele>
        <time>2022-07-12T14:41:05Z</time>
      </trkpt>
      <trkpt lat="44.13819" lon="3.03744">
        <ele>631.8</ele>
        <time>2022-07-12T14:41:06Z</time>
      </trkpt>
      <trkpt lat="44.13809" lon="3.03744">
        <ele>632.2</ele>
        <time>2022-07-12T14:41:10Z</time>
      </trkpt>
      <trkpt lat="44.13799" lon="3.03741">
        <ele>632.4</ele>
        <time>2022-07-12T14:41:13Z</time>
      </trkpt>
      <trkpt lat="44.13793" lon="3.03742">
        <ele>632.6</ele>
        <time>2022-07-12T14:41:15Z</time>
      </trkpt>
      <trkpt lat="44.13776" lon="3.0375">
        <ele>633.2</ele>
        <time>2022-07-12T14:41:21Z</time>
      </trkpt>
      <trkpt lat="44.13774" lon="3.03752">
        <ele>633.2</ele>
        <time>2022-07-12T14:41:22Z</time>
      </trkpt>
      <trkpt lat="44.13765" lon="3.03752">
        <ele>633.4</ele>
        <time>2022-07-12T14:41:26Z</time>
      </trkpt>
      <trkpt lat="44.13765" lon="3.0375">
        <ele>633.4</ele>
        <time>2022-07-12T14:41:27Z</time>
      </trkpt>
      <trkpt lat="44.13766" lon="3.03754">
        <ele>633.2</ele>
        <time>2022-07-12T14:41:30Z</time>
      </trkpt>
      <trkpt lat="44.13759" lon="3.03761">
        <ele>633.4</ele>
        <time>2022-07-12T14:41:33Z</time>
      </trkpt>
      <trkpt lat="44.13747" lon="3.03765">
        <ele>633.4</ele>
        <time>2022-07-12T14:41:37Z</time>
      </trkpt>
      <trkpt lat="44.13744" lon="3.03762">
        <ele>633.4</ele>
        <time>2022-07-12T14:41:38Z</time>
      </trkpt>
      <trkpt lat="44.13725" lon="3.03736">
        <ele>633.4</ele>
        <time>2022-07-12T14:41:46Z</time>
      </trkpt>
      <trkpt lat="44.13713" lon="3.03724">
        <ele>633.6</ele>
        <time>2022-07-12T14:41:51Z</time>
      </trkpt>
      <trkpt lat="44.13693" lon="3.0371">
        <ele>633.6</ele>
        <time>2022-07-12T14:41:58Z</time>
      </trkpt>
      <trkpt lat="44.13675" lon="3.03693">
        <ele>634.8</ele>
        <time>2022-07-12T14:42:04Z</time>
      </trkpt>
      <trkpt lat="44.13655" lon="3.03672">
        <ele>635.4</ele>
        <time>2022-07-12T14:42:10Z</time>
      </trkpt>
      <trkpt lat="44.13643" lon="3.03664">
        <ele>636</ele>
        <time>2022-07-12T14:42:13Z</time>
      </trkpt>
      <trkpt lat="44.13631" lon="3.03656">
        <ele>636.4</ele>
        <time>2022-07-12T14:42:17Z</time>
      </trkpt>
      <trkpt lat="44.13623" lon="3.03646">
        <ele>636.4</ele>
        <time>2022-07-12T14:42:21Z</time>
      </trkpt>
      <trkpt lat="44.1362" lon="3.03644">
        <ele>636.4</ele>
        <time>2022-07-12T14:42:22Z</time>
      </trkpt>
      <trkpt lat="44.13609" lon="3.0364">
        <ele>636.4</ele>
        <time>2022-07-12T14:42:26Z</time>
      </trkpt>
      <trkpt lat="44.13608" lon="3.03639">
        <ele>636.4</ele>
        <time>2022-07-12T14:42:27Z</time>
      </trkpt>
      <trkpt lat="44.13606" lon="3.03639">
        <ele>636.2</ele>
        <time>2022-07-12T14:42:31Z</time>
      </trkpt>
      <trkpt lat="44.13606" lon="3.0364">
        <ele>636.2</ele>
        <time>2022-07-12T14:42:32Z</time>
      </trkpt>
      <trkpt lat="44.13609" lon="3.03644">
        <ele>636</ele>
        <time>2022-07-12T14:42:35Z</time>
      </trkpt>
      <trkpt lat="44.13614" lon="3.03644">
        <ele>636</ele>
        <time>2022-07-12T14:42:41Z</time>
      </trkpt>
      <trkpt lat="44.13615" lon="3.03643">
        <ele>636</ele>
        <time>2022-07-12T14:42:44Z</time>
      </trkpt>
      <trkpt lat="44.13615" lon="3.03643">
        <ele>636</ele>
        <time>2022-07-12T14:42:45Z</time>
      </trkpt>
      <trkpt lat="44.13615" lon="3.03643">
        <ele>636</ele>
        <time>2022-07-12T14:42:49Z</time>
      </trkpt>
      <trkpt lat="44.13614" lon="3.03642">
        <ele>636.4</ele>
        <time>2022-07-12T14:43:38Z</time>
      </trkpt>
      <trkpt lat="44.13614" lon="3.03643">
        <ele>636.4</ele>
        <time>2022-07-12T14:43:39Z</time>
      </trkpt>
      <trkpt lat="44.13612" lon="3.03641">
        <ele>636.2</ele>
        <time>2022-07-12T14:43:46Z</time>
      </trkpt>
      <trkpt lat="44.13612" lon="3.03641">
        <ele>636.2</ele>
        <time>2022-07-12T14:43:48Z</time>
      </trkpt>
      <trkpt lat="44.13609" lon="3.03641">
        <ele>636.4</ele>
        <time>2022-07-12T14:44:04Z</time>
      </trkpt>
      <trkpt lat="44.13607" lon="3.0364">
        <ele>636.4</ele>
        <time>2022-07-12T14:44:06Z</time>
      </trkpt>
      <trkpt lat="44.13605" lon="3.03637">
        <ele>636.4</ele>
        <time>2022-07-12T14:44:08Z</time>
      </trkpt>
      <trkpt lat="44.13601" lon="3.0363">
        <ele>636</ele>
        <time>2022-07-12T14:44:12Z</time>
      </trkpt>
      <trkpt lat="44.13588" lon="3.03621">
        <ele>636</ele>
        <time>2022-07-12T14:44:18Z</time>
      </trkpt>
      <trkpt lat="44.13584" lon="3.03619">
        <ele>635.8</ele>
        <time>2022-07-12T14:44:20Z</time>
      </trkpt>
      <trkpt lat="44.1357" lon="3.03615">
        <ele>635.4</ele>
        <time>2022-07-12T14:44:24Z</time>
      </trkpt>
      <trkpt lat="44.13555" lon="3.03613">
        <ele>635.2</ele>
        <time>2022-07-12T14:44:27Z</time>
      </trkpt>
      <trkpt lat="44.13545" lon="3.03612">
        <ele>635</ele>
        <time>2022-07-12T14:44:29Z</time>
      </trkpt>
      <trkpt lat="44.13526" lon="3.03609">
        <ele>634.8</ele>
        <time>2022-07-12T14:44:33Z</time>
      </trkpt>
      <trkpt lat="44.13517" lon="3.03609">
        <ele>634.6</ele>
        <time>2022-07-12T14:44:35Z</time>
      </trkpt>
      <trkpt lat="44.13501" lon="3.03605">
        <ele>633.6</ele>
        <time>2022-07-12T14:44:39Z</time>
      </trkpt>
      <trkpt lat="44.13493" lon="3.03603">
        <ele>633.2</ele>
        <time>2022-07-12T14:44:41Z</time>
      </trkpt>
      <trkpt lat="44.13472" lon="3.03607">
        <ele>632.4</ele>
        <time>2022-07-12T14:44:46Z</time>
      </trkpt>
      <trkpt lat="44.13469" lon="3.03609">
        <ele>632.4</ele>
        <time>2022-07-12T14:44:47Z</time>
      </trkpt>
      <trkpt lat="44.13441" lon="3.0362">
        <ele>631.8</ele>
        <time>2022-07-12T14:44:55Z</time>
      </trkpt>
      <trkpt lat="44.13425" lon="3.03627">
        <ele>631.6</ele>
        <time>2022-07-12T14:45:01Z</time>
      </trkpt>
      <trkpt lat="44.13415" lon="3.03629">
        <ele>631.4</ele>
        <time>2022-07-12T14:45:04Z</time>
      </trkpt>
      <trkpt lat="44.13408" lon="3.03631">
        <ele>631.2</ele>
        <time>2022-07-12T14:45:06Z</time>
      </trkpt>
      <trkpt lat="44.13394" lon="3.03634">
        <ele>631.2</ele>
        <time>2022-07-12T14:45:09Z</time>
      </trkpt>
      <trkpt lat="44.13383" lon="3.03632">
        <ele>630.8</ele>
        <time>2022-07-12T14:45:11Z</time>
      </trkpt>
      <trkpt lat="44.13371" lon="3.03628">
        <ele>630.4</ele>
        <time>2022-07-12T14:45:13Z</time>
      </trkpt>
      <trkpt lat="44.13356" lon="3.03622">
        <ele>629.4</ele>
        <time>2022-07-12T14:45:16Z</time>
      </trkpt>
      <trkpt lat="44.13351" lon="3.03621">
        <ele>629.2</ele>
        <time>2022-07-12T14:45:17Z</time>
      </trkpt>
      <trkpt lat="44.13346" lon="3.03622">
        <ele>629</ele>
        <time>2022-07-12T14:45:18Z</time>
      </trkpt>
      <trkpt lat="44.1332" lon="3.03637">
        <ele>627.6</ele>
        <time>2022-07-12T14:45:24Z</time>
      </trkpt>
      <trkpt lat="44.13316" lon="3.03638">
        <ele>627.4</ele>
        <time>2022-07-12T14:45:25Z</time>
      </trkpt>
      <trkpt lat="44.13306" lon="3.03638">
        <ele>627.4</ele>
        <time>2022-07-12T14:45:27Z</time>
      </trkpt>
      <trkpt lat="44.13302" lon="3.03636">
        <ele>627.4</ele>
        <time>2022-07-12T14:45:28Z</time>
      </trkpt>
      <trkpt lat="44.13298" lon="3.03633">
        <ele>627.2</ele>
        <time>2022-07-12T14:45:29Z</time>
      </trkpt>
      <trkpt lat="44.13293" lon="3.03625">
        <ele>627</ele>
        <time>2022-07-12T14:45:31Z</time>
      </trkpt>
      <trkpt lat="44.1329" lon="3.03622">
        <ele>627</ele>
        <time>2022-07-12T14:45:32Z</time>
      </trkpt>
      <trkpt lat="44.13287" lon="3.03618">
        <ele>627</ele>
        <time>2022-07-12T14:45:33Z</time>
      </trkpt>
      <trkpt lat="44.13281" lon="3.0361">
        <ele>627</ele>
        <time>2022-07-12T14:45:35Z</time>
      </trkpt>
      <trkpt lat="44.13276" lon="3.03603">
        <ele>627.2</ele>
        <time>2022-07-12T14:45:37Z</time>
      </trkpt>
      <trkpt lat="44.13264" lon="3.03601">
        <ele>627.2</ele>
        <time>2022-07-12T14:45:41Z</time>
      </trkpt>
      <trkpt lat="44.13253" lon="3.03619">
        <ele>627.2</ele>
        <time>2022-07-12T14:45:46Z</time>
      </trkpt>
      <trkpt lat="44.13239" lon="3.03643">
        <ele>627.2</ele>
        <time>2022-07-12T14:45:51Z</time>
      </trkpt>
      <trkpt lat="44.13231" lon="3.03658">
        <ele>626.8</ele>
        <time>2022-07-12T14:45:54Z</time>
      </trkpt>
      <trkpt lat="44.13223" lon="3.03671">
        <ele>626.2</ele>
        <time>2022-07-12T14:45:57Z</time>
      </trkpt>
      <trkpt lat="44.13219" lon="3.03678">
        <ele>625.2</ele>
        <time>2022-07-12T14:45:59Z</time>
      </trkpt>
      <trkpt lat="44.13211" lon="3.03693">
        <ele>624</ele>
        <time>2022-07-12T14:46:03Z</time>
      </trkpt>
      <trkpt lat="44.13197" lon="3.03718">
        <ele>623.2</ele>
        <time>2022-07-12T14:46:09Z</time>
      </trkpt>
      <trkpt lat="44.13194" lon="3.03722">
        <ele>622.8</ele>
        <time>2022-07-12T14:46:10Z</time>
      </trkpt>
      <trkpt lat="44.13184" lon="3.03739">
        <ele>622</ele>
        <time>2022-07-12T14:46:14Z</time>
      </trkpt>
      <trkpt lat="44.13181" lon="3.03743">
        <ele>621.8</ele>
        <time>2022-07-12T14:46:15Z</time>
      </trkpt>
      <trkpt lat="44.13173" lon="3.03749">
        <ele>621</ele>
        <time>2022-07-12T14:46:17Z</time>
      </trkpt>
      <trkpt lat="44.13162" lon="3.03755">
        <ele>619.8</ele>
        <time>2022-07-12T14:46:21Z</time>
      </trkpt>
      <trkpt lat="44.13161" lon="3.03756">
        <ele>619.4</ele>
        <time>2022-07-12T14:46:22Z</time>
      </trkpt>
      <trkpt lat="44.1316" lon="3.03757">
        <ele>618.4</ele>
        <time>2022-07-12T14:46:23Z</time>
      </trkpt>
      <trkpt lat="44.1316" lon="3.03761">
        <ele>617.4</ele>
        <time>2022-07-12T14:46:25Z</time>
      </trkpt>
      <trkpt lat="44.13161" lon="3.03762">
        <ele>617</ele>
        <time>2022-07-12T14:46:26Z</time>
      </trkpt>
      <trkpt lat="44.13163" lon="3.03763">
        <ele>616.8</ele>
        <time>2022-07-12T14:46:27Z</time>
      </trkpt>
      <trkpt lat="44.13166" lon="3.03766">
        <ele>616.8</ele>
        <time>2022-07-12T14:46:29Z</time>
      </trkpt>
      <trkpt lat="44.13166" lon="3.03771">
        <ele>616.4</ele>
        <time>2022-07-12T14:46:31Z</time>
      </trkpt>
      <trkpt lat="44.13157" lon="3.03779">
        <ele>616.2</ele>
        <time>2022-07-12T14:46:35Z</time>
      </trkpt>
      <trkpt lat="44.13156" lon="3.03779">
        <ele>616.2</ele>
        <time>2022-07-12T14:46:36Z</time>
      </trkpt>
      <trkpt lat="44.13156" lon="3.03779">
        <ele>615.6</ele>
        <time>2022-07-12T14:46:39Z</time>
      </trkpt>
      <trkpt lat="44.13152" lon="3.03782">
        <ele>615.2</ele>
        <time>2022-07-12T14:46:50Z</time>
      </trkpt>
      <trkpt lat="44.13145" lon="3.03787">
        <ele>615.2</ele>
        <time>2022-07-12T14:46:52Z</time>
      </trkpt>
      <trkpt lat="44.13141" lon="3.0379">
        <ele>615.2</ele>
        <time>2022-07-12T14:46:53Z</time>
      </trkpt>
      <trkpt lat="44.13128" lon="3.03805">
        <ele>613.8</ele>
        <time>2022-07-12T14:46:57Z</time>
      </trkpt>
      <trkpt lat="44.13122" lon="3.03809">
        <ele>613</ele>
        <time>2022-07-12T14:46:59Z</time>
      </trkpt>
      <trkpt lat="44.1312" lon="3.03811">
        <ele>612.8</ele>
        <time>2022-07-12T14:47:00Z</time>
      </trkpt>
      <trkpt lat="44.13116" lon="3.03814">
        <ele>611</ele>
        <time>2022-07-12T14:47:02Z</time>
      </trkpt>
      <trkpt lat="44.13115" lon="3.03814">
        <ele>610.8</ele>
        <time>2022-07-12T14:47:03Z</time>
      </trkpt>
      <trkpt lat="44.13115" lon="3.03814">
        <ele>609.8</ele>
        <time>2022-07-12T14:47:05Z</time>
      </trkpt>
      <trkpt lat="44.13115" lon="3.03814">
        <ele>609.4</ele>
        <time>2022-07-12T14:47:06Z</time>
      </trkpt>
      <trkpt lat="44.13115" lon="3.03814">
        <ele>609</ele>
        <time>2022-07-12T14:47:07Z</time>
      </trkpt>
      <trkpt lat="44.13113" lon="3.03815">
        <ele>606.6</ele>
        <time>2022-07-12T14:47:29Z</time>
      </trkpt>
      <trkpt lat="44.13108" lon="3.03816">
        <ele>606.8</ele>
        <time>2022-07-12T14:47:31Z</time>
      </trkpt>
      <trkpt lat="44.13097" lon="3.03821">
        <ele>605.4</ele>
        <time>2022-07-12T14:47:37Z</time>
      </trkpt>
      <trkpt lat="44.13093" lon="3.03824">
        <ele>604.2</ele>
        <time>2022-07-12T14:47:42Z</time>
      </trkpt>
      <trkpt lat="44.13092" lon="3.03824">
        <ele>604</ele>
        <time>2022-07-12T14:47:44Z</time>
      </trkpt>
      <trkpt lat="44.13087" lon="3.03822">
        <ele>603.8</ele>
        <time>2022-07-12T14:47:51Z</time>
      </trkpt>
      <trkpt lat="44.13087" lon="3.03822">
        <ele>603.4</ele>
        <time>2022-07-12T14:47:53Z</time>
      </trkpt>
      <trkpt lat="44.13083" lon="3.03826">
        <ele>602.6</ele>
        <time>2022-07-12T14:47:59Z</time>
      </trkpt>
      <trkpt lat="44.13081" lon="3.03828">
        <ele>601.6</ele>
        <time>2022-07-12T14:48:02Z</time>
      </trkpt>
      <trkpt lat="44.13081" lon="3.03828">
        <ele>601.4</ele>
        <time>2022-07-12T14:48:03Z</time>
      </trkpt>
      <trkpt lat="44.1308" lon="3.03829">
        <ele>600.6</ele>
        <time>2022-07-12T14:48:08Z</time>
      </trkpt>
      <trkpt lat="44.1308" lon="3.03829">
        <ele>600.2</ele>
        <time>2022-07-12T14:48:10Z</time>
      </trkpt>
      <trkpt lat="44.1308" lon="3.03829">
        <ele>600.2</ele>
        <time>2022-07-12T14:48:11Z</time>
      </trkpt>
      <trkpt lat="44.13079" lon="3.03831">
        <ele>599.2</ele>
        <time>2022-07-12T14:48:17Z</time>
      </trkpt>
      <trkpt lat="44.13077" lon="3.03834">
        <ele>598.8</ele>
        <time>2022-07-12T14:48:20Z</time>
      </trkpt>
      <trkpt lat="44.13076" lon="3.03835">
        <ele>598.2</ele>
        <time>2022-07-12T14:48:22Z</time>
      </trkpt>
      <trkpt lat="44.13074" lon="3.03837">
        <ele>597</ele>
        <time>2022-07-12T14:48:27Z</time>
      </trkpt>
      <trkpt lat="44.13069" lon="3.03841">
        <ele>595.8</ele>
        <time>2022-07-12T14:48:34Z</time>
      </trkpt>
      <trkpt lat="44.13066" lon="3.03844">
        <ele>594.8</ele>
        <time>2022-07-12T14:48:38Z</time>
      </trkpt>
      <trkpt lat="44.13065" lon="3.03845">
        <ele>594.6</ele>
        <time>2022-07-12T14:48:39Z</time>
      </trkpt>
      <trkpt lat="44.13063" lon="3.03849">
        <ele>593.6</ele>
        <time>2022-07-12T14:48:43Z</time>
      </trkpt>
      <trkpt lat="44.13062" lon="3.03852">
        <ele>593.4</ele>
        <time>2022-07-12T14:48:45Z</time>
      </trkpt>
      <trkpt lat="44.1306" lon="3.03854">
        <ele>592.8</ele>
        <time>2022-07-12T14:48:48Z</time>
      </trkpt>
      <trkpt lat="44.13057" lon="3.03854">
        <ele>592.2</ele>
        <time>2022-07-12T14:48:51Z</time>
      </trkpt>
      <trkpt lat="44.13054" lon="3.03855">
        <ele>591.6</ele>
        <time>2022-07-12T14:48:53Z</time>
      </trkpt>
      <trkpt lat="44.13051" lon="3.03857">
        <ele>590.4</ele>
        <time>2022-07-12T14:48:57Z</time>
      </trkpt>
      <trkpt lat="44.13051" lon="3.03859">
        <ele>590</ele>
        <time>2022-07-12T14:48:58Z</time>
      </trkpt>
      <trkpt lat="44.13049" lon="3.03864">
        <ele>589.2</ele>
        <time>2022-07-12T14:49:03Z</time>
      </trkpt>
      <trkpt lat="44.13047" lon="3.0387">
        <ele>588.2</ele>
        <time>2022-07-12T14:49:08Z</time>
      </trkpt>
      <trkpt lat="44.13046" lon="3.03874">
        <ele>587.2</ele>
        <time>2022-07-12T14:49:12Z</time>
      </trkpt>
      <trkpt lat="44.13044" lon="3.03879">
        <ele>586.6</ele>
        <time>2022-07-12T14:49:16Z</time>
      </trkpt>
      <trkpt lat="44.13043" lon="3.03882">
        <ele>586.2</ele>
        <time>2022-07-12T14:49:19Z</time>
      </trkpt>
      <trkpt lat="44.1304" lon="3.03886">
        <ele>585.4</ele>
        <time>2022-07-12T14:49:22Z</time>
      </trkpt>
      <trkpt lat="44.13038" lon="3.03886">
        <ele>584.8</ele>
        <time>2022-07-12T14:49:25Z</time>
      </trkpt>
      <trkpt lat="44.13033" lon="3.03889">
        <ele>584</ele>
        <time>2022-07-12T14:49:28Z</time>
      </trkpt>
      <trkpt lat="44.13025" lon="3.03888">
        <ele>583.8</ele>
        <time>2022-07-12T14:49:31Z</time>
      </trkpt>
      <trkpt lat="44.13019" lon="3.0389">
        <ele>583</ele>
        <time>2022-07-12T14:49:34Z</time>
      </trkpt>
      <trkpt lat="44.13018" lon="3.03892">
        <ele>582.8</ele>
        <time>2022-07-12T14:49:35Z</time>
      </trkpt>
      <trkpt lat="44.13018" lon="3.03893">
        <ele>582.6</ele>
        <time>2022-07-12T14:49:36Z</time>
      </trkpt>
      <trkpt lat="44.13017" lon="3.03896">
        <ele>582.4</ele>
        <time>2022-07-12T14:49:38Z</time>
      </trkpt>
      <trkpt lat="44.13009" lon="3.03902">
        <ele>581.6</ele>
        <time>2022-07-12T14:49:42Z</time>
      </trkpt>
      <trkpt lat="44.13007" lon="3.03906">
        <ele>581</ele>
        <time>2022-07-12T14:49:43Z</time>
      </trkpt>
      <trkpt lat="44.13007" lon="3.03909">
        <ele>580.6</ele>
        <time>2022-07-12T14:49:44Z</time>
      </trkpt>
      <trkpt lat="44.13007" lon="3.03913">
        <ele>580</ele>
        <time>2022-07-12T14:49:45Z</time>
      </trkpt>
      <trkpt lat="44.13009" lon="3.03917">
        <ele>579.6</ele>
        <time>2022-07-12T14:49:46Z</time>
      </trkpt>
      <trkpt lat="44.13011" lon="3.03923">
        <ele>578.6</ele>
        <time>2022-07-12T14:49:48Z</time>
      </trkpt>
      <trkpt lat="44.13008" lon="3.03926">
        <ele>577.4</ele>
        <time>2022-07-12T14:49:50Z</time>
      </trkpt>
      <trkpt lat="44.13006" lon="3.03927">
        <ele>575.8</ele>
        <time>2022-07-12T14:49:54Z</time>
      </trkpt>
      <trkpt lat="44.13003" lon="3.03931">
        <ele>573.4</ele>
        <time>2022-07-12T14:51:39Z</time>
      </trkpt>
      <trkpt lat="44.13001" lon="3.03932">
        <ele>573.4</ele>
        <time>2022-07-12T14:51:40Z</time>
      </trkpt>
      <trkpt lat="44.12999" lon="3.03935">
        <ele>573.2</ele>
        <time>2022-07-12T14:51:42Z</time>
      </trkpt>
      <trkpt lat="44.12998" lon="3.03936">
        <ele>573.2</ele>
        <time>2022-07-12T14:51:43Z</time>
      </trkpt>
      <trkpt lat="44.12997" lon="3.03938">
        <ele>572.8</ele>
        <time>2022-07-12T14:51:49Z</time>
      </trkpt>
      <trkpt lat="44.12992" lon="3.03946">
        <ele>573.2</ele>
        <time>2022-07-12T14:51:58Z</time>
      </trkpt>
      <trkpt lat="44.12987" lon="3.03954">
        <ele>574</ele>
        <time>2022-07-12T14:52:05Z</time>
      </trkpt>
      <trkpt lat="44.12977" lon="3.03967">
        <ele>574</ele>
        <time>2022-07-12T14:52:10Z</time>
      </trkpt>
      <trkpt lat="44.12964" lon="3.03997">
        <ele>573.6</ele>
        <time>2022-07-12T14:52:16Z</time>
      </trkpt>
      <trkpt lat="44.12946" lon="3.04023">
        <ele>572.4</ele>
        <time>2022-07-12T14:52:21Z</time>
      </trkpt>
      <trkpt lat="44.1294" lon="3.04033">
        <ele>572.4</ele>
        <time>2022-07-12T14:52:23Z</time>
      </trkpt>
      <trkpt lat="44.12937" lon="3.04038">
        <ele>572.2</ele>
        <time>2022-07-12T14:52:24Z</time>
      </trkpt>
      <trkpt lat="44.1293" lon="3.04052">
        <ele>572</ele>
        <time>2022-07-12T14:52:26Z</time>
      </trkpt>
      <trkpt lat="44.12922" lon="3.0407">
        <ele>571.6</ele>
        <time>2022-07-12T14:52:29Z</time>
      </trkpt>
      <trkpt lat="44.12919" lon="3.04075">
        <ele>571.4</ele>
        <time>2022-07-12T14:52:30Z</time>
      </trkpt>
      <trkpt lat="44.12917" lon="3.04079">
        <ele>571.2</ele>
        <time>2022-07-12T14:52:31Z</time>
      </trkpt>
      <trkpt lat="44.1291" lon="3.04091">
        <ele>570.6</ele>
        <time>2022-07-12T14:52:33Z</time>
      </trkpt>
      <trkpt lat="44.12902" lon="3.04099">
        <ele>570.2</ele>
        <time>2022-07-12T14:52:35Z</time>
      </trkpt>
      <trkpt lat="44.12898" lon="3.04103">
        <ele>570</ele>
        <time>2022-07-12T14:52:36Z</time>
      </trkpt>
      <trkpt lat="44.12893" lon="3.04115">
        <ele>569</ele>
        <time>2022-07-12T14:52:39Z</time>
      </trkpt>
      <trkpt lat="44.1289" lon="3.04119">
        <ele>568.8</ele>
        <time>2022-07-12T14:52:40Z</time>
      </trkpt>
      <trkpt lat="44.12881" lon="3.04132">
        <ele>567.6</ele>
        <time>2022-07-12T14:52:43Z</time>
      </trkpt>
      <trkpt lat="44.12874" lon="3.04139">
        <ele>567</ele>
        <time>2022-07-12T14:52:45Z</time>
      </trkpt>
      <trkpt lat="44.12867" lon="3.04146">
        <ele>566.2</ele>
        <time>2022-07-12T14:52:47Z</time>
      </trkpt>
      <trkpt lat="44.12859" lon="3.04152">
        <ele>565</ele>
        <time>2022-07-12T14:52:50Z</time>
      </trkpt>
      <trkpt lat="44.12856" lon="3.04156">
        <ele>564.2</ele>
        <time>2022-07-12T14:52:52Z</time>
      </trkpt>
      <trkpt lat="44.12852" lon="3.04161">
        <ele>563.8</ele>
        <time>2022-07-12T14:52:54Z</time>
      </trkpt>
      <trkpt lat="44.12845" lon="3.04169">
        <ele>563.4</ele>
        <time>2022-07-12T14:52:57Z</time>
      </trkpt>
      <trkpt lat="44.12836" lon="3.04183">
        <ele>563.2</ele>
        <time>2022-07-12T14:53:02Z</time>
      </trkpt>
      <trkpt lat="44.12826" lon="3.04195">
        <ele>563.8</ele>
        <time>2022-07-12T14:53:08Z</time>
      </trkpt>
      <trkpt lat="44.12819" lon="3.04213">
        <ele>563.8</ele>
        <time>2022-07-12T14:53:12Z</time>
      </trkpt>
      <trkpt lat="44.12818" lon="3.04217">
        <ele>563.8</ele>
        <time>2022-07-12T14:53:13Z</time>
      </trkpt>
      <trkpt lat="44.1281" lon="3.04239">
        <ele>563.6</ele>
        <time>2022-07-12T14:53:17Z</time>
      </trkpt>
      <trkpt lat="44.12805" lon="3.04255">
        <ele>562.4</ele>
        <time>2022-07-12T14:53:20Z</time>
      </trkpt>
      <trkpt lat="44.12804" lon="3.0426">
        <ele>562</ele>
        <time>2022-07-12T14:53:21Z</time>
      </trkpt>
      <trkpt lat="44.128" lon="3.04268">
        <ele>560.6</ele>
        <time>2022-07-12T14:53:23Z</time>
      </trkpt>
      <trkpt lat="44.1279" lon="3.04285">
        <ele>559.4</ele>
        <time>2022-07-12T14:53:26Z</time>
      </trkpt>
      <trkpt lat="44.12787" lon="3.0429">
        <ele>559.2</ele>
        <time>2022-07-12T14:53:27Z</time>
      </trkpt>
      <trkpt lat="44.12774" lon="3.04302">
        <ele>558.2</ele>
        <time>2022-07-12T14:53:31Z</time>
      </trkpt>
      <trkpt lat="44.12767" lon="3.04305">
        <ele>557.2</ele>
        <time>2022-07-12T14:53:33Z</time>
      </trkpt>
      <trkpt lat="44.12757" lon="3.04312">
        <ele>556</ele>
        <time>2022-07-12T14:53:36Z</time>
      </trkpt>
      <trkpt lat="44.12747" lon="3.04311">
        <ele>554.8</ele>
        <time>2022-07-12T14:53:38Z</time>
      </trkpt>
      <trkpt lat="44.12739" lon="3.04315">
        <ele>553.8</ele>
        <time>2022-07-12T14:53:40Z</time>
      </trkpt>
      <trkpt lat="44.12737" lon="3.04317">
        <ele>553.4</ele>
        <time>2022-07-12T14:53:41Z</time>
      </trkpt>
      <trkpt lat="44.12724" lon="3.04329">
        <ele>553</ele>
        <time>2022-07-12T14:53:47Z</time>
      </trkpt>
      <trkpt lat="44.12713" lon="3.04344">
        <ele>553.6</ele>
        <time>2022-07-12T14:53:52Z</time>
      </trkpt>
      <trkpt lat="44.12705" lon="3.04356">
        <ele>553</ele>
        <time>2022-07-12T14:53:55Z</time>
      </trkpt>
      <trkpt lat="44.12698" lon="3.04364">
        <ele>552.8</ele>
        <time>2022-07-12T14:53:57Z</time>
      </trkpt>
      <trkpt lat="44.12695" lon="3.04368">
        <ele>552.6</ele>
        <time>2022-07-12T14:53:58Z</time>
      </trkpt>
      <trkpt lat="44.12687" lon="3.04376">
        <ele>552</ele>
        <time>2022-07-12T14:54:00Z</time>
      </trkpt>
      <trkpt lat="44.12683" lon="3.04382">
        <ele>551.6</ele>
        <time>2022-07-12T14:54:02Z</time>
      </trkpt>
      <trkpt lat="44.12681" lon="3.04384">
        <ele>551.6</ele>
        <time>2022-07-12T14:54:03Z</time>
      </trkpt>
      <trkpt lat="44.12679" lon="3.04386">
        <ele>551.6</ele>
        <time>2022-07-12T14:54:04Z</time>
      </trkpt>
      <trkpt lat="44.12675" lon="3.0439">
        <ele>551.4</ele>
        <time>2022-07-12T14:54:06Z</time>
      </trkpt>
      <trkpt lat="44.12673" lon="3.04391">
        <ele>551.4</ele>
        <time>2022-07-12T14:54:07Z</time>
      </trkpt>
      <trkpt lat="44.12666" lon="3.04402">
        <ele>551.6</ele>
        <time>2022-07-12T14:54:11Z</time>
      </trkpt>
      <trkpt lat="44.12658" lon="3.04411">
        <ele>551.4</ele>
        <time>2022-07-12T14:54:15Z</time>
      </trkpt>
      <trkpt lat="44.12644" lon="3.04429">
        <ele>551.2</ele>
        <time>2022-07-12T14:54:21Z</time>
      </trkpt>
      <trkpt lat="44.12628" lon="3.04447">
        <ele>551.8</ele>
        <time>2022-07-12T14:54:28Z</time>
      </trkpt>
      <trkpt lat="44.12615" lon="3.04465">
        <ele>552</ele>
        <time>2022-07-12T14:54:32Z</time>
      </trkpt>
      <trkpt lat="44.12611" lon="3.0447">
        <ele>551.8</ele>
        <time>2022-07-12T14:54:33Z</time>
      </trkpt>
      <trkpt lat="44.12607" lon="3.04476">
        <ele>551.8</ele>
        <time>2022-07-12T14:54:34Z</time>
      </trkpt>
      <trkpt lat="44.12598" lon="3.04483">
        <ele>551.4</ele>
        <time>2022-07-12T14:54:36Z</time>
      </trkpt>
      <trkpt lat="44.12595" lon="3.04485">
        <ele>551.2</ele>
        <time>2022-07-12T14:54:37Z</time>
      </trkpt>
      <trkpt lat="44.12589" lon="3.0449">
        <ele>550.8</ele>
        <time>2022-07-12T14:54:39Z</time>
      </trkpt>
      <trkpt lat="44.12586" lon="3.0449">
        <ele>550.2</ele>
        <time>2022-07-12T14:54:40Z</time>
      </trkpt>
      <trkpt lat="44.12584" lon="3.04492">
        <ele>550</ele>
        <time>2022-07-12T14:54:41Z</time>
      </trkpt>
      <trkpt lat="44.12578" lon="3.04501">
        <ele>549.6</ele>
        <time>2022-07-12T14:54:44Z</time>
      </trkpt>
      <trkpt lat="44.12572" lon="3.0451">
        <ele>549.4</ele>
        <time>2022-07-12T14:54:47Z</time>
      </trkpt>
      <trkpt lat="44.12555" lon="3.04526">
        <ele>549</ele>
        <time>2022-07-12T14:54:53Z</time>
      </trkpt>
      <trkpt lat="44.12545" lon="3.04537">
        <ele>548.8</ele>
        <time>2022-07-12T14:54:56Z</time>
      </trkpt>
      <trkpt lat="44.12537" lon="3.04543">
        <ele>548.4</ele>
        <time>2022-07-12T14:54:58Z</time>
      </trkpt>
      <trkpt lat="44.1253" lon="3.04546">
        <ele>548.2</ele>
        <time>2022-07-12T14:55:00Z</time>
      </trkpt>
      <trkpt lat="44.12521" lon="3.04546">
        <ele>547.6</ele>
        <time>2022-07-12T14:55:02Z</time>
      </trkpt>
      <trkpt lat="44.12517" lon="3.04547">
        <ele>546.6</ele>
        <time>2022-07-12T14:55:03Z</time>
      </trkpt>
      <trkpt lat="44.12507" lon="3.04549">
        <ele>545.4</ele>
        <time>2022-07-12T14:55:06Z</time>
      </trkpt>
      <trkpt lat="44.12504" lon="3.0455">
        <ele>544.8</ele>
        <time>2022-07-12T14:55:07Z</time>
      </trkpt>
      <trkpt lat="44.12497" lon="3.0455">
        <ele>544.4</ele>
        <time>2022-07-12T14:55:09Z</time>
      </trkpt>
      <trkpt lat="44.1249" lon="3.04551">
        <ele>544</ele>
        <time>2022-07-12T14:55:12Z</time>
      </trkpt>
      <trkpt lat="44.12488" lon="3.04552">
        <ele>544</ele>
        <time>2022-07-12T14:55:13Z</time>
      </trkpt>
      <trkpt lat="44.12482" lon="3.04556">
        <ele>543.2</ele>
        <time>2022-07-12T14:55:16Z</time>
      </trkpt>
      <trkpt lat="44.1248" lon="3.04559">
        <ele>542.6</ele>
        <time>2022-07-12T14:55:18Z</time>
      </trkpt>
      <trkpt lat="44.1248" lon="3.04561">
        <ele>542</ele>
        <time>2022-07-12T14:55:19Z</time>
      </trkpt>
      <trkpt lat="44.12484" lon="3.04566">
        <ele>541</ele>
        <time>2022-07-12T14:55:22Z</time>
      </trkpt>
      <trkpt lat="44.12486" lon="3.04567">
        <ele>540.4</ele>
        <time>2022-07-12T14:55:23Z</time>
      </trkpt>
      <trkpt lat="44.1249" lon="3.04569">
        <ele>539.2</ele>
        <time>2022-07-12T14:55:25Z</time>
      </trkpt>
      <trkpt lat="44.12496" lon="3.0457">
        <ele>537.8</ele>
        <time>2022-07-12T14:55:27Z</time>
      </trkpt>
      <trkpt lat="44.12498" lon="3.04572">
        <ele>537.4</ele>
        <time>2022-07-12T14:55:28Z</time>
      </trkpt>
      <trkpt lat="44.12503" lon="3.04573">
        <ele>536.2</ele>
        <time>2022-07-12T14:55:32Z</time>
      </trkpt>
      <trkpt lat="44.12503" lon="3.04573">
        <ele>535.6</ele>
        <time>2022-07-12T14:55:35Z</time>
      </trkpt>
      <trkpt lat="44.12506" lon="3.04575">
        <ele>534</ele>
        <time>2022-07-12T14:56:20Z</time>
      </trkpt>
      <trkpt lat="44.12513" lon="3.04576">
        <ele>533.8</ele>
        <time>2022-07-12T14:56:24Z</time>
      </trkpt>
      <trkpt lat="44.12513" lon="3.04576">
        <ele>533.2</ele>
        <time>2022-07-12T14:56:27Z</time>
      </trkpt>
      <trkpt lat="44.12514" lon="3.04577">
        <ele>532.6</ele>
        <time>2022-07-12T14:56:29Z</time>
      </trkpt>
      <trkpt lat="44.12515" lon="3.04577">
        <ele>532.4</ele>
        <time>2022-07-12T14:56:30Z</time>
      </trkpt>
      <trkpt lat="44.12524" lon="3.04582">
        <ele>531.6</ele>
        <time>2022-07-12T14:56:35Z</time>
      </trkpt>
      <trkpt lat="44.12525" lon="3.04584">
        <ele>531.4</ele>
        <time>2022-07-12T14:56:36Z</time>
      </trkpt>
      <trkpt lat="44.12525" lon="3.04585">
        <ele>530.6</ele>
        <time>2022-07-12T14:56:38Z</time>
      </trkpt>
      <trkpt lat="44.12525" lon="3.04585">
        <ele>530.4</ele>
        <time>2022-07-12T14:56:39Z</time>
      </trkpt>
      <trkpt lat="44.12524" lon="3.04587">
        <ele>528.8</ele>
        <time>2022-07-12T14:56:48Z</time>
      </trkpt>
      <trkpt lat="44.1252" lon="3.04589">
        <ele>528.4</ele>
        <time>2022-07-12T14:56:53Z</time>
      </trkpt>
      <trkpt lat="44.1252" lon="3.0459">
        <ele>528</ele>
        <time>2022-07-12T14:56:56Z</time>
      </trkpt>
      <trkpt lat="44.12519" lon="3.0459">
        <ele>527.8</ele>
        <time>2022-07-12T14:57:00Z</time>
      </trkpt>
      <trkpt lat="44.12518" lon="3.04591">
        <ele>527.6</ele>
        <time>2022-07-12T14:57:02Z</time>
      </trkpt>
      <trkpt lat="44.12517" lon="3.04591">
        <ele>527.4</ele>
        <time>2022-07-12T14:57:03Z</time>
      </trkpt>
      <trkpt lat="44.12514" lon="3.04592">
        <ele>527.2</ele>
        <time>2022-07-12T14:57:05Z</time>
      </trkpt>
      <trkpt lat="44.12513" lon="3.04591">
        <ele>527.2</ele>
        <time>2022-07-12T14:57:06Z</time>
      </trkpt>
      <trkpt lat="44.12511" lon="3.04591">
        <ele>526.8</ele>
        <time>2022-07-12T14:57:10Z</time>
      </trkpt>
      <trkpt lat="44.12511" lon="3.04591">
        <ele>526.6</ele>
        <time>2022-07-12T14:57:15Z</time>
      </trkpt>
      <trkpt lat="44.12509" lon="3.04593">
        <ele>525.4</ele>
        <time>2022-07-12T14:57:21Z</time>
      </trkpt>
      <trkpt lat="44.12509" lon="3.04593">
        <ele>524.4</ele>
        <time>2022-07-12T14:57:25Z</time>
      </trkpt>
      <trkpt lat="44.12508" lon="3.04596">
        <ele>523.4</ele>
        <time>2022-07-12T14:57:31Z</time>
      </trkpt>
      <trkpt lat="44.12508" lon="3.04596">
        <ele>523</ele>
        <time>2022-07-12T14:57:33Z</time>
      </trkpt>
      <trkpt lat="44.12505" lon="3.04598">
        <ele>522.2</ele>
        <time>2022-07-12T14:57:36Z</time>
      </trkpt>
      <trkpt lat="44.12502" lon="3.04599">
        <ele>521.4</ele>
        <time>2022-07-12T14:57:41Z</time>
      </trkpt>
      <trkpt lat="44.125" lon="3.04601">
        <ele>521</ele>
        <time>2022-07-12T14:57:42Z</time>
      </trkpt>
      <trkpt lat="44.12498" lon="3.04602">
        <ele>521</ele>
        <time>2022-07-12T14:57:43Z</time>
      </trkpt>
      <trkpt lat="44.12495" lon="3.04606">
        <ele>520.8</ele>
        <time>2022-07-12T14:57:45Z</time>
      </trkpt>
      <trkpt lat="44.12494" lon="3.04606">
        <ele>520.6</ele>
        <time>2022-07-12T14:57:46Z</time>
      </trkpt>
      <trkpt lat="44.12489" lon="3.0461">
        <ele>520.2</ele>
        <time>2022-07-12T14:57:51Z</time>
      </trkpt>
      <trkpt lat="44.12484" lon="3.04614">
        <ele>520.2</ele>
        <time>2022-07-12T14:57:53Z</time>
      </trkpt>
      <trkpt lat="44.12482" lon="3.04616">
        <ele>520.2</ele>
        <time>2022-07-12T14:57:54Z</time>
      </trkpt>
      <trkpt lat="44.12469" lon="3.04629">
        <ele>520.2</ele>
        <time>2022-07-12T14:57:58Z</time>
      </trkpt>
      <trkpt lat="44.12464" lon="3.04635">
        <ele>519.8</ele>
        <time>2022-07-12T14:58:00Z</time>
      </trkpt>
      <trkpt lat="44.12445" lon="3.04653">
        <ele>519</ele>
        <time>2022-07-12T14:58:05Z</time>
      </trkpt>
      <trkpt lat="44.12442" lon="3.04655">
        <ele>518.8</ele>
        <time>2022-07-12T14:58:06Z</time>
      </trkpt>
      <trkpt lat="44.12432" lon="3.04662">
        <ele>517.6</ele>
        <time>2022-07-12T14:58:09Z</time>
      </trkpt>
      <trkpt lat="44.12429" lon="3.04665">
        <ele>517.6</ele>
        <time>2022-07-12T14:58:10Z</time>
      </trkpt>
      <trkpt lat="44.1242" lon="3.04671">
        <ele>517</ele>
        <time>2022-07-12T14:58:16Z</time>
      </trkpt>
      <trkpt lat="44.1242" lon="3.04671">
        <ele>517</ele>
        <time>2022-07-12T14:58:18Z</time>
      </trkpt>
      <trkpt lat="44.12415" lon="3.04677">
        <ele>517.8</ele>
        <time>2022-07-12T14:58:33Z</time>
      </trkpt>
      <trkpt lat="44.12413" lon="3.0468">
        <ele>517.8</ele>
        <time>2022-07-12T14:58:35Z</time>
      </trkpt>
      <trkpt lat="44.12407" lon="3.04686">
        <ele>517.8</ele>
        <time>2022-07-12T14:58:40Z</time>
      </trkpt>
      <trkpt lat="44.12404" lon="3.04691">
        <ele>517.8</ele>
        <time>2022-07-12T14:58:42Z</time>
      </trkpt>
      <trkpt lat="44.12402" lon="3.04692">
        <ele>518</ele>
        <time>2022-07-12T14:58:43Z</time>
      </trkpt>
      <trkpt lat="44.12396" lon="3.04699">
        <ele>518.8</ele>
        <time>2022-07-12T14:58:47Z</time>
      </trkpt>
      <trkpt lat="44.12392" lon="3.04704">
        <ele>518.8</ele>
        <time>2022-07-12T14:58:49Z</time>
      </trkpt>
      <trkpt lat="44.12387" lon="3.04714">
        <ele>519.4</ele>
        <time>2022-07-12T14:58:53Z</time>
      </trkpt>
      <trkpt lat="44.12385" lon="3.04717">
        <ele>519.6</ele>
        <time>2022-07-12T14:58:54Z</time>
      </trkpt>
      <trkpt lat="44.12374" lon="3.04739">
        <ele>519.6</ele>
        <time>2022-07-12T14:58:59Z</time>
      </trkpt>
      <trkpt lat="44.12371" lon="3.0475">
        <ele>518.8</ele>
        <time>2022-07-12T14:59:02Z</time>
      </trkpt>
      <trkpt lat="44.12369" lon="3.04752">
        <ele>518.4</ele>
        <time>2022-07-12T14:59:03Z</time>
      </trkpt>
      <trkpt lat="44.12364" lon="3.04756">
        <ele>517.8</ele>
        <time>2022-07-12T14:59:05Z</time>
      </trkpt>
      <trkpt lat="44.12363" lon="3.04759">
        <ele>517.6</ele>
        <time>2022-07-12T14:59:06Z</time>
      </trkpt>
      <trkpt lat="44.12361" lon="3.0476">
        <ele>517.4</ele>
        <time>2022-07-12T14:59:07Z</time>
      </trkpt>
      <trkpt lat="44.12355" lon="3.04763">
        <ele>517.2</ele>
        <time>2022-07-12T14:59:10Z</time>
      </trkpt>
      <trkpt lat="44.1235" lon="3.0477">
        <ele>517.2</ele>
        <time>2022-07-12T14:59:12Z</time>
      </trkpt>
      <trkpt lat="44.12342" lon="3.04782">
        <ele>517.2</ele>
        <time>2022-07-12T14:59:16Z</time>
      </trkpt>
      <trkpt lat="44.12337" lon="3.04794">
        <ele>516.4</ele>
        <time>2022-07-12T14:59:19Z</time>
      </trkpt>
      <trkpt lat="44.12334" lon="3.04798">
        <ele>516</ele>
        <time>2022-07-12T14:59:20Z</time>
      </trkpt>
      <trkpt lat="44.12331" lon="3.04801">
        <ele>515.6</ele>
        <time>2022-07-12T14:59:21Z</time>
      </trkpt>
      <trkpt lat="44.12326" lon="3.04816">
        <ele>514.2</ele>
        <time>2022-07-12T14:59:24Z</time>
      </trkpt>
      <trkpt lat="44.12324" lon="3.04821">
        <ele>513.4</ele>
        <time>2022-07-12T14:59:25Z</time>
      </trkpt>
      <trkpt lat="44.12322" lon="3.04825">
        <ele>512.4</ele>
        <time>2022-07-12T14:59:26Z</time>
      </trkpt>
      <trkpt lat="44.12315" lon="3.04836">
        <ele>511.2</ele>
        <time>2022-07-12T14:59:29Z</time>
      </trkpt>
      <trkpt lat="44.12312" lon="3.04841">
        <ele>510.6</ele>
        <time>2022-07-12T14:59:30Z</time>
      </trkpt>
      <trkpt lat="44.1231" lon="3.04846">
        <ele>509.8</ele>
        <time>2022-07-12T14:59:31Z</time>
      </trkpt>
      <trkpt lat="44.12304" lon="3.04857">
        <ele>508.6</ele>
        <time>2022-07-12T14:59:34Z</time>
      </trkpt>
      <trkpt lat="44.12299" lon="3.04863">
        <ele>508</ele>
        <time>2022-07-12T14:59:36Z</time>
      </trkpt>
      <trkpt lat="44.12289" lon="3.04871">
        <ele>507.4</ele>
        <time>2022-07-12T14:59:40Z</time>
      </trkpt>
      <trkpt lat="44.12287" lon="3.04874">
        <ele>507.2</ele>
        <time>2022-07-12T14:59:41Z</time>
      </trkpt>
      <trkpt lat="44.12278" lon="3.0489">
        <ele>506.4</ele>
        <time>2022-07-12T14:59:46Z</time>
      </trkpt>
      <trkpt lat="44.12271" lon="3.049">
        <ele>505.8</ele>
        <time>2022-07-12T14:59:49Z</time>
      </trkpt>
      <trkpt lat="44.12269" lon="3.04902">
        <ele>505.8</ele>
        <time>2022-07-12T14:59:50Z</time>
      </trkpt>
      <trkpt lat="44.12263" lon="3.04907">
        <ele>505</ele>
        <time>2022-07-12T14:59:53Z</time>
      </trkpt>
      <trkpt lat="44.12258" lon="3.0491">
        <ele>504.6</ele>
        <time>2022-07-12T14:59:55Z</time>
      </trkpt>
      <trkpt lat="44.12248" lon="3.0492">
        <ele>504</ele>
        <time>2022-07-12T15:00:00Z</time>
      </trkpt>
      <trkpt lat="44.12242" lon="3.04926">
        <ele>504</ele>
        <time>2022-07-12T15:00:03Z</time>
      </trkpt>
      <trkpt lat="44.12238" lon="3.0493">
        <ele>504</ele>
        <time>2022-07-12T15:00:06Z</time>
      </trkpt>
      <trkpt lat="44.12236" lon="3.04931">
        <ele>504.2</ele>
        <time>2022-07-12T15:00:07Z</time>
      </trkpt>
      <trkpt lat="44.12223" lon="3.04945">
        <ele>504.6</ele>
        <time>2022-07-12T15:00:13Z</time>
      </trkpt>
      <trkpt lat="44.12216" lon="3.04951">
        <ele>505</ele>
        <time>2022-07-12T15:00:17Z</time>
      </trkpt>
      <trkpt lat="44.12215" lon="3.04952">
        <ele>505.4</ele>
        <time>2022-07-12T15:00:18Z</time>
      </trkpt>
      <trkpt lat="44.12211" lon="3.04959">
        <ele>505.8</ele>
        <time>2022-07-12T15:00:21Z</time>
      </trkpt>
      <trkpt lat="44.12207" lon="3.04965">
        <ele>506</ele>
        <time>2022-07-12T15:00:23Z</time>
      </trkpt>
      <trkpt lat="44.12195" lon="3.0499">
        <ele>506</ele>
        <time>2022-07-12T15:00:29Z</time>
      </trkpt>
      <trkpt lat="44.12185" lon="3.05013">
        <ele>505.2</ele>
        <time>2022-07-12T15:00:34Z</time>
      </trkpt>
      <trkpt lat="44.12183" lon="3.05022">
        <ele>503.4</ele>
        <time>2022-07-12T15:00:36Z</time>
      </trkpt>
      <trkpt lat="44.12182" lon="3.0503">
        <ele>502.2</ele>
        <time>2022-07-12T15:00:38Z</time>
      </trkpt>
      <trkpt lat="44.12182" lon="3.05034">
        <ele>501.2</ele>
        <time>2022-07-12T15:00:39Z</time>
      </trkpt>
      <trkpt lat="44.12181" lon="3.05039">
        <ele>501</ele>
        <time>2022-07-12T15:00:40Z</time>
      </trkpt>
      <trkpt lat="44.12179" lon="3.05046">
        <ele>500</ele>
        <time>2022-07-12T15:00:42Z</time>
      </trkpt>
      <trkpt lat="44.1218" lon="3.05051">
        <ele>498.8</ele>
        <time>2022-07-12T15:00:44Z</time>
      </trkpt>
      <trkpt lat="44.1218" lon="3.05053">
        <ele>498.6</ele>
        <time>2022-07-12T15:00:45Z</time>
      </trkpt>
      <trkpt lat="44.12179" lon="3.05055">
        <ele>497.8</ele>
        <time>2022-07-12T15:00:46Z</time>
      </trkpt>
      <trkpt lat="44.12179" lon="3.05058">
        <ele>497.6</ele>
        <time>2022-07-12T15:00:47Z</time>
      </trkpt>
      <trkpt lat="44.12177" lon="3.05064">
        <ele>496.2</ele>
        <time>2022-07-12T15:00:49Z</time>
      </trkpt>
      <trkpt lat="44.12178" lon="3.05073">
        <ele>495.2</ele>
        <time>2022-07-12T15:00:51Z</time>
      </trkpt>
      <trkpt lat="44.12179" lon="3.05079">
        <ele>494</ele>
        <time>2022-07-12T15:00:53Z</time>
      </trkpt>
      <trkpt lat="44.12176" lon="3.05088">
        <ele>492.6</ele>
        <time>2022-07-12T15:00:55Z</time>
      </trkpt>
      <trkpt lat="44.12173" lon="3.05097">
        <ele>491.2</ele>
        <time>2022-07-12T15:00:57Z</time>
      </trkpt>
      <trkpt lat="44.12168" lon="3.05105">
        <ele>489.8</ele>
        <time>2022-07-12T15:00:59Z</time>
      </trkpt>
      <trkpt lat="44.12161" lon="3.0511">
        <ele>488.6</ele>
        <time>2022-07-12T15:01:01Z</time>
      </trkpt>
      <trkpt lat="44.12155" lon="3.05112">
        <ele>487.8</ele>
        <time>2022-07-12T15:01:03Z</time>
      </trkpt>
      <trkpt lat="44.12152" lon="3.05113">
        <ele>487.2</ele>
        <time>2022-07-12T15:01:04Z</time>
      </trkpt>
      <trkpt lat="44.12147" lon="3.05116">
        <ele>486.8</ele>
        <time>2022-07-12T15:01:07Z</time>
      </trkpt>
      <trkpt lat="44.12141" lon="3.05127">
        <ele>486.6</ele>
        <time>2022-07-12T15:01:12Z</time>
      </trkpt>
      <trkpt lat="44.12131" lon="3.05141">
        <ele>486.6</ele>
        <time>2022-07-12T15:01:16Z</time>
      </trkpt>
      <trkpt lat="44.12121" lon="3.05152">
        <ele>486.6</ele>
        <time>2022-07-12T15:01:19Z</time>
      </trkpt>
      <trkpt lat="44.12117" lon="3.05156">
        <ele>486.4</ele>
        <time>2022-07-12T15:01:20Z</time>
      </trkpt>
      <trkpt lat="44.12114" lon="3.05157">
        <ele>486.4</ele>
        <time>2022-07-12T15:01:21Z</time>
      </trkpt>
      <trkpt lat="44.12107" lon="3.05158">
        <ele>485.8</ele>
        <time>2022-07-12T15:01:22Z</time>
      </trkpt>
      <trkpt lat="44.12102" lon="3.05157">
        <ele>485.2</ele>
        <time>2022-07-12T15:01:23Z</time>
      </trkpt>
      <trkpt lat="44.12097" lon="3.05155">
        <ele>484.4</ele>
        <time>2022-07-12T15:01:24Z</time>
      </trkpt>
      <trkpt lat="44.12088" lon="3.05154">
        <ele>483.2</ele>
        <time>2022-07-12T15:01:26Z</time>
      </trkpt>
      <trkpt lat="44.12084" lon="3.05154">
        <ele>483</ele>
        <time>2022-07-12T15:01:27Z</time>
      </trkpt>
      <trkpt lat="44.12076" lon="3.05147">
        <ele>482.2</ele>
        <time>2022-07-12T15:01:31Z</time>
      </trkpt>
      <trkpt lat="44.12066" lon="3.05141">
        <ele>482.4</ele>
        <time>2022-07-12T15:01:36Z</time>
      </trkpt>
      <trkpt lat="44.12047" lon="3.05133">
        <ele>483</ele>
        <time>2022-07-12T15:01:43Z</time>
      </trkpt>
      <trkpt lat="44.12017" lon="3.05128">
        <ele>482.8</ele>
        <time>2022-07-12T15:01:50Z</time>
      </trkpt>
      <trkpt lat="44.12004" lon="3.05126">
        <ele>482.4</ele>
        <time>2022-07-12T15:01:53Z</time>
      </trkpt>
      <trkpt lat="44.11991" lon="3.05125">
        <ele>481.4</ele>
        <time>2022-07-12T15:01:56Z</time>
      </trkpt>
      <trkpt lat="44.11981" lon="3.05128">
        <ele>480.6</ele>
        <time>2022-07-12T15:02:00Z</time>
      </trkpt>
      <trkpt lat="44.11973" lon="3.05126">
        <ele>480.2</ele>
        <time>2022-07-12T15:02:05Z</time>
      </trkpt>
      <trkpt lat="44.11971" lon="3.05126">
        <ele>479.8</ele>
        <time>2022-07-12T15:02:06Z</time>
      </trkpt>
      <trkpt lat="44.11969" lon="3.05126">
        <ele>479.6</ele>
        <time>2022-07-12T15:02:07Z</time>
      </trkpt>
      <trkpt lat="44.11968" lon="3.05125">
        <ele>479</ele>
        <time>2022-07-12T15:02:08Z</time>
      </trkpt>
      <trkpt lat="44.11967" lon="3.05125">
        <ele>477.8</ele>
        <time>2022-07-12T15:02:10Z</time>
      </trkpt>
      <trkpt lat="44.11967" lon="3.05125">
        <ele>477.6</ele>
        <time>2022-07-12T15:02:11Z</time>
      </trkpt>
      <trkpt lat="44.11965" lon="3.05125">
        <ele>474.6</ele>
        <time>2022-07-12T15:02:19Z</time>
      </trkpt>
      <trkpt lat="44.11965" lon="3.05125">
        <ele>474</ele>
        <time>2022-07-12T15:02:22Z</time>
      </trkpt>
      <trkpt lat="44.11965" lon="3.05129">
        <ele>473.6</ele>
        <time>2022-07-12T15:02:38Z</time>
      </trkpt>
      <trkpt lat="44.11964" lon="3.05129">
        <ele>473.8</ele>
        <time>2022-07-12T15:02:39Z</time>
      </trkpt>
      <trkpt lat="44.11963" lon="3.05132">
        <ele>474.8</ele>
        <time>2022-07-12T15:02:44Z</time>
      </trkpt>
      <trkpt lat="44.11959" lon="3.05139">
        <ele>476</ele>
        <time>2022-07-12T15:02:49Z</time>
      </trkpt>
      <trkpt lat="44.11958" lon="3.05141">
        <ele>476.2</ele>
        <time>2022-07-12T15:02:52Z</time>
      </trkpt>
      <trkpt lat="44.11955" lon="3.05144">
        <ele>477</ele>
        <time>2022-07-12T15:02:59Z</time>
      </trkpt>
      <trkpt lat="44.1195" lon="3.05146">
        <ele>477.4</ele>
        <time>2022-07-12T15:03:02Z</time>
      </trkpt>
      <trkpt lat="44.11945" lon="3.05149">
        <ele>477.8</ele>
        <time>2022-07-12T15:03:05Z</time>
      </trkpt>
      <trkpt lat="44.11943" lon="3.05151">
        <ele>478.2</ele>
        <time>2022-07-12T15:03:07Z</time>
      </trkpt>
      <trkpt lat="44.11939" lon="3.05152">
        <ele>478.6</ele>
        <time>2022-07-12T15:03:11Z</time>
      </trkpt>
      <trkpt lat="44.11934" lon="3.05156">
        <ele>478.8</ele>
        <time>2022-07-12T15:03:14Z</time>
      </trkpt>
      <trkpt lat="44.1193" lon="3.05159">
        <ele>479</ele>
        <time>2022-07-12T15:03:16Z</time>
      </trkpt>
      <trkpt lat="44.11919" lon="3.05167">
        <ele>479.2</ele>
        <time>2022-07-12T15:03:21Z</time>
      </trkpt>
      <trkpt lat="44.11918" lon="3.05168">
        <ele>479.2</ele>
        <time>2022-07-12T15:03:22Z</time>
      </trkpt>
      <trkpt lat="44.11915" lon="3.05172">
        <ele>479.4</ele>
        <time>2022-07-12T15:03:25Z</time>
      </trkpt>
      <trkpt lat="44.11909" lon="3.0518">
        <ele>480.4</ele>
        <time>2022-07-12T15:03:30Z</time>
      </trkpt>
      <trkpt lat="44.11905" lon="3.05185">
        <ele>480.8</ele>
        <time>2022-07-12T15:03:33Z</time>
      </trkpt>
      <trkpt lat="44.11898" lon="3.05188">
        <ele>481.2</ele>
        <time>2022-07-12T15:03:36Z</time>
      </trkpt>
      <trkpt lat="44.11896" lon="3.05191">
        <ele>481.4</ele>
        <time>2022-07-12T15:03:39Z</time>
      </trkpt>
      <trkpt lat="44.11895" lon="3.05192">
        <ele>481.4</ele>
        <time>2022-07-12T15:03:40Z</time>
      </trkpt>
      <trkpt lat="44.11894" lon="3.05193">
        <ele>481.6</ele>
        <time>2022-07-12T15:03:41Z</time>
      </trkpt>
      <trkpt lat="44.11891" lon="3.05198">
        <ele>481.8</ele>
        <time>2022-07-12T15:03:45Z</time>
      </trkpt>
      <trkpt lat="44.11885" lon="3.05204">
        <ele>482.6</ele>
        <time>2022-07-12T15:03:50Z</time>
      </trkpt>
      <trkpt lat="44.11883" lon="3.05207">
        <ele>482.8</ele>
        <time>2022-07-12T15:03:52Z</time>
      </trkpt>
      <trkpt lat="44.11882" lon="3.05209">
        <ele>483</ele>
        <time>2022-07-12T15:03:53Z</time>
      </trkpt>
      <trkpt lat="44.11876" lon="3.05216">
        <ele>483.2</ele>
        <time>2022-07-12T15:03:58Z</time>
      </trkpt>
      <trkpt lat="44.11872" lon="3.05221">
        <ele>483.6</ele>
        <time>2022-07-12T15:04:01Z</time>
      </trkpt>
      <trkpt lat="44.11866" lon="3.05228">
        <ele>484</ele>
        <time>2022-07-12T15:04:05Z</time>
      </trkpt>
      <trkpt lat="44.11859" lon="3.05237">
        <ele>484.8</ele>
        <time>2022-07-12T15:04:09Z</time>
      </trkpt>
      <trkpt lat="44.11854" lon="3.05251">
        <ele>485.2</ele>
        <time>2022-07-12T15:04:12Z</time>
      </trkpt>
      <trkpt lat="44.11848" lon="3.05263">
        <ele>485.2</ele>
        <time>2022-07-12T15:04:14Z</time>
      </trkpt>
      <trkpt lat="44.11843" lon="3.05276">
        <ele>485.2</ele>
        <time>2022-07-12T15:04:16Z</time>
      </trkpt>
      <trkpt lat="44.11835" lon="3.05295">
        <ele>484.2</ele>
        <time>2022-07-12T15:04:19Z</time>
      </trkpt>
      <trkpt lat="44.11831" lon="3.05307">
        <ele>483.6</ele>
        <time>2022-07-12T15:04:21Z</time>
      </trkpt>
      <trkpt lat="44.11826" lon="3.05319">
        <ele>482.6</ele>
        <time>2022-07-12T15:04:23Z</time>
      </trkpt>
      <trkpt lat="44.11823" lon="3.05324">
        <ele>482.2</ele>
        <time>2022-07-12T15:04:24Z</time>
      </trkpt>
      <trkpt lat="44.11819" lon="3.0533">
        <ele>481.8</ele>
        <time>2022-07-12T15:04:25Z</time>
      </trkpt>
      <trkpt lat="44.11816" lon="3.05344">
        <ele>480.8</ele>
        <time>2022-07-12T15:04:27Z</time>
      </trkpt>
      <trkpt lat="44.1181" lon="3.05357">
        <ele>479.4</ele>
        <time>2022-07-12T15:04:29Z</time>
      </trkpt>
      <trkpt lat="44.11804" lon="3.0537">
        <ele>477.6</ele>
        <time>2022-07-12T15:04:31Z</time>
      </trkpt>
      <trkpt lat="44.118" lon="3.05375">
        <ele>477.4</ele>
        <time>2022-07-12T15:04:32Z</time>
      </trkpt>
      <trkpt lat="44.11796" lon="3.05381">
        <ele>477</ele>
        <time>2022-07-12T15:04:33Z</time>
      </trkpt>
      <trkpt lat="44.11792" lon="3.05387">
        <ele>476.6</ele>
        <time>2022-07-12T15:04:34Z</time>
      </trkpt>
      <trkpt lat="44.11779" lon="3.05404">
        <ele>476</ele>
        <time>2022-07-12T15:04:37Z</time>
      </trkpt>
      <trkpt lat="44.11767" lon="3.05418">
        <ele>475.6</ele>
        <time>2022-07-12T15:04:40Z</time>
      </trkpt>
      <trkpt lat="44.11763" lon="3.05423">
        <ele>475.4</ele>
        <time>2022-07-12T15:04:41Z</time>
      </trkpt>
      <trkpt lat="44.11756" lon="3.05433">
        <ele>475.2</ele>
        <time>2022-07-12T15:04:43Z</time>
      </trkpt>
      <trkpt lat="44.11747" lon="3.0545">
        <ele>474.8</ele>
        <time>2022-07-12T15:04:46Z</time>
      </trkpt>
      <trkpt lat="44.11739" lon="3.05467">
        <ele>474.2</ele>
        <time>2022-07-12T15:04:49Z</time>
      </trkpt>
      <trkpt lat="44.1173" lon="3.05483">
        <ele>472.8</ele>
        <time>2022-07-12T15:04:52Z</time>
      </trkpt>
      <trkpt lat="44.11727" lon="3.05492">
        <ele>472.4</ele>
        <time>2022-07-12T15:04:54Z</time>
      </trkpt>
      <trkpt lat="44.11726" lon="3.05499">
        <ele>471.8</ele>
        <time>2022-07-12T15:04:56Z</time>
      </trkpt>
      <trkpt lat="44.11725" lon="3.05505">
        <ele>470.8</ele>
        <time>2022-07-12T15:04:58Z</time>
      </trkpt>
      <trkpt lat="44.11724" lon="3.05507">
        <ele>470.4</ele>
        <time>2022-07-12T15:04:59Z</time>
      </trkpt>
      <trkpt lat="44.11722" lon="3.05511">
        <ele>469.4</ele>
        <time>2022-07-12T15:05:01Z</time>
      </trkpt>
      <trkpt lat="44.11722" lon="3.0552">
        <ele>468.8</ele>
        <time>2022-07-12T15:05:03Z</time>
      </trkpt>
      <trkpt lat="44.11721" lon="3.05522">
        <ele>468.8</ele>
        <time>2022-07-12T15:05:04Z</time>
      </trkpt>
      <trkpt lat="44.1172" lon="3.05524">
        <ele>468</ele>
        <time>2022-07-12T15:05:05Z</time>
      </trkpt>
      <trkpt lat="44.11719" lon="3.0553">
        <ele>467</ele>
        <time>2022-07-12T15:05:07Z</time>
      </trkpt>
      <trkpt lat="44.11719" lon="3.05533">
        <ele>466.4</ele>
        <time>2022-07-12T15:05:08Z</time>
      </trkpt>
      <trkpt lat="44.11719" lon="3.05537">
        <ele>466</ele>
        <time>2022-07-12T15:05:09Z</time>
      </trkpt>
      <trkpt lat="44.11718" lon="3.0554">
        <ele>465.6</ele>
        <time>2022-07-12T15:05:10Z</time>
      </trkpt>
      <trkpt lat="44.11716" lon="3.05553">
        <ele>464.6</ele>
        <time>2022-07-12T15:05:15Z</time>
      </trkpt>
      <trkpt lat="44.11716" lon="3.05555">
        <ele>464.4</ele>
        <time>2022-07-12T15:05:16Z</time>
      </trkpt>
      <trkpt lat="44.11717" lon="3.05565">
        <ele>463.2</ele>
        <time>2022-07-12T15:05:19Z</time>
      </trkpt>
      <trkpt lat="44.11715" lon="3.05572">
        <ele>462.4</ele>
        <time>2022-07-12T15:05:22Z</time>
      </trkpt>
      <trkpt lat="44.11711" lon="3.05582">
        <ele>462</ele>
        <time>2022-07-12T15:05:24Z</time>
      </trkpt>
      <trkpt lat="44.1171" lon="3.05599">
        <ele>461</ele>
        <time>2022-07-12T15:05:27Z</time>
      </trkpt>
      <trkpt lat="44.11708" lon="3.05605">
        <ele>460.2</ele>
        <time>2022-07-12T15:05:29Z</time>
      </trkpt>
      <trkpt lat="44.11705" lon="3.05606">
        <ele>459.6</ele>
        <time>2022-07-12T15:05:30Z</time>
      </trkpt>
      <trkpt lat="44.11704" lon="3.05608">
        <ele>459.2</ele>
        <time>2022-07-12T15:05:31Z</time>
      </trkpt>
      <trkpt lat="44.11699" lon="3.05611">
        <ele>458.6</ele>
        <time>2022-07-12T15:05:33Z</time>
      </trkpt>
      <trkpt lat="44.11689" lon="3.05626">
        <ele>457.6</ele>
        <time>2022-07-12T15:05:38Z</time>
      </trkpt>
      <trkpt lat="44.11691" lon="3.0563">
        <ele>457.2</ele>
        <time>2022-07-12T15:05:40Z</time>
      </trkpt>
      <trkpt lat="44.11694" lon="3.05634">
        <ele>457</ele>
        <time>2022-07-12T15:05:42Z</time>
      </trkpt>
      <trkpt lat="44.11697" lon="3.05643">
        <ele>456.8</ele>
        <time>2022-07-12T15:05:45Z</time>
      </trkpt>
      <trkpt lat="44.11696" lon="3.0565">
        <ele>456.8</ele>
        <time>2022-07-12T15:05:47Z</time>
      </trkpt>
      <trkpt lat="44.1169" lon="3.05671">
        <ele>456.6</ele>
        <time>2022-07-12T15:05:51Z</time>
      </trkpt>
      <trkpt lat="44.11688" lon="3.05675">
        <ele>456.6</ele>
        <time>2022-07-12T15:05:52Z</time>
      </trkpt>
      <trkpt lat="44.11675" lon="3.05705">
        <ele>455.6</ele>
        <time>2022-07-12T15:05:58Z</time>
      </trkpt>
      <trkpt lat="44.11669" lon="3.0571">
        <ele>455.6</ele>
        <time>2022-07-12T15:06:02Z</time>
      </trkpt>
      <trkpt lat="44.11659" lon="3.05728">
        <ele>456.2</ele>
        <time>2022-07-12T15:06:09Z</time>
      </trkpt>
      <trkpt lat="44.11648" lon="3.05745">
        <ele>456.8</ele>
        <time>2022-07-12T15:06:15Z</time>
      </trkpt>
      <trkpt lat="44.11642" lon="3.05765">
        <ele>456.8</ele>
        <time>2022-07-12T15:06:20Z</time>
      </trkpt>
      <trkpt lat="44.11636" lon="3.05785">
        <ele>457</ele>
        <time>2022-07-12T15:06:27Z</time>
      </trkpt>
      <trkpt lat="44.11632" lon="3.05794">
        <ele>457.8</ele>
        <time>2022-07-12T15:06:32Z</time>
      </trkpt>
      <trkpt lat="44.11632" lon="3.05795">
        <ele>457.8</ele>
        <time>2022-07-12T15:06:33Z</time>
      </trkpt>
      <trkpt lat="44.11632" lon="3.05795">
        <ele>458.2</ele>
        <time>2022-07-12T15:06:35Z</time>
      </trkpt>
      <trkpt lat="44.11631" lon="3.05797">
        <ele>458.8</ele>
        <time>2022-07-12T15:06:45Z</time>
      </trkpt>
      <trkpt lat="44.1163" lon="3.05798">
        <ele>458.8</ele>
        <time>2022-07-12T15:06:46Z</time>
      </trkpt>
      <trkpt lat="44.11626" lon="3.05803">
        <ele>459.2</ele>
        <time>2022-07-12T15:06:52Z</time>
      </trkpt>
      <trkpt lat="44.11626" lon="3.05804">
        <ele>459.2</ele>
        <time>2022-07-12T15:06:53Z</time>
      </trkpt>
      <trkpt lat="44.11622" lon="3.0581">
        <ele>459.8</ele>
        <time>2022-07-12T15:07:00Z</time>
      </trkpt>
      <trkpt lat="44.11619" lon="3.05815">
        <ele>460.2</ele>
        <time>2022-07-12T15:07:04Z</time>
      </trkpt>
      <trkpt lat="44.11617" lon="3.05818">
        <ele>460.4</ele>
        <time>2022-07-12T15:07:07Z</time>
      </trkpt>
      <trkpt lat="44.11617" lon="3.05819">
        <ele>460.6</ele>
        <time>2022-07-12T15:07:08Z</time>
      </trkpt>
      <trkpt lat="44.11614" lon="3.05824">
        <ele>461.4</ele>
        <time>2022-07-12T15:07:13Z</time>
      </trkpt>
      <trkpt lat="44.11612" lon="3.05827">
        <ele>461.6</ele>
        <time>2022-07-12T15:07:16Z</time>
      </trkpt>
      <trkpt lat="44.11609" lon="3.05834">
        <ele>462.2</ele>
        <time>2022-07-12T15:07:23Z</time>
      </trkpt>
      <trkpt lat="44.11607" lon="3.05838">
        <ele>462.4</ele>
        <time>2022-07-12T15:07:26Z</time>
      </trkpt>
      <trkpt lat="44.11604" lon="3.05845">
        <ele>463</ele>
        <time>2022-07-12T15:07:33Z</time>
      </trkpt>
      <trkpt lat="44.11602" lon="3.05849">
        <ele>463.4</ele>
        <time>2022-07-12T15:07:37Z</time>
      </trkpt>
      <trkpt lat="44.11598" lon="3.05855">
        <ele>463.6</ele>
        <time>2022-07-12T15:07:43Z</time>
      </trkpt>
      <trkpt lat="44.11597" lon="3.05856">
        <ele>463.6</ele>
        <time>2022-07-12T15:07:44Z</time>
      </trkpt>
      <trkpt lat="44.11591" lon="3.05867">
        <ele>464.4</ele>
        <time>2022-07-12T15:07:55Z</time>
      </trkpt>
      <trkpt lat="44.11588" lon="3.05873">
        <ele>464.6</ele>
        <time>2022-07-12T15:08:00Z</time>
      </trkpt>
      <trkpt lat="44.11586" lon="3.05876">
        <ele>464.8</ele>
        <time>2022-07-12T15:08:03Z</time>
      </trkpt>
      <trkpt lat="44.11581" lon="3.05885">
        <ele>465.2</ele>
        <time>2022-07-12T15:08:12Z</time>
      </trkpt>
      <trkpt lat="44.11581" lon="3.05886">
        <ele>465.2</ele>
        <time>2022-07-12T15:08:13Z</time>
      </trkpt>
      <trkpt lat="44.1158" lon="3.05887">
        <ele>465.4</ele>
        <time>2022-07-12T15:08:14Z</time>
      </trkpt>
      <trkpt lat="44.11576" lon="3.05892">
        <ele>465.8</ele>
        <time>2022-07-12T15:08:19Z</time>
      </trkpt>
      <trkpt lat="44.11576" lon="3.05893">
        <ele>465.8</ele>
        <time>2022-07-12T15:08:20Z</time>
      </trkpt>
      <trkpt lat="44.11575" lon="3.05893">
        <ele>466</ele>
        <time>2022-07-12T15:08:21Z</time>
      </trkpt>
      <trkpt lat="44.11571" lon="3.05903">
        <ele>466.4</ele>
        <time>2022-07-12T15:08:29Z</time>
      </trkpt>
      <trkpt lat="44.11568" lon="3.05908">
        <ele>467</ele>
        <time>2022-07-12T15:08:35Z</time>
      </trkpt>
      <trkpt lat="44.11568" lon="3.05908">
        <ele>467.4</ele>
        <time>2022-07-12T15:08:37Z</time>
      </trkpt>
      <trkpt lat="44.11566" lon="3.05911">
        <ele>467.8</ele>
        <time>2022-07-12T15:08:40Z</time>
      </trkpt>
      <trkpt lat="44.11563" lon="3.0592">
        <ele>468</ele>
        <time>2022-07-12T15:08:44Z</time>
      </trkpt>
      <trkpt lat="44.11561" lon="3.05927">
        <ele>468.2</ele>
        <time>2022-07-12T15:08:47Z</time>
      </trkpt>
      <trkpt lat="44.11558" lon="3.05938">
        <ele>468.6</ele>
        <time>2022-07-12T15:08:52Z</time>
      </trkpt>
      <trkpt lat="44.11557" lon="3.05939">
        <ele>468.8</ele>
        <time>2022-07-12T15:08:53Z</time>
      </trkpt>
      <trkpt lat="44.11557" lon="3.05947">
        <ele>469.6</ele>
        <time>2022-07-12T15:08:57Z</time>
      </trkpt>
      <trkpt lat="44.11555" lon="3.05956">
        <ele>470.2</ele>
        <time>2022-07-12T15:09:00Z</time>
      </trkpt>
      <trkpt lat="44.11554" lon="3.05958">
        <ele>470.2</ele>
        <time>2022-07-12T15:09:01Z</time>
      </trkpt>
      <trkpt lat="44.11553" lon="3.05961">
        <ele>470.4</ele>
        <time>2022-07-12T15:09:03Z</time>
      </trkpt>
      <trkpt lat="44.11553" lon="3.05962">
        <ele>470.6</ele>
        <time>2022-07-12T15:09:04Z</time>
      </trkpt>
      <trkpt lat="44.11552" lon="3.0597">
        <ele>471</ele>
        <time>2022-07-12T15:09:07Z</time>
      </trkpt>
      <trkpt lat="44.1155" lon="3.05976">
        <ele>471.6</ele>
        <time>2022-07-12T15:09:10Z</time>
      </trkpt>
      <trkpt lat="44.11549" lon="3.05983">
        <ele>472.2</ele>
        <time>2022-07-12T15:09:13Z</time>
      </trkpt>
      <trkpt lat="44.11548" lon="3.05988">
        <ele>472.6</ele>
        <time>2022-07-12T15:09:15Z</time>
      </trkpt>
      <trkpt lat="44.11548" lon="3.0599">
        <ele>472.8</ele>
        <time>2022-07-12T15:09:16Z</time>
      </trkpt>
      <trkpt lat="44.11549" lon="3.06007">
        <ele>473</ele>
        <time>2022-07-12T15:09:21Z</time>
      </trkpt>
      <trkpt lat="44.11549" lon="3.06011">
        <ele>473.2</ele>
        <time>2022-07-12T15:09:22Z</time>
      </trkpt>
      <trkpt lat="44.11547" lon="3.06021">
        <ele>473</ele>
        <time>2022-07-12T15:09:25Z</time>
      </trkpt>
      <trkpt lat="44.11546" lon="3.06028">
        <ele>472.8</ele>
        <time>2022-07-12T15:09:27Z</time>
      </trkpt>
      <trkpt lat="44.11546" lon="3.06035">
        <ele>472.6</ele>
        <time>2022-07-12T15:09:31Z</time>
      </trkpt>
      <trkpt lat="44.11545" lon="3.06039">
        <ele>472.4</ele>
        <time>2022-07-12T15:09:33Z</time>
      </trkpt>
      <trkpt lat="44.11546" lon="3.06044">
        <ele>471.8</ele>
        <time>2022-07-12T15:09:35Z</time>
      </trkpt>
      <trkpt lat="44.11546" lon="3.06047">
        <ele>471.6</ele>
        <time>2022-07-12T15:09:36Z</time>
      </trkpt>
      <trkpt lat="44.1154" lon="3.06068">
        <ele>471.2</ele>
        <time>2022-07-12T15:09:42Z</time>
      </trkpt>
      <trkpt lat="44.1154" lon="3.06071">
        <ele>471</ele>
        <time>2022-07-12T15:09:43Z</time>
      </trkpt>
      <trkpt lat="44.11539" lon="3.06074">
        <ele>470.8</ele>
        <time>2022-07-12T15:09:44Z</time>
      </trkpt>
      <trkpt lat="44.11537" lon="3.06079">
        <ele>469.8</ele>
        <time>2022-07-12T15:09:46Z</time>
      </trkpt>
      <trkpt lat="44.11536" lon="3.06082">
        <ele>469.6</ele>
        <time>2022-07-12T15:09:47Z</time>
      </trkpt>
      <trkpt lat="44.11534" lon="3.06094">
        <ele>469</ele>
        <time>2022-07-12T15:09:51Z</time>
      </trkpt>
      <trkpt lat="44.11532" lon="3.06104">
        <ele>467.8</ele>
        <time>2022-07-12T15:09:55Z</time>
      </trkpt>
      <trkpt lat="44.11531" lon="3.06106">
        <ele>467.4</ele>
        <time>2022-07-12T15:09:56Z</time>
      </trkpt>
      <trkpt lat="44.11529" lon="3.06116">
        <ele>466.8</ele>
        <time>2022-07-12T15:10:00Z</time>
      </trkpt>
      <trkpt lat="44.11527" lon="3.06125">
        <ele>465.8</ele>
        <time>2022-07-12T15:10:03Z</time>
      </trkpt>
      <trkpt lat="44.11524" lon="3.06132">
        <ele>464.8</ele>
        <time>2022-07-12T15:10:06Z</time>
      </trkpt>
      <trkpt lat="44.11524" lon="3.06134">
        <ele>464.2</ele>
        <time>2022-07-12T15:10:08Z</time>
      </trkpt>
      <trkpt lat="44.11524" lon="3.06134">
        <ele>464</ele>
        <time>2022-07-12T15:10:09Z</time>
      </trkpt>
      <trkpt lat="44.11523" lon="3.06138">
        <ele>462.6</ele>
        <time>2022-07-12T15:10:28Z</time>
      </trkpt>
      <trkpt lat="44.11521" lon="3.06144">
        <ele>462.6</ele>
        <time>2022-07-12T15:10:30Z</time>
      </trkpt>
      <trkpt lat="44.11517" lon="3.06155">
        <ele>462</ele>
        <time>2022-07-12T15:10:36Z</time>
      </trkpt>
      <trkpt lat="44.11516" lon="3.06156">
        <ele>461.8</ele>
        <time>2022-07-12T15:10:37Z</time>
      </trkpt>
      <trkpt lat="44.11516" lon="3.06156">
        <ele>461.6</ele>
        <time>2022-07-12T15:10:38Z</time>
      </trkpt>
      <trkpt lat="44.11515" lon="3.0616">
        <ele>460.6</ele>
        <time>2022-07-12T15:10:41Z</time>
      </trkpt>
      <trkpt lat="44.11514" lon="3.06162">
        <ele>460.4</ele>
        <time>2022-07-12T15:10:42Z</time>
      </trkpt>
      <trkpt lat="44.11513" lon="3.06167">
        <ele>460</ele>
        <time>2022-07-12T15:10:46Z</time>
      </trkpt>
      <trkpt lat="44.11513" lon="3.06168">
        <ele>459.6</ele>
        <time>2022-07-12T15:10:48Z</time>
      </trkpt>
      <trkpt lat="44.11513" lon="3.06169">
        <ele>459.6</ele>
        <time>2022-07-12T15:10:50Z</time>
      </trkpt>
      <trkpt lat="44.11512" lon="3.06172">
        <ele>459.4</ele>
        <time>2022-07-12T15:10:52Z</time>
      </trkpt>
      <trkpt lat="44.11511" lon="3.06176">
        <ele>459</ele>
        <time>2022-07-12T15:10:55Z</time>
      </trkpt>
      <trkpt lat="44.11509" lon="3.06181">
        <ele>458.4</ele>
        <time>2022-07-12T15:10:58Z</time>
      </trkpt>
      <trkpt lat="44.11506" lon="3.06187">
        <ele>457.8</ele>
        <time>2022-07-12T15:11:01Z</time>
      </trkpt>
      <trkpt lat="44.11504" lon="3.06189">
        <ele>457.4</ele>
        <time>2022-07-12T15:11:02Z</time>
      </trkpt>
      <trkpt lat="44.11497" lon="3.06197">
        <ele>456.6</ele>
        <time>2022-07-12T15:11:07Z</time>
      </trkpt>
      <trkpt lat="44.11486" lon="3.0621">
        <ele>455.6</ele>
        <time>2022-07-12T15:11:14Z</time>
      </trkpt>
      <trkpt lat="44.11482" lon="3.06212">
        <ele>455.2</ele>
        <time>2022-07-12T15:11:16Z</time>
      </trkpt>
      <trkpt lat="44.11477" lon="3.06216">
        <ele>454.6</ele>
        <time>2022-07-12T15:11:19Z</time>
      </trkpt>
      <trkpt lat="44.11471" lon="3.06221">
        <ele>453.8</ele>
        <time>2022-07-12T15:11:24Z</time>
      </trkpt>
      <trkpt lat="44.11471" lon="3.06221">
        <ele>453.8</ele>
        <time>2022-07-12T15:11:25Z</time>
      </trkpt>
      <trkpt lat="44.11469" lon="3.06222">
        <ele>453.8</ele>
        <time>2022-07-12T15:11:29Z</time>
      </trkpt>
      <trkpt lat="44.11467" lon="3.06224">
        <ele>453.8</ele>
        <time>2022-07-12T15:11:33Z</time>
      </trkpt>
      <trkpt lat="44.11464" lon="3.06226">
        <ele>453.8</ele>
        <time>2022-07-12T15:11:36Z</time>
      </trkpt>
      <trkpt lat="44.11458" lon="3.06231">
        <ele>453.6</ele>
        <time>2022-07-12T15:11:39Z</time>
      </trkpt>
      <trkpt lat="44.11453" lon="3.06237">
        <ele>453.6</ele>
        <time>2022-07-12T15:11:42Z</time>
      </trkpt>
      <trkpt lat="44.1145" lon="3.06238">
        <ele>453.6</ele>
        <time>2022-07-12T15:11:44Z</time>
      </trkpt>
      <trkpt lat="44.11449" lon="3.06238">
        <ele>453.6</ele>
        <time>2022-07-12T15:11:45Z</time>
      </trkpt>
      <trkpt lat="44.11447" lon="3.06241">
        <ele>453.6</ele>
        <time>2022-07-12T15:11:47Z</time>
      </trkpt>
      <trkpt lat="44.11446" lon="3.06241">
        <ele>453.8</ele>
        <time>2022-07-12T15:11:48Z</time>
      </trkpt>
      <trkpt lat="44.11446" lon="3.06242">
        <ele>454</ele>
        <time>2022-07-12T15:11:52Z</time>
      </trkpt>
      <trkpt lat="44.11443" lon="3.06243">
        <ele>454</ele>
        <time>2022-07-12T15:11:55Z</time>
      </trkpt>
      <trkpt lat="44.11438" lon="3.06243">
        <ele>454.2</ele>
        <time>2022-07-12T15:11:58Z</time>
      </trkpt>
      <trkpt lat="44.11436" lon="3.06247">
        <ele>454.2</ele>
        <time>2022-07-12T15:12:00Z</time>
      </trkpt>
      <trkpt lat="44.11432" lon="3.06255">
        <ele>454.4</ele>
        <time>2022-07-12T15:12:04Z</time>
      </trkpt>
      <trkpt lat="44.11428" lon="3.06257">
        <ele>454.4</ele>
        <time>2022-07-12T15:12:06Z</time>
      </trkpt>
      <trkpt lat="44.11424" lon="3.06259">
        <ele>454.6</ele>
        <time>2022-07-12T15:12:08Z</time>
      </trkpt>
      <trkpt lat="44.1142" lon="3.0626">
        <ele>455</ele>
        <time>2022-07-12T15:12:10Z</time>
      </trkpt>
      <trkpt lat="44.11412" lon="3.06262">
        <ele>455.4</ele>
        <time>2022-07-12T15:12:14Z</time>
      </trkpt>
      <trkpt lat="44.11399" lon="3.06266">
        <ele>456.2</ele>
        <time>2022-07-12T15:12:20Z</time>
      </trkpt>
      <trkpt lat="44.11389" lon="3.06268">
        <ele>456.8</ele>
        <time>2022-07-12T15:12:25Z</time>
      </trkpt>
      <trkpt lat="44.11381" lon="3.0627">
        <ele>457.4</ele>
        <time>2022-07-12T15:12:29Z</time>
      </trkpt>
      <trkpt lat="44.11373" lon="3.06271">
        <ele>458.2</ele>
        <time>2022-07-12T15:12:33Z</time>
      </trkpt>
      <trkpt lat="44.11365" lon="3.06273">
        <ele>458.6</ele>
        <time>2022-07-12T15:12:37Z</time>
      </trkpt>
      <trkpt lat="44.11347" lon="3.06279">
        <ele>459</ele>
        <time>2022-07-12T15:12:45Z</time>
      </trkpt>
      <trkpt lat="44.11321" lon="3.06288">
        <ele>459.6</ele>
        <time>2022-07-12T15:12:54Z</time>
      </trkpt>
      <trkpt lat="44.11292" lon="3.06299">
        <ele>459</ele>
        <time>2022-07-12T15:13:01Z</time>
      </trkpt>
      <trkpt lat="44.11284" lon="3.06303">
        <ele>458.8</ele>
        <time>2022-07-12T15:13:03Z</time>
      </trkpt>
      <trkpt lat="44.11276" lon="3.06308">
        <ele>457.8</ele>
        <time>2022-07-12T15:13:05Z</time>
      </trkpt>
      <trkpt lat="44.11263" lon="3.06314">
        <ele>457</ele>
        <time>2022-07-12T15:13:08Z</time>
      </trkpt>
      <trkpt lat="44.11259" lon="3.06317">
        <ele>456.8</ele>
        <time>2022-07-12T15:13:09Z</time>
      </trkpt>
      <trkpt lat="44.11254" lon="3.0632">
        <ele>456.8</ele>
        <time>2022-07-12T15:13:10Z</time>
      </trkpt>
      <trkpt lat="44.11246" lon="3.06327">
        <ele>456</ele>
        <time>2022-07-12T15:13:12Z</time>
      </trkpt>
      <trkpt lat="44.11241" lon="3.06335">
        <ele>455.6</ele>
        <time>2022-07-12T15:13:14Z</time>
      </trkpt>
      <trkpt lat="44.11239" lon="3.0634">
        <ele>455.4</ele>
        <time>2022-07-12T15:13:15Z</time>
      </trkpt>
      <trkpt lat="44.11238" lon="3.06351">
        <ele>455.4</ele>
        <time>2022-07-12T15:13:17Z</time>
      </trkpt>
      <trkpt lat="44.11236" lon="3.06356">
        <ele>455.2</ele>
        <time>2022-07-12T15:13:18Z</time>
      </trkpt>
      <trkpt lat="44.11233" lon="3.06362">
        <ele>455.2</ele>
        <time>2022-07-12T15:13:19Z</time>
      </trkpt>
      <trkpt lat="44.11224" lon="3.06371">
        <ele>455</ele>
        <time>2022-07-12T15:13:21Z</time>
      </trkpt>
      <trkpt lat="44.11213" lon="3.06375">
        <ele>454.6</ele>
        <time>2022-07-12T15:13:23Z</time>
      </trkpt>
      <trkpt lat="44.11201" lon="3.06378">
        <ele>453.6</ele>
        <time>2022-07-12T15:13:25Z</time>
      </trkpt>
      <trkpt lat="44.11191" lon="3.06387">
        <ele>453</ele>
        <time>2022-07-12T15:13:27Z</time>
      </trkpt>
      <trkpt lat="44.11182" lon="3.06397">
        <ele>452.6</ele>
        <time>2022-07-12T15:13:29Z</time>
      </trkpt>
      <trkpt lat="44.11179" lon="3.06403">
        <ele>452.4</ele>
        <time>2022-07-12T15:13:30Z</time>
      </trkpt>
      <trkpt lat="44.11177" lon="3.06408">
        <ele>452.4</ele>
        <time>2022-07-12T15:13:31Z</time>
      </trkpt>
      <trkpt lat="44.11176" lon="3.06413">
        <ele>452.2</ele>
        <time>2022-07-12T15:13:32Z</time>
      </trkpt>
      <trkpt lat="44.11174" lon="3.06426">
        <ele>451.6</ele>
        <time>2022-07-12T15:13:34Z</time>
      </trkpt>
      <trkpt lat="44.11172" lon="3.06433">
        <ele>451.4</ele>
        <time>2022-07-12T15:13:35Z</time>
      </trkpt>
      <trkpt lat="44.11168" lon="3.06451">
        <ele>450.6</ele>
        <time>2022-07-12T15:13:37Z</time>
      </trkpt>
      <trkpt lat="44.11165" lon="3.06461">
        <ele>450</ele>
        <time>2022-07-12T15:13:38Z</time>
      </trkpt>
      <trkpt lat="44.11156" lon="3.0649">
        <ele>448.6</ele>
        <time>2022-07-12T15:13:41Z</time>
      </trkpt>
      <trkpt lat="44.11148" lon="3.0652">
        <ele>447.8</ele>
        <time>2022-07-12T15:13:44Z</time>
      </trkpt>
      <trkpt lat="44.11146" lon="3.0653">
        <ele>446.8</ele>
        <time>2022-07-12T15:13:45Z</time>
      </trkpt>
      <trkpt lat="44.11142" lon="3.06539">
        <ele>446.2</ele>
        <time>2022-07-12T15:13:46Z</time>
      </trkpt>
      <trkpt lat="44.11138" lon="3.06548">
        <ele>445.2</ele>
        <time>2022-07-12T15:13:47Z</time>
      </trkpt>
      <trkpt lat="44.11127" lon="3.06563">
        <ele>443.8</ele>
        <time>2022-07-12T15:13:49Z</time>
      </trkpt>
      <trkpt lat="44.11117" lon="3.06577">
        <ele>442.2</ele>
        <time>2022-07-12T15:13:51Z</time>
      </trkpt>
      <trkpt lat="44.11111" lon="3.06584">
        <ele>441.2</ele>
        <time>2022-07-12T15:13:52Z</time>
      </trkpt>
      <trkpt lat="44.11106" lon="3.06591">
        <ele>440.8</ele>
        <time>2022-07-12T15:13:53Z</time>
      </trkpt>
      <trkpt lat="44.11094" lon="3.06607">
        <ele>440</ele>
        <time>2022-07-12T15:13:55Z</time>
      </trkpt>
      <trkpt lat="44.11083" lon="3.06622">
        <ele>438.8</ele>
        <time>2022-07-12T15:13:57Z</time>
      </trkpt>
      <trkpt lat="44.11071" lon="3.06638">
        <ele>437.4</ele>
        <time>2022-07-12T15:13:59Z</time>
      </trkpt>
      <trkpt lat="44.1106" lon="3.06653">
        <ele>436</ele>
        <time>2022-07-12T15:14:01Z</time>
      </trkpt>
      <trkpt lat="44.11054" lon="3.0666">
        <ele>435.6</ele>
        <time>2022-07-12T15:14:02Z</time>
      </trkpt>
      <trkpt lat="44.11049" lon="3.06667">
        <ele>434.6</ele>
        <time>2022-07-12T15:14:03Z</time>
      </trkpt>
      <trkpt lat="44.11045" lon="3.06673">
        <ele>433.4</ele>
        <time>2022-07-12T15:14:04Z</time>
      </trkpt>
      <trkpt lat="44.11035" lon="3.06686">
        <ele>432.4</ele>
        <time>2022-07-12T15:14:06Z</time>
      </trkpt>
      <trkpt lat="44.11016" lon="3.06708">
        <ele>431.6</ele>
        <time>2022-07-12T15:14:10Z</time>
      </trkpt>
      <trkpt lat="44.10998" lon="3.06723">
        <ele>431.2</ele>
        <time>2022-07-12T15:14:14Z</time>
      </trkpt>
      <trkpt lat="44.10993" lon="3.06727">
        <ele>431.2</ele>
        <time>2022-07-12T15:14:15Z</time>
      </trkpt>
      <trkpt lat="44.10968" lon="3.06745">
        <ele>431</ele>
        <time>2022-07-12T15:14:20Z</time>
      </trkpt>
      <trkpt lat="44.10951" lon="3.06752">
        <ele>430.6</ele>
        <time>2022-07-12T15:14:23Z</time>
      </trkpt>
      <trkpt lat="44.10946" lon="3.06755">
        <ele>430.4</ele>
        <time>2022-07-12T15:14:24Z</time>
      </trkpt>
      <trkpt lat="44.10936" lon="3.06762">
        <ele>430.2</ele>
        <time>2022-07-12T15:14:26Z</time>
      </trkpt>
      <trkpt lat="44.10915" lon="3.0678">
        <ele>429.2</ele>
        <time>2022-07-12T15:14:31Z</time>
      </trkpt>
      <trkpt lat="44.10912" lon="3.06783">
        <ele>429</ele>
        <time>2022-07-12T15:14:32Z</time>
      </trkpt>
      <trkpt lat="44.109" lon="3.06795">
        <ele>428.4</ele>
        <time>2022-07-12T15:14:36Z</time>
      </trkpt>
      <trkpt lat="44.10891" lon="3.068">
        <ele>428.4</ele>
        <time>2022-07-12T15:14:38Z</time>
      </trkpt>
      <trkpt lat="44.10887" lon="3.06801">
        <ele>428.4</ele>
        <time>2022-07-12T15:14:39Z</time>
      </trkpt>
      <trkpt lat="44.10866" lon="3.06804">
        <ele>427</ele>
        <time>2022-07-12T15:14:44Z</time>
      </trkpt>
      <trkpt lat="44.10857" lon="3.06805">
        <ele>426.8</ele>
        <time>2022-07-12T15:14:46Z</time>
      </trkpt>
      <trkpt lat="44.10848" lon="3.06806">
        <ele>426.8</ele>
        <time>2022-07-12T15:14:48Z</time>
      </trkpt>
      <trkpt lat="44.10824" lon="3.06806">
        <ele>426.6</ele>
        <time>2022-07-12T15:14:53Z</time>
      </trkpt>
      <trkpt lat="44.10805" lon="3.06804">
        <ele>426.2</ele>
        <time>2022-07-12T15:14:58Z</time>
      </trkpt>
      <trkpt lat="44.10799" lon="3.06803">
        <ele>426.4</ele>
        <time>2022-07-12T15:15:00Z</time>
      </trkpt>
      <trkpt lat="44.10773" lon="3.06803">
        <ele>427.4</ele>
        <time>2022-07-12T15:15:08Z</time>
      </trkpt>
      <trkpt lat="44.10751" lon="3.06801">
        <ele>428.4</ele>
        <time>2022-07-12T15:15:14Z</time>
      </trkpt>
      <trkpt lat="44.10743" lon="3.068">
        <ele>428.8</ele>
        <time>2022-07-12T15:15:16Z</time>
      </trkpt>
      <trkpt lat="44.10719" lon="3.06799">
        <ele>429.2</ele>
        <time>2022-07-12T15:15:22Z</time>
      </trkpt>
      <trkpt lat="44.10704" lon="3.06804">
        <ele>429.4</ele>
        <time>2022-07-12T15:15:26Z</time>
      </trkpt>
      <trkpt lat="44.10702" lon="3.06808">
        <ele>429.2</ele>
        <time>2022-07-12T15:15:27Z</time>
      </trkpt>
      <trkpt lat="44.10698" lon="3.06821">
        <ele>429.2</ele>
        <time>2022-07-12T15:15:29Z</time>
      </trkpt>
      <trkpt lat="44.10695" lon="3.06834">
        <ele>428.8</ele>
        <time>2022-07-12T15:15:31Z</time>
      </trkpt>
      <trkpt lat="44.10684" lon="3.06881">
        <ele>428.2</ele>
        <time>2022-07-12T15:15:37Z</time>
      </trkpt>
      <trkpt lat="44.10672" lon="3.06911">
        <ele>427.6</ele>
        <time>2022-07-12T15:15:41Z</time>
      </trkpt>
      <trkpt lat="44.10669" lon="3.06918">
        <ele>427.2</ele>
        <time>2022-07-12T15:15:42Z</time>
      </trkpt>
      <trkpt lat="44.10662" lon="3.06933">
        <ele>426.4</ele>
        <time>2022-07-12T15:15:44Z</time>
      </trkpt>
      <trkpt lat="44.10645" lon="3.06966">
        <ele>425.2</ele>
        <time>2022-07-12T15:15:48Z</time>
      </trkpt>
      <trkpt lat="44.10627" lon="3.06999">
        <ele>423.2</ele>
        <time>2022-07-12T15:15:52Z</time>
      </trkpt>
      <trkpt lat="44.10619" lon="3.07013">
        <ele>422.6</ele>
        <time>2022-07-12T15:15:54Z</time>
      </trkpt>
      <trkpt lat="44.10611" lon="3.07027">
        <ele>422.2</ele>
        <time>2022-07-12T15:15:56Z</time>
      </trkpt>
      <trkpt lat="44.10604" lon="3.0704">
        <ele>420.8</ele>
        <time>2022-07-12T15:15:58Z</time>
      </trkpt>
      <trkpt lat="44.106" lon="3.07046">
        <ele>420.4</ele>
        <time>2022-07-12T15:15:59Z</time>
      </trkpt>
      <trkpt lat="44.10592" lon="3.0706">
        <ele>420</ele>
        <time>2022-07-12T15:16:01Z</time>
      </trkpt>
      <trkpt lat="44.10588" lon="3.07067">
        <ele>419.8</ele>
        <time>2022-07-12T15:16:02Z</time>
      </trkpt>
      <trkpt lat="44.10578" lon="3.07087">
        <ele>418.6</ele>
        <time>2022-07-12T15:16:05Z</time>
      </trkpt>
      <trkpt lat="44.10562" lon="3.07121">
        <ele>417.6</ele>
        <time>2022-07-12T15:16:10Z</time>
      </trkpt>
      <trkpt lat="44.10547" lon="3.0716">
        <ele>416.8</ele>
        <time>2022-07-12T15:16:15Z</time>
      </trkpt>
      <trkpt lat="44.10545" lon="3.07169">
        <ele>416.2</ele>
        <time>2022-07-12T15:16:16Z</time>
      </trkpt>
      <trkpt lat="44.10541" lon="3.07188">
        <ele>415.6</ele>
        <time>2022-07-12T15:16:18Z</time>
      </trkpt>
      <trkpt lat="44.10535" lon="3.07206">
        <ele>415</ele>
        <time>2022-07-12T15:16:20Z</time>
      </trkpt>
      <trkpt lat="44.10531" lon="3.07215">
        <ele>414.2</ele>
        <time>2022-07-12T15:16:21Z</time>
      </trkpt>
      <trkpt lat="44.10527" lon="3.07224">
        <ele>413.8</ele>
        <time>2022-07-12T15:16:22Z</time>
      </trkpt>
      <trkpt lat="44.10524" lon="3.07233">
        <ele>412.8</ele>
        <time>2022-07-12T15:16:23Z</time>
      </trkpt>
      <trkpt lat="44.1052" lon="3.07241">
        <ele>412.4</ele>
        <time>2022-07-12T15:16:24Z</time>
      </trkpt>
      <trkpt lat="44.10516" lon="3.0725">
        <ele>411.4</ele>
        <time>2022-07-12T15:16:25Z</time>
      </trkpt>
      <trkpt lat="44.10507" lon="3.07265">
        <ele>410.4</ele>
        <time>2022-07-12T15:16:27Z</time>
      </trkpt>
      <trkpt lat="44.10496" lon="3.07282">
        <ele>408.6</ele>
        <time>2022-07-12T15:16:30Z</time>
      </trkpt>
      <trkpt lat="44.10492" lon="3.07287">
        <ele>407.8</ele>
        <time>2022-07-12T15:16:31Z</time>
      </trkpt>
      <trkpt lat="44.1049" lon="3.07291">
        <ele>406.6</ele>
        <time>2022-07-12T15:16:32Z</time>
      </trkpt>
      <trkpt lat="44.10481" lon="3.073">
        <ele>405.8</ele>
        <time>2022-07-12T15:16:34Z</time>
      </trkpt>
      <trkpt lat="44.10477" lon="3.07303">
        <ele>405.6</ele>
        <time>2022-07-12T15:16:35Z</time>
      </trkpt>
      <trkpt lat="44.1047" lon="3.0731">
        <ele>405.2</ele>
        <time>2022-07-12T15:16:37Z</time>
      </trkpt>
      <trkpt lat="44.10457" lon="3.07326">
        <ele>404.8</ele>
        <time>2022-07-12T15:16:41Z</time>
      </trkpt>
      <trkpt lat="44.10455" lon="3.07331">
        <ele>404.6</ele>
        <time>2022-07-12T15:16:42Z</time>
      </trkpt>
      <trkpt lat="44.10453" lon="3.07336">
        <ele>404.6</ele>
        <time>2022-07-12T15:16:43Z</time>
      </trkpt>
      <trkpt lat="44.10451" lon="3.07341">
        <ele>404.6</ele>
        <time>2022-07-12T15:16:44Z</time>
      </trkpt>
      <trkpt lat="44.10446" lon="3.07361">
        <ele>404.4</ele>
        <time>2022-07-12T15:16:48Z</time>
      </trkpt>
      <trkpt lat="44.10444" lon="3.07373">
        <ele>404.4</ele>
        <time>2022-07-12T15:16:50Z</time>
      </trkpt>
      <trkpt lat="44.10438" lon="3.0739">
        <ele>404.6</ele>
        <time>2022-07-12T15:16:54Z</time>
      </trkpt>
      <trkpt lat="44.1043" lon="3.0739">
        <ele>404.6</ele>
        <time>2022-07-12T15:16:57Z</time>
      </trkpt>
      <trkpt lat="44.10421" lon="3.0739">
        <ele>404.6</ele>
        <time>2022-07-12T15:17:01Z</time>
      </trkpt>
      <trkpt lat="44.10417" lon="3.07395">
        <ele>404.8</ele>
        <time>2022-07-12T15:17:03Z</time>
      </trkpt>
      <trkpt lat="44.10415" lon="3.07418">
        <ele>404.8</ele>
        <time>2022-07-12T15:17:08Z</time>
      </trkpt>
      <trkpt lat="44.10414" lon="3.07446">
        <ele>404.6</ele>
        <time>2022-07-12T15:17:13Z</time>
      </trkpt>
      <trkpt lat="44.10415" lon="3.07452">
        <ele>404.4</ele>
        <time>2022-07-12T15:17:14Z</time>
      </trkpt>
      <trkpt lat="44.10418" lon="3.07464">
        <ele>404.2</ele>
        <time>2022-07-12T15:17:16Z</time>
      </trkpt>
      <trkpt lat="44.10425" lon="3.07476">
        <ele>404</ele>
        <time>2022-07-12T15:17:18Z</time>
      </trkpt>
      <trkpt lat="44.10429" lon="3.07481">
        <ele>403.8</ele>
        <time>2022-07-12T15:17:19Z</time>
      </trkpt>
      <trkpt lat="44.10433" lon="3.07488">
        <ele>403.6</ele>
        <time>2022-07-12T15:17:20Z</time>
      </trkpt>
      <trkpt lat="44.10437" lon="3.07502">
        <ele>403.2</ele>
        <time>2022-07-12T15:17:22Z</time>
      </trkpt>
      <trkpt lat="44.10439" lon="3.07515">
        <ele>402.2</ele>
        <time>2022-07-12T15:17:24Z</time>
      </trkpt>
      <trkpt lat="44.10439" lon="3.07529">
        <ele>401.2</ele>
        <time>2022-07-12T15:17:26Z</time>
      </trkpt>
      <trkpt lat="44.10441" lon="3.07534">
        <ele>400.8</ele>
        <time>2022-07-12T15:17:27Z</time>
      </trkpt>
      <trkpt lat="44.10447" lon="3.07544">
        <ele>400.4</ele>
        <time>2022-07-12T15:17:29Z</time>
      </trkpt>
      <trkpt lat="44.1045" lon="3.07545">
        <ele>400.4</ele>
        <time>2022-07-12T15:17:30Z</time>
      </trkpt>
      <trkpt lat="44.10453" lon="3.07547">
        <ele>400.2</ele>
        <time>2022-07-12T15:17:31Z</time>
      </trkpt>
      <trkpt lat="44.1046" lon="3.07554">
        <ele>400.2</ele>
        <time>2022-07-12T15:17:34Z</time>
      </trkpt>
      <trkpt lat="44.10461" lon="3.07556">
        <ele>400.2</ele>
        <time>2022-07-12T15:17:35Z</time>
      </trkpt>
      <trkpt lat="44.10462" lon="3.07557">
        <ele>400</ele>
        <time>2022-07-12T15:17:38Z</time>
      </trkpt>
      <trkpt lat="44.1046" lon="3.07561">
        <ele>399.8</ele>
        <time>2022-07-12T15:17:40Z</time>
      </trkpt>
      <trkpt lat="44.10456" lon="3.07573">
        <ele>399.6</ele>
        <time>2022-07-12T15:17:44Z</time>
      </trkpt>
      <trkpt lat="44.10454" lon="3.07574">
        <ele>399.4</ele>
        <time>2022-07-12T15:17:45Z</time>
      </trkpt>
      <trkpt lat="44.10451" lon="3.07578">
        <ele>399.2</ele>
        <time>2022-07-12T15:17:47Z</time>
      </trkpt>
      <trkpt lat="44.10451" lon="3.07579">
        <ele>399.2</ele>
        <time>2022-07-12T15:17:48Z</time>
      </trkpt>
      <trkpt lat="44.10451" lon="3.07579">
        <ele>399</ele>
        <time>2022-07-12T15:17:49Z</time>
      </trkpt>
      <trkpt lat="44.10451" lon="3.07579">
        <ele>399.2</ele>
        <time>2022-07-12T15:17:50Z</time>
      </trkpt>
      <trkpt lat="44.1045" lon="3.0758">
        <ele>398.8</ele>
        <time>2022-07-12T15:17:55Z</time>
      </trkpt>
      <trkpt lat="44.10449" lon="3.0758">
        <ele>398.8</ele>
        <time>2022-07-12T15:17:58Z</time>
      </trkpt>
      <trkpt lat="44.10447" lon="3.07582">
        <ele>399.8</ele>
        <time>2022-07-12T15:21:47Z</time>
      </trkpt>
      <trkpt lat="44.10447" lon="3.07582">
        <ele>399.8</ele>
        <time>2022-07-12T15:21:48Z</time>
      </trkpt>
      <trkpt lat="44.10442" lon="3.07589">
        <ele>399.6</ele>
        <time>2022-07-12T15:21:55Z</time>
      </trkpt>
      <trkpt lat="44.10438" lon="3.0759">
        <ele>399.4</ele>
        <time>2022-07-12T15:21:58Z</time>
      </trkpt>
      <trkpt lat="44.10436" lon="3.07587">
        <ele>399.2</ele>
        <time>2022-07-12T15:22:02Z</time>
      </trkpt>
      <trkpt lat="44.10431" lon="3.07586">
        <ele>399</ele>
        <time>2022-07-12T15:22:07Z</time>
      </trkpt>
      <trkpt lat="44.10428" lon="3.07586">
        <ele>399.4</ele>
        <time>2022-07-12T15:22:09Z</time>
      </trkpt>
      <trkpt lat="44.1042" lon="3.07582">
        <ele>399.4</ele>
        <time>2022-07-12T15:22:17Z</time>
      </trkpt>
      <trkpt lat="44.10418" lon="3.0758">
        <ele>399.4</ele>
        <time>2022-07-12T15:22:24Z</time>
      </trkpt>
      <trkpt lat="44.10418" lon="3.07579">
        <ele>399.4</ele>
        <time>2022-07-12T15:22:25Z</time>
      </trkpt>
      <trkpt lat="44.10415" lon="3.07571">
        <ele>399.6</ele>
        <time>2022-07-12T15:22:32Z</time>
      </trkpt>
      <trkpt lat="44.10415" lon="3.07571">
        <ele>399.8</ele>
        <time>2022-07-12T15:22:34Z</time>
      </trkpt>
      <trkpt lat="44.10413" lon="3.07571">
        <ele>399.8</ele>
        <time>2022-07-12T15:22:37Z</time>
      </trkpt>
      <trkpt lat="44.10413" lon="3.07571">
        <ele>399.8</ele>
        <time>2022-07-12T15:22:39Z</time>
      </trkpt>
      <trkpt lat="44.10411" lon="3.07572">
        <ele>399.8</ele>
        <time>2022-07-12T15:22:43Z</time>
      </trkpt>
      <trkpt lat="44.10407" lon="3.07574">
        <ele>399.6</ele>
        <time>2022-07-12T15:22:47Z</time>
      </trkpt>
      <trkpt lat="44.10405" lon="3.07574">
        <ele>399.6</ele>
        <time>2022-07-12T15:22:48Z</time>
      </trkpt>
      <trkpt lat="44.104" lon="3.07573">
        <ele>399.4</ele>
        <time>2022-07-12T15:22:53Z</time>
      </trkpt>
      <trkpt lat="44.10397" lon="3.07575">
        <ele>399.6</ele>
        <time>2022-07-12T15:23:00Z</time>
      </trkpt>
      <trkpt lat="44.10393" lon="3.07581">
        <ele>399.6</ele>
        <time>2022-07-12T15:23:05Z</time>
      </trkpt>
      <trkpt lat="44.10391" lon="3.07584">
        <ele>399.6</ele>
        <time>2022-07-12T15:23:07Z</time>
      </trkpt>
      <trkpt lat="44.10385" lon="3.07588">
        <ele>399.6</ele>
        <time>2022-07-12T15:23:13Z</time>
      </trkpt>
      <trkpt lat="44.10378" lon="3.07593">
        <ele>399.8</ele>
        <time>2022-07-12T15:23:20Z</time>
      </trkpt>
      <trkpt lat="44.10376" lon="3.07594">
        <ele>399.8</ele>
        <time>2022-07-12T15:23:22Z</time>
      </trkpt>
      <trkpt lat="44.10373" lon="3.07597">
        <ele>399.6</ele>
        <time>2022-07-12T15:23:26Z</time>
      </trkpt>
      <trkpt lat="44.10368" lon="3.07599">
        <ele>399.6</ele>
        <time>2022-07-12T15:23:30Z</time>
      </trkpt>
      <trkpt lat="44.1036" lon="3.07599">
        <ele>399.6</ele>
        <time>2022-07-12T15:23:37Z</time>
      </trkpt>
      <trkpt lat="44.10359" lon="3.07599">
        <ele>399.6</ele>
        <time>2022-07-12T15:23:38Z</time>
      </trkpt>
      <trkpt lat="44.10358" lon="3.07599">
        <ele>399.6</ele>
        <time>2022-07-12T15:23:40Z</time>
      </trkpt>
      <trkpt lat="44.10355" lon="3.07597">
        <ele>399.4</ele>
        <time>2022-07-12T15:23:44Z</time>
      </trkpt>
      <trkpt lat="44.10352" lon="3.07595">
        <ele>399.6</ele>
        <time>2022-07-12T15:23:51Z</time>
      </trkpt>
      <trkpt lat="44.1035" lon="3.07596">
        <ele>400.2</ele>
        <time>2022-07-12T15:37:34Z</time>
      </trkpt>
      <trkpt lat="44.10347" lon="3.07598">
        <ele>400.2</ele>
        <time>2022-07-12T15:37:36Z</time>
      </trkpt>
      <trkpt lat="44.10347" lon="3.076">
        <ele>400.2</ele>
        <time>2022-07-12T15:37:37Z</time>
      </trkpt>
      <trkpt lat="44.10346" lon="3.07602">
        <ele>400.2</ele>
        <time>2022-07-12T15:37:38Z</time>
      </trkpt>
      <trkpt lat="44.10343" lon="3.0761">
        <ele>400</ele>
        <time>2022-07-12T15:37:41Z</time>
      </trkpt>
      <trkpt lat="44.10342" lon="3.07614">
        <ele>400</ele>
        <time>2022-07-12T15:37:42Z</time>
      </trkpt>
      <trkpt lat="44.10328" lon="3.0762">
        <ele>399.6</ele>
        <time>2022-07-12T15:37:47Z</time>
      </trkpt>
      <trkpt lat="44.10318" lon="3.07622">
        <ele>399.4</ele>
        <time>2022-07-12T15:37:51Z</time>
      </trkpt>
      <trkpt lat="44.10316" lon="3.07625">
        <ele>399.4</ele>
        <time>2022-07-12T15:37:52Z</time>
      </trkpt>
      <trkpt lat="44.10311" lon="3.07637">
        <ele>399.2</ele>
        <time>2022-07-12T15:37:56Z</time>
      </trkpt>
      <trkpt lat="44.1031" lon="3.07638">
        <ele>399.2</ele>
        <time>2022-07-12T15:37:57Z</time>
      </trkpt>
      <trkpt lat="44.1031" lon="3.07639">
        <ele>398.6</ele>
        <time>2022-07-12T15:38:03Z</time>
      </trkpt>
      <trkpt lat="44.10307" lon="3.0764">
        <ele>398.6</ele>
        <time>2022-07-12T15:38:07Z</time>
      </trkpt>
      <trkpt lat="44.10304" lon="3.0764">
        <ele>398.6</ele>
        <time>2022-07-12T15:38:09Z</time>
      </trkpt>
      <trkpt lat="44.103" lon="3.07642">
        <ele>398.6</ele>
        <time>2022-07-12T15:38:11Z</time>
      </trkpt>
      <trkpt lat="44.10296" lon="3.07648">
        <ele>398.4</ele>
        <time>2022-07-12T15:38:13Z</time>
      </trkpt>
      <trkpt lat="44.10295" lon="3.0765">
        <ele>398.4</ele>
        <time>2022-07-12T15:38:14Z</time>
      </trkpt>
      <trkpt lat="44.10294" lon="3.07652">
        <ele>398.4</ele>
        <time>2022-07-12T15:38:15Z</time>
      </trkpt>
      <trkpt lat="44.10292" lon="3.07653">
        <ele>398.6</ele>
        <time>2022-07-12T15:38:18Z</time>
      </trkpt>
      <trkpt lat="44.10292" lon="3.07653">
        <ele>398.4</ele>
        <time>2022-07-12T15:38:19Z</time>
      </trkpt>
      <trkpt lat="44.10283" lon="3.07659">
        <ele>398.2</ele>
        <time>2022-07-12T15:38:41Z</time>
      </trkpt>
      <trkpt lat="44.10277" lon="3.07662">
        <ele>398.2</ele>
        <time>2022-07-12T15:38:43Z</time>
      </trkpt>
      <trkpt lat="44.10262" lon="3.0767">
        <ele>398</ele>
        <time>2022-07-12T15:38:48Z</time>
      </trkpt>
      <trkpt lat="44.10242" lon="3.07691">
        <ele>397.6</ele>
        <time>2022-07-12T15:38:54Z</time>
      </trkpt>
      <trkpt lat="44.10226" lon="3.07703">
        <ele>397.6</ele>
        <time>2022-07-12T15:38:58Z</time>
      </trkpt>
      <trkpt lat="44.10215" lon="3.07713">
        <ele>397.4</ele>
        <time>2022-07-12T15:39:01Z</time>
      </trkpt>
      <trkpt lat="44.10201" lon="3.07722">
        <ele>397.2</ele>
        <time>2022-07-12T15:39:04Z</time>
      </trkpt>
      <trkpt lat="44.10177" lon="3.07738">
        <ele>397.2</ele>
        <time>2022-07-12T15:39:10Z</time>
      </trkpt>
      <trkpt lat="44.1015" lon="3.0775">
        <ele>396.8</ele>
        <time>2022-07-12T15:39:17Z</time>
      </trkpt>
      <trkpt lat="44.10131" lon="3.07761">
        <ele>396.4</ele>
        <time>2022-07-12T15:39:22Z</time>
      </trkpt>
      <trkpt lat="44.10123" lon="3.07771">
        <ele>396.4</ele>
        <time>2022-07-12T15:39:26Z</time>
      </trkpt>
      <trkpt lat="44.1012" lon="3.07772">
        <ele>396.2</ele>
        <time>2022-07-12T15:39:27Z</time>
      </trkpt>
      <trkpt lat="44.10115" lon="3.07775">
        <ele>396.2</ele>
        <time>2022-07-12T15:39:30Z</time>
      </trkpt>
      <trkpt lat="44.10114" lon="3.07777">
        <ele>396</ele>
        <time>2022-07-12T15:39:32Z</time>
      </trkpt>
      <trkpt lat="44.10114" lon="3.07777">
        <ele>396</ele>
        <time>2022-07-12T15:39:34Z</time>
      </trkpt>
      <trkpt lat="44.10114" lon="3.07777">
        <ele>395.8</ele>
        <time>2022-07-12T15:39:38Z</time>
      </trkpt>
      <trkpt lat="44.10112" lon="3.07777">
        <ele>395.8</ele>
        <time>2022-07-12T15:39:39Z</time>
      </trkpt>
      <trkpt lat="44.1011" lon="3.07778">
        <ele>395.8</ele>
        <time>2022-07-12T15:39:40Z</time>
      </trkpt>
      <trkpt lat="44.10096" lon="3.07785">
        <ele>395.6</ele>
        <time>2022-07-12T15:39:44Z</time>
      </trkpt>
      <trkpt lat="44.10077" lon="3.07794">
        <ele>395.4</ele>
        <time>2022-07-12T15:39:49Z</time>
      </trkpt>
      <trkpt lat="44.10047" lon="3.07812">
        <ele>395</ele>
        <time>2022-07-12T15:39:57Z</time>
      </trkpt>
      <trkpt lat="44.10029" lon="3.07823">
        <ele>395.2</ele>
        <time>2022-07-12T15:40:02Z</time>
      </trkpt>
      <trkpt lat="44.10008" lon="3.07843">
        <ele>395</ele>
        <time>2022-07-12T15:40:08Z</time>
      </trkpt>
      <trkpt lat="44.0999" lon="3.07847">
        <ele>394.8</ele>
        <time>2022-07-12T15:40:13Z</time>
      </trkpt>
      <trkpt lat="44.09988" lon="3.07845">
        <ele>394.8</ele>
        <time>2022-07-12T15:40:14Z</time>
      </trkpt>
      <trkpt lat="44.09977" lon="3.07833">
        <ele>394.6</ele>
        <time>2022-07-12T15:40:19Z</time>
      </trkpt>
      <trkpt lat="44.09966" lon="3.07823">
        <ele>394.6</ele>
        <time>2022-07-12T15:40:25Z</time>
      </trkpt>
      <trkpt lat="44.09965" lon="3.07822">
        <ele>394.4</ele>
        <time>2022-07-12T15:40:26Z</time>
      </trkpt>
      <trkpt lat="44.0996" lon="3.07821">
        <ele>394.4</ele>
        <time>2022-07-12T15:40:33Z</time>
      </trkpt>
      <trkpt lat="44.0996" lon="3.07821">
        <ele>394.4</ele>
        <time>2022-07-12T15:40:34Z</time>
      </trkpt>
      <trkpt lat="44.09958" lon="3.07821">
        <ele>394.4</ele>
        <time>2022-07-12T15:40:36Z</time>
      </trkpt>
      <trkpt lat="44.09956" lon="3.0782">
        <ele>394.2</ele>
        <time>2022-07-12T15:40:39Z</time>
      </trkpt>
      <trkpt lat="44.09954" lon="3.07819">
        <ele>394.2</ele>
        <time>2022-07-12T15:40:40Z</time>
      </trkpt>
      <trkpt lat="44.09954" lon="3.07817">
        <ele>394.2</ele>
        <time>2022-07-12T15:40:41Z</time>
      </trkpt>
      <trkpt lat="44.09954" lon="3.07816">
        <ele>394</ele>
        <time>2022-07-12T15:40:44Z</time>
      </trkpt>
      <trkpt lat="44.0995" lon="3.07816">
        <ele>393.8</ele>
        <time>2022-07-12T15:40:53Z</time>
      </trkpt>
      <trkpt lat="44.09951" lon="3.0782">
        <ele>394</ele>
        <time>2022-07-12T15:40:56Z</time>
      </trkpt>
      <trkpt lat="44.09956" lon="3.07824">
        <ele>394</ele>
        <time>2022-07-12T15:40:59Z</time>
      </trkpt>
      <trkpt lat="44.09958" lon="3.07828">
        <ele>394</ele>
        <time>2022-07-12T15:41:01Z</time>
      </trkpt>
      <trkpt lat="44.0996" lon="3.07847">
        <ele>394</ele>
        <time>2022-07-12T15:41:06Z</time>
      </trkpt>
      <trkpt lat="44.0996" lon="3.0785">
        <ele>394.2</ele>
        <time>2022-07-12T15:41:10Z</time>
      </trkpt>
      <trkpt lat="44.09959" lon="3.0785">
        <ele>394.2</ele>
        <time>2022-07-12T15:41:11Z</time>
      </trkpt>
      <trkpt lat="44.09957" lon="3.0785">
        <ele>394.2</ele>
        <time>2022-07-12T15:41:13Z</time>
      </trkpt>
      <trkpt lat="44.09954" lon="3.07851">
        <ele>394.4</ele>
        <time>2022-07-12T15:41:15Z</time>
      </trkpt>
      <trkpt lat="44.09946" lon="3.07851">
        <ele>394.4</ele>
        <time>2022-07-12T15:41:19Z</time>
      </trkpt>
      <trkpt lat="44.09944" lon="3.07851">
        <ele>394.2</ele>
        <time>2022-07-12T15:41:20Z</time>
      </trkpt>
      <trkpt lat="44.09939" lon="3.07852">
        <ele>394.2</ele>
        <time>2022-07-12T15:41:24Z</time>
      </trkpt>
      <trkpt lat="44.09939" lon="3.07852">
        <ele>394</ele>
        <time>2022-07-12T15:41:26Z</time>
      </trkpt>
      <trkpt lat="44.09939" lon="3.07852">
        <ele>394</ele>
        <time>2022-07-12T15:41:27Z</time>
      </trkpt>
      <trkpt lat="44.09938" lon="3.07852">
        <ele>394</ele>
        <time>2022-07-12T15:41:39Z</time>
      </trkpt>
      <trkpt lat="44.09935" lon="3.07854">
        <ele>394</ele>
        <time>2022-07-12T15:41:42Z</time>
      </trkpt>
      <trkpt lat="44.09926" lon="3.07853">
        <ele>393.8</ele>
        <time>2022-07-12T15:41:49Z</time>
      </trkpt>
      <trkpt lat="44.09924" lon="3.07854">
        <ele>393.8</ele>
        <time>2022-07-12T15:41:51Z</time>
      </trkpt>
      <trkpt lat="44.09924" lon="3.07854">
        <ele>393.8</ele>
        <time>2022-07-12T15:41:53Z</time>
      </trkpt>
      <trkpt lat="44.09923" lon="3.07854">
        <ele>393.8</ele>
        <time>2022-07-12T15:41:55Z</time>
      </trkpt>
      <trkpt lat="44.0992" lon="3.07853">
        <ele>393.6</ele>
        <time>2022-07-12T15:42:02Z</time>
      </trkpt>
      <trkpt lat="44.09917" lon="3.07854">
        <ele>393.6</ele>
        <time>2022-07-12T15:42:08Z</time>
      </trkpt>
      <trkpt lat="44.09916" lon="3.07853">
        <ele>393.6</ele>
        <time>2022-07-12T15:42:10Z</time>
      </trkpt>
      <trkpt lat="44.09914" lon="3.07854">
        <ele>393.6</ele>
        <time>2022-07-12T15:42:16Z</time>
      </trkpt>
      <trkpt lat="44.09914" lon="3.07854">
        <ele>393.6</ele>
        <time>2022-07-12T15:42:18Z</time>
      </trkpt>
      <trkpt lat="44.09907" lon="3.07854">
        <ele>393.4</ele>
        <time>2022-07-12T15:42:33Z</time>
      </trkpt>
      <trkpt lat="44.09903" lon="3.07854">
        <ele>393.4</ele>
        <time>2022-07-12T15:42:35Z</time>
      </trkpt>
      <trkpt lat="44.09902" lon="3.07854">
        <ele>393.4</ele>
        <time>2022-07-12T15:42:37Z</time>
      </trkpt>
      <trkpt lat="44.09902" lon="3.07854">
        <ele>393.4</ele>
        <time>2022-07-12T15:42:38Z</time>
      </trkpt>
      <trkpt lat="44.09897" lon="3.07852">
        <ele>393.2</ele>
        <time>2022-07-12T15:42:49Z</time>
      </trkpt>
      <trkpt lat="44.09897" lon="3.07852">
        <ele>393.2</ele>
        <time>2022-07-12T15:42:50Z</time>
      </trkpt>
      <trkpt lat="44.09893" lon="3.07851">
        <ele>393.2</ele>
        <time>2022-07-12T15:42:52Z</time>
      </trkpt>
      <trkpt lat="44.09892" lon="3.0785">
        <ele>393.2</ele>
        <time>2022-07-12T15:42:53Z</time>
      </trkpt>
      <trkpt lat="44.09885" lon="3.07842">
        <ele>393</ele>
        <time>2022-07-12T15:42:59Z</time>
      </trkpt>
      <trkpt lat="44.09884" lon="3.0784">
        <ele>393</ele>
        <time>2022-07-12T15:43:00Z</time>
      </trkpt>
      <trkpt lat="44.09882" lon="3.07836">
        <ele>392.8</ele>
        <time>2022-07-12T15:43:02Z</time>
      </trkpt>
      <trkpt lat="44.09881" lon="3.07834">
        <ele>392.8</ele>
        <time>2022-07-12T15:43:03Z</time>
      </trkpt>
      <trkpt lat="44.0988" lon="3.07832">
        <ele>392.8</ele>
        <time>2022-07-12T15:43:05Z</time>
      </trkpt>
      <trkpt lat="44.09876" lon="3.07831">
        <ele>392.6</ele>
        <time>2022-07-12T15:43:11Z</time>
      </trkpt>
      <trkpt lat="44.0987" lon="3.07826">
        <ele>392.6</ele>
        <time>2022-07-12T15:43:15Z</time>
      </trkpt>
      <trkpt lat="44.09868" lon="3.07825">
        <ele>392.6</ele>
        <time>2022-07-12T15:43:16Z</time>
      </trkpt>
      <trkpt lat="44.09865" lon="3.07813">
        <ele>392.6</ele>
        <time>2022-07-12T15:43:22Z</time>
      </trkpt>
      <trkpt lat="44.09863" lon="3.07813">
        <ele>392.6</ele>
        <time>2022-07-12T15:43:23Z</time>
      </trkpt>
      <trkpt lat="44.0986" lon="3.07813">
        <ele>392.6</ele>
        <time>2022-07-12T15:43:25Z</time>
      </trkpt>
      <trkpt lat="44.0986" lon="3.07812">
        <ele>392.6</ele>
        <time>2022-07-12T15:43:27Z</time>
      </trkpt>
      <trkpt lat="44.09859" lon="3.07811">
        <ele>392.6</ele>
        <time>2022-07-12T15:43:30Z</time>
      </trkpt>
      <trkpt lat="44.09854" lon="3.07809">
        <ele>392.4</ele>
        <time>2022-07-12T15:43:36Z</time>
      </trkpt>
      <trkpt lat="44.09853" lon="3.07808">
        <ele>392.4</ele>
        <time>2022-07-12T15:43:37Z</time>
      </trkpt>
      <trkpt lat="44.09848" lon="3.07799">
        <ele>392.2</ele>
        <time>2022-07-12T15:43:41Z</time>
      </trkpt>
      <trkpt lat="44.09843" lon="3.07796">
        <ele>392.2</ele>
        <time>2022-07-12T15:43:43Z</time>
      </trkpt>
      <trkpt lat="44.09841" lon="3.07793">
        <ele>392</ele>
        <time>2022-07-12T15:43:45Z</time>
      </trkpt>
      <trkpt lat="44.0984" lon="3.07791">
        <ele>392</ele>
        <time>2022-07-12T15:43:46Z</time>
      </trkpt>
      <trkpt lat="44.09838" lon="3.07791">
        <ele>391.8</ele>
        <time>2022-07-12T15:43:48Z</time>
      </trkpt>
      <trkpt lat="44.09838" lon="3.07791">
        <ele>391.6</ele>
        <time>2022-07-12T15:43:50Z</time>
      </trkpt>
      <trkpt lat="44.09835" lon="3.07794">
        <ele>391.4</ele>
        <time>2022-07-12T15:43:53Z</time>
      </trkpt>
      <trkpt lat="44.09832" lon="3.07797">
        <ele>391.4</ele>
        <time>2022-07-12T15:43:55Z</time>
      </trkpt>
      <trkpt lat="44.09831" lon="3.07799">
        <ele>391.2</ele>
        <time>2022-07-12T15:43:58Z</time>
      </trkpt>
      <trkpt lat="44.09828" lon="3.07802">
        <ele>391.2</ele>
        <time>2022-07-12T15:44:00Z</time>
      </trkpt>
      <trkpt lat="44.09825" lon="3.07807">
        <ele>391.2</ele>
        <time>2022-07-12T15:44:03Z</time>
      </trkpt>
      <trkpt lat="44.09823" lon="3.07812">
        <ele>391.2</ele>
        <time>2022-07-12T15:44:06Z</time>
      </trkpt>
      <trkpt lat="44.09816" lon="3.0783">
        <ele>391.6</ele>
        <time>2022-07-12T15:44:12Z</time>
      </trkpt>
      <trkpt lat="44.09814" lon="3.07839">
        <ele>391.8</ele>
        <time>2022-07-12T15:44:18Z</time>
      </trkpt>
      <trkpt lat="44.09811" lon="3.07844">
        <ele>391.8</ele>
        <time>2022-07-12T15:44:20Z</time>
      </trkpt>
      <trkpt lat="44.09805" lon="3.07855">
        <ele>392.2</ele>
        <time>2022-07-12T15:44:27Z</time>
      </trkpt>
      <trkpt lat="44.09803" lon="3.07857">
        <ele>392.2</ele>
        <time>2022-07-12T15:44:28Z</time>
      </trkpt>
      <trkpt lat="44.09803" lon="3.0786">
        <ele>392.2</ele>
        <time>2022-07-12T15:44:29Z</time>
      </trkpt>
      <trkpt lat="44.09803" lon="3.0786">
        <ele>392.2</ele>
        <time>2022-07-12T15:44:31Z</time>
      </trkpt>
      <trkpt lat="44.09803" lon="3.0786">
        <ele>392</ele>
        <time>2022-07-12T15:44:33Z</time>
      </trkpt>
      <trkpt lat="44.09806" lon="3.07865">
        <ele>391.8</ele>
        <time>2022-07-12T15:45:22Z</time>
      </trkpt>
      <trkpt lat="44.09807" lon="3.07865">
        <ele>391.8</ele>
        <time>2022-07-12T15:45:23Z</time>
      </trkpt>
      <trkpt lat="44.09809" lon="3.07861">
        <ele>391.6</ele>
        <time>2022-07-12T15:45:26Z</time>
      </trkpt>
      <trkpt lat="44.09808" lon="3.07859">
        <ele>391.6</ele>
        <time>2022-07-12T15:45:28Z</time>
      </trkpt>
      <trkpt lat="44.09809" lon="3.07857">
        <ele>391.6</ele>
        <time>2022-07-12T15:45:30Z</time>
      </trkpt>
      <trkpt lat="44.09809" lon="3.07855">
        <ele>391.6</ele>
        <time>2022-07-12T15:45:32Z</time>
      </trkpt>
      <trkpt lat="44.09809" lon="3.07854">
        <ele>391.4</ele>
        <time>2022-07-12T15:45:33Z</time>
      </trkpt>
      <trkpt lat="44.09809" lon="3.07854">
        <ele>391.4</ele>
        <time>2022-07-12T15:45:35Z</time>
      </trkpt>
      <trkpt lat="44.09808" lon="3.07855">
        <ele>391.6</ele>
        <time>2022-07-12T15:46:16Z</time>
      </trkpt>
      <trkpt lat="44.09807" lon="3.07855">
        <ele>391.6</ele>
        <time>2022-07-12T15:46:17Z</time>
      </trkpt>
      <trkpt lat="44.09805" lon="3.07856">
        <ele>391.6</ele>
        <time>2022-07-12T15:46:18Z</time>
      </trkpt>
      <trkpt lat="44.09805" lon="3.07856">
        <ele>391.6</ele>
        <time>2022-07-12T15:46:27Z</time>
      </trkpt>
      <trkpt lat="44.09805" lon="3.07856">
        <ele>391.4</ele>
        <time>2022-07-12T15:46:34Z</time>
      </trkpt>
      <trkpt lat="44.09802" lon="3.07857">
        <ele>391.4</ele>
        <time>2022-07-12T15:46:42Z</time>
      </trkpt>
      <trkpt lat="44.09802" lon="3.07857">
        <ele>391.4</ele>
        <time>2022-07-12T15:46:43Z</time>
      </trkpt>
      <trkpt lat="44.09802" lon="3.07857">
        <ele>391.4</ele>
        <time>2022-07-12T15:46:47Z</time>
      </trkpt>
      <trkpt lat="44.09803" lon="3.07857">
        <ele>391.4</ele>
        <time>2022-07-12T15:46:51Z</time>
      </trkpt>
      <trkpt lat="44.09803" lon="3.07857">
        <ele>391.4</ele>
        <time>2022-07-12T15:46:52Z</time>
      </trkpt>
      <trkpt lat="44.09803" lon="3.07857">
        <ele>391.4</ele>
        <time>2022-07-12T15:46:55Z</time>
      </trkpt>
      <trkpt lat="44.09807" lon="3.07856">
        <ele>392.6</ele>
        <time>2022-07-12T15:49:11Z</time>
      </trkpt>
      <trkpt lat="44.09807" lon="3.07856">
        <ele>392.6</ele>
        <time>2022-07-12T15:49:13Z</time>
      </trkpt>
      <trkpt lat="44.09806" lon="3.07856">
        <ele>392.2</ele>
        <time>2022-07-12T15:49:32Z</time>
      </trkpt>
      <trkpt lat="44.09805" lon="3.07857">
        <ele>392.2</ele>
        <time>2022-07-12T15:49:35Z</time>
      </trkpt>
      <trkpt lat="44.098" lon="3.07857">
        <ele>392.2</ele>
        <time>2022-07-12T15:49:42Z</time>
      </trkpt>
      <trkpt lat="44.09796" lon="3.07859">
        <ele>392.2</ele>
        <time>2022-07-12T15:49:46Z</time>
      </trkpt>
      <trkpt lat="44.09795" lon="3.07859">
        <ele>392.2</ele>
        <time>2022-07-12T15:49:47Z</time>
      </trkpt>
      <trkpt lat="44.09792" lon="3.07859">
        <ele>392</ele>
        <time>2022-07-12T15:49:58Z</time>
      </trkpt>
      <trkpt lat="44.09791" lon="3.0786">
        <ele>392</ele>
        <time>2022-07-12T15:50:01Z</time>
      </trkpt>
      <trkpt lat="44.0979" lon="3.0786">
        <ele>392</ele>
        <time>2022-07-12T15:50:02Z</time>
      </trkpt>
      <trkpt lat="44.09791" lon="3.07857">
        <ele>392</ele>
        <time>2022-07-12T15:50:05Z</time>
      </trkpt>
      <trkpt lat="44.09791" lon="3.07858">
        <ele>392</ele>
        <time>2022-07-12T15:50:08Z</time>
      </trkpt>
      <trkpt lat="44.09791" lon="3.07858">
        <ele>392</ele>
        <time>2022-07-12T15:50:09Z</time>
      </trkpt>
      <trkpt lat="44.09813" lon="3.07857">
        <ele>392.4</ele>
        <time>2022-07-12T15:56:15Z</time>
      </trkpt>
      <trkpt lat="44.09813" lon="3.07857">
        <ele>392.6</ele>
        <time>2022-07-12T15:56:17Z</time>
      </trkpt>
      <trkpt lat="44.09813" lon="3.07857">
        <ele>392.4</ele>
        <time>2022-07-12T15:56:18Z</time>
      </trkpt>
      <trkpt lat="44.09814" lon="3.07861">
        <ele>392.4</ele>
        <time>2022-07-12T15:56:36Z</time>
      </trkpt>
      <trkpt lat="44.09812" lon="3.07864">
        <ele>392.4</ele>
        <time>2022-07-12T15:56:40Z</time>
      </trkpt>
      <trkpt lat="44.09809" lon="3.07865">
        <ele>392.4</ele>
        <time>2022-07-12T16:03:31Z</time>
      </trkpt>
      <trkpt lat="44.09809" lon="3.07864">
        <ele>392.4</ele>
        <time>2022-07-12T16:03:33Z</time>
      </trkpt>
      <trkpt lat="44.09809" lon="3.07863">
        <ele>392.4</ele>
        <time>2022-07-12T16:03:40Z</time>
      </trkpt>
      <trkpt lat="44.09809" lon="3.07863">
        <ele>392.2</ele>
        <time>2022-07-12T16:03:44Z</time>
      </trkpt>
      <trkpt lat="44.09809" lon="3.07854">
        <ele>392.4</ele>
        <time>2022-07-12T16:07:09Z</time>
      </trkpt>
      <trkpt lat="44.0981" lon="3.07854">
        <ele>392.4</ele>
        <time>2022-07-12T16:07:10Z</time>
      </trkpt>
      <trkpt lat="44.0981" lon="3.07855">
        <ele>392.4</ele>
        <time>2022-07-12T16:07:12Z</time>
      </trkpt>
      <trkpt lat="44.09812" lon="3.07852">
        <ele>393.4</ele>
        <time>2022-07-12T16:11:46Z</time>
      </trkpt>
      <trkpt lat="44.09812" lon="3.07852">
        <ele>393.4</ele>
        <time>2022-07-12T16:11:49Z</time>
      </trkpt>
      <trkpt lat="44.09812" lon="3.07852">
        <ele>393.4</ele>
        <time>2022-07-12T16:11:51Z</time>
      </trkpt>
      <trkpt lat="44.09813" lon="3.07854">
        <ele>393.4</ele>
        <time>2022-07-12T16:11:53Z</time>
      </trkpt>
      <trkpt lat="44.09813" lon="3.07853">
        <ele>393.4</ele>
        <time>2022-07-12T16:11:55Z</time>
      </trkpt>
      <trkpt lat="44.09813" lon="3.07853">
        <ele>393.2</ele>
        <time>2022-07-12T16:11:58Z</time>
      </trkpt>
      <trkpt lat="44.09813" lon="3.07854">
        <ele>393.2</ele>
        <time>2022-07-12T16:12:17Z</time>
      </trkpt>
      <trkpt lat="44.09813" lon="3.07854">
        <ele>393.2</ele>
        <time>2022-07-12T16:12:19Z</time>
      </trkpt>
      <trkpt lat="44.09816" lon="3.07852">
        <ele>393.2</ele>
        <time>2022-07-12T16:12:22Z</time>
      </trkpt>
      <trkpt lat="44.09819" lon="3.07849">
        <ele>393.2</ele>
        <time>2022-07-12T16:12:27Z</time>
      </trkpt>
      <trkpt lat="44.09819" lon="3.07848">
        <ele>393.2</ele>
        <time>2022-07-12T16:12:33Z</time>
      </trkpt>
      <trkpt lat="44.0982" lon="3.0785">
        <ele>393.2</ele>
        <time>2022-07-12T16:13:00Z</time>
      </trkpt>
      <trkpt lat="44.0982" lon="3.0785">
        <ele>393.2</ele>
        <time>2022-07-12T16:13:09Z</time>
      </trkpt>
      <trkpt lat="44.0982" lon="3.0785">
        <ele>393.2</ele>
        <time>2022-07-12T16:13:12Z</time>
      </trkpt>
      <trkpt lat="44.09816" lon="3.07854">
        <ele>393.4</ele>
        <time>2022-07-12T16:14:52Z</time>
      </trkpt>
      <trkpt lat="44.09816" lon="3.07854">
        <ele>393.4</ele>
        <time>2022-07-12T16:15:00Z</time>
      </trkpt>
      <trkpt lat="44.09816" lon="3.07854">
        <ele>393.2</ele>
        <time>2022-07-12T16:15:06Z</time>
      </trkpt>
      <trkpt lat="44.09816" lon="3.07854">
        <ele>393.2</ele>
        <time>2022-07-12T16:15:08Z</time>
      </trkpt>
      <trkpt lat="44.09816" lon="3.07854">
        <ele>393.2</ele>
        <time>2022-07-12T16:15:14Z</time>
      </trkpt>
      <trkpt lat="44.09816" lon="3.07855">
        <ele>393.8</ele>
        <time>2022-07-12T16:16:24Z</time>
      </trkpt>
      <trkpt lat="44.09816" lon="3.07856">
        <ele>393.8</ele>
        <time>2022-07-12T16:16:25Z</time>
      </trkpt>
      <trkpt lat="44.09816" lon="3.07856">
        <ele>393.8</ele>
        <time>2022-07-12T16:16:29Z</time>
      </trkpt>
      <trkpt lat="44.09815" lon="3.07854">
        <ele>393.8</ele>
        <time>2022-07-12T16:16:33Z</time>
      </trkpt>
      <trkpt lat="44.09815" lon="3.07856">
        <ele>393.8</ele>
        <time>2022-07-12T16:16:46Z</time>
      </trkpt>
      <trkpt lat="44.09815" lon="3.07856">
        <ele>393.8</ele>
        <time>2022-07-12T16:16:49Z</time>
      </trkpt>
      <trkpt lat="44.09815" lon="3.07856">
        <ele>393.8</ele>
        <time>2022-07-12T16:16:56Z</time>
      </trkpt>
      <trkpt lat="44.09813" lon="3.07851">
        <ele>393.6</ele>
        <time>2022-07-12T16:17:14Z</time>
      </trkpt>
      <trkpt lat="44.09812" lon="3.07849">
        <ele>393.6</ele>
        <time>2022-07-12T16:17:17Z</time>
      </trkpt>
      <trkpt lat="44.09813" lon="3.0785">
        <ele>393.6</ele>
        <time>2022-07-12T16:17:24Z</time>
      </trkpt>
      <trkpt lat="44.09813" lon="3.0785">
        <ele>393.6</ele>
        <time>2022-07-12T16:17:26Z</time>
      </trkpt>
      <trkpt lat="44.09813" lon="3.0785">
        <ele>393.6</ele>
        <time>2022-07-12T16:17:28Z</time>
      </trkpt>
      <trkpt lat="44.09817" lon="3.0785">
        <ele>393.4</ele>
        <time>2022-07-12T16:17:34Z</time>
      </trkpt>
      <trkpt lat="44.09817" lon="3.07851">
        <ele>393.4</ele>
        <time>2022-07-12T16:17:36Z</time>
      </trkpt>
      <trkpt lat="44.09817" lon="3.07851">
        <ele>393.4</ele>
        <time>2022-07-12T16:17:38Z</time>
      </trkpt>
      <trkpt lat="44.09818" lon="3.07852">
        <ele>393.4</ele>
        <time>2022-07-12T16:17:39Z</time>
      </trkpt>
      <trkpt lat="44.09817" lon="3.07851">
        <ele>393.4</ele>
        <time>2022-07-12T16:17:40Z</time>
      </trkpt>
      <trkpt lat="44.09817" lon="3.07851">
        <ele>393.4</ele>
        <time>2022-07-12T16:17:42Z</time>
      </trkpt>
      <trkpt lat="44.09816" lon="3.07849">
        <ele>393.6</ele>
        <time>2022-07-12T16:17:49Z</time>
      </trkpt>
      <trkpt lat="44.09814" lon="3.07848">
        <ele>393.6</ele>
        <time>2022-07-12T16:17:54Z</time>
      </trkpt>
      <trkpt lat="44.09814" lon="3.07848">
        <ele>393.6</ele>
        <time>2022-07-12T16:17:58Z</time>
      </trkpt>
      <trkpt lat="44.09814" lon="3.07847">
        <ele>393.6</ele>
        <time>2022-07-12T16:17:59Z</time>
      </trkpt>
      <trkpt lat="44.09812" lon="3.07846">
        <ele>393.6</ele>
        <time>2022-07-12T16:18:04Z</time>
      </trkpt>
      <trkpt lat="44.09809" lon="3.07841">
        <ele>393.6</ele>
        <time>2022-07-12T16:18:10Z</time>
      </trkpt>
      <trkpt lat="44.0981" lon="3.07841">
        <ele>393.8</ele>
        <time>2022-07-12T16:18:17Z</time>
      </trkpt>
      <trkpt lat="44.09811" lon="3.07847">
        <ele>393.6</ele>
        <time>2022-07-12T16:18:40Z</time>
      </trkpt>
      <trkpt lat="44.09811" lon="3.07847">
        <ele>393.6</ele>
        <time>2022-07-12T16:18:44Z</time>
      </trkpt>
      <trkpt lat="44.09812" lon="3.07847">
        <ele>393.6</ele>
        <time>2022-07-12T16:18:50Z</time>
      </trkpt>
      <trkpt lat="44.09812" lon="3.07848">
        <ele>393.6</ele>
        <time>2022-07-12T16:18:53Z</time>
      </trkpt>
      <trkpt lat="44.09813" lon="3.0785">
        <ele>393.6</ele>
        <time>2022-07-12T16:18:55Z</time>
      </trkpt>
      <trkpt lat="44.09813" lon="3.0785">
        <ele>393.6</ele>
        <time>2022-07-12T16:18:56Z</time>
      </trkpt>
      <trkpt lat="44.0981" lon="3.07848">
        <ele>393.6</ele>
        <time>2022-07-12T16:19:00Z</time>
      </trkpt>
      <trkpt lat="44.09811" lon="3.07846">
        <ele>393.6</ele>
        <time>2022-07-12T16:19:02Z</time>
      </trkpt>
      <trkpt lat="44.09811" lon="3.07846">
        <ele>393.6</ele>
        <time>2022-07-12T16:19:04Z</time>
      </trkpt>
      <trkpt lat="44.09806" lon="3.07846">
        <ele>393.6</ele>
        <time>2022-07-12T16:19:06Z</time>
      </trkpt>
      <trkpt lat="44.09806" lon="3.07844">
        <ele>393.6</ele>
        <time>2022-07-12T16:19:07Z</time>
      </trkpt>
      <trkpt lat="44.09811" lon="3.07841">
        <ele>393.4</ele>
        <time>2022-07-12T16:19:08Z</time>
      </trkpt>
      <trkpt lat="44.09813" lon="3.0784">
        <ele>393.4</ele>
        <time>2022-07-12T16:19:10Z</time>
      </trkpt>
      <trkpt lat="44.0981" lon="3.07842">
        <ele>393.4</ele>
        <time>2022-07-12T16:19:11Z</time>
      </trkpt>
      <trkpt lat="44.09811" lon="3.07847">
        <ele>393.4</ele>
        <time>2022-07-12T16:19:13Z</time>
      </trkpt>
      <trkpt lat="44.09812" lon="3.07854">
        <ele>393.6</ele>
        <time>2022-07-12T16:19:16Z</time>
      </trkpt>
      <trkpt lat="44.09812" lon="3.07854">
        <ele>393.6</ele>
        <time>2022-07-12T16:19:17Z</time>
      </trkpt>
      <trkpt lat="44.09814" lon="3.07857">
        <ele>393.6</ele>
        <time>2022-07-12T16:19:20Z</time>
      </trkpt>
      <trkpt lat="44.09814" lon="3.07857">
        <ele>393.6</ele>
        <time>2022-07-12T16:19:21Z</time>
      </trkpt>
      <trkpt lat="44.09811" lon="3.07864">
        <ele>393.6</ele>
        <time>2022-07-12T16:19:27Z</time>
      </trkpt>
      <trkpt lat="44.09809" lon="3.07864">
        <ele>393.6</ele>
        <time>2022-07-12T16:19:31Z</time>
      </trkpt>
      <trkpt lat="44.09806" lon="3.07864">
        <ele>393.6</ele>
        <time>2022-07-12T16:19:36Z</time>
      </trkpt>
      <trkpt lat="44.09805" lon="3.07864">
        <ele>393.6</ele>
        <time>2022-07-12T16:19:38Z</time>
      </trkpt>
      <trkpt lat="44.09801" lon="3.07868">
        <ele>393.6</ele>
        <time>2022-07-12T16:19:43Z</time>
      </trkpt>
      <trkpt lat="44.09792" lon="3.0786">
        <ele>393.4</ele>
        <time>2022-07-12T16:19:48Z</time>
      </trkpt>
      <trkpt lat="44.09787" lon="3.07862">
        <ele>393.4</ele>
        <time>2022-07-12T16:19:50Z</time>
      </trkpt>
      <trkpt lat="44.09793" lon="3.07863">
        <ele>393.4</ele>
        <time>2022-07-12T16:19:53Z</time>
      </trkpt>
      <trkpt lat="44.09799" lon="3.07861">
        <ele>393.4</ele>
        <time>2022-07-12T16:19:54Z</time>
      </trkpt>
      <trkpt lat="44.09805" lon="3.07863">
        <ele>393.4</ele>
        <time>2022-07-12T16:19:58Z</time>
      </trkpt>
      <trkpt lat="44.09803" lon="3.0786">
        <ele>393.4</ele>
        <time>2022-07-12T16:20:02Z</time>
      </trkpt>
      <trkpt lat="44.09803" lon="3.0786">
        <ele>393.4</ele>
        <time>2022-07-12T16:20:04Z</time>
      </trkpt>
      <trkpt lat="44.09805" lon="3.0786">
        <ele>393.4</ele>
        <time>2022-07-12T16:20:08Z</time>
      </trkpt>
      <trkpt lat="44.09804" lon="3.07859">
        <ele>393.4</ele>
        <time>2022-07-12T16:20:10Z</time>
      </trkpt>
      <trkpt lat="44.09804" lon="3.07859">
        <ele>393.4</ele>
        <time>2022-07-12T16:20:11Z</time>
      </trkpt>
      <trkpt lat="44.09804" lon="3.07858">
        <ele>393.4</ele>
        <time>2022-07-12T16:20:14Z</time>
      </trkpt>
      <trkpt lat="44.09805" lon="3.07854">
        <ele>393.4</ele>
        <time>2022-07-12T16:20:18Z</time>
      </trkpt>
      <trkpt lat="44.09806" lon="3.07854">
        <ele>393.2</ele>
        <time>2022-07-12T16:20:23Z</time>
      </trkpt>
      <trkpt lat="44.09808" lon="3.07847">
        <ele>393.2</ele>
        <time>2022-07-12T16:20:29Z</time>
      </trkpt>
      <trkpt lat="44.09813" lon="3.07831">
        <ele>393.4</ele>
        <time>2022-07-12T16:20:34Z</time>
      </trkpt>
      <trkpt lat="44.09814" lon="3.07833">
        <ele>393.4</ele>
        <time>2022-07-12T16:20:42Z</time>
      </trkpt>
      <trkpt lat="44.09814" lon="3.07836">
        <ele>393.6</ele>
        <time>2022-07-12T16:20:49Z</time>
      </trkpt>
      <trkpt lat="44.09814" lon="3.07836">
        <ele>393.6</ele>
        <time>2022-07-12T16:20:50Z</time>
      </trkpt>
      <trkpt lat="44.0981" lon="3.07846">
        <ele>393.6</ele>
        <time>2022-07-12T16:20:56Z</time>
      </trkpt>
      <trkpt lat="44.0981" lon="3.07848">
        <ele>393.4</ele>
        <time>2022-07-12T16:20:58Z</time>
      </trkpt>
      <trkpt lat="44.09815" lon="3.07864">
        <ele>393.4</ele>
        <time>2022-07-12T16:21:03Z</time>
      </trkpt>
      <trkpt lat="44.09823" lon="3.07884">
        <ele>393.6</ele>
        <time>2022-07-12T16:21:08Z</time>
      </trkpt>
      <trkpt lat="44.09829" lon="3.07908">
        <ele>393.2</ele>
        <time>2022-07-12T16:21:24Z</time>
      </trkpt>
      <trkpt lat="44.09822" lon="3.07889">
        <ele>393.4</ele>
        <time>2022-07-12T16:21:27Z</time>
      </trkpt>
      <trkpt lat="44.09822" lon="3.07887">
        <ele>393.2</ele>
        <time>2022-07-12T16:21:29Z</time>
      </trkpt>
      <trkpt lat="44.09819" lon="3.07879">
        <ele>393.2</ele>
        <time>2022-07-12T16:21:30Z</time>
      </trkpt>
      <trkpt lat="44.09811" lon="3.07859">
        <ele>393.2</ele>
        <time>2022-07-12T16:21:33Z</time>
      </trkpt>
      <trkpt lat="44.0981" lon="3.07843">
        <ele>393.2</ele>
        <time>2022-07-12T16:21:35Z</time>
      </trkpt>
      <trkpt lat="44.09806" lon="3.07828">
        <ele>393.2</ele>
        <time>2022-07-12T16:21:41Z</time>
      </trkpt>
      <trkpt lat="44.09807" lon="3.07827">
        <ele>393.2</ele>
        <time>2022-07-12T16:21:44Z</time>
      </trkpt>
      <trkpt lat="44.09823" lon="3.07832">
        <ele>393.4</ele>
        <time>2022-07-12T16:21:49Z</time>
      </trkpt>
      <trkpt lat="44.09825" lon="3.07831">
        <ele>393.4</ele>
        <time>2022-07-12T16:21:52Z</time>
      </trkpt>
      <trkpt lat="44.09828" lon="3.07826">
        <ele>393.4</ele>
        <time>2022-07-12T16:21:57Z</time>
      </trkpt>
      <trkpt lat="44.09827" lon="3.07827">
        <ele>393.4</ele>
        <time>2022-07-12T16:21:59Z</time>
      </trkpt>
      <trkpt lat="44.09827" lon="3.07827">
        <ele>393.2</ele>
        <time>2022-07-12T16:22:03Z</time>
      </trkpt>
      <trkpt lat="44.09821" lon="3.07833">
        <ele>393.4</ele>
        <time>2022-07-12T16:22:55Z</time>
      </trkpt>
      <trkpt lat="44.09821" lon="3.07836">
        <ele>393.4</ele>
        <time>2022-07-12T16:22:57Z</time>
      </trkpt>
      <trkpt lat="44.09821" lon="3.07836">
        <ele>393.4</ele>
        <time>2022-07-12T16:23:00Z</time>
      </trkpt>
      <trkpt lat="44.09821" lon="3.07836">
        <ele>393</ele>
        <time>2022-07-12T16:23:12Z</time>
      </trkpt>
      <trkpt lat="44.09821" lon="3.07836">
        <ele>393</ele>
        <time>2022-07-12T16:23:13Z</time>
      </trkpt>
      <trkpt lat="44.09821" lon="3.07836">
        <ele>393</ele>
        <time>2022-07-12T16:23:15Z</time>
      </trkpt>
      <trkpt lat="44.09817" lon="3.07839">
        <ele>393.2</ele>
        <time>2022-07-12T16:23:49Z</time>
      </trkpt>
      <trkpt lat="44.09815" lon="3.0784">
        <ele>393.2</ele>
        <time>2022-07-12T16:23:50Z</time>
      </trkpt>
      <trkpt lat="44.09814" lon="3.0784">
        <ele>393.2</ele>
        <time>2022-07-12T16:23:56Z</time>
      </trkpt>
      <trkpt lat="44.09815" lon="3.07842">
        <ele>393.2</ele>
        <time>2022-07-12T16:23:59Z</time>
      </trkpt>
      <trkpt lat="44.09812" lon="3.07842">
        <ele>393.2</ele>
        <time>2022-07-12T16:24:01Z</time>
      </trkpt>
      <trkpt lat="44.09808" lon="3.07836">
        <ele>393.2</ele>
        <time>2022-07-12T16:24:04Z</time>
      </trkpt>
      <trkpt lat="44.09807" lon="3.07837">
        <ele>393.2</ele>
        <time>2022-07-12T16:24:06Z</time>
      </trkpt>
      <trkpt lat="44.09804" lon="3.07838">
        <ele>393.2</ele>
        <time>2022-07-12T16:24:09Z</time>
      </trkpt>
      <trkpt lat="44.0979" lon="3.07814">
        <ele>393.2</ele>
        <time>2022-07-12T16:24:15Z</time>
      </trkpt>
      <trkpt lat="44.0979" lon="3.07818">
        <ele>393.2</ele>
        <time>2022-07-12T16:24:17Z</time>
      </trkpt>
      <trkpt lat="44.0979" lon="3.07828">
        <ele>393.2</ele>
        <time>2022-07-12T16:24:20Z</time>
      </trkpt>
      <trkpt lat="44.0979" lon="3.07832">
        <ele>393.2</ele>
        <time>2022-07-12T16:24:21Z</time>
      </trkpt>
      <trkpt lat="44.0979" lon="3.07839">
        <ele>393.2</ele>
        <time>2022-07-12T16:24:24Z</time>
      </trkpt>
      <trkpt lat="44.09789" lon="3.07845">
        <ele>393.2</ele>
        <time>2022-07-12T16:24:29Z</time>
      </trkpt>
      <trkpt lat="44.09773" lon="3.07851">
        <ele>393.4</ele>
        <time>2022-07-12T16:24:45Z</time>
      </trkpt>
      <trkpt lat="44.09794" lon="3.07832">
        <ele>393.4</ele>
        <time>2022-07-12T16:24:53Z</time>
      </trkpt>
      <trkpt lat="44.09793" lon="3.07824">
        <ele>393.4</ele>
        <time>2022-07-12T16:24:57Z</time>
      </trkpt>
      <trkpt lat="44.09793" lon="3.07823">
        <ele>393.4</ele>
        <time>2022-07-12T16:24:59Z</time>
      </trkpt>
      <trkpt lat="44.09794" lon="3.07824">
        <ele>393.4</ele>
        <time>2022-07-12T16:25:05Z</time>
      </trkpt>
      <trkpt lat="44.09793" lon="3.07823">
        <ele>393.4</ele>
        <time>2022-07-12T16:25:06Z</time>
      </trkpt>
      <trkpt lat="44.09809" lon="3.07829">
        <ele>393.4</ele>
        <time>2022-07-12T16:25:14Z</time>
      </trkpt>
      <trkpt lat="44.09813" lon="3.07829">
        <ele>393.4</ele>
        <time>2022-07-12T16:25:15Z</time>
      </trkpt>
      <trkpt lat="44.09825" lon="3.07831">
        <ele>393.4</ele>
        <time>2022-07-12T16:25:17Z</time>
      </trkpt>
      <trkpt lat="44.09832" lon="3.07838">
        <ele>393.4</ele>
        <time>2022-07-12T16:25:22Z</time>
      </trkpt>
      <trkpt lat="44.09832" lon="3.07837">
        <ele>393.4</ele>
        <time>2022-07-12T16:25:24Z</time>
      </trkpt>
      <trkpt lat="44.09832" lon="3.07837">
        <ele>393.4</ele>
        <time>2022-07-12T16:25:26Z</time>
      </trkpt>
      <trkpt lat="44.09829" lon="3.07839">
        <ele>393.4</ele>
        <time>2022-07-12T16:25:53Z</time>
      </trkpt>
      <trkpt lat="44.09829" lon="3.07839">
        <ele>393.6</ele>
        <time>2022-07-12T16:25:56Z</time>
      </trkpt>
      <trkpt lat="44.09829" lon="3.07839">
        <ele>393.4</ele>
        <time>2022-07-12T16:26:04Z</time>
      </trkpt>
      <trkpt lat="44.09829" lon="3.07839">
        <ele>393.4</ele>
        <time>2022-07-12T16:26:05Z</time>
      </trkpt>
      <trkpt lat="44.09829" lon="3.07839">
        <ele>393.8</ele>
        <time>2022-07-12T16:26:46Z</time>
      </trkpt>
      <trkpt lat="44.09826" lon="3.07848">
        <ele>393.6</ele>
        <time>2022-07-12T16:26:51Z</time>
      </trkpt>
      <trkpt lat="44.09826" lon="3.07848">
        <ele>393.6</ele>
        <time>2022-07-12T16:26:52Z</time>
      </trkpt>
      <trkpt lat="44.09822" lon="3.07847">
        <ele>393.6</ele>
        <time>2022-07-12T16:27:20Z</time>
      </trkpt>
      <trkpt lat="44.09821" lon="3.07849">
        <ele>393.8</ele>
        <time>2022-07-12T16:27:22Z</time>
      </trkpt>
      <trkpt lat="44.09822" lon="3.07849">
        <ele>393.8</ele>
        <time>2022-07-12T16:27:23Z</time>
      </trkpt>
      <trkpt lat="44.09822" lon="3.07849">
        <ele>393.8</ele>
        <time>2022-07-12T16:27:30Z</time>
      </trkpt>
      <trkpt lat="44.0982" lon="3.07848">
        <ele>394.2</ele>
        <time>2022-07-12T16:28:05Z</time>
      </trkpt>
      <trkpt lat="44.0982" lon="3.07848">
        <ele>394.2</ele>
        <time>2022-07-12T16:28:06Z</time>
      </trkpt>
      <trkpt lat="44.09821" lon="3.07848">
        <ele>394.2</ele>
        <time>2022-07-12T16:28:07Z</time>
      </trkpt>
      <trkpt lat="44.0982" lon="3.07846">
        <ele>393.8</ele>
        <time>2022-07-12T16:30:08Z</time>
      </trkpt>
      <trkpt lat="44.09821" lon="3.07846">
        <ele>393.8</ele>
        <time>2022-07-12T16:30:12Z</time>
      </trkpt>
      <trkpt lat="44.09817" lon="3.07847">
        <ele>394.2</ele>
        <time>2022-07-12T16:33:41Z</time>
      </trkpt>
      <trkpt lat="44.09817" lon="3.07849">
        <ele>394.4</ele>
        <time>2022-07-12T16:33:45Z</time>
      </trkpt>
      <trkpt lat="44.09817" lon="3.07858">
        <ele>394.4</ele>
        <time>2022-07-12T16:33:48Z</time>
      </trkpt>
      <trkpt lat="44.09817" lon="3.07857">
        <ele>394.2</ele>
        <time>2022-07-12T16:33:52Z</time>
      </trkpt>
      <trkpt lat="44.09816" lon="3.07857">
        <ele>394.2</ele>
        <time>2022-07-12T16:33:56Z</time>
      </trkpt>
      <trkpt lat="44.09816" lon="3.07857">
        <ele>394.2</ele>
        <time>2022-07-12T16:33:59Z</time>
      </trkpt>
      <trkpt lat="44.09815" lon="3.07855">
        <ele>394.4</ele>
        <time>2022-07-12T16:35:00Z</time>
      </trkpt>
      <trkpt lat="44.09815" lon="3.07855">
        <ele>394.4</ele>
        <time>2022-07-12T16:35:02Z</time>
      </trkpt>
      <trkpt lat="44.09815" lon="3.07855">
        <ele>394.4</ele>
        <time>2022-07-12T16:35:06Z</time>
      </trkpt>
      <trkpt lat="44.09818" lon="3.07851">
        <ele>394.4</ele>
        <time>2022-07-12T16:35:36Z</time>
      </trkpt>
      <trkpt lat="44.09818" lon="3.07848">
        <ele>394.4</ele>
        <time>2022-07-12T16:35:37Z</time>
      </trkpt>
      <trkpt lat="44.09817" lon="3.07845">
        <ele>394.2</ele>
        <time>2022-07-12T16:35:42Z</time>
      </trkpt>
      <trkpt lat="44.09817" lon="3.07845">
        <ele>394.2</ele>
        <time>2022-07-12T16:35:45Z</time>
      </trkpt>
      <trkpt lat="44.09816" lon="3.07846">
        <ele>394.2</ele>
        <time>2022-07-12T16:35:52Z</time>
      </trkpt>
      <trkpt lat="44.09812" lon="3.07842">
        <ele>394.6</ele>
        <time>2022-07-12T16:35:54Z</time>
      </trkpt>
      <trkpt lat="44.09812" lon="3.07843">
        <ele>394.4</ele>
        <time>2022-07-12T16:35:58Z</time>
      </trkpt>
      <trkpt lat="44.09813" lon="3.07845">
        <ele>394.2</ele>
        <time>2022-07-12T16:36:04Z</time>
      </trkpt>
      <trkpt lat="44.09816" lon="3.07844">
        <ele>394.2</ele>
        <time>2022-07-12T16:36:06Z</time>
      </trkpt>
      <trkpt lat="44.09817" lon="3.07843">
        <ele>394.2</ele>
        <time>2022-07-12T16:36:09Z</time>
      </trkpt>
      <trkpt lat="44.09817" lon="3.07843">
        <ele>394.2</ele>
        <time>2022-07-12T16:36:10Z</time>
      </trkpt>
      <trkpt lat="44.09817" lon="3.07842">
        <ele>394.2</ele>
        <time>2022-07-12T16:36:15Z</time>
      </trkpt>
      <trkpt lat="44.09817" lon="3.07842">
        <ele>394.2</ele>
        <time>2022-07-12T16:36:17Z</time>
      </trkpt>
      <trkpt lat="44.09816" lon="3.07841">
        <ele>394.2</ele>
        <time>2022-07-12T16:36:24Z</time>
      </trkpt>
      <trkpt lat="44.09816" lon="3.07841">
        <ele>394.2</ele>
        <time>2022-07-12T16:36:32Z</time>
      </trkpt>
      <trkpt lat="44.09816" lon="3.07841">
        <ele>394.2</ele>
        <time>2022-07-12T16:36:41Z</time>
      </trkpt>
      <trkpt lat="44.09816" lon="3.07848">
        <ele>394</ele>
        <time>2022-07-12T16:36:56Z</time>
      </trkpt>
      <trkpt lat="44.09815" lon="3.07849">
        <ele>394</ele>
        <time>2022-07-12T16:37:00Z</time>
      </trkpt>
      <trkpt lat="44.09815" lon="3.07849">
        <ele>394</ele>
        <time>2022-07-12T16:37:05Z</time>
      </trkpt>
      <trkpt lat="44.09816" lon="3.07849">
        <ele>394.2</ele>
        <time>2022-07-12T16:37:16Z</time>
      </trkpt>
      <trkpt lat="44.09816" lon="3.07847">
        <ele>394.2</ele>
        <time>2022-07-12T16:37:20Z</time>
      </trkpt>
      <trkpt lat="44.09815" lon="3.07848">
        <ele>394.2</ele>
        <time>2022-07-12T16:37:25Z</time>
      </trkpt>
      <trkpt lat="44.09815" lon="3.07849">
        <ele>394.2</ele>
        <time>2022-07-12T16:37:26Z</time>
      </trkpt>
      <trkpt lat="44.09814" lon="3.07849">
        <ele>394.2</ele>
        <time>2022-07-12T16:37:28Z</time>
      </trkpt>
      <trkpt lat="44.09813" lon="3.0785">
        <ele>394.2</ele>
        <time>2022-07-12T16:37:31Z</time>
      </trkpt>
      <trkpt lat="44.09813" lon="3.07842">
        <ele>394.2</ele>
        <time>2022-07-12T16:37:34Z</time>
      </trkpt>
      <trkpt lat="44.09813" lon="3.07842">
        <ele>394.4</ele>
        <time>2022-07-12T16:37:35Z</time>
      </trkpt>
      <trkpt lat="44.09813" lon="3.07847">
        <ele>394.4</ele>
        <time>2022-07-12T16:37:36Z</time>
      </trkpt>
      <trkpt lat="44.09813" lon="3.07849">
        <ele>394.4</ele>
        <time>2022-07-12T16:37:38Z</time>
      </trkpt>
      <trkpt lat="44.09813" lon="3.0785">
        <ele>394.4</ele>
        <time>2022-07-12T16:37:40Z</time>
      </trkpt>
      <trkpt lat="44.09813" lon="3.07851">
        <ele>394.4</ele>
        <time>2022-07-12T16:37:41Z</time>
      </trkpt>
      <trkpt lat="44.09811" lon="3.07851">
        <ele>394.2</ele>
        <time>2022-07-12T16:37:48Z</time>
      </trkpt>
      <trkpt lat="44.09811" lon="3.07851">
        <ele>394.4</ele>
        <time>2022-07-12T16:37:50Z</time>
      </trkpt>
      <trkpt lat="44.09811" lon="3.07853">
        <ele>394.4</ele>
        <time>2022-07-12T16:37:55Z</time>
      </trkpt>
      <trkpt lat="44.09811" lon="3.07856">
        <ele>394.4</ele>
        <time>2022-07-12T16:38:02Z</time>
      </trkpt>
      <trkpt lat="44.0981" lon="3.07856">
        <ele>394.4</ele>
        <time>2022-07-12T16:38:06Z</time>
      </trkpt>
      <trkpt lat="44.09801" lon="3.07849">
        <ele>394.4</ele>
        <time>2022-07-12T16:38:11Z</time>
      </trkpt>
      <trkpt lat="44.09799" lon="3.07848">
        <ele>394.2</ele>
        <time>2022-07-12T16:38:12Z</time>
      </trkpt>
      <trkpt lat="44.0979" lon="3.07845">
        <ele>394.2</ele>
        <time>2022-07-12T16:38:15Z</time>
      </trkpt>
      <trkpt lat="44.09774" lon="3.0784">
        <ele>393.6</ele>
        <time>2022-07-12T16:38:19Z</time>
      </trkpt>
      <trkpt lat="44.0977" lon="3.07839">
        <ele>393.4</ele>
        <time>2022-07-12T16:38:20Z</time>
      </trkpt>
      <trkpt lat="44.09744" lon="3.07834">
        <ele>392.8</ele>
        <time>2022-07-12T16:38:26Z</time>
      </trkpt>
      <trkpt lat="44.09735" lon="3.07831">
        <ele>392.6</ele>
        <time>2022-07-12T16:38:28Z</time>
      </trkpt>
      <trkpt lat="44.09721" lon="3.07824">
        <ele>392</ele>
        <time>2022-07-12T16:38:32Z</time>
      </trkpt>
      <trkpt lat="44.09715" lon="3.07819">
        <ele>391.8</ele>
        <time>2022-07-12T16:38:35Z</time>
      </trkpt>
      <trkpt lat="44.09713" lon="3.07815">
        <ele>391.6</ele>
        <time>2022-07-12T16:38:36Z</time>
      </trkpt>
      <trkpt lat="44.09713" lon="3.07811">
        <ele>391.6</ele>
        <time>2022-07-12T16:38:37Z</time>
      </trkpt>
      <trkpt lat="44.09714" lon="3.07806">
        <ele>391.6</ele>
        <time>2022-07-12T16:38:38Z</time>
      </trkpt>
      <trkpt lat="44.09716" lon="3.078">
        <ele>391.4</ele>
        <time>2022-07-12T16:38:39Z</time>
      </trkpt>
      <trkpt lat="44.09722" lon="3.07783">
        <ele>390.6</ele>
        <time>2022-07-12T16:38:43Z</time>
      </trkpt>
      <trkpt lat="44.09723" lon="3.07779">
        <ele>390.4</ele>
        <time>2022-07-12T16:38:44Z</time>
      </trkpt>
      <trkpt lat="44.09728" lon="3.07763">
        <ele>389.8</ele>
        <time>2022-07-12T16:38:48Z</time>
      </trkpt>
      <trkpt lat="44.09728" lon="3.07754">
        <ele>389.6</ele>
        <time>2022-07-12T16:38:51Z</time>
      </trkpt>
      <trkpt lat="44.09723" lon="3.07751">
        <ele>389.6</ele>
        <time>2022-07-12T16:38:53Z</time>
      </trkpt>
      <trkpt lat="44.09719" lon="3.07749">
        <ele>389.4</ele>
        <time>2022-07-12T16:38:55Z</time>
      </trkpt>
      <trkpt lat="44.09712" lon="3.07747">
        <ele>389.4</ele>
        <time>2022-07-12T16:38:57Z</time>
      </trkpt>
      <trkpt lat="44.09696" lon="3.07739">
        <ele>389.4</ele>
        <time>2022-07-12T16:39:01Z</time>
      </trkpt>
      <trkpt lat="44.09677" lon="3.07733">
        <ele>389.4</ele>
        <time>2022-07-12T16:39:06Z</time>
      </trkpt>
      <trkpt lat="44.09662" lon="3.07727">
        <ele>389.4</ele>
        <time>2022-07-12T16:39:11Z</time>
      </trkpt>
      <trkpt lat="44.09645" lon="3.07728">
        <ele>389.6</ele>
        <time>2022-07-12T16:39:16Z</time>
      </trkpt>
      <trkpt lat="44.0964" lon="3.07728">
        <ele>389.8</ele>
        <time>2022-07-12T16:39:18Z</time>
      </trkpt>
      <trkpt lat="44.09637" lon="3.07729">
        <ele>390</ele>
        <time>2022-07-12T16:39:19Z</time>
      </trkpt>
      <trkpt lat="44.09621" lon="3.07725">
        <ele>390</ele>
        <time>2022-07-12T16:39:24Z</time>
      </trkpt>
      <trkpt lat="44.09603" lon="3.07722">
        <ele>389.8</ele>
        <time>2022-07-12T16:39:29Z</time>
      </trkpt>
      <trkpt lat="44.09598" lon="3.07719">
        <ele>389.4</ele>
        <time>2022-07-12T16:39:32Z</time>
      </trkpt>
      <trkpt lat="44.09593" lon="3.07719">
        <ele>389.2</ele>
        <time>2022-07-12T16:39:33Z</time>
      </trkpt>
      <trkpt lat="44.09589" lon="3.07718">
        <ele>389</ele>
        <time>2022-07-12T16:39:34Z</time>
      </trkpt>
      <trkpt lat="44.09583" lon="3.07712">
        <ele>389</ele>
        <time>2022-07-12T16:39:36Z</time>
      </trkpt>
      <trkpt lat="44.09571" lon="3.07698">
        <ele>388.6</ele>
        <time>2022-07-12T16:39:40Z</time>
      </trkpt>
      <trkpt lat="44.09558" lon="3.07672">
        <ele>388.6</ele>
        <time>2022-07-12T16:39:46Z</time>
      </trkpt>
      <trkpt lat="44.09555" lon="3.07665">
        <ele>388.8</ele>
        <time>2022-07-12T16:39:49Z</time>
      </trkpt>
      <trkpt lat="44.09555" lon="3.07663">
        <ele>388.8</ele>
        <time>2022-07-12T16:39:50Z</time>
      </trkpt>
      <trkpt lat="44.09554" lon="3.07662">
        <ele>388.8</ele>
        <time>2022-07-12T16:39:51Z</time>
      </trkpt>
      <trkpt lat="44.09552" lon="3.07655">
        <ele>389</ele>
        <time>2022-07-12T16:39:54Z</time>
      </trkpt>
      <trkpt lat="44.09551" lon="3.07653">
        <ele>389</ele>
        <time>2022-07-12T16:39:55Z</time>
      </trkpt>
      <trkpt lat="44.0954" lon="3.07636">
        <ele>389</ele>
        <time>2022-07-12T16:40:00Z</time>
      </trkpt>
      <trkpt lat="44.09538" lon="3.07633">
        <ele>389</ele>
        <time>2022-07-12T16:40:01Z</time>
      </trkpt>
      <trkpt lat="44.09531" lon="3.07616">
        <ele>389</ele>
        <time>2022-07-12T16:40:04Z</time>
      </trkpt>
      <trkpt lat="44.09529" lon="3.07612">
        <ele>388.8</ele>
        <time>2022-07-12T16:40:05Z</time>
      </trkpt>
      <trkpt lat="44.09522" lon="3.07594">
        <ele>388.6</ele>
        <time>2022-07-12T16:40:08Z</time>
      </trkpt>
      <trkpt lat="44.09513" lon="3.07576">
        <ele>388</ele>
        <time>2022-07-12T16:40:11Z</time>
      </trkpt>
      <trkpt lat="44.09507" lon="3.07562">
        <ele>387.4</ele>
        <time>2022-07-12T16:40:13Z</time>
      </trkpt>
      <trkpt lat="44.09496" lon="3.07539">
        <ele>386.6</ele>
        <time>2022-07-12T16:40:16Z</time>
      </trkpt>
      <trkpt lat="44.0949" lon="3.07525">
        <ele>386.2</ele>
        <time>2022-07-12T16:40:18Z</time>
      </trkpt>
      <trkpt lat="44.09475" lon="3.07499">
        <ele>385.4</ele>
        <time>2022-07-12T16:40:22Z</time>
      </trkpt>
      <trkpt lat="44.09472" lon="3.07494">
        <ele>385.2</ele>
        <time>2022-07-12T16:40:23Z</time>
      </trkpt>
      <trkpt lat="44.09467" lon="3.07483">
        <ele>385</ele>
        <time>2022-07-12T16:40:25Z</time>
      </trkpt>
      <trkpt lat="44.09463" lon="3.07476">
        <ele>385</ele>
        <time>2022-07-12T16:40:27Z</time>
      </trkpt>
      <trkpt lat="44.09456" lon="3.07463">
        <ele>385</ele>
        <time>2022-07-12T16:40:31Z</time>
      </trkpt>
      <trkpt lat="44.0945" lon="3.07434">
        <ele>385.6</ele>
        <time>2022-07-12T16:40:38Z</time>
      </trkpt>
      <trkpt lat="44.09447" lon="3.07411">
        <ele>386.2</ele>
        <time>2022-07-12T16:40:44Z</time>
      </trkpt>
      <trkpt lat="44.09447" lon="3.07406">
        <ele>386.4</ele>
        <time>2022-07-12T16:40:45Z</time>
      </trkpt>
      <trkpt lat="44.0944" lon="3.07393">
        <ele>386.6</ele>
        <time>2022-07-12T16:40:48Z</time>
      </trkpt>
      <trkpt lat="44.09427" lon="3.07389">
        <ele>387</ele>
        <time>2022-07-12T16:40:52Z</time>
      </trkpt>
      <trkpt lat="44.09422" lon="3.07395">
        <ele>387.2</ele>
        <time>2022-07-12T16:40:54Z</time>
      </trkpt>
      <trkpt lat="44.09422" lon="3.07397">
        <ele>387</ele>
        <time>2022-07-12T16:40:55Z</time>
      </trkpt>
      <trkpt lat="44.09418" lon="3.07408">
        <ele>387</ele>
        <time>2022-07-12T16:40:57Z</time>
      </trkpt>
      <trkpt lat="44.09411" lon="3.07416">
        <ele>386.8</ele>
        <time>2022-07-12T16:40:59Z</time>
      </trkpt>
      <trkpt lat="44.09385" lon="3.07441">
        <ele>386.2</ele>
        <time>2022-07-12T16:41:06Z</time>
      </trkpt>
      <trkpt lat="44.0938" lon="3.07446">
        <ele>386.2</ele>
        <time>2022-07-12T16:41:07Z</time>
      </trkpt>
      <trkpt lat="44.09373" lon="3.07453">
        <ele>386</ele>
        <time>2022-07-12T16:41:09Z</time>
      </trkpt>
      <trkpt lat="44.09364" lon="3.07461">
        <ele>386</ele>
        <time>2022-07-12T16:41:11Z</time>
      </trkpt>
      <trkpt lat="44.09359" lon="3.07465">
        <ele>385.8</ele>
        <time>2022-07-12T16:41:12Z</time>
      </trkpt>
      <trkpt lat="44.09344" lon="3.07479">
        <ele>385.8</ele>
        <time>2022-07-12T16:41:15Z</time>
      </trkpt>
      <trkpt lat="44.09317" lon="3.07506">
        <ele>385.6</ele>
        <time>2022-07-12T16:41:22Z</time>
      </trkpt>
      <trkpt lat="44.09291" lon="3.07531">
        <ele>385.8</ele>
        <time>2022-07-12T16:41:29Z</time>
      </trkpt>
      <trkpt lat="44.09276" lon="3.07544">
        <ele>385.8</ele>
        <time>2022-07-12T16:41:33Z</time>
      </trkpt>
      <trkpt lat="44.09265" lon="3.07555">
        <ele>385.8</ele>
        <time>2022-07-12T16:41:36Z</time>
      </trkpt>
      <trkpt lat="44.09243" lon="3.07578">
        <ele>385.6</ele>
        <time>2022-07-12T16:41:42Z</time>
      </trkpt>
      <trkpt lat="44.09229" lon="3.07592">
        <ele>385.4</ele>
        <time>2022-07-12T16:41:46Z</time>
      </trkpt>
      <trkpt lat="44.09222" lon="3.07597">
        <ele>385.2</ele>
        <time>2022-07-12T16:41:49Z</time>
      </trkpt>
      <trkpt lat="44.09213" lon="3.07608">
        <ele>385</ele>
        <time>2022-07-12T16:41:54Z</time>
      </trkpt>
      <trkpt lat="44.09211" lon="3.0761">
        <ele>385</ele>
        <time>2022-07-12T16:41:55Z</time>
      </trkpt>
      <trkpt lat="44.09206" lon="3.07612">
        <ele>384.8</ele>
        <time>2022-07-12T16:41:57Z</time>
      </trkpt>
      <trkpt lat="44.09206" lon="3.0761">
        <ele>384.8</ele>
        <time>2022-07-12T16:41:58Z</time>
      </trkpt>
      <trkpt lat="44.09209" lon="3.07606">
        <ele>384.8</ele>
        <time>2022-07-12T16:42:00Z</time>
      </trkpt>
      <trkpt lat="44.09215" lon="3.07602">
        <ele>384.6</ele>
        <time>2022-07-12T16:42:02Z</time>
      </trkpt>
      <trkpt lat="44.09229" lon="3.07584">
        <ele>384.4</ele>
        <time>2022-07-12T16:42:07Z</time>
      </trkpt>
      <trkpt lat="44.09224" lon="3.07569">
        <ele>384</ele>
        <time>2022-07-12T16:42:09Z</time>
      </trkpt>
      <trkpt lat="44.0922" lon="3.07559">
        <ele>383.6</ele>
        <time>2022-07-12T16:42:10Z</time>
      </trkpt>
      <trkpt lat="44.09212" lon="3.07543">
        <ele>383</ele>
        <time>2022-07-12T16:42:12Z</time>
      </trkpt>
      <trkpt lat="44.09206" lon="3.07526">
        <ele>382.2</ele>
        <time>2022-07-12T16:42:14Z</time>
      </trkpt>
      <trkpt lat="44.09201" lon="3.07513">
        <ele>381.4</ele>
        <time>2022-07-12T16:42:16Z</time>
      </trkpt>
      <trkpt lat="44.09196" lon="3.07499">
        <ele>381</ele>
        <time>2022-07-12T16:42:18Z</time>
      </trkpt>
      <trkpt lat="44.09192" lon="3.07482">
        <ele>380.6</ele>
        <time>2022-07-12T16:42:20Z</time>
      </trkpt>
      <trkpt lat="44.09188" lon="3.07467">
        <ele>380.4</ele>
        <time>2022-07-12T16:42:22Z</time>
      </trkpt>
      <trkpt lat="44.09178" lon="3.07449">
        <ele>379.8</ele>
        <time>2022-07-12T16:42:25Z</time>
      </trkpt>
      <trkpt lat="44.09175" lon="3.07442">
        <ele>379.8</ele>
        <time>2022-07-12T16:42:26Z</time>
      </trkpt>
      <trkpt lat="44.09162" lon="3.07416">
        <ele>379.4</ele>
        <time>2022-07-12T16:42:30Z</time>
      </trkpt>
      <trkpt lat="44.09142" lon="3.07381">
        <ele>379.2</ele>
        <time>2022-07-12T16:42:37Z</time>
      </trkpt>
      <trkpt lat="44.09128" lon="3.07353">
        <ele>379.8</ele>
        <time>2022-07-12T16:42:44Z</time>
      </trkpt>
      <trkpt lat="44.09121" lon="3.07339">
        <ele>379.8</ele>
        <time>2022-07-12T16:42:48Z</time>
      </trkpt>
      <trkpt lat="44.0912" lon="3.07334">
        <ele>379.8</ele>
        <time>2022-07-12T16:42:49Z</time>
      </trkpt>
      <trkpt lat="44.09108" lon="3.07303">
        <ele>379.8</ele>
        <time>2022-07-12T16:42:56Z</time>
      </trkpt>
      <trkpt lat="44.09095" lon="3.07277">
        <ele>379.8</ele>
        <time>2022-07-12T16:43:03Z</time>
      </trkpt>
      <trkpt lat="44.09088" lon="3.07262">
        <ele>380.2</ele>
        <time>2022-07-12T16:43:07Z</time>
      </trkpt>
      <trkpt lat="44.09083" lon="3.07237">
        <ele>381</ele>
        <time>2022-07-12T16:43:12Z</time>
      </trkpt>
      <trkpt lat="44.09079" lon="3.07225">
        <ele>381.2</ele>
        <time>2022-07-12T16:43:15Z</time>
      </trkpt>
      <trkpt lat="44.09073" lon="3.07206">
        <ele>381.4</ele>
        <time>2022-07-12T16:43:21Z</time>
      </trkpt>
      <trkpt lat="44.09071" lon="3.07197">
        <ele>381.4</ele>
        <time>2022-07-12T16:43:25Z</time>
      </trkpt>
      <trkpt lat="44.09071" lon="3.07196">
        <ele>381.4</ele>
        <time>2022-07-12T16:43:26Z</time>
      </trkpt>
      <trkpt lat="44.09071" lon="3.07197">
        <ele>381.2</ele>
        <time>2022-07-12T16:43:29Z</time>
      </trkpt>
      <trkpt lat="44.09071" lon="3.07195">
        <ele>381.2</ele>
        <time>2022-07-12T16:43:32Z</time>
      </trkpt>
      <trkpt lat="44.0907" lon="3.07193">
        <ele>381</ele>
        <time>2022-07-12T16:43:37Z</time>
      </trkpt>
      <trkpt lat="44.09069" lon="3.0719">
        <ele>381.4</ele>
        <time>2022-07-12T16:44:12Z</time>
      </trkpt>
      <trkpt lat="44.09068" lon="3.07188">
        <ele>381.4</ele>
        <time>2022-07-12T16:44:13Z</time>
      </trkpt>
      <trkpt lat="44.09063" lon="3.07168">
        <ele>381.4</ele>
        <time>2022-07-12T16:44:18Z</time>
      </trkpt>
      <trkpt lat="44.09058" lon="3.07142">
        <ele>381.2</ele>
        <time>2022-07-12T16:44:23Z</time>
      </trkpt>
      <trkpt lat="44.09051" lon="3.07107">
        <ele>381.2</ele>
        <time>2022-07-12T16:44:30Z</time>
      </trkpt>
      <trkpt lat="44.09051" lon="3.07105">
        <ele>381.2</ele>
        <time>2022-07-12T16:44:31Z</time>
      </trkpt>
      <trkpt lat="44.09051" lon="3.07104">
        <ele>381.2</ele>
        <time>2022-07-12T16:44:33Z</time>
      </trkpt>
      <trkpt lat="44.09051" lon="3.07104">
        <ele>381.2</ele>
        <time>2022-07-12T16:44:34Z</time>
      </trkpt>
      <trkpt lat="44.09051" lon="3.071">
        <ele>380.8</ele>
        <time>2022-07-12T16:44:58Z</time>
      </trkpt>
      <trkpt lat="44.0905" lon="3.07091">
        <ele>381</ele>
        <time>2022-07-12T16:45:00Z</time>
      </trkpt>
      <trkpt lat="44.09047" lon="3.0706">
        <ele>381</ele>
        <time>2022-07-12T16:45:06Z</time>
      </trkpt>
      <trkpt lat="44.09047" lon="3.0702">
        <ele>381.2</ele>
        <time>2022-07-12T16:45:13Z</time>
      </trkpt>
      <trkpt lat="44.09048" lon="3.07002">
        <ele>381.2</ele>
        <time>2022-07-12T16:45:16Z</time>
      </trkpt>
      <trkpt lat="44.09048" lon="3.06998">
        <ele>381.2</ele>
        <time>2022-07-12T16:45:17Z</time>
      </trkpt>
      <trkpt lat="44.09048" lon="3.0697">
        <ele>381.2</ele>
        <time>2022-07-12T16:45:21Z</time>
      </trkpt>
      <trkpt lat="44.09046" lon="3.06962">
        <ele>381.2</ele>
        <time>2022-07-12T16:45:22Z</time>
      </trkpt>
      <trkpt lat="44.09044" lon="3.06946">
        <ele>381</ele>
        <time>2022-07-12T16:45:24Z</time>
      </trkpt>
      <trkpt lat="44.09044" lon="3.06938">
        <ele>380.8</ele>
        <time>2022-07-12T16:45:25Z</time>
      </trkpt>
      <trkpt lat="44.0904" lon="3.06908">
        <ele>380.2</ele>
        <time>2022-07-12T16:45:29Z</time>
      </trkpt>
      <trkpt lat="44.09039" lon="3.06894">
        <ele>380.2</ele>
        <time>2022-07-12T16:45:31Z</time>
      </trkpt>
      <trkpt lat="44.09036" lon="3.06866">
        <ele>380.2</ele>
        <time>2022-07-12T16:45:35Z</time>
      </trkpt>
      <trkpt lat="44.09036" lon="3.06854">
        <ele>380.2</ele>
        <time>2022-07-12T16:45:37Z</time>
      </trkpt>
      <trkpt lat="44.09036" lon="3.06849">
        <ele>380.2</ele>
        <time>2022-07-12T16:45:38Z</time>
      </trkpt>
      <trkpt lat="44.09033" lon="3.06824">
        <ele>380.4</ele>
        <time>2022-07-12T16:45:41Z</time>
      </trkpt>
      <trkpt lat="44.09033" lon="3.06811">
        <ele>380.2</ele>
        <time>2022-07-12T16:45:43Z</time>
      </trkpt>
      <trkpt lat="44.09029" lon="3.0677">
        <ele>380</ele>
        <time>2022-07-12T16:45:48Z</time>
      </trkpt>
      <trkpt lat="44.09029" lon="3.06747">
        <ele>379.2</ele>
        <time>2022-07-12T16:45:51Z</time>
      </trkpt>
      <trkpt lat="44.09027" lon="3.06724">
        <ele>378.6</ele>
        <time>2022-07-12T16:45:54Z</time>
      </trkpt>
      <trkpt lat="44.09026" lon="3.06709">
        <ele>378.6</ele>
        <time>2022-07-12T16:45:56Z</time>
      </trkpt>
      <trkpt lat="44.09022" lon="3.06688">
        <ele>378.4</ele>
        <time>2022-07-12T16:45:59Z</time>
      </trkpt>
      <trkpt lat="44.09019" lon="3.0667">
        <ele>378.2</ele>
        <time>2022-07-12T16:46:02Z</time>
      </trkpt>
      <trkpt lat="44.09018" lon="3.06657">
        <ele>378.2</ele>
        <time>2022-07-12T16:46:04Z</time>
      </trkpt>
      <trkpt lat="44.09018" lon="3.06651">
        <ele>378.2</ele>
        <time>2022-07-12T16:46:05Z</time>
      </trkpt>
      <trkpt lat="44.09014" lon="3.06637">
        <ele>378.2</ele>
        <time>2022-07-12T16:46:08Z</time>
      </trkpt>
      <trkpt lat="44.09009" lon="3.06613">
        <ele>379</ele>
        <time>2022-07-12T16:46:14Z</time>
      </trkpt>
      <trkpt lat="44.09005" lon="3.06591">
        <ele>379.2</ele>
        <time>2022-07-12T16:46:18Z</time>
      </trkpt>
      <trkpt lat="44.08997" lon="3.06562">
        <ele>379.4</ele>
        <time>2022-07-12T16:46:24Z</time>
      </trkpt>
      <trkpt lat="44.08991" lon="3.06545">
        <ele>379.8</ele>
        <time>2022-07-12T16:46:28Z</time>
      </trkpt>
      <trkpt lat="44.08981" lon="3.06512">
        <ele>379.8</ele>
        <time>2022-07-12T16:46:33Z</time>
      </trkpt>
      <trkpt lat="44.08979" lon="3.06506">
        <ele>379.8</ele>
        <time>2022-07-12T16:46:34Z</time>
      </trkpt>
      <trkpt lat="44.08975" lon="3.06495">
        <ele>380</ele>
        <time>2022-07-12T16:46:36Z</time>
      </trkpt>
      <trkpt lat="44.08969" lon="3.06468">
        <ele>380</ele>
        <time>2022-07-12T16:46:40Z</time>
      </trkpt>
      <trkpt lat="44.08968" lon="3.06461">
        <ele>380.2</ele>
        <time>2022-07-12T16:46:41Z</time>
      </trkpt>
      <trkpt lat="44.08967" lon="3.06454">
        <ele>380.2</ele>
        <time>2022-07-12T16:46:42Z</time>
      </trkpt>
      <trkpt lat="44.0896" lon="3.06431">
        <ele>380</ele>
        <time>2022-07-12T16:46:46Z</time>
      </trkpt>
      <trkpt lat="44.08957" lon="3.06426">
        <ele>380</ele>
        <time>2022-07-12T16:46:47Z</time>
      </trkpt>
      <trkpt lat="44.08956" lon="3.06421">
        <ele>380</ele>
        <time>2022-07-12T16:46:48Z</time>
      </trkpt>
      <trkpt lat="44.08953" lon="3.06409">
        <ele>380</ele>
        <time>2022-07-12T16:46:51Z</time>
      </trkpt>
      <trkpt lat="44.08944" lon="3.06393">
        <ele>379.8</ele>
        <time>2022-07-12T16:46:56Z</time>
      </trkpt>
      <trkpt lat="44.08935" lon="3.06373">
        <ele>379.6</ele>
        <time>2022-07-12T16:47:01Z</time>
      </trkpt>
      <trkpt lat="44.0893" lon="3.06364">
        <ele>379.6</ele>
        <time>2022-07-12T16:47:03Z</time>
      </trkpt>
      <trkpt lat="44.08909" lon="3.0634">
        <ele>380</ele>
        <time>2022-07-12T16:47:11Z</time>
      </trkpt>
      <trkpt lat="44.08891" lon="3.06319">
        <ele>380.2</ele>
        <time>2022-07-12T16:47:18Z</time>
      </trkpt>
      <trkpt lat="44.08875" lon="3.06298">
        <ele>380.4</ele>
        <time>2022-07-12T16:47:24Z</time>
      </trkpt>
      <trkpt lat="44.08852" lon="3.06269">
        <ele>380.4</ele>
        <time>2022-07-12T16:47:32Z</time>
      </trkpt>
      <trkpt lat="44.08825" lon="3.06237">
        <ele>380.6</ele>
        <time>2022-07-12T16:47:41Z</time>
      </trkpt>
      <trkpt lat="44.08797" lon="3.06203">
        <ele>381</ele>
        <time>2022-07-12T16:47:51Z</time>
      </trkpt>
      <trkpt lat="44.08777" lon="3.06177">
        <ele>381.2</ele>
        <time>2022-07-12T16:47:58Z</time>
      </trkpt>
      <trkpt lat="44.08753" lon="3.06149">
        <ele>381.2</ele>
        <time>2022-07-12T16:48:06Z</time>
      </trkpt>
      <trkpt lat="44.08731" lon="3.06131">
        <ele>381.4</ele>
        <time>2022-07-12T16:48:13Z</time>
      </trkpt>
      <trkpt lat="44.08721" lon="3.06126">
        <ele>381.6</ele>
        <time>2022-07-12T16:48:17Z</time>
      </trkpt>
      <trkpt lat="44.08719" lon="3.06121">
        <ele>381.6</ele>
        <time>2022-07-12T16:48:19Z</time>
      </trkpt>
      <trkpt lat="44.08716" lon="3.06116">
        <ele>381.8</ele>
        <time>2022-07-12T16:48:21Z</time>
      </trkpt>
      <trkpt lat="44.08716" lon="3.06114">
        <ele>382</ele>
        <time>2022-07-12T16:48:22Z</time>
      </trkpt>
      <trkpt lat="44.08716" lon="3.06113">
        <ele>382.2</ele>
        <time>2022-07-12T16:48:23Z</time>
      </trkpt>
      <trkpt lat="44.08716" lon="3.06107">
        <ele>382.4</ele>
        <time>2022-07-12T16:48:25Z</time>
      </trkpt>
      <trkpt lat="44.08715" lon="3.061">
        <ele>382.6</ele>
        <time>2022-07-12T16:48:28Z</time>
      </trkpt>
      <trkpt lat="44.08715" lon="3.06096">
        <ele>382.8</ele>
        <time>2022-07-12T16:48:30Z</time>
      </trkpt>
      <trkpt lat="44.08712" lon="3.06087">
        <ele>383.8</ele>
        <time>2022-07-12T16:48:35Z</time>
      </trkpt>
      <trkpt lat="44.0871" lon="3.06084">
        <ele>384.2</ele>
        <time>2022-07-12T16:48:38Z</time>
      </trkpt>
      <trkpt lat="44.08708" lon="3.06081">
        <ele>384.8</ele>
        <time>2022-07-12T16:48:41Z</time>
      </trkpt>
      <trkpt lat="44.08705" lon="3.06076">
        <ele>385.6</ele>
        <time>2022-07-12T16:48:45Z</time>
      </trkpt>
      <trkpt lat="44.08704" lon="3.06074">
        <ele>385.8</ele>
        <time>2022-07-12T16:48:46Z</time>
      </trkpt>
      <trkpt lat="44.08702" lon="3.0607">
        <ele>386.2</ele>
        <time>2022-07-12T16:48:49Z</time>
      </trkpt>
      <trkpt lat="44.08702" lon="3.06066">
        <ele>386.8</ele>
        <time>2022-07-12T16:48:51Z</time>
      </trkpt>
      <trkpt lat="44.08702" lon="3.06066">
        <ele>386.8</ele>
        <time>2022-07-12T16:48:52Z</time>
      </trkpt>
      <trkpt lat="44.087" lon="3.06066">
        <ele>387</ele>
        <time>2022-07-12T16:48:53Z</time>
      </trkpt>
      <trkpt lat="44.08692" lon="3.06066">
        <ele>387.6</ele>
        <time>2022-07-12T16:48:57Z</time>
      </trkpt>
      <trkpt lat="44.0869" lon="3.06067">
        <ele>387.6</ele>
        <time>2022-07-12T16:48:58Z</time>
      </trkpt>
      <trkpt lat="44.08688" lon="3.06067">
        <ele>388</ele>
        <time>2022-07-12T16:49:00Z</time>
      </trkpt>
      <trkpt lat="44.08687" lon="3.06067">
        <ele>388.4</ele>
        <time>2022-07-12T16:49:03Z</time>
      </trkpt>
      <trkpt lat="44.08687" lon="3.06069">
        <ele>388.4</ele>
        <time>2022-07-12T16:49:05Z</time>
      </trkpt>
      <trkpt lat="44.08686" lon="3.06071">
        <ele>389.2</ele>
        <time>2022-07-12T16:49:09Z</time>
      </trkpt>
      <trkpt lat="44.08685" lon="3.06071">
        <ele>389.4</ele>
        <time>2022-07-12T16:49:10Z</time>
      </trkpt>
      <trkpt lat="44.0868" lon="3.0607">
        <ele>390.2</ele>
        <time>2022-07-12T16:49:15Z</time>
      </trkpt>
      <trkpt lat="44.08678" lon="3.06068">
        <ele>390.4</ele>
        <time>2022-07-12T16:49:16Z</time>
      </trkpt>
      <trkpt lat="44.08671" lon="3.06064">
        <ele>390.6</ele>
        <time>2022-07-12T16:49:19Z</time>
      </trkpt>
      <trkpt lat="44.08665" lon="3.0606">
        <ele>391</ele>
        <time>2022-07-12T16:49:22Z</time>
      </trkpt>
      <trkpt lat="44.08664" lon="3.06061">
        <ele>391</ele>
        <time>2022-07-12T16:49:23Z</time>
      </trkpt>
      <trkpt lat="44.08662" lon="3.06062">
        <ele>391.2</ele>
        <time>2022-07-12T16:49:26Z</time>
      </trkpt>
      <trkpt lat="44.08662" lon="3.06062">
        <ele>391.2</ele>
        <time>2022-07-12T16:49:27Z</time>
      </trkpt>
      <trkpt lat="44.08663" lon="3.06062">
        <ele>390.8</ele>
        <time>2022-07-12T16:49:45Z</time>
      </trkpt>
      <trkpt lat="44.08666" lon="3.06061">
        <ele>390.8</ele>
        <time>2022-07-12T16:49:47Z</time>
      </trkpt>
      <trkpt lat="44.08667" lon="3.06058">
        <ele>390.8</ele>
        <time>2022-07-12T16:49:49Z</time>
      </trkpt>
      <trkpt lat="44.08666" lon="3.06052">
        <ele>390.8</ele>
        <time>2022-07-12T16:49:51Z</time>
      </trkpt>
      <trkpt lat="44.08664" lon="3.06049">
        <ele>390.8</ele>
        <time>2022-07-12T16:49:52Z</time>
      </trkpt>
      <trkpt lat="44.08661" lon="3.06042">
        <ele>390.8</ele>
        <time>2022-07-12T16:49:54Z</time>
      </trkpt>
      <trkpt lat="44.08658" lon="3.06035">
        <ele>391</ele>
        <time>2022-07-12T16:49:56Z</time>
      </trkpt>
      <trkpt lat="44.08656" lon="3.06033">
        <ele>391</ele>
        <time>2022-07-12T16:49:57Z</time>
      </trkpt>
      <trkpt lat="44.08651" lon="3.06027">
        <ele>391.2</ele>
        <time>2022-07-12T16:49:59Z</time>
      </trkpt>
      <trkpt lat="44.08638" lon="3.06006">
        <ele>391</ele>
        <time>2022-07-12T16:50:04Z</time>
      </trkpt>
      <trkpt lat="44.08635" lon="3.06001">
        <ele>391.2</ele>
        <time>2022-07-12T16:50:06Z</time>
      </trkpt>
      <trkpt lat="44.08633" lon="3.05999">
        <ele>391</ele>
        <time>2022-07-12T16:50:08Z</time>
      </trkpt>
      <trkpt lat="44.08631" lon="3.06">
        <ele>391.2</ele>
        <time>2022-07-12T16:50:10Z</time>
      </trkpt>
      <trkpt lat="44.0863" lon="3.06001">
        <ele>391.4</ele>
        <time>2022-07-12T16:50:13Z</time>
      </trkpt>
      <trkpt lat="44.08628" lon="3.06001">
        <ele>391.6</ele>
        <time>2022-07-12T16:50:14Z</time>
      </trkpt>
      <trkpt lat="44.08628" lon="3.06">
        <ele>392</ele>
        <time>2022-07-12T16:50:16Z</time>
      </trkpt>
      <trkpt lat="44.08628" lon="3.06001">
        <ele>392</ele>
        <time>2022-07-12T16:50:18Z</time>
      </trkpt>
      <trkpt lat="44.08625" lon="3.06002">
        <ele>392.2</ele>
        <time>2022-07-12T16:50:20Z</time>
      </trkpt>
      <trkpt lat="44.0862" lon="3.06007">
        <ele>392.8</ele>
        <time>2022-07-12T16:50:23Z</time>
      </trkpt>
      <trkpt lat="44.08618" lon="3.06008">
        <ele>393.2</ele>
        <time>2022-07-12T16:50:26Z</time>
      </trkpt>
      <trkpt lat="44.08613" lon="3.0601">
        <ele>393.6</ele>
        <time>2022-07-12T16:50:28Z</time>
      </trkpt>
      <trkpt lat="44.08606" lon="3.06013">
        <ele>393.8</ele>
        <time>2022-07-12T16:50:30Z</time>
      </trkpt>
      <trkpt lat="44.08601" lon="3.06014">
        <ele>394</ele>
        <time>2022-07-12T16:50:31Z</time>
      </trkpt>
      <trkpt lat="44.08596" lon="3.06016">
        <ele>394.2</ele>
        <time>2022-07-12T16:50:33Z</time>
      </trkpt>
      <trkpt lat="44.08594" lon="3.06017">
        <ele>394.4</ele>
        <time>2022-07-12T16:50:36Z</time>
      </trkpt>
      <trkpt lat="44.08592" lon="3.06019">
        <ele>394.6</ele>
        <time>2022-07-12T16:50:38Z</time>
      </trkpt>
      <trkpt lat="44.0859" lon="3.0602">
        <ele>394.8</ele>
        <time>2022-07-12T16:50:41Z</time>
      </trkpt>
      <trkpt lat="44.08586" lon="3.06024">
        <ele>396</ele>
        <time>2022-07-12T16:50:47Z</time>
      </trkpt>
      <trkpt lat="44.08584" lon="3.06026">
        <ele>396.4</ele>
        <time>2022-07-12T16:50:48Z</time>
      </trkpt>
      <trkpt lat="44.08575" lon="3.06036">
        <ele>397</ele>
        <time>2022-07-12T16:50:53Z</time>
      </trkpt>
      <trkpt lat="44.08572" lon="3.06033">
        <ele>397.2</ele>
        <time>2022-07-12T16:50:56Z</time>
      </trkpt>
      <trkpt lat="44.08571" lon="3.06031">
        <ele>397.4</ele>
        <time>2022-07-12T16:50:57Z</time>
      </trkpt>
      <trkpt lat="44.08569" lon="3.0603">
        <ele>397.6</ele>
        <time>2022-07-12T16:50:58Z</time>
      </trkpt>
      <trkpt lat="44.08567" lon="3.06028">
        <ele>397.8</ele>
        <time>2022-07-12T16:51:00Z</time>
      </trkpt>
      <trkpt lat="44.08566" lon="3.06028">
        <ele>398</ele>
        <time>2022-07-12T16:51:01Z</time>
      </trkpt>
      <trkpt lat="44.08566" lon="3.06028">
        <ele>398.2</ele>
        <time>2022-07-12T16:51:03Z</time>
      </trkpt>
      <trkpt lat="44.08565" lon="3.0603">
        <ele>398.6</ele>
        <time>2022-07-12T16:51:04Z</time>
      </trkpt>
      <trkpt lat="44.08565" lon="3.06032">
        <ele>398.8</ele>
        <time>2022-07-12T16:51:05Z</time>
      </trkpt>
      <trkpt lat="44.08567" lon="3.06035">
        <ele>399</ele>
        <time>2022-07-12T16:51:07Z</time>
      </trkpt>
      <trkpt lat="44.08563" lon="3.06039">
        <ele>399.4</ele>
        <time>2022-07-12T16:51:10Z</time>
      </trkpt>
      <trkpt lat="44.08561" lon="3.0604">
        <ele>399.6</ele>
        <time>2022-07-12T16:51:11Z</time>
      </trkpt>
      <trkpt lat="44.08559" lon="3.0604">
        <ele>399.6</ele>
        <time>2022-07-12T16:51:12Z</time>
      </trkpt>
      <trkpt lat="44.08553" lon="3.0604">
        <ele>400.2</ele>
        <time>2022-07-12T16:51:15Z</time>
      </trkpt>
      <trkpt lat="44.08547" lon="3.06044">
        <ele>400.4</ele>
        <time>2022-07-12T16:51:18Z</time>
      </trkpt>
      <trkpt lat="44.08547" lon="3.06046">
        <ele>400.4</ele>
        <time>2022-07-12T16:51:20Z</time>
      </trkpt>
      <trkpt lat="44.08546" lon="3.06049">
        <ele>400.4</ele>
        <time>2022-07-12T16:51:22Z</time>
      </trkpt>
      <trkpt lat="44.08542" lon="3.06054">
        <ele>400.6</ele>
        <time>2022-07-12T16:51:24Z</time>
      </trkpt>
      <trkpt lat="44.0853" lon="3.0607">
        <ele>400.6</ele>
        <time>2022-07-12T16:51:29Z</time>
      </trkpt>
      <trkpt lat="44.08525" lon="3.06073">
        <ele>400.4</ele>
        <time>2022-07-12T16:51:31Z</time>
      </trkpt>
      <trkpt lat="44.0852" lon="3.06072">
        <ele>400.2</ele>
        <time>2022-07-12T16:51:33Z</time>
      </trkpt>
      <trkpt lat="44.08516" lon="3.0607">
        <ele>400.2</ele>
        <time>2022-07-12T16:51:35Z</time>
      </trkpt>
      <trkpt lat="44.08513" lon="3.06069">
        <ele>400.2</ele>
        <time>2022-07-12T16:51:37Z</time>
      </trkpt>
      <trkpt lat="44.08512" lon="3.06068">
        <ele>400.2</ele>
        <time>2022-07-12T16:51:38Z</time>
      </trkpt>
      <trkpt lat="44.08501" lon="3.06071">
        <ele>400.6</ele>
        <time>2022-07-12T16:51:43Z</time>
      </trkpt>
      <trkpt lat="44.08499" lon="3.0607">
        <ele>400.8</ele>
        <time>2022-07-12T16:51:44Z</time>
      </trkpt>
      <trkpt lat="44.08495" lon="3.06065">
        <ele>401.4</ele>
        <time>2022-07-12T16:51:48Z</time>
      </trkpt>
      <trkpt lat="44.08494" lon="3.06064">
        <ele>401.8</ele>
        <time>2022-07-12T16:51:51Z</time>
      </trkpt>
      <trkpt lat="44.08494" lon="3.06063">
        <ele>402</ele>
        <time>2022-07-12T16:51:53Z</time>
      </trkpt>
      <trkpt lat="44.08493" lon="3.06062">
        <ele>402.2</ele>
        <time>2022-07-12T16:51:55Z</time>
      </trkpt>
      <trkpt lat="44.08491" lon="3.06059">
        <ele>403</ele>
        <time>2022-07-12T16:51:59Z</time>
      </trkpt>
      <trkpt lat="44.08487" lon="3.0606">
        <ele>403.2</ele>
        <time>2022-07-12T16:52:02Z</time>
      </trkpt>
      <trkpt lat="44.08485" lon="3.06059">
        <ele>403.6</ele>
        <time>2022-07-12T16:52:04Z</time>
      </trkpt>
      <trkpt lat="44.08485" lon="3.06059">
        <ele>404.2</ele>
        <time>2022-07-12T16:52:06Z</time>
      </trkpt>
      <trkpt lat="44.0848" lon="3.06058">
        <ele>404.6</ele>
        <time>2022-07-12T16:52:10Z</time>
      </trkpt>
      <trkpt lat="44.08476" lon="3.06058">
        <ele>404.8</ele>
        <time>2022-07-12T16:52:12Z</time>
      </trkpt>
      <trkpt lat="44.08474" lon="3.06056">
        <ele>405.2</ele>
        <time>2022-07-12T16:52:14Z</time>
      </trkpt>
      <trkpt lat="44.08473" lon="3.06056">
        <ele>405.4</ele>
        <time>2022-07-12T16:52:15Z</time>
      </trkpt>
      <trkpt lat="44.0847" lon="3.06054">
        <ele>406.2</ele>
        <time>2022-07-12T16:52:18Z</time>
      </trkpt>
      <trkpt lat="44.08463" lon="3.0605">
        <ele>407.6</ele>
        <time>2022-07-12T16:52:23Z</time>
      </trkpt>
      <trkpt lat="44.08461" lon="3.06048">
        <ele>408</ele>
        <time>2022-07-12T16:52:25Z</time>
      </trkpt>
      <trkpt lat="44.0846" lon="3.06045">
        <ele>408.6</ele>
        <time>2022-07-12T16:52:27Z</time>
      </trkpt>
      <trkpt lat="44.08458" lon="3.06043">
        <ele>409</ele>
        <time>2022-07-12T16:52:29Z</time>
      </trkpt>
      <trkpt lat="44.08454" lon="3.0604">
        <ele>409.6</ele>
        <time>2022-07-12T16:52:33Z</time>
      </trkpt>
      <trkpt lat="44.08454" lon="3.0604">
        <ele>410</ele>
        <time>2022-07-12T16:52:35Z</time>
      </trkpt>
      <trkpt lat="44.08454" lon="3.0604">
        <ele>410</ele>
        <time>2022-07-12T16:52:36Z</time>
      </trkpt>
      <trkpt lat="44.08452" lon="3.06037">
        <ele>410.4</ele>
        <time>2022-07-12T16:52:39Z</time>
      </trkpt>
      <trkpt lat="44.0845" lon="3.06035">
        <ele>410.8</ele>
        <time>2022-07-12T16:52:43Z</time>
      </trkpt>
      <trkpt lat="44.08448" lon="3.06033">
        <ele>411</ele>
        <time>2022-07-12T16:52:46Z</time>
      </trkpt>
      <trkpt lat="44.08446" lon="3.06029">
        <ele>411.8</ele>
        <time>2022-07-12T16:52:53Z</time>
      </trkpt>
      <trkpt lat="44.08445" lon="3.06029">
        <ele>412</ele>
        <time>2022-07-12T16:52:54Z</time>
      </trkpt>
      <trkpt lat="44.0844" lon="3.06028">
        <ele>413</ele>
        <time>2022-07-12T16:53:02Z</time>
      </trkpt>
      <trkpt lat="44.08436" lon="3.06031">
        <ele>413.8</ele>
        <time>2022-07-12T16:53:09Z</time>
      </trkpt>
      <trkpt lat="44.08435" lon="3.06031">
        <ele>413.8</ele>
        <time>2022-07-12T16:53:10Z</time>
      </trkpt>
      <trkpt lat="44.08434" lon="3.06033">
        <ele>414</ele>
        <time>2022-07-12T16:53:12Z</time>
      </trkpt>
      <trkpt lat="44.08431" lon="3.06034">
        <ele>414.2</ele>
        <time>2022-07-12T16:53:14Z</time>
      </trkpt>
      <trkpt lat="44.08431" lon="3.06034">
        <ele>414.6</ele>
        <time>2022-07-12T16:53:16Z</time>
      </trkpt>
      <trkpt lat="44.08426" lon="3.06035">
        <ele>416.8</ele>
        <time>2022-07-12T16:53:34Z</time>
      </trkpt>
      <trkpt lat="44.08425" lon="3.06035">
        <ele>416.8</ele>
        <time>2022-07-12T16:53:35Z</time>
      </trkpt>
      <trkpt lat="44.08422" lon="3.06037">
        <ele>417.4</ele>
        <time>2022-07-12T16:53:38Z</time>
      </trkpt>
      <trkpt lat="44.08422" lon="3.06037">
        <ele>417.8</ele>
        <time>2022-07-12T16:53:40Z</time>
      </trkpt>
      <trkpt lat="44.08419" lon="3.06039">
        <ele>418.2</ele>
        <time>2022-07-12T16:53:43Z</time>
      </trkpt>
      <trkpt lat="44.08418" lon="3.06039">
        <ele>418.4</ele>
        <time>2022-07-12T16:53:45Z</time>
      </trkpt>
      <trkpt lat="44.08417" lon="3.06041">
        <ele>418.8</ele>
        <time>2022-07-12T16:53:49Z</time>
      </trkpt>
      <trkpt lat="44.08412" lon="3.06044">
        <ele>419.4</ele>
        <time>2022-07-12T16:53:53Z</time>
      </trkpt>
      <trkpt lat="44.08405" lon="3.0605">
        <ele>420</ele>
        <time>2022-07-12T16:53:59Z</time>
      </trkpt>
      <trkpt lat="44.08405" lon="3.06051">
        <ele>420.2</ele>
        <time>2022-07-12T16:54:00Z</time>
      </trkpt>
      <trkpt lat="44.08405" lon="3.06051">
        <ele>420.2</ele>
        <time>2022-07-12T16:54:01Z</time>
      </trkpt>
      <trkpt lat="44.08405" lon="3.06051">
        <ele>420.4</ele>
        <time>2022-07-12T16:54:03Z</time>
      </trkpt>
      <trkpt lat="44.08404" lon="3.06051">
        <ele>420.8</ele>
        <time>2022-07-12T16:54:06Z</time>
      </trkpt>
      <trkpt lat="44.08403" lon="3.06048">
        <ele>421</ele>
        <time>2022-07-12T16:54:08Z</time>
      </trkpt>
      <trkpt lat="44.08403" lon="3.06047">
        <ele>421.2</ele>
        <time>2022-07-12T16:54:09Z</time>
      </trkpt>
      <trkpt lat="44.08403" lon="3.06045">
        <ele>422</ele>
        <time>2022-07-12T16:54:14Z</time>
      </trkpt>
      <trkpt lat="44.08403" lon="3.06045">
        <ele>422.2</ele>
        <time>2022-07-12T16:54:15Z</time>
      </trkpt>
      <trkpt lat="44.08402" lon="3.06048">
        <ele>422.2</ele>
        <time>2022-07-12T16:54:23Z</time>
      </trkpt>
      <trkpt lat="44.08402" lon="3.06053">
        <ele>422</ele>
        <time>2022-07-12T16:54:26Z</time>
      </trkpt>
      <trkpt lat="44.08402" lon="3.06054">
        <ele>422</ele>
        <time>2022-07-12T16:54:27Z</time>
      </trkpt>
      <trkpt lat="44.08399" lon="3.06059">
        <ele>422</ele>
        <time>2022-07-12T16:54:32Z</time>
      </trkpt>
      <trkpt lat="44.08396" lon="3.06064">
        <ele>422</ele>
        <time>2022-07-12T16:54:37Z</time>
      </trkpt>
      <trkpt lat="44.08394" lon="3.06068">
        <ele>422.8</ele>
        <time>2022-07-12T16:54:43Z</time>
      </trkpt>
      <trkpt lat="44.08394" lon="3.06069">
        <ele>423.2</ele>
        <time>2022-07-12T16:54:46Z</time>
      </trkpt>
      <trkpt lat="44.08392" lon="3.0607">
        <ele>424.2</ele>
        <time>2022-07-12T16:54:51Z</time>
      </trkpt>
      <trkpt lat="44.08391" lon="3.0607">
        <ele>424.6</ele>
        <time>2022-07-12T16:54:53Z</time>
      </trkpt>
      <trkpt lat="44.08389" lon="3.06069">
        <ele>425.4</ele>
        <time>2022-07-12T16:55:00Z</time>
      </trkpt>
      <trkpt lat="44.08388" lon="3.06069">
        <ele>425.6</ele>
        <time>2022-07-12T16:55:01Z</time>
      </trkpt>
      <trkpt lat="44.08388" lon="3.06068">
        <ele>426</ele>
        <time>2022-07-12T16:55:05Z</time>
      </trkpt>
      <trkpt lat="44.08386" lon="3.06066">
        <ele>426.6</ele>
        <time>2022-07-12T16:55:10Z</time>
      </trkpt>
      <trkpt lat="44.08384" lon="3.06062">
        <ele>427.2</ele>
        <time>2022-07-12T16:55:15Z</time>
      </trkpt>
      <trkpt lat="44.08382" lon="3.0606">
        <ele>427.8</ele>
        <time>2022-07-12T16:55:18Z</time>
      </trkpt>
      <trkpt lat="44.0838" lon="3.06057">
        <ele>428.4</ele>
        <time>2022-07-12T16:55:23Z</time>
      </trkpt>
      <trkpt lat="44.08379" lon="3.06057">
        <ele>428.6</ele>
        <time>2022-07-12T16:55:25Z</time>
      </trkpt>
      <trkpt lat="44.08378" lon="3.06056">
        <ele>428.8</ele>
        <time>2022-07-12T16:55:27Z</time>
      </trkpt>
      <trkpt lat="44.08378" lon="3.06056">
        <ele>429</ele>
        <time>2022-07-12T16:55:28Z</time>
      </trkpt>
      <trkpt lat="44.08378" lon="3.06056">
        <ele>429.6</ele>
        <time>2022-07-12T16:55:32Z</time>
      </trkpt>
      <trkpt lat="44.08377" lon="3.06066">
        <ele>430.8</ele>
        <time>2022-07-12T16:55:47Z</time>
      </trkpt>
      <trkpt lat="44.08377" lon="3.06069">
        <ele>431</ele>
        <time>2022-07-12T16:55:49Z</time>
      </trkpt>
      <trkpt lat="44.08377" lon="3.06073">
        <ele>431.4</ele>
        <time>2022-07-12T16:55:52Z</time>
      </trkpt>
      <trkpt lat="44.08376" lon="3.06075">
        <ele>431.8</ele>
        <time>2022-07-12T16:55:57Z</time>
      </trkpt>
      <trkpt lat="44.08376" lon="3.06075">
        <ele>431.8</ele>
        <time>2022-07-12T16:55:58Z</time>
      </trkpt>
      <trkpt lat="44.08376" lon="3.06079">
        <ele>432.2</ele>
        <time>2022-07-12T16:56:03Z</time>
      </trkpt>
      <trkpt lat="44.08375" lon="3.0608">
        <ele>432.4</ele>
        <time>2022-07-12T16:56:04Z</time>
      </trkpt>
      <trkpt lat="44.08375" lon="3.06082">
        <ele>432.4</ele>
        <time>2022-07-12T16:56:08Z</time>
      </trkpt>
      <trkpt lat="44.08374" lon="3.06084">
        <ele>433.2</ele>
        <time>2022-07-12T16:56:24Z</time>
      </trkpt>
      <trkpt lat="44.08374" lon="3.06084">
        <ele>433.2</ele>
        <time>2022-07-12T16:56:25Z</time>
      </trkpt>
      <trkpt lat="44.08374" lon="3.06084">
        <ele>433.2</ele>
        <time>2022-07-12T16:56:26Z</time>
      </trkpt>
      <trkpt lat="44.08375" lon="3.06084">
        <ele>433</ele>
        <time>2022-07-12T16:56:32Z</time>
      </trkpt>
      <trkpt lat="44.08375" lon="3.06084">
        <ele>432.8</ele>
        <time>2022-07-12T16:56:35Z</time>
      </trkpt>
      <trkpt lat="44.08376" lon="3.0608">
        <ele>432</ele>
        <time>2022-07-12T16:56:42Z</time>
      </trkpt>
      <trkpt lat="44.08375" lon="3.0608">
        <ele>432</ele>
        <time>2022-07-12T16:56:43Z</time>
      </trkpt>
      <trkpt lat="44.08376" lon="3.06077">
        <ele>431.8</ele>
        <time>2022-07-12T16:56:45Z</time>
      </trkpt>
      <trkpt lat="44.08376" lon="3.0607">
        <ele>431.6</ele>
        <time>2022-07-12T16:56:50Z</time>
      </trkpt>
      <trkpt lat="44.08376" lon="3.06064">
        <ele>431.6</ele>
        <time>2022-07-12T16:56:54Z</time>
      </trkpt>
      <trkpt lat="44.08376" lon="3.0606">
        <ele>431.8</ele>
        <time>2022-07-12T16:56:57Z</time>
      </trkpt>
      <trkpt lat="44.08376" lon="3.06058">
        <ele>432.2</ele>
        <time>2022-07-12T16:57:01Z</time>
      </trkpt>
      <trkpt lat="44.08374" lon="3.06057">
        <ele>432.2</ele>
        <time>2022-07-12T16:57:03Z</time>
      </trkpt>
      <trkpt lat="44.08374" lon="3.06055">
        <ele>432.4</ele>
        <time>2022-07-12T16:57:04Z</time>
      </trkpt>
      <trkpt lat="44.08372" lon="3.0605">
        <ele>432.4</ele>
        <time>2022-07-12T16:57:07Z</time>
      </trkpt>
      <trkpt lat="44.08372" lon="3.0605">
        <ele>432.4</ele>
        <time>2022-07-12T16:57:08Z</time>
      </trkpt>
      <trkpt lat="44.08369" lon="3.06048">
        <ele>432.4</ele>
        <time>2022-07-12T16:57:10Z</time>
      </trkpt>
      <trkpt lat="44.08366" lon="3.06041">
        <ele>432.8</ele>
        <time>2022-07-12T16:57:14Z</time>
      </trkpt>
      <trkpt lat="44.08357" lon="3.06031">
        <ele>433.6</ele>
        <time>2022-07-12T16:57:23Z</time>
      </trkpt>
      <trkpt lat="44.08355" lon="3.06029">
        <ele>433.8</ele>
        <time>2022-07-12T16:57:25Z</time>
      </trkpt>
      <trkpt lat="44.08352" lon="3.06025">
        <ele>434.2</ele>
        <time>2022-07-12T16:57:29Z</time>
      </trkpt>
      <trkpt lat="44.08349" lon="3.06021">
        <ele>434.6</ele>
        <time>2022-07-12T16:57:32Z</time>
      </trkpt>
      <trkpt lat="44.08347" lon="3.06019">
        <ele>434.8</ele>
        <time>2022-07-12T16:57:34Z</time>
      </trkpt>
      <trkpt lat="44.08342" lon="3.06008">
        <ele>435.6</ele>
        <time>2022-07-12T16:57:41Z</time>
      </trkpt>
      <trkpt lat="44.08337" lon="3.05999">
        <ele>436.8</ele>
        <time>2022-07-12T16:57:47Z</time>
      </trkpt>
      <trkpt lat="44.08336" lon="3.05998">
        <ele>437</ele>
        <time>2022-07-12T16:57:48Z</time>
      </trkpt>
      <trkpt lat="44.08336" lon="3.05993">
        <ele>437.4</ele>
        <time>2022-07-12T16:57:51Z</time>
      </trkpt>
      <trkpt lat="44.08334" lon="3.0599">
        <ele>438</ele>
        <time>2022-07-12T16:57:53Z</time>
      </trkpt>
      <trkpt lat="44.08333" lon="3.05989">
        <ele>438.2</ele>
        <time>2022-07-12T16:57:54Z</time>
      </trkpt>
      <trkpt lat="44.08331" lon="3.05981">
        <ele>439</ele>
        <time>2022-07-12T16:58:00Z</time>
      </trkpt>
      <trkpt lat="44.0833" lon="3.05978">
        <ele>439.2</ele>
        <time>2022-07-12T16:58:02Z</time>
      </trkpt>
      <trkpt lat="44.08328" lon="3.05975">
        <ele>439.6</ele>
        <time>2022-07-12T16:58:05Z</time>
      </trkpt>
      <trkpt lat="44.08328" lon="3.05972">
        <ele>440</ele>
        <time>2022-07-12T16:58:08Z</time>
      </trkpt>
      <trkpt lat="44.08327" lon="3.0597">
        <ele>440.2</ele>
        <time>2022-07-12T16:58:09Z</time>
      </trkpt>
      <trkpt lat="44.08325" lon="3.05963">
        <ele>441</ele>
        <time>2022-07-12T16:58:14Z</time>
      </trkpt>
      <trkpt lat="44.08325" lon="3.05962">
        <ele>441.2</ele>
        <time>2022-07-12T16:58:15Z</time>
      </trkpt>
      <trkpt lat="44.08326" lon="3.05952">
        <ele>442</ele>
        <time>2022-07-12T16:58:22Z</time>
      </trkpt>
      <trkpt lat="44.08326" lon="3.0595">
        <ele>442.2</ele>
        <time>2022-07-12T16:58:23Z</time>
      </trkpt>
      <trkpt lat="44.08327" lon="3.05949">
        <ele>442.4</ele>
        <time>2022-07-12T16:58:24Z</time>
      </trkpt>
      <trkpt lat="44.08328" lon="3.05947">
        <ele>442.6</ele>
        <time>2022-07-12T16:58:25Z</time>
      </trkpt>
      <trkpt lat="44.0833" lon="3.05944">
        <ele>442.6</ele>
        <time>2022-07-12T16:58:27Z</time>
      </trkpt>
      <trkpt lat="44.08331" lon="3.05943">
        <ele>442.8</ele>
        <time>2022-07-12T16:58:28Z</time>
      </trkpt>
      <trkpt lat="44.08333" lon="3.05938">
        <ele>443.2</ele>
        <time>2022-07-12T16:58:31Z</time>
      </trkpt>
      <trkpt lat="44.08336" lon="3.05932">
        <ele>443.8</ele>
        <time>2022-07-12T16:58:35Z</time>
      </trkpt>
      <trkpt lat="44.08338" lon="3.05929">
        <ele>444.2</ele>
        <time>2022-07-12T16:58:37Z</time>
      </trkpt>
      <trkpt lat="44.0834" lon="3.05926">
        <ele>444.4</ele>
        <time>2022-07-12T16:58:39Z</time>
      </trkpt>
      <trkpt lat="44.08342" lon="3.05924">
        <ele>444.8</ele>
        <time>2022-07-12T16:58:41Z</time>
      </trkpt>
      <trkpt lat="44.08342" lon="3.05923">
        <ele>444.8</ele>
        <time>2022-07-12T16:58:42Z</time>
      </trkpt>
      <trkpt lat="44.08343" lon="3.05921">
        <ele>445</ele>
        <time>2022-07-12T16:58:43Z</time>
      </trkpt>
      <trkpt lat="44.08343" lon="3.05917">
        <ele>445.2</ele>
        <time>2022-07-12T16:58:46Z</time>
      </trkpt>
      <trkpt lat="44.08345" lon="3.05915">
        <ele>445.4</ele>
        <time>2022-07-12T16:58:47Z</time>
      </trkpt>
      <trkpt lat="44.08346" lon="3.05914">
        <ele>445.6</ele>
        <time>2022-07-12T16:58:48Z</time>
      </trkpt>
      <trkpt lat="44.08349" lon="3.05903">
        <ele>446.6</ele>
        <time>2022-07-12T16:58:55Z</time>
      </trkpt>
      <trkpt lat="44.08348" lon="3.05901">
        <ele>446.6</ele>
        <time>2022-07-12T16:58:56Z</time>
      </trkpt>
      <trkpt lat="44.08348" lon="3.05896">
        <ele>447.2</ele>
        <time>2022-07-12T16:58:59Z</time>
      </trkpt>
      <trkpt lat="44.08348" lon="3.05895">
        <ele>447.2</ele>
        <time>2022-07-12T16:59:00Z</time>
      </trkpt>
      <trkpt lat="44.08348" lon="3.05894">
        <ele>447.2</ele>
        <time>2022-07-12T16:59:01Z</time>
      </trkpt>
      <trkpt lat="44.08349" lon="3.05886">
        <ele>447.8</ele>
        <time>2022-07-12T16:59:06Z</time>
      </trkpt>
      <trkpt lat="44.08349" lon="3.05881">
        <ele>448.2</ele>
        <time>2022-07-12T16:59:09Z</time>
      </trkpt>
      <trkpt lat="44.08348" lon="3.05879">
        <ele>448.4</ele>
        <time>2022-07-12T16:59:11Z</time>
      </trkpt>
      <trkpt lat="44.08348" lon="3.05877">
        <ele>448.4</ele>
        <time>2022-07-12T16:59:12Z</time>
      </trkpt>
      <trkpt lat="44.08347" lon="3.05876">
        <ele>448.6</ele>
        <time>2022-07-12T16:59:13Z</time>
      </trkpt>
      <trkpt lat="44.08347" lon="3.05872">
        <ele>449</ele>
        <time>2022-07-12T16:59:15Z</time>
      </trkpt>
      <trkpt lat="44.08346" lon="3.05869">
        <ele>449</ele>
        <time>2022-07-12T16:59:17Z</time>
      </trkpt>
      <trkpt lat="44.08343" lon="3.05855">
        <ele>450</ele>
        <time>2022-07-12T16:59:25Z</time>
      </trkpt>
      <trkpt lat="44.08341" lon="3.05846">
        <ele>451</ele>
        <time>2022-07-12T16:59:32Z</time>
      </trkpt>
      <trkpt lat="44.0834" lon="3.05845">
        <ele>451</ele>
        <time>2022-07-12T16:59:33Z</time>
      </trkpt>
      <trkpt lat="44.0834" lon="3.05843">
        <ele>451.2</ele>
        <time>2022-07-12T16:59:34Z</time>
      </trkpt>
      <trkpt lat="44.08339" lon="3.05842">
        <ele>451.4</ele>
        <time>2022-07-12T16:59:35Z</time>
      </trkpt>
      <trkpt lat="44.08338" lon="3.05839">
        <ele>451.6</ele>
        <time>2022-07-12T16:59:37Z</time>
      </trkpt>
      <trkpt lat="44.08338" lon="3.05837">
        <ele>451.8</ele>
        <time>2022-07-12T16:59:39Z</time>
      </trkpt>
      <trkpt lat="44.08336" lon="3.05833">
        <ele>452.2</ele>
        <time>2022-07-12T16:59:42Z</time>
      </trkpt>
      <trkpt lat="44.08335" lon="3.05832">
        <ele>452.6</ele>
        <time>2022-07-12T16:59:43Z</time>
      </trkpt>
      <trkpt lat="44.08334" lon="3.05827">
        <ele>452.8</ele>
        <time>2022-07-12T16:59:46Z</time>
      </trkpt>
      <trkpt lat="44.08332" lon="3.0582">
        <ele>453.6</ele>
        <time>2022-07-12T16:59:51Z</time>
      </trkpt>
      <trkpt lat="44.08332" lon="3.05819">
        <ele>453.8</ele>
        <time>2022-07-12T16:59:52Z</time>
      </trkpt>
      <trkpt lat="44.08327" lon="3.0581">
        <ele>454.4</ele>
        <time>2022-07-12T16:59:59Z</time>
      </trkpt>
      <trkpt lat="44.08324" lon="3.05806">
        <ele>454.8</ele>
        <time>2022-07-12T17:00:02Z</time>
      </trkpt>
      <trkpt lat="44.08321" lon="3.05801">
        <ele>455.2</ele>
        <time>2022-07-12T17:00:06Z</time>
      </trkpt>
      <trkpt lat="44.08318" lon="3.05796">
        <ele>455.8</ele>
        <time>2022-07-12T17:00:10Z</time>
      </trkpt>
      <trkpt lat="44.08316" lon="3.05794">
        <ele>456</ele>
        <time>2022-07-12T17:00:12Z</time>
      </trkpt>
      <trkpt lat="44.08313" lon="3.0579">
        <ele>456.2</ele>
        <time>2022-07-12T17:00:15Z</time>
      </trkpt>
      <trkpt lat="44.08305" lon="3.05778">
        <ele>456.8</ele>
        <time>2022-07-12T17:00:23Z</time>
      </trkpt>
      <trkpt lat="44.08304" lon="3.05777">
        <ele>456.8</ele>
        <time>2022-07-12T17:00:24Z</time>
      </trkpt>
      <trkpt lat="44.08298" lon="3.05771">
        <ele>457.4</ele>
        <time>2022-07-12T17:00:30Z</time>
      </trkpt>
      <trkpt lat="44.08296" lon="3.05771">
        <ele>457.6</ele>
        <time>2022-07-12T17:00:32Z</time>
      </trkpt>
      <trkpt lat="44.08294" lon="3.05773">
        <ele>458</ele>
        <time>2022-07-12T17:00:34Z</time>
      </trkpt>
      <trkpt lat="44.08292" lon="3.05777">
        <ele>458.2</ele>
        <time>2022-07-12T17:00:38Z</time>
      </trkpt>
      <trkpt lat="44.08292" lon="3.05778">
        <ele>458.6</ele>
        <time>2022-07-12T17:00:39Z</time>
      </trkpt>
      <trkpt lat="44.08294" lon="3.05783">
        <ele>459.2</ele>
        <time>2022-07-12T17:00:42Z</time>
      </trkpt>
      <trkpt lat="44.08299" lon="3.0579">
        <ele>459.8</ele>
        <time>2022-07-12T17:00:47Z</time>
      </trkpt>
      <trkpt lat="44.08301" lon="3.05798">
        <ele>460.2</ele>
        <time>2022-07-12T17:00:52Z</time>
      </trkpt>
      <trkpt lat="44.08303" lon="3.05801">
        <ele>460.4</ele>
        <time>2022-07-12T17:00:54Z</time>
      </trkpt>
      <trkpt lat="44.08303" lon="3.0581">
        <ele>461.4</ele>
        <time>2022-07-12T17:01:00Z</time>
      </trkpt>
      <trkpt lat="44.08303" lon="3.0581">
        <ele>461.6</ele>
        <time>2022-07-12T17:01:01Z</time>
      </trkpt>
      <trkpt lat="44.08301" lon="3.05809">
        <ele>462.2</ele>
        <time>2022-07-12T17:01:08Z</time>
      </trkpt>
      <trkpt lat="44.083" lon="3.05809">
        <ele>462.6</ele>
        <time>2022-07-12T17:01:10Z</time>
      </trkpt>
      <trkpt lat="44.08297" lon="3.05807">
        <ele>462.8</ele>
        <time>2022-07-12T17:01:17Z</time>
      </trkpt>
      <trkpt lat="44.08293" lon="3.05805">
        <ele>463.8</ele>
        <time>2022-07-12T17:01:23Z</time>
      </trkpt>
      <trkpt lat="44.08292" lon="3.05804">
        <ele>464.2</ele>
        <time>2022-07-12T17:01:26Z</time>
      </trkpt>
      <trkpt lat="44.08289" lon="3.05803">
        <ele>464.8</ele>
        <time>2022-07-12T17:01:31Z</time>
      </trkpt>
      <trkpt lat="44.08285" lon="3.058">
        <ele>465.6</ele>
        <time>2022-07-12T17:01:39Z</time>
      </trkpt>
      <trkpt lat="44.08284" lon="3.058">
        <ele>465.8</ele>
        <time>2022-07-12T17:01:40Z</time>
      </trkpt>
      <trkpt lat="44.0828" lon="3.05798">
        <ele>466.6</ele>
        <time>2022-07-12T17:01:47Z</time>
      </trkpt>
      <trkpt lat="44.08277" lon="3.05798">
        <ele>467</ele>
        <time>2022-07-12T17:01:50Z</time>
      </trkpt>
      <trkpt lat="44.08275" lon="3.05798">
        <ele>467.8</ele>
        <time>2022-07-12T17:01:58Z</time>
      </trkpt>
      <trkpt lat="44.08274" lon="3.05797">
        <ele>468</ele>
        <time>2022-07-12T17:02:00Z</time>
      </trkpt>
      <trkpt lat="44.08272" lon="3.05796">
        <ele>468.4</ele>
        <time>2022-07-12T17:02:06Z</time>
      </trkpt>
      <trkpt lat="44.08269" lon="3.05795">
        <ele>469</ele>
        <time>2022-07-12T17:02:12Z</time>
      </trkpt>
      <trkpt lat="44.08266" lon="3.05793">
        <ele>469.6</ele>
        <time>2022-07-12T17:02:17Z</time>
      </trkpt>
      <trkpt lat="44.08266" lon="3.05792">
        <ele>470.4</ele>
        <time>2022-07-12T17:02:21Z</time>
      </trkpt>
      <trkpt lat="44.08264" lon="3.05793">
        <ele>471</ele>
        <time>2022-07-12T17:02:28Z</time>
      </trkpt>
      <trkpt lat="44.0826" lon="3.05792">
        <ele>471.2</ele>
        <time>2022-07-12T17:02:33Z</time>
      </trkpt>
      <trkpt lat="44.08255" lon="3.05792">
        <ele>472.2</ele>
        <time>2022-07-12T17:02:39Z</time>
      </trkpt>
      <trkpt lat="44.08253" lon="3.05793">
        <ele>472.4</ele>
        <time>2022-07-12T17:02:41Z</time>
      </trkpt>
      <trkpt lat="44.08248" lon="3.05792">
        <ele>473</ele>
        <time>2022-07-12T17:02:47Z</time>
      </trkpt>
      <trkpt lat="44.08245" lon="3.05792">
        <ele>473.2</ele>
        <time>2022-07-12T17:02:50Z</time>
      </trkpt>
      <trkpt lat="44.08239" lon="3.05791">
        <ele>474.6</ele>
        <time>2022-07-12T17:02:57Z</time>
      </trkpt>
      <trkpt lat="44.08234" lon="3.0579">
        <ele>475.4</ele>
        <time>2022-07-12T17:03:05Z</time>
      </trkpt>
      <trkpt lat="44.08233" lon="3.0579">
        <ele>475.6</ele>
        <time>2022-07-12T17:03:07Z</time>
      </trkpt>
      <trkpt lat="44.0823" lon="3.0579">
        <ele>476.6</ele>
        <time>2022-07-12T17:03:14Z</time>
      </trkpt>
      <trkpt lat="44.08228" lon="3.05789">
        <ele>477</ele>
        <time>2022-07-12T17:03:18Z</time>
      </trkpt>
      <trkpt lat="44.08227" lon="3.05789">
        <ele>477.2</ele>
        <time>2022-07-12T17:03:20Z</time>
      </trkpt>
      <trkpt lat="44.08226" lon="3.0579">
        <ele>477.6</ele>
        <time>2022-07-12T17:03:23Z</time>
      </trkpt>
      <trkpt lat="44.08225" lon="3.0579">
        <ele>478.2</ele>
        <time>2022-07-12T17:03:27Z</time>
      </trkpt>
      <trkpt lat="44.08222" lon="3.05791">
        <ele>478.6</ele>
        <time>2022-07-12T17:03:31Z</time>
      </trkpt>
      <trkpt lat="44.08219" lon="3.05791">
        <ele>479.4</ele>
        <time>2022-07-12T17:03:35Z</time>
      </trkpt>
      <trkpt lat="44.08216" lon="3.05792">
        <ele>479.8</ele>
        <time>2022-07-12T17:03:38Z</time>
      </trkpt>
      <trkpt lat="44.08211" lon="3.05794">
        <ele>480.4</ele>
        <time>2022-07-12T17:03:44Z</time>
      </trkpt>
      <trkpt lat="44.08207" lon="3.05794">
        <ele>480.8</ele>
        <time>2022-07-12T17:03:50Z</time>
      </trkpt>
      <trkpt lat="44.08205" lon="3.05795">
        <ele>481.2</ele>
        <time>2022-07-12T17:03:53Z</time>
      </trkpt>
      <trkpt lat="44.08199" lon="3.05793">
        <ele>481.8</ele>
        <time>2022-07-12T17:04:00Z</time>
      </trkpt>
      <trkpt lat="44.08198" lon="3.05794">
        <ele>482.2</ele>
        <time>2022-07-12T17:04:01Z</time>
      </trkpt>
      <trkpt lat="44.08194" lon="3.05794">
        <ele>482.8</ele>
        <time>2022-07-12T17:04:05Z</time>
      </trkpt>
      <trkpt lat="44.08186" lon="3.05795">
        <ele>483.6</ele>
        <time>2022-07-12T17:04:14Z</time>
      </trkpt>
      <trkpt lat="44.08182" lon="3.05794">
        <ele>484</ele>
        <time>2022-07-12T17:04:20Z</time>
      </trkpt>
      <trkpt lat="44.0818" lon="3.05795">
        <ele>484.4</ele>
        <time>2022-07-12T17:04:24Z</time>
      </trkpt>
      <trkpt lat="44.08176" lon="3.05794">
        <ele>485</ele>
        <time>2022-07-12T17:04:29Z</time>
      </trkpt>
      <trkpt lat="44.08174" lon="3.05794">
        <ele>485.4</ele>
        <time>2022-07-12T17:04:32Z</time>
      </trkpt>
      <trkpt lat="44.08169" lon="3.05793">
        <ele>486.2</ele>
        <time>2022-07-12T17:04:37Z</time>
      </trkpt>
      <trkpt lat="44.08166" lon="3.05792">
        <ele>486.4</ele>
        <time>2022-07-12T17:04:40Z</time>
      </trkpt>
      <trkpt lat="44.08162" lon="3.05791">
        <ele>487</ele>
        <time>2022-07-12T17:04:45Z</time>
      </trkpt>
      <trkpt lat="44.08159" lon="3.0579">
        <ele>487.4</ele>
        <time>2022-07-12T17:04:50Z</time>
      </trkpt>
      <trkpt lat="44.08157" lon="3.05791">
        <ele>487.6</ele>
        <time>2022-07-12T17:04:53Z</time>
      </trkpt>
      <trkpt lat="44.08156" lon="3.05791">
        <ele>487.8</ele>
        <time>2022-07-12T17:04:54Z</time>
      </trkpt>
      <trkpt lat="44.08146" lon="3.0579">
        <ele>488</ele>
        <time>2022-07-12T17:05:01Z</time>
      </trkpt>
      <trkpt lat="44.08136" lon="3.05789">
        <ele>488.6</ele>
        <time>2022-07-12T17:05:08Z</time>
      </trkpt>
      <trkpt lat="44.08135" lon="3.05789">
        <ele>488.6</ele>
        <time>2022-07-12T17:05:09Z</time>
      </trkpt>
      <trkpt lat="44.08122" lon="3.0579">
        <ele>489.6</ele>
        <time>2022-07-12T17:05:17Z</time>
      </trkpt>
      <trkpt lat="44.0812" lon="3.0579">
        <ele>489.8</ele>
        <time>2022-07-12T17:05:18Z</time>
      </trkpt>
      <trkpt lat="44.08102" lon="3.05788">
        <ele>490.4</ele>
        <time>2022-07-12T17:05:27Z</time>
      </trkpt>
      <trkpt lat="44.0809" lon="3.05782">
        <ele>490.8</ele>
        <time>2022-07-12T17:05:32Z</time>
      </trkpt>
      <trkpt lat="44.08083" lon="3.05778">
        <ele>491</ele>
        <time>2022-07-12T17:05:35Z</time>
      </trkpt>
      <trkpt lat="44.08062" lon="3.05768">
        <ele>491</ele>
        <time>2022-07-12T17:05:43Z</time>
      </trkpt>
      <trkpt lat="44.08059" lon="3.05766">
        <ele>490.8</ele>
        <time>2022-07-12T17:05:48Z</time>
      </trkpt>
      <trkpt lat="44.08057" lon="3.05766">
        <ele>490.4</ele>
        <time>2022-07-12T17:06:12Z</time>
      </trkpt>
      <trkpt lat="44.08051" lon="3.05765">
        <ele>490.4</ele>
        <time>2022-07-12T17:06:15Z</time>
      </trkpt>
      <trkpt lat="44.08035" lon="3.05759">
        <ele>490.4</ele>
        <time>2022-07-12T17:06:22Z</time>
      </trkpt>
      <trkpt lat="44.08017" lon="3.05758">
        <ele>490.2</ele>
        <time>2022-07-12T17:06:28Z</time>
      </trkpt>
      <trkpt lat="44.07995" lon="3.05771">
        <ele>490.2</ele>
        <time>2022-07-12T17:06:36Z</time>
      </trkpt>
      <trkpt lat="44.07969" lon="3.05781">
        <ele>490.6</ele>
        <time>2022-07-12T17:06:44Z</time>
      </trkpt>
      <trkpt lat="44.07941" lon="3.05792">
        <ele>491.2</ele>
        <time>2022-07-12T17:06:53Z</time>
      </trkpt>
      <trkpt lat="44.07913" lon="3.05801">
        <ele>491.4</ele>
        <time>2022-07-12T17:07:02Z</time>
      </trkpt>
      <trkpt lat="44.0791" lon="3.05802">
        <ele>491.6</ele>
        <time>2022-07-12T17:07:03Z</time>
      </trkpt>
      <trkpt lat="44.07894" lon="3.0581">
        <ele>492</ele>
        <time>2022-07-12T17:07:09Z</time>
      </trkpt>
      <trkpt lat="44.07879" lon="3.05818">
        <ele>492.6</ele>
        <time>2022-07-12T17:07:15Z</time>
      </trkpt>
      <trkpt lat="44.07873" lon="3.05821">
        <ele>492.8</ele>
        <time>2022-07-12T17:07:18Z</time>
      </trkpt>
      <trkpt lat="44.0786" lon="3.05826">
        <ele>493.6</ele>
        <time>2022-07-12T17:07:24Z</time>
      </trkpt>
      <trkpt lat="44.07858" lon="3.05826">
        <ele>493.6</ele>
        <time>2022-07-12T17:07:25Z</time>
      </trkpt>
      <trkpt lat="44.07839" lon="3.05829">
        <ele>494.6</ele>
        <time>2022-07-12T17:07:34Z</time>
      </trkpt>
      <trkpt lat="44.07829" lon="3.0583">
        <ele>495.6</ele>
        <time>2022-07-12T17:07:41Z</time>
      </trkpt>
      <trkpt lat="44.07818" lon="3.0583">
        <ele>496.8</ele>
        <time>2022-07-12T17:07:49Z</time>
      </trkpt>
      <trkpt lat="44.07807" lon="3.05829">
        <ele>497.6</ele>
        <time>2022-07-12T17:07:57Z</time>
      </trkpt>
      <trkpt lat="44.07806" lon="3.05829">
        <ele>497.8</ele>
        <time>2022-07-12T17:07:58Z</time>
      </trkpt>
      <trkpt lat="44.07796" lon="3.05829">
        <ele>498.8</ele>
        <time>2022-07-12T17:08:05Z</time>
      </trkpt>
      <trkpt lat="44.07796" lon="3.05829">
        <ele>498.8</ele>
        <time>2022-07-12T17:08:06Z</time>
      </trkpt>
      <trkpt lat="44.07795" lon="3.05829">
        <ele>499</ele>
        <time>2022-07-12T17:08:07Z</time>
      </trkpt>
      <trkpt lat="44.07793" lon="3.05831">
        <ele>499.2</ele>
        <time>2022-07-12T17:08:09Z</time>
      </trkpt>
      <trkpt lat="44.0779" lon="3.0583">
        <ele>499.6</ele>
        <time>2022-07-12T17:08:11Z</time>
      </trkpt>
      <trkpt lat="44.07789" lon="3.05829">
        <ele>499.6</ele>
        <time>2022-07-12T17:08:12Z</time>
      </trkpt>
      <trkpt lat="44.07788" lon="3.0583">
        <ele>499.8</ele>
        <time>2022-07-12T17:08:13Z</time>
      </trkpt>
      <trkpt lat="44.07781" lon="3.05829">
        <ele>500.2</ele>
        <time>2022-07-12T17:08:18Z</time>
      </trkpt>
      <trkpt lat="44.07779" lon="3.05829">
        <ele>500.6</ele>
        <time>2022-07-12T17:08:20Z</time>
      </trkpt>
      <trkpt lat="44.07776" lon="3.05831">
        <ele>501</ele>
        <time>2022-07-12T17:08:23Z</time>
      </trkpt>
      <trkpt lat="44.07772" lon="3.0583">
        <ele>501.2</ele>
        <time>2022-07-12T17:08:26Z</time>
      </trkpt>
      <trkpt lat="44.07769" lon="3.05831">
        <ele>501.4</ele>
        <time>2022-07-12T17:08:28Z</time>
      </trkpt>
      <trkpt lat="44.07765" lon="3.05831">
        <ele>502</ele>
        <time>2022-07-12T17:08:32Z</time>
      </trkpt>
      <trkpt lat="44.0776" lon="3.05833">
        <ele>502.6</ele>
        <time>2022-07-12T17:08:36Z</time>
      </trkpt>
      <trkpt lat="44.07758" lon="3.05833">
        <ele>502.8</ele>
        <time>2022-07-12T17:08:38Z</time>
      </trkpt>
      <trkpt lat="44.07755" lon="3.05835">
        <ele>503.2</ele>
        <time>2022-07-12T17:08:40Z</time>
      </trkpt>
      <trkpt lat="44.07754" lon="3.05835">
        <ele>503.4</ele>
        <time>2022-07-12T17:08:41Z</time>
      </trkpt>
      <trkpt lat="44.07753" lon="3.05836">
        <ele>503.4</ele>
        <time>2022-07-12T17:08:42Z</time>
      </trkpt>
      <trkpt lat="44.07745" lon="3.05841">
        <ele>504.2</ele>
        <time>2022-07-12T17:08:49Z</time>
      </trkpt>
      <trkpt lat="44.07744" lon="3.05842">
        <ele>504.4</ele>
        <time>2022-07-12T17:08:50Z</time>
      </trkpt>
      <trkpt lat="44.07738" lon="3.05847">
        <ele>505</ele>
        <time>2022-07-12T17:08:55Z</time>
      </trkpt>
      <trkpt lat="44.07736" lon="3.05849">
        <ele>505.2</ele>
        <time>2022-07-12T17:08:57Z</time>
      </trkpt>
      <trkpt lat="44.07735" lon="3.05854">
        <ele>506</ele>
        <time>2022-07-12T17:09:03Z</time>
      </trkpt>
      <trkpt lat="44.07734" lon="3.05854">
        <ele>506.2</ele>
        <time>2022-07-12T17:09:21Z</time>
      </trkpt>
      <trkpt lat="44.07732" lon="3.05854">
        <ele>506.2</ele>
        <time>2022-07-12T17:09:22Z</time>
      </trkpt>
      <trkpt lat="44.07728" lon="3.05859">
        <ele>506.2</ele>
        <time>2022-07-12T17:09:26Z</time>
      </trkpt>
      <trkpt lat="44.07725" lon="3.05868">
        <ele>507</ele>
        <time>2022-07-12T17:09:31Z</time>
      </trkpt>
      <trkpt lat="44.07723" lon="3.0587">
        <ele>507.4</ele>
        <time>2022-07-12T17:09:33Z</time>
      </trkpt>
      <trkpt lat="44.07715" lon="3.05879">
        <ele>508.2</ele>
        <time>2022-07-12T17:09:40Z</time>
      </trkpt>
      <trkpt lat="44.07713" lon="3.05882">
        <ele>508.4</ele>
        <time>2022-07-12T17:09:42Z</time>
      </trkpt>
      <trkpt lat="44.07709" lon="3.05891">
        <ele>509.2</ele>
        <time>2022-07-12T17:09:48Z</time>
      </trkpt>
      <trkpt lat="44.07707" lon="3.05895">
        <ele>509.4</ele>
        <time>2022-07-12T17:09:51Z</time>
      </trkpt>
      <trkpt lat="44.07701" lon="3.05909">
        <ele>510.6</ele>
        <time>2022-07-12T17:10:00Z</time>
      </trkpt>
      <trkpt lat="44.077" lon="3.05913">
        <ele>510.8</ele>
        <time>2022-07-12T17:10:02Z</time>
      </trkpt>
      <trkpt lat="44.07699" lon="3.0592">
        <ele>511.2</ele>
        <time>2022-07-12T17:10:06Z</time>
      </trkpt>
      <trkpt lat="44.07695" lon="3.05931">
        <ele>511.6</ele>
        <time>2022-07-12T17:10:13Z</time>
      </trkpt>
      <trkpt lat="44.07692" lon="3.05941">
        <ele>512.6</ele>
        <time>2022-07-12T17:10:19Z</time>
      </trkpt>
      <trkpt lat="44.07691" lon="3.05943">
        <ele>512.8</ele>
        <time>2022-07-12T17:10:20Z</time>
      </trkpt>
      <trkpt lat="44.07688" lon="3.05954">
        <ele>513.6</ele>
        <time>2022-07-12T17:10:26Z</time>
      </trkpt>
      <trkpt lat="44.07688" lon="3.05956">
        <ele>513.8</ele>
        <time>2022-07-12T17:10:27Z</time>
      </trkpt>
      <trkpt lat="44.07685" lon="3.05965">
        <ele>514.4</ele>
        <time>2022-07-12T17:10:33Z</time>
      </trkpt>
      <trkpt lat="44.07684" lon="3.05967">
        <ele>514.6</ele>
        <time>2022-07-12T17:10:35Z</time>
      </trkpt>
      <trkpt lat="44.07683" lon="3.0597">
        <ele>515</ele>
        <time>2022-07-12T17:10:37Z</time>
      </trkpt>
      <trkpt lat="44.07682" lon="3.05978">
        <ele>515.6</ele>
        <time>2022-07-12T17:10:42Z</time>
      </trkpt>
      <trkpt lat="44.07682" lon="3.05979">
        <ele>515.8</ele>
        <time>2022-07-12T17:10:43Z</time>
      </trkpt>
      <trkpt lat="44.07681" lon="3.05982">
        <ele>516.2</ele>
        <time>2022-07-12T17:10:45Z</time>
      </trkpt>
      <trkpt lat="44.07682" lon="3.05986">
        <ele>516.4</ele>
        <time>2022-07-12T17:10:48Z</time>
      </trkpt>
      <trkpt lat="44.07681" lon="3.0599">
        <ele>516.8</ele>
        <time>2022-07-12T17:10:51Z</time>
      </trkpt>
      <trkpt lat="44.0768" lon="3.05995">
        <ele>517.2</ele>
        <time>2022-07-12T17:10:53Z</time>
      </trkpt>
      <trkpt lat="44.0768" lon="3.05998">
        <ele>517.4</ele>
        <time>2022-07-12T17:10:55Z</time>
      </trkpt>
      <trkpt lat="44.07679" lon="3.06001">
        <ele>517.4</ele>
        <time>2022-07-12T17:10:57Z</time>
      </trkpt>
      <trkpt lat="44.07678" lon="3.06005">
        <ele>518</ele>
        <time>2022-07-12T17:11:00Z</time>
      </trkpt>
      <trkpt lat="44.07676" lon="3.06009">
        <ele>518.4</ele>
        <time>2022-07-12T17:11:03Z</time>
      </trkpt>
      <trkpt lat="44.07676" lon="3.06011">
        <ele>518.4</ele>
        <time>2022-07-12T17:11:04Z</time>
      </trkpt>
      <trkpt lat="44.07675" lon="3.06013">
        <ele>518.6</ele>
        <time>2022-07-12T17:11:05Z</time>
      </trkpt>
      <trkpt lat="44.07674" lon="3.06018">
        <ele>519</ele>
        <time>2022-07-12T17:11:08Z</time>
      </trkpt>
      <trkpt lat="44.07674" lon="3.06021">
        <ele>519.2</ele>
        <time>2022-07-12T17:11:09Z</time>
      </trkpt>
      <trkpt lat="44.07674" lon="3.06023">
        <ele>519.4</ele>
        <time>2022-07-12T17:11:10Z</time>
      </trkpt>
      <trkpt lat="44.07674" lon="3.06036">
        <ele>520.2</ele>
        <time>2022-07-12T17:11:16Z</time>
      </trkpt>
      <trkpt lat="44.07673" lon="3.06038">
        <ele>520.2</ele>
        <time>2022-07-12T17:11:17Z</time>
      </trkpt>
      <trkpt lat="44.07674" lon="3.06059">
        <ele>521</ele>
        <time>2022-07-12T17:11:26Z</time>
      </trkpt>
      <trkpt lat="44.07674" lon="3.06065">
        <ele>521.2</ele>
        <time>2022-07-12T17:11:28Z</time>
      </trkpt>
      <trkpt lat="44.07676" lon="3.06076">
        <ele>521.6</ele>
        <time>2022-07-12T17:11:32Z</time>
      </trkpt>
      <trkpt lat="44.07675" lon="3.06087">
        <ele>522</ele>
        <time>2022-07-12T17:11:37Z</time>
      </trkpt>
      <trkpt lat="44.07676" lon="3.0609">
        <ele>522.4</ele>
        <time>2022-07-12T17:11:39Z</time>
      </trkpt>
      <trkpt lat="44.07677" lon="3.06097">
        <ele>523</ele>
        <time>2022-07-12T17:11:43Z</time>
      </trkpt>
      <trkpt lat="44.07679" lon="3.06101">
        <ele>523.4</ele>
        <time>2022-07-12T17:11:45Z</time>
      </trkpt>
      <trkpt lat="44.07682" lon="3.06115">
        <ele>524</ele>
        <time>2022-07-12T17:11:52Z</time>
      </trkpt>
      <trkpt lat="44.07682" lon="3.06117">
        <ele>524.4</ele>
        <time>2022-07-12T17:11:53Z</time>
      </trkpt>
      <trkpt lat="44.07685" lon="3.06129">
        <ele>525</ele>
        <time>2022-07-12T17:11:59Z</time>
      </trkpt>
      <trkpt lat="44.07687" lon="3.06135">
        <ele>525.4</ele>
        <time>2022-07-12T17:12:02Z</time>
      </trkpt>
      <trkpt lat="44.07688" lon="3.06142">
        <ele>526</ele>
        <time>2022-07-12T17:12:06Z</time>
      </trkpt>
      <trkpt lat="44.07691" lon="3.06155">
        <ele>526.6</ele>
        <time>2022-07-12T17:12:12Z</time>
      </trkpt>
      <trkpt lat="44.07691" lon="3.06157">
        <ele>526.8</ele>
        <time>2022-07-12T17:12:13Z</time>
      </trkpt>
      <trkpt lat="44.07697" lon="3.0617">
        <ele>527.8</ele>
        <time>2022-07-12T17:12:20Z</time>
      </trkpt>
      <trkpt lat="44.07701" lon="3.06183">
        <ele>528.4</ele>
        <time>2022-07-12T17:12:26Z</time>
      </trkpt>
      <trkpt lat="44.07701" lon="3.06185">
        <ele>528.6</ele>
        <time>2022-07-12T17:12:27Z</time>
      </trkpt>
      <trkpt lat="44.07698" lon="3.06187">
        <ele>528.8</ele>
        <time>2022-07-12T17:12:29Z</time>
      </trkpt>
      <trkpt lat="44.07696" lon="3.06187">
        <ele>529</ele>
        <time>2022-07-12T17:12:30Z</time>
      </trkpt>
      <trkpt lat="44.07688" lon="3.0618">
        <ele>529.8</ele>
        <time>2022-07-12T17:12:36Z</time>
      </trkpt>
      <trkpt lat="44.07687" lon="3.06178">
        <ele>529.8</ele>
        <time>2022-07-12T17:12:37Z</time>
      </trkpt>
      <trkpt lat="44.0768" lon="3.06163">
        <ele>530.8</ele>
        <time>2022-07-12T17:12:45Z</time>
      </trkpt>
      <trkpt lat="44.07673" lon="3.0615">
        <ele>531.6</ele>
        <time>2022-07-12T17:12:52Z</time>
      </trkpt>
      <trkpt lat="44.07672" lon="3.06147">
        <ele>532</ele>
        <time>2022-07-12T17:12:54Z</time>
      </trkpt>
      <trkpt lat="44.07668" lon="3.06137">
        <ele>532.6</ele>
        <time>2022-07-12T17:12:59Z</time>
      </trkpt>
      <trkpt lat="44.07667" lon="3.06133">
        <ele>533</ele>
        <time>2022-07-12T17:13:01Z</time>
      </trkpt>
      <trkpt lat="44.07665" lon="3.0613">
        <ele>533.4</ele>
        <time>2022-07-12T17:13:03Z</time>
      </trkpt>
      <trkpt lat="44.07664" lon="3.06126">
        <ele>533.6</ele>
        <time>2022-07-12T17:13:05Z</time>
      </trkpt>
      <trkpt lat="44.07664" lon="3.06125">
        <ele>533.6</ele>
        <time>2022-07-12T17:13:06Z</time>
      </trkpt>
      <trkpt lat="44.07663" lon="3.06121">
        <ele>534</ele>
        <time>2022-07-12T17:13:10Z</time>
      </trkpt>
      <trkpt lat="44.07661" lon="3.06119">
        <ele>534.4</ele>
        <time>2022-07-12T17:13:35Z</time>
      </trkpt>
      <trkpt lat="44.07661" lon="3.06119">
        <ele>534.4</ele>
        <time>2022-07-12T17:13:36Z</time>
      </trkpt>
      <trkpt lat="44.07659" lon="3.06116">
        <ele>534.4</ele>
        <time>2022-07-12T17:13:38Z</time>
      </trkpt>
      <trkpt lat="44.07658" lon="3.06113">
        <ele>534.4</ele>
        <time>2022-07-12T17:13:40Z</time>
      </trkpt>
      <trkpt lat="44.07657" lon="3.0611">
        <ele>534.6</ele>
        <time>2022-07-12T17:13:42Z</time>
      </trkpt>
      <trkpt lat="44.07653" lon="3.06103">
        <ele>534.8</ele>
        <time>2022-07-12T17:13:46Z</time>
      </trkpt>
      <trkpt lat="44.07651" lon="3.06099">
        <ele>535</ele>
        <time>2022-07-12T17:13:48Z</time>
      </trkpt>
      <trkpt lat="44.07645" lon="3.06088">
        <ele>536.2</ele>
        <time>2022-07-12T17:13:55Z</time>
      </trkpt>
      <trkpt lat="44.07639" lon="3.06075">
        <ele>537.2</ele>
        <time>2022-07-12T17:14:02Z</time>
      </trkpt>
      <trkpt lat="44.07636" lon="3.06063">
        <ele>538.2</ele>
        <time>2022-07-12T17:14:08Z</time>
      </trkpt>
      <trkpt lat="44.07636" lon="3.06062">
        <ele>538.2</ele>
        <time>2022-07-12T17:14:09Z</time>
      </trkpt>
      <trkpt lat="44.07632" lon="3.06053">
        <ele>539</ele>
        <time>2022-07-12T17:14:14Z</time>
      </trkpt>
      <trkpt lat="44.07632" lon="3.06051">
        <ele>539.2</ele>
        <time>2022-07-12T17:14:15Z</time>
      </trkpt>
      <trkpt lat="44.07631" lon="3.0605">
        <ele>539.2</ele>
        <time>2022-07-12T17:14:16Z</time>
      </trkpt>
      <trkpt lat="44.07629" lon="3.06038">
        <ele>540</ele>
        <time>2022-07-12T17:14:23Z</time>
      </trkpt>
      <trkpt lat="44.07629" lon="3.06036">
        <ele>540.2</ele>
        <time>2022-07-12T17:14:24Z</time>
      </trkpt>
      <trkpt lat="44.07628" lon="3.06034">
        <ele>540.4</ele>
        <time>2022-07-12T17:14:25Z</time>
      </trkpt>
      <trkpt lat="44.07625" lon="3.06027">
        <ele>540.8</ele>
        <time>2022-07-12T17:14:30Z</time>
      </trkpt>
      <trkpt lat="44.07624" lon="3.06022">
        <ele>541.4</ele>
        <time>2022-07-12T17:14:33Z</time>
      </trkpt>
      <trkpt lat="44.07622" lon="3.06016">
        <ele>541.8</ele>
        <time>2022-07-12T17:14:37Z</time>
      </trkpt>
      <trkpt lat="44.07619" lon="3.06008">
        <ele>542.4</ele>
        <time>2022-07-12T17:14:42Z</time>
      </trkpt>
      <trkpt lat="44.07614" lon="3.05999">
        <ele>543.4</ele>
        <time>2022-07-12T17:14:49Z</time>
      </trkpt>
      <trkpt lat="44.07614" lon="3.05997">
        <ele>543.4</ele>
        <time>2022-07-12T17:14:50Z</time>
      </trkpt>
      <trkpt lat="44.07608" lon="3.05989">
        <ele>544</ele>
        <time>2022-07-12T17:14:56Z</time>
      </trkpt>
      <trkpt lat="44.07606" lon="3.05984">
        <ele>544.6</ele>
        <time>2022-07-12T17:14:59Z</time>
      </trkpt>
      <trkpt lat="44.076" lon="3.05978">
        <ele>545.4</ele>
        <time>2022-07-12T17:15:04Z</time>
      </trkpt>
      <trkpt lat="44.07599" lon="3.05977">
        <ele>545.6</ele>
        <time>2022-07-12T17:15:05Z</time>
      </trkpt>
      <trkpt lat="44.07591" lon="3.05969">
        <ele>546.2</ele>
        <time>2022-07-12T17:15:12Z</time>
      </trkpt>
      <trkpt lat="44.07586" lon="3.05967">
        <ele>546.6</ele>
        <time>2022-07-12T17:15:15Z</time>
      </trkpt>
      <trkpt lat="44.07579" lon="3.05962">
        <ele>547.2</ele>
        <time>2022-07-12T17:15:21Z</time>
      </trkpt>
      <trkpt lat="44.07578" lon="3.05961">
        <ele>547.4</ele>
        <time>2022-07-12T17:15:22Z</time>
      </trkpt>
      <trkpt lat="44.07578" lon="3.05958">
        <ele>547.6</ele>
        <time>2022-07-12T17:15:24Z</time>
      </trkpt>
      <trkpt lat="44.07577" lon="3.05956">
        <ele>547.6</ele>
        <time>2022-07-12T17:15:25Z</time>
      </trkpt>
      <trkpt lat="44.07575" lon="3.05955">
        <ele>547.8</ele>
        <time>2022-07-12T17:15:26Z</time>
      </trkpt>
      <trkpt lat="44.07571" lon="3.05953">
        <ele>548.2</ele>
        <time>2022-07-12T17:15:29Z</time>
      </trkpt>
      <trkpt lat="44.0757" lon="3.05952">
        <ele>548.4</ele>
        <time>2022-07-12T17:15:30Z</time>
      </trkpt>
      <trkpt lat="44.07568" lon="3.05949">
        <ele>548.6</ele>
        <time>2022-07-12T17:15:32Z</time>
      </trkpt>
      <trkpt lat="44.0756" lon="3.05948">
        <ele>549.4</ele>
        <time>2022-07-12T17:15:37Z</time>
      </trkpt>
      <trkpt lat="44.07559" lon="3.05947">
        <ele>549.4</ele>
        <time>2022-07-12T17:15:38Z</time>
      </trkpt>
      <trkpt lat="44.07556" lon="3.05946">
        <ele>549.8</ele>
        <time>2022-07-12T17:15:40Z</time>
      </trkpt>
      <trkpt lat="44.07551" lon="3.05943">
        <ele>550.2</ele>
        <time>2022-07-12T17:15:43Z</time>
      </trkpt>
      <trkpt lat="44.07546" lon="3.05943">
        <ele>550.8</ele>
        <time>2022-07-12T17:15:46Z</time>
      </trkpt>
      <trkpt lat="44.07543" lon="3.05942">
        <ele>551.2</ele>
        <time>2022-07-12T17:15:49Z</time>
      </trkpt>
      <trkpt lat="44.07534" lon="3.05939">
        <ele>551.8</ele>
        <time>2022-07-12T17:15:55Z</time>
      </trkpt>
      <trkpt lat="44.0753" lon="3.05938">
        <ele>552.2</ele>
        <time>2022-07-12T17:15:58Z</time>
      </trkpt>
      <trkpt lat="44.07524" lon="3.05937">
        <ele>553</ele>
        <time>2022-07-12T17:16:02Z</time>
      </trkpt>
      <trkpt lat="44.07519" lon="3.05938">
        <ele>553.8</ele>
        <time>2022-07-12T17:16:06Z</time>
      </trkpt>
      <trkpt lat="44.07517" lon="3.05938">
        <ele>554</ele>
        <time>2022-07-12T17:16:07Z</time>
      </trkpt>
      <trkpt lat="44.07509" lon="3.05939">
        <ele>554.8</ele>
        <time>2022-07-12T17:16:14Z</time>
      </trkpt>
      <trkpt lat="44.07507" lon="3.0594">
        <ele>555.2</ele>
        <time>2022-07-12T17:16:16Z</time>
      </trkpt>
      <trkpt lat="44.07498" lon="3.05941">
        <ele>556.4</ele>
        <time>2022-07-12T17:16:22Z</time>
      </trkpt>
      <trkpt lat="44.07497" lon="3.05942">
        <ele>556.2</ele>
        <time>2022-07-12T17:16:23Z</time>
      </trkpt>
      <trkpt lat="44.07488" lon="3.05944">
        <ele>557.2</ele>
        <time>2022-07-12T17:16:29Z</time>
      </trkpt>
      <trkpt lat="44.07487" lon="3.05945">
        <ele>557.4</ele>
        <time>2022-07-12T17:16:30Z</time>
      </trkpt>
      <trkpt lat="44.07486" lon="3.05945">
        <ele>557.4</ele>
        <time>2022-07-12T17:16:31Z</time>
      </trkpt>
      <trkpt lat="44.07483" lon="3.05946">
        <ele>557.8</ele>
        <time>2022-07-12T17:16:33Z</time>
      </trkpt>
      <trkpt lat="44.07481" lon="3.05946">
        <ele>558</ele>
        <time>2022-07-12T17:16:35Z</time>
      </trkpt>
      <trkpt lat="44.07477" lon="3.05947">
        <ele>558.4</ele>
        <time>2022-07-12T17:16:38Z</time>
      </trkpt>
      <trkpt lat="44.07471" lon="3.05946">
        <ele>559</ele>
        <time>2022-07-12T17:16:42Z</time>
      </trkpt>
      <trkpt lat="44.07468" lon="3.05943">
        <ele>559.6</ele>
        <time>2022-07-12T17:16:45Z</time>
      </trkpt>
      <trkpt lat="44.0746" lon="3.05936">
        <ele>560.6</ele>
        <time>2022-07-12T17:16:51Z</time>
      </trkpt>
      <trkpt lat="44.07459" lon="3.05934">
        <ele>560.8</ele>
        <time>2022-07-12T17:16:52Z</time>
      </trkpt>
      <trkpt lat="44.07455" lon="3.0592">
        <ele>561.6</ele>
        <time>2022-07-12T17:16:59Z</time>
      </trkpt>
      <trkpt lat="44.07455" lon="3.05917">
        <ele>561.6</ele>
        <time>2022-07-12T17:17:01Z</time>
      </trkpt>
      <trkpt lat="44.07456" lon="3.05907">
        <ele>562.6</ele>
        <time>2022-07-12T17:17:06Z</time>
      </trkpt>
      <trkpt lat="44.07457" lon="3.05903">
        <ele>562.8</ele>
        <time>2022-07-12T17:17:08Z</time>
      </trkpt>
      <trkpt lat="44.07459" lon="3.05892">
        <ele>563.4</ele>
        <time>2022-07-12T17:17:13Z</time>
      </trkpt>
      <trkpt lat="44.07459" lon="3.0589">
        <ele>563.6</ele>
        <time>2022-07-12T17:17:14Z</time>
      </trkpt>
      <trkpt lat="44.07461" lon="3.05883">
        <ele>564</ele>
        <time>2022-07-12T17:17:17Z</time>
      </trkpt>
      <trkpt lat="44.07465" lon="3.05877">
        <ele>564.6</ele>
        <time>2022-07-12T17:17:20Z</time>
      </trkpt>
      <trkpt lat="44.07468" lon="3.05871">
        <ele>565</ele>
        <time>2022-07-12T17:17:23Z</time>
      </trkpt>
      <trkpt lat="44.07471" lon="3.05866">
        <ele>565.8</ele>
        <time>2022-07-12T17:17:26Z</time>
      </trkpt>
      <trkpt lat="44.07474" lon="3.05862">
        <ele>566</ele>
        <time>2022-07-12T17:17:28Z</time>
      </trkpt>
      <trkpt lat="44.07477" lon="3.05858">
        <ele>566.4</ele>
        <time>2022-07-12T17:17:31Z</time>
      </trkpt>
      <trkpt lat="44.07482" lon="3.05852">
        <ele>567</ele>
        <time>2022-07-12T17:17:35Z</time>
      </trkpt>
      <trkpt lat="44.07486" lon="3.05846">
        <ele>567.4</ele>
        <time>2022-07-12T17:17:39Z</time>
      </trkpt>
      <trkpt lat="44.07486" lon="3.05844">
        <ele>567.6</ele>
        <time>2022-07-12T17:17:40Z</time>
      </trkpt>
      <trkpt lat="44.0749" lon="3.0584">
        <ele>568.2</ele>
        <time>2022-07-12T17:17:44Z</time>
      </trkpt>
      <trkpt lat="44.07495" lon="3.05834">
        <ele>568.6</ele>
        <time>2022-07-12T17:17:48Z</time>
      </trkpt>
      <trkpt lat="44.07498" lon="3.05831">
        <ele>569</ele>
        <time>2022-07-12T17:17:51Z</time>
      </trkpt>
      <trkpt lat="44.07499" lon="3.0583">
        <ele>569.2</ele>
        <time>2022-07-12T17:17:52Z</time>
      </trkpt>
      <trkpt lat="44.07499" lon="3.05828">
        <ele>569.4</ele>
        <time>2022-07-12T17:17:53Z</time>
      </trkpt>
      <trkpt lat="44.075" lon="3.05826">
        <ele>569.4</ele>
        <time>2022-07-12T17:17:54Z</time>
      </trkpt>
      <trkpt lat="44.07506" lon="3.05814">
        <ele>570.4</ele>
        <time>2022-07-12T17:18:01Z</time>
      </trkpt>
      <trkpt lat="44.07507" lon="3.05814">
        <ele>570.6</ele>
        <time>2022-07-12T17:18:02Z</time>
      </trkpt>
      <trkpt lat="44.0751" lon="3.05807">
        <ele>571.2</ele>
        <time>2022-07-12T17:18:06Z</time>
      </trkpt>
      <trkpt lat="44.07512" lon="3.05804">
        <ele>571.2</ele>
        <time>2022-07-12T17:18:08Z</time>
      </trkpt>
      <trkpt lat="44.07519" lon="3.05792">
        <ele>572.2</ele>
        <time>2022-07-12T17:18:16Z</time>
      </trkpt>
      <trkpt lat="44.0752" lon="3.05791">
        <ele>572.4</ele>
        <time>2022-07-12T17:18:17Z</time>
      </trkpt>
      <trkpt lat="44.07524" lon="3.05785">
        <ele>572.8</ele>
        <time>2022-07-12T17:18:21Z</time>
      </trkpt>
      <trkpt lat="44.07528" lon="3.05775">
        <ele>573.4</ele>
        <time>2022-07-12T17:18:26Z</time>
      </trkpt>
      <trkpt lat="44.07531" lon="3.05771">
        <ele>573.6</ele>
        <time>2022-07-12T17:18:28Z</time>
      </trkpt>
      <trkpt lat="44.07537" lon="3.05761">
        <ele>574.4</ele>
        <time>2022-07-12T17:18:33Z</time>
      </trkpt>
      <trkpt lat="44.07539" lon="3.05757">
        <ele>574.8</ele>
        <time>2022-07-12T17:18:35Z</time>
      </trkpt>
      <trkpt lat="44.07545" lon="3.05742">
        <ele>575.4</ele>
        <time>2022-07-12T17:18:42Z</time>
      </trkpt>
      <trkpt lat="44.07546" lon="3.05739">
        <ele>575.6</ele>
        <time>2022-07-12T17:18:43Z</time>
      </trkpt>
      <trkpt lat="44.07543" lon="3.05727">
        <ele>576.2</ele>
        <time>2022-07-12T17:18:48Z</time>
      </trkpt>
      <trkpt lat="44.07539" lon="3.05725">
        <ele>576.4</ele>
        <time>2022-07-12T17:18:51Z</time>
      </trkpt>
      <trkpt lat="44.07537" lon="3.05727">
        <ele>576.8</ele>
        <time>2022-07-12T17:18:53Z</time>
      </trkpt>
      <trkpt lat="44.07536" lon="3.05729">
        <ele>576.8</ele>
        <time>2022-07-12T17:18:54Z</time>
      </trkpt>
      <trkpt lat="44.07534" lon="3.05738">
        <ele>577.4</ele>
        <time>2022-07-12T17:18:58Z</time>
      </trkpt>
      <trkpt lat="44.07531" lon="3.05745">
        <ele>577.8</ele>
        <time>2022-07-12T17:19:02Z</time>
      </trkpt>
      <trkpt lat="44.07531" lon="3.05746">
        <ele>578.4</ele>
        <time>2022-07-12T17:19:06Z</time>
      </trkpt>
      <trkpt lat="44.0753" lon="3.05747">
        <ele>578.6</ele>
        <time>2022-07-12T17:19:07Z</time>
      </trkpt>
      <trkpt lat="44.07527" lon="3.05749">
        <ele>578.8</ele>
        <time>2022-07-12T17:19:10Z</time>
      </trkpt>
      <trkpt lat="44.07524" lon="3.05752">
        <ele>579.2</ele>
        <time>2022-07-12T17:19:14Z</time>
      </trkpt>
      <trkpt lat="44.07519" lon="3.05757">
        <ele>580</ele>
        <time>2022-07-12T17:19:21Z</time>
      </trkpt>
      <trkpt lat="44.07518" lon="3.05758">
        <ele>580</ele>
        <time>2022-07-12T17:19:22Z</time>
      </trkpt>
      <trkpt lat="44.07511" lon="3.05765">
        <ele>581</ele>
        <time>2022-07-12T17:19:30Z</time>
      </trkpt>
      <trkpt lat="44.07509" lon="3.05767">
        <ele>581.2</ele>
        <time>2022-07-12T17:19:32Z</time>
      </trkpt>
      <trkpt lat="44.07503" lon="3.05772">
        <ele>581.8</ele>
        <time>2022-07-12T17:19:39Z</time>
      </trkpt>
      <trkpt lat="44.07501" lon="3.05773">
        <ele>581.8</ele>
        <time>2022-07-12T17:19:41Z</time>
      </trkpt>
      <trkpt lat="44.07499" lon="3.05775">
        <ele>582</ele>
        <time>2022-07-12T17:19:43Z</time>
      </trkpt>
      <trkpt lat="44.07492" lon="3.05781">
        <ele>582.8</ele>
        <time>2022-07-12T17:19:51Z</time>
      </trkpt>
      <trkpt lat="44.0749" lon="3.05783">
        <ele>583.2</ele>
        <time>2022-07-12T17:19:53Z</time>
      </trkpt>
      <trkpt lat="44.07485" lon="3.0579">
        <ele>583.6</ele>
        <time>2022-07-12T17:19:59Z</time>
      </trkpt>
      <trkpt lat="44.07482" lon="3.05792">
        <ele>584.2</ele>
        <time>2022-07-12T17:20:03Z</time>
      </trkpt>
      <trkpt lat="44.07478" lon="3.05795">
        <ele>584.4</ele>
        <time>2022-07-12T17:20:07Z</time>
      </trkpt>
      <trkpt lat="44.07473" lon="3.05801">
        <ele>585.2</ele>
        <time>2022-07-12T17:20:13Z</time>
      </trkpt>
      <trkpt lat="44.07471" lon="3.05802">
        <ele>585.4</ele>
        <time>2022-07-12T17:20:15Z</time>
      </trkpt>
      <trkpt lat="44.07469" lon="3.05803">
        <ele>585.6</ele>
        <time>2022-07-12T17:20:17Z</time>
      </trkpt>
      <trkpt lat="44.07466" lon="3.05806">
        <ele>586</ele>
        <time>2022-07-12T17:20:21Z</time>
      </trkpt>
      <trkpt lat="44.07466" lon="3.05807">
        <ele>586.2</ele>
        <time>2022-07-12T17:20:23Z</time>
      </trkpt>
      <trkpt lat="44.07463" lon="3.0581">
        <ele>586.8</ele>
        <time>2022-07-12T17:20:29Z</time>
      </trkpt>
      <trkpt lat="44.07463" lon="3.05809">
        <ele>587</ele>
        <time>2022-07-12T17:20:31Z</time>
      </trkpt>
      <trkpt lat="44.07462" lon="3.05812">
        <ele>587</ele>
        <time>2022-07-12T17:20:50Z</time>
      </trkpt>
      <trkpt lat="44.0746" lon="3.05813">
        <ele>587</ele>
        <time>2022-07-12T17:20:52Z</time>
      </trkpt>
      <trkpt lat="44.07457" lon="3.05814">
        <ele>587.2</ele>
        <time>2022-07-12T17:20:55Z</time>
      </trkpt>
      <trkpt lat="44.07454" lon="3.05816">
        <ele>587.4</ele>
        <time>2022-07-12T17:20:58Z</time>
      </trkpt>
      <trkpt lat="44.07446" lon="3.05823">
        <ele>588.2</ele>
        <time>2022-07-12T17:21:07Z</time>
      </trkpt>
      <trkpt lat="44.07445" lon="3.05823">
        <ele>588.4</ele>
        <time>2022-07-12T17:21:08Z</time>
      </trkpt>
      <trkpt lat="44.07445" lon="3.05825">
        <ele>588.4</ele>
        <time>2022-07-12T17:21:09Z</time>
      </trkpt>
      <trkpt lat="44.0744" lon="3.0583">
        <ele>589.2</ele>
        <time>2022-07-12T17:21:16Z</time>
      </trkpt>
      <trkpt lat="44.07433" lon="3.05836">
        <ele>590.2</ele>
        <time>2022-07-12T17:21:25Z</time>
      </trkpt>
      <trkpt lat="44.07432" lon="3.05837">
        <ele>590.2</ele>
        <time>2022-07-12T17:21:26Z</time>
      </trkpt>
      <trkpt lat="44.07427" lon="3.05841">
        <ele>590.8</ele>
        <time>2022-07-12T17:21:31Z</time>
      </trkpt>
      <trkpt lat="44.07426" lon="3.05842">
        <ele>591</ele>
        <time>2022-07-12T17:21:33Z</time>
      </trkpt>
      <trkpt lat="44.07423" lon="3.05845">
        <ele>591</ele>
        <time>2022-07-12T17:21:37Z</time>
      </trkpt>
      <trkpt lat="44.07418" lon="3.0585">
        <ele>591.4</ele>
        <time>2022-07-12T17:21:43Z</time>
      </trkpt>
      <trkpt lat="44.07413" lon="3.05855">
        <ele>592.2</ele>
        <time>2022-07-12T17:21:49Z</time>
      </trkpt>
      <trkpt lat="44.07409" lon="3.05858">
        <ele>592.6</ele>
        <time>2022-07-12T17:21:53Z</time>
      </trkpt>
      <trkpt lat="44.07405" lon="3.05865">
        <ele>593</ele>
        <time>2022-07-12T17:21:59Z</time>
      </trkpt>
      <trkpt lat="44.07404" lon="3.05866">
        <ele>593.2</ele>
        <time>2022-07-12T17:22:00Z</time>
      </trkpt>
      <trkpt lat="44.07404" lon="3.05867">
        <ele>593.4</ele>
        <time>2022-07-12T17:22:01Z</time>
      </trkpt>
      <trkpt lat="44.07402" lon="3.05869">
        <ele>593.6</ele>
        <time>2022-07-12T17:22:03Z</time>
      </trkpt>
      <trkpt lat="44.07397" lon="3.05876">
        <ele>593.8</ele>
        <time>2022-07-12T17:22:10Z</time>
      </trkpt>
      <trkpt lat="44.07395" lon="3.05878">
        <ele>594</ele>
        <time>2022-07-12T17:22:12Z</time>
      </trkpt>
      <trkpt lat="44.07391" lon="3.05885">
        <ele>595</ele>
        <time>2022-07-12T17:22:21Z</time>
      </trkpt>
      <trkpt lat="44.07389" lon="3.05887">
        <ele>595</ele>
        <time>2022-07-12T17:22:22Z</time>
      </trkpt>
      <trkpt lat="44.07383" lon="3.05895">
        <ele>596</ele>
        <time>2022-07-12T17:22:30Z</time>
      </trkpt>
      <trkpt lat="44.07382" lon="3.05897">
        <ele>596.2</ele>
        <time>2022-07-12T17:22:32Z</time>
      </trkpt>
      <trkpt lat="44.07378" lon="3.05903">
        <ele>596.8</ele>
        <time>2022-07-12T17:22:38Z</time>
      </trkpt>
      <trkpt lat="44.07376" lon="3.05906">
        <ele>597.2</ele>
        <time>2022-07-12T17:22:41Z</time>
      </trkpt>
      <trkpt lat="44.07373" lon="3.05911">
        <ele>597.6</ele>
        <time>2022-07-12T17:22:45Z</time>
      </trkpt>
      <trkpt lat="44.07373" lon="3.05912">
        <ele>597.6</ele>
        <time>2022-07-12T17:22:46Z</time>
      </trkpt>
      <trkpt lat="44.0737" lon="3.05916">
        <ele>597.8</ele>
        <time>2022-07-12T17:22:50Z</time>
      </trkpt>
      <trkpt lat="44.07368" lon="3.05919">
        <ele>598</ele>
        <time>2022-07-12T17:22:53Z</time>
      </trkpt>
      <trkpt lat="44.07366" lon="3.05922">
        <ele>598.2</ele>
        <time>2022-07-12T17:22:56Z</time>
      </trkpt>
      <trkpt lat="44.07363" lon="3.05925">
        <ele>598.6</ele>
        <time>2022-07-12T17:22:59Z</time>
      </trkpt>
      <trkpt lat="44.07361" lon="3.05928">
        <ele>599.2</ele>
        <time>2022-07-12T17:23:02Z</time>
      </trkpt>
      <trkpt lat="44.07357" lon="3.05933">
        <ele>599.6</ele>
        <time>2022-07-12T17:23:07Z</time>
      </trkpt>
      <trkpt lat="44.07353" lon="3.05937">
        <ele>600</ele>
        <time>2022-07-12T17:23:12Z</time>
      </trkpt>
      <trkpt lat="44.07351" lon="3.05941">
        <ele>600.2</ele>
        <time>2022-07-12T17:23:15Z</time>
      </trkpt>
      <trkpt lat="44.07347" lon="3.05944">
        <ele>600.8</ele>
        <time>2022-07-12T17:23:19Z</time>
      </trkpt>
      <trkpt lat="44.07346" lon="3.05945">
        <ele>601.2</ele>
        <time>2022-07-12T17:23:20Z</time>
      </trkpt>
      <trkpt lat="44.07343" lon="3.05948">
        <ele>601.4</ele>
        <time>2022-07-12T17:23:23Z</time>
      </trkpt>
      <trkpt lat="44.07342" lon="3.05948">
        <ele>601.6</ele>
        <time>2022-07-12T17:23:24Z</time>
      </trkpt>
      <trkpt lat="44.07338" lon="3.05953">
        <ele>602.2</ele>
        <time>2022-07-12T17:23:29Z</time>
      </trkpt>
      <trkpt lat="44.07336" lon="3.05954">
        <ele>602.4</ele>
        <time>2022-07-12T17:23:31Z</time>
      </trkpt>
      <trkpt lat="44.0733" lon="3.0596">
        <ele>603.2</ele>
        <time>2022-07-12T17:23:38Z</time>
      </trkpt>
      <trkpt lat="44.0733" lon="3.0596">
        <ele>603.4</ele>
        <time>2022-07-12T17:23:39Z</time>
      </trkpt>
      <trkpt lat="44.0733" lon="3.05961">
        <ele>603.4</ele>
        <time>2022-07-12T17:23:40Z</time>
      </trkpt>
      <trkpt lat="44.0733" lon="3.05961">
        <ele>603.8</ele>
        <time>2022-07-12T17:23:43Z</time>
      </trkpt>
      <trkpt lat="44.07331" lon="3.05964">
        <ele>603.8</ele>
        <time>2022-07-12T17:23:48Z</time>
      </trkpt>
      <trkpt lat="44.07331" lon="3.05966">
        <ele>604</ele>
        <time>2022-07-12T17:23:49Z</time>
      </trkpt>
      <trkpt lat="44.07329" lon="3.05974">
        <ele>604</ele>
        <time>2022-07-12T17:23:55Z</time>
      </trkpt>
      <trkpt lat="44.07328" lon="3.05979">
        <ele>604.2</ele>
        <time>2022-07-12T17:23:58Z</time>
      </trkpt>
      <trkpt lat="44.07327" lon="3.05984">
        <ele>604.6</ele>
        <time>2022-07-12T17:24:02Z</time>
      </trkpt>
      <trkpt lat="44.07326" lon="3.0599">
        <ele>605</ele>
        <time>2022-07-12T17:24:05Z</time>
      </trkpt>
      <trkpt lat="44.07325" lon="3.05996">
        <ele>605.4</ele>
        <time>2022-07-12T17:24:09Z</time>
      </trkpt>
      <trkpt lat="44.07324" lon="3.05999">
        <ele>605.8</ele>
        <time>2022-07-12T17:24:11Z</time>
      </trkpt>
      <trkpt lat="44.07322" lon="3.06003">
        <ele>606</ele>
        <time>2022-07-12T17:24:13Z</time>
      </trkpt>
      <trkpt lat="44.07323" lon="3.06004">
        <ele>606.2</ele>
        <time>2022-07-12T17:24:14Z</time>
      </trkpt>
      <trkpt lat="44.07323" lon="3.06006">
        <ele>606.4</ele>
        <time>2022-07-12T17:24:16Z</time>
      </trkpt>
      <trkpt lat="44.07321" lon="3.06015">
        <ele>607.2</ele>
        <time>2022-07-12T17:24:21Z</time>
      </trkpt>
      <trkpt lat="44.07317" lon="3.06027">
        <ele>607.4</ele>
        <time>2022-07-12T17:24:29Z</time>
      </trkpt>
      <trkpt lat="44.07317" lon="3.06031">
        <ele>607.4</ele>
        <time>2022-07-12T17:24:30Z</time>
      </trkpt>
      <trkpt lat="44.07319" lon="3.06039">
        <ele>607.8</ele>
        <time>2022-07-12T17:24:34Z</time>
      </trkpt>
      <trkpt lat="44.0732" lon="3.06041">
        <ele>608</ele>
        <time>2022-07-12T17:24:35Z</time>
      </trkpt>
      <trkpt lat="44.0732" lon="3.06044">
        <ele>608.2</ele>
        <time>2022-07-12T17:24:37Z</time>
      </trkpt>
      <trkpt lat="44.07321" lon="3.06047">
        <ele>608.4</ele>
        <time>2022-07-12T17:24:39Z</time>
      </trkpt>
      <trkpt lat="44.07323" lon="3.06051">
        <ele>608.6</ele>
        <time>2022-07-12T17:24:41Z</time>
      </trkpt>
      <trkpt lat="44.07324" lon="3.06053">
        <ele>608.4</ele>
        <time>2022-07-12T17:24:42Z</time>
      </trkpt>
      <trkpt lat="44.07325" lon="3.0606">
        <ele>608.8</ele>
        <time>2022-07-12T17:24:46Z</time>
      </trkpt>
      <trkpt lat="44.07324" lon="3.06062">
        <ele>609</ele>
        <time>2022-07-12T17:24:47Z</time>
      </trkpt>
      <trkpt lat="44.07327" lon="3.06068">
        <ele>609.6</ele>
        <time>2022-07-12T17:24:51Z</time>
      </trkpt>
      <trkpt lat="44.07329" lon="3.0607">
        <ele>609.8</ele>
        <time>2022-07-12T17:24:53Z</time>
      </trkpt>
      <trkpt lat="44.07337" lon="3.06077">
        <ele>610.6</ele>
        <time>2022-07-12T17:25:00Z</time>
      </trkpt>
      <trkpt lat="44.07339" lon="3.06078">
        <ele>610.8</ele>
        <time>2022-07-12T17:25:02Z</time>
      </trkpt>
      <trkpt lat="44.07346" lon="3.06082">
        <ele>611.6</ele>
        <time>2022-07-12T17:25:09Z</time>
      </trkpt>
      <trkpt lat="44.07348" lon="3.06084">
        <ele>611.8</ele>
        <time>2022-07-12T17:25:11Z</time>
      </trkpt>
      <trkpt lat="44.07353" lon="3.06088">
        <ele>612.2</ele>
        <time>2022-07-12T17:25:16Z</time>
      </trkpt>
      <trkpt lat="44.07355" lon="3.06089">
        <ele>612.4</ele>
        <time>2022-07-12T17:25:18Z</time>
      </trkpt>
      <trkpt lat="44.07357" lon="3.06091">
        <ele>612.4</ele>
        <time>2022-07-12T17:25:20Z</time>
      </trkpt>
      <trkpt lat="44.07358" lon="3.06092">
        <ele>612.4</ele>
        <time>2022-07-12T17:25:21Z</time>
      </trkpt>
      <trkpt lat="44.07359" lon="3.06095">
        <ele>612.8</ele>
        <time>2022-07-12T17:25:24Z</time>
      </trkpt>
      <trkpt lat="44.07364" lon="3.06099">
        <ele>613.2</ele>
        <time>2022-07-12T17:25:29Z</time>
      </trkpt>
      <trkpt lat="44.07366" lon="3.06101">
        <ele>613.4</ele>
        <time>2022-07-12T17:25:31Z</time>
      </trkpt>
      <trkpt lat="44.07367" lon="3.06101">
        <ele>613.4</ele>
        <time>2022-07-12T17:25:32Z</time>
      </trkpt>
      <trkpt lat="44.07368" lon="3.06102">
        <ele>613.6</ele>
        <time>2022-07-12T17:25:33Z</time>
      </trkpt>
      <trkpt lat="44.07375" lon="3.06107">
        <ele>614.4</ele>
        <time>2022-07-12T17:25:40Z</time>
      </trkpt>
      <trkpt lat="44.07379" lon="3.06109">
        <ele>614.4</ele>
        <time>2022-07-12T17:25:43Z</time>
      </trkpt>
      <trkpt lat="44.07388" lon="3.06111">
        <ele>615.2</ele>
        <time>2022-07-12T17:25:50Z</time>
      </trkpt>
      <trkpt lat="44.07392" lon="3.06111">
        <ele>615.6</ele>
        <time>2022-07-12T17:25:53Z</time>
      </trkpt>
      <trkpt lat="44.07396" lon="3.06114">
        <ele>615.8</ele>
        <time>2022-07-12T17:25:56Z</time>
      </trkpt>
      <trkpt lat="44.07401" lon="3.06115">
        <ele>616</ele>
        <time>2022-07-12T17:26:01Z</time>
      </trkpt>
      <trkpt lat="44.07404" lon="3.06116">
        <ele>616.4</ele>
        <time>2022-07-12T17:26:04Z</time>
      </trkpt>
      <trkpt lat="44.07406" lon="3.06116">
        <ele>616.6</ele>
        <time>2022-07-12T17:26:06Z</time>
      </trkpt>
      <trkpt lat="44.07411" lon="3.06117">
        <ele>617.2</ele>
        <time>2022-07-12T17:26:11Z</time>
      </trkpt>
      <trkpt lat="44.07412" lon="3.06118">
        <ele>617.2</ele>
        <time>2022-07-12T17:26:12Z</time>
      </trkpt>
      <trkpt lat="44.07415" lon="3.06121">
        <ele>617.6</ele>
        <time>2022-07-12T17:26:15Z</time>
      </trkpt>
      <trkpt lat="44.07417" lon="3.06122">
        <ele>617.6</ele>
        <time>2022-07-12T17:26:17Z</time>
      </trkpt>
      <trkpt lat="44.07421" lon="3.06125">
        <ele>618.2</ele>
        <time>2022-07-12T17:26:20Z</time>
      </trkpt>
      <trkpt lat="44.07423" lon="3.06126">
        <ele>618.6</ele>
        <time>2022-07-12T17:26:22Z</time>
      </trkpt>
      <trkpt lat="44.07424" lon="3.06127">
        <ele>618.8</ele>
        <time>2022-07-12T17:26:23Z</time>
      </trkpt>
      <trkpt lat="44.07431" lon="3.0613">
        <ele>619.2</ele>
        <time>2022-07-12T17:26:27Z</time>
      </trkpt>
      <trkpt lat="44.07432" lon="3.06131">
        <ele>619.4</ele>
        <time>2022-07-12T17:26:28Z</time>
      </trkpt>
      <trkpt lat="44.07436" lon="3.06133">
        <ele>619.8</ele>
        <time>2022-07-12T17:26:30Z</time>
      </trkpt>
      <trkpt lat="44.07437" lon="3.06134">
        <ele>620</ele>
        <time>2022-07-12T17:26:31Z</time>
      </trkpt>
      <trkpt lat="44.07442" lon="3.0614">
        <ele>620.8</ele>
        <time>2022-07-12T17:26:35Z</time>
      </trkpt>
      <trkpt lat="44.07443" lon="3.06141">
        <ele>621</ele>
        <time>2022-07-12T17:26:36Z</time>
      </trkpt>
      <trkpt lat="44.0745" lon="3.06148">
        <ele>622</ele>
        <time>2022-07-12T17:26:43Z</time>
      </trkpt>
      <trkpt lat="44.07453" lon="3.06153">
        <ele>622.2</ele>
        <time>2022-07-12T17:26:45Z</time>
      </trkpt>
      <trkpt lat="44.07456" lon="3.06159">
        <ele>622.6</ele>
        <time>2022-07-12T17:26:49Z</time>
      </trkpt>
      <trkpt lat="44.07457" lon="3.06161">
        <ele>622.8</ele>
        <time>2022-07-12T17:26:50Z</time>
      </trkpt>
      <trkpt lat="44.07457" lon="3.06162">
        <ele>623</ele>
        <time>2022-07-12T17:26:51Z</time>
      </trkpt>
      <trkpt lat="44.07461" lon="3.06175">
        <ele>623.8</ele>
        <time>2022-07-12T17:26:58Z</time>
      </trkpt>
      <trkpt lat="44.07461" lon="3.06176">
        <ele>624.2</ele>
        <time>2022-07-12T17:26:59Z</time>
      </trkpt>
      <trkpt lat="44.07462" lon="3.06179">
        <ele>624.4</ele>
        <time>2022-07-12T17:27:00Z</time>
      </trkpt>
      <trkpt lat="44.07464" lon="3.06186">
        <ele>625</ele>
        <time>2022-07-12T17:27:04Z</time>
      </trkpt>
      <trkpt lat="44.07465" lon="3.06189">
        <ele>625.2</ele>
        <time>2022-07-12T17:27:06Z</time>
      </trkpt>
      <trkpt lat="44.07468" lon="3.06197">
        <ele>625.8</ele>
        <time>2022-07-12T17:27:10Z</time>
      </trkpt>
      <trkpt lat="44.07469" lon="3.06201">
        <ele>626</ele>
        <time>2022-07-12T17:27:12Z</time>
      </trkpt>
      <trkpt lat="44.07471" lon="3.06206">
        <ele>626.4</ele>
        <time>2022-07-12T17:27:15Z</time>
      </trkpt>
      <trkpt lat="44.07471" lon="3.06207">
        <ele>626.6</ele>
        <time>2022-07-12T17:27:16Z</time>
      </trkpt>
      <trkpt lat="44.07471" lon="3.0621">
        <ele>627.2</ele>
        <time>2022-07-12T17:27:18Z</time>
      </trkpt>
      <trkpt lat="44.07473" lon="3.06217">
        <ele>627.8</ele>
        <time>2022-07-12T17:27:22Z</time>
      </trkpt>
      <trkpt lat="44.07473" lon="3.06224">
        <ele>628.2</ele>
        <time>2022-07-12T17:27:26Z</time>
      </trkpt>
      <trkpt lat="44.07472" lon="3.06232">
        <ele>628.8</ele>
        <time>2022-07-12T17:27:30Z</time>
      </trkpt>
      <trkpt lat="44.07473" lon="3.06239">
        <ele>629.4</ele>
        <time>2022-07-12T17:27:33Z</time>
      </trkpt>
      <trkpt lat="44.07473" lon="3.06244">
        <ele>629.6</ele>
        <time>2022-07-12T17:27:36Z</time>
      </trkpt>
      <trkpt lat="44.07473" lon="3.06254">
        <ele>630.6</ele>
        <time>2022-07-12T17:27:42Z</time>
      </trkpt>
      <trkpt lat="44.07473" lon="3.06256">
        <ele>630.6</ele>
        <time>2022-07-12T17:27:43Z</time>
      </trkpt>
      <trkpt lat="44.07472" lon="3.06257">
        <ele>630.8</ele>
        <time>2022-07-12T17:27:44Z</time>
      </trkpt>
      <trkpt lat="44.07473" lon="3.06264">
        <ele>631.4</ele>
        <time>2022-07-12T17:27:48Z</time>
      </trkpt>
      <trkpt lat="44.07474" lon="3.06269">
        <ele>631.6</ele>
        <time>2022-07-12T17:27:51Z</time>
      </trkpt>
      <trkpt lat="44.07475" lon="3.06275">
        <ele>632</ele>
        <time>2022-07-12T17:27:54Z</time>
      </trkpt>
      <trkpt lat="44.07475" lon="3.06277">
        <ele>632.4</ele>
        <time>2022-07-12T17:27:55Z</time>
      </trkpt>
      <trkpt lat="44.07475" lon="3.06283">
        <ele>632.8</ele>
        <time>2022-07-12T17:27:58Z</time>
      </trkpt>
      <trkpt lat="44.07475" lon="3.06289">
        <ele>633</ele>
        <time>2022-07-12T17:28:01Z</time>
      </trkpt>
      <trkpt lat="44.07474" lon="3.06293">
        <ele>633.2</ele>
        <time>2022-07-12T17:28:03Z</time>
      </trkpt>
      <trkpt lat="44.07474" lon="3.06301">
        <ele>634</ele>
        <time>2022-07-12T17:28:07Z</time>
      </trkpt>
      <trkpt lat="44.07472" lon="3.06305">
        <ele>634.4</ele>
        <time>2022-07-12T17:28:10Z</time>
      </trkpt>
      <trkpt lat="44.0747" lon="3.06305">
        <ele>634.4</ele>
        <time>2022-07-12T17:28:12Z</time>
      </trkpt>
      <trkpt lat="44.07468" lon="3.06298">
        <ele>635</ele>
        <time>2022-07-12T17:28:16Z</time>
      </trkpt>
      <trkpt lat="44.07468" lon="3.06291">
        <ele>635.4</ele>
        <time>2022-07-12T17:28:19Z</time>
      </trkpt>
      <trkpt lat="44.07467" lon="3.06286">
        <ele>636</ele>
        <time>2022-07-12T17:28:22Z</time>
      </trkpt>
      <trkpt lat="44.07467" lon="3.06284">
        <ele>636.2</ele>
        <time>2022-07-12T17:28:23Z</time>
      </trkpt>
      <trkpt lat="44.07467" lon="3.06283">
        <ele>636.4</ele>
        <time>2022-07-12T17:28:25Z</time>
      </trkpt>
      <trkpt lat="44.07467" lon="3.06283">
        <ele>636.4</ele>
        <time>2022-07-12T17:28:26Z</time>
      </trkpt>
      <trkpt lat="44.07467" lon="3.06281">
        <ele>636.2</ele>
        <time>2022-07-12T17:28:34Z</time>
      </trkpt>
      <trkpt lat="44.07466" lon="3.06276">
        <ele>636.4</ele>
        <time>2022-07-12T17:28:36Z</time>
      </trkpt>
      <trkpt lat="44.07465" lon="3.06274">
        <ele>636.4</ele>
        <time>2022-07-12T17:28:37Z</time>
      </trkpt>
      <trkpt lat="44.07463" lon="3.06265">
        <ele>636.6</ele>
        <time>2022-07-12T17:28:43Z</time>
      </trkpt>
      <trkpt lat="44.0746" lon="3.06257">
        <ele>637</ele>
        <time>2022-07-12T17:28:47Z</time>
      </trkpt>
      <trkpt lat="44.07459" lon="3.06255">
        <ele>637.4</ele>
        <time>2022-07-12T17:28:49Z</time>
      </trkpt>
      <trkpt lat="44.07455" lon="3.06244">
        <ele>638.2</ele>
        <time>2022-07-12T17:28:56Z</time>
      </trkpt>
      <trkpt lat="44.07454" lon="3.06242">
        <ele>638.4</ele>
        <time>2022-07-12T17:28:57Z</time>
      </trkpt>
      <trkpt lat="44.0745" lon="3.06235">
        <ele>639.2</ele>
        <time>2022-07-12T17:29:02Z</time>
      </trkpt>
      <trkpt lat="44.07448" lon="3.06229">
        <ele>639.6</ele>
        <time>2022-07-12T17:29:05Z</time>
      </trkpt>
      <trkpt lat="44.07444" lon="3.06224">
        <ele>640</ele>
        <time>2022-07-12T17:29:09Z</time>
      </trkpt>
      <trkpt lat="44.07443" lon="3.06221">
        <ele>640.2</ele>
        <time>2022-07-12T17:29:11Z</time>
      </trkpt>
      <trkpt lat="44.07442" lon="3.06219">
        <ele>640.4</ele>
        <time>2022-07-12T17:29:12Z</time>
      </trkpt>
      <trkpt lat="44.07437" lon="3.06211">
        <ele>641.4</ele>
        <time>2022-07-12T17:29:18Z</time>
      </trkpt>
      <trkpt lat="44.07436" lon="3.0621">
        <ele>641.6</ele>
        <time>2022-07-12T17:29:19Z</time>
      </trkpt>
      <trkpt lat="44.07431" lon="3.06202">
        <ele>642.2</ele>
        <time>2022-07-12T17:29:25Z</time>
      </trkpt>
      <trkpt lat="44.07427" lon="3.06199">
        <ele>642.4</ele>
        <time>2022-07-12T17:29:28Z</time>
      </trkpt>
      <trkpt lat="44.07417" lon="3.06191">
        <ele>643.6</ele>
        <time>2022-07-12T17:29:37Z</time>
      </trkpt>
      <trkpt lat="44.07411" lon="3.06189">
        <ele>644.2</ele>
        <time>2022-07-12T17:29:41Z</time>
      </trkpt>
      <trkpt lat="44.07408" lon="3.06189">
        <ele>644.2</ele>
        <time>2022-07-12T17:29:43Z</time>
      </trkpt>
      <trkpt lat="44.07407" lon="3.06187">
        <ele>644.4</ele>
        <time>2022-07-12T17:29:45Z</time>
      </trkpt>
      <trkpt lat="44.07404" lon="3.06188">
        <ele>644.8</ele>
        <time>2022-07-12T17:29:47Z</time>
      </trkpt>
      <trkpt lat="44.07402" lon="3.06188">
        <ele>644.8</ele>
        <time>2022-07-12T17:29:48Z</time>
      </trkpt>
      <trkpt lat="44.07397" lon="3.06186">
        <ele>645.4</ele>
        <time>2022-07-12T17:29:51Z</time>
      </trkpt>
      <trkpt lat="44.07396" lon="3.06187">
        <ele>645.4</ele>
        <time>2022-07-12T17:29:52Z</time>
      </trkpt>
      <trkpt lat="44.07395" lon="3.06189">
        <ele>646</ele>
        <time>2022-07-12T17:29:54Z</time>
      </trkpt>
      <trkpt lat="44.07393" lon="3.0619">
        <ele>646</ele>
        <time>2022-07-12T17:29:55Z</time>
      </trkpt>
      <trkpt lat="44.07388" lon="3.06187">
        <ele>646.4</ele>
        <time>2022-07-12T17:29:59Z</time>
      </trkpt>
      <trkpt lat="44.07386" lon="3.06186">
        <ele>646.4</ele>
        <time>2022-07-12T17:30:00Z</time>
      </trkpt>
      <trkpt lat="44.0738" lon="3.06186">
        <ele>647</ele>
        <time>2022-07-12T17:30:04Z</time>
      </trkpt>
      <trkpt lat="44.07376" lon="3.06187">
        <ele>647.4</ele>
        <time>2022-07-12T17:30:07Z</time>
      </trkpt>
      <trkpt lat="44.07366" lon="3.06187">
        <ele>648.4</ele>
        <time>2022-07-12T17:30:13Z</time>
      </trkpt>
      <trkpt lat="44.07364" lon="3.06187">
        <ele>648.6</ele>
        <time>2022-07-12T17:30:14Z</time>
      </trkpt>
      <trkpt lat="44.07362" lon="3.06187">
        <ele>648.6</ele>
        <time>2022-07-12T17:30:15Z</time>
      </trkpt>
      <trkpt lat="44.07354" lon="3.06185">
        <ele>649.6</ele>
        <time>2022-07-12T17:30:21Z</time>
      </trkpt>
      <trkpt lat="44.07353" lon="3.06184">
        <ele>649.6</ele>
        <time>2022-07-12T17:30:22Z</time>
      </trkpt>
      <trkpt lat="44.07351" lon="3.06184">
        <ele>650</ele>
        <time>2022-07-12T17:30:23Z</time>
      </trkpt>
      <trkpt lat="44.07348" lon="3.06184">
        <ele>650.2</ele>
        <time>2022-07-12T17:30:25Z</time>
      </trkpt>
      <trkpt lat="44.07346" lon="3.06183">
        <ele>650.2</ele>
        <time>2022-07-12T17:30:27Z</time>
      </trkpt>
      <trkpt lat="44.07346" lon="3.06183">
        <ele>650.8</ele>
        <time>2022-07-12T17:30:30Z</time>
      </trkpt>
      <trkpt lat="44.07344" lon="3.06183">
        <ele>651</ele>
        <time>2022-07-12T17:30:32Z</time>
      </trkpt>
      <trkpt lat="44.07342" lon="3.06183">
        <ele>651.2</ele>
        <time>2022-07-12T17:30:34Z</time>
      </trkpt>
      <trkpt lat="44.07336" lon="3.0618">
        <ele>651.6</ele>
        <time>2022-07-12T17:30:41Z</time>
      </trkpt>
      <trkpt lat="44.07333" lon="3.0618">
        <ele>651.6</ele>
        <time>2022-07-12T17:30:43Z</time>
      </trkpt>
      <trkpt lat="44.07331" lon="3.06179">
        <ele>651.8</ele>
        <time>2022-07-12T17:30:45Z</time>
      </trkpt>
      <trkpt lat="44.07323" lon="3.06177">
        <ele>652.8</ele>
        <time>2022-07-12T17:30:53Z</time>
      </trkpt>
      <trkpt lat="44.07321" lon="3.06177">
        <ele>652.8</ele>
        <time>2022-07-12T17:30:54Z</time>
      </trkpt>
      <trkpt lat="44.07314" lon="3.06178">
        <ele>653.8</ele>
        <time>2022-07-12T17:31:01Z</time>
      </trkpt>
      <trkpt lat="44.07314" lon="3.06178">
        <ele>654</ele>
        <time>2022-07-12T17:31:02Z</time>
      </trkpt>
      <trkpt lat="44.07307" lon="3.0618">
        <ele>654.8</ele>
        <time>2022-07-12T17:31:09Z</time>
      </trkpt>
      <trkpt lat="44.07305" lon="3.0618">
        <ele>655</ele>
        <time>2022-07-12T17:31:11Z</time>
      </trkpt>
      <trkpt lat="44.0729" lon="3.06181">
        <ele>655.6</ele>
        <time>2022-07-12T17:31:25Z</time>
      </trkpt>
      <trkpt lat="44.07289" lon="3.06181">
        <ele>655.6</ele>
        <time>2022-07-12T17:31:26Z</time>
      </trkpt>
      <trkpt lat="44.07281" lon="3.0618">
        <ele>656.6</ele>
        <time>2022-07-12T17:31:35Z</time>
      </trkpt>
      <trkpt lat="44.07281" lon="3.0618">
        <ele>656.8</ele>
        <time>2022-07-12T17:31:36Z</time>
      </trkpt>
      <trkpt lat="44.07274" lon="3.06178">
        <ele>657.8</ele>
        <time>2022-07-12T17:31:44Z</time>
      </trkpt>
      <trkpt lat="44.0727" lon="3.06177">
        <ele>658.4</ele>
        <time>2022-07-12T17:31:48Z</time>
      </trkpt>
      <trkpt lat="44.07268" lon="3.06177">
        <ele>659</ele>
        <time>2022-07-12T17:31:50Z</time>
      </trkpt>
      <trkpt lat="44.07262" lon="3.06176">
        <ele>659.4</ele>
        <time>2022-07-12T17:31:57Z</time>
      </trkpt>
      <trkpt lat="44.07254" lon="3.06172">
        <ele>659.8</ele>
        <time>2022-07-12T17:32:04Z</time>
      </trkpt>
      <trkpt lat="44.07253" lon="3.06172">
        <ele>659.8</ele>
        <time>2022-07-12T17:32:05Z</time>
      </trkpt>
      <trkpt lat="44.07245" lon="3.06166">
        <ele>660.2</ele>
        <time>2022-07-12T17:32:12Z</time>
      </trkpt>
      <trkpt lat="44.07241" lon="3.06163">
        <ele>660.6</ele>
        <time>2022-07-12T17:32:17Z</time>
      </trkpt>
      <trkpt lat="44.07238" lon="3.06159">
        <ele>661</ele>
        <time>2022-07-12T17:32:20Z</time>
      </trkpt>
      <trkpt lat="44.07235" lon="3.06155">
        <ele>661.8</ele>
        <time>2022-07-12T17:32:25Z</time>
      </trkpt>
      <trkpt lat="44.07235" lon="3.06154">
        <ele>662</ele>
        <time>2022-07-12T17:32:26Z</time>
      </trkpt>
      <trkpt lat="44.07235" lon="3.06153">
        <ele>662.2</ele>
        <time>2022-07-12T17:32:27Z</time>
      </trkpt>
      <trkpt lat="44.07233" lon="3.06151">
        <ele>663</ele>
        <time>2022-07-12T17:32:30Z</time>
      </trkpt>
      <trkpt lat="44.07232" lon="3.06147">
        <ele>663.6</ele>
        <time>2022-07-12T17:32:33Z</time>
      </trkpt>
      <trkpt lat="44.0723" lon="3.06144">
        <ele>664</ele>
        <time>2022-07-12T17:32:37Z</time>
      </trkpt>
      <trkpt lat="44.07229" lon="3.06142">
        <ele>663.8</ele>
        <time>2022-07-12T17:32:38Z</time>
      </trkpt>
      <trkpt lat="44.07227" lon="3.06134">
        <ele>664</ele>
        <time>2022-07-12T17:32:46Z</time>
      </trkpt>
      <trkpt lat="44.07222" lon="3.06123">
        <ele>664.6</ele>
        <time>2022-07-12T17:32:53Z</time>
      </trkpt>
      <trkpt lat="44.07222" lon="3.06122">
        <ele>664.6</ele>
        <time>2022-07-12T17:32:54Z</time>
      </trkpt>
      <trkpt lat="44.07221" lon="3.06118">
        <ele>664.6</ele>
        <time>2022-07-12T17:32:57Z</time>
      </trkpt>
      <trkpt lat="44.07221" lon="3.06117">
        <ele>664.8</ele>
        <time>2022-07-12T17:32:58Z</time>
      </trkpt>
      <trkpt lat="44.07219" lon="3.06115">
        <ele>665.2</ele>
        <time>2022-07-12T17:33:03Z</time>
      </trkpt>
      <trkpt lat="44.07218" lon="3.06114">
        <ele>665.4</ele>
        <time>2022-07-12T17:33:05Z</time>
      </trkpt>
      <trkpt lat="44.07217" lon="3.06112">
        <ele>665.6</ele>
        <time>2022-07-12T17:33:06Z</time>
      </trkpt>
      <trkpt lat="44.07212" lon="3.06104">
        <ele>666.6</ele>
        <time>2022-07-12T17:33:12Z</time>
      </trkpt>
      <trkpt lat="44.07211" lon="3.06102">
        <ele>666.8</ele>
        <time>2022-07-12T17:33:13Z</time>
      </trkpt>
      <trkpt lat="44.07208" lon="3.06094">
        <ele>667.2</ele>
        <time>2022-07-12T17:33:19Z</time>
      </trkpt>
      <trkpt lat="44.07208" lon="3.06092">
        <ele>667.4</ele>
        <time>2022-07-12T17:33:21Z</time>
      </trkpt>
      <trkpt lat="44.07208" lon="3.06087">
        <ele>667.6</ele>
        <time>2022-07-12T17:33:24Z</time>
      </trkpt>
      <trkpt lat="44.07208" lon="3.06086">
        <ele>667.6</ele>
        <time>2022-07-12T17:33:25Z</time>
      </trkpt>
      <trkpt lat="44.07208" lon="3.06085">
        <ele>667.8</ele>
        <time>2022-07-12T17:33:26Z</time>
      </trkpt>
      <trkpt lat="44.07209" lon="3.06079">
        <ele>668.2</ele>
        <time>2022-07-12T17:33:30Z</time>
      </trkpt>
      <trkpt lat="44.07208" lon="3.06076">
        <ele>668.4</ele>
        <time>2022-07-12T17:33:32Z</time>
      </trkpt>
      <trkpt lat="44.07208" lon="3.06074">
        <ele>668.4</ele>
        <time>2022-07-12T17:33:33Z</time>
      </trkpt>
      <trkpt lat="44.07208" lon="3.06073">
        <ele>668.8</ele>
        <time>2022-07-12T17:33:34Z</time>
      </trkpt>
      <trkpt lat="44.07208" lon="3.06072">
        <ele>668.8</ele>
        <time>2022-07-12T17:33:35Z</time>
      </trkpt>
      <trkpt lat="44.07208" lon="3.06069">
        <ele>669</ele>
        <time>2022-07-12T17:33:37Z</time>
      </trkpt>
      <trkpt lat="44.07207" lon="3.06066">
        <ele>669.4</ele>
        <time>2022-07-12T17:33:39Z</time>
      </trkpt>
      <trkpt lat="44.07208" lon="3.06065">
        <ele>669.8</ele>
        <time>2022-07-12T17:33:41Z</time>
      </trkpt>
      <trkpt lat="44.07209" lon="3.06059">
        <ele>670.2</ele>
        <time>2022-07-12T17:33:46Z</time>
      </trkpt>
      <trkpt lat="44.07209" lon="3.06053">
        <ele>670.6</ele>
        <time>2022-07-12T17:33:50Z</time>
      </trkpt>
      <trkpt lat="44.07209" lon="3.0605">
        <ele>670.8</ele>
        <time>2022-07-12T17:33:52Z</time>
      </trkpt>
      <trkpt lat="44.0721" lon="3.06047">
        <ele>671</ele>
        <time>2022-07-12T17:33:54Z</time>
      </trkpt>
      <trkpt lat="44.07209" lon="3.0604">
        <ele>671.4</ele>
        <time>2022-07-12T17:33:59Z</time>
      </trkpt>
      <trkpt lat="44.07209" lon="3.06037">
        <ele>671.6</ele>
        <time>2022-07-12T17:34:01Z</time>
      </trkpt>
      <trkpt lat="44.07209" lon="3.06036">
        <ele>671.6</ele>
        <time>2022-07-12T17:34:02Z</time>
      </trkpt>
      <trkpt lat="44.07209" lon="3.06033">
        <ele>671.8</ele>
        <time>2022-07-12T17:34:04Z</time>
      </trkpt>
      <trkpt lat="44.07208" lon="3.06029">
        <ele>672</ele>
        <time>2022-07-12T17:34:06Z</time>
      </trkpt>
      <trkpt lat="44.07208" lon="3.06028">
        <ele>672</ele>
        <time>2022-07-12T17:34:07Z</time>
      </trkpt>
      <trkpt lat="44.07208" lon="3.06025">
        <ele>672</ele>
        <time>2022-07-12T17:34:09Z</time>
      </trkpt>
      <trkpt lat="44.07208" lon="3.06022">
        <ele>672.2</ele>
        <time>2022-07-12T17:34:12Z</time>
      </trkpt>
      <trkpt lat="44.07206" lon="3.06014">
        <ele>672.6</ele>
        <time>2022-07-12T17:34:18Z</time>
      </trkpt>
      <trkpt lat="44.07206" lon="3.06012">
        <ele>672.8</ele>
        <time>2022-07-12T17:34:19Z</time>
      </trkpt>
      <trkpt lat="44.07205" lon="3.06009">
        <ele>673</ele>
        <time>2022-07-12T17:34:22Z</time>
      </trkpt>
      <trkpt lat="44.07204" lon="3.06008">
        <ele>673.2</ele>
        <time>2022-07-12T17:34:23Z</time>
      </trkpt>
      <trkpt lat="44.07202" lon="3.06007">
        <ele>673.6</ele>
        <time>2022-07-12T17:34:25Z</time>
      </trkpt>
      <trkpt lat="44.07199" lon="3.06003">
        <ele>674.2</ele>
        <time>2022-07-12T17:34:29Z</time>
      </trkpt>
      <trkpt lat="44.07199" lon="3.06002">
        <ele>674.4</ele>
        <time>2022-07-12T17:34:30Z</time>
      </trkpt>
      <trkpt lat="44.07199" lon="3.05999">
        <ele>674.6</ele>
        <time>2022-07-12T17:34:32Z</time>
      </trkpt>
      <trkpt lat="44.072" lon="3.05995">
        <ele>675</ele>
        <time>2022-07-12T17:34:35Z</time>
      </trkpt>
      <trkpt lat="44.07201" lon="3.05991">
        <ele>675</ele>
        <time>2022-07-12T17:34:38Z</time>
      </trkpt>
      <trkpt lat="44.072" lon="3.0599">
        <ele>675.2</ele>
        <time>2022-07-12T17:34:40Z</time>
      </trkpt>
      <trkpt lat="44.072" lon="3.05984">
        <ele>675.2</ele>
        <time>2022-07-12T17:34:44Z</time>
      </trkpt>
      <trkpt lat="44.072" lon="3.05982">
        <ele>675.4</ele>
        <time>2022-07-12T17:34:46Z</time>
      </trkpt>
      <trkpt lat="44.07197" lon="3.05975">
        <ele>675.8</ele>
        <time>2022-07-12T17:34:51Z</time>
      </trkpt>
      <trkpt lat="44.07196" lon="3.05974">
        <ele>675.6</ele>
        <time>2022-07-12T17:34:52Z</time>
      </trkpt>
      <trkpt lat="44.07195" lon="3.05973">
        <ele>675.8</ele>
        <time>2022-07-12T17:34:53Z</time>
      </trkpt>
      <trkpt lat="44.07193" lon="3.05967">
        <ele>676.6</ele>
        <time>2022-07-12T17:34:58Z</time>
      </trkpt>
      <trkpt lat="44.07193" lon="3.05963">
        <ele>677.2</ele>
        <time>2022-07-12T17:35:01Z</time>
      </trkpt>
      <trkpt lat="44.07192" lon="3.05961">
        <ele>677.4</ele>
        <time>2022-07-12T17:35:02Z</time>
      </trkpt>
      <trkpt lat="44.07193" lon="3.05958">
        <ele>677.8</ele>
        <time>2022-07-12T17:35:04Z</time>
      </trkpt>
      <trkpt lat="44.07192" lon="3.05957">
        <ele>677.8</ele>
        <time>2022-07-12T17:35:05Z</time>
      </trkpt>
      <trkpt lat="44.07191" lon="3.05954">
        <ele>678</ele>
        <time>2022-07-12T17:35:07Z</time>
      </trkpt>
      <trkpt lat="44.07191" lon="3.05951">
        <ele>678.2</ele>
        <time>2022-07-12T17:35:10Z</time>
      </trkpt>
      <trkpt lat="44.07191" lon="3.05947">
        <ele>678.4</ele>
        <time>2022-07-12T17:35:12Z</time>
      </trkpt>
      <trkpt lat="44.0719" lon="3.05946">
        <ele>678.6</ele>
        <time>2022-07-12T17:35:14Z</time>
      </trkpt>
      <trkpt lat="44.0719" lon="3.05945">
        <ele>678.8</ele>
        <time>2022-07-12T17:35:15Z</time>
      </trkpt>
      <trkpt lat="44.07189" lon="3.05938">
        <ele>679.4</ele>
        <time>2022-07-12T17:35:20Z</time>
      </trkpt>
      <trkpt lat="44.07188" lon="3.05934">
        <ele>679.8</ele>
        <time>2022-07-12T17:35:23Z</time>
      </trkpt>
      <trkpt lat="44.07188" lon="3.05929">
        <ele>680.2</ele>
        <time>2022-07-12T17:35:28Z</time>
      </trkpt>
      <trkpt lat="44.07188" lon="3.05929">
        <ele>680.6</ele>
        <time>2022-07-12T17:35:31Z</time>
      </trkpt>
      <trkpt lat="44.07186" lon="3.05926">
        <ele>680.6</ele>
        <time>2022-07-12T17:35:47Z</time>
      </trkpt>
      <trkpt lat="44.07185" lon="3.05926">
        <ele>680.6</ele>
        <time>2022-07-12T17:35:48Z</time>
      </trkpt>
      <trkpt lat="44.07182" lon="3.05929">
        <ele>680.8</ele>
        <time>2022-07-12T17:35:51Z</time>
      </trkpt>
      <trkpt lat="44.07181" lon="3.0593">
        <ele>680.8</ele>
        <time>2022-07-12T17:35:52Z</time>
      </trkpt>
      <trkpt lat="44.0718" lon="3.05933">
        <ele>680.8</ele>
        <time>2022-07-12T17:35:54Z</time>
      </trkpt>
      <trkpt lat="44.0718" lon="3.05935">
        <ele>681.2</ele>
        <time>2022-07-12T17:35:57Z</time>
      </trkpt>
      <trkpt lat="44.07182" lon="3.0594">
        <ele>681.4</ele>
        <time>2022-07-12T17:36:00Z</time>
      </trkpt>
      <trkpt lat="44.07184" lon="3.05945">
        <ele>681.8</ele>
        <time>2022-07-12T17:36:03Z</time>
      </trkpt>
      <trkpt lat="44.07185" lon="3.05953">
        <ele>682.8</ele>
        <time>2022-07-12T17:36:08Z</time>
      </trkpt>
      <trkpt lat="44.07186" lon="3.05957">
        <ele>683.2</ele>
        <time>2022-07-12T17:36:10Z</time>
      </trkpt>
      <trkpt lat="44.07186" lon="3.05963">
        <ele>683.6</ele>
        <time>2022-07-12T17:36:13Z</time>
      </trkpt>
      <trkpt lat="44.07186" lon="3.05965">
        <ele>683.8</ele>
        <time>2022-07-12T17:36:14Z</time>
      </trkpt>
      <trkpt lat="44.07185" lon="3.05969">
        <ele>684</ele>
        <time>2022-07-12T17:36:16Z</time>
      </trkpt>
      <trkpt lat="44.07185" lon="3.05976">
        <ele>684.4</ele>
        <time>2022-07-12T17:36:20Z</time>
      </trkpt>
      <trkpt lat="44.07183" lon="3.05981">
        <ele>684.4</ele>
        <time>2022-07-12T17:36:23Z</time>
      </trkpt>
      <trkpt lat="44.07181" lon="3.0599">
        <ele>684.6</ele>
        <time>2022-07-12T17:36:29Z</time>
      </trkpt>
      <trkpt lat="44.07181" lon="3.05995">
        <ele>684.8</ele>
        <time>2022-07-12T17:36:32Z</time>
      </trkpt>
      <trkpt lat="44.0718" lon="3.05998">
        <ele>685</ele>
        <time>2022-07-12T17:36:34Z</time>
      </trkpt>
      <trkpt lat="44.07181" lon="3.06001">
        <ele>685.2</ele>
        <time>2022-07-12T17:36:36Z</time>
      </trkpt>
      <trkpt lat="44.07181" lon="3.06009">
        <ele>685.8</ele>
        <time>2022-07-12T17:36:41Z</time>
      </trkpt>
      <trkpt lat="44.0718" lon="3.06014">
        <ele>686.2</ele>
        <time>2022-07-12T17:36:44Z</time>
      </trkpt>
      <trkpt lat="44.07181" lon="3.06021">
        <ele>687</ele>
        <time>2022-07-12T17:36:48Z</time>
      </trkpt>
      <trkpt lat="44.07179" lon="3.0603">
        <ele>687.8</ele>
        <time>2022-07-12T17:36:53Z</time>
      </trkpt>
      <trkpt lat="44.07179" lon="3.06031">
        <ele>688</ele>
        <time>2022-07-12T17:36:54Z</time>
      </trkpt>
      <trkpt lat="44.07176" lon="3.06042">
        <ele>688.4</ele>
        <time>2022-07-12T17:37:01Z</time>
      </trkpt>
      <trkpt lat="44.07172" lon="3.06055">
        <ele>689</ele>
        <time>2022-07-12T17:37:08Z</time>
      </trkpt>
      <trkpt lat="44.07172" lon="3.06057">
        <ele>689.2</ele>
        <time>2022-07-12T17:37:09Z</time>
      </trkpt>
      <trkpt lat="44.07171" lon="3.0606">
        <ele>689</ele>
        <time>2022-07-12T17:37:10Z</time>
      </trkpt>
      <trkpt lat="44.0717" lon="3.06067">
        <ele>689.8</ele>
        <time>2022-07-12T17:37:14Z</time>
      </trkpt>
      <trkpt lat="44.07168" lon="3.06068">
        <ele>689.8</ele>
        <time>2022-07-12T17:37:15Z</time>
      </trkpt>
      <trkpt lat="44.07167" lon="3.0607">
        <ele>690</ele>
        <time>2022-07-12T17:37:17Z</time>
      </trkpt>
      <trkpt lat="44.07164" lon="3.06074">
        <ele>690.2</ele>
        <time>2022-07-12T17:37:19Z</time>
      </trkpt>
      <trkpt lat="44.07163" lon="3.06076">
        <ele>690.6</ele>
        <time>2022-07-12T17:37:20Z</time>
      </trkpt>
      <trkpt lat="44.07163" lon="3.06082">
        <ele>690.8</ele>
        <time>2022-07-12T17:37:22Z</time>
      </trkpt>
      <trkpt lat="44.07162" lon="3.06089">
        <ele>691.2</ele>
        <time>2022-07-12T17:37:25Z</time>
      </trkpt>
      <trkpt lat="44.0716" lon="3.06091">
        <ele>691.4</ele>
        <time>2022-07-12T17:37:26Z</time>
      </trkpt>
      <trkpt lat="44.0716" lon="3.06092">
        <ele>691.8</ele>
        <time>2022-07-12T17:37:27Z</time>
      </trkpt>
      <trkpt lat="44.07161" lon="3.06094">
        <ele>692</ele>
        <time>2022-07-12T17:37:29Z</time>
      </trkpt>
      <trkpt lat="44.07162" lon="3.06095">
        <ele>692.2</ele>
        <time>2022-07-12T17:37:30Z</time>
      </trkpt>
      <trkpt lat="44.07163" lon="3.06103">
        <ele>693</ele>
        <time>2022-07-12T17:37:34Z</time>
      </trkpt>
      <trkpt lat="44.07165" lon="3.06111">
        <ele>693.6</ele>
        <time>2022-07-12T17:37:39Z</time>
      </trkpt>
      <trkpt lat="44.07165" lon="3.06116">
        <ele>693.8</ele>
        <time>2022-07-12T17:37:42Z</time>
      </trkpt>
      <trkpt lat="44.07168" lon="3.06126">
        <ele>694.4</ele>
        <time>2022-07-12T17:37:47Z</time>
      </trkpt>
      <trkpt lat="44.07169" lon="3.06132">
        <ele>695</ele>
        <time>2022-07-12T17:37:50Z</time>
      </trkpt>
      <trkpt lat="44.07171" lon="3.0614">
        <ele>695.6</ele>
        <time>2022-07-12T17:37:55Z</time>
      </trkpt>
      <trkpt lat="44.07172" lon="3.06142">
        <ele>696</ele>
        <time>2022-07-12T17:37:57Z</time>
      </trkpt>
      <trkpt lat="44.07173" lon="3.06146">
        <ele>696.2</ele>
        <time>2022-07-12T17:37:59Z</time>
      </trkpt>
      <trkpt lat="44.07175" lon="3.06155">
        <ele>696.6</ele>
        <time>2022-07-12T17:38:05Z</time>
      </trkpt>
      <trkpt lat="44.07178" lon="3.06168">
        <ele>697.2</ele>
        <time>2022-07-12T17:38:12Z</time>
      </trkpt>
      <trkpt lat="44.07179" lon="3.06169">
        <ele>697.4</ele>
        <time>2022-07-12T17:38:13Z</time>
      </trkpt>
      <trkpt lat="44.07179" lon="3.06174">
        <ele>698</ele>
        <time>2022-07-12T17:38:16Z</time>
      </trkpt>
      <trkpt lat="44.07179" lon="3.06176">
        <ele>698.2</ele>
        <time>2022-07-12T17:38:17Z</time>
      </trkpt>
      <trkpt lat="44.07181" lon="3.06184">
        <ele>698.8</ele>
        <time>2022-07-12T17:38:21Z</time>
      </trkpt>
      <trkpt lat="44.07184" lon="3.06194">
        <ele>699</ele>
        <time>2022-07-12T17:38:27Z</time>
      </trkpt>
      <trkpt lat="44.07186" lon="3.06199">
        <ele>699.4</ele>
        <time>2022-07-12T17:38:30Z</time>
      </trkpt>
      <trkpt lat="44.07191" lon="3.06213">
        <ele>700</ele>
        <time>2022-07-12T17:38:38Z</time>
      </trkpt>
      <trkpt lat="44.07191" lon="3.06215">
        <ele>700.2</ele>
        <time>2022-07-12T17:38:39Z</time>
      </trkpt>
      <trkpt lat="44.07195" lon="3.06227">
        <ele>701</ele>
        <time>2022-07-12T17:38:47Z</time>
      </trkpt>
      <trkpt lat="44.07195" lon="3.06229">
        <ele>701.2</ele>
        <time>2022-07-12T17:38:48Z</time>
      </trkpt>
      <trkpt lat="44.07202" lon="3.0624">
        <ele>702.2</ele>
        <time>2022-07-12T17:38:55Z</time>
      </trkpt>
      <trkpt lat="44.07202" lon="3.06242">
        <ele>702.4</ele>
        <time>2022-07-12T17:38:56Z</time>
      </trkpt>
      <trkpt lat="44.07207" lon="3.06249">
        <ele>703.2</ele>
        <time>2022-07-12T17:39:01Z</time>
      </trkpt>
      <trkpt lat="44.07211" lon="3.06255">
        <ele>703.8</ele>
        <time>2022-07-12T17:39:05Z</time>
      </trkpt>
      <trkpt lat="44.07216" lon="3.0626">
        <ele>704.2</ele>
        <time>2022-07-12T17:39:09Z</time>
      </trkpt>
      <trkpt lat="44.07219" lon="3.06265">
        <ele>704.6</ele>
        <time>2022-07-12T17:39:13Z</time>
      </trkpt>
      <trkpt lat="44.07223" lon="3.06268">
        <ele>705.4</ele>
        <time>2022-07-12T17:39:16Z</time>
      </trkpt>
      <trkpt lat="44.07228" lon="3.06275">
        <ele>706.4</ele>
        <time>2022-07-12T17:39:21Z</time>
      </trkpt>
      <trkpt lat="44.07231" lon="3.06281">
        <ele>707</ele>
        <time>2022-07-12T17:39:25Z</time>
      </trkpt>
      <trkpt lat="44.07236" lon="3.06286">
        <ele>707.6</ele>
        <time>2022-07-12T17:39:29Z</time>
      </trkpt>
      <trkpt lat="44.0724" lon="3.06292">
        <ele>708.2</ele>
        <time>2022-07-12T17:39:33Z</time>
      </trkpt>
      <trkpt lat="44.07243" lon="3.06294">
        <ele>708.6</ele>
        <time>2022-07-12T17:39:35Z</time>
      </trkpt>
      <trkpt lat="44.07243" lon="3.06294">
        <ele>708.6</ele>
        <time>2022-07-12T17:39:36Z</time>
      </trkpt>
      <trkpt lat="44.07243" lon="3.06294">
        <ele>709</ele>
        <time>2022-07-12T17:39:38Z</time>
      </trkpt>
      <trkpt lat="44.07245" lon="3.06296">
        <ele>709.4</ele>
        <time>2022-07-12T17:39:54Z</time>
      </trkpt>
      <trkpt lat="44.07246" lon="3.06298">
        <ele>709.4</ele>
        <time>2022-07-12T17:39:55Z</time>
      </trkpt>
      <trkpt lat="44.07253" lon="3.06308">
        <ele>709.6</ele>
        <time>2022-07-12T17:40:01Z</time>
      </trkpt>
      <trkpt lat="44.07254" lon="3.06309">
        <ele>709.8</ele>
        <time>2022-07-12T17:40:02Z</time>
      </trkpt>
      <trkpt lat="44.07263" lon="3.06315">
        <ele>710.8</ele>
        <time>2022-07-12T17:40:08Z</time>
      </trkpt>
      <trkpt lat="44.07265" lon="3.06316">
        <ele>710.8</ele>
        <time>2022-07-12T17:40:09Z</time>
      </trkpt>
      <trkpt lat="44.07274" lon="3.06323">
        <ele>711.8</ele>
        <time>2022-07-12T17:40:15Z</time>
      </trkpt>
      <trkpt lat="44.07281" lon="3.06328">
        <ele>712.4</ele>
        <time>2022-07-12T17:40:19Z</time>
      </trkpt>
      <trkpt lat="44.07284" lon="3.06331">
        <ele>712.6</ele>
        <time>2022-07-12T17:40:21Z</time>
      </trkpt>
      <trkpt lat="44.07295" lon="3.06346">
        <ele>713.4</ele>
        <time>2022-07-12T17:40:29Z</time>
      </trkpt>
      <trkpt lat="44.07299" lon="3.06353">
        <ele>713.6</ele>
        <time>2022-07-12T17:40:33Z</time>
      </trkpt>
      <trkpt lat="44.073" lon="3.06358">
        <ele>713.8</ele>
        <time>2022-07-12T17:40:35Z</time>
      </trkpt>
      <trkpt lat="44.07301" lon="3.06359">
        <ele>714</ele>
        <time>2022-07-12T17:40:36Z</time>
      </trkpt>
      <trkpt lat="44.07302" lon="3.06363">
        <ele>714.2</ele>
        <time>2022-07-12T17:40:38Z</time>
      </trkpt>
      <trkpt lat="44.07299" lon="3.06365">
        <ele>714.4</ele>
        <time>2022-07-12T17:40:40Z</time>
      </trkpt>
      <trkpt lat="44.07296" lon="3.06366">
        <ele>714.6</ele>
        <time>2022-07-12T17:40:42Z</time>
      </trkpt>
      <trkpt lat="44.07289" lon="3.06366">
        <ele>715.2</ele>
        <time>2022-07-12T17:40:46Z</time>
      </trkpt>
      <trkpt lat="44.07284" lon="3.06366">
        <ele>715.6</ele>
        <time>2022-07-12T17:40:49Z</time>
      </trkpt>
      <trkpt lat="44.07279" lon="3.06365">
        <ele>716.4</ele>
        <time>2022-07-12T17:40:52Z</time>
      </trkpt>
      <trkpt lat="44.07276" lon="3.06364">
        <ele>716.6</ele>
        <time>2022-07-12T17:40:54Z</time>
      </trkpt>
      <trkpt lat="44.0727" lon="3.06365">
        <ele>716.8</ele>
        <time>2022-07-12T17:40:57Z</time>
      </trkpt>
      <trkpt lat="44.07256" lon="3.06365">
        <ele>717.8</ele>
        <time>2022-07-12T17:41:04Z</time>
      </trkpt>
      <trkpt lat="44.07254" lon="3.06365">
        <ele>718</ele>
        <time>2022-07-12T17:41:05Z</time>
      </trkpt>
      <trkpt lat="44.0724" lon="3.06362">
        <ele>719.2</ele>
        <time>2022-07-12T17:41:12Z</time>
      </trkpt>
      <trkpt lat="44.07234" lon="3.0636">
        <ele>719.6</ele>
        <time>2022-07-12T17:41:15Z</time>
      </trkpt>
      <trkpt lat="44.07223" lon="3.06353">
        <ele>720.2</ele>
        <time>2022-07-12T17:41:21Z</time>
      </trkpt>
      <trkpt lat="44.07221" lon="3.06352">
        <ele>720.2</ele>
        <time>2022-07-12T17:41:22Z</time>
      </trkpt>
      <trkpt lat="44.07208" lon="3.06338">
        <ele>721.2</ele>
        <time>2022-07-12T17:41:30Z</time>
      </trkpt>
      <trkpt lat="44.07196" lon="3.06324">
        <ele>721.8</ele>
        <time>2022-07-12T17:41:36Z</time>
      </trkpt>
      <trkpt lat="44.0719" lon="3.06317">
        <ele>722.2</ele>
        <time>2022-07-12T17:41:39Z</time>
      </trkpt>
      <trkpt lat="44.07182" lon="3.06313">
        <ele>722.6</ele>
        <time>2022-07-12T17:41:42Z</time>
      </trkpt>
      <trkpt lat="44.07175" lon="3.06312">
        <ele>722.8</ele>
        <time>2022-07-12T17:41:45Z</time>
      </trkpt>
      <trkpt lat="44.07171" lon="3.06316">
        <ele>723</ele>
        <time>2022-07-12T17:41:47Z</time>
      </trkpt>
      <trkpt lat="44.0717" lon="3.06319">
        <ele>723.2</ele>
        <time>2022-07-12T17:41:48Z</time>
      </trkpt>
      <trkpt lat="44.0717" lon="3.06324">
        <ele>723.4</ele>
        <time>2022-07-12T17:41:50Z</time>
      </trkpt>
      <trkpt lat="44.07171" lon="3.06327">
        <ele>723.6</ele>
        <time>2022-07-12T17:41:51Z</time>
      </trkpt>
      <trkpt lat="44.07178" lon="3.06338">
        <ele>724.4</ele>
        <time>2022-07-12T17:41:56Z</time>
      </trkpt>
      <trkpt lat="44.0718" lon="3.06344">
        <ele>724.6</ele>
        <time>2022-07-12T17:41:58Z</time>
      </trkpt>
      <trkpt lat="44.07187" lon="3.06359">
        <ele>725.4</ele>
        <time>2022-07-12T17:42:04Z</time>
      </trkpt>
      <trkpt lat="44.07194" lon="3.06369">
        <ele>725.8</ele>
        <time>2022-07-12T17:42:09Z</time>
      </trkpt>
      <trkpt lat="44.07196" lon="3.06371">
        <ele>726</ele>
        <time>2022-07-12T17:42:12Z</time>
      </trkpt>
      <trkpt lat="44.07195" lon="3.06375">
        <ele>726.8</ele>
        <time>2022-07-12T17:43:18Z</time>
      </trkpt>
      <trkpt lat="44.07199" lon="3.06382">
        <ele>727</ele>
        <time>2022-07-12T17:43:24Z</time>
      </trkpt>
      <trkpt lat="44.07201" lon="3.06386">
        <ele>727</ele>
        <time>2022-07-12T17:43:27Z</time>
      </trkpt>
      <trkpt lat="44.07203" lon="3.06392">
        <ele>727.2</ele>
        <time>2022-07-12T17:43:31Z</time>
      </trkpt>
      <trkpt lat="44.07205" lon="3.06397">
        <ele>727.4</ele>
        <time>2022-07-12T17:43:34Z</time>
      </trkpt>
      <trkpt lat="44.07204" lon="3.06401">
        <ele>727.6</ele>
        <time>2022-07-12T17:43:37Z</time>
      </trkpt>
      <trkpt lat="44.07203" lon="3.06406">
        <ele>727.6</ele>
        <time>2022-07-12T17:43:41Z</time>
      </trkpt>
      <trkpt lat="44.07204" lon="3.06411">
        <ele>727.6</ele>
        <time>2022-07-12T17:43:44Z</time>
      </trkpt>
      <trkpt lat="44.07205" lon="3.06419">
        <ele>727.8</ele>
        <time>2022-07-12T17:43:48Z</time>
      </trkpt>
      <trkpt lat="44.07209" lon="3.06429">
        <ele>728</ele>
        <time>2022-07-12T17:43:54Z</time>
      </trkpt>
      <trkpt lat="44.07209" lon="3.0643">
        <ele>728</ele>
        <time>2022-07-12T17:43:56Z</time>
      </trkpt>
      <trkpt lat="44.07209" lon="3.06441">
        <ele>728.4</ele>
        <time>2022-07-12T17:44:01Z</time>
      </trkpt>
      <trkpt lat="44.07207" lon="3.06454">
        <ele>728.8</ele>
        <time>2022-07-12T17:44:05Z</time>
      </trkpt>
      <trkpt lat="44.07206" lon="3.06461">
        <ele>728.8</ele>
        <time>2022-07-12T17:44:07Z</time>
      </trkpt>
      <trkpt lat="44.07197" lon="3.06482">
        <ele>729.2</ele>
        <time>2022-07-12T17:44:14Z</time>
      </trkpt>
      <trkpt lat="44.07179" lon="3.06508">
        <ele>729.4</ele>
        <time>2022-07-12T17:44:23Z</time>
      </trkpt>
      <trkpt lat="44.07163" lon="3.06534">
        <ele>729.4</ele>
        <time>2022-07-12T17:44:29Z</time>
      </trkpt>
      <trkpt lat="44.07144" lon="3.06561">
        <ele>729</ele>
        <time>2022-07-12T17:44:34Z</time>
      </trkpt>
      <trkpt lat="44.07139" lon="3.06566">
        <ele>728.8</ele>
        <time>2022-07-12T17:44:35Z</time>
      </trkpt>
      <trkpt lat="44.07113" lon="3.06594">
        <ele>727.4</ele>
        <time>2022-07-12T17:44:40Z</time>
      </trkpt>
      <trkpt lat="44.07107" lon="3.06599">
        <ele>727</ele>
        <time>2022-07-12T17:44:41Z</time>
      </trkpt>
      <trkpt lat="44.07096" lon="3.06607">
        <ele>726.4</ele>
        <time>2022-07-12T17:44:43Z</time>
      </trkpt>
      <trkpt lat="44.07079" lon="3.06618">
        <ele>724.8</ele>
        <time>2022-07-12T17:44:46Z</time>
      </trkpt>
      <trkpt lat="44.07068" lon="3.06623">
        <ele>724</ele>
        <time>2022-07-12T17:44:48Z</time>
      </trkpt>
      <trkpt lat="44.07063" lon="3.06625">
        <ele>723.4</ele>
        <time>2022-07-12T17:44:49Z</time>
      </trkpt>
      <trkpt lat="44.07055" lon="3.0663">
        <ele>722.2</ele>
        <time>2022-07-12T17:44:51Z</time>
      </trkpt>
      <trkpt lat="44.07049" lon="3.06634">
        <ele>721.4</ele>
        <time>2022-07-12T17:44:53Z</time>
      </trkpt>
      <trkpt lat="44.07047" lon="3.06635">
        <ele>721</ele>
        <time>2022-07-12T17:44:54Z</time>
      </trkpt>
      <trkpt lat="44.07044" lon="3.06638">
        <ele>720.2</ele>
        <time>2022-07-12T17:44:56Z</time>
      </trkpt>
      <trkpt lat="44.07043" lon="3.06638">
        <ele>719.6</ele>
        <time>2022-07-12T17:44:57Z</time>
      </trkpt>
      <trkpt lat="44.07043" lon="3.06638">
        <ele>718.8</ele>
        <time>2022-07-12T17:44:59Z</time>
      </trkpt>
      <trkpt lat="44.07041" lon="3.0664">
        <ele>716.8</ele>
        <time>2022-07-12T17:45:27Z</time>
      </trkpt>
      <trkpt lat="44.07039" lon="3.06643">
        <ele>716.8</ele>
        <time>2022-07-12T17:45:28Z</time>
      </trkpt>
      <trkpt lat="44.07037" lon="3.06653">
        <ele>716.8</ele>
        <time>2022-07-12T17:45:30Z</time>
      </trkpt>
      <trkpt lat="44.07037" lon="3.06669">
        <ele>716.8</ele>
        <time>2022-07-12T17:45:32Z</time>
      </trkpt>
      <trkpt lat="44.07041" lon="3.06708">
        <ele>715.8</ele>
        <time>2022-07-12T17:45:36Z</time>
      </trkpt>
      <trkpt lat="44.07042" lon="3.06719">
        <ele>715.4</ele>
        <time>2022-07-12T17:45:37Z</time>
      </trkpt>
      <trkpt lat="44.07044" lon="3.06749">
        <ele>714</ele>
        <time>2022-07-12T17:45:40Z</time>
      </trkpt>
      <trkpt lat="44.07045" lon="3.0678">
        <ele>712.6</ele>
        <time>2022-07-12T17:45:43Z</time>
      </trkpt>
      <trkpt lat="44.07046" lon="3.068">
        <ele>711.6</ele>
        <time>2022-07-12T17:45:45Z</time>
      </trkpt>
      <trkpt lat="44.07046" lon="3.0683">
        <ele>710.6</ele>
        <time>2022-07-12T17:45:48Z</time>
      </trkpt>
      <trkpt lat="44.0705" lon="3.06867">
        <ele>709.6</ele>
        <time>2022-07-12T17:45:52Z</time>
      </trkpt>
      <trkpt lat="44.07052" lon="3.06876">
        <ele>709.4</ele>
        <time>2022-07-12T17:45:53Z</time>
      </trkpt>
      <trkpt lat="44.07063" lon="3.06918">
        <ele>708.8</ele>
        <time>2022-07-12T17:45:58Z</time>
      </trkpt>
      <trkpt lat="44.07072" lon="3.06946">
        <ele>708.6</ele>
        <time>2022-07-12T17:46:02Z</time>
      </trkpt>
      <trkpt lat="44.07074" lon="3.06952">
        <ele>708.6</ele>
        <time>2022-07-12T17:46:03Z</time>
      </trkpt>
      <trkpt lat="44.07084" lon="3.06993">
        <ele>708.8</ele>
        <time>2022-07-12T17:46:10Z</time>
      </trkpt>
      <trkpt lat="44.07091" lon="3.07033">
        <ele>709.4</ele>
        <time>2022-07-12T17:46:18Z</time>
      </trkpt>
      <trkpt lat="44.07098" lon="3.07058">
        <ele>710.6</ele>
        <time>2022-07-12T17:46:25Z</time>
      </trkpt>
      <trkpt lat="44.07099" lon="3.07061">
        <ele>711</ele>
        <time>2022-07-12T17:46:26Z</time>
      </trkpt>
      <trkpt lat="44.07104" lon="3.07073">
        <ele>711.6</ele>
        <time>2022-07-12T17:46:30Z</time>
      </trkpt>
      <trkpt lat="44.07106" lon="3.07078">
        <ele>712</ele>
        <time>2022-07-12T17:46:32Z</time>
      </trkpt>
      <trkpt lat="44.07107" lon="3.0708">
        <ele>712</ele>
        <time>2022-07-12T17:46:33Z</time>
      </trkpt>
      <trkpt lat="44.07113" lon="3.07088">
        <ele>712.6</ele>
        <time>2022-07-12T17:46:36Z</time>
      </trkpt>
      <trkpt lat="44.07123" lon="3.07096">
        <ele>713.6</ele>
        <time>2022-07-12T17:46:41Z</time>
      </trkpt>
      <trkpt lat="44.07125" lon="3.07098">
        <ele>713.8</ele>
        <time>2022-07-12T17:46:42Z</time>
      </trkpt>
      <trkpt lat="44.07129" lon="3.07111">
        <ele>714.2</ele>
        <time>2022-07-12T17:46:47Z</time>
      </trkpt>
      <trkpt lat="44.07128" lon="3.07118">
        <ele>714.8</ele>
        <time>2022-07-12T17:46:49Z</time>
      </trkpt>
      <trkpt lat="44.07125" lon="3.07137">
        <ele>716</ele>
        <time>2022-07-12T17:46:55Z</time>
      </trkpt>
      <trkpt lat="44.07124" lon="3.07141">
        <ele>716.2</ele>
        <time>2022-07-12T17:46:56Z</time>
      </trkpt>
      <trkpt lat="44.07114" lon="3.07179">
        <ele>716.6</ele>
        <time>2022-07-12T17:47:05Z</time>
      </trkpt>
      <trkpt lat="44.0711" lon="3.07192">
        <ele>716.8</ele>
        <time>2022-07-12T17:47:08Z</time>
      </trkpt>
      <trkpt lat="44.07103" lon="3.07219">
        <ele>716.8</ele>
        <time>2022-07-12T17:47:13Z</time>
      </trkpt>
      <trkpt lat="44.07094" lon="3.07262">
        <ele>716.6</ele>
        <time>2022-07-12T17:47:19Z</time>
      </trkpt>
      <trkpt lat="44.07086" lon="3.07311">
        <ele>715.6</ele>
        <time>2022-07-12T17:47:25Z</time>
      </trkpt>
      <trkpt lat="44.07074" lon="3.07368">
        <ele>714.8</ele>
        <time>2022-07-12T17:47:32Z</time>
      </trkpt>
      <trkpt lat="44.07063" lon="3.07403">
        <ele>714.6</ele>
        <time>2022-07-12T17:47:37Z</time>
      </trkpt>
      <trkpt lat="44.07061" lon="3.07408">
        <ele>714.4</ele>
        <time>2022-07-12T17:47:38Z</time>
      </trkpt>
      <trkpt lat="44.07054" lon="3.07427">
        <ele>713.8</ele>
        <time>2022-07-12T17:47:43Z</time>
      </trkpt>
      <trkpt lat="44.07048" lon="3.07436">
        <ele>713.4</ele>
        <time>2022-07-12T17:47:47Z</time>
      </trkpt>
      <trkpt lat="44.07046" lon="3.07437">
        <ele>713.4</ele>
        <time>2022-07-12T17:47:48Z</time>
      </trkpt>
      <trkpt lat="44.07046" lon="3.07437">
        <ele>713.4</ele>
        <time>2022-07-12T17:47:51Z</time>
      </trkpt>
      <trkpt lat="44.07043" lon="3.07439">
        <ele>713.6</ele>
        <time>2022-07-12T17:48:06Z</time>
      </trkpt>
      <trkpt lat="44.07042" lon="3.0744">
        <ele>713.6</ele>
        <time>2022-07-12T17:48:07Z</time>
      </trkpt>
      <trkpt lat="44.07042" lon="3.07445">
        <ele>713.6</ele>
        <time>2022-07-12T17:48:09Z</time>
      </trkpt>
      <trkpt lat="44.07044" lon="3.07449">
        <ele>713.6</ele>
        <time>2022-07-12T17:48:11Z</time>
      </trkpt>
      <trkpt lat="44.07048" lon="3.07455">
        <ele>713.6</ele>
        <time>2022-07-12T17:48:15Z</time>
      </trkpt>
      <trkpt lat="44.07047" lon="3.07457">
        <ele>713.6</ele>
        <time>2022-07-12T17:48:17Z</time>
      </trkpt>
      <trkpt lat="44.07047" lon="3.07457">
        <ele>713.6</ele>
        <time>2022-07-12T17:48:18Z</time>
      </trkpt>
      <trkpt lat="44.07046" lon="3.0746">
        <ele>713.8</ele>
        <time>2022-07-12T17:49:23Z</time>
      </trkpt>
      <trkpt lat="44.07046" lon="3.07466">
        <ele>713.8</ele>
        <time>2022-07-12T17:49:26Z</time>
      </trkpt>
      <trkpt lat="44.07047" lon="3.07485">
        <ele>714.2</ele>
        <time>2022-07-12T17:49:33Z</time>
      </trkpt>
      <trkpt lat="44.07046" lon="3.07497">
        <ele>714.8</ele>
        <time>2022-07-12T17:49:37Z</time>
      </trkpt>
      <trkpt lat="44.07045" lon="3.07508">
        <ele>715</ele>
        <time>2022-07-12T17:49:40Z</time>
      </trkpt>
      <trkpt lat="44.07043" lon="3.07526">
        <ele>716</ele>
        <time>2022-07-12T17:49:46Z</time>
      </trkpt>
      <trkpt lat="44.07041" lon="3.07541">
        <ele>716.8</ele>
        <time>2022-07-12T17:49:51Z</time>
      </trkpt>
      <trkpt lat="44.07041" lon="3.07546">
        <ele>717</ele>
        <time>2022-07-12T17:49:53Z</time>
      </trkpt>
      <trkpt lat="44.0704" lon="3.07566">
        <ele>718.2</ele>
        <time>2022-07-12T17:50:00Z</time>
      </trkpt>
      <trkpt lat="44.0704" lon="3.07569">
        <ele>718.2</ele>
        <time>2022-07-12T17:50:01Z</time>
      </trkpt>
      <trkpt lat="44.07039" lon="3.07586">
        <ele>719.4</ele>
        <time>2022-07-12T17:50:07Z</time>
      </trkpt>
      <trkpt lat="44.07039" lon="3.0759">
        <ele>719.4</ele>
        <time>2022-07-12T17:50:08Z</time>
      </trkpt>
      <trkpt lat="44.07038" lon="3.07611">
        <ele>720.2</ele>
        <time>2022-07-12T17:50:15Z</time>
      </trkpt>
      <trkpt lat="44.07038" lon="3.07615">
        <ele>720.2</ele>
        <time>2022-07-12T17:50:16Z</time>
      </trkpt>
      <trkpt lat="44.07037" lon="3.07643">
        <ele>721.2</ele>
        <time>2022-07-12T17:50:24Z</time>
      </trkpt>
      <trkpt lat="44.07037" lon="3.0765">
        <ele>721.6</ele>
        <time>2022-07-12T17:50:26Z</time>
      </trkpt>
      <trkpt lat="44.07037" lon="3.07672">
        <ele>722.2</ele>
        <time>2022-07-12T17:50:32Z</time>
      </trkpt>
      <trkpt lat="44.07037" lon="3.07675">
        <ele>722.2</ele>
        <time>2022-07-12T17:50:33Z</time>
      </trkpt>
      <trkpt lat="44.07038" lon="3.07697">
        <ele>722.8</ele>
        <time>2022-07-12T17:50:40Z</time>
      </trkpt>
      <trkpt lat="44.07039" lon="3.07713">
        <ele>723.2</ele>
        <time>2022-07-12T17:50:45Z</time>
      </trkpt>
      <trkpt lat="44.0704" lon="3.07724">
        <ele>723.2</ele>
        <time>2022-07-12T17:50:48Z</time>
      </trkpt>
      <trkpt lat="44.07044" lon="3.07749">
        <ele>724</ele>
        <time>2022-07-12T17:50:56Z</time>
      </trkpt>
      <trkpt lat="44.07045" lon="3.07752">
        <ele>724</ele>
        <time>2022-07-12T17:50:57Z</time>
      </trkpt>
      <trkpt lat="44.07051" lon="3.07768">
        <ele>724.6</ele>
        <time>2022-07-12T17:51:03Z</time>
      </trkpt>
      <trkpt lat="44.07057" lon="3.07782">
        <ele>725.4</ele>
        <time>2022-07-12T17:51:08Z</time>
      </trkpt>
      <trkpt lat="44.0706" lon="3.07788">
        <ele>725.6</ele>
        <time>2022-07-12T17:51:10Z</time>
      </trkpt>
      <trkpt lat="44.0707" lon="3.07809">
        <ele>726.4</ele>
        <time>2022-07-12T17:51:17Z</time>
      </trkpt>
      <trkpt lat="44.07076" lon="3.07818">
        <ele>726.6</ele>
        <time>2022-07-12T17:51:20Z</time>
      </trkpt>
      <trkpt lat="44.0709" lon="3.07847">
        <ele>727.4</ele>
        <time>2022-07-12T17:51:28Z</time>
      </trkpt>
      <trkpt lat="44.07094" lon="3.07855">
        <ele>727.6</ele>
        <time>2022-07-12T17:51:30Z</time>
      </trkpt>
      <trkpt lat="44.07101" lon="3.07871">
        <ele>727.6</ele>
        <time>2022-07-12T17:51:34Z</time>
      </trkpt>
      <trkpt lat="44.07115" lon="3.07899">
        <ele>727.6</ele>
        <time>2022-07-12T17:51:41Z</time>
      </trkpt>
      <trkpt lat="44.07133" lon="3.07936">
        <ele>728</ele>
        <time>2022-07-12T17:51:50Z</time>
      </trkpt>
      <trkpt lat="44.07142" lon="3.07956">
        <ele>728.2</ele>
        <time>2022-07-12T17:51:55Z</time>
      </trkpt>
      <trkpt lat="44.07151" lon="3.07975">
        <ele>728.6</ele>
        <time>2022-07-12T17:52:00Z</time>
      </trkpt>
      <trkpt lat="44.07162" lon="3.08003">
        <ele>729.2</ele>
        <time>2022-07-12T17:52:08Z</time>
      </trkpt>
      <trkpt lat="44.07163" lon="3.08006">
        <ele>729.2</ele>
        <time>2022-07-12T17:52:09Z</time>
      </trkpt>
      <trkpt lat="44.07169" lon="3.08022">
        <ele>730.2</ele>
        <time>2022-07-12T17:52:14Z</time>
      </trkpt>
      <trkpt lat="44.07174" lon="3.08035">
        <ele>731</ele>
        <time>2022-07-12T17:52:18Z</time>
      </trkpt>
      <trkpt lat="44.07175" lon="3.08038">
        <ele>731.2</ele>
        <time>2022-07-12T17:52:19Z</time>
      </trkpt>
      <trkpt lat="44.07181" lon="3.08057">
        <ele>732.4</ele>
        <time>2022-07-12T17:52:25Z</time>
      </trkpt>
      <trkpt lat="44.07184" lon="3.08065">
        <ele>732.6</ele>
        <time>2022-07-12T17:52:27Z</time>
      </trkpt>
      <trkpt lat="44.07189" lon="3.08082">
        <ele>733.4</ele>
        <time>2022-07-12T17:52:32Z</time>
      </trkpt>
      <trkpt lat="44.07194" lon="3.08101">
        <ele>734</ele>
        <time>2022-07-12T17:52:37Z</time>
      </trkpt>
      <trkpt lat="44.07199" lon="3.08117">
        <ele>734.6</ele>
        <time>2022-07-12T17:52:41Z</time>
      </trkpt>
      <trkpt lat="44.07207" lon="3.08143">
        <ele>734.8</ele>
        <time>2022-07-12T17:52:47Z</time>
      </trkpt>
      <trkpt lat="44.07218" lon="3.08179">
        <ele>735.6</ele>
        <time>2022-07-12T17:52:55Z</time>
      </trkpt>
      <trkpt lat="44.07223" lon="3.08193">
        <ele>735.6</ele>
        <time>2022-07-12T17:52:58Z</time>
      </trkpt>
      <trkpt lat="44.07233" lon="3.0823">
        <ele>735.4</ele>
        <time>2022-07-12T17:53:05Z</time>
      </trkpt>
      <trkpt lat="44.07245" lon="3.08266">
        <ele>735</ele>
        <time>2022-07-12T17:53:10Z</time>
      </trkpt>
      <trkpt lat="44.07253" lon="3.08301">
        <ele>734</ele>
        <time>2022-07-12T17:53:14Z</time>
      </trkpt>
      <trkpt lat="44.07256" lon="3.08318">
        <ele>733.8</ele>
        <time>2022-07-12T17:53:16Z</time>
      </trkpt>
      <trkpt lat="44.07261" lon="3.08352">
        <ele>732.8</ele>
        <time>2022-07-12T17:53:20Z</time>
      </trkpt>
      <trkpt lat="44.07262" lon="3.08377">
        <ele>732.6</ele>
        <time>2022-07-12T17:53:23Z</time>
      </trkpt>
      <trkpt lat="44.07259" lon="3.08417">
        <ele>732.6</ele>
        <time>2022-07-12T17:53:29Z</time>
      </trkpt>
      <trkpt lat="44.07251" lon="3.08463">
        <ele>733.2</ele>
        <time>2022-07-12T17:53:36Z</time>
      </trkpt>
      <trkpt lat="44.07239" lon="3.08509">
        <ele>733.4</ele>
        <time>2022-07-12T17:53:42Z</time>
      </trkpt>
      <trkpt lat="44.0722" lon="3.08576">
        <ele>732.2</ele>
        <time>2022-07-12T17:53:50Z</time>
      </trkpt>
      <trkpt lat="44.07215" lon="3.08592">
        <ele>731.8</ele>
        <time>2022-07-12T17:53:52Z</time>
      </trkpt>
      <trkpt lat="44.07199" lon="3.08647">
        <ele>730.6</ele>
        <time>2022-07-12T17:53:59Z</time>
      </trkpt>
      <trkpt lat="44.07188" lon="3.08682">
        <ele>730.6</ele>
        <time>2022-07-12T17:54:04Z</time>
      </trkpt>
      <trkpt lat="44.07182" lon="3.08703">
        <ele>730.6</ele>
        <time>2022-07-12T17:54:07Z</time>
      </trkpt>
      <trkpt lat="44.07168" lon="3.08751">
        <ele>730.2</ele>
        <time>2022-07-12T17:54:14Z</time>
      </trkpt>
      <trkpt lat="44.07153" lon="3.088">
        <ele>730</ele>
        <time>2022-07-12T17:54:20Z</time>
      </trkpt>
      <trkpt lat="44.07142" lon="3.08838">
        <ele>729.2</ele>
        <time>2022-07-12T17:54:24Z</time>
      </trkpt>
      <trkpt lat="44.07136" lon="3.08858">
        <ele>728.6</ele>
        <time>2022-07-12T17:54:26Z</time>
      </trkpt>
      <trkpt lat="44.07131" lon="3.08877">
        <ele>728.2</ele>
        <time>2022-07-12T17:54:28Z</time>
      </trkpt>
      <trkpt lat="44.07116" lon="3.08923">
        <ele>727</ele>
        <time>2022-07-12T17:54:33Z</time>
      </trkpt>
      <trkpt lat="44.07111" lon="3.08942">
        <ele>726.8</ele>
        <time>2022-07-12T17:54:35Z</time>
      </trkpt>
      <trkpt lat="44.07109" lon="3.08953">
        <ele>726.6</ele>
        <time>2022-07-12T17:54:36Z</time>
      </trkpt>
      <trkpt lat="44.07108" lon="3.08985">
        <ele>726.4</ele>
        <time>2022-07-12T17:54:39Z</time>
      </trkpt>
      <trkpt lat="44.07111" lon="3.09006">
        <ele>725.8</ele>
        <time>2022-07-12T17:54:41Z</time>
      </trkpt>
      <trkpt lat="44.07117" lon="3.09044">
        <ele>725</ele>
        <time>2022-07-12T17:54:45Z</time>
      </trkpt>
      <trkpt lat="44.07129" lon="3.09104">
        <ele>724.8</ele>
        <time>2022-07-12T17:54:52Z</time>
      </trkpt>
      <trkpt lat="44.07139" lon="3.09143">
        <ele>725</ele>
        <time>2022-07-12T17:54:58Z</time>
      </trkpt>
      <trkpt lat="44.07141" lon="3.09148">
        <ele>725.2</ele>
        <time>2022-07-12T17:54:59Z</time>
      </trkpt>
      <trkpt lat="44.07147" lon="3.09165">
        <ele>726.4</ele>
        <time>2022-07-12T17:55:03Z</time>
      </trkpt>
      <trkpt lat="44.07149" lon="3.09173">
        <ele>726.8</ele>
        <time>2022-07-12T17:55:05Z</time>
      </trkpt>
      <trkpt lat="44.07153" lon="3.09184">
        <ele>727.6</ele>
        <time>2022-07-12T17:55:08Z</time>
      </trkpt>
      <trkpt lat="44.07155" lon="3.09191">
        <ele>728.2</ele>
        <time>2022-07-12T17:55:10Z</time>
      </trkpt>
      <trkpt lat="44.07161" lon="3.09205">
        <ele>729.4</ele>
        <time>2022-07-12T17:55:14Z</time>
      </trkpt>
      <trkpt lat="44.07164" lon="3.09212">
        <ele>729.8</ele>
        <time>2022-07-12T17:55:16Z</time>
      </trkpt>
      <trkpt lat="44.07167" lon="3.09222">
        <ele>730.6</ele>
        <time>2022-07-12T17:55:19Z</time>
      </trkpt>
      <trkpt lat="44.07172" lon="3.09237">
        <ele>731.6</ele>
        <time>2022-07-12T17:55:24Z</time>
      </trkpt>
      <trkpt lat="44.07174" lon="3.09242">
        <ele>731.8</ele>
        <time>2022-07-12T17:55:26Z</time>
      </trkpt>
      <trkpt lat="44.07181" lon="3.0926">
        <ele>732.8</ele>
        <time>2022-07-12T17:55:33Z</time>
      </trkpt>
      <trkpt lat="44.07181" lon="3.09263">
        <ele>732.8</ele>
        <time>2022-07-12T17:55:34Z</time>
      </trkpt>
      <trkpt lat="44.07189" lon="3.0928">
        <ele>733.8</ele>
        <time>2022-07-12T17:55:41Z</time>
      </trkpt>
      <trkpt lat="44.0719" lon="3.09285">
        <ele>734.2</ele>
        <time>2022-07-12T17:55:43Z</time>
      </trkpt>
      <trkpt lat="44.07195" lon="3.09301">
        <ele>735</ele>
        <time>2022-07-12T17:55:49Z</time>
      </trkpt>
      <trkpt lat="44.07197" lon="3.09308">
        <ele>735.2</ele>
        <time>2022-07-12T17:55:52Z</time>
      </trkpt>
      <trkpt lat="44.07201" lon="3.09319">
        <ele>736</ele>
        <time>2022-07-12T17:55:56Z</time>
      </trkpt>
      <trkpt lat="44.07208" lon="3.09332">
        <ele>736.8</ele>
        <time>2022-07-12T17:56:02Z</time>
      </trkpt>
      <trkpt lat="44.07208" lon="3.09335">
        <ele>737</ele>
        <time>2022-07-12T17:56:03Z</time>
      </trkpt>
      <trkpt lat="44.07208" lon="3.09337">
        <ele>737.2</ele>
        <time>2022-07-12T17:56:05Z</time>
      </trkpt>
      <trkpt lat="44.07208" lon="3.09337">
        <ele>737.2</ele>
        <time>2022-07-12T17:56:06Z</time>
      </trkpt>
      <trkpt lat="44.07209" lon="3.0934">
        <ele>737.4</ele>
        <time>2022-07-12T17:56:53Z</time>
      </trkpt>
      <trkpt lat="44.07211" lon="3.09346">
        <ele>737.4</ele>
        <time>2022-07-12T17:56:56Z</time>
      </trkpt>
      <trkpt lat="44.07217" lon="3.09362">
        <ele>737.6</ele>
        <time>2022-07-12T17:57:02Z</time>
      </trkpt>
      <trkpt lat="44.07219" lon="3.09369">
        <ele>737.8</ele>
        <time>2022-07-12T17:57:04Z</time>
      </trkpt>
      <trkpt lat="44.07226" lon="3.09389">
        <ele>738</ele>
        <time>2022-07-12T17:57:09Z</time>
      </trkpt>
      <trkpt lat="44.07233" lon="3.09409">
        <ele>739</ele>
        <time>2022-07-12T17:57:14Z</time>
      </trkpt>
      <trkpt lat="44.07237" lon="3.09422">
        <ele>739.4</ele>
        <time>2022-07-12T17:57:17Z</time>
      </trkpt>
      <trkpt lat="44.07241" lon="3.09434">
        <ele>740</ele>
        <time>2022-07-12T17:57:20Z</time>
      </trkpt>
      <trkpt lat="44.07251" lon="3.09464">
        <ele>741.2</ele>
        <time>2022-07-12T17:57:27Z</time>
      </trkpt>
      <trkpt lat="44.07265" lon="3.09498">
        <ele>742.2</ele>
        <time>2022-07-12T17:57:36Z</time>
      </trkpt>
      <trkpt lat="44.07278" lon="3.09532">
        <ele>742.8</ele>
        <time>2022-07-12T17:57:44Z</time>
      </trkpt>
      <trkpt lat="44.07295" lon="3.09568">
        <ele>743.4</ele>
        <time>2022-07-12T17:57:52Z</time>
      </trkpt>
      <trkpt lat="44.07302" lon="3.09584">
        <ele>743.2</ele>
        <time>2022-07-12T17:57:55Z</time>
      </trkpt>
      <trkpt lat="44.07308" lon="3.09599">
        <ele>743.2</ele>
        <time>2022-07-12T17:57:58Z</time>
      </trkpt>
      <trkpt lat="44.07312" lon="3.0961">
        <ele>743.2</ele>
        <time>2022-07-12T17:58:00Z</time>
      </trkpt>
      <trkpt lat="44.07315" lon="3.09622">
        <ele>743</ele>
        <time>2022-07-12T17:58:02Z</time>
      </trkpt>
      <trkpt lat="44.07324" lon="3.09679">
        <ele>743.4</ele>
        <time>2022-07-12T17:58:12Z</time>
      </trkpt>
      <trkpt lat="44.07334" lon="3.09717">
        <ele>744.2</ele>
        <time>2022-07-12T17:58:19Z</time>
      </trkpt>
      <trkpt lat="44.0734" lon="3.09731">
        <ele>744.4</ele>
        <time>2022-07-12T17:58:22Z</time>
      </trkpt>
      <trkpt lat="44.07364" lon="3.09793">
        <ele>745</ele>
        <time>2022-07-12T17:58:34Z</time>
      </trkpt>
      <trkpt lat="44.07378" lon="3.09825">
        <ele>744.8</ele>
        <time>2022-07-12T17:58:40Z</time>
      </trkpt>
      <trkpt lat="44.07386" lon="3.09844">
        <ele>744.8</ele>
        <time>2022-07-12T17:58:43Z</time>
      </trkpt>
      <trkpt lat="44.074" lon="3.09885">
        <ele>744.2</ele>
        <time>2022-07-12T17:58:48Z</time>
      </trkpt>
      <trkpt lat="44.07405" lon="3.09905">
        <ele>743.6</ele>
        <time>2022-07-12T17:58:50Z</time>
      </trkpt>
      <trkpt lat="44.07408" lon="3.09928">
        <ele>742.8</ele>
        <time>2022-07-12T17:58:52Z</time>
      </trkpt>
      <trkpt lat="44.07408" lon="3.0996">
        <ele>741.8</ele>
        <time>2022-07-12T17:58:55Z</time>
      </trkpt>
      <trkpt lat="44.07408" lon="3.0998">
        <ele>741</ele>
        <time>2022-07-12T17:58:57Z</time>
      </trkpt>
      <trkpt lat="44.07407" lon="3.0999">
        <ele>740.6</ele>
        <time>2022-07-12T17:58:58Z</time>
      </trkpt>
      <trkpt lat="44.07405" lon="3.09999">
        <ele>740.2</ele>
        <time>2022-07-12T17:58:59Z</time>
      </trkpt>
      <trkpt lat="44.07401" lon="3.10007">
        <ele>740</ele>
        <time>2022-07-12T17:59:00Z</time>
      </trkpt>
      <trkpt lat="44.07396" lon="3.10013">
        <ele>739.6</ele>
        <time>2022-07-12T17:59:01Z</time>
      </trkpt>
      <trkpt lat="44.07391" lon="3.10018">
        <ele>739.4</ele>
        <time>2022-07-12T17:59:02Z</time>
      </trkpt>
      <trkpt lat="44.07381" lon="3.10028">
        <ele>739.2</ele>
        <time>2022-07-12T17:59:04Z</time>
      </trkpt>
      <trkpt lat="44.07349" lon="3.10061">
        <ele>739</ele>
        <time>2022-07-12T17:59:11Z</time>
      </trkpt>
      <trkpt lat="44.07314" lon="3.10092">
        <ele>738.8</ele>
        <time>2022-07-12T17:59:19Z</time>
      </trkpt>
      <trkpt lat="44.07297" lon="3.10107">
        <ele>739.2</ele>
        <time>2022-07-12T17:59:23Z</time>
      </trkpt>
      <trkpt lat="44.07281" lon="3.10117">
        <ele>739.4</ele>
        <time>2022-07-12T17:59:27Z</time>
      </trkpt>
      <trkpt lat="44.0725" lon="3.10129">
        <ele>740</ele>
        <time>2022-07-12T17:59:35Z</time>
      </trkpt>
      <trkpt lat="44.07222" lon="3.10129">
        <ele>740.4</ele>
        <time>2022-07-12T17:59:42Z</time>
      </trkpt>
      <trkpt lat="44.07214" lon="3.10129">
        <ele>740.4</ele>
        <time>2022-07-12T17:59:44Z</time>
      </trkpt>
      <trkpt lat="44.07195" lon="3.10128">
        <ele>741.4</ele>
        <time>2022-07-12T17:59:49Z</time>
      </trkpt>
      <trkpt lat="44.07183" lon="3.10128">
        <ele>741.8</ele>
        <time>2022-07-12T17:59:52Z</time>
      </trkpt>
      <trkpt lat="44.07142" lon="3.10132">
        <ele>742.4</ele>
        <time>2022-07-12T18:00:03Z</time>
      </trkpt>
      <trkpt lat="44.07112" lon="3.10146">
        <ele>743.2</ele>
        <time>2022-07-12T18:00:11Z</time>
      </trkpt>
      <trkpt lat="44.07082" lon="3.10166">
        <ele>743.6</ele>
        <time>2022-07-12T18:00:19Z</time>
      </trkpt>
      <trkpt lat="44.07078" lon="3.10169">
        <ele>743.6</ele>
        <time>2022-07-12T18:00:20Z</time>
      </trkpt>
      <trkpt lat="44.07062" lon="3.10185">
        <ele>743.4</ele>
        <time>2022-07-12T18:00:26Z</time>
      </trkpt>
      <trkpt lat="44.07049" lon="3.10197">
        <ele>743.4</ele>
        <time>2022-07-12T18:00:32Z</time>
      </trkpt>
      <trkpt lat="44.07046" lon="3.102">
        <ele>743.2</ele>
        <time>2022-07-12T18:00:37Z</time>
      </trkpt>
      <trkpt lat="44.07043" lon="3.10198">
        <ele>742.8</ele>
        <time>2022-07-12T18:01:33Z</time>
      </trkpt>
      <trkpt lat="44.07038" lon="3.102">
        <ele>743</ele>
        <time>2022-07-12T18:01:35Z</time>
      </trkpt>
      <trkpt lat="44.07021" lon="3.10206">
        <ele>743</ele>
        <time>2022-07-12T18:01:40Z</time>
      </trkpt>
      <trkpt lat="44.07012" lon="3.10207">
        <ele>743</ele>
        <time>2022-07-12T18:01:42Z</time>
      </trkpt>
      <trkpt lat="44.06994" lon="3.10205">
        <ele>742.8</ele>
        <time>2022-07-12T18:01:46Z</time>
      </trkpt>
      <trkpt lat="44.0696" lon="3.10205">
        <ele>743</ele>
        <time>2022-07-12T18:01:54Z</time>
      </trkpt>
      <trkpt lat="44.06937" lon="3.10204">
        <ele>744</ele>
        <time>2022-07-12T18:02:00Z</time>
      </trkpt>
      <trkpt lat="44.06925" lon="3.10204">
        <ele>744.2</ele>
        <time>2022-07-12T18:02:03Z</time>
      </trkpt>
      <trkpt lat="44.06893" lon="3.10197">
        <ele>744.6</ele>
        <time>2022-07-12T18:02:11Z</time>
      </trkpt>
      <trkpt lat="44.0686" lon="3.10172">
        <ele>745</ele>
        <time>2022-07-12T18:02:20Z</time>
      </trkpt>
      <trkpt lat="44.06829" lon="3.10145">
        <ele>744.8</ele>
        <time>2022-07-12T18:02:28Z</time>
      </trkpt>
      <trkpt lat="44.06796" lon="3.10117">
        <ele>744.4</ele>
        <time>2022-07-12T18:02:37Z</time>
      </trkpt>
      <trkpt lat="44.0679" lon="3.1011">
        <ele>744.4</ele>
        <time>2022-07-12T18:02:39Z</time>
      </trkpt>
      <trkpt lat="44.06779" lon="3.10101">
        <ele>744</ele>
        <time>2022-07-12T18:02:42Z</time>
      </trkpt>
      <trkpt lat="44.06771" lon="3.10094">
        <ele>743.8</ele>
        <time>2022-07-12T18:02:44Z</time>
      </trkpt>
      <trkpt lat="44.06739" lon="3.10065">
        <ele>743.2</ele>
        <time>2022-07-12T18:02:52Z</time>
      </trkpt>
      <trkpt lat="44.06729" lon="3.10062">
        <ele>743</ele>
        <time>2022-07-12T18:02:54Z</time>
      </trkpt>
      <trkpt lat="44.06724" lon="3.10063">
        <ele>742.8</ele>
        <time>2022-07-12T18:02:55Z</time>
      </trkpt>
      <trkpt lat="44.06709" lon="3.10066">
        <ele>742</ele>
        <time>2022-07-12T18:02:58Z</time>
      </trkpt>
      <trkpt lat="44.06705" lon="3.10066">
        <ele>741.8</ele>
        <time>2022-07-12T18:02:59Z</time>
      </trkpt>
      <trkpt lat="44.06701" lon="3.10065">
        <ele>741.4</ele>
        <time>2022-07-12T18:03:00Z</time>
      </trkpt>
      <trkpt lat="44.06696" lon="3.10064">
        <ele>741.4</ele>
        <time>2022-07-12T18:03:01Z</time>
      </trkpt>
      <trkpt lat="44.06688" lon="3.10062">
        <ele>741</ele>
        <time>2022-07-12T18:03:03Z</time>
      </trkpt>
      <trkpt lat="44.06678" lon="3.10062">
        <ele>740.6</ele>
        <time>2022-07-12T18:03:05Z</time>
      </trkpt>
      <trkpt lat="44.06673" lon="3.10063">
        <ele>740.4</ele>
        <time>2022-07-12T18:03:06Z</time>
      </trkpt>
      <trkpt lat="44.0665" lon="3.1007">
        <ele>739.6</ele>
        <time>2022-07-12T18:03:11Z</time>
      </trkpt>
      <trkpt lat="44.06647" lon="3.10072">
        <ele>739.4</ele>
        <time>2022-07-12T18:03:12Z</time>
      </trkpt>
      <trkpt lat="44.06644" lon="3.10075">
        <ele>739.2</ele>
        <time>2022-07-12T18:03:13Z</time>
      </trkpt>
      <trkpt lat="44.0663" lon="3.10089">
        <ele>738.6</ele>
        <time>2022-07-12T18:03:18Z</time>
      </trkpt>
      <trkpt lat="44.06627" lon="3.10092">
        <ele>738.2</ele>
        <time>2022-07-12T18:03:19Z</time>
      </trkpt>
      <trkpt lat="44.06608" lon="3.10106">
        <ele>737.2</ele>
        <time>2022-07-12T18:03:24Z</time>
      </trkpt>
      <trkpt lat="44.06603" lon="3.1011">
        <ele>737</ele>
        <time>2022-07-12T18:03:25Z</time>
      </trkpt>
      <trkpt lat="44.06584" lon="3.10127">
        <ele>736.6</ele>
        <time>2022-07-12T18:03:29Z</time>
      </trkpt>
      <trkpt lat="44.06579" lon="3.10132">
        <ele>736.4</ele>
        <time>2022-07-12T18:03:30Z</time>
      </trkpt>
      <trkpt lat="44.06575" lon="3.10139">
        <ele>736.2</ele>
        <time>2022-07-12T18:03:31Z</time>
      </trkpt>
      <trkpt lat="44.06571" lon="3.10146">
        <ele>736</ele>
        <time>2022-07-12T18:03:32Z</time>
      </trkpt>
      <trkpt lat="44.06568" lon="3.10154">
        <ele>735.8</ele>
        <time>2022-07-12T18:03:33Z</time>
      </trkpt>
      <trkpt lat="44.06566" lon="3.10163">
        <ele>735.6</ele>
        <time>2022-07-12T18:03:34Z</time>
      </trkpt>
      <trkpt lat="44.0656" lon="3.1018">
        <ele>734.8</ele>
        <time>2022-07-12T18:03:36Z</time>
      </trkpt>
      <trkpt lat="44.06551" lon="3.10193">
        <ele>734.2</ele>
        <time>2022-07-12T18:03:38Z</time>
      </trkpt>
      <trkpt lat="44.06546" lon="3.10197">
        <ele>733.8</ele>
        <time>2022-07-12T18:03:39Z</time>
      </trkpt>
      <trkpt lat="44.0652" lon="3.10218">
        <ele>733.2</ele>
        <time>2022-07-12T18:03:44Z</time>
      </trkpt>
      <trkpt lat="44.06504" lon="3.10224">
        <ele>733</ele>
        <time>2022-07-12T18:03:47Z</time>
      </trkpt>
      <trkpt lat="44.065" lon="3.10224">
        <ele>733</ele>
        <time>2022-07-12T18:03:48Z</time>
      </trkpt>
      <trkpt lat="44.06482" lon="3.10222">
        <ele>732.8</ele>
        <time>2022-07-12T18:03:52Z</time>
      </trkpt>
      <trkpt lat="44.06466" lon="3.10222">
        <ele>732.4</ele>
        <time>2022-07-12T18:03:56Z</time>
      </trkpt>
      <trkpt lat="44.06444" lon="3.10228">
        <ele>732.8</ele>
        <time>2022-07-12T18:04:02Z</time>
      </trkpt>
      <trkpt lat="44.06429" lon="3.10237">
        <ele>733</ele>
        <time>2022-07-12T18:04:07Z</time>
      </trkpt>
      <trkpt lat="44.06412" lon="3.10253">
        <ele>733.6</ele>
        <time>2022-07-12T18:04:14Z</time>
      </trkpt>
      <trkpt lat="44.06394" lon="3.10269">
        <ele>734.4</ele>
        <time>2022-07-12T18:04:21Z</time>
      </trkpt>
      <trkpt lat="44.06377" lon="3.10283">
        <ele>734.6</ele>
        <time>2022-07-12T18:04:27Z</time>
      </trkpt>
      <trkpt lat="44.06374" lon="3.10285">
        <ele>734.6</ele>
        <time>2022-07-12T18:04:28Z</time>
      </trkpt>
      <trkpt lat="44.06348" lon="3.10307">
        <ele>735.2</ele>
        <time>2022-07-12T18:04:37Z</time>
      </trkpt>
      <trkpt lat="44.06326" lon="3.10327">
        <ele>735.4</ele>
        <time>2022-07-12T18:04:44Z</time>
      </trkpt>
      <trkpt lat="44.06304" lon="3.1035">
        <ele>735.4</ele>
        <time>2022-07-12T18:04:51Z</time>
      </trkpt>
      <trkpt lat="44.06284" lon="3.10364">
        <ele>735.6</ele>
        <time>2022-07-12T18:04:57Z</time>
      </trkpt>
      <trkpt lat="44.06261" lon="3.10387">
        <ele>735.4</ele>
        <time>2022-07-12T18:05:04Z</time>
      </trkpt>
      <trkpt lat="44.06236" lon="3.10422">
        <ele>735.4</ele>
        <time>2022-07-12T18:05:13Z</time>
      </trkpt>
      <trkpt lat="44.06227" lon="3.10439">
        <ele>735.6</ele>
        <time>2022-07-12T18:05:17Z</time>
      </trkpt>
      <trkpt lat="44.06209" lon="3.10467">
        <ele>736</ele>
        <time>2022-07-12T18:05:24Z</time>
      </trkpt>
      <trkpt lat="44.06185" lon="3.10486">
        <ele>736.2</ele>
        <time>2022-07-12T18:05:31Z</time>
      </trkpt>
      <trkpt lat="44.06178" lon="3.10491">
        <ele>736.4</ele>
        <time>2022-07-12T18:05:33Z</time>
      </trkpt>
      <trkpt lat="44.06171" lon="3.10497">
        <ele>736.4</ele>
        <time>2022-07-12T18:05:35Z</time>
      </trkpt>
      <trkpt lat="44.06156" lon="3.10506">
        <ele>736.8</ele>
        <time>2022-07-12T18:05:40Z</time>
      </trkpt>
      <trkpt lat="44.06139" lon="3.10508">
        <ele>737.2</ele>
        <time>2022-07-12T18:05:45Z</time>
      </trkpt>
      <trkpt lat="44.06126" lon="3.10508">
        <ele>737.6</ele>
        <time>2022-07-12T18:05:49Z</time>
      </trkpt>
      <trkpt lat="44.0611" lon="3.10511">
        <ele>737.8</ele>
        <time>2022-07-12T18:05:54Z</time>
      </trkpt>
      <trkpt lat="44.06093" lon="3.10522">
        <ele>738</ele>
        <time>2022-07-12T18:06:00Z</time>
      </trkpt>
      <trkpt lat="44.06077" lon="3.10526">
        <ele>738.4</ele>
        <time>2022-07-12T18:06:06Z</time>
      </trkpt>
      <trkpt lat="44.06055" lon="3.1052">
        <ele>739.4</ele>
        <time>2022-07-12T18:06:14Z</time>
      </trkpt>
      <trkpt lat="44.06036" lon="3.10518">
        <ele>740</ele>
        <time>2022-07-12T18:06:21Z</time>
      </trkpt>
      <trkpt lat="44.0602" lon="3.10505">
        <ele>740.4</ele>
        <time>2022-07-12T18:06:27Z</time>
      </trkpt>
      <trkpt lat="44.06003" lon="3.10501">
        <ele>740.8</ele>
        <time>2022-07-12T18:06:33Z</time>
      </trkpt>
      <trkpt lat="44.05995" lon="3.10508">
        <ele>741</ele>
        <time>2022-07-12T18:06:38Z</time>
      </trkpt>
      <trkpt lat="44.05992" lon="3.10515">
        <ele>741.8</ele>
        <time>2022-07-12T18:06:42Z</time>
      </trkpt>
      <trkpt lat="44.05992" lon="3.10515">
        <ele>741.8</ele>
        <time>2022-07-12T18:06:43Z</time>
      </trkpt>
      <trkpt lat="44.0599" lon="3.10518">
        <ele>742.2</ele>
        <time>2022-07-12T18:06:46Z</time>
      </trkpt>
      <trkpt lat="44.05989" lon="3.10522">
        <ele>742.6</ele>
        <time>2022-07-12T18:06:49Z</time>
      </trkpt>
      <trkpt lat="44.05986" lon="3.10525">
        <ele>742.8</ele>
        <time>2022-07-12T18:06:52Z</time>
      </trkpt>
      <trkpt lat="44.0598" lon="3.1053">
        <ele>743.2</ele>
        <time>2022-07-12T18:06:59Z</time>
      </trkpt>
      <trkpt lat="44.05979" lon="3.10532">
        <ele>743.6</ele>
        <time>2022-07-12T18:07:01Z</time>
      </trkpt>
      <trkpt lat="44.05972" lon="3.10541">
        <ele>744.4</ele>
        <time>2022-07-12T18:07:11Z</time>
      </trkpt>
      <trkpt lat="44.0597" lon="3.10543">
        <ele>744.6</ele>
        <time>2022-07-12T18:07:13Z</time>
      </trkpt>
      <trkpt lat="44.05964" lon="3.1055">
        <ele>745.4</ele>
        <time>2022-07-12T18:07:20Z</time>
      </trkpt>
      <trkpt lat="44.05961" lon="3.10551">
        <ele>745.8</ele>
        <time>2022-07-12T18:07:22Z</time>
      </trkpt>
      <trkpt lat="44.05954" lon="3.10555">
        <ele>746.4</ele>
        <time>2022-07-12T18:07:28Z</time>
      </trkpt>
      <trkpt lat="44.05949" lon="3.10556">
        <ele>746.6</ele>
        <time>2022-07-12T18:07:31Z</time>
      </trkpt>
      <trkpt lat="44.05947" lon="3.10559">
        <ele>746.8</ele>
        <time>2022-07-12T18:07:33Z</time>
      </trkpt>
      <trkpt lat="44.05944" lon="3.10563">
        <ele>747</ele>
        <time>2022-07-12T18:07:35Z</time>
      </trkpt>
      <trkpt lat="44.05935" lon="3.1057">
        <ele>747.4</ele>
        <time>2022-07-12T18:07:42Z</time>
      </trkpt>
      <trkpt lat="44.05928" lon="3.10572">
        <ele>747.6</ele>
        <time>2022-07-12T18:07:45Z</time>
      </trkpt>
      <trkpt lat="44.05923" lon="3.10574">
        <ele>748</ele>
        <time>2022-07-12T18:07:48Z</time>
      </trkpt>
      <trkpt lat="44.0591" lon="3.1058">
        <ele>748.6</ele>
        <time>2022-07-12T18:07:54Z</time>
      </trkpt>
      <trkpt lat="44.05908" lon="3.10581">
        <ele>749</ele>
        <time>2022-07-12T18:07:55Z</time>
      </trkpt>
      <trkpt lat="44.05897" lon="3.10587">
        <ele>749.6</ele>
        <time>2022-07-12T18:07:59Z</time>
      </trkpt>
      <trkpt lat="44.05875" lon="3.10598">
        <ele>749.8</ele>
        <time>2022-07-12T18:08:06Z</time>
      </trkpt>
      <trkpt lat="44.05852" lon="3.10616">
        <ele>749.8</ele>
        <time>2022-07-12T18:08:13Z</time>
      </trkpt>
      <trkpt lat="44.0584" lon="3.10637">
        <ele>749.8</ele>
        <time>2022-07-12T18:08:18Z</time>
      </trkpt>
      <trkpt lat="44.05823" lon="3.10669">
        <ele>749.2</ele>
        <time>2022-07-12T18:08:25Z</time>
      </trkpt>
      <trkpt lat="44.0582" lon="3.10674">
        <ele>749.2</ele>
        <time>2022-07-12T18:08:26Z</time>
      </trkpt>
      <trkpt lat="44.0581" lon="3.1069">
        <ele>748.8</ele>
        <time>2022-07-12T18:08:30Z</time>
      </trkpt>
      <trkpt lat="44.05805" lon="3.10707">
        <ele>748.6</ele>
        <time>2022-07-12T18:08:34Z</time>
      </trkpt>
      <trkpt lat="44.058" lon="3.10729">
        <ele>748.4</ele>
        <time>2022-07-12T18:08:39Z</time>
      </trkpt>
      <trkpt lat="44.05778" lon="3.10764">
        <ele>748.8</ele>
        <time>2022-07-12T18:08:48Z</time>
      </trkpt>
      <trkpt lat="44.05767" lon="3.10772">
        <ele>749.6</ele>
        <time>2022-07-12T18:08:52Z</time>
      </trkpt>
      <trkpt lat="44.05762" lon="3.10771">
        <ele>749.8</ele>
        <time>2022-07-12T18:08:56Z</time>
      </trkpt>
      <trkpt lat="44.05762" lon="3.10771">
        <ele>749.8</ele>
        <time>2022-07-12T18:08:58Z</time>
      </trkpt>
      <trkpt lat="44.05759" lon="3.10767">
        <ele>749.4</ele>
        <time>2022-07-12T18:09:24Z</time>
      </trkpt>
      <trkpt lat="44.05757" lon="3.10764">
        <ele>749.6</ele>
        <time>2022-07-12T18:09:25Z</time>
      </trkpt>
      <trkpt lat="44.05751" lon="3.10746">
        <ele>749.6</ele>
        <time>2022-07-12T18:09:30Z</time>
      </trkpt>
      <trkpt lat="44.05754" lon="3.10726">
        <ele>749.8</ele>
        <time>2022-07-12T18:09:35Z</time>
      </trkpt>
      <trkpt lat="44.05757" lon="3.10695">
        <ele>750</ele>
        <time>2022-07-12T18:09:42Z</time>
      </trkpt>
      <trkpt lat="44.05757" lon="3.10667">
        <ele>750.6</ele>
        <time>2022-07-12T18:09:50Z</time>
      </trkpt>
      <trkpt lat="44.05757" lon="3.10664">
        <ele>750.4</ele>
        <time>2022-07-12T18:09:51Z</time>
      </trkpt>
      <trkpt lat="44.05757" lon="3.10658">
        <ele>750.8</ele>
        <time>2022-07-12T18:09:53Z</time>
      </trkpt>
      <trkpt lat="44.05753" lon="3.10651">
        <ele>750.8</ele>
        <time>2022-07-12T18:09:56Z</time>
      </trkpt>
      <trkpt lat="44.05746" lon="3.10644">
        <ele>751.4</ele>
        <time>2022-07-12T18:10:01Z</time>
      </trkpt>
      <trkpt lat="44.05744" lon="3.10644">
        <ele>751.6</ele>
        <time>2022-07-12T18:10:02Z</time>
      </trkpt>
      <trkpt lat="44.05743" lon="3.10644">
        <ele>751.6</ele>
        <time>2022-07-12T18:10:03Z</time>
      </trkpt>
      <trkpt lat="44.0573" lon="3.10641">
        <ele>752.6</ele>
        <time>2022-07-12T18:10:10Z</time>
      </trkpt>
      <trkpt lat="44.05728" lon="3.10639">
        <ele>752.6</ele>
        <time>2022-07-12T18:10:11Z</time>
      </trkpt>
      <trkpt lat="44.05717" lon="3.10632">
        <ele>753.6</ele>
        <time>2022-07-12T18:10:18Z</time>
      </trkpt>
      <trkpt lat="44.05715" lon="3.10631">
        <ele>753.6</ele>
        <time>2022-07-12T18:10:19Z</time>
      </trkpt>
      <trkpt lat="44.05704" lon="3.10628">
        <ele>754.6</ele>
        <time>2022-07-12T18:10:27Z</time>
      </trkpt>
      <trkpt lat="44.05701" lon="3.10628">
        <ele>754.8</ele>
        <time>2022-07-12T18:10:29Z</time>
      </trkpt>
      <trkpt lat="44.05696" lon="3.10626">
        <ele>755</ele>
        <time>2022-07-12T18:10:33Z</time>
      </trkpt>
      <trkpt lat="44.05694" lon="3.10626">
        <ele>755.2</ele>
        <time>2022-07-12T18:10:34Z</time>
      </trkpt>
      <trkpt lat="44.0569" lon="3.10625">
        <ele>755.8</ele>
        <time>2022-07-12T18:10:39Z</time>
      </trkpt>
      <trkpt lat="44.05689" lon="3.10624">
        <ele>756.2</ele>
        <time>2022-07-12T18:10:40Z</time>
      </trkpt>
      <trkpt lat="44.05688" lon="3.10624">
        <ele>756</ele>
        <time>2022-07-12T18:10:41Z</time>
      </trkpt>
      <trkpt lat="44.05683" lon="3.10625">
        <ele>756.4</ele>
        <time>2022-07-12T18:10:47Z</time>
      </trkpt>
      <trkpt lat="44.0568" lon="3.10624">
        <ele>756.8</ele>
        <time>2022-07-12T18:10:50Z</time>
      </trkpt>
      <trkpt lat="44.05675" lon="3.10623">
        <ele>757.4</ele>
        <time>2022-07-12T18:10:57Z</time>
      </trkpt>
      <trkpt lat="44.05669" lon="3.10623">
        <ele>757.8</ele>
        <time>2022-07-12T18:11:03Z</time>
      </trkpt>
      <trkpt lat="44.05668" lon="3.10623">
        <ele>758</ele>
        <time>2022-07-12T18:11:04Z</time>
      </trkpt>
      <trkpt lat="44.05666" lon="3.10621">
        <ele>758.2</ele>
        <time>2022-07-12T18:11:06Z</time>
      </trkpt>
      <trkpt lat="44.05659" lon="3.10618">
        <ele>758.8</ele>
        <time>2022-07-12T18:11:13Z</time>
      </trkpt>
      <trkpt lat="44.05657" lon="3.10616">
        <ele>759</ele>
        <time>2022-07-12T18:11:15Z</time>
      </trkpt>
      <trkpt lat="44.05656" lon="3.10616">
        <ele>759</ele>
        <time>2022-07-12T18:11:16Z</time>
      </trkpt>
      <trkpt lat="44.05644" lon="3.1061">
        <ele>760</ele>
        <time>2022-07-12T18:11:28Z</time>
      </trkpt>
      <trkpt lat="44.05643" lon="3.10609">
        <ele>760.2</ele>
        <time>2022-07-12T18:11:29Z</time>
      </trkpt>
      <trkpt lat="44.05635" lon="3.10606">
        <ele>760.6</ele>
        <time>2022-07-12T18:11:38Z</time>
      </trkpt>
      <trkpt lat="44.05628" lon="3.10603">
        <ele>761.2</ele>
        <time>2022-07-12T18:11:46Z</time>
      </trkpt>
      <trkpt lat="44.05625" lon="3.10602">
        <ele>761.6</ele>
        <time>2022-07-12T18:11:50Z</time>
      </trkpt>
      <trkpt lat="44.05624" lon="3.10602">
        <ele>761.8</ele>
        <time>2022-07-12T18:11:54Z</time>
      </trkpt>
      <trkpt lat="44.05622" lon="3.10601">
        <ele>762</ele>
        <time>2022-07-12T18:11:58Z</time>
      </trkpt>
      <trkpt lat="44.05617" lon="3.106">
        <ele>762</ele>
        <time>2022-07-12T18:12:01Z</time>
      </trkpt>
      <trkpt lat="44.05612" lon="3.10598">
        <ele>762</ele>
        <time>2022-07-12T18:12:04Z</time>
      </trkpt>
      <trkpt lat="44.056" lon="3.10595">
        <ele>762.8</ele>
        <time>2022-07-12T18:12:11Z</time>
      </trkpt>
      <trkpt lat="44.05597" lon="3.10596">
        <ele>763</ele>
        <time>2022-07-12T18:12:13Z</time>
      </trkpt>
      <trkpt lat="44.0559" lon="3.10594">
        <ele>763.6</ele>
        <time>2022-07-12T18:12:18Z</time>
      </trkpt>
      <trkpt lat="44.05583" lon="3.10592">
        <ele>764.4</ele>
        <time>2022-07-12T18:12:23Z</time>
      </trkpt>
      <trkpt lat="44.05579" lon="3.1059">
        <ele>765</ele>
        <time>2022-07-12T18:12:26Z</time>
      </trkpt>
      <trkpt lat="44.05575" lon="3.1059">
        <ele>765.4</ele>
        <time>2022-07-12T18:12:29Z</time>
      </trkpt>
      <trkpt lat="44.05571" lon="3.10588">
        <ele>765.8</ele>
        <time>2022-07-12T18:12:33Z</time>
      </trkpt>
      <trkpt lat="44.05568" lon="3.10586">
        <ele>766.4</ele>
        <time>2022-07-12T18:12:37Z</time>
      </trkpt>
      <trkpt lat="44.05562" lon="3.10583">
        <ele>767</ele>
        <time>2022-07-12T18:12:42Z</time>
      </trkpt>
      <trkpt lat="44.0556" lon="3.10582">
        <ele>767.4</ele>
        <time>2022-07-12T18:12:44Z</time>
      </trkpt>
      <trkpt lat="44.0556" lon="3.10581">
        <ele>767.6</ele>
        <time>2022-07-12T18:12:45Z</time>
      </trkpt>
      <trkpt lat="44.05555" lon="3.10578">
        <ele>768</ele>
        <time>2022-07-12T18:12:49Z</time>
      </trkpt>
      <trkpt lat="44.0555" lon="3.10575">
        <ele>768.4</ele>
        <time>2022-07-12T18:12:53Z</time>
      </trkpt>
      <trkpt lat="44.05548" lon="3.10574">
        <ele>768.6</ele>
        <time>2022-07-12T18:12:55Z</time>
      </trkpt>
      <trkpt lat="44.05547" lon="3.10574">
        <ele>768.8</ele>
        <time>2022-07-12T18:12:56Z</time>
      </trkpt>
      <trkpt lat="44.05543" lon="3.10572">
        <ele>769.2</ele>
        <time>2022-07-12T18:13:00Z</time>
      </trkpt>
      <trkpt lat="44.05539" lon="3.1057">
        <ele>769.8</ele>
        <time>2022-07-12T18:13:03Z</time>
      </trkpt>
      <trkpt lat="44.0553" lon="3.10566">
        <ele>771</ele>
        <time>2022-07-12T18:13:11Z</time>
      </trkpt>
      <trkpt lat="44.05522" lon="3.10565">
        <ele>772.2</ele>
        <time>2022-07-12T18:13:18Z</time>
      </trkpt>
      <trkpt lat="44.05518" lon="3.10565">
        <ele>772.6</ele>
        <time>2022-07-12T18:13:21Z</time>
      </trkpt>
      <trkpt lat="44.05516" lon="3.10564">
        <ele>772.8</ele>
        <time>2022-07-12T18:13:23Z</time>
      </trkpt>
      <trkpt lat="44.05512" lon="3.10564">
        <ele>773.2</ele>
        <time>2022-07-12T18:13:27Z</time>
      </trkpt>
      <trkpt lat="44.05511" lon="3.10564">
        <ele>773.4</ele>
        <time>2022-07-12T18:13:28Z</time>
      </trkpt>
      <trkpt lat="44.05507" lon="3.10562">
        <ele>774</ele>
        <time>2022-07-12T18:13:33Z</time>
      </trkpt>
      <trkpt lat="44.05505" lon="3.10562">
        <ele>774.2</ele>
        <time>2022-07-12T18:13:34Z</time>
      </trkpt>
      <trkpt lat="44.05502" lon="3.10562">
        <ele>774.4</ele>
        <time>2022-07-12T18:13:37Z</time>
      </trkpt>
      <trkpt lat="44.05495" lon="3.10561">
        <ele>775.2</ele>
        <time>2022-07-12T18:13:43Z</time>
      </trkpt>
      <trkpt lat="44.05494" lon="3.10561">
        <ele>775.6</ele>
        <time>2022-07-12T18:13:45Z</time>
      </trkpt>
      <trkpt lat="44.0549" lon="3.1056">
        <ele>776</ele>
        <time>2022-07-12T18:13:49Z</time>
      </trkpt>
      <trkpt lat="44.05489" lon="3.1056">
        <ele>776.2</ele>
        <time>2022-07-12T18:13:50Z</time>
      </trkpt>
      <trkpt lat="44.05487" lon="3.10561">
        <ele>776.4</ele>
        <time>2022-07-12T18:13:52Z</time>
      </trkpt>
      <trkpt lat="44.0548" lon="3.10563">
        <ele>777.4</ele>
        <time>2022-07-12T18:13:58Z</time>
      </trkpt>
      <trkpt lat="44.05479" lon="3.10563">
        <ele>777.4</ele>
        <time>2022-07-12T18:13:59Z</time>
      </trkpt>
      <trkpt lat="44.05472" lon="3.10564">
        <ele>778.2</ele>
        <time>2022-07-12T18:14:05Z</time>
      </trkpt>
      <trkpt lat="44.0547" lon="3.10565">
        <ele>778.8</ele>
        <time>2022-07-12T18:14:07Z</time>
      </trkpt>
      <trkpt lat="44.0547" lon="3.10566">
        <ele>779</ele>
        <time>2022-07-12T18:14:11Z</time>
      </trkpt>
      <trkpt lat="44.05469" lon="3.10567">
        <ele>779.4</ele>
        <time>2022-07-12T18:14:14Z</time>
      </trkpt>
      <trkpt lat="44.05468" lon="3.10567">
        <ele>779.4</ele>
        <time>2022-07-12T18:14:15Z</time>
      </trkpt>
      <trkpt lat="44.05462" lon="3.1057">
        <ele>780</ele>
        <time>2022-07-12T18:14:22Z</time>
      </trkpt>
      <trkpt lat="44.05459" lon="3.1057">
        <ele>780.6</ele>
        <time>2022-07-12T18:14:25Z</time>
      </trkpt>
      <trkpt lat="44.05452" lon="3.10568">
        <ele>781.2</ele>
        <time>2022-07-12T18:14:32Z</time>
      </trkpt>
      <trkpt lat="44.05448" lon="3.10566">
        <ele>781.6</ele>
        <time>2022-07-12T18:14:36Z</time>
      </trkpt>
      <trkpt lat="44.05445" lon="3.10567">
        <ele>782.2</ele>
        <time>2022-07-12T18:14:40Z</time>
      </trkpt>
      <trkpt lat="44.05441" lon="3.1057">
        <ele>782.6</ele>
        <time>2022-07-12T18:14:46Z</time>
      </trkpt>
      <trkpt lat="44.05439" lon="3.10572">
        <ele>782.8</ele>
        <time>2022-07-12T18:14:48Z</time>
      </trkpt>
      <trkpt lat="44.05431" lon="3.10578">
        <ele>783.8</ele>
        <time>2022-07-12T18:14:57Z</time>
      </trkpt>
      <trkpt lat="44.0543" lon="3.10578">
        <ele>783.8</ele>
        <time>2022-07-12T18:14:58Z</time>
      </trkpt>
      <trkpt lat="44.05423" lon="3.10581">
        <ele>784.4</ele>
        <time>2022-07-12T18:15:05Z</time>
      </trkpt>
      <trkpt lat="44.0542" lon="3.10583">
        <ele>784.8</ele>
        <time>2022-07-12T18:15:08Z</time>
      </trkpt>
      <trkpt lat="44.05412" lon="3.10588">
        <ele>785.4</ele>
        <time>2022-07-12T18:15:16Z</time>
      </trkpt>
      <trkpt lat="44.05408" lon="3.10591">
        <ele>785.8</ele>
        <time>2022-07-12T18:15:20Z</time>
      </trkpt>
      <trkpt lat="44.05404" lon="3.10596">
        <ele>786</ele>
        <time>2022-07-12T18:15:24Z</time>
      </trkpt>
      <trkpt lat="44.05396" lon="3.106">
        <ele>786.6</ele>
        <time>2022-07-12T18:15:31Z</time>
      </trkpt>
      <trkpt lat="44.05394" lon="3.10602">
        <ele>786.8</ele>
        <time>2022-07-12T18:15:33Z</time>
      </trkpt>
      <trkpt lat="44.05385" lon="3.10609">
        <ele>787.2</ele>
        <time>2022-07-12T18:15:41Z</time>
      </trkpt>
      <trkpt lat="44.05377" lon="3.10616">
        <ele>787.4</ele>
        <time>2022-07-12T18:15:49Z</time>
      </trkpt>
      <trkpt lat="44.05371" lon="3.1062">
        <ele>787.8</ele>
        <time>2022-07-12T18:15:55Z</time>
      </trkpt>
      <trkpt lat="44.05368" lon="3.10622">
        <ele>788.2</ele>
        <time>2022-07-12T18:15:59Z</time>
      </trkpt>
      <trkpt lat="44.05364" lon="3.10629">
        <ele>788.6</ele>
        <time>2022-07-12T18:16:07Z</time>
      </trkpt>
      <trkpt lat="44.05358" lon="3.10631">
        <ele>788.8</ele>
        <time>2022-07-12T18:16:12Z</time>
      </trkpt>
      <trkpt lat="44.05357" lon="3.10631">
        <ele>789</ele>
        <time>2022-07-12T18:16:13Z</time>
      </trkpt>
      <trkpt lat="44.05348" lon="3.10635">
        <ele>789.6</ele>
        <time>2022-07-12T18:16:22Z</time>
      </trkpt>
      <trkpt lat="44.05345" lon="3.10637">
        <ele>790</ele>
        <time>2022-07-12T18:16:25Z</time>
      </trkpt>
      <trkpt lat="44.05339" lon="3.1064">
        <ele>790.4</ele>
        <time>2022-07-12T18:16:32Z</time>
      </trkpt>
      <trkpt lat="44.05338" lon="3.10641">
        <ele>790.6</ele>
        <time>2022-07-12T18:16:33Z</time>
      </trkpt>
      <trkpt lat="44.05335" lon="3.10642">
        <ele>791</ele>
        <time>2022-07-12T18:16:36Z</time>
      </trkpt>
      <trkpt lat="44.05331" lon="3.10646">
        <ele>791.2</ele>
        <time>2022-07-12T18:16:41Z</time>
      </trkpt>
      <trkpt lat="44.05327" lon="3.10648">
        <ele>791.8</ele>
        <time>2022-07-12T18:16:45Z</time>
      </trkpt>
      <trkpt lat="44.05325" lon="3.1065">
        <ele>792</ele>
        <time>2022-07-12T18:16:48Z</time>
      </trkpt>
      <trkpt lat="44.05318" lon="3.10657">
        <ele>792.8</ele>
        <time>2022-07-12T18:16:55Z</time>
      </trkpt>
      <trkpt lat="44.05315" lon="3.10659">
        <ele>793</ele>
        <time>2022-07-12T18:16:58Z</time>
      </trkpt>
      <trkpt lat="44.05311" lon="3.10664">
        <ele>793.4</ele>
        <time>2022-07-12T18:17:03Z</time>
      </trkpt>
      <trkpt lat="44.05311" lon="3.10669">
        <ele>793.6</ele>
        <time>2022-07-12T18:17:06Z</time>
      </trkpt>
      <trkpt lat="44.05311" lon="3.10671">
        <ele>793.8</ele>
        <time>2022-07-12T18:17:08Z</time>
      </trkpt>
      <trkpt lat="44.05311" lon="3.10673">
        <ele>793.8</ele>
        <time>2022-07-12T18:17:09Z</time>
      </trkpt>
      <trkpt lat="44.05311" lon="3.10678">
        <ele>794.4</ele>
        <time>2022-07-12T18:17:14Z</time>
      </trkpt>
      <trkpt lat="44.05312" lon="3.10683">
        <ele>794.8</ele>
        <time>2022-07-12T18:17:19Z</time>
      </trkpt>
      <trkpt lat="44.05313" lon="3.10687">
        <ele>795</ele>
        <time>2022-07-12T18:17:22Z</time>
      </trkpt>
      <trkpt lat="44.05315" lon="3.10698">
        <ele>795.8</ele>
        <time>2022-07-12T18:17:30Z</time>
      </trkpt>
      <trkpt lat="44.05315" lon="3.107">
        <ele>796.2</ele>
        <time>2022-07-12T18:17:32Z</time>
      </trkpt>
      <trkpt lat="44.05315" lon="3.10706">
        <ele>796.8</ele>
        <time>2022-07-12T18:17:36Z</time>
      </trkpt>
      <trkpt lat="44.05315" lon="3.10707">
        <ele>797</ele>
        <time>2022-07-12T18:17:37Z</time>
      </trkpt>
      <trkpt lat="44.05315" lon="3.10711">
        <ele>797.2</ele>
        <time>2022-07-12T18:17:40Z</time>
      </trkpt>
      <trkpt lat="44.05317" lon="3.10718">
        <ele>797.8</ele>
        <time>2022-07-12T18:17:47Z</time>
      </trkpt>
      <trkpt lat="44.05317" lon="3.1072">
        <ele>798</ele>
        <time>2022-07-12T18:17:49Z</time>
      </trkpt>
      <trkpt lat="44.05319" lon="3.10725">
        <ele>798.6</ele>
        <time>2022-07-12T18:17:55Z</time>
      </trkpt>
      <trkpt lat="44.05319" lon="3.10729">
        <ele>799.2</ele>
        <time>2022-07-12T18:17:58Z</time>
      </trkpt>
      <trkpt lat="44.05319" lon="3.10735">
        <ele>799.8</ele>
        <time>2022-07-12T18:18:02Z</time>
      </trkpt>
      <trkpt lat="44.05319" lon="3.10739">
        <ele>800.2</ele>
        <time>2022-07-12T18:18:05Z</time>
      </trkpt>
      <trkpt lat="44.05319" lon="3.10741">
        <ele>800.2</ele>
        <time>2022-07-12T18:18:07Z</time>
      </trkpt>
      <trkpt lat="44.05319" lon="3.10753">
        <ele>801</ele>
        <time>2022-07-12T18:18:15Z</time>
      </trkpt>
      <trkpt lat="44.05319" lon="3.10755">
        <ele>801.2</ele>
        <time>2022-07-12T18:18:17Z</time>
      </trkpt>
      <trkpt lat="44.05318" lon="3.10768">
        <ele>802.2</ele>
        <time>2022-07-12T18:18:26Z</time>
      </trkpt>
      <trkpt lat="44.05318" lon="3.10772">
        <ele>802.4</ele>
        <time>2022-07-12T18:18:28Z</time>
      </trkpt>
      <trkpt lat="44.05319" lon="3.10779">
        <ele>803</ele>
        <time>2022-07-12T18:18:34Z</time>
      </trkpt>
      <trkpt lat="44.05327" lon="3.10785">
        <ele>803.4</ele>
        <time>2022-07-12T18:18:42Z</time>
      </trkpt>
      <trkpt lat="44.05329" lon="3.10787">
        <ele>803.6</ele>
        <time>2022-07-12T18:18:46Z</time>
      </trkpt>
      <trkpt lat="44.05328" lon="3.10789">
        <ele>803.8</ele>
        <time>2022-07-12T18:19:32Z</time>
      </trkpt>
      <trkpt lat="44.0532" lon="3.10795">
        <ele>804</ele>
        <time>2022-07-12T18:19:40Z</time>
      </trkpt>
      <trkpt lat="44.05315" lon="3.10801">
        <ele>804.4</ele>
        <time>2022-07-12T18:19:46Z</time>
      </trkpt>
      <trkpt lat="44.05314" lon="3.10802">
        <ele>804.4</ele>
        <time>2022-07-12T18:19:47Z</time>
      </trkpt>
      <trkpt lat="44.05314" lon="3.10806">
        <ele>804.6</ele>
        <time>2022-07-12T18:19:50Z</time>
      </trkpt>
      <trkpt lat="44.05311" lon="3.10816">
        <ele>805.4</ele>
        <time>2022-07-12T18:19:57Z</time>
      </trkpt>
      <trkpt lat="44.0531" lon="3.1082">
        <ele>805.8</ele>
        <time>2022-07-12T18:20:01Z</time>
      </trkpt>
      <trkpt lat="44.05307" lon="3.10832">
        <ele>806.4</ele>
        <time>2022-07-12T18:20:10Z</time>
      </trkpt>
      <trkpt lat="44.05307" lon="3.10835">
        <ele>806.6</ele>
        <time>2022-07-12T18:20:12Z</time>
      </trkpt>
      <trkpt lat="44.05305" lon="3.10844">
        <ele>807.6</ele>
        <time>2022-07-12T18:20:20Z</time>
      </trkpt>
      <trkpt lat="44.05305" lon="3.10848">
        <ele>807.6</ele>
        <time>2022-07-12T18:20:23Z</time>
      </trkpt>
      <trkpt lat="44.05303" lon="3.1086">
        <ele>808.6</ele>
        <time>2022-07-12T18:20:32Z</time>
      </trkpt>
      <trkpt lat="44.05303" lon="3.10861">
        <ele>808.6</ele>
        <time>2022-07-12T18:20:33Z</time>
      </trkpt>
      <trkpt lat="44.05299" lon="3.10876">
        <ele>809.6</ele>
        <time>2022-07-12T18:20:44Z</time>
      </trkpt>
      <trkpt lat="44.05297" lon="3.10882">
        <ele>810</ele>
        <time>2022-07-12T18:20:49Z</time>
      </trkpt>
      <trkpt lat="44.05296" lon="3.10883">
        <ele>810.2</ele>
        <time>2022-07-12T18:20:51Z</time>
      </trkpt>
      <trkpt lat="44.05295" lon="3.1089">
        <ele>810.8</ele>
        <time>2022-07-12T18:20:56Z</time>
      </trkpt>
      <trkpt lat="44.05294" lon="3.10895">
        <ele>811.2</ele>
        <time>2022-07-12T18:21:01Z</time>
      </trkpt>
      <trkpt lat="44.05293" lon="3.10902">
        <ele>811.8</ele>
        <time>2022-07-12T18:21:06Z</time>
      </trkpt>
      <trkpt lat="44.05292" lon="3.10913">
        <ele>812.6</ele>
        <time>2022-07-12T18:21:14Z</time>
      </trkpt>
      <trkpt lat="44.05291" lon="3.10917">
        <ele>812.8</ele>
        <time>2022-07-12T18:21:18Z</time>
      </trkpt>
      <trkpt lat="44.05289" lon="3.10925">
        <ele>813.8</ele>
        <time>2022-07-12T18:21:24Z</time>
      </trkpt>
      <trkpt lat="44.05289" lon="3.10926">
        <ele>813.8</ele>
        <time>2022-07-12T18:21:25Z</time>
      </trkpt>
      <trkpt lat="44.05289" lon="3.10929">
        <ele>814</ele>
        <time>2022-07-12T18:21:27Z</time>
      </trkpt>
      <trkpt lat="44.05288" lon="3.10934">
        <ele>814.4</ele>
        <time>2022-07-12T18:21:31Z</time>
      </trkpt>
      <trkpt lat="44.05285" lon="3.10941">
        <ele>815</ele>
        <time>2022-07-12T18:21:36Z</time>
      </trkpt>
      <trkpt lat="44.05283" lon="3.10948">
        <ele>815.6</ele>
        <time>2022-07-12T18:21:42Z</time>
      </trkpt>
      <trkpt lat="44.05281" lon="3.10955">
        <ele>816</ele>
        <time>2022-07-12T18:21:47Z</time>
      </trkpt>
      <trkpt lat="44.05281" lon="3.10959">
        <ele>816.4</ele>
        <time>2022-07-12T18:21:51Z</time>
      </trkpt>
      <trkpt lat="44.05279" lon="3.10961">
        <ele>816.6</ele>
        <time>2022-07-12T18:21:53Z</time>
      </trkpt>
      <trkpt lat="44.05277" lon="3.10968">
        <ele>816.8</ele>
        <time>2022-07-12T18:21:57Z</time>
      </trkpt>
      <trkpt lat="44.05275" lon="3.10973">
        <ele>816.8</ele>
        <time>2022-07-12T18:22:00Z</time>
      </trkpt>
      <trkpt lat="44.05272" lon="3.10981">
        <ele>816.8</ele>
        <time>2022-07-12T18:22:04Z</time>
      </trkpt>
      <trkpt lat="44.05267" lon="3.10992">
        <ele>817</ele>
        <time>2022-07-12T18:22:09Z</time>
      </trkpt>
      <trkpt lat="44.05261" lon="3.10996">
        <ele>817.2</ele>
        <time>2022-07-12T18:22:12Z</time>
      </trkpt>
      <trkpt lat="44.05246" lon="3.1101">
        <ele>817.6</ele>
        <time>2022-07-12T18:22:19Z</time>
      </trkpt>
      <trkpt lat="44.05231" lon="3.11025">
        <ele>818</ele>
        <time>2022-07-12T18:22:26Z</time>
      </trkpt>
      <trkpt lat="44.05228" lon="3.11027">
        <ele>818</ele>
        <time>2022-07-12T18:22:27Z</time>
      </trkpt>
      <trkpt lat="44.05221" lon="3.11036">
        <ele>818.4</ele>
        <time>2022-07-12T18:22:32Z</time>
      </trkpt>
      <trkpt lat="44.05211" lon="3.11051">
        <ele>819</ele>
        <time>2022-07-12T18:22:39Z</time>
      </trkpt>
      <trkpt lat="44.05209" lon="3.11053">
        <ele>819</ele>
        <time>2022-07-12T18:22:40Z</time>
      </trkpt>
      <trkpt lat="44.05201" lon="3.11064">
        <ele>819.4</ele>
        <time>2022-07-12T18:22:45Z</time>
      </trkpt>
      <trkpt lat="44.05193" lon="3.11074">
        <ele>819.8</ele>
        <time>2022-07-12T18:22:52Z</time>
      </trkpt>
      <trkpt lat="44.05191" lon="3.11076">
        <ele>820</ele>
        <time>2022-07-12T18:22:54Z</time>
      </trkpt>
      <trkpt lat="44.05184" lon="3.11084">
        <ele>821</ele>
        <time>2022-07-12T18:23:01Z</time>
      </trkpt>
      <trkpt lat="44.05184" lon="3.11086">
        <ele>821.2</ele>
        <time>2022-07-12T18:23:03Z</time>
      </trkpt>
      <trkpt lat="44.05178" lon="3.11091">
        <ele>822</ele>
        <time>2022-07-12T18:23:09Z</time>
      </trkpt>
      <trkpt lat="44.05177" lon="3.11092">
        <ele>822.2</ele>
        <time>2022-07-12T18:23:10Z</time>
      </trkpt>
      <trkpt lat="44.0517" lon="3.11095">
        <ele>823.4</ele>
        <time>2022-07-12T18:23:17Z</time>
      </trkpt>
      <trkpt lat="44.0516" lon="3.11103">
        <ele>824.4</ele>
        <time>2022-07-12T18:23:26Z</time>
      </trkpt>
      <trkpt lat="44.0516" lon="3.11105">
        <ele>824.6</ele>
        <time>2022-07-12T18:23:27Z</time>
      </trkpt>
      <trkpt lat="44.05153" lon="3.1112">
        <ele>825.4</ele>
        <time>2022-07-12T18:23:36Z</time>
      </trkpt>
      <trkpt lat="44.05149" lon="3.1113">
        <ele>826</ele>
        <time>2022-07-12T18:23:43Z</time>
      </trkpt>
      <trkpt lat="44.05146" lon="3.11131">
        <ele>826.4</ele>
        <time>2022-07-12T18:24:05Z</time>
      </trkpt>
      <trkpt lat="44.05142" lon="3.11134">
        <ele>826.4</ele>
        <time>2022-07-12T18:24:08Z</time>
      </trkpt>
      <trkpt lat="44.05139" lon="3.11137">
        <ele>826.6</ele>
        <time>2022-07-12T18:24:10Z</time>
      </trkpt>
      <trkpt lat="44.0513" lon="3.11144">
        <ele>826.6</ele>
        <time>2022-07-12T18:24:14Z</time>
      </trkpt>
      <trkpt lat="44.05113" lon="3.11152">
        <ele>826.2</ele>
        <time>2022-07-12T18:24:19Z</time>
      </trkpt>
      <trkpt lat="44.05104" lon="3.11156">
        <ele>826.2</ele>
        <time>2022-07-12T18:24:21Z</time>
      </trkpt>
      <trkpt lat="44.05091" lon="3.11165">
        <ele>826</ele>
        <time>2022-07-12T18:24:24Z</time>
      </trkpt>
      <trkpt lat="44.05087" lon="3.11169">
        <ele>825.8</ele>
        <time>2022-07-12T18:24:25Z</time>
      </trkpt>
      <trkpt lat="44.0508" lon="3.11177">
        <ele>825.6</ele>
        <time>2022-07-12T18:24:27Z</time>
      </trkpt>
      <trkpt lat="44.05076" lon="3.11181">
        <ele>824.8</ele>
        <time>2022-07-12T18:24:28Z</time>
      </trkpt>
      <trkpt lat="44.05066" lon="3.11189">
        <ele>824.2</ele>
        <time>2022-07-12T18:24:30Z</time>
      </trkpt>
      <trkpt lat="44.05059" lon="3.11198">
        <ele>823.8</ele>
        <time>2022-07-12T18:24:32Z</time>
      </trkpt>
      <trkpt lat="44.05055" lon="3.11202">
        <ele>823.6</ele>
        <time>2022-07-12T18:24:33Z</time>
      </trkpt>
      <trkpt lat="44.05052" lon="3.11207">
        <ele>823.2</ele>
        <time>2022-07-12T18:24:34Z</time>
      </trkpt>
      <trkpt lat="44.05048" lon="3.11213">
        <ele>822.8</ele>
        <time>2022-07-12T18:24:35Z</time>
      </trkpt>
      <trkpt lat="44.05036" lon="3.11226">
        <ele>822.2</ele>
        <time>2022-07-12T18:24:38Z</time>
      </trkpt>
      <trkpt lat="44.05032" lon="3.1123">
        <ele>822.2</ele>
        <time>2022-07-12T18:24:39Z</time>
      </trkpt>
      <trkpt lat="44.05004" lon="3.11251">
        <ele>821.8</ele>
        <time>2022-07-12T18:24:46Z</time>
      </trkpt>
      <trkpt lat="44.04982" lon="3.11272">
        <ele>821</ele>
        <time>2022-07-12T18:24:52Z</time>
      </trkpt>
      <trkpt lat="44.04979" lon="3.11276">
        <ele>821</ele>
        <time>2022-07-12T18:24:53Z</time>
      </trkpt>
      <trkpt lat="44.0497" lon="3.11288">
        <ele>820.8</ele>
        <time>2022-07-12T18:24:56Z</time>
      </trkpt>
      <trkpt lat="44.04964" lon="3.11296">
        <ele>820.4</ele>
        <time>2022-07-12T18:24:58Z</time>
      </trkpt>
      <trkpt lat="44.04961" lon="3.113">
        <ele>820.4</ele>
        <time>2022-07-12T18:24:59Z</time>
      </trkpt>
      <trkpt lat="44.04957" lon="3.11308">
        <ele>820</ele>
        <time>2022-07-12T18:25:01Z</time>
      </trkpt>
      <trkpt lat="44.04955" lon="3.11313">
        <ele>819.8</ele>
        <time>2022-07-12T18:25:02Z</time>
      </trkpt>
      <trkpt lat="44.04953" lon="3.11322">
        <ele>819.6</ele>
        <time>2022-07-12T18:25:04Z</time>
      </trkpt>
      <trkpt lat="44.04948" lon="3.11345">
        <ele>819</ele>
        <time>2022-07-12T18:25:09Z</time>
      </trkpt>
      <trkpt lat="44.04945" lon="3.1135">
        <ele>818.8</ele>
        <time>2022-07-12T18:25:10Z</time>
      </trkpt>
      <trkpt lat="44.04941" lon="3.11363">
        <ele>818.2</ele>
        <time>2022-07-12T18:25:12Z</time>
      </trkpt>
      <trkpt lat="44.04938" lon="3.11376">
        <ele>817.8</ele>
        <time>2022-07-12T18:25:14Z</time>
      </trkpt>
      <trkpt lat="44.04936" lon="3.11384">
        <ele>817.6</ele>
        <time>2022-07-12T18:25:15Z</time>
      </trkpt>
      <trkpt lat="44.04927" lon="3.11406">
        <ele>816.4</ele>
        <time>2022-07-12T18:25:18Z</time>
      </trkpt>
      <trkpt lat="44.04921" lon="3.1142">
        <ele>815.6</ele>
        <time>2022-07-12T18:25:20Z</time>
      </trkpt>
      <trkpt lat="44.04914" lon="3.11434">
        <ele>815.4</ele>
        <time>2022-07-12T18:25:22Z</time>
      </trkpt>
      <trkpt lat="44.04905" lon="3.11455">
        <ele>814.4</ele>
        <time>2022-07-12T18:25:25Z</time>
      </trkpt>
      <trkpt lat="44.04903" lon="3.11463">
        <ele>814.2</ele>
        <time>2022-07-12T18:25:26Z</time>
      </trkpt>
      <trkpt lat="44.04901" lon="3.1147">
        <ele>814.2</ele>
        <time>2022-07-12T18:25:27Z</time>
      </trkpt>
      <trkpt lat="44.049" lon="3.11477">
        <ele>814</ele>
        <time>2022-07-12T18:25:28Z</time>
      </trkpt>
      <trkpt lat="44.04898" lon="3.11488">
        <ele>813.8</ele>
        <time>2022-07-12T18:25:30Z</time>
      </trkpt>
      <trkpt lat="44.04895" lon="3.11497">
        <ele>813.6</ele>
        <time>2022-07-12T18:25:32Z</time>
      </trkpt>
      <trkpt lat="44.04894" lon="3.11502">
        <ele>813.2</ele>
        <time>2022-07-12T18:25:35Z</time>
      </trkpt>
      <trkpt lat="44.04894" lon="3.11502">
        <ele>813.2</ele>
        <time>2022-07-12T18:25:36Z</time>
      </trkpt>
      <trkpt lat="44.04895" lon="3.11505">
        <ele>813</ele>
        <time>2022-07-12T18:26:01Z</time>
      </trkpt>
      <trkpt lat="44.04894" lon="3.11515">
        <ele>813</ele>
        <time>2022-07-12T18:26:04Z</time>
      </trkpt>
      <trkpt lat="44.04885" lon="3.11547">
        <ele>812</ele>
        <time>2022-07-12T18:26:11Z</time>
      </trkpt>
      <trkpt lat="44.04874" lon="3.11569">
        <ele>811.2</ele>
        <time>2022-07-12T18:26:16Z</time>
      </trkpt>
      <trkpt lat="44.04873" lon="3.11573">
        <ele>811.2</ele>
        <time>2022-07-12T18:26:17Z</time>
      </trkpt>
      <trkpt lat="44.04871" lon="3.11582">
        <ele>810.8</ele>
        <time>2022-07-12T18:26:19Z</time>
      </trkpt>
      <trkpt lat="44.04869" lon="3.1159">
        <ele>810.2</ele>
        <time>2022-07-12T18:26:21Z</time>
      </trkpt>
      <trkpt lat="44.04869" lon="3.11598">
        <ele>809.4</ele>
        <time>2022-07-12T18:26:23Z</time>
      </trkpt>
      <trkpt lat="44.04865" lon="3.11613">
        <ele>808.8</ele>
        <time>2022-07-12T18:26:26Z</time>
      </trkpt>
      <trkpt lat="44.0486" lon="3.11623">
        <ele>808</ele>
        <time>2022-07-12T18:26:28Z</time>
      </trkpt>
      <trkpt lat="44.04854" lon="3.11632">
        <ele>807.4</ele>
        <time>2022-07-12T18:26:30Z</time>
      </trkpt>
      <trkpt lat="44.04851" lon="3.11635">
        <ele>807.4</ele>
        <time>2022-07-12T18:26:31Z</time>
      </trkpt>
      <trkpt lat="44.0484" lon="3.11646">
        <ele>806.8</ele>
        <time>2022-07-12T18:26:34Z</time>
      </trkpt>
      <trkpt lat="44.04834" lon="3.11656">
        <ele>806.4</ele>
        <time>2022-07-12T18:26:36Z</time>
      </trkpt>
      <trkpt lat="44.04832" lon="3.11662">
        <ele>806.2</ele>
        <time>2022-07-12T18:26:37Z</time>
      </trkpt>
      <trkpt lat="44.04826" lon="3.11684">
        <ele>805.8</ele>
        <time>2022-07-12T18:26:41Z</time>
      </trkpt>
      <trkpt lat="44.04826" lon="3.11689">
        <ele>805.6</ele>
        <time>2022-07-12T18:26:42Z</time>
      </trkpt>
      <trkpt lat="44.04824" lon="3.11699">
        <ele>804.8</ele>
        <time>2022-07-12T18:26:44Z</time>
      </trkpt>
      <trkpt lat="44.04822" lon="3.11705">
        <ele>804.4</ele>
        <time>2022-07-12T18:26:45Z</time>
      </trkpt>
      <trkpt lat="44.04816" lon="3.11727">
        <ele>803.2</ele>
        <time>2022-07-12T18:26:49Z</time>
      </trkpt>
      <trkpt lat="44.04814" lon="3.11733">
        <ele>802.6</ele>
        <time>2022-07-12T18:26:50Z</time>
      </trkpt>
      <trkpt lat="44.04811" lon="3.11745">
        <ele>802.2</ele>
        <time>2022-07-12T18:26:52Z</time>
      </trkpt>
      <trkpt lat="44.04809" lon="3.11751">
        <ele>802</ele>
        <time>2022-07-12T18:26:53Z</time>
      </trkpt>
      <trkpt lat="44.0481" lon="3.11763">
        <ele>801.8</ele>
        <time>2022-07-12T18:26:55Z</time>
      </trkpt>
      <trkpt lat="44.04811" lon="3.11776">
        <ele>801.8</ele>
        <time>2022-07-12T18:26:57Z</time>
      </trkpt>
      <trkpt lat="44.04809" lon="3.1179">
        <ele>801.6</ele>
        <time>2022-07-12T18:27:00Z</time>
      </trkpt>
      <trkpt lat="44.04813" lon="3.11805">
        <ele>801.4</ele>
        <time>2022-07-12T18:27:03Z</time>
      </trkpt>
      <trkpt lat="44.04813" lon="3.11818">
        <ele>801.2</ele>
        <time>2022-07-12T18:27:05Z</time>
      </trkpt>
      <trkpt lat="44.04811" lon="3.11831">
        <ele>800.6</ele>
        <time>2022-07-12T18:27:07Z</time>
      </trkpt>
      <trkpt lat="44.04808" lon="3.11858">
        <ele>799.8</ele>
        <time>2022-07-12T18:27:11Z</time>
      </trkpt>
      <trkpt lat="44.04808" lon="3.11864">
        <ele>799.6</ele>
        <time>2022-07-12T18:27:12Z</time>
      </trkpt>
      <trkpt lat="44.04808" lon="3.11871">
        <ele>799.6</ele>
        <time>2022-07-12T18:27:13Z</time>
      </trkpt>
      <trkpt lat="44.04808" lon="3.11884">
        <ele>799.4</ele>
        <time>2022-07-12T18:27:15Z</time>
      </trkpt>
      <trkpt lat="44.04805" lon="3.11896">
        <ele>799.4</ele>
        <time>2022-07-12T18:27:17Z</time>
      </trkpt>
      <trkpt lat="44.04803" lon="3.11909">
        <ele>799.4</ele>
        <time>2022-07-12T18:27:19Z</time>
      </trkpt>
      <trkpt lat="44.04803" lon="3.1193">
        <ele>799.4</ele>
        <time>2022-07-12T18:27:22Z</time>
      </trkpt>
      <trkpt lat="44.04806" lon="3.11982">
        <ele>798.8</ele>
        <time>2022-07-12T18:27:30Z</time>
      </trkpt>
      <trkpt lat="44.04806" lon="3.11996">
        <ele>798.6</ele>
        <time>2022-07-12T18:27:32Z</time>
      </trkpt>
      <trkpt lat="44.04805" lon="3.12016">
        <ele>798.4</ele>
        <time>2022-07-12T18:27:35Z</time>
      </trkpt>
      <trkpt lat="44.04804" lon="3.12022">
        <ele>798.4</ele>
        <time>2022-07-12T18:27:36Z</time>
      </trkpt>
      <trkpt lat="44.04802" lon="3.12042">
        <ele>798.4</ele>
        <time>2022-07-12T18:27:40Z</time>
      </trkpt>
      <trkpt lat="44.04801" lon="3.12069">
        <ele>798.4</ele>
        <time>2022-07-12T18:27:45Z</time>
      </trkpt>
      <trkpt lat="44.04794" lon="3.12111">
        <ele>798.6</ele>
        <time>2022-07-12T18:27:53Z</time>
      </trkpt>
      <trkpt lat="44.04787" lon="3.12139">
        <ele>799</ele>
        <time>2022-07-12T18:27:59Z</time>
      </trkpt>
      <trkpt lat="44.04772" lon="3.12165">
        <ele>799.6</ele>
        <time>2022-07-12T18:28:05Z</time>
      </trkpt>
      <trkpt lat="44.04763" lon="3.12178">
        <ele>799.6</ele>
        <time>2022-07-12T18:28:08Z</time>
      </trkpt>
      <trkpt lat="44.04754" lon="3.12191">
        <ele>799.6</ele>
        <time>2022-07-12T18:28:11Z</time>
      </trkpt>
      <trkpt lat="44.04751" lon="3.12194">
        <ele>799.6</ele>
        <time>2022-07-12T18:28:12Z</time>
      </trkpt>
      <trkpt lat="44.04747" lon="3.12198">
        <ele>799.6</ele>
        <time>2022-07-12T18:28:13Z</time>
      </trkpt>
      <trkpt lat="44.04742" lon="3.12208">
        <ele>799.6</ele>
        <time>2022-07-12T18:28:15Z</time>
      </trkpt>
      <trkpt lat="44.04736" lon="3.12218">
        <ele>799.6</ele>
        <time>2022-07-12T18:28:17Z</time>
      </trkpt>
      <trkpt lat="44.0472" lon="3.12231">
        <ele>799</ele>
        <time>2022-07-12T18:28:21Z</time>
      </trkpt>
      <trkpt lat="44.04695" lon="3.1226">
        <ele>797.6</ele>
        <time>2022-07-12T18:28:27Z</time>
      </trkpt>
      <trkpt lat="44.04686" lon="3.12271">
        <ele>797</ele>
        <time>2022-07-12T18:28:29Z</time>
      </trkpt>
      <trkpt lat="44.04671" lon="3.12282">
        <ele>796.6</ele>
        <time>2022-07-12T18:28:32Z</time>
      </trkpt>
      <trkpt lat="44.04666" lon="3.12287">
        <ele>796.4</ele>
        <time>2022-07-12T18:28:33Z</time>
      </trkpt>
      <trkpt lat="44.04654" lon="3.12302">
        <ele>795</ele>
        <time>2022-07-12T18:28:36Z</time>
      </trkpt>
      <trkpt lat="44.04651" lon="3.12308">
        <ele>794.8</ele>
        <time>2022-07-12T18:28:37Z</time>
      </trkpt>
      <trkpt lat="44.04641" lon="3.12322">
        <ele>793.8</ele>
        <time>2022-07-12T18:28:40Z</time>
      </trkpt>
      <trkpt lat="44.04629" lon="3.12334">
        <ele>792.6</ele>
        <time>2022-07-12T18:28:43Z</time>
      </trkpt>
      <trkpt lat="44.04625" lon="3.12338">
        <ele>792.4</ele>
        <time>2022-07-12T18:28:44Z</time>
      </trkpt>
      <trkpt lat="44.04617" lon="3.12356">
        <ele>791.2</ele>
        <time>2022-07-12T18:28:47Z</time>
      </trkpt>
      <trkpt lat="44.04611" lon="3.12369">
        <ele>790.8</ele>
        <time>2022-07-12T18:28:49Z</time>
      </trkpt>
      <trkpt lat="44.04606" lon="3.12381">
        <ele>790.4</ele>
        <time>2022-07-12T18:28:51Z</time>
      </trkpt>
      <trkpt lat="44.04602" lon="3.12385">
        <ele>790</ele>
        <time>2022-07-12T18:28:52Z</time>
      </trkpt>
      <trkpt lat="44.04597" lon="3.12389">
        <ele>789.8</ele>
        <time>2022-07-12T18:28:53Z</time>
      </trkpt>
      <trkpt lat="44.04583" lon="3.12403">
        <ele>788.8</ele>
        <time>2022-07-12T18:28:56Z</time>
      </trkpt>
      <trkpt lat="44.04577" lon="3.12406">
        <ele>788.6</ele>
        <time>2022-07-12T18:28:57Z</time>
      </trkpt>
      <trkpt lat="44.04568" lon="3.12414">
        <ele>788</ele>
        <time>2022-07-12T18:28:59Z</time>
      </trkpt>
      <trkpt lat="44.04559" lon="3.1242">
        <ele>787.8</ele>
        <time>2022-07-12T18:29:01Z</time>
      </trkpt>
      <trkpt lat="44.04554" lon="3.12423">
        <ele>787.8</ele>
        <time>2022-07-12T18:29:02Z</time>
      </trkpt>
      <trkpt lat="44.0455" lon="3.12425">
        <ele>787</ele>
        <time>2022-07-12T18:29:03Z</time>
      </trkpt>
      <trkpt lat="44.04545" lon="3.12428">
        <ele>786.8</ele>
        <time>2022-07-12T18:29:04Z</time>
      </trkpt>
      <trkpt lat="44.04526" lon="3.12442">
        <ele>786</ele>
        <time>2022-07-12T18:29:08Z</time>
      </trkpt>
      <trkpt lat="44.04522" lon="3.12447">
        <ele>785.8</ele>
        <time>2022-07-12T18:29:09Z</time>
      </trkpt>
      <trkpt lat="44.04518" lon="3.12452">
        <ele>785.6</ele>
        <time>2022-07-12T18:29:10Z</time>
      </trkpt>
      <trkpt lat="44.04508" lon="3.12469">
        <ele>784.6</ele>
        <time>2022-07-12T18:29:13Z</time>
      </trkpt>
      <trkpt lat="44.04504" lon="3.12474">
        <ele>784.2</ele>
        <time>2022-07-12T18:29:14Z</time>
      </trkpt>
      <trkpt lat="44.04495" lon="3.12482">
        <ele>784</ele>
        <time>2022-07-12T18:29:16Z</time>
      </trkpt>
      <trkpt lat="44.04486" lon="3.12491">
        <ele>783.8</ele>
        <time>2022-07-12T18:29:18Z</time>
      </trkpt>
      <trkpt lat="44.04477" lon="3.12499">
        <ele>783.8</ele>
        <time>2022-07-12T18:29:20Z</time>
      </trkpt>
      <trkpt lat="44.04472" lon="3.12502">
        <ele>783.8</ele>
        <time>2022-07-12T18:29:21Z</time>
      </trkpt>
      <trkpt lat="44.04453" lon="3.12512">
        <ele>783.4</ele>
        <time>2022-07-12T18:29:25Z</time>
      </trkpt>
      <trkpt lat="44.04442" lon="3.12513">
        <ele>783</ele>
        <time>2022-07-12T18:29:27Z</time>
      </trkpt>
      <trkpt lat="44.04433" lon="3.12513">
        <ele>782.8</ele>
        <time>2022-07-12T18:29:29Z</time>
      </trkpt>
      <trkpt lat="44.04422" lon="3.12515">
        <ele>782.4</ele>
        <time>2022-07-12T18:29:32Z</time>
      </trkpt>
      <trkpt lat="44.04419" lon="3.12515">
        <ele>782.2</ele>
        <time>2022-07-12T18:29:33Z</time>
      </trkpt>
      <trkpt lat="44.044" lon="3.12525">
        <ele>781.8</ele>
        <time>2022-07-12T18:29:39Z</time>
      </trkpt>
      <trkpt lat="44.04383" lon="3.12546">
        <ele>781.8</ele>
        <time>2022-07-12T18:29:45Z</time>
      </trkpt>
      <trkpt lat="44.04367" lon="3.12562">
        <ele>781.8</ele>
        <time>2022-07-12T18:29:50Z</time>
      </trkpt>
      <trkpt lat="44.0435" lon="3.1258">
        <ele>781.6</ele>
        <time>2022-07-12T18:29:55Z</time>
      </trkpt>
      <trkpt lat="44.04344" lon="3.12589">
        <ele>781.6</ele>
        <time>2022-07-12T18:29:57Z</time>
      </trkpt>
      <trkpt lat="44.04329" lon="3.12606">
        <ele>781.6</ele>
        <time>2022-07-12T18:30:02Z</time>
      </trkpt>
      <trkpt lat="44.0431" lon="3.1263">
        <ele>782</ele>
        <time>2022-07-12T18:30:09Z</time>
      </trkpt>
      <trkpt lat="44.04304" lon="3.12639">
        <ele>782.2</ele>
        <time>2022-07-12T18:30:11Z</time>
      </trkpt>
      <trkpt lat="44.04292" lon="3.12652">
        <ele>782.4</ele>
        <time>2022-07-12T18:30:15Z</time>
      </trkpt>
      <trkpt lat="44.0428" lon="3.12673">
        <ele>782.4</ele>
        <time>2022-07-12T18:30:20Z</time>
      </trkpt>
      <trkpt lat="44.04264" lon="3.1269">
        <ele>782.2</ele>
        <time>2022-07-12T18:30:25Z</time>
      </trkpt>
      <trkpt lat="44.04253" lon="3.12698">
        <ele>782.2</ele>
        <time>2022-07-12T18:30:28Z</time>
      </trkpt>
      <trkpt lat="44.04242" lon="3.12708">
        <ele>782.2</ele>
        <time>2022-07-12T18:30:31Z</time>
      </trkpt>
      <trkpt lat="44.04232" lon="3.12722">
        <ele>782</ele>
        <time>2022-07-12T18:30:34Z</time>
      </trkpt>
      <trkpt lat="44.04217" lon="3.1274">
        <ele>781.4</ele>
        <time>2022-07-12T18:30:39Z</time>
      </trkpt>
      <trkpt lat="44.04209" lon="3.1276">
        <ele>781.2</ele>
        <time>2022-07-12T18:30:44Z</time>
      </trkpt>
      <trkpt lat="44.04206" lon="3.12792">
        <ele>782</ele>
        <time>2022-07-12T18:30:50Z</time>
      </trkpt>
      <trkpt lat="44.04209" lon="3.12827">
        <ele>782.4</ele>
        <time>2022-07-12T18:30:56Z</time>
      </trkpt>
      <trkpt lat="44.04211" lon="3.12866">
        <ele>782.4</ele>
        <time>2022-07-12T18:31:03Z</time>
      </trkpt>
      <trkpt lat="44.04211" lon="3.12884">
        <ele>782.6</ele>
        <time>2022-07-12T18:31:06Z</time>
      </trkpt>
      <trkpt lat="44.04212" lon="3.12907">
        <ele>782.6</ele>
        <time>2022-07-12T18:31:10Z</time>
      </trkpt>
      <trkpt lat="44.04215" lon="3.12942">
        <ele>783.2</ele>
        <time>2022-07-12T18:31:17Z</time>
      </trkpt>
      <trkpt lat="44.04219" lon="3.12968">
        <ele>783.8</ele>
        <time>2022-07-12T18:31:23Z</time>
      </trkpt>
      <trkpt lat="44.04222" lon="3.12981">
        <ele>784.2</ele>
        <time>2022-07-12T18:31:26Z</time>
      </trkpt>
      <trkpt lat="44.04226" lon="3.12994">
        <ele>784.4</ele>
        <time>2022-07-12T18:31:29Z</time>
      </trkpt>
      <trkpt lat="44.04224" lon="3.13017">
        <ele>784.8</ele>
        <time>2022-07-12T18:31:34Z</time>
      </trkpt>
      <trkpt lat="44.0421" lon="3.13031">
        <ele>784.8</ele>
        <time>2022-07-12T18:31:39Z</time>
      </trkpt>
      <trkpt lat="44.04192" lon="3.13033">
        <ele>784.8</ele>
        <time>2022-07-12T18:31:44Z</time>
      </trkpt>
      <trkpt lat="44.04175" lon="3.13029">
        <ele>785</ele>
        <time>2022-07-12T18:31:49Z</time>
      </trkpt>
      <trkpt lat="44.04168" lon="3.13023">
        <ele>785</ele>
        <time>2022-07-12T18:31:51Z</time>
      </trkpt>
      <trkpt lat="44.04141" lon="3.13">
        <ele>785</ele>
        <time>2022-07-12T18:31:59Z</time>
      </trkpt>
      <trkpt lat="44.04122" lon="3.12988">
        <ele>784.6</ele>
        <time>2022-07-12T18:32:05Z</time>
      </trkpt>
      <trkpt lat="44.04108" lon="3.12983">
        <ele>784.8</ele>
        <time>2022-07-12T18:32:10Z</time>
      </trkpt>
      <trkpt lat="44.04085" lon="3.12955">
        <ele>785.2</ele>
        <time>2022-07-12T18:32:18Z</time>
      </trkpt>
      <trkpt lat="44.04067" lon="3.12932">
        <ele>785</ele>
        <time>2022-07-12T18:32:24Z</time>
      </trkpt>
      <trkpt lat="44.04054" lon="3.12916">
        <ele>785</ele>
        <time>2022-07-12T18:32:28Z</time>
      </trkpt>
      <trkpt lat="44.04048" lon="3.12912">
        <ele>784.6</ele>
        <time>2022-07-12T18:32:30Z</time>
      </trkpt>
      <trkpt lat="44.0404" lon="3.12906">
        <ele>784.4</ele>
        <time>2022-07-12T18:32:32Z</time>
      </trkpt>
      <trkpt lat="44.04016" lon="3.12889">
        <ele>784.2</ele>
        <time>2022-07-12T18:32:38Z</time>
      </trkpt>
      <trkpt lat="44.04004" lon="3.12874">
        <ele>784</ele>
        <time>2022-07-12T18:32:43Z</time>
      </trkpt>
      <trkpt lat="44.03988" lon="3.12857">
        <ele>784.4</ele>
        <time>2022-07-12T18:32:49Z</time>
      </trkpt>
      <trkpt lat="44.03973" lon="3.1284">
        <ele>784.8</ele>
        <time>2022-07-12T18:32:55Z</time>
      </trkpt>
      <trkpt lat="44.03959" lon="3.12823">
        <ele>785.6</ele>
        <time>2022-07-12T18:33:01Z</time>
      </trkpt>
      <trkpt lat="44.03949" lon="3.12811">
        <ele>786</ele>
        <time>2022-07-12T18:33:05Z</time>
      </trkpt>
      <trkpt lat="44.03944" lon="3.12805">
        <ele>786.2</ele>
        <time>2022-07-12T18:33:07Z</time>
      </trkpt>
      <trkpt lat="44.03925" lon="3.12783">
        <ele>786.8</ele>
        <time>2022-07-12T18:33:14Z</time>
      </trkpt>
      <trkpt lat="44.0392" lon="3.12778">
        <ele>787</ele>
        <time>2022-07-12T18:33:16Z</time>
      </trkpt>
      <trkpt lat="44.03915" lon="3.12771">
        <ele>787</ele>
        <time>2022-07-12T18:33:18Z</time>
      </trkpt>
      <trkpt lat="44.03898" lon="3.12754">
        <ele>787.2</ele>
        <time>2022-07-12T18:33:23Z</time>
      </trkpt>
      <trkpt lat="44.03883" lon="3.12738">
        <ele>787.2</ele>
        <time>2022-07-12T18:33:28Z</time>
      </trkpt>
      <trkpt lat="44.03866" lon="3.12728">
        <ele>787.4</ele>
        <time>2022-07-12T18:33:33Z</time>
      </trkpt>
      <trkpt lat="44.03853" lon="3.12728">
        <ele>787.4</ele>
        <time>2022-07-12T18:33:37Z</time>
      </trkpt>
      <trkpt lat="44.03837" lon="3.12738">
        <ele>787.6</ele>
        <time>2022-07-12T18:33:42Z</time>
      </trkpt>
      <trkpt lat="44.03813" lon="3.12748">
        <ele>787.8</ele>
        <time>2022-07-12T18:33:49Z</time>
      </trkpt>
      <trkpt lat="44.03792" lon="3.12756">
        <ele>787.8</ele>
        <time>2022-07-12T18:33:54Z</time>
      </trkpt>
      <trkpt lat="44.03788" lon="3.12757">
        <ele>787.8</ele>
        <time>2022-07-12T18:33:55Z</time>
      </trkpt>
      <trkpt lat="44.03767" lon="3.12764">
        <ele>787.2</ele>
        <time>2022-07-12T18:34:00Z</time>
      </trkpt>
      <trkpt lat="44.03746" lon="3.12774">
        <ele>786.4</ele>
        <time>2022-07-12T18:34:05Z</time>
      </trkpt>
      <trkpt lat="44.03731" lon="3.12781">
        <ele>786.2</ele>
        <time>2022-07-12T18:34:09Z</time>
      </trkpt>
      <trkpt lat="44.0371" lon="3.1279">
        <ele>786</ele>
        <time>2022-07-12T18:34:15Z</time>
      </trkpt>
      <trkpt lat="44.03685" lon="3.12801">
        <ele>785.8</ele>
        <time>2022-07-12T18:34:21Z</time>
      </trkpt>
      <trkpt lat="44.03676" lon="3.12805">
        <ele>785.6</ele>
        <time>2022-07-12T18:34:23Z</time>
      </trkpt>
      <trkpt lat="44.03642" lon="3.12819">
        <ele>785.2</ele>
        <time>2022-07-12T18:34:32Z</time>
      </trkpt>
      <trkpt lat="44.03636" lon="3.12822">
        <ele>785.2</ele>
        <time>2022-07-12T18:34:34Z</time>
      </trkpt>
      <trkpt lat="44.03612" lon="3.12832">
        <ele>785</ele>
        <time>2022-07-12T18:34:40Z</time>
      </trkpt>
      <trkpt lat="44.03583" lon="3.12843">
        <ele>785</ele>
        <time>2022-07-12T18:34:48Z</time>
      </trkpt>
      <trkpt lat="44.03557" lon="3.12854">
        <ele>785.2</ele>
        <time>2022-07-12T18:34:56Z</time>
      </trkpt>
      <trkpt lat="44.0354" lon="3.12862">
        <ele>785.8</ele>
        <time>2022-07-12T18:35:03Z</time>
      </trkpt>
      <trkpt lat="44.03523" lon="3.12868">
        <ele>786.6</ele>
        <time>2022-07-12T18:35:10Z</time>
      </trkpt>
      <trkpt lat="44.03505" lon="3.12876">
        <ele>787.2</ele>
        <time>2022-07-12T18:35:19Z</time>
      </trkpt>
      <trkpt lat="44.03494" lon="3.1288">
        <ele>787.6</ele>
        <time>2022-07-12T18:35:24Z</time>
      </trkpt>
      <trkpt lat="44.03475" lon="3.1289">
        <ele>788.6</ele>
        <time>2022-07-12T18:35:33Z</time>
      </trkpt>
      <trkpt lat="44.03473" lon="3.1289">
        <ele>788.8</ele>
        <time>2022-07-12T18:35:34Z</time>
      </trkpt>
      <trkpt lat="44.03468" lon="3.12892">
        <ele>789</ele>
        <time>2022-07-12T18:35:37Z</time>
      </trkpt>
      <trkpt lat="44.03456" lon="3.12896">
        <ele>789.8</ele>
        <time>2022-07-12T18:35:44Z</time>
      </trkpt>
      <trkpt lat="44.03454" lon="3.12897">
        <ele>790</ele>
        <time>2022-07-12T18:35:45Z</time>
      </trkpt>
      <trkpt lat="44.03449" lon="3.12898">
        <ele>790.6</ele>
        <time>2022-07-12T18:35:50Z</time>
      </trkpt>
      <trkpt lat="44.03449" lon="3.12898">
        <ele>790.6</ele>
        <time>2022-07-12T18:35:51Z</time>
      </trkpt>
      <trkpt lat="44.03448" lon="3.129">
        <ele>791</ele>
        <time>2022-07-12T18:35:54Z</time>
      </trkpt>
      <trkpt lat="44.03444" lon="3.12903">
        <ele>791.2</ele>
        <time>2022-07-12T18:35:58Z</time>
      </trkpt>
      <trkpt lat="44.03439" lon="3.12904">
        <ele>791.4</ele>
        <time>2022-07-12T18:36:04Z</time>
      </trkpt>
      <trkpt lat="44.03435" lon="3.12906">
        <ele>791.8</ele>
        <time>2022-07-12T18:36:11Z</time>
      </trkpt>
      <trkpt lat="44.03431" lon="3.12908">
        <ele>792</ele>
        <time>2022-07-12T18:36:15Z</time>
      </trkpt>
      <trkpt lat="44.03427" lon="3.1291">
        <ele>792.6</ele>
        <time>2022-07-12T18:36:20Z</time>
      </trkpt>
      <trkpt lat="44.03423" lon="3.12911">
        <ele>793</ele>
        <time>2022-07-12T18:36:25Z</time>
      </trkpt>
      <trkpt lat="44.03419" lon="3.12912">
        <ele>793.2</ele>
        <time>2022-07-12T18:36:30Z</time>
      </trkpt>
      <trkpt lat="44.03414" lon="3.12917">
        <ele>793.8</ele>
        <time>2022-07-12T18:36:38Z</time>
      </trkpt>
      <trkpt lat="44.03413" lon="3.12918">
        <ele>794</ele>
        <time>2022-07-12T18:36:39Z</time>
      </trkpt>
      <trkpt lat="44.03411" lon="3.12928">
        <ele>794.4</ele>
        <time>2022-07-12T18:36:47Z</time>
      </trkpt>
      <trkpt lat="44.03413" lon="3.12937">
        <ele>794.8</ele>
        <time>2022-07-12T18:36:53Z</time>
      </trkpt>
      <trkpt lat="44.03414" lon="3.1294">
        <ele>795</ele>
        <time>2022-07-12T18:36:55Z</time>
      </trkpt>
      <trkpt lat="44.03415" lon="3.12947">
        <ele>795.2</ele>
        <time>2022-07-12T18:37:01Z</time>
      </trkpt>
      <trkpt lat="44.03418" lon="3.12953">
        <ele>795.2</ele>
        <time>2022-07-12T18:37:04Z</time>
      </trkpt>
      <trkpt lat="44.03423" lon="3.12974">
        <ele>795.2</ele>
        <time>2022-07-12T18:37:10Z</time>
      </trkpt>
      <trkpt lat="44.03429" lon="3.12997">
        <ele>795</ele>
        <time>2022-07-12T18:37:16Z</time>
      </trkpt>
      <trkpt lat="44.03437" lon="3.13036">
        <ele>794.2</ele>
        <time>2022-07-12T18:37:24Z</time>
      </trkpt>
      <trkpt lat="44.03437" lon="3.13041">
        <ele>794</ele>
        <time>2022-07-12T18:37:25Z</time>
      </trkpt>
      <trkpt lat="44.03438" lon="3.13051">
        <ele>793.8</ele>
        <time>2022-07-12T18:37:27Z</time>
      </trkpt>
      <trkpt lat="44.03438" lon="3.13055">
        <ele>793.8</ele>
        <time>2022-07-12T18:37:28Z</time>
      </trkpt>
      <trkpt lat="44.03434" lon="3.1307">
        <ele>793.6</ele>
        <time>2022-07-12T18:37:32Z</time>
      </trkpt>
      <trkpt lat="44.03422" lon="3.13089">
        <ele>793.8</ele>
        <time>2022-07-12T18:37:38Z</time>
      </trkpt>
      <trkpt lat="44.03406" lon="3.13097">
        <ele>794.4</ele>
        <time>2022-07-12T18:37:45Z</time>
      </trkpt>
      <trkpt lat="44.03402" lon="3.13098">
        <ele>794.8</ele>
        <time>2022-07-12T18:37:47Z</time>
      </trkpt>
      <trkpt lat="44.03392" lon="3.13101">
        <ele>795.8</ele>
        <time>2022-07-12T18:37:52Z</time>
      </trkpt>
      <trkpt lat="44.0339" lon="3.13102">
        <ele>796</ele>
        <time>2022-07-12T18:37:53Z</time>
      </trkpt>
      <trkpt lat="44.03378" lon="3.1311">
        <ele>796.8</ele>
        <time>2022-07-12T18:38:00Z</time>
      </trkpt>
      <trkpt lat="44.03376" lon="3.13111">
        <ele>797</ele>
        <time>2022-07-12T18:38:01Z</time>
      </trkpt>
      <trkpt lat="44.03368" lon="3.13114">
        <ele>797.6</ele>
        <time>2022-07-12T18:38:06Z</time>
      </trkpt>
      <trkpt lat="44.03354" lon="3.13119">
        <ele>798</ele>
        <time>2022-07-12T18:38:13Z</time>
      </trkpt>
      <trkpt lat="44.0335" lon="3.13121">
        <ele>798</ele>
        <time>2022-07-12T18:38:15Z</time>
      </trkpt>
      <trkpt lat="44.03337" lon="3.13127">
        <ele>798.8</ele>
        <time>2022-07-12T18:38:22Z</time>
      </trkpt>
      <trkpt lat="44.03332" lon="3.13131">
        <ele>799.2</ele>
        <time>2022-07-12T18:38:26Z</time>
      </trkpt>
      <trkpt lat="44.03323" lon="3.13134">
        <ele>800.4</ele>
        <time>2022-07-12T18:38:31Z</time>
      </trkpt>
      <trkpt lat="44.03321" lon="3.13135">
        <ele>800.4</ele>
        <time>2022-07-12T18:38:32Z</time>
      </trkpt>
      <trkpt lat="44.03309" lon="3.13141">
        <ele>800.8</ele>
        <time>2022-07-12T18:38:39Z</time>
      </trkpt>
      <trkpt lat="44.03304" lon="3.13143">
        <ele>801.4</ele>
        <time>2022-07-12T18:38:42Z</time>
      </trkpt>
      <trkpt lat="44.03293" lon="3.13148">
        <ele>802</ele>
        <time>2022-07-12T18:38:47Z</time>
      </trkpt>
      <trkpt lat="44.0328" lon="3.13155">
        <ele>802.2</ele>
        <time>2022-07-12T18:38:53Z</time>
      </trkpt>
      <trkpt lat="44.03272" lon="3.13158">
        <ele>802.8</ele>
        <time>2022-07-12T18:38:57Z</time>
      </trkpt>
      <trkpt lat="44.03246" lon="3.1317">
        <ele>803.2</ele>
        <time>2022-07-12T18:39:07Z</time>
      </trkpt>
      <trkpt lat="44.03226" lon="3.13177">
        <ele>803</ele>
        <time>2022-07-12T18:39:15Z</time>
      </trkpt>
      <trkpt lat="44.03217" lon="3.1318">
        <ele>802.4</ele>
        <time>2022-07-12T18:39:20Z</time>
      </trkpt>
      <trkpt lat="44.03205" lon="3.13184">
        <ele>801.6</ele>
        <time>2022-07-12T18:39:24Z</time>
      </trkpt>
      <trkpt lat="44.032" lon="3.13186">
        <ele>801.6</ele>
        <time>2022-07-12T18:39:25Z</time>
      </trkpt>
      <trkpt lat="44.0319" lon="3.1319">
        <ele>801</ele>
        <time>2022-07-12T18:39:27Z</time>
      </trkpt>
      <trkpt lat="44.03185" lon="3.13192">
        <ele>800.4</ele>
        <time>2022-07-12T18:39:28Z</time>
      </trkpt>
      <trkpt lat="44.03181" lon="3.13193">
        <ele>800</ele>
        <time>2022-07-12T18:39:29Z</time>
      </trkpt>
      <trkpt lat="44.03177" lon="3.13194">
        <ele>799.6</ele>
        <time>2022-07-12T18:39:30Z</time>
      </trkpt>
      <trkpt lat="44.03173" lon="3.13196">
        <ele>799.4</ele>
        <time>2022-07-12T18:39:31Z</time>
      </trkpt>
      <trkpt lat="44.03168" lon="3.13199">
        <ele>799.2</ele>
        <time>2022-07-12T18:39:33Z</time>
      </trkpt>
      <trkpt lat="44.03166" lon="3.13199">
        <ele>799.2</ele>
        <time>2022-07-12T18:39:34Z</time>
      </trkpt>
      <trkpt lat="44.03166" lon="3.13198">
        <ele>799</ele>
        <time>2022-07-12T18:39:36Z</time>
      </trkpt>
      <trkpt lat="44.03166" lon="3.13198">
        <ele>799</ele>
        <time>2022-07-12T18:39:38Z</time>
      </trkpt>
      <trkpt lat="44.03164" lon="3.13201">
        <ele>799</ele>
        <time>2022-07-12T18:39:42Z</time>
      </trkpt>
      <trkpt lat="44.03162" lon="3.13203">
        <ele>799.2</ele>
        <time>2022-07-12T18:39:44Z</time>
      </trkpt>
      <trkpt lat="44.03158" lon="3.13205">
        <ele>799.2</ele>
        <time>2022-07-12T18:39:50Z</time>
      </trkpt>
      <trkpt lat="44.03155" lon="3.13207">
        <ele>799.4</ele>
        <time>2022-07-12T18:39:52Z</time>
      </trkpt>
      <trkpt lat="44.03146" lon="3.13212">
        <ele>799.6</ele>
        <time>2022-07-12T18:39:59Z</time>
      </trkpt>
      <trkpt lat="44.03143" lon="3.13213">
        <ele>799.8</ele>
        <time>2022-07-12T18:40:01Z</time>
      </trkpt>
      <trkpt lat="44.03141" lon="3.13213">
        <ele>800</ele>
        <time>2022-07-12T18:40:02Z</time>
      </trkpt>
      <trkpt lat="44.0314" lon="3.13213">
        <ele>800</ele>
        <time>2022-07-12T18:40:04Z</time>
      </trkpt>
      <trkpt lat="44.0314" lon="3.13213">
        <ele>800.2</ele>
        <time>2022-07-12T18:40:07Z</time>
      </trkpt>
      <trkpt lat="44.03138" lon="3.13216">
        <ele>800.2</ele>
        <time>2022-07-12T18:40:09Z</time>
      </trkpt>
      <trkpt lat="44.03136" lon="3.13216">
        <ele>800.4</ele>
        <time>2022-07-12T18:40:10Z</time>
      </trkpt>
      <trkpt lat="44.0313" lon="3.13219">
        <ele>800.4</ele>
        <time>2022-07-12T18:40:13Z</time>
      </trkpt>
      <trkpt lat="44.03127" lon="3.13221">
        <ele>800.6</ele>
        <time>2022-07-12T18:40:15Z</time>
      </trkpt>
      <trkpt lat="44.03117" lon="3.13225">
        <ele>800.8</ele>
        <time>2022-07-12T18:40:19Z</time>
      </trkpt>
      <trkpt lat="44.03114" lon="3.13227">
        <ele>800.8</ele>
        <time>2022-07-12T18:40:20Z</time>
      </trkpt>
      <trkpt lat="44.03092" lon="3.13238">
        <ele>801.2</ele>
        <time>2022-07-12T18:40:28Z</time>
      </trkpt>
      <trkpt lat="44.03073" lon="3.13246">
        <ele>801.8</ele>
        <time>2022-07-12T18:40:35Z</time>
      </trkpt>
      <trkpt lat="44.03068" lon="3.13248">
        <ele>802</ele>
        <time>2022-07-12T18:40:37Z</time>
      </trkpt>
      <trkpt lat="44.03043" lon="3.1326">
        <ele>802.8</ele>
        <time>2022-07-12T18:40:48Z</time>
      </trkpt>
      <trkpt lat="44.03029" lon="3.13267">
        <ele>803.2</ele>
        <time>2022-07-12T18:40:54Z</time>
      </trkpt>
      <trkpt lat="44.03026" lon="3.13276">
        <ele>803.4</ele>
        <time>2022-07-12T18:40:58Z</time>
      </trkpt>
      <trkpt lat="44.0303" lon="3.13285">
        <ele>804</ele>
        <time>2022-07-12T18:41:02Z</time>
      </trkpt>
      <trkpt lat="44.03032" lon="3.13287">
        <ele>804</ele>
        <time>2022-07-12T18:41:03Z</time>
      </trkpt>
      <trkpt lat="44.03039" lon="3.13304">
        <ele>804.4</ele>
        <time>2022-07-12T18:41:09Z</time>
      </trkpt>
      <trkpt lat="44.03046" lon="3.13331">
        <ele>804.6</ele>
        <time>2022-07-12T18:41:17Z</time>
      </trkpt>
      <trkpt lat="44.03049" lon="3.13346">
        <ele>805</ele>
        <time>2022-07-12T18:41:21Z</time>
      </trkpt>
      <trkpt lat="44.03054" lon="3.13367">
        <ele>806</ele>
        <time>2022-07-12T18:41:27Z</time>
      </trkpt>
      <trkpt lat="44.0306" lon="3.13389">
        <ele>807</ele>
        <time>2022-07-12T18:41:34Z</time>
      </trkpt>
      <trkpt lat="44.03061" lon="3.13393">
        <ele>807.2</ele>
        <time>2022-07-12T18:41:35Z</time>
      </trkpt>
      <trkpt lat="44.03067" lon="3.13423">
        <ele>807.8</ele>
        <time>2022-07-12T18:41:44Z</time>
      </trkpt>
      <trkpt lat="44.0307" lon="3.13436">
        <ele>808.4</ele>
        <time>2022-07-12T18:41:48Z</time>
      </trkpt>
      <trkpt lat="44.03072" lon="3.13447">
        <ele>808.6</ele>
        <time>2022-07-12T18:41:52Z</time>
      </trkpt>
      <trkpt lat="44.03081" lon="3.13478">
        <ele>808.6</ele>
        <time>2022-07-12T18:42:01Z</time>
      </trkpt>
      <trkpt lat="44.03086" lon="3.135">
        <ele>808.6</ele>
        <time>2022-07-12T18:42:06Z</time>
      </trkpt>
      <trkpt lat="44.03096" lon="3.13527">
        <ele>807.6</ele>
        <time>2022-07-12T18:42:13Z</time>
      </trkpt>
      <trkpt lat="44.03096" lon="3.13528">
        <ele>807.2</ele>
        <time>2022-07-12T18:42:15Z</time>
      </trkpt>
      <trkpt lat="44.03096" lon="3.13528">
        <ele>807</ele>
        <time>2022-07-12T18:42:16Z</time>
      </trkpt>
      <trkpt lat="44.03097" lon="3.13531">
        <ele>806.2</ele>
        <time>2022-07-12T18:42:31Z</time>
      </trkpt>
      <trkpt lat="44.031" lon="3.13541">
        <ele>806.2</ele>
        <time>2022-07-12T18:42:34Z</time>
      </trkpt>
      <trkpt lat="44.03102" lon="3.13551">
        <ele>805.6</ele>
        <time>2022-07-12T18:42:36Z</time>
      </trkpt>
      <trkpt lat="44.03106" lon="3.13567">
        <ele>805</ele>
        <time>2022-07-12T18:42:39Z</time>
      </trkpt>
      <trkpt lat="44.03107" lon="3.13574">
        <ele>804.4</ele>
        <time>2022-07-12T18:42:41Z</time>
      </trkpt>
      <trkpt lat="44.03107" lon="3.13575">
        <ele>804.4</ele>
        <time>2022-07-12T18:42:42Z</time>
      </trkpt>
      <trkpt lat="44.03107" lon="3.13575">
        <ele>803.6</ele>
        <time>2022-07-12T18:42:44Z</time>
      </trkpt>
      <trkpt lat="44.03109" lon="3.13578">
        <ele>802.4</ele>
        <time>2022-07-12T18:43:03Z</time>
      </trkpt>
      <trkpt lat="44.0311" lon="3.1358">
        <ele>802.2</ele>
        <time>2022-07-12T18:43:04Z</time>
      </trkpt>
      <trkpt lat="44.03114" lon="3.13599">
        <ele>801.8</ele>
        <time>2022-07-12T18:43:10Z</time>
      </trkpt>
      <trkpt lat="44.03116" lon="3.13606">
        <ele>801</ele>
        <time>2022-07-12T18:43:12Z</time>
      </trkpt>
      <trkpt lat="44.03119" lon="3.1362">
        <ele>799.8</ele>
        <time>2022-07-12T18:43:16Z</time>
      </trkpt>
      <trkpt lat="44.03121" lon="3.13629">
        <ele>798.4</ele>
        <time>2022-07-12T18:43:19Z</time>
      </trkpt>
      <trkpt lat="44.03124" lon="3.13641">
        <ele>797.4</ele>
        <time>2022-07-12T18:43:22Z</time>
      </trkpt>
      <trkpt lat="44.03127" lon="3.13652">
        <ele>796.6</ele>
        <time>2022-07-12T18:43:25Z</time>
      </trkpt>
      <trkpt lat="44.03128" lon="3.13656">
        <ele>796.2</ele>
        <time>2022-07-12T18:43:26Z</time>
      </trkpt>
      <trkpt lat="44.03131" lon="3.13667">
        <ele>794.8</ele>
        <time>2022-07-12T18:43:29Z</time>
      </trkpt>
      <trkpt lat="44.03135" lon="3.13681">
        <ele>793.4</ele>
        <time>2022-07-12T18:43:32Z</time>
      </trkpt>
      <trkpt lat="44.03137" lon="3.13692">
        <ele>792.4</ele>
        <time>2022-07-12T18:43:34Z</time>
      </trkpt>
      <trkpt lat="44.03141" lon="3.13706">
        <ele>791.4</ele>
        <time>2022-07-12T18:43:37Z</time>
      </trkpt>
      <trkpt lat="44.03143" lon="3.13715">
        <ele>790</ele>
        <time>2022-07-12T18:43:39Z</time>
      </trkpt>
      <trkpt lat="44.03144" lon="3.13719">
        <ele>789.4</ele>
        <time>2022-07-12T18:43:40Z</time>
      </trkpt>
      <trkpt lat="44.03146" lon="3.13728">
        <ele>788.6</ele>
        <time>2022-07-12T18:43:42Z</time>
      </trkpt>
      <trkpt lat="44.03149" lon="3.13744">
        <ele>787.2</ele>
        <time>2022-07-12T18:43:45Z</time>
      </trkpt>
      <trkpt lat="44.03151" lon="3.13748">
        <ele>787</ele>
        <time>2022-07-12T18:43:46Z</time>
      </trkpt>
      <trkpt lat="44.03154" lon="3.1376">
        <ele>785.8</ele>
        <time>2022-07-12T18:43:49Z</time>
      </trkpt>
      <trkpt lat="44.03158" lon="3.13777">
        <ele>784.4</ele>
        <time>2022-07-12T18:43:52Z</time>
      </trkpt>
      <trkpt lat="44.03162" lon="3.13789">
        <ele>783</ele>
        <time>2022-07-12T18:43:54Z</time>
      </trkpt>
      <trkpt lat="44.03168" lon="3.13816">
        <ele>782</ele>
        <time>2022-07-12T18:43:58Z</time>
      </trkpt>
      <trkpt lat="44.03176" lon="3.13849">
        <ele>781.2</ele>
        <time>2022-07-12T18:44:04Z</time>
      </trkpt>
      <trkpt lat="44.03177" lon="3.13855">
        <ele>781.2</ele>
        <time>2022-07-12T18:44:05Z</time>
      </trkpt>
      <trkpt lat="44.03175" lon="3.13888">
        <ele>781.4</ele>
        <time>2022-07-12T18:44:11Z</time>
      </trkpt>
      <trkpt lat="44.03164" lon="3.13913">
        <ele>781</ele>
        <time>2022-07-12T18:44:17Z</time>
      </trkpt>
      <trkpt lat="44.0316" lon="3.13917">
        <ele>780.8</ele>
        <time>2022-07-12T18:44:18Z</time>
      </trkpt>
      <trkpt lat="44.03147" lon="3.13929">
        <ele>780.4</ele>
        <time>2022-07-12T18:44:23Z</time>
      </trkpt>
      <trkpt lat="44.03143" lon="3.13934">
        <ele>780</ele>
        <time>2022-07-12T18:44:26Z</time>
      </trkpt>
      <trkpt lat="44.03143" lon="3.13934">
        <ele>779.8</ele>
        <time>2022-07-12T18:44:28Z</time>
      </trkpt>
      <trkpt lat="44.0314" lon="3.13937">
        <ele>779.2</ele>
        <time>2022-07-12T18:44:56Z</time>
      </trkpt>
      <trkpt lat="44.03134" lon="3.13944">
        <ele>779.2</ele>
        <time>2022-07-12T18:44:59Z</time>
      </trkpt>
      <trkpt lat="44.03116" lon="3.13965">
        <ele>778.8</ele>
        <time>2022-07-12T18:45:05Z</time>
      </trkpt>
      <trkpt lat="44.0311" lon="3.1398">
        <ele>778.2</ele>
        <time>2022-07-12T18:45:09Z</time>
      </trkpt>
      <trkpt lat="44.03094" lon="3.1401">
        <ele>778.4</ele>
        <time>2022-07-12T18:45:18Z</time>
      </trkpt>
      <trkpt lat="44.03086" lon="3.14044">
        <ele>778.8</ele>
        <time>2022-07-12T18:45:25Z</time>
      </trkpt>
      <trkpt lat="44.03077" lon="3.14075">
        <ele>779</ele>
        <time>2022-07-12T18:45:32Z</time>
      </trkpt>
      <trkpt lat="44.03075" lon="3.14086">
        <ele>779.4</ele>
        <time>2022-07-12T18:45:36Z</time>
      </trkpt>
      <trkpt lat="44.03075" lon="3.14088">
        <ele>779.6</ele>
        <time>2022-07-12T18:45:37Z</time>
      </trkpt>
      <trkpt lat="44.03075" lon="3.14091">
        <ele>779.6</ele>
        <time>2022-07-12T18:45:38Z</time>
      </trkpt>
      <trkpt lat="44.0307" lon="3.1411">
        <ele>780.4</ele>
        <time>2022-07-12T18:45:45Z</time>
      </trkpt>
      <trkpt lat="44.03069" lon="3.14115">
        <ele>780.6</ele>
        <time>2022-07-12T18:45:47Z</time>
      </trkpt>
      <trkpt lat="44.03066" lon="3.14126">
        <ele>781.2</ele>
        <time>2022-07-12T18:45:52Z</time>
      </trkpt>
      <trkpt lat="44.03064" lon="3.14135">
        <ele>781.6</ele>
        <time>2022-07-12T18:45:56Z</time>
      </trkpt>
      <trkpt lat="44.03063" lon="3.14142">
        <ele>781.8</ele>
        <time>2022-07-12T18:45:59Z</time>
      </trkpt>
      <trkpt lat="44.03058" lon="3.14158">
        <ele>782.8</ele>
        <time>2022-07-12T18:46:06Z</time>
      </trkpt>
      <trkpt lat="44.0305" lon="3.14182">
        <ele>783.8</ele>
        <time>2022-07-12T18:46:15Z</time>
      </trkpt>
      <trkpt lat="44.03049" lon="3.14183">
        <ele>783.8</ele>
        <time>2022-07-12T18:46:16Z</time>
      </trkpt>
      <trkpt lat="44.03044" lon="3.14196">
        <ele>784.6</ele>
        <time>2022-07-12T18:46:23Z</time>
      </trkpt>
      <trkpt lat="44.03042" lon="3.14203">
        <ele>785</ele>
        <time>2022-07-12T18:46:26Z</time>
      </trkpt>
      <trkpt lat="44.03035" lon="3.14218">
        <ele>785.6</ele>
        <time>2022-07-12T18:46:33Z</time>
      </trkpt>
      <trkpt lat="44.03033" lon="3.14222">
        <ele>785.8</ele>
        <time>2022-07-12T18:46:35Z</time>
      </trkpt>
      <trkpt lat="44.03026" lon="3.14233">
        <ele>786.2</ele>
        <time>2022-07-12T18:46:41Z</time>
      </trkpt>
      <trkpt lat="44.03015" lon="3.14243">
        <ele>787.2</ele>
        <time>2022-07-12T18:46:48Z</time>
      </trkpt>
      <trkpt lat="44.03014" lon="3.14244">
        <ele>787.4</ele>
        <time>2022-07-12T18:46:49Z</time>
      </trkpt>
      <trkpt lat="44.03003" lon="3.14254">
        <ele>788</ele>
        <time>2022-07-12T18:46:56Z</time>
      </trkpt>
      <trkpt lat="44.03" lon="3.14257">
        <ele>788.4</ele>
        <time>2022-07-12T18:46:58Z</time>
      </trkpt>
      <trkpt lat="44.02988" lon="3.14267">
        <ele>789.2</ele>
        <time>2022-07-12T18:47:05Z</time>
      </trkpt>
      <trkpt lat="44.02983" lon="3.14272">
        <ele>789.4</ele>
        <time>2022-07-12T18:47:08Z</time>
      </trkpt>
      <trkpt lat="44.02972" lon="3.1428">
        <ele>790.2</ele>
        <time>2022-07-12T18:47:14Z</time>
      </trkpt>
      <trkpt lat="44.02969" lon="3.14282">
        <ele>790.6</ele>
        <time>2022-07-12T18:47:16Z</time>
      </trkpt>
      <trkpt lat="44.02961" lon="3.14289">
        <ele>791</ele>
        <time>2022-07-12T18:47:21Z</time>
      </trkpt>
      <trkpt lat="44.02954" lon="3.14298">
        <ele>791.6</ele>
        <time>2022-07-12T18:47:26Z</time>
      </trkpt>
      <trkpt lat="44.0295" lon="3.14304">
        <ele>792</ele>
        <time>2022-07-12T18:47:29Z</time>
      </trkpt>
      <trkpt lat="44.02947" lon="3.14315">
        <ele>792.6</ele>
        <time>2022-07-12T18:47:34Z</time>
      </trkpt>
      <trkpt lat="44.02946" lon="3.1432">
        <ele>792.8</ele>
        <time>2022-07-12T18:47:36Z</time>
      </trkpt>
      <trkpt lat="44.02944" lon="3.1433">
        <ele>793.6</ele>
        <time>2022-07-12T18:47:40Z</time>
      </trkpt>
      <trkpt lat="44.02943" lon="3.14339">
        <ele>794.6</ele>
        <time>2022-07-12T18:47:44Z</time>
      </trkpt>
      <trkpt lat="44.02942" lon="3.14347">
        <ele>794.8</ele>
        <time>2022-07-12T18:47:47Z</time>
      </trkpt>
      <trkpt lat="44.02939" lon="3.14356">
        <ele>794.8</ele>
        <time>2022-07-12T18:47:50Z</time>
      </trkpt>
      <trkpt lat="44.02929" lon="3.14379">
        <ele>795.4</ele>
        <time>2022-07-12T18:47:57Z</time>
      </trkpt>
      <trkpt lat="44.02919" lon="3.14407">
        <ele>795.4</ele>
        <time>2022-07-12T18:48:05Z</time>
      </trkpt>
      <trkpt lat="44.02918" lon="3.14411">
        <ele>795.4</ele>
        <time>2022-07-12T18:48:06Z</time>
      </trkpt>
      <trkpt lat="44.02907" lon="3.14441">
        <ele>795.2</ele>
        <time>2022-07-12T18:48:14Z</time>
      </trkpt>
      <trkpt lat="44.02893" lon="3.14458">
        <ele>794.6</ele>
        <time>2022-07-12T18:48:19Z</time>
      </trkpt>
      <trkpt lat="44.0289" lon="3.14461">
        <ele>794.4</ele>
        <time>2022-07-12T18:48:20Z</time>
      </trkpt>
      <trkpt lat="44.02878" lon="3.1447">
        <ele>793.8</ele>
        <time>2022-07-12T18:48:24Z</time>
      </trkpt>
      <trkpt lat="44.02872" lon="3.14473">
        <ele>793.4</ele>
        <time>2022-07-12T18:48:26Z</time>
      </trkpt>
      <trkpt lat="44.02858" lon="3.14484">
        <ele>791.6</ele>
        <time>2022-07-12T18:48:30Z</time>
      </trkpt>
      <trkpt lat="44.02849" lon="3.14489">
        <ele>790.6</ele>
        <time>2022-07-12T18:48:32Z</time>
      </trkpt>
      <trkpt lat="44.02836" lon="3.14493">
        <ele>790</ele>
        <time>2022-07-12T18:48:35Z</time>
      </trkpt>
      <trkpt lat="44.02825" lon="3.14495">
        <ele>789</ele>
        <time>2022-07-12T18:48:37Z</time>
      </trkpt>
      <trkpt lat="44.02803" lon="3.14499">
        <ele>788.2</ele>
        <time>2022-07-12T18:48:41Z</time>
      </trkpt>
      <trkpt lat="44.02797" lon="3.14501">
        <ele>788</ele>
        <time>2022-07-12T18:48:42Z</time>
      </trkpt>
      <trkpt lat="44.02787" lon="3.14506">
        <ele>787.6</ele>
        <time>2022-07-12T18:48:44Z</time>
      </trkpt>
      <trkpt lat="44.02781" lon="3.14507">
        <ele>787.6</ele>
        <time>2022-07-12T18:48:45Z</time>
      </trkpt>
      <trkpt lat="44.02776" lon="3.14508">
        <ele>787.4</ele>
        <time>2022-07-12T18:48:46Z</time>
      </trkpt>
      <trkpt lat="44.02765" lon="3.14507">
        <ele>786.8</ele>
        <time>2022-07-12T18:48:48Z</time>
      </trkpt>
      <trkpt lat="44.0276" lon="3.14506">
        <ele>786.8</ele>
        <time>2022-07-12T18:48:49Z</time>
      </trkpt>
      <trkpt lat="44.02745" lon="3.14504">
        <ele>786</ele>
        <time>2022-07-12T18:48:52Z</time>
      </trkpt>
      <trkpt lat="44.0274" lon="3.14504">
        <ele>785.8</ele>
        <time>2022-07-12T18:48:53Z</time>
      </trkpt>
      <trkpt lat="44.0273" lon="3.14506">
        <ele>785.4</ele>
        <time>2022-07-12T18:48:55Z</time>
      </trkpt>
      <trkpt lat="44.02711" lon="3.14511">
        <ele>784.6</ele>
        <time>2022-07-12T18:48:59Z</time>
      </trkpt>
      <trkpt lat="44.02707" lon="3.14512">
        <ele>784.6</ele>
        <time>2022-07-12T18:49:00Z</time>
      </trkpt>
      <trkpt lat="44.02698" lon="3.14514">
        <ele>784.4</ele>
        <time>2022-07-12T18:49:02Z</time>
      </trkpt>
      <trkpt lat="44.0269" lon="3.14513">
        <ele>784.2</ele>
        <time>2022-07-12T18:49:04Z</time>
      </trkpt>
      <trkpt lat="44.02682" lon="3.14511">
        <ele>784</ele>
        <time>2022-07-12T18:49:06Z</time>
      </trkpt>
      <trkpt lat="44.02674" lon="3.14507">
        <ele>783.6</ele>
        <time>2022-07-12T18:49:08Z</time>
      </trkpt>
      <trkpt lat="44.0267" lon="3.14505">
        <ele>783.4</ele>
        <time>2022-07-12T18:49:09Z</time>
      </trkpt>
      <trkpt lat="44.02663" lon="3.14504">
        <ele>783.4</ele>
        <time>2022-07-12T18:49:11Z</time>
      </trkpt>
      <trkpt lat="44.0264" lon="3.14506">
        <ele>783.4</ele>
        <time>2022-07-12T18:49:17Z</time>
      </trkpt>
      <trkpt lat="44.02614" lon="3.145">
        <ele>783</ele>
        <time>2022-07-12T18:49:24Z</time>
      </trkpt>
      <trkpt lat="44.02594" lon="3.14493">
        <ele>783</ele>
        <time>2022-07-12T18:49:31Z</time>
      </trkpt>
      <trkpt lat="44.02567" lon="3.14484">
        <ele>783.6</ele>
        <time>2022-07-12T18:49:41Z</time>
      </trkpt>
      <trkpt lat="44.02546" lon="3.14477">
        <ele>784.4</ele>
        <time>2022-07-12T18:49:48Z</time>
      </trkpt>
      <trkpt lat="44.02535" lon="3.14474">
        <ele>784.4</ele>
        <time>2022-07-12T18:49:52Z</time>
      </trkpt>
      <trkpt lat="44.02517" lon="3.14467">
        <ele>784.6</ele>
        <time>2022-07-12T18:49:58Z</time>
      </trkpt>
      <trkpt lat="44.02489" lon="3.14455">
        <ele>784.8</ele>
        <time>2022-07-12T18:50:07Z</time>
      </trkpt>
      <trkpt lat="44.0247" lon="3.14443">
        <ele>785</ele>
        <time>2022-07-12T18:50:14Z</time>
      </trkpt>
      <trkpt lat="44.0246" lon="3.14434">
        <ele>785.4</ele>
        <time>2022-07-12T18:50:19Z</time>
      </trkpt>
      <trkpt lat="44.02453" lon="3.1443">
        <ele>785.6</ele>
        <time>2022-07-12T18:50:22Z</time>
      </trkpt>
      <trkpt lat="44.02449" lon="3.14427">
        <ele>786</ele>
        <time>2022-07-12T18:50:27Z</time>
      </trkpt>
      <trkpt lat="44.02449" lon="3.14427">
        <ele>786</ele>
        <time>2022-07-12T18:50:28Z</time>
      </trkpt>
      <trkpt lat="44.02447" lon="3.14427">
        <ele>786.2</ele>
        <time>2022-07-12T18:50:30Z</time>
      </trkpt>
      <trkpt lat="44.02447" lon="3.14426">
        <ele>786.2</ele>
        <time>2022-07-12T18:50:34Z</time>
      </trkpt>
      <trkpt lat="44.02446" lon="3.14426">
        <ele>786.2</ele>
        <time>2022-07-12T18:50:36Z</time>
      </trkpt>
      <trkpt lat="44.02444" lon="3.14425">
        <ele>786.4</ele>
        <time>2022-07-12T18:50:43Z</time>
      </trkpt>
      <trkpt lat="44.0244" lon="3.14423">
        <ele>786.4</ele>
        <time>2022-07-12T18:50:47Z</time>
      </trkpt>
      <trkpt lat="44.02428" lon="3.14414">
        <ele>786.4</ele>
        <time>2022-07-12T18:50:58Z</time>
      </trkpt>
      <trkpt lat="44.02419" lon="3.14406">
        <ele>786.8</ele>
        <time>2022-07-12T18:51:06Z</time>
      </trkpt>
      <trkpt lat="44.02403" lon="3.14395">
        <ele>787.2</ele>
        <time>2022-07-12T18:51:12Z</time>
      </trkpt>
      <trkpt lat="44.02396" lon="3.14392">
        <ele>787.4</ele>
        <time>2022-07-12T18:51:14Z</time>
      </trkpt>
      <trkpt lat="44.02386" lon="3.14385">
        <ele>787.6</ele>
        <time>2022-07-12T18:51:17Z</time>
      </trkpt>
      <trkpt lat="44.02365" lon="3.1437">
        <ele>788.2</ele>
        <time>2022-07-12T18:51:23Z</time>
      </trkpt>
      <trkpt lat="44.02356" lon="3.14355">
        <ele>787.4</ele>
        <time>2022-07-12T18:51:28Z</time>
      </trkpt>
      <trkpt lat="44.02346" lon="3.14342">
        <ele>787</ele>
        <time>2022-07-12T18:51:33Z</time>
      </trkpt>
      <trkpt lat="44.02337" lon="3.14325">
        <ele>786.4</ele>
        <time>2022-07-12T18:51:40Z</time>
      </trkpt>
      <trkpt lat="44.02336" lon="3.14323">
        <ele>786.2</ele>
        <time>2022-07-12T18:51:41Z</time>
      </trkpt>
      <trkpt lat="44.02328" lon="3.14308">
        <ele>786.4</ele>
        <time>2022-07-12T18:51:47Z</time>
      </trkpt>
      <trkpt lat="44.02318" lon="3.14286">
        <ele>787.4</ele>
        <time>2022-07-12T18:51:55Z</time>
      </trkpt>
      <trkpt lat="44.02309" lon="3.14266">
        <ele>787.6</ele>
        <time>2022-07-12T18:52:02Z</time>
      </trkpt>
      <trkpt lat="44.02301" lon="3.14246">
        <ele>787.8</ele>
        <time>2022-07-12T18:52:09Z</time>
      </trkpt>
      <trkpt lat="44.02295" lon="3.1423">
        <ele>788.6</ele>
        <time>2022-07-12T18:52:15Z</time>
      </trkpt>
      <trkpt lat="44.02291" lon="3.14221">
        <ele>789</ele>
        <time>2022-07-12T18:52:18Z</time>
      </trkpt>
      <trkpt lat="44.02289" lon="3.14216">
        <ele>789</ele>
        <time>2022-07-12T18:52:20Z</time>
      </trkpt>
      <trkpt lat="44.02284" lon="3.14215">
        <ele>789</ele>
        <time>2022-07-12T18:52:22Z</time>
      </trkpt>
      <trkpt lat="44.02277" lon="3.14224">
        <ele>789.2</ele>
        <time>2022-07-12T18:52:26Z</time>
      </trkpt>
      <trkpt lat="44.02264" lon="3.14244">
        <ele>788.2</ele>
        <time>2022-07-12T18:52:33Z</time>
      </trkpt>
      <trkpt lat="44.02257" lon="3.14265">
        <ele>788.2</ele>
        <time>2022-07-12T18:52:39Z</time>
      </trkpt>
      <trkpt lat="44.02251" lon="3.14294">
        <ele>787.8</ele>
        <time>2022-07-12T18:52:45Z</time>
      </trkpt>
      <trkpt lat="44.02249" lon="3.143">
        <ele>787.6</ele>
        <time>2022-07-12T18:52:46Z</time>
      </trkpt>
      <trkpt lat="44.02243" lon="3.14311">
        <ele>787.2</ele>
        <time>2022-07-12T18:52:48Z</time>
      </trkpt>
      <trkpt lat="44.02239" lon="3.14316">
        <ele>787</ele>
        <time>2022-07-12T18:52:49Z</time>
      </trkpt>
      <trkpt lat="44.02225" lon="3.14334">
        <ele>786.4</ele>
        <time>2022-07-12T18:52:53Z</time>
      </trkpt>
      <trkpt lat="44.02222" lon="3.14339">
        <ele>786.2</ele>
        <time>2022-07-12T18:52:54Z</time>
      </trkpt>
      <trkpt lat="44.02215" lon="3.14353">
        <ele>785.8</ele>
        <time>2022-07-12T18:52:57Z</time>
      </trkpt>
      <trkpt lat="44.02207" lon="3.14364">
        <ele>785</ele>
        <time>2022-07-12T18:53:00Z</time>
      </trkpt>
      <trkpt lat="44.02201" lon="3.14371">
        <ele>784</ele>
        <time>2022-07-12T18:53:02Z</time>
      </trkpt>
      <trkpt lat="44.02198" lon="3.14374">
        <ele>783.6</ele>
        <time>2022-07-12T18:53:03Z</time>
      </trkpt>
      <trkpt lat="44.02193" lon="3.14379">
        <ele>782.8</ele>
        <time>2022-07-12T18:53:05Z</time>
      </trkpt>
      <trkpt lat="44.02189" lon="3.14382">
        <ele>782</ele>
        <time>2022-07-12T18:53:07Z</time>
      </trkpt>
      <trkpt lat="44.02186" lon="3.14384">
        <ele>781.4</ele>
        <time>2022-07-12T18:53:08Z</time>
      </trkpt>
      <trkpt lat="44.02174" lon="3.14389">
        <ele>780.6</ele>
        <time>2022-07-12T18:53:11Z</time>
      </trkpt>
      <trkpt lat="44.0217" lon="3.14391">
        <ele>780.4</ele>
        <time>2022-07-12T18:53:12Z</time>
      </trkpt>
      <trkpt lat="44.02163" lon="3.14397">
        <ele>780</ele>
        <time>2022-07-12T18:53:14Z</time>
      </trkpt>
      <trkpt lat="44.02161" lon="3.14401">
        <ele>779.6</ele>
        <time>2022-07-12T18:53:15Z</time>
      </trkpt>
      <trkpt lat="44.02157" lon="3.14411">
        <ele>779</ele>
        <time>2022-07-12T18:53:17Z</time>
      </trkpt>
      <trkpt lat="44.02148" lon="3.14435">
        <ele>778</ele>
        <time>2022-07-12T18:53:21Z</time>
      </trkpt>
      <trkpt lat="44.02135" lon="3.14463">
        <ele>776.8</ele>
        <time>2022-07-12T18:53:25Z</time>
      </trkpt>
      <trkpt lat="44.02133" lon="3.14467">
        <ele>776.4</ele>
        <time>2022-07-12T18:53:26Z</time>
      </trkpt>
      <trkpt lat="44.02132" lon="3.14469">
        <ele>776</ele>
        <time>2022-07-12T18:53:27Z</time>
      </trkpt>
      <trkpt lat="44.0213" lon="3.1447">
        <ele>775.8</ele>
        <time>2022-07-12T18:53:28Z</time>
      </trkpt>
      <trkpt lat="44.02122" lon="3.14475">
        <ele>775</ele>
        <time>2022-07-12T18:53:32Z</time>
      </trkpt>
      <trkpt lat="44.02117" lon="3.14477">
        <ele>774.8</ele>
        <time>2022-07-12T18:53:34Z</time>
      </trkpt>
      <trkpt lat="44.02109" lon="3.14482">
        <ele>774.6</ele>
        <time>2022-07-12T18:53:38Z</time>
      </trkpt>
      <trkpt lat="44.02106" lon="3.14483">
        <ele>774.6</ele>
        <time>2022-07-12T18:53:39Z</time>
      </trkpt>
      <trkpt lat="44.0209" lon="3.14482">
        <ele>775.2</ele>
        <time>2022-07-12T18:53:46Z</time>
      </trkpt>
      <trkpt lat="44.02075" lon="3.14479">
        <ele>775.8</ele>
        <time>2022-07-12T18:53:52Z</time>
      </trkpt>
      <trkpt lat="44.02072" lon="3.14478">
        <ele>775.8</ele>
        <time>2022-07-12T18:53:53Z</time>
      </trkpt>
      <trkpt lat="44.02056" lon="3.14475">
        <ele>776.6</ele>
        <time>2022-07-12T18:54:00Z</time>
      </trkpt>
      <trkpt lat="44.0205" lon="3.14476">
        <ele>776.8</ele>
        <time>2022-07-12T18:54:03Z</time>
      </trkpt>
      <trkpt lat="44.02041" lon="3.14484">
        <ele>777.2</ele>
        <time>2022-07-12T18:54:07Z</time>
      </trkpt>
      <trkpt lat="44.02037" lon="3.14498">
        <ele>777.2</ele>
        <time>2022-07-12T18:54:12Z</time>
      </trkpt>
      <trkpt lat="44.02032" lon="3.14512">
        <ele>776</ele>
        <time>2022-07-12T18:54:17Z</time>
      </trkpt>
      <trkpt lat="44.02031" lon="3.14514">
        <ele>776</ele>
        <time>2022-07-12T18:54:18Z</time>
      </trkpt>
      <trkpt lat="44.02031" lon="3.14515">
        <ele>775.6</ele>
        <time>2022-07-12T18:54:19Z</time>
      </trkpt>
      <trkpt lat="44.02031" lon="3.14515">
        <ele>775.6</ele>
        <time>2022-07-12T18:54:20Z</time>
      </trkpt>
      <trkpt lat="44.02028" lon="3.14523">
        <ele>774.2</ele>
        <time>2022-07-12T18:55:07Z</time>
      </trkpt>
      <trkpt lat="44.02027" lon="3.14526">
        <ele>774.2</ele>
        <time>2022-07-12T18:55:08Z</time>
      </trkpt>
      <trkpt lat="44.02021" lon="3.14542">
        <ele>773.6</ele>
        <time>2022-07-12T18:55:14Z</time>
      </trkpt>
      <trkpt lat="44.02006" lon="3.14562">
        <ele>773.4</ele>
        <time>2022-07-12T18:55:21Z</time>
      </trkpt>
      <trkpt lat="44.01992" lon="3.14581">
        <ele>773.6</ele>
        <time>2022-07-12T18:55:27Z</time>
      </trkpt>
      <trkpt lat="44.01976" lon="3.14604">
        <ele>773.6</ele>
        <time>2022-07-12T18:55:33Z</time>
      </trkpt>
      <trkpt lat="44.01971" lon="3.14613">
        <ele>773.2</ele>
        <time>2022-07-12T18:55:36Z</time>
      </trkpt>
      <trkpt lat="44.01963" lon="3.14624">
        <ele>773</ele>
        <time>2022-07-12T18:55:39Z</time>
      </trkpt>
      <trkpt lat="44.01957" lon="3.14632">
        <ele>773</ele>
        <time>2022-07-12T18:55:41Z</time>
      </trkpt>
      <trkpt lat="44.01954" lon="3.14639">
        <ele>772.8</ele>
        <time>2022-07-12T18:55:47Z</time>
      </trkpt>
      <trkpt lat="44.01954" lon="3.14639">
        <ele>772.8</ele>
        <time>2022-07-12T18:55:49Z</time>
      </trkpt>
      <trkpt lat="44.01954" lon="3.14639">
        <ele>772.8</ele>
        <time>2022-07-12T18:55:50Z</time>
      </trkpt>
      <trkpt lat="44.01949" lon="3.14643">
        <ele>772.6</ele>
        <time>2022-07-12T18:56:09Z</time>
      </trkpt>
      <trkpt lat="44.01945" lon="3.14643">
        <ele>772.6</ele>
        <time>2022-07-12T18:56:12Z</time>
      </trkpt>
      <trkpt lat="44.01943" lon="3.14643">
        <ele>772.8</ele>
        <time>2022-07-12T18:56:13Z</time>
      </trkpt>
      <trkpt lat="44.01931" lon="3.14634">
        <ele>773</ele>
        <time>2022-07-12T18:56:18Z</time>
      </trkpt>
      <trkpt lat="44.01914" lon="3.14619">
        <ele>773.2</ele>
        <time>2022-07-12T18:56:24Z</time>
      </trkpt>
      <trkpt lat="44.01899" lon="3.14604">
        <ele>773.6</ele>
        <time>2022-07-12T18:56:30Z</time>
      </trkpt>
      <trkpt lat="44.01891" lon="3.14594">
        <ele>774</ele>
        <time>2022-07-12T18:56:34Z</time>
      </trkpt>
      <trkpt lat="44.01886" lon="3.14588">
        <ele>774.2</ele>
        <time>2022-07-12T18:56:36Z</time>
      </trkpt>
      <trkpt lat="44.01876" lon="3.14571">
        <ele>774.6</ele>
        <time>2022-07-12T18:56:42Z</time>
      </trkpt>
      <trkpt lat="44.01863" lon="3.14544">
        <ele>775</ele>
        <time>2022-07-12T18:56:50Z</time>
      </trkpt>
      <trkpt lat="44.01861" lon="3.1454">
        <ele>775</ele>
        <time>2022-07-12T18:56:51Z</time>
      </trkpt>
      <trkpt lat="44.01844" lon="3.14498">
        <ele>775.6</ele>
        <time>2022-07-12T18:57:02Z</time>
      </trkpt>
      <trkpt lat="44.01835" lon="3.14474">
        <ele>775.8</ele>
        <time>2022-07-12T18:57:08Z</time>
      </trkpt>
      <trkpt lat="44.0183" lon="3.14459">
        <ele>776</ele>
        <time>2022-07-12T18:57:12Z</time>
      </trkpt>
      <trkpt lat="44.01829" lon="3.14456">
        <ele>776</ele>
        <time>2022-07-12T18:57:13Z</time>
      </trkpt>
      <trkpt lat="44.01821" lon="3.1443">
        <ele>776.4</ele>
        <time>2022-07-12T18:57:19Z</time>
      </trkpt>
      <trkpt lat="44.01815" lon="3.14412">
        <ele>776.6</ele>
        <time>2022-07-12T18:57:24Z</time>
      </trkpt>
      <trkpt lat="44.018" lon="3.14376">
        <ele>776.8</ele>
        <time>2022-07-12T18:57:32Z</time>
      </trkpt>
      <trkpt lat="44.0179" lon="3.14355">
        <ele>777</ele>
        <time>2022-07-12T18:57:37Z</time>
      </trkpt>
      <trkpt lat="44.01784" lon="3.14343">
        <ele>777</ele>
        <time>2022-07-12T18:57:40Z</time>
      </trkpt>
      <trkpt lat="44.01759" lon="3.14296">
        <ele>777</ele>
        <time>2022-07-12T18:57:50Z</time>
      </trkpt>
      <trkpt lat="44.0174" lon="3.14267">
        <ele>777.2</ele>
        <time>2022-07-12T18:57:57Z</time>
      </trkpt>
      <trkpt lat="44.01731" lon="3.1425">
        <ele>777.2</ele>
        <time>2022-07-12T18:58:02Z</time>
      </trkpt>
      <trkpt lat="44.01731" lon="3.1425">
        <ele>777.2</ele>
        <time>2022-07-12T18:58:03Z</time>
      </trkpt>
      <trkpt lat="44.01731" lon="3.1425">
        <ele>777</ele>
        <time>2022-07-12T18:58:05Z</time>
      </trkpt>
      <trkpt lat="44.0173" lon="3.14248">
        <ele>776.8</ele>
        <time>2022-07-12T18:58:09Z</time>
      </trkpt>
      <trkpt lat="44.01729" lon="3.14248">
        <ele>776.8</ele>
        <time>2022-07-12T18:58:12Z</time>
      </trkpt>
      <trkpt lat="44.01729" lon="3.14248">
        <ele>776.6</ele>
        <time>2022-07-12T18:58:14Z</time>
      </trkpt>
      <trkpt lat="44.01728" lon="3.14244">
        <ele>776.2</ele>
        <time>2022-07-12T18:58:39Z</time>
      </trkpt>
      <trkpt lat="44.01726" lon="3.14241">
        <ele>776.2</ele>
        <time>2022-07-12T18:58:42Z</time>
      </trkpt>
      <trkpt lat="44.01726" lon="3.14239">
        <ele>775.6</ele>
        <time>2022-07-12T18:58:44Z</time>
      </trkpt>
      <trkpt lat="44.01723" lon="3.14235">
        <ele>775.4</ele>
        <time>2022-07-12T18:58:48Z</time>
      </trkpt>
      <trkpt lat="44.01721" lon="3.14235">
        <ele>775</ele>
        <time>2022-07-12T18:58:50Z</time>
      </trkpt>
      <trkpt lat="44.0172" lon="3.14239">
        <ele>774.6</ele>
        <time>2022-07-12T18:58:52Z</time>
      </trkpt>
      <trkpt lat="44.01719" lon="3.14241">
        <ele>774.6</ele>
        <time>2022-07-12T18:58:53Z</time>
      </trkpt>
      <trkpt lat="44.01719" lon="3.14243">
        <ele>774.4</ele>
        <time>2022-07-12T18:58:54Z</time>
      </trkpt>
      <trkpt lat="44.01719" lon="3.14253">
        <ele>774.4</ele>
        <time>2022-07-12T18:58:57Z</time>
      </trkpt>
      <trkpt lat="44.01717" lon="3.14259">
        <ele>774.4</ele>
        <time>2022-07-12T18:58:59Z</time>
      </trkpt>
      <trkpt lat="44.01712" lon="3.14265">
        <ele>774.4</ele>
        <time>2022-07-12T18:59:01Z</time>
      </trkpt>
      <trkpt lat="44.01707" lon="3.14291">
        <ele>774.8</ele>
        <time>2022-07-12T18:59:08Z</time>
      </trkpt>
      <trkpt lat="44.01704" lon="3.14309">
        <ele>775.6</ele>
        <time>2022-07-12T18:59:14Z</time>
      </trkpt>
      <trkpt lat="44.01704" lon="3.14311">
        <ele>775.8</ele>
        <time>2022-07-12T18:59:15Z</time>
      </trkpt>
      <trkpt lat="44.01701" lon="3.14332">
        <ele>776.8</ele>
        <time>2022-07-12T18:59:21Z</time>
      </trkpt>
      <trkpt lat="44.01693" lon="3.14344">
        <ele>777.2</ele>
        <time>2022-07-12T18:59:25Z</time>
      </trkpt>
      <trkpt lat="44.01675" lon="3.14365">
        <ele>777.4</ele>
        <time>2022-07-12T18:59:33Z</time>
      </trkpt>
      <trkpt lat="44.01667" lon="3.14374">
        <ele>777.4</ele>
        <time>2022-07-12T18:59:37Z</time>
      </trkpt>
      <trkpt lat="44.01667" lon="3.14389">
        <ele>777.2</ele>
        <time>2022-07-12T18:59:41Z</time>
      </trkpt>
      <trkpt lat="44.01669" lon="3.14406">
        <ele>777</ele>
        <time>2022-07-12T18:59:45Z</time>
      </trkpt>
      <trkpt lat="44.01668" lon="3.1441">
        <ele>777</ele>
        <time>2022-07-12T18:59:46Z</time>
      </trkpt>
      <trkpt lat="44.01662" lon="3.14419">
        <ele>776.8</ele>
        <time>2022-07-12T18:59:49Z</time>
      </trkpt>
      <trkpt lat="44.01658" lon="3.1442">
        <ele>776.6</ele>
        <time>2022-07-12T18:59:51Z</time>
      </trkpt>
      <trkpt lat="44.01652" lon="3.1442">
        <ele>776.6</ele>
        <time>2022-07-12T18:59:56Z</time>
      </trkpt>
      <trkpt lat="44.01652" lon="3.1442">
        <ele>776.6</ele>
        <time>2022-07-12T18:59:58Z</time>
      </trkpt>
      <trkpt lat="44.01649" lon="3.14423">
        <ele>776.4</ele>
        <time>2022-07-12T19:00:04Z</time>
      </trkpt>
      <trkpt lat="44.01647" lon="3.14424">
        <ele>776.4</ele>
        <time>2022-07-12T19:00:05Z</time>
      </trkpt>
      <trkpt lat="44.01633" lon="3.14436">
        <ele>776.4</ele>
        <time>2022-07-12T19:00:10Z</time>
      </trkpt>
      <trkpt lat="44.01614" lon="3.14452">
        <ele>776.2</ele>
        <time>2022-07-12T19:00:16Z</time>
      </trkpt>
      <trkpt lat="44.01589" lon="3.14477">
        <ele>776.4</ele>
        <time>2022-07-12T19:00:25Z</time>
      </trkpt>
      <trkpt lat="44.01567" lon="3.14507">
        <ele>777.4</ele>
        <time>2022-07-12T19:00:35Z</time>
      </trkpt>
      <trkpt lat="44.01554" lon="3.1453">
        <ele>777.6</ele>
        <time>2022-07-12T19:00:42Z</time>
      </trkpt>
      <trkpt lat="44.01547" lon="3.14545">
        <ele>777.8</ele>
        <time>2022-07-12T19:00:46Z</time>
      </trkpt>
      <trkpt lat="44.01538" lon="3.1457">
        <ele>778.2</ele>
        <time>2022-07-12T19:00:52Z</time>
      </trkpt>
      <trkpt lat="44.01528" lon="3.146">
        <ele>778.6</ele>
        <time>2022-07-12T19:00:59Z</time>
      </trkpt>
      <trkpt lat="44.01512" lon="3.14641">
        <ele>778.6</ele>
        <time>2022-07-12T19:01:07Z</time>
      </trkpt>
      <trkpt lat="44.01491" lon="3.14671">
        <ele>778</ele>
        <time>2022-07-12T19:01:14Z</time>
      </trkpt>
      <trkpt lat="44.01486" lon="3.14677">
        <ele>778</ele>
        <time>2022-07-12T19:01:16Z</time>
      </trkpt>
      <trkpt lat="44.01474" lon="3.14691">
        <ele>778</ele>
        <time>2022-07-12T19:01:20Z</time>
      </trkpt>
      <trkpt lat="44.01453" lon="3.14706">
        <ele>778.6</ele>
        <time>2022-07-12T19:01:27Z</time>
      </trkpt>
      <trkpt lat="44.01449" lon="3.14709">
        <ele>778.8</ele>
        <time>2022-07-12T19:01:28Z</time>
      </trkpt>
      <trkpt lat="44.01431" lon="3.14725">
        <ele>779.6</ele>
        <time>2022-07-12T19:01:35Z</time>
      </trkpt>
      <trkpt lat="44.01426" lon="3.14732">
        <ele>779.8</ele>
        <time>2022-07-12T19:01:37Z</time>
      </trkpt>
      <trkpt lat="44.01414" lon="3.14747">
        <ele>780.4</ele>
        <time>2022-07-12T19:01:42Z</time>
      </trkpt>
      <trkpt lat="44.01394" lon="3.14782">
        <ele>781</ele>
        <time>2022-07-12T19:01:51Z</time>
      </trkpt>
      <trkpt lat="44.01392" lon="3.14787">
        <ele>781</ele>
        <time>2022-07-12T19:01:52Z</time>
      </trkpt>
      <trkpt lat="44.01372" lon="3.14829">
        <ele>780.8</ele>
        <time>2022-07-12T19:02:01Z</time>
      </trkpt>
      <trkpt lat="44.01359" lon="3.14851">
        <ele>780.2</ele>
        <time>2022-07-12T19:02:08Z</time>
      </trkpt>
      <trkpt lat="44.01359" lon="3.14852">
        <ele>779.8</ele>
        <time>2022-07-12T19:02:11Z</time>
      </trkpt>
      <trkpt lat="44.01356" lon="3.14855">
        <ele>779</ele>
        <time>2022-07-12T19:02:58Z</time>
      </trkpt>
      <trkpt lat="44.01348" lon="3.14865">
        <ele>779</ele>
        <time>2022-07-12T19:03:01Z</time>
      </trkpt>
      <trkpt lat="44.01329" lon="3.14885">
        <ele>778.6</ele>
        <time>2022-07-12T19:03:06Z</time>
      </trkpt>
      <trkpt lat="44.01325" lon="3.14889">
        <ele>778.6</ele>
        <time>2022-07-12T19:03:07Z</time>
      </trkpt>
      <trkpt lat="44.01302" lon="3.14907">
        <ele>777.6</ele>
        <time>2022-07-12T19:03:12Z</time>
      </trkpt>
      <trkpt lat="44.01294" lon="3.14914">
        <ele>777.4</ele>
        <time>2022-07-12T19:03:14Z</time>
      </trkpt>
      <trkpt lat="44.01287" lon="3.14921">
        <ele>777.2</ele>
        <time>2022-07-12T19:03:16Z</time>
      </trkpt>
      <trkpt lat="44.01276" lon="3.1493">
        <ele>777</ele>
        <time>2022-07-12T19:03:19Z</time>
      </trkpt>
      <trkpt lat="44.01256" lon="3.14943">
        <ele>777.4</ele>
        <time>2022-07-12T19:03:25Z</time>
      </trkpt>
      <trkpt lat="44.01235" lon="3.14948">
        <ele>777.6</ele>
        <time>2022-07-12T19:03:31Z</time>
      </trkpt>
      <trkpt lat="44.01209" lon="3.14936">
        <ele>778.2</ele>
        <time>2022-07-12T19:03:39Z</time>
      </trkpt>
      <trkpt lat="44.01195" lon="3.14921">
        <ele>778.8</ele>
        <time>2022-07-12T19:03:45Z</time>
      </trkpt>
      <trkpt lat="44.01193" lon="3.14918">
        <ele>779</ele>
        <time>2022-07-12T19:03:46Z</time>
      </trkpt>
      <trkpt lat="44.01177" lon="3.14907">
        <ele>779.6</ele>
        <time>2022-07-12T19:03:53Z</time>
      </trkpt>
      <trkpt lat="44.01166" lon="3.14907">
        <ele>780</ele>
        <time>2022-07-12T19:03:57Z</time>
      </trkpt>
      <trkpt lat="44.01153" lon="3.14903">
        <ele>780.4</ele>
        <time>2022-07-12T19:04:02Z</time>
      </trkpt>
      <trkpt lat="44.01146" lon="3.14897">
        <ele>780.8</ele>
        <time>2022-07-12T19:04:05Z</time>
      </trkpt>
      <trkpt lat="44.01139" lon="3.14886">
        <ele>781.2</ele>
        <time>2022-07-12T19:04:09Z</time>
      </trkpt>
      <trkpt lat="44.01134" lon="3.14871">
        <ele>782</ele>
        <time>2022-07-12T19:04:13Z</time>
      </trkpt>
      <trkpt lat="44.01133" lon="3.1486">
        <ele>782.4</ele>
        <time>2022-07-12T19:04:16Z</time>
      </trkpt>
      <trkpt lat="44.01134" lon="3.14846">
        <ele>783</ele>
        <time>2022-07-12T19:04:20Z</time>
      </trkpt>
      <trkpt lat="44.01136" lon="3.14838">
        <ele>783.4</ele>
        <time>2022-07-12T19:04:22Z</time>
      </trkpt>
      <trkpt lat="44.01147" lon="3.14814">
        <ele>783.8</ele>
        <time>2022-07-12T19:04:29Z</time>
      </trkpt>
      <trkpt lat="44.01149" lon="3.14808">
        <ele>784</ele>
        <time>2022-07-12T19:04:31Z</time>
      </trkpt>
      <trkpt lat="44.0115" lon="3.14786">
        <ele>784.8</ele>
        <time>2022-07-12T19:04:36Z</time>
      </trkpt>
      <trkpt lat="44.01144" lon="3.14769">
        <ele>785</ele>
        <time>2022-07-12T19:04:40Z</time>
      </trkpt>
      <trkpt lat="44.01132" lon="3.14757">
        <ele>785.4</ele>
        <time>2022-07-12T19:04:45Z</time>
      </trkpt>
      <trkpt lat="44.0111" lon="3.14764">
        <ele>785.6</ele>
        <time>2022-07-12T19:04:51Z</time>
      </trkpt>
      <trkpt lat="44.01087" lon="3.1478">
        <ele>785.6</ele>
        <time>2022-07-12T19:04:58Z</time>
      </trkpt>
      <trkpt lat="44.01051" lon="3.14803">
        <ele>785.4</ele>
        <time>2022-07-12T19:05:09Z</time>
      </trkpt>
      <trkpt lat="44.01018" lon="3.14824">
        <ele>785</ele>
        <time>2022-07-12T19:05:19Z</time>
      </trkpt>
      <trkpt lat="44.01001" lon="3.14832">
        <ele>784.8</ele>
        <time>2022-07-12T19:05:25Z</time>
      </trkpt>
      <trkpt lat="44.0099" lon="3.14838">
        <ele>784.4</ele>
        <time>2022-07-12T19:05:30Z</time>
      </trkpt>
      <trkpt lat="44.00984" lon="3.14858">
        <ele>784.4</ele>
        <time>2022-07-12T19:05:35Z</time>
      </trkpt>
      <trkpt lat="44.00978" lon="3.14896">
        <ele>784.4</ele>
        <time>2022-07-12T19:05:42Z</time>
      </trkpt>
      <trkpt lat="44.00974" lon="3.1492">
        <ele>784.4</ele>
        <time>2022-07-12T19:05:47Z</time>
      </trkpt>
      <trkpt lat="44.00971" lon="3.14947">
        <ele>784</ele>
        <time>2022-07-12T19:05:52Z</time>
      </trkpt>
      <trkpt lat="44.0097" lon="3.14959">
        <ele>784</ele>
        <time>2022-07-12T19:05:54Z</time>
      </trkpt>
      <trkpt lat="44.00963" lon="3.15">
        <ele>783.6</ele>
        <time>2022-07-12T19:06:01Z</time>
      </trkpt>
      <trkpt lat="44.0096" lon="3.15022">
        <ele>783.6</ele>
        <time>2022-07-12T19:06:05Z</time>
      </trkpt>
      <trkpt lat="44.0096" lon="3.15027">
        <ele>783.6</ele>
        <time>2022-07-12T19:06:06Z</time>
      </trkpt>
      <trkpt lat="44.00957" lon="3.15051">
        <ele>783.4</ele>
        <time>2022-07-12T19:06:11Z</time>
      </trkpt>
      <trkpt lat="44.0095" lon="3.15089">
        <ele>783</ele>
        <time>2022-07-12T19:06:18Z</time>
      </trkpt>
      <trkpt lat="44.00946" lon="3.15107">
        <ele>782.8</ele>
        <time>2022-07-12T19:06:23Z</time>
      </trkpt>
      <trkpt lat="44.00945" lon="3.15108">
        <ele>782.4</ele>
        <time>2022-07-12T19:06:27Z</time>
      </trkpt>
      <trkpt lat="44.00945" lon="3.15107">
        <ele>782.2</ele>
        <time>2022-07-12T19:06:30Z</time>
      </trkpt>
      <trkpt lat="44.00943" lon="3.15107">
        <ele>782.2</ele>
        <time>2022-07-12T19:06:36Z</time>
      </trkpt>
      <trkpt lat="44.00943" lon="3.15109">
        <ele>782</ele>
        <time>2022-07-12T19:06:37Z</time>
      </trkpt>
      <trkpt lat="44.00944" lon="3.15115">
        <ele>782</ele>
        <time>2022-07-12T19:06:40Z</time>
      </trkpt>
      <trkpt lat="44.00942" lon="3.15115">
        <ele>782</ele>
        <time>2022-07-12T19:06:42Z</time>
      </trkpt>
      <trkpt lat="44.00937" lon="3.15099">
        <ele>782</ele>
        <time>2022-07-12T19:06:48Z</time>
      </trkpt>
      <trkpt lat="44.00929" lon="3.15088">
        <ele>782.2</ele>
        <time>2022-07-12T19:06:54Z</time>
      </trkpt>
      <trkpt lat="44.00927" lon="3.15086">
        <ele>782.4</ele>
        <time>2022-07-12T19:06:56Z</time>
      </trkpt>
      <trkpt lat="44.00926" lon="3.15087">
        <ele>782.8</ele>
        <time>2022-07-12T19:06:59Z</time>
      </trkpt>
      <trkpt lat="44.00926" lon="3.15089">
        <ele>782.8</ele>
        <time>2022-07-12T19:07:00Z</time>
      </trkpt>
      <trkpt lat="44.00933" lon="3.15097">
        <ele>783</ele>
        <time>2022-07-12T19:07:04Z</time>
      </trkpt>
      <trkpt lat="44.00941" lon="3.15111">
        <ele>783</ele>
        <time>2022-07-12T19:07:09Z</time>
      </trkpt>
      <trkpt lat="44.00944" lon="3.15136">
        <ele>782.8</ele>
        <time>2022-07-12T19:07:15Z</time>
      </trkpt>
      <trkpt lat="44.00939" lon="3.1517">
        <ele>782.6</ele>
        <time>2022-07-12T19:07:21Z</time>
      </trkpt>
      <trkpt lat="44.00935" lon="3.15198">
        <ele>782.6</ele>
        <time>2022-07-12T19:07:25Z</time>
      </trkpt>
      <trkpt lat="44.00931" lon="3.15217">
        <ele>782.4</ele>
        <time>2022-07-12T19:07:28Z</time>
      </trkpt>
      <trkpt lat="44.00924" lon="3.15252">
        <ele>782.4</ele>
        <time>2022-07-12T19:07:35Z</time>
      </trkpt>
      <trkpt lat="44.00924" lon="3.15272">
        <ele>782.4</ele>
        <time>2022-07-12T19:07:40Z</time>
      </trkpt>
      <trkpt lat="44.00924" lon="3.15288">
        <ele>782.6</ele>
        <time>2022-07-12T19:07:45Z</time>
      </trkpt>
      <trkpt lat="44.0092" lon="3.1531">
        <ele>782.6</ele>
        <time>2022-07-12T19:07:50Z</time>
      </trkpt>
      <trkpt lat="44.00919" lon="3.15339">
        <ele>783.4</ele>
        <time>2022-07-12T19:07:57Z</time>
      </trkpt>
      <trkpt lat="44.00918" lon="3.15356">
        <ele>783.8</ele>
        <time>2022-07-12T19:08:02Z</time>
      </trkpt>
      <trkpt lat="44.00918" lon="3.15359">
        <ele>783.8</ele>
        <time>2022-07-12T19:08:03Z</time>
      </trkpt>
      <trkpt lat="44.00917" lon="3.15364">
        <ele>784</ele>
        <time>2022-07-12T19:08:05Z</time>
      </trkpt>
      <trkpt lat="44.00916" lon="3.15367">
        <ele>784.2</ele>
        <time>2022-07-12T19:08:07Z</time>
      </trkpt>
      <trkpt lat="44.00916" lon="3.15367">
        <ele>784.2</ele>
        <time>2022-07-12T19:08:09Z</time>
      </trkpt>
      <trkpt lat="44.00916" lon="3.15369">
        <ele>784.4</ele>
        <time>2022-07-12T19:08:36Z</time>
      </trkpt>
      <trkpt lat="44.00916" lon="3.1537">
        <ele>784.4</ele>
        <time>2022-07-12T19:08:37Z</time>
      </trkpt>
      <trkpt lat="44.00917" lon="3.15373">
        <ele>784.4</ele>
        <time>2022-07-12T19:08:39Z</time>
      </trkpt>
      <trkpt lat="44.00918" lon="3.15378">
        <ele>784.4</ele>
        <time>2022-07-12T19:08:41Z</time>
      </trkpt>
      <trkpt lat="44.00921" lon="3.15384">
        <ele>784.4</ele>
        <time>2022-07-12T19:08:43Z</time>
      </trkpt>
      <trkpt lat="44.00928" lon="3.15405">
        <ele>784.6</ele>
        <time>2022-07-12T19:08:48Z</time>
      </trkpt>
      <trkpt lat="44.00929" lon="3.1542">
        <ele>785</ele>
        <time>2022-07-12T19:08:52Z</time>
      </trkpt>
      <trkpt lat="44.00928" lon="3.15444">
        <ele>785.8</ele>
        <time>2022-07-12T19:08:58Z</time>
      </trkpt>
      <trkpt lat="44.00927" lon="3.15449">
        <ele>786</ele>
        <time>2022-07-12T19:08:59Z</time>
      </trkpt>
      <trkpt lat="44.00919" lon="3.15469">
        <ele>786.8</ele>
        <time>2022-07-12T19:09:04Z</time>
      </trkpt>
      <trkpt lat="44.00917" lon="3.15472">
        <ele>786.8</ele>
        <time>2022-07-12T19:09:05Z</time>
      </trkpt>
      <trkpt lat="44.00906" lon="3.1549">
        <ele>787.2</ele>
        <time>2022-07-12T19:09:10Z</time>
      </trkpt>
      <trkpt lat="44.00891" lon="3.1552">
        <ele>787.8</ele>
        <time>2022-07-12T19:09:17Z</time>
      </trkpt>
      <trkpt lat="44.0089" lon="3.15524">
        <ele>787.8</ele>
        <time>2022-07-12T19:09:18Z</time>
      </trkpt>
      <trkpt lat="44.0088" lon="3.15549">
        <ele>788.2</ele>
        <time>2022-07-12T19:09:24Z</time>
      </trkpt>
      <trkpt lat="44.00871" lon="3.15577">
        <ele>788.6</ele>
        <time>2022-07-12T19:09:31Z</time>
      </trkpt>
      <trkpt lat="44.00869" lon="3.1559">
        <ele>788.8</ele>
        <time>2022-07-12T19:09:34Z</time>
      </trkpt>
      <trkpt lat="44.00866" lon="3.15613">
        <ele>789.2</ele>
        <time>2022-07-12T19:09:39Z</time>
      </trkpt>
      <trkpt lat="44.00866" lon="3.15646">
        <ele>789.6</ele>
        <time>2022-07-12T19:09:46Z</time>
      </trkpt>
      <trkpt lat="44.0087" lon="3.15661">
        <ele>789.8</ele>
        <time>2022-07-12T19:09:50Z</time>
      </trkpt>
      <trkpt lat="44.0087" lon="3.15665">
        <ele>789.8</ele>
        <time>2022-07-12T19:09:51Z</time>
      </trkpt>
      <trkpt lat="44.0088" lon="3.15696">
        <ele>789.8</ele>
        <time>2022-07-12T19:09:57Z</time>
      </trkpt>
      <trkpt lat="44.00893" lon="3.15742">
        <ele>789.8</ele>
        <time>2022-07-12T19:10:06Z</time>
      </trkpt>
      <trkpt lat="44.00901" lon="3.15774">
        <ele>789.6</ele>
        <time>2022-07-12T19:10:13Z</time>
      </trkpt>
      <trkpt lat="44.00898" lon="3.15796">
        <ele>789.4</ele>
        <time>2022-07-12T19:10:19Z</time>
      </trkpt>
      <trkpt lat="44.00891" lon="3.15806">
        <ele>789.6</ele>
        <time>2022-07-12T19:10:24Z</time>
      </trkpt>
      <trkpt lat="44.00889" lon="3.15807">
        <ele>789.6</ele>
        <time>2022-07-12T19:10:25Z</time>
      </trkpt>
      <trkpt lat="44.00886" lon="3.15808">
        <ele>789.6</ele>
        <time>2022-07-12T19:10:27Z</time>
      </trkpt>
      <trkpt lat="44.00879" lon="3.15816">
        <ele>790.2</ele>
        <time>2022-07-12T19:10:31Z</time>
      </trkpt>
      <trkpt lat="44.00867" lon="3.15835">
        <ele>790.6</ele>
        <time>2022-07-12T19:10:38Z</time>
      </trkpt>
      <trkpt lat="44.00866" lon="3.15836">
        <ele>790.8</ele>
        <time>2022-07-12T19:10:39Z</time>
      </trkpt>
      <trkpt lat="44.00865" lon="3.15838">
        <ele>790.8</ele>
        <time>2022-07-12T19:10:41Z</time>
      </trkpt>
      <trkpt lat="44.00865" lon="3.15838">
        <ele>791.2</ele>
        <time>2022-07-12T19:10:44Z</time>
      </trkpt>
      <trkpt lat="44.00863" lon="3.15838">
        <ele>791.2</ele>
        <time>2022-07-12T19:10:55Z</time>
      </trkpt>
      <trkpt lat="44.00861" lon="3.1584">
        <ele>791.2</ele>
        <time>2022-07-12T19:10:57Z</time>
      </trkpt>
      <trkpt lat="44.00855" lon="3.15847">
        <ele>791.2</ele>
        <time>2022-07-12T19:11:05Z</time>
      </trkpt>
      <trkpt lat="44.00849" lon="3.15853">
        <ele>791.6</ele>
        <time>2022-07-12T19:11:12Z</time>
      </trkpt>
      <trkpt lat="44.00848" lon="3.15854">
        <ele>791.6</ele>
        <time>2022-07-12T19:11:13Z</time>
      </trkpt>
      <trkpt lat="44.00841" lon="3.15862">
        <ele>792</ele>
        <time>2022-07-12T19:11:21Z</time>
      </trkpt>
      <trkpt lat="44.0084" lon="3.15864">
        <ele>792.2</ele>
        <time>2022-07-12T19:11:23Z</time>
      </trkpt>
      <trkpt lat="44.0084" lon="3.15867">
        <ele>792.4</ele>
        <time>2022-07-12T19:11:27Z</time>
      </trkpt>
      <trkpt lat="44.0084" lon="3.15867">
        <ele>792.6</ele>
        <time>2022-07-12T19:11:29Z</time>
      </trkpt>
      <trkpt lat="44.0084" lon="3.15866">
        <ele>792.6</ele>
        <time>2022-07-12T19:23:30Z</time>
      </trkpt>
      <trkpt lat="44.00839" lon="3.15865">
        <ele>792.6</ele>
        <time>2022-07-12T19:23:32Z</time>
      </trkpt>
      <trkpt lat="44.00838" lon="3.15865">
        <ele>792.6</ele>
        <time>2022-07-12T19:23:39Z</time>
      </trkpt>
      <trkpt lat="44.00838" lon="3.15865">
        <ele>792.6</ele>
        <time>2022-07-12T19:23:40Z</time>
      </trkpt>
      <trkpt lat="44.00837" lon="3.15863">
        <ele>792.6</ele>
        <time>2022-07-12T19:23:42Z</time>
      </trkpt>
      <trkpt lat="44.00838" lon="3.15859">
        <ele>792.6</ele>
        <time>2022-07-12T19:23:44Z</time>
      </trkpt>
      <trkpt lat="44.0084" lon="3.15861">
        <ele>792.4</ele>
        <time>2022-07-12T19:23:46Z</time>
      </trkpt>
      <trkpt lat="44.00834" lon="3.15863">
        <ele>792.4</ele>
        <time>2022-07-12T19:23:49Z</time>
      </trkpt>
      <trkpt lat="44.00829" lon="3.15864">
        <ele>792.4</ele>
        <time>2022-07-12T19:23:51Z</time>
      </trkpt>
      <trkpt lat="44.00826" lon="3.15869">
        <ele>792.4</ele>
        <time>2022-07-12T19:23:53Z</time>
      </trkpt>
      <trkpt lat="44.00822" lon="3.15879">
        <ele>792.6</ele>
        <time>2022-07-12T19:23:56Z</time>
      </trkpt>
      <trkpt lat="44.00818" lon="3.15885">
        <ele>792.8</ele>
        <time>2022-07-12T19:23:58Z</time>
      </trkpt>
      <trkpt lat="44.0081" lon="3.15902">
        <ele>793.4</ele>
        <time>2022-07-12T19:24:03Z</time>
      </trkpt>
      <trkpt lat="44.00805" lon="3.15918">
        <ele>793.6</ele>
        <time>2022-07-12T19:24:07Z</time>
      </trkpt>
      <trkpt lat="44.00801" lon="3.15927">
        <ele>793.8</ele>
        <time>2022-07-12T19:24:09Z</time>
      </trkpt>
      <trkpt lat="44.00782" lon="3.15948">
        <ele>793.8</ele>
        <time>2022-07-12T19:24:15Z</time>
      </trkpt>
      <trkpt lat="44.00763" lon="3.15967">
        <ele>793.4</ele>
        <time>2022-07-12T19:24:21Z</time>
      </trkpt>
      <trkpt lat="44.00752" lon="3.15978">
        <ele>793</ele>
        <time>2022-07-12T19:24:26Z</time>
      </trkpt>
      <trkpt lat="44.00752" lon="3.15978">
        <ele>792.8</ele>
        <time>2022-07-12T19:24:30Z</time>
      </trkpt>
      <trkpt lat="44.00752" lon="3.15977">
        <ele>792.8</ele>
        <time>2022-07-12T19:24:32Z</time>
      </trkpt>
      <trkpt lat="44.00752" lon="3.15977">
        <ele>792.6</ele>
        <time>2022-07-12T19:24:35Z</time>
      </trkpt>
      <trkpt lat="44.00752" lon="3.15977">
        <ele>792.6</ele>
        <time>2022-07-12T19:24:37Z</time>
      </trkpt>
      <trkpt lat="44.00751" lon="3.15978">
        <ele>792.6</ele>
        <time>2022-07-12T19:24:43Z</time>
      </trkpt>
      <trkpt lat="44.00751" lon="3.15978">
        <ele>792.6</ele>
        <time>2022-07-12T19:24:44Z</time>
      </trkpt>
      <trkpt lat="44.00751" lon="3.15978">
        <ele>792.6</ele>
        <time>2022-07-12T19:24:45Z</time>
      </trkpt>
      <trkpt lat="44.00749" lon="3.1598">
        <ele>792.6</ele>
        <time>2022-07-12T19:24:48Z</time>
      </trkpt>
      <trkpt lat="44.00746" lon="3.15983">
        <ele>792.6</ele>
        <time>2022-07-12T19:24:54Z</time>
      </trkpt>
      <trkpt lat="44.00736" lon="3.15993">
        <ele>792.6</ele>
        <time>2022-07-12T19:24:59Z</time>
      </trkpt>
      <trkpt lat="44.0072" lon="3.16014">
        <ele>792.4</ele>
        <time>2022-07-12T19:25:08Z</time>
      </trkpt>
      <trkpt lat="44.00718" lon="3.16034">
        <ele>792</ele>
        <time>2022-07-12T19:25:13Z</time>
      </trkpt>
      <trkpt lat="44.00723" lon="3.16061">
        <ele>791.4</ele>
        <time>2022-07-12T19:25:18Z</time>
      </trkpt>
      <trkpt lat="44.00726" lon="3.16065">
        <ele>791.4</ele>
        <time>2022-07-12T19:25:19Z</time>
      </trkpt>
      <trkpt lat="44.00728" lon="3.16071">
        <ele>791.4</ele>
        <time>2022-07-12T19:25:20Z</time>
      </trkpt>
      <trkpt lat="44.00731" lon="3.16083">
        <ele>791.2</ele>
        <time>2022-07-12T19:25:22Z</time>
      </trkpt>
      <trkpt lat="44.00736" lon="3.161">
        <ele>790.4</ele>
        <time>2022-07-12T19:25:26Z</time>
      </trkpt>
      <trkpt lat="44.00738" lon="3.16099">
        <ele>790.4</ele>
        <time>2022-07-12T19:25:28Z</time>
      </trkpt>
      <trkpt lat="44.00737" lon="3.16096">
        <ele>790.2</ele>
        <time>2022-07-12T19:25:29Z</time>
      </trkpt>
      <trkpt lat="44.00736" lon="3.16095">
        <ele>790.2</ele>
        <time>2022-07-12T19:25:30Z</time>
      </trkpt>
      <trkpt lat="44.00732" lon="3.16095">
        <ele>790.2</ele>
        <time>2022-07-12T19:25:32Z</time>
      </trkpt>
      <trkpt lat="44.0073" lon="3.16095">
        <ele>790</ele>
        <time>2022-07-12T19:25:33Z</time>
      </trkpt>
      <trkpt lat="44.00725" lon="3.16104">
        <ele>790</ele>
        <time>2022-07-12T19:25:38Z</time>
      </trkpt>
      <trkpt lat="44.00725" lon="3.16104">
        <ele>790.2</ele>
        <time>2022-07-12T19:25:43Z</time>
      </trkpt>
      <trkpt lat="44.00728" lon="3.16104">
        <ele>790.4</ele>
        <time>2022-07-12T19:25:46Z</time>
      </trkpt>
      <trkpt lat="44.00732" lon="3.16106">
        <ele>790.4</ele>
        <time>2022-07-12T19:25:48Z</time>
      </trkpt>
      <trkpt lat="44.00735" lon="3.16112">
        <ele>790.4</ele>
        <time>2022-07-12T19:25:50Z</time>
      </trkpt>
      <trkpt lat="44.00735" lon="3.16125">
        <ele>790.2</ele>
        <time>2022-07-12T19:25:53Z</time>
      </trkpt>
      <trkpt lat="44.00735" lon="3.16155">
        <ele>790</ele>
        <time>2022-07-12T19:25:59Z</time>
      </trkpt>
      <trkpt lat="44.00731" lon="3.16191">
        <ele>789.8</ele>
        <time>2022-07-12T19:26:06Z</time>
      </trkpt>
      <trkpt lat="44.00729" lon="3.16209">
        <ele>789.6</ele>
        <time>2022-07-12T19:26:10Z</time>
      </trkpt>
      <trkpt lat="44.00723" lon="3.16247">
        <ele>789.4</ele>
        <time>2022-07-12T19:26:17Z</time>
      </trkpt>
      <trkpt lat="44.00718" lon="3.16274">
        <ele>789.4</ele>
        <time>2022-07-12T19:26:22Z</time>
      </trkpt>
      <trkpt lat="44.00716" lon="3.16279">
        <ele>789.2</ele>
        <time>2022-07-12T19:26:23Z</time>
      </trkpt>
      <trkpt lat="44.00703" lon="3.16311">
        <ele>789</ele>
        <time>2022-07-12T19:26:29Z</time>
      </trkpt>
      <trkpt lat="44.00692" lon="3.16329">
        <ele>788.4</ele>
        <time>2022-07-12T19:26:33Z</time>
      </trkpt>
      <trkpt lat="44.00687" lon="3.16344">
        <ele>788.4</ele>
        <time>2022-07-12T19:26:36Z</time>
      </trkpt>
      <trkpt lat="44.00683" lon="3.16362">
        <ele>788.2</ele>
        <time>2022-07-12T19:26:39Z</time>
      </trkpt>
      <trkpt lat="44.00678" lon="3.16386">
        <ele>788.2</ele>
        <time>2022-07-12T19:26:43Z</time>
      </trkpt>
      <trkpt lat="44.00675" lon="3.1641">
        <ele>788.2</ele>
        <time>2022-07-12T19:26:47Z</time>
      </trkpt>
      <trkpt lat="44.00676" lon="3.16424">
        <ele>788.2</ele>
        <time>2022-07-12T19:26:50Z</time>
      </trkpt>
      <trkpt lat="44.00681" lon="3.16439">
        <ele>787.8</ele>
        <time>2022-07-12T19:26:56Z</time>
      </trkpt>
      <trkpt lat="44.00681" lon="3.1644">
        <ele>787.6</ele>
        <time>2022-07-12T19:26:58Z</time>
      </trkpt>
      <trkpt lat="44.00684" lon="3.16441">
        <ele>787.2</ele>
        <time>2022-07-12T19:27:06Z</time>
      </trkpt>
      <trkpt lat="44.00685" lon="3.16441">
        <ele>787.2</ele>
        <time>2022-07-12T19:27:08Z</time>
      </trkpt>
      <trkpt lat="44.00689" lon="3.16444">
        <ele>787</ele>
        <time>2022-07-12T19:27:12Z</time>
      </trkpt>
      <trkpt lat="44.00691" lon="3.16445">
        <ele>787</ele>
        <time>2022-07-12T19:27:14Z</time>
      </trkpt>
      <trkpt lat="44.00697" lon="3.16448">
        <ele>787</ele>
        <time>2022-07-12T19:27:20Z</time>
      </trkpt>
    </trkseg>
  </trk>
</gpx>